<?xml version='1.0' encoding='UTF-8'?><gpx version="1.1" creator="JPX - https://github.com/jenetics/jpx" xmlns="http://www.topografix.com/GPX/1/1"><trk><trkseg><trkpt lat="37.87562149716695" lon="-4.788424364600207"><ele>111.0</ele><time>2026-04-27T09:58:17.999Z</time></trkpt><trkpt lat="37.87554605794431" lon="-4.78851405874308"><ele>111.0</ele><time>2026-04-27T09:58:21.999Z</time></trkpt><trkpt lat="37.875519077104634" lon="-4.788611964400695"><ele>111.0</ele><time>2026-04-27T09:58:23.999Z</time></trkpt><trkpt lat="37.875541766683135" lon="-4.7886888457205075"><ele>111.0</ele><time>2026-04-27T09:58:26.999Z</time></trkpt><trkpt lat="37.87554992199358" lon="-4.788771673725524"><ele>111.0</ele><time>2026-04-27T09:58:29.999Z</time></trkpt><trkpt lat="37.875570349010175" lon="-4.7888665868742475"><ele>111.0</ele><time>2026-04-27T09:58:31.999Z</time></trkpt><trkpt lat="37.87560187507976" lon="-4.788975240882116"><ele>111.0</ele><time>2026-04-27T09:58:33.999Z</time></trkpt><trkpt lat="37.87566916466628" lon="-4.789049917540479"><ele>111.0</ele><time>2026-04-27T09:58:35.999Z</time></trkpt><trkpt lat="37.87573810285679" lon="-4.789072701869992"><ele>111.0</ele><time>2026-04-27T09:58:37.999Z</time></trkpt><trkpt lat="37.875819275831475" lon="-4.78909443954835"><ele>111.0</ele><time>2026-04-27T09:58:41.999Z</time></trkpt><trkpt lat="37.87588630727849" lon="-4.789139581761839"><ele>111.0</ele><time>2026-04-27T09:58:43.999Z</time></trkpt><trkpt lat="37.8759536865929" lon="-4.789172619559629"><ele>111.0</ele><time>2026-04-27T09:58:45.999Z</time></trkpt><trkpt lat="37.876020395793326" lon="-4.789204774990349"><ele>111.0</ele><time>2026-04-27T09:58:47.999Z</time></trkpt><trkpt lat="37.87608412097973" lon="-4.7892331859338535"><ele>111.0</ele><time>2026-04-27T09:58:49.999Z</time></trkpt><trkpt lat="37.87615931259479" lon="-4.789209573276071"><ele>111.0</ele><time>2026-04-27T10:00:57.999Z</time></trkpt><trkpt lat="37.87621290419041" lon="-4.789274317489658"><ele>111.0</ele><time>2026-04-27T10:00:59.999Z</time></trkpt><trkpt lat="37.87628173102354" lon="-4.789324463621229"><ele>111.0</ele><time>2026-04-27T10:01:01.999Z</time></trkpt><trkpt lat="37.876363766233915" lon="-4.789376278096286"><ele>111.0</ele><time>2026-04-27T10:01:03.999Z</time></trkpt><trkpt lat="37.87642890721107" lon="-4.789412408966434"><ele>111.0</ele><time>2026-04-27T10:01:05.999Z</time></trkpt><trkpt lat="37.87648344789474" lon="-4.789455219900866"><ele>111.0</ele><time>2026-04-27T10:01:07.999Z</time></trkpt><trkpt lat="37.87657049632817" lon="-4.78950218743037"><ele>111.0</ele><time>2026-04-27T10:01:09.999Z</time></trkpt><trkpt lat="37.876666780798" lon="-4.789611227608032"><ele>111.0</ele><time>2026-04-27T10:01:11.999Z</time></trkpt><trkpt lat="37.87677406556102" lon="-4.789700097042303"><ele>111.0</ele><time>2026-04-27T10:01:13.999Z</time></trkpt><trkpt lat="37.87684239233177" lon="-4.789738634063957"><ele>112.4</ele><time>2026-04-27T10:01:14.999Z</time></trkpt><trkpt lat="37.8769094769914" lon="-4.7897706387362184"><ele>113.8</ele><time>2026-04-27T10:01:15.999Z</time></trkpt><trkpt lat="37.87703429402265" lon="-4.789820819552439"><ele>115.20000000000002</ele><time>2026-04-27T10:01:17.999Z</time></trkpt><trkpt lat="37.87710266282315" lon="-4.7898539646617495"><ele>116.60000000000001</ele><time>2026-04-27T10:01:18.999Z</time></trkpt><trkpt lat="37.87720075130518" lon="-4.789920095333548"><ele>118.0</ele><time>2026-04-27T10:01:20.999Z</time></trkpt><trkpt lat="37.87728951852674" lon="-4.7899681191623085"><ele>118.00000000000001</ele><time>2026-04-27T10:01:22.999Z</time></trkpt><trkpt lat="37.877372798522615" lon="-4.79002355292197"><ele>118.0</ele><time>2026-04-27T10:01:24.999Z</time></trkpt><trkpt lat="37.87743777443375" lon="-4.790061572329541"><ele>118.0</ele><time>2026-04-27T10:01:26.999Z</time></trkpt><trkpt lat="37.87750075395903" lon="-4.790111499437048"><ele>118.0</ele><time>2026-04-27T10:01:29.999Z</time></trkpt><trkpt lat="37.87758088074277" lon="-4.790151189228185"><ele>118.00000000000001</ele><time>2026-04-27T10:01:31.999Z</time></trkpt><trkpt lat="37.87768008963288" lon="-4.790228776778563"><ele>118.0</ele><time>2026-04-27T10:01:33.999Z</time></trkpt><trkpt lat="37.877789552350386" lon="-4.790281053380575"><ele>118.00000000000001</ele><time>2026-04-27T10:01:35.999Z</time></trkpt><trkpt lat="37.877847801734255" lon="-4.790312201190844"><ele>118.0</ele><time>2026-04-27T10:01:36.999Z</time></trkpt><trkpt lat="37.87794441268917" lon="-4.7903629123485745"><ele>118.0</ele><time>2026-04-27T10:01:38.999Z</time></trkpt><trkpt lat="37.87800956917056" lon="-4.790409710055289"><ele>118.0</ele><time>2026-04-27T10:01:40.999Z</time></trkpt><trkpt lat="37.87807110696101" lon="-4.790458082690458"><ele>118.00000000000001</ele><time>2026-04-27T10:01:43.999Z</time></trkpt><trkpt lat="37.878161263708606" lon="-4.7903915043174115"><ele>118.0</ele><time>2026-04-27T10:01:45.999Z</time></trkpt><trkpt lat="37.87819451746498" lon="-4.790312473830567"><ele>118.00000000000001</ele><time>2026-04-27T10:01:46.999Z</time></trkpt><trkpt lat="37.87822610274473" lon="-4.790233935582285"><ele>118.0</ele><time>2026-04-27T10:01:47.999Z</time></trkpt><trkpt lat="37.878251269179636" lon="-4.790155409371109"><ele>118.0</ele><time>2026-04-27T10:01:48.999Z</time></trkpt><trkpt lat="37.87832286169835" lon="-4.789966887314202"><ele>118.0</ele><time>2026-04-27T10:01:51.999Z</time></trkpt><trkpt lat="37.87835280436656" lon="-4.789891504294517"><ele>118.00000000000001</ele><time>2026-04-27T10:01:52.999Z</time></trkpt><trkpt lat="37.87838588612017" lon="-4.789806810579045"><ele>118.0</ele><time>2026-04-27T10:01:53.999Z</time></trkpt><trkpt lat="37.87842393896805" lon="-4.7897159263637485"><ele>118.83333333333334</ele><time>2026-04-27T10:01:54.999Z</time></trkpt><trkpt lat="37.878462872976044" lon="-4.789626285383154"><ele>119.66666666666667</ele><time>2026-04-27T10:01:55.999Z</time></trkpt><trkpt lat="37.87849417926954" lon="-4.789537686911864"><ele>120.5</ele><time>2026-04-27T10:01:56.999Z</time></trkpt><trkpt lat="37.87852199319006" lon="-4.789450978420207"><ele>121.33333333333334</ele><time>2026-04-27T10:01:57.999Z</time></trkpt><trkpt lat="37.878568913869756" lon="-4.789333857535215"><ele>122.16666666666667</ele><time>2026-04-27T10:01:59.999Z</time></trkpt><trkpt lat="37.87860384505469" lon="-4.78923759449512"><ele>123.0</ele><time>2026-04-27T10:02:01.999Z</time></trkpt><trkpt lat="37.878650780527956" lon="-4.789120534747893"><ele>123.2</ele><time>2026-04-27T10:02:03.999Z</time></trkpt><trkpt lat="37.878699788704495" lon="-4.7890050030820435"><ele>123.4</ele><time>2026-04-27T10:02:05.999Z</time></trkpt><trkpt lat="37.87874519951595" lon="-4.788881312921269"><ele>123.60000000000001</ele><time>2026-04-27T10:02:07.999Z</time></trkpt><trkpt lat="37.878784539424466" lon="-4.788783006982628"><ele>123.80000000000001</ele><time>2026-04-27T10:02:09.999Z</time></trkpt><trkpt lat="37.8788188362583" lon="-4.788707739522789"><ele>124.0</ele><time>2026-04-27T10:02:11.999Z</time></trkpt><trkpt lat="37.878850202264736" lon="-4.788591753763893"><ele>124.0</ele><time>2026-04-27T10:02:39.999Z</time></trkpt><trkpt lat="37.87888244809885" lon="-4.788518758151685"><ele>124.00000000000001</ele><time>2026-04-27T10:02:40.999Z</time></trkpt><trkpt lat="37.878923286899905" lon="-4.788430180466073"><ele>124.0</ele><time>2026-04-27T10:02:41.999Z</time></trkpt><trkpt lat="37.87895502168688" lon="-4.78834354816615"><ele>124.0</ele><time>2026-04-27T10:02:42.999Z</time></trkpt><trkpt lat="37.87898436355084" lon="-4.788263486071558"><ele>124.00000000000001</ele><time>2026-04-27T10:02:43.999Z</time></trkpt><trkpt lat="37.87901998325039" lon="-4.788178079123859"><ele>124.0</ele><time>2026-04-27T10:02:44.999Z</time></trkpt><trkpt lat="37.87904980277295" lon="-4.788089221526222"><ele>124.0</ele><time>2026-04-27T10:02:45.999Z</time></trkpt><trkpt lat="37.8790856529574" lon="-4.787994159120292"><ele>123.50000000000001</ele><time>2026-04-27T10:02:46.999Z</time></trkpt><trkpt lat="37.87912415513822" lon="-4.787904728330995"><ele>123.0</ele><time>2026-04-27T10:02:47.999Z</time></trkpt><trkpt lat="37.87915290254466" lon="-4.787818000306877"><ele>122.5</ele><time>2026-04-27T10:02:48.999Z</time></trkpt><trkpt lat="37.87918672674026" lon="-4.7877144894767225"><ele>122.0</ele><time>2026-04-27T10:02:49.999Z</time></trkpt><trkpt lat="37.87922217824768" lon="-4.787619009149575"><ele>121.50000000000001</ele><time>2026-04-27T10:02:50.999Z</time></trkpt><trkpt lat="37.87925363392295" lon="-4.787524974140329"><ele>121.0</ele><time>2026-04-27T10:02:51.999Z</time></trkpt><trkpt lat="37.87929267440789" lon="-4.7874139403390545"><ele>121.00000000000001</ele><time>2026-04-27T10:02:52.999Z</time></trkpt><trkpt lat="37.87934185340243" lon="-4.787321898501456"><ele>121.0</ele><time>2026-04-27T10:02:53.999Z</time></trkpt><trkpt lat="37.87938120397843" lon="-4.787231842981383"><ele>121.0</ele><time>2026-04-27T10:02:54.999Z</time></trkpt><trkpt lat="37.87941381411837" lon="-4.787142134382714"><ele>121.0</ele><time>2026-04-27T10:02:55.999Z</time></trkpt><trkpt lat="37.87945012666532" lon="-4.787064929398611"><ele>121.00000000000001</ele><time>2026-04-27T10:02:56.999Z</time></trkpt><trkpt lat="37.87949971258476" lon="-4.7869262744633625"><ele>121.0</ele><time>2026-04-27T10:02:58.999Z</time></trkpt><trkpt lat="37.87955851201151" lon="-4.786830671453153"><ele>120.0</ele><time>2026-04-27T10:03:00.999Z</time></trkpt><trkpt lat="37.879609492956426" lon="-4.786713637666395"><ele>119.0</ele><time>2026-04-27T10:03:02.999Z</time></trkpt><trkpt lat="37.879610034222104" lon="-4.786551627444814"><ele>118.0</ele><time>2026-04-27T10:03:04.999Z</time></trkpt><trkpt lat="37.87961104745965" lon="-4.78644390616404"><ele>117.0</ele><time>2026-04-27T10:03:05.999Z</time></trkpt><trkpt lat="37.87960702516491" lon="-4.786329295188116"><ele>116.0</ele><time>2026-04-27T10:03:06.999Z</time></trkpt><trkpt lat="37.879606822035214" lon="-4.786224636630029"><ele>116.0</ele><time>2026-04-27T10:03:07.999Z</time></trkpt><trkpt lat="37.87960967489734" lon="-4.78612026705555"><ele>116.0</ele><time>2026-04-27T10:03:08.999Z</time></trkpt><trkpt lat="37.87961841144923" lon="-4.786031873154167"><ele>116.0</ele><time>2026-04-27T10:03:09.999Z</time></trkpt><trkpt lat="37.87963285555137" lon="-4.785954002720219"><ele>116.0</ele><time>2026-04-27T10:03:10.999Z</time></trkpt><trkpt lat="37.8796264242002" lon="-4.785853603635649"><ele>116.0</ele><time>2026-04-27T10:03:12.999Z</time></trkpt><trkpt lat="37.8798064663049" lon="-4.785833121975692"><ele>116.42857142857144</ele><time>2026-04-27T10:03:14.999Z</time></trkpt><trkpt lat="37.87987465663851" lon="-4.785831310692095"><ele>116.85714285714286</ele><time>2026-04-27T10:03:15.999Z</time></trkpt><trkpt lat="37.87994396958175" lon="-4.785821673049437"><ele>117.28571428571429</ele><time>2026-04-27T10:03:16.996Z</time></trkpt><trkpt lat="37.88001274132824" lon="-4.785807032827217"><ele>117.71428571428572</ele><time>2026-04-27T10:03:17.996Z</time></trkpt><trkpt lat="37.88008654470544" lon="-4.785786734030453"><ele>118.14285714285714</ele><time>2026-04-27T10:03:18.997Z</time></trkpt><trkpt lat="37.88016621142085" lon="-4.78575822803173"><ele>118.57142857142857</ele><time>2026-04-27T10:03:19.997Z</time></trkpt><trkpt lat="37.88024386950659" lon="-4.785719621439264"><ele>119.0</ele><time>2026-04-27T10:03:20.997Z</time></trkpt><trkpt lat="37.88031480704987" lon="-4.785672859489806"><ele>118.99999999999999</ele><time>2026-04-27T10:03:21.997Z</time></trkpt><trkpt lat="37.88038911388844" lon="-4.785616642352426"><ele>119.0</ele><time>2026-04-27T10:03:22.997Z</time></trkpt><trkpt lat="37.88045520587835" lon="-4.785559559870463"><ele>119.0</ele><time>2026-04-27T10:03:23.997Z</time></trkpt><trkpt lat="37.88050649235604" lon="-4.785505385092723"><ele>119.0</ele><time>2026-04-27T10:03:24.997Z</time></trkpt><trkpt lat="37.88057564342332" lon="-4.785418611451531"><ele>118.99999999999999</ele><time>2026-04-27T10:03:26.997Z</time></trkpt><trkpt lat="37.88063896462248" lon="-4.785377763303352"><ele>119.0</ele><time>2026-04-27T10:03:28.997Z</time></trkpt><trkpt lat="37.88070289060455" lon="-4.785315679268057"><ele>118.99999999999999</ele><time>2026-04-27T10:03:30.997Z</time></trkpt><trkpt lat="37.88075109292828" lon="-4.7852485580516175"><ele>119.0</ele><time>2026-04-27T10:03:32.997Z</time></trkpt><trkpt lat="37.88081195638307" lon="-4.785196463603775"><ele>119.0</ele><time>2026-04-27T10:03:36.998Z</time></trkpt><trkpt lat="37.880886351488165" lon="-4.785158384778551"><ele>119.0</ele><time>2026-04-27T10:03:41.998Z</time></trkpt><trkpt lat="37.880960143585874" lon="-4.78513950177152"><ele>118.99999999999999</ele><time>2026-04-27T10:03:42.998Z</time></trkpt><trkpt lat="37.881049178390285" lon="-4.785134130918429"><ele>119.0</ele><time>2026-04-27T10:03:43.998Z</time></trkpt><trkpt lat="37.8811637905336" lon="-4.785131456978284"><ele>119.75</ele><time>2026-04-27T10:03:44.998Z</time></trkpt><trkpt lat="37.881297041166185" lon="-4.785122396009133"><ele>120.5</ele><time>2026-04-27T10:03:45.998Z</time></trkpt><trkpt lat="37.88143758214985" lon="-4.7851197528962395"><ele>121.25</ele><time>2026-04-27T10:03:46.998Z</time></trkpt><trkpt lat="37.88157861863716" lon="-4.785105599912564"><ele>122.0</ele><time>2026-04-27T10:03:47.998Z</time></trkpt><trkpt lat="37.881704263619724" lon="-4.785092991435122"><ele>121.8</ele><time>2026-04-27T10:03:48.998Z</time></trkpt><trkpt lat="37.88180988278036" lon="-4.785062791772608"><ele>121.6</ele><time>2026-04-27T10:03:49.998Z</time></trkpt><trkpt lat="37.88190608079737" lon="-4.78506418798474"><ele>121.39999999999999</ele><time>2026-04-27T10:03:50.998Z</time></trkpt><trkpt lat="37.88199945348194" lon="-4.785056544713105"><ele>121.19999999999999</ele><time>2026-04-27T10:03:51.999Z</time></trkpt><trkpt lat="37.88210029962788" lon="-4.785040766669855"><ele>121.0</ele><time>2026-04-27T10:03:52.999Z</time></trkpt><trkpt lat="37.882207086072164" lon="-4.785021558298952"><ele>121.0</ele><time>2026-04-27T10:03:53.999Z</time></trkpt><trkpt lat="37.88232204015682" lon="-4.7850110077540355"><ele>121.0</ele><time>2026-04-27T10:03:54.999Z</time></trkpt><trkpt lat="37.88243572347024" lon="-4.785010122388662"><ele>121.0</ele><time>2026-04-27T10:03:55.999Z</time></trkpt><trkpt lat="37.8825340543426" lon="-4.78501058773594"><ele>121.0</ele><time>2026-04-27T10:03:56.999Z</time></trkpt><trkpt lat="37.88262153323985" lon="-4.7850056923989674"><ele>121.0</ele><time>2026-04-27T10:03:57.999Z</time></trkpt><trkpt lat="37.88270830637064" lon="-4.784999473356905"><ele>121.19999999999999</ele><time>2026-04-27T10:03:58.999Z</time></trkpt><trkpt lat="37.88279481624361" lon="-4.784988638984337"><ele>121.39999999999999</ele><time>2026-04-27T10:03:59.999Z</time></trkpt><trkpt lat="37.88288615331292" lon="-4.784977097610208"><ele>121.6</ele><time>2026-04-27T10:04:00.999Z</time></trkpt><trkpt lat="37.882981889018495" lon="-4.784966016007479"><ele>121.8</ele><time>2026-04-27T10:04:01.999Z</time></trkpt><trkpt lat="37.88307880088589" lon="-4.784955934676235"><ele>122.0</ele><time>2026-04-27T10:04:02.999Z</time></trkpt><trkpt lat="37.88317660899697" lon="-4.784942389270336"><ele>122.0</ele><time>2026-04-27T10:04:03.999Z</time></trkpt><trkpt lat="37.883278307141666" lon="-4.784934983845902"><ele>121.99999999999999</ele><time>2026-04-27T10:04:04.999Z</time></trkpt><trkpt lat="37.883377239478136" lon="-4.784923957791902"><ele>121.99999999999999</ele><time>2026-04-27T10:04:05.999Z</time></trkpt><trkpt lat="37.88347847489343" lon="-4.784911830631204"><ele>122.0</ele><time>2026-04-27T10:04:06.999Z</time></trkpt><trkpt lat="37.88358154793293" lon="-4.784894334471468"><ele>122.0</ele><time>2026-04-27T10:04:07.999Z</time></trkpt><trkpt lat="37.8836839272655" lon="-4.784880973793564"><ele>122.8</ele><time>2026-04-27T10:04:08.999Z</time></trkpt><trkpt lat="37.883787020306265" lon="-4.784870957747259"><ele>123.6</ele><time>2026-04-27T10:04:09.999Z</time></trkpt><trkpt lat="37.88389311497245" lon="-4.784863795000963"><ele>124.39999999999999</ele><time>2026-04-27T10:04:10.999Z</time></trkpt><trkpt lat="37.88400243137855" lon="-4.784854012411186"><ele>125.19999999999999</ele><time>2026-04-27T10:04:11.999Z</time></trkpt><trkpt lat="37.88410659832192" lon="-4.7848334248852264"><ele>126.0</ele><time>2026-04-27T10:04:12.999Z</time></trkpt><trkpt lat="37.88420367233361" lon="-4.784817095830609"><ele>126.0</ele><time>2026-04-27T10:04:13.999Z</time></trkpt><trkpt lat="37.8842953505496" lon="-4.784825663803335"><ele>126.0</ele><time>2026-04-27T10:04:14.999Z</time></trkpt><trkpt lat="37.8843799285545" lon="-4.784817608757407"><ele>126.0</ele><time>2026-04-27T10:04:15.999Z</time></trkpt><trkpt lat="37.88446729788065" lon="-4.78480914402916"><ele>126.0</ele><time>2026-04-27T10:04:16.999Z</time></trkpt><trkpt lat="37.884540793812505" lon="-4.784800609838552"><ele>126.0</ele><time>2026-04-27T10:04:17.999Z</time></trkpt><trkpt lat="37.88460818483006" lon="-4.784792784537916"><ele>126.0</ele><time>2026-04-27T10:04:18.999Z</time></trkpt><trkpt lat="37.884671720953385" lon="-4.784785406859932"><ele>126.0</ele><time>2026-04-27T10:04:19.999Z</time></trkpt><trkpt lat="37.88471081216236" lon="-4.784458977167009"><ele>126.0</ele><time>2026-04-27T10:04:20.999Z</time></trkpt><trkpt lat="37.884966869394724" lon="-4.784741016322847"><ele>126.0</ele><time>2026-04-27T10:04:22.999Z</time></trkpt><trkpt lat="37.885105351417685" lon="-4.784726206139453"><ele>126.0</ele><time>2026-04-27T10:04:24.999Z</time></trkpt><trkpt lat="37.88520126594688" lon="-4.7847169180699884"><ele>126.0</ele><time>2026-04-27T10:04:25.999Z</time></trkpt><trkpt lat="37.885307818139985" lon="-4.784705148196631"><ele>126.0</ele><time>2026-04-27T10:04:26.999Z</time></trkpt><trkpt lat="37.88542753887705" lon="-4.784693115762053"><ele>126.0</ele><time>2026-04-27T10:04:27.999Z</time></trkpt><trkpt lat="37.885524305674586" lon="-4.784684662264574"><ele>126.0</ele><time>2026-04-27T10:04:28.999Z</time></trkpt><trkpt lat="37.8856178759155" lon="-4.784677232075891"><ele>126.0</ele><time>2026-04-27T10:04:29.999Z</time></trkpt><trkpt lat="37.88569965787912" lon="-4.784669343442414"><ele>126.0</ele><time>2026-04-27T10:04:30.999Z</time></trkpt><trkpt lat="37.88577394271545" lon="-4.784660463048782"><ele>126.0</ele><time>2026-04-27T10:04:31.999Z</time></trkpt><trkpt lat="37.88584585226607" lon="-4.784667309221368"><ele>126.0</ele><time>2026-04-27T10:04:32.999Z</time></trkpt><trkpt lat="37.885915012140096" lon="-4.784672156293217"><ele>126.42857142857143</ele><time>2026-04-27T10:04:33.999Z</time></trkpt><trkpt lat="37.885979931744416" lon="-4.784669625091997"><ele>126.85714285714286</ele><time>2026-04-27T10:04:34.999Z</time></trkpt><trkpt lat="37.88606205513413" lon="-4.784667021896454"><ele>127.28571428571428</ele><time>2026-04-27T10:04:36.999Z</time></trkpt><trkpt lat="37.886133046532464" lon="-4.784664771571675"><ele>127.71428571428571</ele><time>2026-04-27T10:04:40.999Z</time></trkpt><trkpt lat="37.8862155018438" lon="-4.784658387617304"><ele>128.14285714285714</ele><time>2026-04-27T10:05:34.998Z</time></trkpt><trkpt lat="37.88628160789621" lon="-4.784651979952854"><ele>128.57142857142856</ele><time>2026-04-27T10:05:35.998Z</time></trkpt><trkpt lat="37.88635309212744" lon="-4.784645050684413"><ele>129.0</ele><time>2026-04-27T10:05:36.998Z</time></trkpt><trkpt lat="37.886430524199845" lon="-4.784631728640292"><ele>129.0</ele><time>2026-04-27T10:05:37.998Z</time></trkpt><trkpt lat="37.88651070413462" lon="-4.784472328490663"><ele>129.0</ele><time>2026-04-27T10:05:38.998Z</time></trkpt><trkpt lat="37.88657641422077" lon="-4.784393330605519"><ele>129.0</ele><time>2026-04-27T10:05:39.998Z</time></trkpt><trkpt lat="37.886645080897004" lon="-4.784314932910018"><ele>129.0</ele><time>2026-04-27T10:05:40.998Z</time></trkpt><trkpt lat="37.88665691290102" lon="-4.784167672857627"><ele>129.0</ele><time>2026-04-27T10:05:41.999Z</time></trkpt><trkpt lat="37.88671892940019" lon="-4.78407822697378"><ele>130.0</ele><time>2026-04-27T10:05:42.999Z</time></trkpt><trkpt lat="37.88677320146953" lon="-4.783972803943515"><ele>131.0</ele><time>2026-04-27T10:05:43.999Z</time></trkpt><trkpt lat="37.8868274354798" lon="-4.7838680721595415"><ele>132.0</ele><time>2026-04-27T10:05:44.999Z</time></trkpt><trkpt lat="37.88687249761928" lon="-4.783754966255143"><ele>133.0</ele><time>2026-04-27T10:05:45.999Z</time></trkpt><trkpt lat="37.88693162886614" lon="-4.783655044681026"><ele>134.0</ele><time>2026-04-27T10:05:46.999Z</time></trkpt><trkpt lat="37.88700097890711" lon="-4.783561782767374"><ele>134.66666666666666</ele><time>2026-04-27T10:05:47.999Z</time></trkpt><trkpt lat="37.887060163604524" lon="-4.783476334062765"><ele>135.33333333333331</ele><time>2026-04-27T10:05:48.999Z</time></trkpt><trkpt lat="37.887101830619095" lon="-4.783383454201183"><ele>136.0</ele><time>2026-04-27T10:05:49.999Z</time></trkpt><trkpt lat="37.88714048870391" lon="-4.783317802723801"><ele>136.66666666666666</ele><time>2026-04-27T10:05:50.999Z</time></trkpt><trkpt lat="37.88719812741264" lon="-4.783214873535853"><ele>137.33333333333334</ele><time>2026-04-27T10:05:52.999Z</time></trkpt><trkpt lat="37.887251653039414" lon="-4.783139124796018"><ele>138.0</ele><time>2026-04-27T10:05:55.999Z</time></trkpt><trkpt lat="37.887334022991915" lon="-4.783052282119162"><ele>138.0</ele><time>2026-04-27T10:06:12Z</time></trkpt><trkpt lat="37.887352377025856" lon="-4.782962757153088"><ele>138.0</ele><time>2026-04-27T10:06:13Z</time></trkpt><trkpt lat="37.887401231874634" lon="-4.782857575874525"><ele>138.0</ele><time>2026-04-27T10:06:15Z</time></trkpt><trkpt lat="37.88745610028006" lon="-4.782779435282711"><ele>138.0</ele><time>2026-04-27T10:06:17Z</time></trkpt><trkpt lat="37.88749888148253" lon="-4.782691613245911"><ele>138.0</ele><time>2026-04-27T10:06:20Z</time></trkpt><trkpt lat="37.88755636957778" lon="-4.782580941671336"><ele>138.0</ele><time>2026-04-27T10:06:23Z</time></trkpt><trkpt lat="37.887599404874365" lon="-4.7824967120953765"><ele>137.66666666666666</ele><time>2026-04-27T10:06:25Z</time></trkpt><trkpt lat="37.887651519719505" lon="-4.782415615712312"><ele>137.33333333333334</ele><time>2026-04-27T10:06:27Z</time></trkpt><trkpt lat="37.88771323342729" lon="-4.782319406848141"><ele>137.0</ele><time>2026-04-27T10:06:29Z</time></trkpt><trkpt lat="37.88775567818893" lon="-4.782240984586504"><ele>136.66666666666669</ele><time>2026-04-27T10:06:30Z</time></trkpt><trkpt lat="37.887791387632014" lon="-4.782165799288694"><ele>136.33333333333334</ele><time>2026-04-27T10:06:31Z</time></trkpt><trkpt lat="37.8878297947532" lon="-4.782081700848148"><ele>136.0</ele><time>2026-04-27T10:06:32Z</time></trkpt><trkpt lat="37.88786341710999" lon="-4.781994169480974"><ele>135.99999999999997</ele><time>2026-04-27T10:06:33Z</time></trkpt><trkpt lat="37.887900984455484" lon="-4.781912821767465"><ele>136.0</ele><time>2026-04-27T10:06:34Z</time></trkpt><trkpt lat="37.88793277726422" lon="-4.781837111518111"><ele>136.0</ele><time>2026-04-27T10:06:35Z</time></trkpt><trkpt lat="37.88796824267797" lon="-4.78176815354197"><ele>136.0</ele><time>2026-04-27T10:06:36Z</time></trkpt><trkpt lat="37.888005539165825" lon="-4.781698354641318"><ele>136.0</ele><time>2026-04-27T10:06:37Z</time></trkpt><trkpt lat="37.88804247342964" lon="-4.781622524798753"><ele>135.99999999999997</ele><time>2026-04-27T10:06:38Z</time></trkpt><trkpt lat="37.88808296866535" lon="-4.781550857802027"><ele>136.0</ele><time>2026-04-27T10:06:39Z</time></trkpt><trkpt lat="37.888146687662214" lon="-4.78144460761123"><ele>136.16666666666669</ele><time>2026-04-27T10:06:41Z</time></trkpt><trkpt lat="37.88821829046029" lon="-4.781384020235909"><ele>136.33333333333334</ele><time>2026-04-27T10:07:32Z</time></trkpt><trkpt lat="37.88827884652151" lon="-4.781247104179938"><ele>136.5</ele><time>2026-04-27T10:07:34Z</time></trkpt><trkpt lat="37.88831845703937" lon="-4.781169047128634"><ele>136.66666666666666</ele><time>2026-04-27T10:07:35Z</time></trkpt><trkpt lat="37.8883562429904" lon="-4.781094585748218"><ele>136.83333333333331</ele><time>2026-04-27T10:07:36Z</time></trkpt><trkpt lat="37.888400823040506" lon="-4.781018530350161"><ele>137.0</ele><time>2026-04-27T10:07:37Z</time></trkpt><trkpt lat="37.88844125471829" lon="-4.780942030767992"><ele>137.0</ele><time>2026-04-27T10:07:38Z</time></trkpt><trkpt lat="37.88848533962929" lon="-4.780859791098021"><ele>137.0</ele><time>2026-04-27T10:07:39Z</time></trkpt><trkpt lat="37.888529936215946" lon="-4.780776596885719"><ele>137.0</ele><time>2026-04-27T10:07:40Z</time></trkpt><trkpt lat="37.888570556668824" lon="-4.780700820185833"><ele>137.0</ele><time>2026-04-27T10:07:41Z</time></trkpt><trkpt lat="37.888613238263616" lon="-4.78062211865463"><ele>137.0</ele><time>2026-04-27T10:07:42Z</time></trkpt><trkpt lat="37.88865592798022" lon="-4.780543311959762"><ele>137.0</ele><time>2026-04-27T10:07:43Z</time></trkpt><trkpt lat="37.88869740793291" lon="-4.7804667385540425"><ele>137.0</ele><time>2026-04-27T10:07:44Z</time></trkpt><trkpt lat="37.88875809269875" lon="-4.7803547124027945"><ele>137.0</ele><time>2026-04-27T10:07:46Z</time></trkpt><trkpt lat="37.88880800961229" lon="-4.780262564078289"><ele>137.0</ele><time>2026-04-27T10:07:48Z</time></trkpt><trkpt lat="37.888848702724786" lon="-4.7801876938751615"><ele>137.0</ele><time>2026-04-27T10:07:50Z</time></trkpt><trkpt lat="37.888909036315276" lon="-4.780112068128724"><ele>137.0</ele><time>2026-04-27T10:07:52Z</time></trkpt><trkpt lat="37.88894235136884" lon="-4.780029984319399"><ele>137.0</ele><time>2026-04-27T10:07:54Z</time></trkpt><trkpt lat="37.88898504489226" lon="-4.77995804397187"><ele>137.16666666666666</ele><time>2026-04-27T10:07:56Z</time></trkpt><trkpt lat="37.88901970495495" lon="-4.779863722908706"><ele>137.33333333333331</ele><time>2026-04-27T10:07:58Z</time></trkpt><trkpt lat="37.88905479354043" lon="-4.7797570677777985"><ele>137.5</ele><time>2026-04-27T10:08:00Z</time></trkpt><trkpt lat="37.889093382016334" lon="-4.7796811952022145"><ele>137.66666666666666</ele><time>2026-04-27T10:08:02Z</time></trkpt><trkpt lat="37.889138019976805" lon="-4.779592531075089"><ele>137.83333333333334</ele><time>2026-04-27T10:08:04Z</time></trkpt><trkpt lat="37.88919364370646" lon="-4.779476084193043"><ele>138.0</ele><time>2026-04-27T10:08:06Z</time></trkpt><trkpt lat="37.88924966845787" lon="-4.7793416961652335"><ele>136.5</ele><time>2026-04-27T10:08:08.001Z</time></trkpt><trkpt lat="37.889270291417304" lon="-4.77926358569314"><ele>135.0</ele><time>2026-04-27T10:08:09.001Z</time></trkpt><trkpt lat="37.8892911775129" lon="-4.779115136810578"><ele>133.5</ele><time>2026-04-27T10:08:11.001Z</time></trkpt><trkpt lat="37.88929086155148" lon="-4.779031839694394"><ele>132.0</ele><time>2026-04-27T10:08:12.001Z</time></trkpt><trkpt lat="37.88928076821132" lon="-4.778941064176157"><ele>130.5</ele><time>2026-04-27T10:08:13.001Z</time></trkpt><trkpt lat="37.889264342159684" lon="-4.778839454109767"><ele>129.0</ele><time>2026-04-27T10:08:14.001Z</time></trkpt><trkpt lat="37.88924488619187" lon="-4.778732413147306"><ele>129.0</ele><time>2026-04-27T10:08:15.001Z</time></trkpt><trkpt lat="37.889222417646934" lon="-4.7786275975864125"><ele>129.0</ele><time>2026-04-27T10:08:16.001Z</time></trkpt><trkpt lat="37.889192593012645" lon="-4.778518769795818"><ele>129.0</ele><time>2026-04-27T10:08:17.001Z</time></trkpt><trkpt lat="37.889160791183876" lon="-4.778405202685183"><ele>129.0</ele><time>2026-04-27T10:08:18.001Z</time></trkpt><trkpt lat="37.88911358438233" lon="-4.778287347067288"><ele>129.0</ele><time>2026-04-27T10:08:19.001Z</time></trkpt><trkpt lat="37.88906295503799" lon="-4.77817036718418"><ele>129.0</ele><time>2026-04-27T10:08:20.001Z</time></trkpt><trkpt lat="37.889048606442024" lon="-4.7780393491630555"><ele>129.0</ele><time>2026-04-27T10:08:21.001Z</time></trkpt><trkpt lat="37.88903109214155" lon="-4.777912532990102"><ele>129.0</ele><time>2026-04-27T10:08:22.001Z</time></trkpt><trkpt lat="37.889035652006065" lon="-4.777701612872156"><ele>129.0</ele><time>2026-04-27T10:08:23.001Z</time></trkpt><trkpt lat="37.88899320892531" lon="-4.777597540264152"><ele>129.0</ele><time>2026-04-27T10:08:24.001Z</time></trkpt><trkpt lat="37.88895177519646" lon="-4.777490368105111"><ele>129.0</ele><time>2026-04-27T10:08:25.001Z</time></trkpt><trkpt lat="37.88893355897351" lon="-4.777396391591915"><ele>129.0</ele><time>2026-04-27T10:08:27.001Z</time></trkpt><trkpt lat="37.889104527436054" lon="-4.777344396203322"><ele>129.0</ele><time>2026-04-27T10:08:29.001Z</time></trkpt><trkpt lat="37.88924479045538" lon="-4.777370500064853"><ele>127.75</ele><time>2026-04-27T10:08:30.001Z</time></trkpt><trkpt lat="37.889377848151035" lon="-4.777403827861933"><ele>126.5</ele><time>2026-04-27T10:08:31.001Z</time></trkpt><trkpt lat="37.88950036130347" lon="-4.777472516723232"><ele>125.25</ele><time>2026-04-27T10:08:32.001Z</time></trkpt><trkpt lat="37.88964127764645" lon="-4.777505315841537"><ele>124.0</ele><time>2026-04-27T10:08:33.001Z</time></trkpt><trkpt lat="37.88977141075037" lon="-4.777531155014744"><ele>124.0</ele><time>2026-04-27T10:08:34.001Z</time></trkpt><trkpt lat="37.889892116159764" lon="-4.7775581699869125"><ele>124.0</ele><time>2026-04-27T10:08:35.001Z</time></trkpt><trkpt lat="37.88998577215139" lon="-4.777579348368041"><ele>124.0</ele><time>2026-04-27T10:08:36.001Z</time></trkpt><trkpt lat="37.8900541365177" lon="-4.777595083233727"><ele>124.0</ele><time>2026-04-27T10:08:37.001Z</time></trkpt><trkpt lat="37.89012834016849" lon="-4.777605388449819"><ele>124.0</ele><time>2026-04-27T10:08:39.001Z</time></trkpt><trkpt lat="37.89023881719085" lon="-4.777639569224011"><ele>123.80000000000001</ele><time>2026-04-27T10:09:25.002Z</time></trkpt><trkpt lat="37.89031189173244" lon="-4.777661896287759"><ele>123.60000000000001</ele><time>2026-04-27T10:09:26.002Z</time></trkpt><trkpt lat="37.89039928980212" lon="-4.7776877772188096"><ele>123.4</ele><time>2026-04-27T10:09:27.002Z</time></trkpt><trkpt lat="37.89049495554981" lon="-4.7777279495122205"><ele>123.2</ele><time>2026-04-27T10:09:28.002Z</time></trkpt><trkpt lat="37.89058588909895" lon="-4.777780694185194"><ele>123.0</ele><time>2026-04-27T10:09:29.002Z</time></trkpt><trkpt lat="37.890673712909965" lon="-4.777833177950517"><ele>123.0</ele><time>2026-04-27T10:09:30.002Z</time></trkpt><trkpt lat="37.89076608103052" lon="-4.7778475035112775"><ele>123.0</ele><time>2026-04-27T10:09:31.002Z</time></trkpt><trkpt lat="37.890845225911015" lon="-4.777872181529832"><ele>123.0</ele><time>2026-04-27T10:09:32.002Z</time></trkpt><trkpt lat="37.8909197586914" lon="-4.77789367385242"><ele>123.0</ele><time>2026-04-27T10:09:33.002Z</time></trkpt><trkpt lat="37.89099865919435" lon="-4.7779160495183834"><ele>123.0</ele><time>2026-04-27T10:09:34.002Z</time></trkpt><trkpt lat="37.89107546186097" lon="-4.777933813552932"><ele>123.0</ele><time>2026-04-27T10:09:35.001Z</time></trkpt><trkpt lat="37.89114142634699" lon="-4.777949519319856"><ele>123.4</ele><time>2026-04-27T10:09:36.001Z</time></trkpt><trkpt lat="37.89126684432938" lon="-4.7779629107571955"><ele>123.80000000000001</ele><time>2026-04-27T10:09:38.001Z</time></trkpt><trkpt lat="37.8913377208146" lon="-4.777950392806393"><ele>124.2</ele><time>2026-04-27T10:09:39.001Z</time></trkpt><trkpt lat="37.89140295004922" lon="-4.77795189066728"><ele>124.6</ele><time>2026-04-27T10:09:41.001Z</time></trkpt><trkpt lat="37.89147875714941" lon="-4.777951276789122"><ele>125.0</ele><time>2026-04-27T10:09:59.001Z</time></trkpt><trkpt lat="37.89163338158539" lon="-4.777891807924595"><ele>125.0</ele><time>2026-04-27T10:10:01.001Z</time></trkpt><trkpt lat="37.891731869285785" lon="-4.777893727516419"><ele>125.0</ele><time>2026-04-27T10:10:02.001Z</time></trkpt><trkpt lat="37.891818075556905" lon="-4.777946450540677"><ele>125.0</ele><time>2026-04-27T10:10:03.001Z</time></trkpt><trkpt lat="37.89193434315419" lon="-4.777960433560618"><ele>125.0</ele><time>2026-04-27T10:10:05.001Z</time></trkpt><trkpt lat="37.89194970925697" lon="-4.778212534441964"><ele>125.0</ele><time>2026-04-27T10:10:06.001Z</time></trkpt><trkpt lat="37.89195266392148" lon="-4.778325792703907"><ele>125.0</ele><time>2026-04-27T10:10:07.001Z</time></trkpt><trkpt lat="37.89193817552245" lon="-4.778447183957026"><ele>125.0</ele><time>2026-04-27T10:10:08.001Z</time></trkpt><trkpt lat="37.89192959397261" lon="-4.778552195470761"><ele>125.0</ele><time>2026-04-27T10:10:09.001Z</time></trkpt><trkpt lat="37.89191159443105" lon="-4.7786778632383005"><ele>125.0</ele><time>2026-04-27T10:10:10.001Z</time></trkpt><trkpt lat="37.89189597549701" lon="-4.77879981761637"><ele>124.99999999999999</ele><time>2026-04-27T10:10:11.001Z</time></trkpt><trkpt lat="37.89187533896294" lon="-4.7789163485162405"><ele>125.0</ele><time>2026-04-27T10:10:12.001Z</time></trkpt><trkpt lat="37.89185985975481" lon="-4.779017055417215"><ele>125.0</ele><time>2026-04-27T10:10:13.001Z</time></trkpt><trkpt lat="37.89185005284383" lon="-4.779097276557535"><ele>125.0</ele><time>2026-04-27T10:10:14.001Z</time></trkpt><trkpt lat="37.89182750314175" lon="-4.779246909290172"><ele>124.99999999999999</ele><time>2026-04-27T10:10:16.001Z</time></trkpt><trkpt lat="37.891816452197155" lon="-4.779351180273353"><ele>125.0</ele><time>2026-04-27T10:10:19.001Z</time></trkpt><trkpt lat="37.891810098117986" lon="-4.779436264796505"><ele>125.33333333333333</ele><time>2026-04-27T10:10:21.001Z</time></trkpt><trkpt lat="37.89180225712088" lon="-4.779558749354459"><ele>125.66666666666666</ele><time>2026-04-27T10:10:23.001Z</time></trkpt><trkpt lat="37.89177183579411" lon="-4.779697438263424"><ele>126.0</ele><time>2026-04-27T10:10:25.001Z</time></trkpt><trkpt lat="37.89175560628341" lon="-4.779801919894678"><ele>126.33333333333334</ele><time>2026-04-27T10:10:26.001Z</time></trkpt><trkpt lat="37.89173352816247" lon="-4.779899529793658"><ele>126.66666666666667</ele><time>2026-04-27T10:10:27.001Z</time></trkpt><trkpt lat="37.891722850269886" lon="-4.779982669204725"><ele>127.0</ele><time>2026-04-27T10:10:28.001Z</time></trkpt><trkpt lat="37.89174198263058" lon="-4.780117194359678"><ele>127.0</ele><time>2026-04-27T10:10:30.001Z</time></trkpt><trkpt lat="37.8918497612198" lon="-4.780176967068963"><ele>126.99999999999999</ele><time>2026-04-27T10:10:32.001Z</time></trkpt><trkpt lat="37.89191540172881" lon="-4.780187780519325"><ele>126.99999999999999</ele><time>2026-04-27T10:10:33.001Z</time></trkpt><trkpt lat="37.89202031947319" lon="-4.780223368975418"><ele>127.0</ele><time>2026-04-27T10:10:35.001Z</time></trkpt><trkpt lat="37.89210950442722" lon="-4.780257101960458"><ele>127.0</ele><time>2026-04-27T10:10:37.001Z</time></trkpt><trkpt lat="37.892193702668365" lon="-4.780180177245884"><ele>127.00000000000001</ele><time>2026-04-27T10:10:39.001Z</time></trkpt><trkpt lat="37.892291544503244" lon="-4.780103867209598"><ele>127.0</ele><time>2026-04-27T10:10:50.001Z</time></trkpt><trkpt lat="37.892348493124096" lon="-4.780057354903835"><ele>127.0</ele><time>2026-04-27T10:10:51.001Z</time></trkpt><trkpt lat="37.89240821752838" lon="-4.779995427414353"><ele>127.0</ele><time>2026-04-27T10:10:52.001Z</time></trkpt><trkpt lat="37.89246637478035" lon="-4.779963273812521"><ele>127.00000000000001</ele><time>2026-04-27T10:10:53.001Z</time></trkpt><trkpt lat="37.89256984425879" lon="-4.779880284162089"><ele>127.0</ele><time>2026-04-27T10:10:55.001Z</time></trkpt><trkpt lat="37.89267138093799" lon="-4.779774954631894"><ele>126.6</ele><time>2026-04-27T10:10:57.001Z</time></trkpt><trkpt lat="37.89273573821776" lon="-4.779704551631965"><ele>126.19999999999999</ele><time>2026-04-27T10:10:58.001Z</time></trkpt><trkpt lat="37.892804301652234" lon="-4.7796282559699925"><ele>125.8</ele><time>2026-04-27T10:10:59.001Z</time></trkpt><trkpt lat="37.892869365627234" lon="-4.7795447598575205"><ele>125.4</ele><time>2026-04-27T10:11:00.001Z</time></trkpt><trkpt lat="37.89292318116408" lon="-4.779451224490675"><ele>125.0</ele><time>2026-04-27T10:11:01.001Z</time></trkpt><trkpt lat="37.892980195038646" lon="-4.779362548457722"><ele>124.33333333333333</ele><time>2026-04-27T10:11:02.001Z</time></trkpt><trkpt lat="37.89302739185101" lon="-4.779278720383614"><ele>123.66666666666666</ele><time>2026-04-27T10:11:03.001Z</time></trkpt><trkpt lat="37.89307487235821" lon="-4.779188507600549"><ele>123.0</ele><time>2026-04-27T10:11:04.001Z</time></trkpt><trkpt lat="37.893116228081716" lon="-4.779101891324025"><ele>122.33333333333334</ele><time>2026-04-27T10:11:05.001Z</time></trkpt><trkpt lat="37.893175775676085" lon="-4.778977102791996"><ele>121.66666666666667</ele><time>2026-04-27T10:11:07.001Z</time></trkpt><trkpt lat="37.89322244429885" lon="-4.778884167662701"><ele>121.0</ele><time>2026-04-27T10:11:09.001Z</time></trkpt><trkpt lat="37.89328213673183" lon="-4.778754301105475"><ele>121.0</ele><time>2026-04-27T10:11:11.001Z</time></trkpt><trkpt lat="37.89332089008753" lon="-4.7786369519276635"><ele>121.0</ele><time>2026-04-27T10:11:12.001Z</time></trkpt><trkpt lat="37.893360168832736" lon="-4.778508821754382"><ele>121.0</ele><time>2026-04-27T10:11:13.001Z</time></trkpt><trkpt lat="37.893430080010326" lon="-4.77831656331228"><ele>121.0</ele><time>2026-04-27T10:11:14.001Z</time></trkpt><trkpt lat="37.89350648517889" lon="-4.778143785075954"><ele>121.0</ele><time>2026-04-27T10:11:15.001Z</time></trkpt><trkpt lat="37.89356588297408" lon="-4.778008705177072"><ele>121.0</ele><time>2026-04-27T10:11:16.001Z</time></trkpt><trkpt lat="37.89361786478071" lon="-4.777887668642097"><ele>121.0</ele><time>2026-04-27T10:11:17.002Z</time></trkpt><trkpt lat="37.89367077195688" lon="-4.777770807479939"><ele>121.0</ele><time>2026-04-27T10:11:18.002Z</time></trkpt><trkpt lat="37.89371915406799" lon="-4.777653549898082"><ele>121.0</ele><time>2026-04-27T10:11:19.002Z</time></trkpt><trkpt lat="37.893767603612226" lon="-4.777542034213224"><ele>121.6</ele><time>2026-04-27T10:11:20.002Z</time></trkpt><trkpt lat="37.893818371410546" lon="-4.777430843965664"><ele>122.19999999999999</ele><time>2026-04-27T10:11:21.002Z</time></trkpt><trkpt lat="37.89387115812816" lon="-4.777312064526077"><ele>122.80000000000001</ele><time>2026-04-27T10:11:22.002Z</time></trkpt><trkpt lat="37.89391847669985" lon="-4.777189200763404"><ele>123.4</ele><time>2026-04-27T10:11:23.002Z</time></trkpt><trkpt lat="37.89396972489613" lon="-4.7770679151541815"><ele>124.0</ele><time>2026-04-27T10:11:24.002Z</time></trkpt><trkpt lat="37.89402287056038" lon="-4.776946137299993"><ele>123.80000000000001</ele><time>2026-04-27T10:11:25.002Z</time></trkpt><trkpt lat="37.89407172907967" lon="-4.776822269250726"><ele>123.60000000000001</ele><time>2026-04-27T10:11:26.002Z</time></trkpt><trkpt lat="37.89412632062915" lon="-4.776702929832825"><ele>123.4</ele><time>2026-04-27T10:11:27.002Z</time></trkpt><trkpt lat="37.89417420224753" lon="-4.776586904773322"><ele>123.2</ele><time>2026-04-27T10:11:28.002Z</time></trkpt><trkpt lat="37.89422105891759" lon="-4.77647296665848"><ele>123.0</ele><time>2026-04-27T10:11:29.002Z</time></trkpt><trkpt lat="37.894268474817004" lon="-4.776359786898236"><ele>123.0</ele><time>2026-04-27T10:11:30.002Z</time></trkpt><trkpt lat="37.89431330595603" lon="-4.7762473985157845"><ele>123.00000000000001</ele><time>2026-04-27T10:11:31.002Z</time></trkpt><trkpt lat="37.89436135492531" lon="-4.77613923521764"><ele>123.00000000000001</ele><time>2026-04-27T10:11:32.002Z</time></trkpt><trkpt lat="37.894408116560335" lon="-4.776032352239977"><ele>123.0</ele><time>2026-04-27T10:11:33.002Z</time></trkpt><trkpt lat="37.89446241360585" lon="-4.775919374939191"><ele>123.0</ele><time>2026-04-27T10:11:34.002Z</time></trkpt><trkpt lat="37.89451382950612" lon="-4.775783182212831"><ele>122.80000000000001</ele><time>2026-04-27T10:11:35.002Z</time></trkpt><trkpt lat="37.894585520299145" lon="-4.77564659302011"><ele>122.60000000000001</ele><time>2026-04-27T10:11:36.002Z</time></trkpt><trkpt lat="37.89463560270094" lon="-4.775521826318495"><ele>122.39999999999999</ele><time>2026-04-27T10:11:37.002Z</time></trkpt><trkpt lat="37.894679059836065" lon="-4.7754112915301645"><ele>122.19999999999999</ele><time>2026-04-27T10:11:38.002Z</time></trkpt><trkpt lat="37.89472276713972" lon="-4.775314855745117"><ele>122.0</ele><time>2026-04-27T10:11:39.002Z</time></trkpt><trkpt lat="37.894771550606244" lon="-4.775226677665226"><ele>121.83333333333333</ele><time>2026-04-27T10:11:40.002Z</time></trkpt><trkpt lat="37.894811058000975" lon="-4.775144039430438"><ele>121.66666666666666</ele><time>2026-04-27T10:11:41Z</time></trkpt><trkpt lat="37.894846597723436" lon="-4.7750636422787425"><ele>121.5</ele><time>2026-04-27T10:11:42Z</time></trkpt><trkpt lat="37.89488858089852" lon="-4.774966714898385"><ele>121.33333333333334</ele><time>2026-04-27T10:11:43Z</time></trkpt><trkpt lat="37.894934956847045" lon="-4.774861191442247"><ele>121.16666666666667</ele><time>2026-04-27T10:11:44Z</time></trkpt><trkpt lat="37.894982426534874" lon="-4.774752668627619"><ele>121.0</ele><time>2026-04-27T10:11:45Z</time></trkpt><trkpt lat="37.89503159950309" lon="-4.774641547997632"><ele>121.0</ele><time>2026-04-27T10:11:46Z</time></trkpt><trkpt lat="37.89507769122005" lon="-4.774532636169764"><ele>121.0</ele><time>2026-04-27T10:11:47Z</time></trkpt><trkpt lat="37.89512488391667" lon="-4.774413111581976"><ele>121.0</ele><time>2026-04-27T10:11:48Z</time></trkpt><trkpt lat="37.895167564257584" lon="-4.774308183631282"><ele>121.0</ele><time>2026-04-27T10:11:49Z</time></trkpt><trkpt lat="37.89521247041161" lon="-4.774205176887418"><ele>121.0</ele><time>2026-04-27T10:11:50Z</time></trkpt><trkpt lat="37.8952560240551" lon="-4.774101109191976"><ele>121.16666666666667</ele><time>2026-04-27T10:11:51Z</time></trkpt><trkpt lat="37.89529549856466" lon="-4.774003084472053"><ele>121.33333333333334</ele><time>2026-04-27T10:11:52Z</time></trkpt><trkpt lat="37.89534146882651" lon="-4.77389884937649"><ele>121.5</ele><time>2026-04-27T10:11:53Z</time></trkpt><trkpt lat="37.895380054497586" lon="-4.7737988272841765"><ele>121.66666666666666</ele><time>2026-04-27T10:11:54Z</time></trkpt><trkpt lat="37.89542553821915" lon="-4.7736944916260615"><ele>121.83333333333333</ele><time>2026-04-27T10:11:55Z</time></trkpt><trkpt lat="37.895468982499914" lon="-4.773603954057529"><ele>122.0</ele><time>2026-04-27T10:11:56Z</time></trkpt><trkpt lat="37.89551180329617" lon="-4.773508341149771"><ele>122.0</ele><time>2026-04-27T10:11:57Z</time></trkpt><trkpt lat="37.89555277568844" lon="-4.773408048814701"><ele>121.99999999999999</ele><time>2026-04-27T10:11:58Z</time></trkpt><trkpt lat="37.895598600417934" lon="-4.773314461457516"><ele>121.99999999999999</ele><time>2026-04-27T10:11:59Z</time></trkpt><trkpt lat="37.895643747750725" lon="-4.773208350164212"><ele>122.0</ele><time>2026-04-27T10:12:00Z</time></trkpt><trkpt lat="37.89569310894878" lon="-4.773093375325977"><ele>122.0</ele><time>2026-04-27T10:12:01Z</time></trkpt><trkpt lat="37.895749474348676" lon="-4.772974594945904"><ele>122.0</ele><time>2026-04-27T10:12:02Z</time></trkpt><trkpt lat="37.89581029952529" lon="-4.772854388589497"><ele>122.0</ele><time>2026-04-27T10:12:03Z</time></trkpt><trkpt lat="37.89586008576789" lon="-4.772720378520554"><ele>122.0</ele><time>2026-04-27T10:12:04Z</time></trkpt><trkpt lat="37.89591173892491" lon="-4.772594605490752"><ele>122.0</ele><time>2026-04-27T10:12:05Z</time></trkpt><trkpt lat="37.89596841349596" lon="-4.772470727309626"><ele>121.5</ele><time>2026-04-27T10:12:06Z</time></trkpt><trkpt lat="37.896027758323505" lon="-4.7723462910479215"><ele>121.0</ele><time>2026-04-27T10:12:07Z</time></trkpt><trkpt lat="37.89608660291559" lon="-4.77222213761049"><ele>120.5</ele><time>2026-04-27T10:12:08Z</time></trkpt><trkpt lat="37.89614908719057" lon="-4.772093156260216"><ele>120.0</ele><time>2026-04-27T10:12:09Z</time></trkpt><trkpt lat="37.89622288687928" lon="-4.7719458104050085"><ele>119.75</ele><time>2026-04-27T10:12:10Z</time></trkpt><trkpt lat="37.896293540173396" lon="-4.771788146962315"><ele>119.5</ele><time>2026-04-27T10:12:11Z</time></trkpt><trkpt lat="37.896360468637404" lon="-4.77163494510872"><ele>119.25</ele><time>2026-04-27T10:12:12Z</time></trkpt><trkpt lat="37.89642818474169" lon="-4.771476686565874"><ele>119.0</ele><time>2026-04-27T10:12:13Z</time></trkpt><trkpt lat="37.89649503681588" lon="-4.771316428053815"><ele>119.0</ele><time>2026-04-27T10:12:14Z</time></trkpt><trkpt lat="37.89655799351357" lon="-4.7711602342407575"><ele>119.0</ele><time>2026-04-27T10:12:15Z</time></trkpt><trkpt lat="37.89661348670372" lon="-4.771011909421404"><ele>119.0</ele><time>2026-04-27T10:12:16Z</time></trkpt><trkpt lat="37.896665402051255" lon="-4.770879094840849"><ele>119.0</ele><time>2026-04-27T10:12:17Z</time></trkpt><trkpt lat="37.89671867783696" lon="-4.770746069266537"><ele>120.0</ele><time>2026-04-27T10:12:18Z</time></trkpt><trkpt lat="37.89677522995229" lon="-4.770608986233813"><ele>121.0</ele><time>2026-04-27T10:12:19Z</time></trkpt><trkpt lat="37.896834291562165" lon="-4.7704644641994065"><ele>122.0</ele><time>2026-04-27T10:12:20Z</time></trkpt><trkpt lat="37.89689019596345" lon="-4.770331859935719"><ele>123.0</ele><time>2026-04-27T10:12:21Z</time></trkpt><trkpt lat="37.89694328250239" lon="-4.770194554565284"><ele>122.5</ele><time>2026-04-27T10:12:22Z</time></trkpt><trkpt lat="37.89700377195205" lon="-4.770052962226361"><ele>122.0</ele><time>2026-04-27T10:12:23Z</time></trkpt><trkpt lat="37.89706161219861" lon="-4.769909554004392"><ele>121.5</ele><time>2026-04-27T10:12:24Z</time></trkpt><trkpt lat="37.89712068695284" lon="-4.7697667439334905"><ele>121.0</ele><time>2026-04-27T10:12:25Z</time></trkpt><trkpt lat="37.89716229411224" lon="-4.769618882864957"><ele>121.0</ele><time>2026-04-27T10:12:26Z</time></trkpt><trkpt lat="37.89723323448419" lon="-4.769485133824571"><ele>121.0</ele><time>2026-04-27T10:12:27Z</time></trkpt><trkpt lat="37.89728931868599" lon="-4.769349500224893"><ele>121.0</ele><time>2026-04-27T10:12:28Z</time></trkpt><trkpt lat="37.89734460791639" lon="-4.7692152453039816"><ele>121.0</ele><time>2026-04-27T10:12:29Z</time></trkpt><trkpt lat="37.89740323173623" lon="-4.76907640080413"><ele>120.5</ele><time>2026-04-27T10:12:30Z</time></trkpt><trkpt lat="37.89745984935002" lon="-4.768939458693533"><ele>120.0</ele><time>2026-04-27T10:12:31Z</time></trkpt><trkpt lat="37.89751607284648" lon="-4.768802661429357"><ele>119.5</ele><time>2026-04-27T10:12:32.001Z</time></trkpt><trkpt lat="37.89755969654429" lon="-4.7686639779720625"><ele>119.0</ele><time>2026-04-27T10:12:33.001Z</time></trkpt><trkpt lat="37.89759802816704" lon="-4.768526949507595"><ele>119.0</ele><time>2026-04-27T10:12:34.001Z</time></trkpt><trkpt lat="37.8976288595367" lon="-4.7683814343762085"><ele>119.0</ele><time>2026-04-27T10:12:35.001Z</time></trkpt><trkpt lat="37.89765486818036" lon="-4.7682279765973465"><ele>119.0</ele><time>2026-04-27T10:12:36.001Z</time></trkpt><trkpt lat="37.89767619957866" lon="-4.768061555043822"><ele>119.0</ele><time>2026-04-27T10:12:37.001Z</time></trkpt><trkpt lat="37.897684460606506" lon="-4.767900728524129"><ele>119.0</ele><time>2026-04-27T10:12:38.001Z</time></trkpt><trkpt lat="37.89768583761682" lon="-4.767745881635558"><ele>119.0</ele><time>2026-04-27T10:12:39.001Z</time></trkpt><trkpt lat="37.897672589683054" lon="-4.767585931407055"><ele>119.0</ele><time>2026-04-27T10:12:40.001Z</time></trkpt><trkpt lat="37.8976550770694" lon="-4.767408639021976"><ele>119.0</ele><time>2026-04-27T10:12:41.001Z</time></trkpt><trkpt lat="37.89763036746393" lon="-4.76721610930295"><ele>118.5</ele><time>2026-04-27T10:12:42.001Z</time></trkpt><trkpt lat="37.897608558783844" lon="-4.767037468549085"><ele>118.0</ele><time>2026-04-27T10:12:43.001Z</time></trkpt><trkpt lat="37.897584794615454" lon="-4.766858358469401"><ele>117.5</ele><time>2026-04-27T10:12:44.001Z</time></trkpt><trkpt lat="37.897563232902144" lon="-4.766679789488254"><ele>117.0</ele><time>2026-04-27T10:12:45.012Z</time></trkpt><trkpt lat="37.89754335388415" lon="-4.766510201674041"><ele>117.0</ele><time>2026-04-27T10:12:46.018Z</time></trkpt><trkpt lat="37.89752339969538" lon="-4.766335139414634"><ele>117.0</ele><time>2026-04-27T10:12:47.013Z</time></trkpt><trkpt lat="37.89750081176013" lon="-4.766169029407098"><ele>117.0</ele><time>2026-04-27T10:12:48.014Z</time></trkpt><trkpt lat="37.89747969943172" lon="-4.766004857035402"><ele>117.0</ele><time>2026-04-27T10:12:49.021Z</time></trkpt><trkpt lat="37.897456810982376" lon="-4.765840528601498"><ele>118.0</ele><time>2026-04-27T10:12:50.021Z</time></trkpt><trkpt lat="37.89739456496937" lon="-4.765388388191131"><ele>119.0</ele><time>2026-04-27T10:12:52.001Z</time></trkpt><trkpt lat="37.8973717087537" lon="-4.765209127738379"><ele>119.0</ele><time>2026-04-27T10:12:53.001Z</time></trkpt><trkpt lat="37.89734460130746" lon="-4.764974134449494"><ele>119.0</ele><time>2026-04-27T10:12:54.001Z</time></trkpt><trkpt lat="37.89735760740761" lon="-4.764781411042865"><ele>119.0</ele><time>2026-04-27T10:12:55.001Z</time></trkpt><trkpt lat="37.897321994758435" lon="-4.764594561310575"><ele>119.0</ele><time>2026-04-27T10:12:56.001Z</time></trkpt><trkpt lat="37.89730500613199" lon="-4.764412165102169"><ele>119.0</ele><time>2026-04-27T10:12:57.001Z</time></trkpt><trkpt lat="37.897264572325184" lon="-4.764226728767193"><ele>119.0</ele><time>2026-04-27T10:12:58.001Z</time></trkpt><trkpt lat="37.89723942361617" lon="-4.764030507904373"><ele>117.66666666666666</ele><time>2026-04-27T10:12:59.001Z</time></trkpt><trkpt lat="37.89721521999885" lon="-4.763846795912586"><ele>116.33333333333334</ele><time>2026-04-27T10:13:00.001Z</time></trkpt><trkpt lat="37.8971914128624" lon="-4.763649734702086"><ele>115.0</ele><time>2026-04-27T10:13:01.001Z</time></trkpt><trkpt lat="37.89716900363741" lon="-4.763451262429948"><ele>114.33333333333334</ele><time>2026-04-27T10:13:02.001Z</time></trkpt><trkpt lat="37.8971452138087" lon="-4.763260728566887"><ele>113.66666666666666</ele><time>2026-04-27T10:13:03.001Z</time></trkpt><trkpt lat="37.89712255493595" lon="-4.763067115629746"><ele>113.0</ele><time>2026-04-27T10:13:04.001Z</time></trkpt><trkpt lat="37.89709982123191" lon="-4.762884215101595"><ele>113.0</ele><time>2026-04-27T10:13:05.001Z</time></trkpt><trkpt lat="37.897080212350374" lon="-4.762705616275822"><ele>113.0</ele><time>2026-04-27T10:13:06.001Z</time></trkpt><trkpt lat="37.89706526770936" lon="-4.762536914823454"><ele>113.0</ele><time>2026-04-27T10:13:07.001Z</time></trkpt><trkpt lat="37.89704380223657" lon="-4.762365338036746"><ele>113.0</ele><time>2026-04-27T10:13:08.001Z</time></trkpt><trkpt lat="37.89702691965442" lon="-4.762193148430383"><ele>113.0</ele><time>2026-04-27T10:13:09.001Z</time></trkpt><trkpt lat="37.897008192989" lon="-4.762021484355199"><ele>113.0</ele><time>2026-04-27T10:13:10.001Z</time></trkpt><trkpt lat="37.89698866503874" lon="-4.76185166710506"><ele>113.0</ele><time>2026-04-27T10:13:11.001Z</time></trkpt><trkpt lat="37.896967824020734" lon="-4.761681029770819"><ele>113.0</ele><time>2026-04-27T10:13:12.001Z</time></trkpt><trkpt lat="37.89694864435569" lon="-4.761514659297039"><ele>113.2</ele><time>2026-04-27T10:13:13.001Z</time></trkpt><trkpt lat="37.89692701683457" lon="-4.761351063808582"><ele>113.4</ele><time>2026-04-27T10:13:14.001Z</time></trkpt><trkpt lat="37.89690826608145" lon="-4.761195326884844"><ele>113.60000000000001</ele><time>2026-04-27T10:13:15.001Z</time></trkpt><trkpt lat="37.89689173405303" lon="-4.761082252038332"><ele>113.80000000000001</ele><time>2026-04-27T10:13:16.001Z</time></trkpt><trkpt lat="37.89687961681379" lon="-4.760985628617381"><ele>114.0</ele><time>2026-04-27T10:13:18.001Z</time></trkpt><trkpt lat="37.89685701722879" lon="-4.760852428597716"><ele>114.0</ele><time>2026-04-27T10:14:10Z</time></trkpt><trkpt lat="37.89684737614926" lon="-4.760745625559471"><ele>114.0</ele><time>2026-04-27T10:14:11Z</time></trkpt><trkpt lat="37.896836665035245" lon="-4.760630223582013"><ele>114.0</ele><time>2026-04-27T10:14:12Z</time></trkpt><trkpt lat="37.89682690748625" lon="-4.760491939062481"><ele>114.0</ele><time>2026-04-27T10:14:13Z</time></trkpt><trkpt lat="37.89680788866177" lon="-4.760336140980079"><ele>114.0</ele><time>2026-04-27T10:14:14Z</time></trkpt><trkpt lat="37.89678919336925" lon="-4.760172828779254"><ele>114.0</ele><time>2026-04-27T10:14:15Z</time></trkpt><trkpt lat="37.89677093450049" lon="-4.759996591031302"><ele>114.0</ele><time>2026-04-27T10:14:16Z</time></trkpt><trkpt lat="37.89675095925303" lon="-4.759832832652979"><ele>114.0</ele><time>2026-04-27T10:14:17Z</time></trkpt><trkpt lat="37.89673129997541" lon="-4.759677452140223"><ele>114.0</ele><time>2026-04-27T10:14:18Z</time></trkpt><trkpt lat="37.8967056444222" lon="-4.759526243199429"><ele>113.25</ele><time>2026-04-27T10:14:19Z</time></trkpt><trkpt lat="37.89668259479902" lon="-4.7593736113384715"><ele>112.5</ele><time>2026-04-27T10:14:20Z</time></trkpt><trkpt lat="37.89666338362036" lon="-4.75922092749167"><ele>111.75</ele><time>2026-04-27T10:14:21Z</time></trkpt><trkpt lat="37.896640620764764" lon="-4.759066839824685"><ele>111.0</ele><time>2026-04-27T10:14:22Z</time></trkpt><trkpt lat="37.89661579191138" lon="-4.758915592462547"><ele>111.0</ele><time>2026-04-27T10:14:23Z</time></trkpt><trkpt lat="37.89659402184784" lon="-4.758763907353646"><ele>111.0</ele><time>2026-04-27T10:14:24Z</time></trkpt><trkpt lat="37.89657357047177" lon="-4.758612419784016"><ele>111.0</ele><time>2026-04-27T10:14:25Z</time></trkpt><trkpt lat="37.896554175653804" lon="-4.7584620771916795"><ele>111.0</ele><time>2026-04-27T10:14:26Z</time></trkpt><trkpt lat="37.89653437425879" lon="-4.758312965998859"><ele>110.75</ele><time>2026-04-27T10:14:27Z</time></trkpt><trkpt lat="37.896516090180306" lon="-4.758163417072311"><ele>110.5</ele><time>2026-04-27T10:14:28Z</time></trkpt><trkpt lat="37.89650149717543" lon="-4.758013579926336"><ele>110.25</ele><time>2026-04-27T10:14:29Z</time></trkpt><trkpt lat="37.896485196634245" lon="-4.757864398325973"><ele>110.0</ele><time>2026-04-27T10:14:30Z</time></trkpt><trkpt lat="37.89646683067734" lon="-4.757714664343278"><ele>109.75</ele><time>2026-04-27T10:14:31Z</time></trkpt><trkpt lat="37.89645368403148" lon="-4.757565970163356"><ele>109.5</ele><time>2026-04-27T10:14:32Z</time></trkpt><trkpt lat="37.89644338183717" lon="-4.757416495187316"><ele>109.25</ele><time>2026-04-27T10:14:33Z</time></trkpt><trkpt lat="37.89642825618441" lon="-4.757264918641525"><ele>109.0</ele><time>2026-04-27T10:14:34Z</time></trkpt><trkpt lat="37.89640885140271" lon="-4.757114651760197"><ele>109.0</ele><time>2026-04-27T10:14:35Z</time></trkpt><trkpt lat="37.896389461928635" lon="-4.756962794048056"><ele>109.0</ele><time>2026-04-27T10:14:36Z</time></trkpt><trkpt lat="37.89637094414507" lon="-4.756810868623841"><ele>109.0</ele><time>2026-04-27T10:14:37Z</time></trkpt><trkpt lat="37.896350993796" lon="-4.756658785857604"><ele>109.0</ele><time>2026-04-27T10:14:38Z</time></trkpt><trkpt lat="37.89633191902414" lon="-4.756508350560027"><ele>110.0</ele><time>2026-04-27T10:14:39Z</time></trkpt><trkpt lat="37.89631369149876" lon="-4.756356684706944"><ele>111.0</ele><time>2026-04-27T10:14:40Z</time></trkpt><trkpt lat="37.89629756193647" lon="-4.756206044237931"><ele>112.0</ele><time>2026-04-27T10:14:41Z</time></trkpt><trkpt lat="37.89628135674163" lon="-4.756055290003928"><ele>113.0</ele><time>2026-04-27T10:14:42Z</time></trkpt><trkpt lat="37.89626658598963" lon="-4.75590319743075"><ele>113.75</ele><time>2026-04-27T10:14:43Z</time></trkpt><trkpt lat="37.89624878833509" lon="-4.755751057688112"><ele>114.5</ele><time>2026-04-27T10:14:44.001Z</time></trkpt><trkpt lat="37.89623294782493" lon="-4.755597913870019"><ele>115.25</ele><time>2026-04-27T10:14:45.001Z</time></trkpt><trkpt lat="37.89621477194844" lon="-4.7554445211822145"><ele>116.0</ele><time>2026-04-27T10:14:46.001Z</time></trkpt><trkpt lat="37.89619562157074" lon="-4.7552891529123364"><ele>115.8</ele><time>2026-04-27T10:14:47.001Z</time></trkpt><trkpt lat="37.896175644390496" lon="-4.755135167377312"><ele>115.6</ele><time>2026-04-27T10:14:48.001Z</time></trkpt><trkpt lat="37.89615958924352" lon="-4.754994474895468"><ele>115.4</ele><time>2026-04-27T10:14:49.001Z</time></trkpt><trkpt lat="37.896145065681964" lon="-4.754862027714658"><ele>115.2</ele><time>2026-04-27T10:14:50.001Z</time></trkpt><trkpt lat="37.896129119023584" lon="-4.754736816660066"><ele>115.0</ele><time>2026-04-27T10:14:51.001Z</time></trkpt><trkpt lat="37.89611525668919" lon="-4.754621924369963"><ele>115.00000000000001</ele><time>2026-04-27T10:14:52.001Z</time></trkpt><trkpt lat="37.89610617042409" lon="-4.754518665429733"><ele>115.0</ele><time>2026-04-27T10:14:53.001Z</time></trkpt><trkpt lat="37.896098087958656" lon="-4.75442363330341"><ele>115.0</ele><time>2026-04-27T10:14:54.001Z</time></trkpt><trkpt lat="37.896090986289906" lon="-4.754332071648631"><ele>115.0</ele><time>2026-04-27T10:14:55.001Z</time></trkpt><trkpt lat="37.89608555759329" lon="-4.754251941768942"><ele>115.00000000000001</ele><time>2026-04-27T10:14:56.001Z</time></trkpt><trkpt lat="37.89607420192331" lon="-4.754139127160805"><ele>115.0</ele><time>2026-04-27T10:14:58.001Z</time></trkpt><trkpt lat="37.89605696090291" lon="-4.754047080136301"><ele>115.5</ele><time>2026-04-27T10:15:44.002Z</time></trkpt><trkpt lat="37.8960403339246" lon="-4.7538954209668605"><ele>116.0</ele><time>2026-04-27T10:15:46.002Z</time></trkpt><trkpt lat="37.89602763356473" lon="-4.753775353612339"><ele>116.5</ele><time>2026-04-27T10:15:47.002Z</time></trkpt><trkpt lat="37.89601065563345" lon="-4.753631533431912"><ele>117.0</ele><time>2026-04-27T10:15:48.002Z</time></trkpt><trkpt lat="37.89598878506784" lon="-4.753468040939315"><ele>116.0</ele><time>2026-04-27T10:15:49.002Z</time></trkpt><trkpt lat="37.89597151654587" lon="-4.753308128270867"><ele>115.0</ele><time>2026-04-27T10:15:50.002Z</time></trkpt><trkpt lat="37.89594779101957" lon="-4.75315642577106"><ele>114.0</ele><time>2026-04-27T10:15:51.002Z</time></trkpt><trkpt lat="37.89592429883863" lon="-4.753005250897473"><ele>113.0</ele><time>2026-04-27T10:15:52.002Z</time></trkpt><trkpt lat="37.8959046655801" lon="-4.752856562328629"><ele>113.0</ele><time>2026-04-27T10:15:53.001Z</time></trkpt><trkpt lat="37.8958860395321" lon="-4.752711273592837"><ele>113.00000000000001</ele><time>2026-04-27T10:15:54.001Z</time></trkpt><trkpt lat="37.89586784191371" lon="-4.752571315103705"><ele>113.00000000000001</ele><time>2026-04-27T10:15:55.001Z</time></trkpt><trkpt lat="37.89584864073723" lon="-4.752437023950345"><ele>113.0</ele><time>2026-04-27T10:15:56.001Z</time></trkpt><trkpt lat="37.89582885304192" lon="-4.752305004971773"><ele>113.0</ele><time>2026-04-27T10:15:57.001Z</time></trkpt><trkpt lat="37.89580869585623" lon="-4.752173932921511"><ele>112.60000000000001</ele><time>2026-04-27T10:15:58.001Z</time></trkpt><trkpt lat="37.895787857122635" lon="-4.752042158820104"><ele>112.20000000000002</ele><time>2026-04-27T10:15:59.001Z</time></trkpt><trkpt lat="37.895767193677486" lon="-4.7519049051251505"><ele>111.8</ele><time>2026-04-27T10:16:00.001Z</time></trkpt><trkpt lat="37.895755890119794" lon="-4.751759432450171"><ele>111.4</ele><time>2026-04-27T10:16:01.001Z</time></trkpt><trkpt lat="37.895740547350144" lon="-4.751613851782292"><ele>111.0</ele><time>2026-04-27T10:16:02.001Z</time></trkpt><trkpt lat="37.895722508585905" lon="-4.751465045722734"><ele>110.75</ele><time>2026-04-27T10:16:03.001Z</time></trkpt><trkpt lat="37.895707759789474" lon="-4.751311400546922"><ele>110.5</ele><time>2026-04-27T10:16:04.001Z</time></trkpt><trkpt lat="37.895686736650354" lon="-4.751166115223597"><ele>110.25</ele><time>2026-04-27T10:16:05.001Z</time></trkpt><trkpt lat="37.89566481967939" lon="-4.751017563164988"><ele>110.0</ele><time>2026-04-27T10:16:06.001Z</time></trkpt><trkpt lat="37.89564740785118" lon="-4.750865672587637"><ele>109.5</ele><time>2026-04-27T10:16:07.001Z</time></trkpt><trkpt lat="37.89562556420592" lon="-4.7507171215299415"><ele>109.0</ele><time>2026-04-27T10:16:08.001Z</time></trkpt><trkpt lat="37.89560813910846" lon="-4.75057147046988"><ele>108.5</ele><time>2026-04-27T10:16:09.001Z</time></trkpt><trkpt lat="37.89559345236102" lon="-4.750430954520733"><ele>108.0</ele><time>2026-04-27T10:16:10.001Z</time></trkpt><trkpt lat="37.895578211127685" lon="-4.750286774434683"><ele>107.80000000000001</ele><time>2026-04-27T10:16:11.001Z</time></trkpt><trkpt lat="37.8955603130422" lon="-4.750140930729204"><ele>107.60000000000001</ele><time>2026-04-27T10:16:12.001Z</time></trkpt><trkpt lat="37.89554168229159" lon="-4.7500055006015955"><ele>107.39999999999999</ele><time>2026-04-27T10:16:13.001Z</time></trkpt><trkpt lat="37.895529551954375" lon="-4.74988091618923"><ele>107.19999999999999</ele><time>2026-04-27T10:16:14.001Z</time></trkpt><trkpt lat="37.89551531950951" lon="-4.749762311919438"><ele>107.0</ele><time>2026-04-27T10:16:15.001Z</time></trkpt><trkpt lat="37.89549862711542" lon="-4.749656805048566"><ele>107.0</ele><time>2026-04-27T10:16:16.001Z</time></trkpt><trkpt lat="37.895476368342834" lon="-4.749545925137816"><ele>106.99999999999999</ele><time>2026-04-27T10:16:17.001Z</time></trkpt><trkpt lat="37.89543899402004" lon="-4.749435800135953"><ele>106.99999999999999</ele><time>2026-04-27T10:16:18.001Z</time></trkpt><trkpt lat="37.89538303373427" lon="-4.749317185801043"><ele>107.0</ele><time>2026-04-27T10:16:19.001Z</time></trkpt><trkpt lat="37.895322429242675" lon="-4.749208120714345"><ele>107.0</ele><time>2026-04-27T10:16:20.001Z</time></trkpt><trkpt lat="37.89525126158867" lon="-4.749112835100226"><ele>107.5</ele><time>2026-04-27T10:16:21.001Z</time></trkpt><trkpt lat="37.89517118064489" lon="-4.7490291630564"><ele>108.0</ele><time>2026-04-27T10:16:22.001Z</time></trkpt><trkpt lat="37.89507709176491" lon="-4.748953480291529"><ele>108.5</ele><time>2026-04-27T10:16:23.001Z</time></trkpt><trkpt lat="37.89497544819562" lon="-4.748876429195261"><ele>109.0</ele><time>2026-04-27T10:16:24.001Z</time></trkpt><trkpt lat="37.894860156015866" lon="-4.748831848996677"><ele>109.0</ele><time>2026-04-27T10:16:25.001Z</time></trkpt><trkpt lat="37.89475206440453" lon="-4.748771350481654"><ele>109.0</ele><time>2026-04-27T10:16:26.001Z</time></trkpt><trkpt lat="37.89465323847493" lon="-4.748697599167781"><ele>109.0</ele><time>2026-04-27T10:16:27.001Z</time></trkpt><trkpt lat="37.89459033379425" lon="-4.74859375783064"><ele>109.0</ele><time>2026-04-27T10:16:28.001Z</time></trkpt><trkpt lat="37.89451028054414" lon="-4.748552865342976"><ele>109.0</ele><time>2026-04-27T10:16:29.001Z</time></trkpt><trkpt lat="37.89443280989476" lon="-4.748686949817026"><ele>109.0</ele><time>2026-04-27T10:16:30.001Z</time></trkpt><trkpt lat="37.894317404849915" lon="-4.74874967868139"><ele>109.0</ele><time>2026-04-27T10:16:31.001Z</time></trkpt><trkpt lat="37.89423376962254" lon="-4.748824360015799"><ele>109.0</ele><time>2026-04-27T10:16:32.001Z</time></trkpt><trkpt lat="37.89419034095877" lon="-4.74893191542766"><ele>109.0</ele><time>2026-04-27T10:16:33.001Z</time></trkpt><trkpt lat="37.89416712338266" lon="-4.749066486738274"><ele>109.0</ele><time>2026-04-27T10:16:34.001Z</time></trkpt><trkpt lat="37.89418563485027" lon="-4.749180342933522"><ele>109.0</ele><time>2026-04-27T10:16:35.001Z</time></trkpt><trkpt lat="37.89422334376627" lon="-4.749264506794798"><ele>109.0</ele><time>2026-04-27T10:16:36.001Z</time></trkpt><trkpt lat="37.8942759540666" lon="-4.7493310687846915"><ele>109.0</ele><time>2026-04-27T10:16:37.001Z</time></trkpt><trkpt lat="37.894334144519256" lon="-4.74937266818764"><ele>109.0</ele><time>2026-04-27T10:16:38.001Z</time></trkpt><trkpt lat="37.89440392688003" lon="-4.7493867578051745"><ele>109.0</ele><time>2026-04-27T10:16:39.001Z</time></trkpt><trkpt lat="37.894472192672005" lon="-4.7493756675180006"><ele>109.0</ele><time>2026-04-27T10:16:40.001Z</time></trkpt><trkpt lat="37.894537044377195" lon="-4.749317149122941"><ele>109.0</ele><time>2026-04-27T10:16:41.001Z</time></trkpt><trkpt lat="37.89459598879707" lon="-4.749247735951452"><ele>109.0</ele><time>2026-04-27T10:16:42.001Z</time></trkpt><trkpt lat="37.89464271876663" lon="-4.749138382423014"><ele>109.0</ele><time>2026-04-27T10:16:43.001Z</time></trkpt><trkpt lat="37.894685635254405" lon="-4.7490248594399835"><ele>109.0</ele><time>2026-04-27T10:16:44.001Z</time></trkpt><trkpt lat="37.89472791755811" lon="-4.748909422312152"><ele>109.0</ele><time>2026-04-27T10:16:45.001Z</time></trkpt><trkpt lat="37.89477005158593" lon="-4.7487937314043185"><ele>109.0</ele><time>2026-04-27T10:16:46.001Z</time></trkpt><trkpt lat="37.894797096908555" lon="-4.748666413033135"><ele>109.0</ele><time>2026-04-27T10:16:47.001Z</time></trkpt><trkpt lat="37.894845701337125" lon="-4.748536626645553"><ele>109.0</ele><time>2026-04-27T10:16:48.001Z</time></trkpt><trkpt lat="37.89489389853324" lon="-4.748411244468425"><ele>109.0</ele><time>2026-04-27T10:16:49.001Z</time></trkpt><trkpt lat="37.89493923026924" lon="-4.748283106859708"><ele>109.0</ele><time>2026-04-27T10:16:50.001Z</time></trkpt><trkpt lat="37.89498074920631" lon="-4.748149592520884"><ele>109.0</ele><time>2026-04-27T10:16:51.001Z</time></trkpt><trkpt lat="37.89501911372045" lon="-4.748021742034571"><ele>109.00000000000001</ele><time>2026-04-27T10:16:52.001Z</time></trkpt><trkpt lat="37.89505830371727" lon="-4.747911650648225"><ele>109.0</ele><time>2026-04-27T10:16:53.001Z</time></trkpt><trkpt lat="37.895094930800546" lon="-4.747811992282813"><ele>109.0</ele><time>2026-04-27T10:16:54.001Z</time></trkpt><trkpt lat="37.895125760718756" lon="-4.747717469723551"><ele>109.0</ele><time>2026-04-27T10:16:55.001Z</time></trkpt><trkpt lat="37.895149865526015" lon="-4.747633606890281"><ele>109.00000000000001</ele><time>2026-04-27T10:16:56.001Z</time></trkpt><trkpt lat="37.895192589844186" lon="-4.747510386922066"><ele>109.0</ele><time>2026-04-27T10:16:58.001Z</time></trkpt><trkpt lat="37.89521930868781" lon="-4.74743403201661"><ele>109.0</ele><time>2026-04-27T10:17:00.001Z</time></trkpt><trkpt lat="37.89527636855145" lon="-4.747257316055059"><ele>109.0</ele><time>2026-04-27T10:17:09.001Z</time></trkpt><trkpt lat="37.895308045997375" lon="-4.747173056557442"><ele>109.0</ele><time>2026-04-27T10:17:10.001Z</time></trkpt><trkpt lat="37.89535646702256" lon="-4.747009102095856"><ele>109.0</ele><time>2026-04-27T10:17:12.001Z</time></trkpt><trkpt lat="37.89538292573081" lon="-4.746922120852817"><ele>109.0</ele><time>2026-04-27T10:17:13.001Z</time></trkpt><trkpt lat="37.895411464981954" lon="-4.746827079473641"><ele>108.33333333333334</ele><time>2026-04-27T10:17:14.001Z</time></trkpt><trkpt lat="37.8954376921492" lon="-4.7467441713808665"><ele>107.66666666666667</ele><time>2026-04-27T10:17:15.001Z</time></trkpt><trkpt lat="37.89546531036074" lon="-4.74665687986978"><ele>107.0</ele><time>2026-04-27T10:17:16.001Z</time></trkpt><trkpt lat="37.89549431915959" lon="-4.74657139056817"><ele>106.33333333333334</ele><time>2026-04-27T10:17:17.001Z</time></trkpt><trkpt lat="37.89552229907981" lon="-4.746480263035638"><ele>105.66666666666667</ele><time>2026-04-27T10:17:18.001Z</time></trkpt><trkpt lat="37.895549865211024" lon="-4.7463842287555345"><ele>105.0</ele><time>2026-04-27T10:17:19.001Z</time></trkpt><trkpt lat="37.895581314848535" lon="-4.746284097479243"><ele>105.0</ele><time>2026-04-27T10:17:20.001Z</time></trkpt><trkpt lat="37.895610165488975" lon="-4.746199294824639"><ele>105.0</ele><time>2026-04-27T10:17:21.001Z</time></trkpt><trkpt lat="37.89564142820686" lon="-4.746098758230778"><ele>105.0</ele><time>2026-04-27T10:17:22.002Z</time></trkpt><trkpt lat="37.89566627254549" lon="-4.745992625880805"><ele>105.0</ele><time>2026-04-27T10:17:23.002Z</time></trkpt><trkpt lat="37.89570699204043" lon="-4.745901921369489"><ele>105.0</ele><time>2026-04-27T10:17:24.002Z</time></trkpt><trkpt lat="37.89574000526582" lon="-4.745808643284991"><ele>105.0</ele><time>2026-04-27T10:17:25.002Z</time></trkpt><trkpt lat="37.8957725741264" lon="-4.745700005364225"><ele>105.4</ele><time>2026-04-27T10:17:26.002Z</time></trkpt><trkpt lat="37.895810806167546" lon="-4.745573749927246"><ele>105.8</ele><time>2026-04-27T10:17:27.002Z</time></trkpt><trkpt lat="37.89585045153635" lon="-4.7454370631336324"><ele>106.19999999999999</ele><time>2026-04-27T10:17:28.002Z</time></trkpt><trkpt lat="37.89589161788676" lon="-4.745308278330257"><ele>106.6</ele><time>2026-04-27T10:17:29.002Z</time></trkpt><trkpt lat="37.89592636956469" lon="-4.745193551818924"><ele>107.0</ele><time>2026-04-27T10:17:30.002Z</time></trkpt><trkpt lat="37.89596077913299" lon="-4.7450819846735035"><ele>107.16666666666666</ele><time>2026-04-27T10:17:31.002Z</time></trkpt><trkpt lat="37.895993546234855" lon="-4.744971123763269"><ele>107.33333333333333</ele><time>2026-04-27T10:17:32.002Z</time></trkpt><trkpt lat="37.896026378260025" lon="-4.7448632125631605"><ele>107.5</ele><time>2026-04-27T10:17:33.002Z</time></trkpt><trkpt lat="37.89606094421773" lon="-4.7447621909177276"><ele>107.66666666666666</ele><time>2026-04-27T10:17:34.002Z</time></trkpt><trkpt lat="37.896092941601246" lon="-4.744666594589938"><ele>107.83333333333333</ele><time>2026-04-27T10:17:35.002Z</time></trkpt><trkpt lat="37.89612203149237" lon="-4.744576443969278"><ele>108.0</ele><time>2026-04-27T10:17:36.002Z</time></trkpt><trkpt lat="37.89615128628923" lon="-4.744481505535707"><ele>107.80000000000001</ele><time>2026-04-27T10:17:37.002Z</time></trkpt><trkpt lat="37.89618604660388" lon="-4.744374907810508"><ele>107.60000000000001</ele><time>2026-04-27T10:17:38.002Z</time></trkpt><trkpt lat="37.896220438566814" lon="-4.7442705670339285"><ele>107.39999999999999</ele><time>2026-04-27T10:17:39.002Z</time></trkpt><trkpt lat="37.89625606908221" lon="-4.744154475560675"><ele>107.19999999999999</ele><time>2026-04-27T10:17:40.002Z</time></trkpt><trkpt lat="37.89629307660899" lon="-4.744035768830764"><ele>107.0</ele><time>2026-04-27T10:17:41.002Z</time></trkpt><trkpt lat="37.896329357662005" lon="-4.743922271867455"><ele>107.0</ele><time>2026-04-27T10:17:42.002Z</time></trkpt><trkpt lat="37.896366414779756" lon="-4.74380252897682"><ele>106.99999999999999</ele><time>2026-04-27T10:17:43.002Z</time></trkpt><trkpt lat="37.89640702445586" lon="-4.743681781995749"><ele>106.99999999999999</ele><time>2026-04-27T10:17:44.002Z</time></trkpt><trkpt lat="37.89644450531581" lon="-4.7435616504669635"><ele>107.0</ele><time>2026-04-27T10:17:45.002Z</time></trkpt><trkpt lat="37.89648331388051" lon="-4.743435943224149"><ele>107.0</ele><time>2026-04-27T10:17:46.002Z</time></trkpt><trkpt lat="37.89652911747225" lon="-4.743310670214631"><ele>107.0</ele><time>2026-04-27T10:17:47.002Z</time></trkpt><trkpt lat="37.89657231622765" lon="-4.743186707237877"><ele>106.99999999999999</ele><time>2026-04-27T10:17:48.002Z</time></trkpt><trkpt lat="37.89661576819389" lon="-4.743057868015548"><ele>106.99999999999999</ele><time>2026-04-27T10:17:49.002Z</time></trkpt><trkpt lat="37.89666803688227" lon="-4.742935136081982"><ele>107.0</ele><time>2026-04-27T10:17:50.002Z</time></trkpt><trkpt lat="37.89671872657912" lon="-4.742819263312287"><ele>107.0</ele><time>2026-04-27T10:17:51.002Z</time></trkpt><trkpt lat="37.896770651845245" lon="-4.742699917839249"><ele>106.6</ele><time>2026-04-27T10:17:52.002Z</time></trkpt><trkpt lat="37.896823063683826" lon="-4.742583642649277"><ele>106.19999999999999</ele><time>2026-04-27T10:17:53.002Z</time></trkpt><trkpt lat="37.89687628439755" lon="-4.742468729032228"><ele>105.8</ele><time>2026-04-27T10:17:54.002Z</time></trkpt><trkpt lat="37.896934621455166" lon="-4.742349850251565"><ele>105.4</ele><time>2026-04-27T10:17:55.002Z</time></trkpt><trkpt lat="37.89699473172822" lon="-4.742236139658691"><ele>105.0</ele><time>2026-04-27T10:17:56.002Z</time></trkpt><trkpt lat="37.89704139272055" lon="-4.742128226354898"><ele>105.0</ele><time>2026-04-27T10:17:57.002Z</time></trkpt><trkpt lat="37.89708927772652" lon="-4.742036983010359"><ele>105.0</ele><time>2026-04-27T10:17:58.002Z</time></trkpt><trkpt lat="37.897143885696174" lon="-4.74197107256036"><ele>105.0</ele><time>2026-04-27T10:17:59.001Z</time></trkpt><trkpt lat="37.89720059620874" lon="-4.741872198007363"><ele>105.0</ele><time>2026-04-27T10:18:01.001Z</time></trkpt><trkpt lat="37.897238745383646" lon="-4.741805685454826"><ele>105.0</ele><time>2026-04-27T10:18:03.001Z</time></trkpt><trkpt lat="37.8972058482926" lon="-4.741658725482792"><ele>105.0</ele><time>2026-04-27T10:18:06.001Z</time></trkpt><trkpt lat="37.8972259735327" lon="-4.741574789827271"><ele>105.5</ele><time>2026-04-27T10:18:17.001Z</time></trkpt><trkpt lat="37.89724089556414" lon="-4.741436823189293"><ele>106.0</ele><time>2026-04-27T10:18:19.001Z</time></trkpt><trkpt lat="37.897257496263066" lon="-4.74134590371835"><ele>106.5</ele><time>2026-04-27T10:18:21.001Z</time></trkpt><trkpt lat="37.89730706262906" lon="-4.741290584072535"><ele>107.0</ele><time>2026-04-27T10:20:14.001Z</time></trkpt><trkpt lat="37.89725647683289" lon="-4.7411946143783466"><ele>107.5</ele><time>2026-04-27T10:20:51.001Z</time></trkpt><trkpt lat="37.897276863543595" lon="-4.74111677948689"><ele>108.0</ele><time>2026-04-27T10:22:00.001Z</time></trkpt><trkpt lat="37.897212663276626" lon="-4.741139178056903"><ele>108.0</ele><time>2026-04-27T10:22:17.002Z</time></trkpt><trkpt lat="37.897267456082865" lon="-4.74124452481543"><ele>108.00000000000001</ele><time>2026-04-27T10:22:43.001Z</time></trkpt><trkpt lat="37.89721913734661" lon="-4.741309540875424"><ele>108.00000000000001</ele><time>2026-04-27T10:23:03.001Z</time></trkpt><trkpt lat="37.89715963867781" lon="-4.741206082125853"><ele>108.0</ele><time>2026-04-27T10:23:08.001Z</time></trkpt><trkpt lat="37.897075212750124" lon="-4.741129067944264"><ele>108.0</ele><time>2026-04-27T10:23:36.001Z</time></trkpt><trkpt lat="37.89716831227179" lon="-4.741151704773504"><ele>108.0</ele><time>2026-04-27T10:24:15.001Z</time></trkpt><trkpt lat="37.89729026782558" lon="-4.741186479526341"><ele>108.00000000000001</ele><time>2026-04-27T10:24:37.002Z</time></trkpt><trkpt lat="37.89719463874751" lon="-4.741110503656845"><ele>108.00000000000001</ele><time>2026-04-27T10:25:33.001Z</time></trkpt><trkpt lat="37.8972544355178" lon="-4.741175709055587"><ele>108.0</ele><time>2026-04-27T10:25:51.001Z</time></trkpt><trkpt lat="37.89726695911242" lon="-4.7412564857601875"><ele>108.0</ele><time>2026-04-27T10:25:56.001Z</time></trkpt><trkpt lat="37.89738081864831" lon="-4.741224618633035"><ele>108.0</ele><time>2026-04-27T10:26:43.001Z</time></trkpt><trkpt lat="37.8972837102847" lon="-4.741270537526851"><ele>108.0</ele><time>2026-04-27T10:26:44.001Z</time></trkpt><trkpt lat="37.89720541937619" lon="-4.741247769029059"><ele>108.0</ele><time>2026-04-27T10:26:49.001Z</time></trkpt><trkpt lat="37.89726190574211" lon="-4.741294813206247"><ele>108.0</ele><time>2026-04-27T10:27:01.001Z</time></trkpt><trkpt lat="37.89726820163155" lon="-4.741211391868894"><ele>108.0</ele><time>2026-04-27T10:27:19Z</time></trkpt><trkpt lat="37.89723119770074" lon="-4.741111280751845"><ele>108.0</ele><time>2026-04-27T10:27:24Z</time></trkpt><trkpt lat="37.8973011701279" lon="-4.741174041785501"><ele>108.0</ele><time>2026-04-27T10:28:18Z</time></trkpt><trkpt lat="37.897277845945446" lon="-4.7410950062156125"><ele>108.0</ele><time>2026-04-27T10:34:44.999Z</time></trkpt><trkpt lat="37.89729868278535" lon="-4.741004893700197"><ele>108.0</ele><time>2026-04-27T10:34:53.999Z</time></trkpt><trkpt lat="37.89728164045182" lon="-4.741091870592179"><ele>108.0</ele><time>2026-04-27T10:35:20Z</time></trkpt><trkpt lat="37.89728316292165" lon="-4.7412011595981465"><ele>108.0</ele><time>2026-04-27T10:35:46.999Z</time></trkpt><trkpt lat="37.89734583887254" lon="-4.741224321384391"><ele>108.0</ele><time>2026-04-27T10:35:50.999Z</time></trkpt><trkpt lat="37.89729616805517" lon="-4.74128332490852"><ele>108.0</ele><time>2026-04-27T10:35:54.999Z</time></trkpt><trkpt lat="37.89724853420305" lon="-4.74135629683677"><ele>108.0</ele><time>2026-04-27T10:36:00.999Z</time></trkpt><trkpt lat="37.897281711461396" lon="-4.741225655573131"><ele>108.0</ele><time>2026-04-27T10:46:04.999Z</time></trkpt><trkpt lat="37.89733370856252" lon="-4.7411652113869165"><ele>108.0</ele><time>2026-04-27T10:46:09.999Z</time></trkpt><trkpt lat="37.897567401233125" lon="-4.741128875706734"><ele>108.0</ele><time>2026-04-27T10:46:15.999Z</time></trkpt><trkpt lat="37.89762978584474" lon="-4.741094657708783"><ele>107.80000000000001</ele><time>2026-04-27T10:46:17.999Z</time></trkpt><trkpt lat="37.89768752531765" lon="-4.741056041192312"><ele>107.60000000000001</ele><time>2026-04-27T10:46:21.999Z</time></trkpt><trkpt lat="37.89775352931096" lon="-4.741016005747334"><ele>107.39999999999999</ele><time>2026-04-27T10:46:28.999Z</time></trkpt><trkpt lat="37.89781866238253" lon="-4.74091992367343"><ele>107.19999999999999</ele><time>2026-04-27T10:46:29.999Z</time></trkpt><trkpt lat="37.897895746717296" lon="-4.740813106636222"><ele>107.0</ele><time>2026-04-27T10:46:30.999Z</time></trkpt><trkpt lat="37.897975699676294" lon="-4.740684619264624"><ele>106.75</ele><time>2026-04-27T10:46:31.999Z</time></trkpt><trkpt lat="37.89806181866076" lon="-4.740563207107128"><ele>106.5</ele><time>2026-04-27T10:46:32.999Z</time></trkpt><trkpt lat="37.89814366779562" lon="-4.740444716007159"><ele>106.25</ele><time>2026-04-27T10:46:33.999Z</time></trkpt><trkpt lat="37.89822585637388" lon="-4.740324248922312"><ele>106.0</ele><time>2026-04-27T10:46:34.999Z</time></trkpt><trkpt lat="37.89831318438926" lon="-4.7401963178030195"><ele>106.0</ele><time>2026-04-27T10:46:35.999Z</time></trkpt><trkpt lat="37.89840491481695" lon="-4.740081792613808"><ele>106.0</ele><time>2026-04-27T10:46:36.999Z</time></trkpt><trkpt lat="37.89849148334866" lon="-4.739942650902792"><ele>106.0</ele><time>2026-04-27T10:46:37.999Z</time></trkpt><trkpt lat="37.898592871239714" lon="-4.739813453691865"><ele>106.0</ele><time>2026-04-27T10:46:38.999Z</time></trkpt><trkpt lat="37.89871246506574" lon="-4.739662378639208"><ele>106.0</ele><time>2026-04-27T10:46:39.999Z</time></trkpt><trkpt lat="37.89882857992178" lon="-4.7394961561224225"><ele>106.0</ele><time>2026-04-27T10:46:40.999Z</time></trkpt><trkpt lat="37.89894784004584" lon="-4.739327901506426"><ele>106.0</ele><time>2026-04-27T10:46:41.999Z</time></trkpt><trkpt lat="37.89906826505603" lon="-4.7391560805455"><ele>106.33333333333334</ele><time>2026-04-27T10:46:42.999Z</time></trkpt><trkpt lat="37.89919384081641" lon="-4.738976736799281"><ele>106.66666666666666</ele><time>2026-04-27T10:46:43.999Z</time></trkpt><trkpt lat="37.89932750285392" lon="-4.7387968191636745"><ele>107.0</ele><time>2026-04-27T10:46:44.999Z</time></trkpt><trkpt lat="37.89946304600479" lon="-4.738611873027426"><ele>107.0</ele><time>2026-04-27T10:46:45.999Z</time></trkpt><trkpt lat="37.899599688997995" lon="-4.738426973802365"><ele>107.0</ele><time>2026-04-27T10:46:46.999Z</time></trkpt><trkpt lat="37.89973231349845" lon="-4.73824297835325"><ele>107.0</ele><time>2026-04-27T10:46:47.999Z</time></trkpt><trkpt lat="37.89986832209214" lon="-4.73805019608064"><ele>107.0</ele><time>2026-04-27T10:46:48.999Z</time></trkpt><trkpt lat="37.90000510274721" lon="-4.737855004162158"><ele>107.0</ele><time>2026-04-27T10:46:49.999Z</time></trkpt><trkpt lat="37.90014280179541" lon="-4.737648952409581"><ele>107.0</ele><time>2026-04-27T10:46:50.999Z</time></trkpt><trkpt lat="37.90028334970475" lon="-4.737444352845742"><ele>107.33333333333333</ele><time>2026-04-27T10:46:51.999Z</time></trkpt><trkpt lat="37.90042290820115" lon="-4.737238497031999"><ele>107.66666666666666</ele><time>2026-04-27T10:46:52.999Z</time></trkpt><trkpt lat="37.90056776183387" lon="-4.737029934076792"><ele>108.0</ele><time>2026-04-27T10:46:53.999Z</time></trkpt><trkpt lat="37.900712243057576" lon="-4.7368178840690875"><ele>108.33333333333334</ele><time>2026-04-27T10:46:54.999Z</time></trkpt><trkpt lat="37.90086008783436" lon="-4.736606531111097"><ele>108.66666666666667</ele><time>2026-04-27T10:46:55.999Z</time></trkpt><trkpt lat="37.90100586081918" lon="-4.73639182176154"><ele>109.0</ele><time>2026-04-27T10:46:56.999Z</time></trkpt><trkpt lat="37.90115682992115" lon="-4.73617218209153"><ele>108.33333333333334</ele><time>2026-04-27T10:46:57.999Z</time></trkpt><trkpt lat="37.90130173963635" lon="-4.735963717899936"><ele>107.66666666666666</ele><time>2026-04-27T10:46:58.999Z</time></trkpt><trkpt lat="37.90144942321687" lon="-4.735749110616004"><ele>107.0</ele><time>2026-04-27T10:46:59.999Z</time></trkpt><trkpt lat="37.90160180682761" lon="-4.735532297683238"><ele>107.0</ele><time>2026-04-27T10:47:00.999Z</time></trkpt><trkpt lat="37.90174842293662" lon="-4.735298997183862"><ele>107.0</ele><time>2026-04-27T10:47:01.999Z</time></trkpt><trkpt lat="37.901899593193974" lon="-4.735070585777144"><ele>108.0</ele><time>2026-04-27T10:47:02.999Z</time></trkpt><trkpt lat="37.90203967043199" lon="-4.734842932765913"><ele>109.0</ele><time>2026-04-27T10:47:03.999Z</time></trkpt><trkpt lat="37.9021758017285" lon="-4.734608346244712"><ele>109.0</ele><time>2026-04-27T10:47:04.999Z</time></trkpt><trkpt lat="37.902300010080104" lon="-4.734360693851892"><ele>109.0</ele><time>2026-04-27T10:47:05.999Z</time></trkpt><trkpt lat="37.90242733397204" lon="-4.734111907000988"><ele>109.0</ele><time>2026-04-27T10:47:06.999Z</time></trkpt><trkpt lat="37.90254520943075" lon="-4.733866271474773"><ele>109.0</ele><time>2026-04-27T10:47:07.999Z</time></trkpt><trkpt lat="37.902661375339626" lon="-4.733621934003293"><ele>111.0</ele><time>2026-04-27T10:47:08.999Z</time></trkpt><trkpt lat="37.90276773170952" lon="-4.733369960030283"><ele>113.0</ele><time>2026-04-27T10:47:09.999Z</time></trkpt><trkpt lat="37.902869523022815" lon="-4.733105228749406"><ele>113.0</ele><time>2026-04-27T10:47:10.999Z</time></trkpt><trkpt lat="37.902976093562245" lon="-4.732842432657265"><ele>113.0</ele><time>2026-04-27T10:47:11.999Z</time></trkpt><trkpt lat="37.90308302652898" lon="-4.7325817846123694"><ele>112.5</ele><time>2026-04-27T10:47:12.999Z</time></trkpt><trkpt lat="37.90318650362142" lon="-4.732319084470624"><ele>112.0</ele><time>2026-04-27T10:47:13.999Z</time></trkpt><trkpt lat="37.903292164903874" lon="-4.732070592087839"><ele>111.66666666666667</ele><time>2026-04-27T10:47:14.999Z</time></trkpt><trkpt lat="37.903384704466504" lon="-4.731818424399982"><ele>111.33333333333334</ele><time>2026-04-27T10:47:15.999Z</time></trkpt><trkpt lat="37.90348645613704" lon="-4.731575270156356"><ele>111.0</ele><time>2026-04-27T10:47:16.999Z</time></trkpt><trkpt lat="37.90360587214826" lon="-4.731351117890119"><ele>112.0</ele><time>2026-04-27T10:47:17.999Z</time></trkpt><trkpt lat="37.90374327433634" lon="-4.731140679612003"><ele>113.0</ele><time>2026-04-27T10:47:18.999Z</time></trkpt><trkpt lat="37.903884806603116" lon="-4.730944436793244"><ele>114.0</ele><time>2026-04-27T10:47:19.999Z</time></trkpt><trkpt lat="37.90403360539034" lon="-4.730741307810265"><ele>113.33333333333334</ele><time>2026-04-27T10:47:20.999Z</time></trkpt><trkpt lat="37.904173749284475" lon="-4.730539943830392"><ele>112.66666666666667</ele><time>2026-04-27T10:47:21.999Z</time></trkpt><trkpt lat="37.90431562389128" lon="-4.730335053921029"><ele>112.0</ele><time>2026-04-27T10:47:22.999Z</time></trkpt><trkpt lat="37.90445765287744" lon="-4.730136674403834"><ele>113.33333333333334</ele><time>2026-04-27T10:47:23.999Z</time></trkpt><trkpt lat="37.904599526441366" lon="-4.729937639463232"><ele>114.66666666666666</ele><time>2026-04-27T10:47:24.999Z</time></trkpt><trkpt lat="37.90474697363134" lon="-4.729737312483615"><ele>116.0</ele><time>2026-04-27T10:47:25.999Z</time></trkpt><trkpt lat="37.904896548436106" lon="-4.729534190124873"><ele>117.5</ele><time>2026-04-27T10:47:26.999Z</time></trkpt><trkpt lat="37.905048503997016" lon="-4.729328263499657"><ele>119.0</ele><time>2026-04-27T10:47:27.999Z</time></trkpt><trkpt lat="37.905199339973876" lon="-4.729112768105725"><ele>119.0</ele><time>2026-04-27T10:47:28.999Z</time></trkpt><trkpt lat="37.90534676298041" lon="-4.728891829104518"><ele>119.0</ele><time>2026-04-27T10:47:29.999Z</time></trkpt><trkpt lat="37.90549866161409" lon="-4.728663065860074"><ele>121.5</ele><time>2026-04-27T10:47:30.999Z</time></trkpt><trkpt lat="37.9056494157268" lon="-4.728433115671224"><ele>124.0</ele><time>2026-04-27T10:47:31.999Z</time></trkpt><trkpt lat="37.90579940272546" lon="-4.7281997925776835"><ele>122.0</ele><time>2026-04-27T10:47:32.999Z</time></trkpt><trkpt lat="37.90595205465634" lon="-4.727968072109797"><ele>120.0</ele><time>2026-04-27T10:47:33.999Z</time></trkpt><trkpt lat="37.90610659145296" lon="-4.727741135472002"><ele>122.0</ele><time>2026-04-27T10:47:34.999Z</time></trkpt><trkpt lat="37.90626207118792" lon="-4.727515877014394"><ele>124.0</ele><time>2026-04-27T10:47:35.999Z</time></trkpt><trkpt lat="37.906433160527826" lon="-4.727300717597539"><ele>124.0</ele><time>2026-04-27T10:47:36.999Z</time></trkpt><trkpt lat="37.90659302719918" lon="-4.727071634061373"><ele>124.0</ele><time>2026-04-27T10:47:37.999Z</time></trkpt><trkpt lat="37.90673080158702" lon="-4.726819923637438"><ele>124.0</ele><time>2026-04-27T10:47:38.999Z</time></trkpt><trkpt lat="37.90688162191329" lon="-4.726585220344328"><ele>124.0</ele><time>2026-04-27T10:47:39.999Z</time></trkpt><trkpt lat="37.9070246496938" lon="-4.726337382090602"><ele>124.0</ele><time>2026-04-27T10:47:40.999Z</time></trkpt><trkpt lat="37.90715807346174" lon="-4.726085686951131"><ele>124.0</ele><time>2026-04-27T10:47:41.999Z</time></trkpt><trkpt lat="37.907289102294406" lon="-4.725825282678787"><ele>125.0</ele><time>2026-04-27T10:47:42.999Z</time></trkpt><trkpt lat="37.90742381905001" lon="-4.725568984532167"><ele>126.0</ele><time>2026-04-27T10:47:43.999Z</time></trkpt><trkpt lat="37.90755680714976" lon="-4.725314360528043"><ele>126.5</ele><time>2026-04-27T10:47:44.999Z</time></trkpt><trkpt lat="37.90768966523209" lon="-4.725063965170787"><ele>127.0</ele><time>2026-04-27T10:47:45.999Z</time></trkpt><trkpt lat="37.90782180604805" lon="-4.724810795163561"><ele>127.0</ele><time>2026-04-27T10:47:46.999Z</time></trkpt><trkpt lat="37.90795151306232" lon="-4.724559822853938"><ele>127.0</ele><time>2026-04-27T10:47:47.999Z</time></trkpt><trkpt lat="37.908077616680316" lon="-4.724312782734215"><ele>127.5</ele><time>2026-04-27T10:47:48.999Z</time></trkpt><trkpt lat="37.908206945314966" lon="-4.72406185231005"><ele>128.0</ele><time>2026-04-27T10:47:49.999Z</time></trkpt><trkpt lat="37.90833436424413" lon="-4.723821050911897"><ele>128.5</ele><time>2026-04-27T10:47:50.999Z</time></trkpt><trkpt lat="37.908462865954256" lon="-4.723577376235858"><ele>129.0</ele><time>2026-04-27T10:47:51.999Z</time></trkpt><trkpt lat="37.90858846076197" lon="-4.723333322169721"><ele>129.0</ele><time>2026-04-27T10:47:52.999Z</time></trkpt><trkpt lat="37.908716232703064" lon="-4.723090183674674"><ele>129.0</ele><time>2026-04-27T10:47:53.999Z</time></trkpt><trkpt lat="37.9088441703727" lon="-4.722843955847643"><ele>128.0</ele><time>2026-04-27T10:47:54.999Z</time></trkpt><trkpt lat="37.9089774329863" lon="-4.722593353446588"><ele>127.0</ele><time>2026-04-27T10:47:55.999Z</time></trkpt><trkpt lat="37.909103866874936" lon="-4.7223516996375"><ele>127.0</ele><time>2026-04-27T10:47:56.999Z</time></trkpt><trkpt lat="37.9092352195272" lon="-4.722108346956785"><ele>127.0</ele><time>2026-04-27T10:47:57.999Z</time></trkpt><trkpt lat="37.9093712984005" lon="-4.721867545806985"><ele>127.5</ele><time>2026-04-27T10:47:58.999Z</time></trkpt><trkpt lat="37.90950494920228" lon="-4.7216285491919745"><ele>128.0</ele><time>2026-04-27T10:47:59.999Z</time></trkpt><trkpt lat="37.90963521866193" lon="-4.721389540298439"><ele>128.0</ele><time>2026-04-27T10:48:00.999Z</time></trkpt><trkpt lat="37.90976500175207" lon="-4.721150532469507"><ele>128.0</ele><time>2026-04-27T10:48:01.999Z</time></trkpt><trkpt lat="37.909891314677786" lon="-4.720913604550192"><ele>127.66666666666666</ele><time>2026-04-27T10:48:02.999Z</time></trkpt><trkpt lat="37.9100144509032" lon="-4.720680338855765"><ele>127.33333333333334</ele><time>2026-04-27T10:48:03.999Z</time></trkpt><trkpt lat="37.910139028711455" lon="-4.720449634794963"><ele>127.0</ele><time>2026-04-27T10:48:04.999Z</time></trkpt><trkpt lat="37.91025993411925" lon="-4.720223135025484"><ele>126.66666666666667</ele><time>2026-04-27T10:48:05.999Z</time></trkpt><trkpt lat="37.91038024861498" lon="-4.71999455435274"><ele>126.33333333333334</ele><time>2026-04-27T10:48:06.999Z</time></trkpt><trkpt lat="37.910493630272526" lon="-4.719774833767284"><ele>126.0</ele><time>2026-04-27T10:48:07.999Z</time></trkpt><trkpt lat="37.91061597883864" lon="-4.719546635104964"><ele>127.66666666666666</ele><time>2026-04-27T10:48:08.999Z</time></trkpt><trkpt lat="37.910732380176285" lon="-4.719325353897654"><ele>129.33333333333331</ele><time>2026-04-27T10:48:09.999Z</time></trkpt><trkpt lat="37.91084901195807" lon="-4.7190984430917915"><ele>131.0</ele><time>2026-04-27T10:48:10.999Z</time></trkpt><trkpt lat="37.91096611471132" lon="-4.718876691515815"><ele>131.0</ele><time>2026-04-27T10:48:11.999Z</time></trkpt><trkpt lat="37.91108316222748" lon="-4.718649501451121"><ele>131.0</ele><time>2026-04-27T10:48:12.999Z</time></trkpt><trkpt lat="37.91119913107056" lon="-4.718432257468669"><ele>131.0</ele><time>2026-04-27T10:48:13.999Z</time></trkpt><trkpt lat="37.91130945257057" lon="-4.718227098993131"><ele>131.33333333333331</ele><time>2026-04-27T10:48:14.999Z</time></trkpt><trkpt lat="37.9114164683286" lon="-4.7180227023374"><ele>131.66666666666666</ele><time>2026-04-27T10:48:15.999Z</time></trkpt><trkpt lat="37.911518619683676" lon="-4.717819435736232"><ele>132.0</ele><time>2026-04-27T10:48:16.999Z</time></trkpt><trkpt lat="37.91162668792199" lon="-4.717621623755836"><ele>132.33333333333334</ele><time>2026-04-27T10:48:17.999Z</time></trkpt><trkpt lat="37.91173128333721" lon="-4.717422964663748"><ele>132.66666666666669</ele><time>2026-04-27T10:48:18.999Z</time></trkpt><trkpt lat="37.91183816516491" lon="-4.717215811233336"><ele>133.0</ele><time>2026-04-27T10:48:19.999Z</time></trkpt><trkpt lat="37.91194559562415" lon="-4.717004431059075"><ele>132.66666666666669</ele><time>2026-04-27T10:48:20.999Z</time></trkpt><trkpt lat="37.91204064172005" lon="-4.716801432393209"><ele>132.33333333333334</ele><time>2026-04-27T10:48:21.999Z</time></trkpt><trkpt lat="37.912147029230105" lon="-4.716608951658632"><ele>132.0</ele><time>2026-04-27T10:48:22.999Z</time></trkpt><trkpt lat="37.91224893019584" lon="-4.7164211101810585"><ele>132.0</ele><time>2026-04-27T10:48:23.999Z</time></trkpt><trkpt lat="37.91235485923135" lon="-4.716223417393914"><ele>132.0</ele><time>2026-04-27T10:48:24.999Z</time></trkpt><trkpt lat="37.91245994735625" lon="-4.716023683291654"><ele>132.0</ele><time>2026-04-27T10:48:25.999Z</time></trkpt><trkpt lat="37.91256412662359" lon="-4.715828068957198"><ele>132.0</ele><time>2026-04-27T10:48:26.999Z</time></trkpt><trkpt lat="37.912668878989074" lon="-4.715626268339194"><ele>132.0</ele><time>2026-04-27T10:48:27.999Z</time></trkpt><trkpt lat="37.91277252356398" lon="-4.715430076574629"><ele>132.0</ele><time>2026-04-27T10:48:28.999Z</time></trkpt><trkpt lat="37.91287810994452" lon="-4.715231907837113"><ele>132.0</ele><time>2026-04-27T10:48:29.999Z</time></trkpt><trkpt lat="37.91298375472189" lon="-4.715029586837621"><ele>132.0</ele><time>2026-04-27T10:48:30.999Z</time></trkpt><trkpt lat="37.91308638817426" lon="-4.714825583425542"><ele>132.0</ele><time>2026-04-27T10:48:31.999Z</time></trkpt><trkpt lat="37.91318627084085" lon="-4.7146268325133756"><ele>132.0</ele><time>2026-04-27T10:48:32.999Z</time></trkpt><trkpt lat="37.91328448413766" lon="-4.714431108208575"><ele>132.0</ele><time>2026-04-27T10:48:33.999Z</time></trkpt><trkpt lat="37.913382176134085" lon="-4.714237394493456"><ele>132.0</ele><time>2026-04-27T10:48:34.999Z</time></trkpt><trkpt lat="37.91347786156247" lon="-4.714047650142158"><ele>132.33333333333334</ele><time>2026-04-27T10:48:35.999Z</time></trkpt><trkpt lat="37.91357118180817" lon="-4.7138525005315906"><ele>132.66666666666669</ele><time>2026-04-27T10:48:36.999Z</time></trkpt><trkpt lat="37.91366144621351" lon="-4.713662328426985"><ele>133.0</ele><time>2026-04-27T10:48:37.999Z</time></trkpt><trkpt lat="37.91375639033022" lon="-4.7134836153126844"><ele>133.0</ele><time>2026-04-27T10:48:38.999Z</time></trkpt><trkpt lat="37.91385271852924" lon="-4.7133013335561"><ele>133.0</ele><time>2026-04-27T10:48:39.999Z</time></trkpt><trkpt lat="37.91394647900165" lon="-4.713119896383925"><ele>133.0</ele><time>2026-04-27T10:48:40.999Z</time></trkpt><trkpt lat="37.91403610482471" lon="-4.712935469616956"><ele>133.0</ele><time>2026-04-27T10:48:41.999Z</time></trkpt><trkpt lat="37.91412782121737" lon="-4.712758418009598"><ele>133.0</ele><time>2026-04-27T10:48:42.999Z</time></trkpt><trkpt lat="37.914220040171216" lon="-4.712582541350609"><ele>133.0</ele><time>2026-04-27T10:48:43.999Z</time></trkpt><trkpt lat="37.91431465736188" lon="-4.712398434720491"><ele>133.0</ele><time>2026-04-27T10:48:44.999Z</time></trkpt><trkpt lat="37.91440841028714" lon="-4.71222267986491"><ele>133.0</ele><time>2026-04-27T10:48:45.999Z</time></trkpt><trkpt lat="37.91450083222292" lon="-4.7120484137980645"><ele>133.0</ele><time>2026-04-27T10:48:46.999Z</time></trkpt><trkpt lat="37.914596499586175" lon="-4.711870526881772"><ele>133.0</ele><time>2026-04-27T10:48:47.999Z</time></trkpt><trkpt lat="37.91469375671695" lon="-4.711687669865072"><ele>133.0</ele><time>2026-04-27T10:48:48.999Z</time></trkpt><trkpt lat="37.9147935598805" lon="-4.711504518513084"><ele>133.0</ele><time>2026-04-27T10:48:49.999Z</time></trkpt><trkpt lat="37.91489051492251" lon="-4.711323137545083"><ele>133.0</ele><time>2026-04-27T10:48:50.999Z</time></trkpt><trkpt lat="37.914986559603705" lon="-4.711135625311639"><ele>133.0</ele><time>2026-04-27T10:48:51.999Z</time></trkpt><trkpt lat="37.91508287526229" lon="-4.710955203157801"><ele>133.0</ele><time>2026-04-27T10:48:52.999Z</time></trkpt><trkpt lat="37.9151743257775" lon="-4.71078110264827"><ele>133.66666666666669</ele><time>2026-04-27T10:48:53.999Z</time></trkpt><trkpt lat="37.91526430382202" lon="-4.710610599700826"><ele>134.33333333333334</ele><time>2026-04-27T10:48:54.999Z</time></trkpt><trkpt lat="37.915355162585556" lon="-4.7104356793119235"><ele>135.0</ele><time>2026-04-27T10:48:55.999Z</time></trkpt><trkpt lat="37.91544750055236" lon="-4.710262023630188"><ele>134.33333333333334</ele><time>2026-04-27T10:48:56.999Z</time></trkpt><trkpt lat="37.91554298666053" lon="-4.71008082950985"><ele>133.66666666666669</ele><time>2026-04-27T10:48:57.999Z</time></trkpt><trkpt lat="37.915638237485595" lon="-4.709896181367748"><ele>133.0</ele><time>2026-04-27T10:48:58.999Z</time></trkpt><trkpt lat="37.9157346115487" lon="-4.709710047905204"><ele>133.0</ele><time>2026-04-27T10:48:59.999Z</time></trkpt><trkpt lat="37.915832154535686" lon="-4.709521713659546"><ele>133.0</ele><time>2026-04-27T10:49:00.999Z</time></trkpt><trkpt lat="37.91593237204858" lon="-4.70933042727727"><ele>133.0</ele><time>2026-04-27T10:49:01.999Z</time></trkpt><trkpt lat="37.91603239873682" lon="-4.709141971806608"><ele>133.0</ele><time>2026-04-27T10:49:02.999Z</time></trkpt><trkpt lat="37.91612856566795" lon="-4.70895613466167"><ele>133.0</ele><time>2026-04-27T10:49:03.999Z</time></trkpt><trkpt lat="37.91622712502256" lon="-4.708762889641586"><ele>133.0</ele><time>2026-04-27T10:49:04.999Z</time></trkpt><trkpt lat="37.916327998969386" lon="-4.708564580162163"><ele>132.0</ele><time>2026-04-27T10:49:05.999Z</time></trkpt><trkpt lat="37.91642803738194" lon="-4.7083674435322465"><ele>131.0</ele><time>2026-04-27T10:49:06.999Z</time></trkpt><trkpt lat="37.916528790360275" lon="-4.708165267981785"><ele>130.0</ele><time>2026-04-27T10:49:07.999Z</time></trkpt><trkpt lat="37.916627635644694" lon="-4.707958375014134"><ele>128.0</ele><time>2026-04-27T10:49:08.999Z</time></trkpt><trkpt lat="37.916725099893185" lon="-4.707741977430673"><ele>126.0</ele><time>2026-04-27T10:49:09.999Z</time></trkpt><trkpt lat="37.91682092748338" lon="-4.707521502336411"><ele>124.0</ele><time>2026-04-27T10:49:10.999Z</time></trkpt><trkpt lat="37.916910919246305" lon="-4.70730603610828"><ele>124.0</ele><time>2026-04-27T10:49:11.999Z</time></trkpt><trkpt lat="37.917003096192744" lon="-4.707089749541913"><ele>124.0</ele><time>2026-04-27T10:49:12.999Z</time></trkpt><trkpt lat="37.917093162745815" lon="-4.706876749430258"><ele>124.0</ele><time>2026-04-27T10:49:13.999Z</time></trkpt><trkpt lat="37.91717817906591" lon="-4.706665737411622"><ele>121.33333333333334</ele><time>2026-04-27T10:49:14.999Z</time></trkpt><trkpt lat="37.91726150920729" lon="-4.706447595104208"><ele>118.66666666666666</ele><time>2026-04-27T10:49:15.999Z</time></trkpt><trkpt lat="37.9173424660203" lon="-4.706227209330938"><ele>116.0</ele><time>2026-04-27T10:49:16.999Z</time></trkpt><trkpt lat="37.917422397489275" lon="-4.706006647001908"><ele>116.0</ele><time>2026-04-27T10:49:17.999Z</time></trkpt><trkpt lat="37.91750275810061" lon="-4.705787377877357"><ele>116.0</ele><time>2026-04-27T10:49:18.999Z</time></trkpt><trkpt lat="37.917580140392" lon="-4.705568795174293"><ele>116.0</ele><time>2026-04-27T10:49:19.999Z</time></trkpt><trkpt lat="37.917648392621835" lon="-4.705354510185007"><ele>116.66666666666666</ele><time>2026-04-27T10:49:20.999Z</time></trkpt><trkpt lat="37.91771718031519" lon="-4.705130768218749"><ele>117.33333333333334</ele><time>2026-04-27T10:49:21.999Z</time></trkpt><trkpt lat="37.91778550743977" lon="-4.704907933361296"><ele>118.0</ele><time>2026-04-27T10:49:22.999Z</time></trkpt><trkpt lat="37.917857339263904" lon="-4.704682448779344"><ele>118.0</ele><time>2026-04-27T10:49:23.999Z</time></trkpt><trkpt lat="37.91791991520616" lon="-4.704458334087969"><ele>118.0</ele><time>2026-04-27T10:49:24.999Z</time></trkpt><trkpt lat="37.91797967652526" lon="-4.704231777401477"><ele>118.0</ele><time>2026-04-27T10:49:25.999Z</time></trkpt><trkpt lat="37.918042400830934" lon="-4.704006816770308"><ele>115.0</ele><time>2026-04-27T10:49:26.999Z</time></trkpt><trkpt lat="37.91810225138899" lon="-4.703784136014749"><ele>112.0</ele><time>2026-04-27T10:49:27.999Z</time></trkpt><trkpt lat="37.918165663278785" lon="-4.703561611437966"><ele>109.0</ele><time>2026-04-27T10:49:28.998Z</time></trkpt><trkpt lat="37.91822720501417" lon="-4.703342880100716"><ele>109.0</ele><time>2026-04-27T10:49:29.998Z</time></trkpt><trkpt lat="37.91828814756481" lon="-4.703124191558238"><ele>109.0</ele><time>2026-04-27T10:49:30.998Z</time></trkpt><trkpt lat="37.91834759387511" lon="-4.702907023742769"><ele>109.0</ele><time>2026-04-27T10:49:31.998Z</time></trkpt><trkpt lat="37.91840511214386" lon="-4.702696914474743"><ele>110.0</ele><time>2026-04-27T10:49:32.998Z</time></trkpt><trkpt lat="37.918460014382916" lon="-4.702490593162774"><ele>111.0</ele><time>2026-04-27T10:49:33.998Z</time></trkpt><trkpt lat="37.91851534777791" lon="-4.702286115464959"><ele>112.0</ele><time>2026-04-27T10:49:34.998Z</time></trkpt><trkpt lat="37.918571673340026" lon="-4.702083530407428"><ele>111.33333333333334</ele><time>2026-04-27T10:49:35.998Z</time></trkpt><trkpt lat="37.91862751509027" lon="-4.701878196976567"><ele>110.66666666666666</ele><time>2026-04-27T10:49:36.998Z</time></trkpt><trkpt lat="37.918686500134754" lon="-4.701662947231427"><ele>110.0</ele><time>2026-04-27T10:49:37.998Z</time></trkpt><trkpt lat="37.91874389342875" lon="-4.70144498743334"><ele>110.0</ele><time>2026-04-27T10:49:38.998Z</time></trkpt><trkpt lat="37.91880356891175" lon="-4.701224163967596"><ele>110.0</ele><time>2026-04-27T10:49:39.998Z</time></trkpt><trkpt lat="37.91886667029147" lon="-4.701000308713433"><ele>110.0</ele><time>2026-04-27T10:49:40.998Z</time></trkpt><trkpt lat="37.9189290777013" lon="-4.7007719932930785"><ele>110.0</ele><time>2026-04-27T10:49:41.998Z</time></trkpt><trkpt lat="37.91899068952439" lon="-4.700541477296453"><ele>110.0</ele><time>2026-04-27T10:49:42.998Z</time></trkpt><trkpt lat="37.91905362657257" lon="-4.70030699474923"><ele>110.0</ele><time>2026-04-27T10:49:43.998Z</time></trkpt><trkpt lat="37.9191178469768" lon="-4.700073447773388"><ele>110.0</ele><time>2026-04-27T10:49:44.998Z</time></trkpt><trkpt lat="37.919183489019304" lon="-4.699836319323813"><ele>110.0</ele><time>2026-04-27T10:49:45.998Z</time></trkpt><trkpt lat="37.91924602323568" lon="-4.69959523857008"><ele>110.0</ele><time>2026-04-27T10:49:46.999Z</time></trkpt><trkpt lat="37.91931299740008" lon="-4.699352006591368"><ele>110.0</ele><time>2026-04-27T10:49:47.999Z</time></trkpt><trkpt lat="37.919381530119935" lon="-4.699110001457867"><ele>110.0</ele><time>2026-04-27T10:49:48.999Z</time></trkpt><trkpt lat="37.91944943556818" lon="-4.698882798835072"><ele>110.0</ele><time>2026-04-27T10:49:49.999Z</time></trkpt><trkpt lat="37.91952124407363" lon="-4.698677006507352"><ele>109.66666666666666</ele><time>2026-04-27T10:49:50.999Z</time></trkpt><trkpt lat="37.91959441862807" lon="-4.698478473344565"><ele>109.33333333333334</ele><time>2026-04-27T10:49:51.999Z</time></trkpt><trkpt lat="37.91967203615799" lon="-4.698286708518755"><ele>109.0</ele><time>2026-04-27T10:49:52.999Z</time></trkpt><trkpt lat="37.91974704127932" lon="-4.698101405878249"><ele>109.0</ele><time>2026-04-27T10:49:53.999Z</time></trkpt><trkpt lat="37.919819315539584" lon="-4.697928429095551"><ele>109.0</ele><time>2026-04-27T10:49:54.999Z</time></trkpt><trkpt lat="37.91989416500577" lon="-4.697756147802415"><ele>109.0</ele><time>2026-04-27T10:49:55.999Z</time></trkpt><trkpt lat="37.91996783024758" lon="-4.697580373874262"><ele>109.0</ele><time>2026-04-27T10:49:56.999Z</time></trkpt><trkpt lat="37.920042159761906" lon="-4.697406586923533"><ele>109.0</ele><time>2026-04-27T10:49:57.999Z</time></trkpt><trkpt lat="37.920109816278696" lon="-4.697245372595772"><ele>109.0</ele><time>2026-04-27T10:49:58.999Z</time></trkpt><trkpt lat="37.92017420591499" lon="-4.6970877061094205"><ele>109.0</ele><time>2026-04-27T10:49:59.999Z</time></trkpt><trkpt lat="37.92024113502305" lon="-4.696932230650673"><ele>109.0</ele><time>2026-04-27T10:50:00.999Z</time></trkpt><trkpt lat="37.92030778170834" lon="-4.696779183280182"><ele>109.0</ele><time>2026-04-27T10:50:01.999Z</time></trkpt><trkpt lat="37.92037266390738" lon="-4.696627208793273"><ele>109.0</ele><time>2026-04-27T10:50:02.999Z</time></trkpt><trkpt lat="37.920437495544085" lon="-4.696471464216719"><ele>109.0</ele><time>2026-04-27T10:50:03.999Z</time></trkpt><trkpt lat="37.920502054116184" lon="-4.696318926951243"><ele>109.0</ele><time>2026-04-27T10:50:04.999Z</time></trkpt><trkpt lat="37.92056871255184" lon="-4.6961655762735806"><ele>109.0</ele><time>2026-04-27T10:50:05.999Z</time></trkpt><trkpt lat="37.92063531949288" lon="-4.696010143702613"><ele>109.0</ele><time>2026-04-27T10:50:06.999Z</time></trkpt><trkpt lat="37.92070592327687" lon="-4.695846080489064"><ele>109.0</ele><time>2026-04-27T10:50:07.999Z</time></trkpt><trkpt lat="37.92078234264937" lon="-4.695665326209414"><ele>108.66666666666667</ele><time>2026-04-27T10:50:08.999Z</time></trkpt><trkpt lat="37.92086761357079" lon="-4.695463918047803"><ele>108.33333333333334</ele><time>2026-04-27T10:50:09.999Z</time></trkpt><trkpt lat="37.92096001391184" lon="-4.695250197161245"><ele>108.0</ele><time>2026-04-27T10:50:10.999Z</time></trkpt><trkpt lat="37.92105774083326" lon="-4.695026544956735"><ele>108.66666666666666</ele><time>2026-04-27T10:50:11.999Z</time></trkpt><trkpt lat="37.92115486498007" lon="-4.694792679756072"><ele>109.33333333333333</ele><time>2026-04-27T10:50:12.999Z</time></trkpt><trkpt lat="37.92125020206371" lon="-4.694560807501003"><ele>110.0</ele><time>2026-04-27T10:50:13.999Z</time></trkpt><trkpt lat="37.92134543328645" lon="-4.69434823826275"><ele>110.33333333333333</ele><time>2026-04-27T10:50:14.999Z</time></trkpt><trkpt lat="37.92141796272257" lon="-4.6941398033026"><ele>110.66666666666666</ele><time>2026-04-27T10:50:15.999Z</time></trkpt><trkpt lat="37.92151815935948" lon="-4.693947306708847"><ele>111.0</ele><time>2026-04-27T10:50:16.999Z</time></trkpt><trkpt lat="37.92160366845626" lon="-4.69374600951805"><ele>110.66666666666666</ele><time>2026-04-27T10:50:17.999Z</time></trkpt><trkpt lat="37.921689392596065" lon="-4.693550575610517"><ele>110.33333333333333</ele><time>2026-04-27T10:50:18.999Z</time></trkpt><trkpt lat="37.921773799069804" lon="-4.693367973940616"><ele>110.0</ele><time>2026-04-27T10:50:19.999Z</time></trkpt><trkpt lat="37.92185979193572" lon="-4.693190713753926"><ele>110.0</ele><time>2026-04-27T10:50:20.999Z</time></trkpt><trkpt lat="37.92195049163419" lon="-4.69300800879763"><ele>110.0</ele><time>2026-04-27T10:50:21.999Z</time></trkpt><trkpt lat="37.922038308815836" lon="-4.692824874711062"><ele>110.0</ele><time>2026-04-27T10:50:22.999Z</time></trkpt><trkpt lat="37.922125438314865" lon="-4.692645490187369"><ele>109.66666666666666</ele><time>2026-04-27T10:50:23.999Z</time></trkpt><trkpt lat="37.92221415310404" lon="-4.692462714636392"><ele>109.33333333333334</ele><time>2026-04-27T10:50:24.999Z</time></trkpt><trkpt lat="37.922302603940835" lon="-4.692278287889494"><ele>109.0</ele><time>2026-04-27T10:50:25.999Z</time></trkpt><trkpt lat="37.92239142399195" lon="-4.692089606848529"><ele>108.66666666666667</ele><time>2026-04-27T10:50:26.999Z</time></trkpt><trkpt lat="37.922479843506935" lon="-4.691903443101643"><ele>108.33333333333334</ele><time>2026-04-27T10:50:27.999Z</time></trkpt><trkpt lat="37.922574028955" lon="-4.691710900349855"><ele>108.0</ele><time>2026-04-27T10:50:28.999Z</time></trkpt><trkpt lat="37.92267756123288" lon="-4.691507814651749"><ele>108.0</ele><time>2026-04-27T10:50:29.999Z</time></trkpt><trkpt lat="37.92277550210482" lon="-4.691299836901876"><ele>108.0</ele><time>2026-04-27T10:50:30.999Z</time></trkpt><trkpt lat="37.922885153625636" lon="-4.691038453568025"><ele>108.0</ele><time>2026-04-27T10:50:31.999Z</time></trkpt><trkpt lat="37.92301509590022" lon="-4.690769190132763"><ele>109.0</ele><time>2026-04-27T10:50:32.999Z</time></trkpt><trkpt lat="37.92315066669838" lon="-4.690526094826555"><ele>110.0</ele><time>2026-04-27T10:50:33.999Z</time></trkpt><trkpt lat="37.9232590113625" lon="-4.690287976260375"><ele>109.66666666666666</ele><time>2026-04-27T10:50:34.999Z</time></trkpt><trkpt lat="37.92336952506433" lon="-4.690059221269943"><ele>109.33333333333334</ele><time>2026-04-27T10:50:35.999Z</time></trkpt><trkpt lat="37.92347476706391" lon="-4.68984350589546"><ele>109.0</ele><time>2026-04-27T10:50:36.999Z</time></trkpt><trkpt lat="37.92358381194311" lon="-4.689625901154057"><ele>109.33333333333334</ele><time>2026-04-27T10:50:37.999Z</time></trkpt><trkpt lat="37.92369851388212" lon="-4.689399955396639"><ele>109.66666666666666</ele><time>2026-04-27T10:50:38.999Z</time></trkpt><trkpt lat="37.923821071607804" lon="-4.689173656187156"><ele>110.0</ele><time>2026-04-27T10:50:39.999Z</time></trkpt><trkpt lat="37.9239639468715" lon="-4.68894101830175"><ele>110.0</ele><time>2026-04-27T10:50:40.999Z</time></trkpt><trkpt lat="37.92412160181627" lon="-4.688685308467463"><ele>110.0</ele><time>2026-04-27T10:50:41.999Z</time></trkpt><trkpt lat="37.92428335333828" lon="-4.688420711740423"><ele>109.0</ele><time>2026-04-27T10:50:42.999Z</time></trkpt><trkpt lat="37.9244419889078" lon="-4.688160996342233"><ele>108.0</ele><time>2026-04-27T10:50:43.999Z</time></trkpt><trkpt lat="37.92460070267569" lon="-4.687902729824942"><ele>107.5</ele><time>2026-04-27T10:50:44.999Z</time></trkpt><trkpt lat="37.92475596585629" lon="-4.6876422634894475"><ele>107.0</ele><time>2026-04-27T10:50:45.999Z</time></trkpt><trkpt lat="37.9249077223179" lon="-4.687382058270919"><ele>107.0</ele><time>2026-04-27T10:50:46.999Z</time></trkpt><trkpt lat="37.925059734683245" lon="-4.687131882605324"><ele>107.0</ele><time>2026-04-27T10:50:47.999Z</time></trkpt><trkpt lat="37.9252064424234" lon="-4.6869017296735835"><ele>107.66666666666666</ele><time>2026-04-27T10:50:48.999Z</time></trkpt><trkpt lat="37.92534345089548" lon="-4.68668032921218"><ele>108.33333333333334</ele><time>2026-04-27T10:50:49.999Z</time></trkpt><trkpt lat="37.92548131095246" lon="-4.686460608075025"><ele>109.0</ele><time>2026-04-27T10:50:50.999Z</time></trkpt><trkpt lat="37.92561453013362" lon="-4.686242158586881"><ele>108.66666666666667</ele><time>2026-04-27T10:50:51.999Z</time></trkpt><trkpt lat="37.9257482548134" lon="-4.686031926651922"><ele>108.33333333333334</ele><time>2026-04-27T10:50:52.999Z</time></trkpt><trkpt lat="37.92587477543548" lon="-4.685830644067975"><ele>108.0</ele><time>2026-04-27T10:50:53.999Z</time></trkpt><trkpt lat="37.926002462847556" lon="-4.6856220303839065"><ele>108.0</ele><time>2026-04-27T10:50:54.999Z</time></trkpt><trkpt lat="37.92613317082075" lon="-4.685412184673173"><ele>108.0</ele><time>2026-04-27T10:50:55.999Z</time></trkpt><trkpt lat="37.92626104201559" lon="-4.68520208579911"><ele>108.0</ele><time>2026-04-27T10:50:56.999Z</time></trkpt><trkpt lat="37.92638906436875" lon="-4.684991736863249"><ele>108.33333333333334</ele><time>2026-04-27T10:50:57.999Z</time></trkpt><trkpt lat="37.926518402709" lon="-4.684781491258161"><ele>108.66666666666667</ele><time>2026-04-27T10:50:58.999Z</time></trkpt><trkpt lat="37.926646236132" lon="-4.684574759487509"><ele>109.0</ele><time>2026-04-27T10:50:59.999Z</time></trkpt><trkpt lat="37.92677458544475" lon="-4.684370643147667"><ele>109.33333333333334</ele><time>2026-04-27T10:51:00.999Z</time></trkpt><trkpt lat="37.92690113721906" lon="-4.68416599409742"><ele>109.66666666666666</ele><time>2026-04-27T10:51:01.999Z</time></trkpt><trkpt lat="37.92702678300862" lon="-4.683963047071093"><ele>110.0</ele><time>2026-04-27T10:51:02.999Z</time></trkpt><trkpt lat="37.92715221647143" lon="-4.683756848000234"><ele>109.33333333333333</ele><time>2026-04-27T10:51:03.999Z</time></trkpt><trkpt lat="37.92727603787767" lon="-4.6835566613595505"><ele>108.66666666666666</ele><time>2026-04-27T10:51:04.999Z</time></trkpt><trkpt lat="37.92739761426967" lon="-4.683363118456603"><ele>108.0</ele><time>2026-04-27T10:51:05.999Z</time></trkpt><trkpt lat="37.927509794524546" lon="-4.683173675080686"><ele>108.66666666666666</ele><time>2026-04-27T10:51:06.999Z</time></trkpt><trkpt lat="37.9276279149867" lon="-4.682988669399659"><ele>109.33333333333333</ele><time>2026-04-27T10:51:07.999Z</time></trkpt><trkpt lat="37.92774474591897" lon="-4.682800436502622"><ele>110.0</ele><time>2026-04-27T10:51:08.999Z</time></trkpt><trkpt lat="37.927861136768094" lon="-4.6826118625631175"><ele>110.0</ele><time>2026-04-27T10:51:09.999Z</time></trkpt><trkpt lat="37.92798234977148" lon="-4.682412712079023"><ele>110.0</ele><time>2026-04-27T10:51:10.999Z</time></trkpt><trkpt lat="37.92822461660401" lon="-4.682339276744268"><ele>110.0</ele><time>2026-04-27T10:51:11.999Z</time></trkpt><trkpt lat="37.92835877053412" lon="-4.68214331044411"><ele>110.5</ele><time>2026-04-27T10:51:12.999Z</time></trkpt><trkpt lat="37.928492287753826" lon="-4.681948274233692"><ele>111.0</ele><time>2026-04-27T10:51:13.999Z</time></trkpt><trkpt lat="37.92850933020578" lon="-4.68162314169287"><ele>111.0</ele><time>2026-04-27T10:51:14.999Z</time></trkpt><trkpt lat="37.928653781298806" lon="-4.681440325564653"><ele>111.0</ele><time>2026-04-27T10:51:15.999Z</time></trkpt><trkpt lat="37.928800005603335" lon="-4.681278575557284"><ele>111.0</ele><time>2026-04-27T10:51:16.999Z</time></trkpt><trkpt lat="37.92894627178735" lon="-4.68112518574405"><ele>111.0</ele><time>2026-04-27T10:51:17.999Z</time></trkpt><trkpt lat="37.92910296680906" lon="-4.680977628837771"><ele>111.0</ele><time>2026-04-27T10:51:18.999Z</time></trkpt><trkpt lat="37.92926424554014" lon="-4.680840519859881"><ele>111.0</ele><time>2026-04-27T10:51:19.999Z</time></trkpt><trkpt lat="37.92943373521946" lon="-4.6807126320599854"><ele>111.33333333333334</ele><time>2026-04-27T10:51:20.999Z</time></trkpt><trkpt lat="37.92960627841209" lon="-4.680593921233404"><ele>111.66666666666667</ele><time>2026-04-27T10:51:21.999Z</time></trkpt><trkpt lat="37.92978043778089" lon="-4.680488521134616"><ele>112.0</ele><time>2026-04-27T10:51:22.999Z</time></trkpt><trkpt lat="37.92995392365537" lon="-4.680395917795612"><ele>112.33333333333334</ele><time>2026-04-27T10:51:23.999Z</time></trkpt><trkpt lat="37.93012763996099" lon="-4.680320456341479"><ele>112.66666666666666</ele><time>2026-04-27T10:51:24.999Z</time></trkpt><trkpt lat="37.93030026939632" lon="-4.680249310383802"><ele>113.0</ele><time>2026-04-27T10:51:25.999Z</time></trkpt><trkpt lat="37.93046896863238" lon="-4.680181125845673"><ele>113.0</ele><time>2026-04-27T10:51:26.999Z</time></trkpt><trkpt lat="37.93063567304775" lon="-4.680114794457216"><ele>113.0</ele><time>2026-04-27T10:51:27.999Z</time></trkpt><trkpt lat="37.930803365641246" lon="-4.680042173855837"><ele>113.0</ele><time>2026-04-27T10:51:28.999Z</time></trkpt><trkpt lat="37.93097472247774" lon="-4.679964777236908"><ele>114.33333333333333</ele><time>2026-04-27T10:51:29.999Z</time></trkpt><trkpt lat="37.93115227671358" lon="-4.679882880645038"><ele>115.66666666666666</ele><time>2026-04-27T10:51:30.999Z</time></trkpt><trkpt lat="37.93132316161412" lon="-4.679785213490075"><ele>117.0</ele><time>2026-04-27T10:51:31.999Z</time></trkpt><trkpt lat="37.93148846536843" lon="-4.679675160134005"><ele>117.0</ele><time>2026-04-27T10:51:32.999Z</time></trkpt><trkpt lat="37.931654699737905" lon="-4.679555622765982"><ele>117.0</ele><time>2026-04-27T10:51:33.999Z</time></trkpt><trkpt lat="37.93181623055569" lon="-4.679429056428923"><ele>117.0</ele><time>2026-04-27T10:51:34.998Z</time></trkpt><trkpt lat="37.931972312401804" lon="-4.6792929479896195"><ele>115.33333333333334</ele><time>2026-04-27T10:51:35.998Z</time></trkpt><trkpt lat="37.93211953998279" lon="-4.679150754347767"><ele>113.66666666666667</ele><time>2026-04-27T10:51:36.998Z</time></trkpt><trkpt lat="37.93225750152401" lon="-4.679003635605595"><ele>112.0</ele><time>2026-04-27T10:51:37.998Z</time></trkpt><trkpt lat="37.932387983571346" lon="-4.678849318615069"><ele>112.0</ele><time>2026-04-27T10:51:38.998Z</time></trkpt><trkpt lat="37.932514517086595" lon="-4.6786806782910215"><ele>112.0</ele><time>2026-04-27T10:51:39.998Z</time></trkpt><trkpt lat="37.932640219923925" lon="-4.678501473939541"><ele>112.0</ele><time>2026-04-27T10:51:40.998Z</time></trkpt><trkpt lat="37.9327644883695" lon="-4.678310629623164"><ele>112.33333333333334</ele><time>2026-04-27T10:51:41.998Z</time></trkpt><trkpt lat="37.932880656232" lon="-4.678112254955171"><ele>112.66666666666666</ele><time>2026-04-27T10:51:42.998Z</time></trkpt><trkpt lat="37.93298952005249" lon="-4.67790928097064"><ele>113.0</ele><time>2026-04-27T10:51:43.998Z</time></trkpt><trkpt lat="37.933094172574656" lon="-4.677691325222553"><ele>113.0</ele><time>2026-04-27T10:51:44.998Z</time></trkpt><trkpt lat="37.93319151206085" lon="-4.677458535064647"><ele>113.0</ele><time>2026-04-27T10:51:45.998Z</time></trkpt><trkpt lat="37.93327516389494" lon="-4.677224821772402"><ele>113.0</ele><time>2026-04-27T10:51:46.999Z</time></trkpt><trkpt lat="37.93335006689898" lon="-4.676987909369095"><ele>115.0</ele><time>2026-04-27T10:51:47.999Z</time></trkpt><trkpt lat="37.9334173812899" lon="-4.676749937943863"><ele>117.0</ele><time>2026-04-27T10:51:48.999Z</time></trkpt><trkpt lat="37.93347758502297" lon="-4.676515390018088"><ele>119.0</ele><time>2026-04-27T10:51:49.999Z</time></trkpt><trkpt lat="37.933541424006506" lon="-4.676273679456824"><ele>120.0</ele><time>2026-04-27T10:51:50.999Z</time></trkpt><trkpt lat="37.9336082615178" lon="-4.676029002805771"><ele>121.0</ele><time>2026-04-27T10:51:51.999Z</time></trkpt><trkpt lat="37.933675274840084" lon="-4.675781950858517"><ele>122.0</ele><time>2026-04-27T10:51:52.999Z</time></trkpt><trkpt lat="37.93374054303576" lon="-4.6755335789318515"><ele>122.0</ele><time>2026-04-27T10:51:53.999Z</time></trkpt><trkpt lat="37.93380725284997" lon="-4.675283778142699"><ele>122.0</ele><time>2026-04-27T10:51:54.999Z</time></trkpt><trkpt lat="37.93387304845435" lon="-4.675050635067546"><ele>122.0</ele><time>2026-04-27T10:51:55.999Z</time></trkpt><trkpt lat="37.93393566315872" lon="-4.6748193047647115"><ele>121.0</ele><time>2026-04-27T10:51:56.999Z</time></trkpt><trkpt lat="37.93399722283022" lon="-4.674590116191748"><ele>120.0</ele><time>2026-04-27T10:51:57.999Z</time></trkpt><trkpt lat="37.93405822773515" lon="-4.674364977137007"><ele>119.0</ele><time>2026-04-27T10:51:58.999Z</time></trkpt><trkpt lat="37.934122242178695" lon="-4.674135657077309"><ele>119.0</ele><time>2026-04-27T10:51:59.999Z</time></trkpt><trkpt lat="37.93418805206707" lon="-4.673904112770064"><ele>119.0</ele><time>2026-04-27T10:52:00.999Z</time></trkpt><trkpt lat="37.93425555544165" lon="-4.673683364279865"><ele>119.0</ele><time>2026-04-27T10:52:01.999Z</time></trkpt><trkpt lat="37.934325781042396" lon="-4.673471352605736"><ele>119.0</ele><time>2026-04-27T10:52:02.999Z</time></trkpt><trkpt lat="37.934401710083364" lon="-4.673259673224124"><ele>119.0</ele><time>2026-04-27T10:52:03.999Z</time></trkpt><trkpt lat="37.93448693397646" lon="-4.673062135592188"><ele>119.0</ele><time>2026-04-27T10:52:04.999Z</time></trkpt><trkpt lat="37.93457619854712" lon="-4.6728721846525865"><ele>117.66666666666666</ele><time>2026-04-27T10:52:05.999Z</time></trkpt><trkpt lat="37.934670167971206" lon="-4.672684109854181"><ele>116.33333333333334</ele><time>2026-04-27T10:52:06.999Z</time></trkpt><trkpt lat="37.93476268292583" lon="-4.672507332328701"><ele>115.0</ele><time>2026-04-27T10:52:07.999Z</time></trkpt><trkpt lat="37.9348611631661" lon="-4.672323133729853"><ele>115.0</ele><time>2026-04-27T10:52:08.999Z</time></trkpt><trkpt lat="37.93495993471184" lon="-4.672139814471041"><ele>115.0</ele><time>2026-04-27T10:52:09.999Z</time></trkpt><trkpt lat="37.93505697221095" lon="-4.6719653482920025"><ele>115.0</ele><time>2026-04-27T10:52:10.999Z</time></trkpt><trkpt lat="37.93514678612798" lon="-4.671805760905285"><ele>116.25</ele><time>2026-04-27T10:52:11.999Z</time></trkpt><trkpt lat="37.93522998436394" lon="-4.6716487630496335"><ele>117.5</ele><time>2026-04-27T10:52:12.999Z</time></trkpt><trkpt lat="37.93530892494968" lon="-4.671504286781119"><ele>118.75</ele><time>2026-04-27T10:52:13.999Z</time></trkpt><trkpt lat="37.93538364126402" lon="-4.671368241730612"><ele>120.0</ele><time>2026-04-27T10:52:14.999Z</time></trkpt><trkpt lat="37.93545700856905" lon="-4.671231005863473"><ele>119.8</ele><time>2026-04-27T10:52:15.999Z</time></trkpt><trkpt lat="37.93552664040529" lon="-4.671099014437081"><ele>119.6</ele><time>2026-04-27T10:52:16.999Z</time></trkpt><trkpt lat="37.93559146830244" lon="-4.670981305494748"><ele>119.4</ele><time>2026-04-27T10:52:17.999Z</time></trkpt><trkpt lat="37.935654685400365" lon="-4.670870204747326"><ele>119.2</ele><time>2026-04-27T10:52:18.999Z</time></trkpt><trkpt lat="37.93571037577517" lon="-4.670764021175038"><ele>119.0</ele><time>2026-04-27T10:52:19.999Z</time></trkpt><trkpt lat="37.93575878593456" lon="-4.670679262647549"><ele>118.99999999999999</ele><time>2026-04-27T10:52:20.999Z</time></trkpt><trkpt lat="37.93579506988266" lon="-4.670605099210198"><ele>119.0</ele><time>2026-04-27T10:52:21.999Z</time></trkpt><trkpt lat="37.93579974050596" lon="-4.670442819462216"><ele>119.0</ele><time>2026-04-27T10:52:23.999Z</time></trkpt><trkpt lat="37.93578691678255" lon="-4.67035671365537"><ele>119.0</ele><time>2026-04-27T10:52:24.999Z</time></trkpt><trkpt lat="37.93578091005797" lon="-4.670271897491352"><ele>118.99999999999999</ele><time>2026-04-27T10:52:25.999Z</time></trkpt><trkpt lat="37.935837654093945" lon="-4.670153154356443"><ele>119.0</ele><time>2026-04-27T10:52:27.999Z</time></trkpt><trkpt lat="37.93589846177499" lon="-4.670120774206912"><ele>119.2</ele><time>2026-04-27T10:52:28.999Z</time></trkpt><trkpt lat="37.93597087269964" lon="-4.67009355448057"><ele>119.4</ele><time>2026-04-27T10:52:29.999Z</time></trkpt><trkpt lat="37.93605452531692" lon="-4.670056144066584"><ele>119.6</ele><time>2026-04-27T10:52:30.999Z</time></trkpt><trkpt lat="37.93613187555006" lon="-4.670010131781406"><ele>119.8</ele><time>2026-04-27T10:52:31.999Z</time></trkpt><trkpt lat="37.9361983089232" lon="-4.669919140956035"><ele>120.0</ele><time>2026-04-27T10:52:32.999Z</time></trkpt><trkpt lat="37.93625362335963" lon="-4.669763444051117"><ele>120.0</ele><time>2026-04-27T10:52:33.999Z</time></trkpt><trkpt lat="37.93636629975605" lon="-4.669558377784683"><ele>120.0</ele><time>2026-04-27T10:52:34.999Z</time></trkpt><trkpt lat="37.9365087449531" lon="-4.669332735019986"><ele>120.0</ele><time>2026-04-27T10:52:35.999Z</time></trkpt><trkpt lat="37.936642066883465" lon="-4.669069731366942"><ele>120.0</ele><time>2026-04-27T10:52:36.999Z</time></trkpt><trkpt lat="37.93678783685233" lon="-4.668803102534228"><ele>120.0</ele><time>2026-04-27T10:52:37.999Z</time></trkpt><trkpt lat="37.936929612847365" lon="-4.668541006372578"><ele>120.0</ele><time>2026-04-27T10:52:38.999Z</time></trkpt><trkpt lat="37.93705776973247" lon="-4.668305451378646"><ele>120.0</ele><time>2026-04-27T10:52:39.999Z</time></trkpt><trkpt lat="37.93717211578454" lon="-4.668093538703833"><ele>120.0</ele><time>2026-04-27T10:52:40.999Z</time></trkpt><trkpt lat="37.937277541606186" lon="-4.6678899541179515"><ele>119.33333333333334</ele><time>2026-04-27T10:52:41.999Z</time></trkpt><trkpt lat="37.93737516954431" lon="-4.667678519134437"><ele>118.66666666666667</ele><time>2026-04-27T10:52:42.999Z</time></trkpt><trkpt lat="37.937467815564" lon="-4.667463797740198"><ele>118.0</ele><time>2026-04-27T10:52:43.999Z</time></trkpt><trkpt lat="37.93754846051743" lon="-4.667260312102009"><ele>119.0</ele><time>2026-04-27T10:52:44.999Z</time></trkpt><trkpt lat="37.93761624868901" lon="-4.6670686425238594"><ele>120.0</ele><time>2026-04-27T10:52:45.999Z</time></trkpt><trkpt lat="37.93766850027513" lon="-4.66688872616239"><ele>121.0</ele><time>2026-04-27T10:52:46.999Z</time></trkpt><trkpt lat="37.937706563857965" lon="-4.666724374562551"><ele>121.0</ele><time>2026-04-27T10:52:47.999Z</time></trkpt><trkpt lat="37.937727333170166" lon="-4.666596672855571"><ele>121.0</ele><time>2026-04-27T10:52:48.999Z</time></trkpt><trkpt lat="37.93774124618285" lon="-4.666509570920602"><ele>121.0</ele><time>2026-04-27T10:52:49.999Z</time></trkpt><trkpt lat="37.93774349704659" lon="-4.66641429840496"><ele>121.0</ele><time>2026-04-27T10:52:51.999Z</time></trkpt><trkpt lat="37.937932294934285" lon="-4.666392030879381"><ele>121.0</ele><time>2026-04-27T10:52:52.999Z</time></trkpt><trkpt lat="37.93802948218024" lon="-4.666352131067432"><ele>121.0</ele><time>2026-04-27T10:52:53.999Z</time></trkpt><trkpt lat="37.938091042008566" lon="-4.666279861833963"><ele>121.0</ele><time>2026-04-27T10:52:54.999Z</time></trkpt><trkpt lat="37.938116777845885" lon="-4.6661625666552355"><ele>121.0</ele><time>2026-04-27T10:52:55.999Z</time></trkpt><trkpt lat="37.938094228988724" lon="-4.66602119161612"><ele>121.0</ele><time>2026-04-27T10:52:56.999Z</time></trkpt><trkpt lat="37.93808299182582" lon="-4.665869820066037"><ele>121.0</ele><time>2026-04-27T10:52:57.999Z</time></trkpt><trkpt lat="37.93807647912498" lon="-4.665700260195491"><ele>121.0</ele><time>2026-04-27T10:52:58.999Z</time></trkpt><trkpt lat="37.938050440261215" lon="-4.665542577375928"><ele>121.0</ele><time>2026-04-27T10:52:59.999Z</time></trkpt><trkpt lat="37.93801579258642" lon="-4.665381445965995"><ele>121.0</ele><time>2026-04-27T10:53:00.999Z</time></trkpt><trkpt lat="37.93796726925949" lon="-4.665214475223453"><ele>121.0</ele><time>2026-04-27T10:53:01.999Z</time></trkpt><trkpt lat="37.93791486096467" lon="-4.665036664512195"><ele>120.0</ele><time>2026-04-27T10:53:02.999Z</time></trkpt><trkpt lat="37.93786429677176" lon="-4.664857076757652"><ele>119.0</ele><time>2026-04-27T10:53:03.999Z</time></trkpt><trkpt lat="37.937817061105946" lon="-4.664677027854875"><ele>118.0</ele><time>2026-04-27T10:53:04.999Z</time></trkpt><trkpt lat="37.93779234576597" lon="-4.664484162058762"><ele>116.33333333333334</ele><time>2026-04-27T10:53:05.999Z</time></trkpt><trkpt lat="37.93780018720088" lon="-4.664280362708669"><ele>114.66666666666666</ele><time>2026-04-27T10:53:06.999Z</time></trkpt><trkpt lat="37.93782526696165" lon="-4.664068369997266"><ele>113.0</ele><time>2026-04-27T10:53:07.999Z</time></trkpt><trkpt lat="37.93786571731074" lon="-4.663860114137623"><ele>113.0</ele><time>2026-04-27T10:53:08.999Z</time></trkpt><trkpt lat="37.937912553014364" lon="-4.6636453078930895"><ele>113.0</ele><time>2026-04-27T10:53:09.999Z</time></trkpt><trkpt lat="37.937958650280216" lon="-4.663425289216693"><ele>113.0</ele><time>2026-04-27T10:53:10.999Z</time></trkpt><trkpt lat="37.93800336955878" lon="-4.663202956260274"><ele>111.66666666666666</ele><time>2026-04-27T10:53:11.999Z</time></trkpt><trkpt lat="37.93805086852458" lon="-4.6629847140372656"><ele>110.33333333333334</ele><time>2026-04-27T10:53:12.999Z</time></trkpt><trkpt lat="37.938102922457404" lon="-4.662771772276773"><ele>109.0</ele><time>2026-04-27T10:53:13.999Z</time></trkpt><trkpt lat="37.938174956088695" lon="-4.662553941299072"><ele>109.0</ele><time>2026-04-27T10:53:14.999Z</time></trkpt><trkpt lat="37.938271611043966" lon="-4.662337947355332"><ele>109.0</ele><time>2026-04-27T10:53:15.999Z</time></trkpt><trkpt lat="37.938389070071814" lon="-4.662118455307985"><ele>109.0</ele><time>2026-04-27T10:53:17Z</time></trkpt><trkpt lat="37.938504620902854" lon="-4.6618994078841345"><ele>110.0</ele><time>2026-04-27T10:53:18Z</time></trkpt><trkpt lat="37.938621493237534" lon="-4.6616729219331114"><ele>111.0</ele><time>2026-04-27T10:53:19Z</time></trkpt><trkpt lat="37.938734250412885" lon="-4.6614501959641315"><ele>112.0</ele><time>2026-04-27T10:53:20Z</time></trkpt><trkpt lat="37.93884652789645" lon="-4.6612218658827125"><ele>112.33333333333334</ele><time>2026-04-27T10:53:21Z</time></trkpt><trkpt lat="37.938961930216806" lon="-4.660994505214951"><ele>112.66666666666666</ele><time>2026-04-27T10:53:22Z</time></trkpt><trkpt lat="37.93907515155368" lon="-4.660766329130926"><ele>113.0</ele><time>2026-04-27T10:53:23Z</time></trkpt><trkpt lat="37.939188870271124" lon="-4.660537551983605"><ele>115.0</ele><time>2026-04-27T10:53:24Z</time></trkpt><trkpt lat="37.93930262519512" lon="-4.6603099748255135"><ele>117.0</ele><time>2026-04-27T10:53:25Z</time></trkpt><trkpt lat="37.93941641076353" lon="-4.660079238501596"><ele>119.0</ele><time>2026-04-27T10:53:26Z</time></trkpt><trkpt lat="37.93953293511373" lon="-4.659848434414543"><ele>119.0</ele><time>2026-04-27T10:53:27Z</time></trkpt><trkpt lat="37.939656017253775" lon="-4.65961889205129"><ele>119.0</ele><time>2026-04-27T10:53:28Z</time></trkpt><trkpt lat="37.93977483331053" lon="-4.659387878269084"><ele>119.0</ele><time>2026-04-27T10:53:29Z</time></trkpt><trkpt lat="37.9398932211372" lon="-4.659148697073474"><ele>117.0</ele><time>2026-04-27T10:53:30Z</time></trkpt><trkpt lat="37.940010456754344" lon="-4.658905903339075"><ele>115.0</ele><time>2026-04-27T10:53:31Z</time></trkpt><trkpt lat="37.94012743222856" lon="-4.658652698552587"><ele>114.5</ele><time>2026-04-27T10:53:32Z</time></trkpt><trkpt lat="37.94023919457399" lon="-4.658397732557745"><ele>114.0</ele><time>2026-04-27T10:53:33Z</time></trkpt><trkpt lat="37.94034582124806" lon="-4.658136064107532"><ele>114.0</ele><time>2026-04-27T10:53:34Z</time></trkpt><trkpt lat="37.94044091579967" lon="-4.657868135139641"><ele>114.0</ele><time>2026-04-27T10:53:35Z</time></trkpt><trkpt lat="37.940529434205985" lon="-4.657600102254981"><ele>115.5</ele><time>2026-04-27T10:53:36Z</time></trkpt><trkpt lat="37.94060783297196" lon="-4.657331166512099"><ele>117.0</ele><time>2026-04-27T10:53:37Z</time></trkpt><trkpt lat="37.94067767706137" lon="-4.657060121305694"><ele>116.33333333333334</ele><time>2026-04-27T10:53:38Z</time></trkpt><trkpt lat="37.940743593854506" lon="-4.656791420102964"><ele>115.66666666666667</ele><time>2026-04-27T10:53:39Z</time></trkpt><trkpt lat="37.94080895592729" lon="-4.656520556449591"><ele>115.0</ele><time>2026-04-27T10:53:40Z</time></trkpt><trkpt lat="37.94088030108181" lon="-4.656253246984534"><ele>120.0</ele><time>2026-04-27T10:53:40.999Z</time></trkpt><trkpt lat="37.94095952494198" lon="-4.655981840943855"><ele>125.0</ele><time>2026-04-27T10:53:41.999Z</time></trkpt><trkpt lat="37.94104145087937" lon="-4.655716883730171"><ele>125.0</ele><time>2026-04-27T10:53:42.999Z</time></trkpt><trkpt lat="37.94112457764094" lon="-4.655447652652466"><ele>125.0</ele><time>2026-04-27T10:53:43.999Z</time></trkpt><trkpt lat="37.941209294079584" lon="-4.655175355003052"><ele>122.0</ele><time>2026-04-27T10:53:44.999Z</time></trkpt><trkpt lat="37.941294789483024" lon="-4.65490268583749"><ele>119.0</ele><time>2026-04-27T10:53:45.999Z</time></trkpt><trkpt lat="37.941383159001475" lon="-4.654628254233075"><ele>115.0</ele><time>2026-04-27T10:53:46.999Z</time></trkpt><trkpt lat="37.94146641935427" lon="-4.654356150850812"><ele>111.0</ele><time>2026-04-27T10:53:47.999Z</time></trkpt><trkpt lat="37.94154779885403" lon="-4.654081975966681"><ele>111.0</ele><time>2026-04-27T10:53:48.999Z</time></trkpt><trkpt lat="37.941629086712545" lon="-4.653810438070291"><ele>111.0</ele><time>2026-04-27T10:53:49.999Z</time></trkpt><trkpt lat="37.94171300903774" lon="-4.653536953947761"><ele>116.0</ele><time>2026-04-27T10:53:50.999Z</time></trkpt><trkpt lat="37.94179477625293" lon="-4.653264672326821"><ele>121.0</ele><time>2026-04-27T10:53:51.999Z</time></trkpt><trkpt lat="37.94187015958873" lon="-4.652993974992129"><ele>123.0</ele><time>2026-04-27T10:53:52.999Z</time></trkpt><trkpt lat="37.941944102070984" lon="-4.652737920231673"><ele>125.0</ele><time>2026-04-27T10:53:53.999Z</time></trkpt><trkpt lat="37.94202284978051" lon="-4.652517105619725"><ele>127.0</ele><time>2026-04-27T10:53:54.999Z</time></trkpt><trkpt lat="37.94211971245613" lon="-4.6522900436598515"><ele>127.0</ele><time>2026-04-27T10:53:55.999Z</time></trkpt><trkpt lat="37.94225062656224" lon="-4.652074188618093"><ele>127.0</ele><time>2026-04-27T10:53:56.999Z</time></trkpt><trkpt lat="37.94240929876806" lon="-4.651887523361828"><ele>127.0</ele><time>2026-04-27T10:53:57.999Z</time></trkpt><trkpt lat="37.942594273377765" lon="-4.651744483348217"><ele>128.0</ele><time>2026-04-27T10:53:58.999Z</time></trkpt><trkpt lat="37.94279231989836" lon="-4.651636283245072"><ele>129.0</ele><time>2026-04-27T10:53:59.999Z</time></trkpt><trkpt lat="37.943001973574454" lon="-4.651557353666823"><ele>130.0</ele><time>2026-04-27T10:54:00.999Z</time></trkpt><trkpt lat="37.94322445165358" lon="-4.651511778090748"><ele>133.0</ele><time>2026-04-27T10:54:01.999Z</time></trkpt><trkpt lat="37.94344964140711" lon="-4.651460878260634"><ele>136.0</ele><time>2026-04-27T10:54:03Z</time></trkpt><trkpt lat="37.94367456532625" lon="-4.651404985675411"><ele>136.0</ele><time>2026-04-27T10:54:04Z</time></trkpt><trkpt lat="37.94389383440835" lon="-4.651343428320202"><ele>136.0</ele><time>2026-04-27T10:54:05Z</time></trkpt><trkpt lat="37.94410608796885" lon="-4.6512709475751315"><ele>136.0</ele><time>2026-04-27T10:54:06Z</time></trkpt><trkpt lat="37.944307035229535" lon="-4.651169374307194"><ele>136.0</ele><time>2026-04-27T10:54:07Z</time></trkpt><trkpt lat="37.9444937653455" lon="-4.651019557320199"><ele>136.0</ele><time>2026-04-27T10:54:08Z</time></trkpt><trkpt lat="37.94466353362932" lon="-4.6508388799793865"><ele>136.0</ele><time>2026-04-27T10:54:09Z</time></trkpt><trkpt lat="37.944811812669904" lon="-4.650640764113073"><ele>136.0</ele><time>2026-04-27T10:54:10Z</time></trkpt><trkpt lat="37.94492074138215" lon="-4.6504309228645955"><ele>136.0</ele><time>2026-04-27T10:54:11Z</time></trkpt><trkpt lat="37.944997464276234" lon="-4.650196078694526"><ele>136.0</ele><time>2026-04-27T10:54:12Z</time></trkpt><trkpt lat="37.945049677544034" lon="-4.649934583547582"><ele>136.66666666666669</ele><time>2026-04-27T10:54:13Z</time></trkpt><trkpt lat="37.945081082783894" lon="-4.6496647025294475"><ele>137.33333333333334</ele><time>2026-04-27T10:54:14Z</time></trkpt><trkpt lat="37.94511741290232" lon="-4.649386267641165"><ele>138.0</ele><time>2026-04-27T10:54:15Z</time></trkpt><trkpt lat="37.94516074107423" lon="-4.649107993530679"><ele>138.0</ele><time>2026-04-27T10:54:16Z</time></trkpt><trkpt lat="37.94520639380378" lon="-4.64882053901886"><ele>138.0</ele><time>2026-04-27T10:54:17Z</time></trkpt><trkpt lat="37.945249935661806" lon="-4.64853376721357"><ele>136.0</ele><time>2026-04-27T10:54:18Z</time></trkpt><trkpt lat="37.94529608307776" lon="-4.64824081093722"><ele>134.0</ele><time>2026-04-27T10:54:19Z</time></trkpt><trkpt lat="37.945340865456984" lon="-4.6479434214238005"><ele>135.0</ele><time>2026-04-27T10:54:20Z</time></trkpt><trkpt lat="37.94537775030412" lon="-4.6476442118769645"><ele>136.0</ele><time>2026-04-27T10:54:21Z</time></trkpt><trkpt lat="37.94540990152454" lon="-4.647346336479573"><ele>136.0</ele><time>2026-04-27T10:54:22Z</time></trkpt><trkpt lat="37.94543654984976" lon="-4.64704362075407"><ele>136.0</ele><time>2026-04-27T10:54:23Z</time></trkpt><trkpt lat="37.94546247791518" lon="-4.646740956987198"><ele>136.5</ele><time>2026-04-27T10:54:24Z</time></trkpt><trkpt lat="37.945489634433194" lon="-4.6464339115179625"><ele>137.0</ele><time>2026-04-27T10:54:25Z</time></trkpt><trkpt lat="37.94551865864553" lon="-4.646130158286231"><ele>137.5</ele><time>2026-04-27T10:54:26Z</time></trkpt><trkpt lat="37.94554751769382" lon="-4.645823269892964"><ele>138.0</ele><time>2026-04-27T10:54:27Z</time></trkpt><trkpt lat="37.945573536985975" lon="-4.645521607844387"><ele>136.0</ele><time>2026-04-27T10:54:28Z</time></trkpt><trkpt lat="37.94559553664262" lon="-4.64522391400931"><ele>134.0</ele><time>2026-04-27T10:54:29Z</time></trkpt><trkpt lat="37.94561803506323" lon="-4.644929430360771"><ele>134.0</ele><time>2026-04-27T10:54:30Z</time></trkpt><trkpt lat="37.945639533287135" lon="-4.644637232485715"><ele>134.0</ele><time>2026-04-27T10:54:31Z</time></trkpt><trkpt lat="37.94566091014819" lon="-4.6443367612822355"><ele>134.5</ele><time>2026-04-27T10:54:32Z</time></trkpt><trkpt lat="37.94568371990507" lon="-4.644042498710848"><ele>135.0</ele><time>2026-04-27T10:54:33Z</time></trkpt><trkpt lat="37.945705710474556" lon="-4.643740907827983"><ele>134.5</ele><time>2026-04-27T10:54:34Z</time></trkpt><trkpt lat="37.94572791889638" lon="-4.643442627871111"><ele>134.0</ele><time>2026-04-27T10:54:35Z</time></trkpt><trkpt lat="37.94575229377781" lon="-4.643148052053829"><ele>134.0</ele><time>2026-04-27T10:54:36Z</time></trkpt><trkpt lat="37.94577671295037" lon="-4.6428463185650175"><ele>134.0</ele><time>2026-04-27T10:54:37Z</time></trkpt><trkpt lat="37.945797811168745" lon="-4.642549313009148"><ele>134.0</ele><time>2026-04-27T10:54:38Z</time></trkpt><trkpt lat="37.945819057135395" lon="-4.64224746897416"><ele>134.0</ele><time>2026-04-27T10:54:39Z</time></trkpt><trkpt lat="37.945833287130135" lon="-4.6419440653971416"><ele>134.5</ele><time>2026-04-27T10:54:40Z</time></trkpt><trkpt lat="37.94584173992673" lon="-4.641639576260319"><ele>135.0</ele><time>2026-04-27T10:54:41Z</time></trkpt><trkpt lat="37.94584438642189" lon="-4.641343604673466"><ele>134.5</ele><time>2026-04-27T10:54:42Z</time></trkpt><trkpt lat="37.94584304174021" lon="-4.641040833033616"><ele>134.0</ele><time>2026-04-27T10:54:43Z</time></trkpt><trkpt lat="37.945837819691825" lon="-4.640738981543436"><ele>134.0</ele><time>2026-04-27T10:54:44Z</time></trkpt><trkpt lat="37.945829579949425" lon="-4.640437563775621"><ele>134.0</ele><time>2026-04-27T10:54:45Z</time></trkpt><trkpt lat="37.94581887989111" lon="-4.64015028024095"><ele>133.66666666666666</ele><time>2026-04-27T10:54:46Z</time></trkpt><trkpt lat="37.94580608646106" lon="-4.6398683835707315"><ele>133.33333333333334</ele><time>2026-04-27T10:54:47Z</time></trkpt><trkpt lat="37.945793366689216" lon="-4.6395896253812365"><ele>133.0</ele><time>2026-04-27T10:54:48Z</time></trkpt><trkpt lat="37.94578140556379" lon="-4.639328030338682"><ele>132.66666666666669</ele><time>2026-04-27T10:54:49Z</time></trkpt><trkpt lat="37.94577234439502" lon="-4.639090262611107"><ele>132.33333333333334</ele><time>2026-04-27T10:54:50Z</time></trkpt><trkpt lat="37.945769317126114" lon="-4.638865672795935"><ele>132.0</ele><time>2026-04-27T10:54:51Z</time></trkpt><trkpt lat="37.94578256771379" lon="-4.638644950586772"><ele>131.66666666666666</ele><time>2026-04-27T10:54:52Z</time></trkpt><trkpt lat="37.94582042582763" lon="-4.638425297783701"><ele>131.33333333333331</ele><time>2026-04-27T10:54:53Z</time></trkpt><trkpt lat="37.94588516638556" lon="-4.638210690771235"><ele>131.0</ele><time>2026-04-27T10:54:54Z</time></trkpt><trkpt lat="37.94597641354253" lon="-4.638009535173447"><ele>131.0</ele><time>2026-04-27T10:54:55Z</time></trkpt><trkpt lat="37.94607675885547" lon="-4.637828765104048"><ele>131.0</ele><time>2026-04-27T10:54:56Z</time></trkpt><trkpt lat="37.9461881999443" lon="-4.6376728959104465"><ele>131.0</ele><time>2026-04-27T10:54:57Z</time></trkpt><trkpt lat="37.9463083224491" lon="-4.637539128739514"><ele>129.33333333333331</ele><time>2026-04-27T10:54:58Z</time></trkpt><trkpt lat="37.946441747667556" lon="-4.637424784098374"><ele>127.66666666666666</ele><time>2026-04-27T10:54:59Z</time></trkpt><trkpt lat="37.94658125575241" lon="-4.637338451092156"><ele>126.0</ele><time>2026-04-27T10:55:00Z</time></trkpt><trkpt lat="37.94672877137896" lon="-4.637274303673451"><ele>125.0</ele><time>2026-04-27T10:55:01Z</time></trkpt><trkpt lat="37.946879286810784" lon="-4.637216414922681"><ele>124.0</ele><time>2026-04-27T10:55:02Z</time></trkpt><trkpt lat="37.94703387644321" lon="-4.637169339737284"><ele>123.0</ele><time>2026-04-27T10:55:03Z</time></trkpt><trkpt lat="37.94718953505628" lon="-4.637131709641428"><ele>123.0</ele><time>2026-04-27T10:55:04Z</time></trkpt><trkpt lat="37.947316173624515" lon="-4.637108148458772"><ele>123.0</ele><time>2026-04-27T10:55:05Z</time></trkpt><trkpt lat="37.94742777926143" lon="-4.637083713719586"><ele>123.0</ele><time>2026-04-27T10:55:06Z</time></trkpt><trkpt lat="37.94753634073233" lon="-4.637058844976208"><ele>123.0</ele><time>2026-04-27T10:55:07Z</time></trkpt><trkpt lat="37.947644447481785" lon="-4.6370348778006205"><ele>124.80000000000001</ele><time>2026-04-27T10:55:08Z</time></trkpt><trkpt lat="37.94774993378335" lon="-4.637017143299092"><ele>126.60000000000001</ele><time>2026-04-27T10:55:09Z</time></trkpt><trkpt lat="37.9478456935655" lon="-4.637000382735626"><ele>128.39999999999998</ele><time>2026-04-27T10:55:10Z</time></trkpt><trkpt lat="37.94791786536892" lon="-4.636980139561405"><ele>130.2</ele><time>2026-04-27T10:55:11Z</time></trkpt><trkpt lat="37.947985620517564" lon="-4.636908181050799"><ele>132.0</ele><time>2026-04-27T10:55:13Z</time></trkpt><trkpt lat="37.9479434712308" lon="-4.636766578632594"><ele>128.4</ele><time>2026-04-27T10:55:16Z</time></trkpt><trkpt lat="37.947954633274215" lon="-4.63664743937536"><ele>124.79999999999998</ele><time>2026-04-27T10:55:34Z</time></trkpt><trkpt lat="37.947962140804314" lon="-4.636473348400442"><ele>121.2</ele><time>2026-04-27T10:55:36Z</time></trkpt><trkpt lat="37.94796146798415" lon="-4.636371915555358"><ele>117.6</ele><time>2026-04-27T10:55:37Z</time></trkpt><trkpt lat="37.94795880206865" lon="-4.636273547859864"><ele>114.0</ele><time>2026-04-27T10:55:38Z</time></trkpt><trkpt lat="37.94795933514027" lon="-4.636178802138669"><ele>113.5</ele><time>2026-04-27T10:55:39Z</time></trkpt><trkpt lat="37.947965114056736" lon="-4.636086126238521"><ele>113.0</ele><time>2026-04-27T10:55:40Z</time></trkpt><trkpt lat="37.94796860730572" lon="-4.635973637446585"><ele>112.5</ele><time>2026-04-27T10:55:41Z</time></trkpt><trkpt lat="37.947971549231816" lon="-4.63586523068154"><ele>112.0</ele><time>2026-04-27T10:55:42Z</time></trkpt><trkpt lat="37.94796565170877" lon="-4.635756320790309"><ele>111.5</ele><time>2026-04-27T10:55:43Z</time></trkpt><trkpt lat="37.94795076278143" lon="-4.635669490634758"><ele>111.0</ele><time>2026-04-27T10:55:44Z</time></trkpt><trkpt lat="37.94792717375073" lon="-4.635546334156543"><ele>111.0</ele><time>2026-04-27T10:55:46Z</time></trkpt><trkpt lat="37.947862764930484" lon="-4.635518667246042"><ele>111.0</ele><time>2026-04-27T10:55:47Z</time></trkpt><trkpt lat="37.947695463599445" lon="-4.635573711919137"><ele>111.0</ele><time>2026-04-27T10:55:49Z</time></trkpt><trkpt lat="37.947591302376416" lon="-4.6355791879177115"><ele>111.0</ele><time>2026-04-27T10:55:50Z</time></trkpt><trkpt lat="37.94748019117344" lon="-4.635596254044853"><ele>112.0</ele><time>2026-04-27T10:55:51Z</time></trkpt><trkpt lat="37.947358212185" lon="-4.635564114023429"><ele>113.0</ele><time>2026-04-27T10:55:52Z</time></trkpt><trkpt lat="37.94722683055285" lon="-4.6355428269788295"><ele>114.0</ele><time>2026-04-27T10:55:53Z</time></trkpt><trkpt lat="37.9470912067112" lon="-4.635507029458351"><ele>115.0</ele><time>2026-04-27T10:55:54Z</time></trkpt><trkpt lat="37.946951224132384" lon="-4.635468799979593"><ele>115.0</ele><time>2026-04-27T10:55:55Z</time></trkpt><trkpt lat="37.94681003311424" lon="-4.635422916249762"><ele>115.0</ele><time>2026-04-27T10:55:56Z</time></trkpt><trkpt lat="37.94666707948538" lon="-4.635369812328636"><ele>115.0</ele><time>2026-04-27T10:55:57Z</time></trkpt><trkpt lat="37.94651645189779" lon="-4.6353020122036925"><ele>118.33333333333334</ele><time>2026-04-27T10:55:58Z</time></trkpt><trkpt lat="37.946381357821295" lon="-4.635211281751984"><ele>121.66666666666666</ele><time>2026-04-27T10:55:59Z</time></trkpt><trkpt lat="37.94626302463958" lon="-4.635084362477607"><ele>125.0</ele><time>2026-04-27T10:56:00Z</time></trkpt><trkpt lat="37.94616204146278" lon="-4.634942434723374"><ele>125.0</ele><time>2026-04-27T10:56:01Z</time></trkpt><trkpt lat="37.94607128475613" lon="-4.634785007068566"><ele>125.0</ele><time>2026-04-27T10:56:02Z</time></trkpt><trkpt lat="37.946000958782236" lon="-4.634611833433375"><ele>125.0</ele><time>2026-04-27T10:56:03Z</time></trkpt><trkpt lat="37.94595029633173" lon="-4.634428318536754"><ele>128.0</ele><time>2026-04-27T10:56:04Z</time></trkpt><trkpt lat="37.94593147006681" lon="-4.634236725027639"><ele>131.0</ele><time>2026-04-27T10:56:05Z</time></trkpt><trkpt lat="37.945946196094475" lon="-4.634034494695447"><ele>134.0</ele><time>2026-04-27T10:56:06Z</time></trkpt><trkpt lat="37.94599275491423" lon="-4.63383581071296"><ele>133.66666666666666</ele><time>2026-04-27T10:56:07Z</time></trkpt><trkpt lat="37.946059866498786" lon="-4.633637834134066"><ele>133.33333333333334</ele><time>2026-04-27T10:56:08Z</time></trkpt><trkpt lat="37.94613366270483" lon="-4.633427982347138"><ele>133.0</ele><time>2026-04-27T10:56:09Z</time></trkpt><trkpt lat="37.94620571721002" lon="-4.633206782446009"><ele>133.0</ele><time>2026-04-27T10:56:10Z</time></trkpt><trkpt lat="37.94628494205671" lon="-4.632974213184441"><ele>133.0</ele><time>2026-04-27T10:56:11Z</time></trkpt><trkpt lat="37.94636391011912" lon="-4.632739513976642"><ele>133.0</ele><time>2026-04-27T10:56:12Z</time></trkpt><trkpt lat="37.94644513494723" lon="-4.632491042056746"><ele>133.33333333333334</ele><time>2026-04-27T10:56:13Z</time></trkpt><trkpt lat="37.94652616700185" lon="-4.6322331710938105"><ele>133.66666666666666</ele><time>2026-04-27T10:56:14Z</time></trkpt><trkpt lat="37.946606770288014" lon="-4.631978526091681"><ele>134.0</ele><time>2026-04-27T10:56:15Z</time></trkpt><trkpt lat="37.946680297393826" lon="-4.631722121048456"><ele>135.66666666666666</ele><time>2026-04-27T10:56:16Z</time></trkpt><trkpt lat="37.94675035978176" lon="-4.631467699695667"><ele>137.33333333333334</ele><time>2026-04-27T10:56:17Z</time></trkpt><trkpt lat="37.946818606353965" lon="-4.631212261813005"><ele>139.0</ele><time>2026-04-27T10:56:18Z</time></trkpt><trkpt lat="37.94688257130082" lon="-4.630952886429148"><ele>140.0</ele><time>2026-04-27T10:56:19Z</time></trkpt><trkpt lat="37.94694808563012" lon="-4.6306806549694315"><ele>141.0</ele><time>2026-04-27T10:56:20Z</time></trkpt><trkpt lat="37.94701607644757" lon="-4.630374418261031"><ele>141.5</ele><time>2026-04-27T10:56:21Z</time></trkpt><trkpt lat="37.94707556053726" lon="-4.630082817449498"><ele>142.0</ele><time>2026-04-27T10:56:22Z</time></trkpt><trkpt lat="37.94712784858958" lon="-4.629796799941081"><ele>142.0</ele><time>2026-04-27T10:56:23Z</time></trkpt><trkpt lat="37.94718513257921" lon="-4.629525389808722"><ele>142.0</ele><time>2026-04-27T10:56:24Z</time></trkpt><trkpt lat="37.94724347507621" lon="-4.629267492918509"><ele>142.0</ele><time>2026-04-27T10:56:25Z</time></trkpt><trkpt lat="37.94730060457334" lon="-4.62902704024841"><ele>142.33333333333334</ele><time>2026-04-27T10:56:26Z</time></trkpt><trkpt lat="37.94734259484758" lon="-4.628797278767181"><ele>142.66666666666666</ele><time>2026-04-27T10:56:27Z</time></trkpt><trkpt lat="37.94737160051175" lon="-4.628589041819508"><ele>143.0</ele><time>2026-04-27T10:56:28Z</time></trkpt><trkpt lat="37.94739283595115" lon="-4.62840231693459"><ele>143.5</ele><time>2026-04-27T10:56:29Z</time></trkpt><trkpt lat="37.947409157409346" lon="-4.628231960468878"><ele>144.0</ele><time>2026-04-27T10:56:30Z</time></trkpt><trkpt lat="37.94743836483144" lon="-4.628058477085616"><ele>144.5</ele><time>2026-04-27T10:56:31Z</time></trkpt><trkpt lat="37.947498809460605" lon="-4.627903943849287"><ele>145.0</ele><time>2026-04-27T10:56:32Z</time></trkpt><trkpt lat="37.947592382468116" lon="-4.627762207699824"><ele>146.0</ele><time>2026-04-27T10:56:33Z</time></trkpt><trkpt lat="37.9476991088743" lon="-4.627624385367589"><ele>147.0</ele><time>2026-04-27T10:56:34Z</time></trkpt><trkpt lat="37.94780473720276" lon="-4.627489930858115"><ele>148.0</ele><time>2026-04-27T10:56:35Z</time></trkpt><trkpt lat="37.947876260738376" lon="-4.627326574812008"><ele>149.0</ele><time>2026-04-27T10:56:36Z</time></trkpt><trkpt lat="37.94790800017413" lon="-4.627156276475775"><ele>149.66666666666666</ele><time>2026-04-27T10:56:37Z</time></trkpt><trkpt lat="37.947923577699285" lon="-4.626965198070248"><ele>150.33333333333334</ele><time>2026-04-27T10:56:38Z</time></trkpt><trkpt lat="37.947929411951954" lon="-4.626760091824912"><ele>151.0</ele><time>2026-04-27T10:56:39Z</time></trkpt><trkpt lat="37.94794774355588" lon="-4.6265545221031115"><ele>151.0</ele><time>2026-04-27T10:56:40Z</time></trkpt><trkpt lat="37.94794967238126" lon="-4.626340659393706"><ele>151.0</ele><time>2026-04-27T10:56:41Z</time></trkpt><trkpt lat="37.947955111716404" lon="-4.626119166220806"><ele>151.0</ele><time>2026-04-27T10:56:42Z</time></trkpt><trkpt lat="37.947959063513544" lon="-4.625889820463656"><ele>151.0</ele><time>2026-04-27T10:56:43Z</time></trkpt><trkpt lat="37.947961810245566" lon="-4.625662662664638"><ele>151.0</ele><time>2026-04-27T10:56:44Z</time></trkpt><trkpt lat="37.94796418744915" lon="-4.625428095729727"><ele>151.0</ele><time>2026-04-27T10:56:45Z</time></trkpt><trkpt lat="37.9479682400461" lon="-4.62519020686454"><ele>152.33333333333334</ele><time>2026-04-27T10:56:46Z</time></trkpt><trkpt lat="37.94797136228967" lon="-4.62494827972329"><ele>153.66666666666666</ele><time>2026-04-27T10:56:47Z</time></trkpt><trkpt lat="37.94797224333857" lon="-4.6246988125070185"><ele>155.0</ele><time>2026-04-27T10:56:48Z</time></trkpt><trkpt lat="37.947968408728066" lon="-4.624443985635558"><ele>155.66666666666666</ele><time>2026-04-27T10:56:49Z</time></trkpt><trkpt lat="37.94795631227291" lon="-4.624179070837197"><ele>156.33333333333334</ele><time>2026-04-27T10:56:50Z</time></trkpt><trkpt lat="37.947937824523535" lon="-4.623912265167691"><ele>157.0</ele><time>2026-04-27T10:56:51Z</time></trkpt><trkpt lat="37.94791764895417" lon="-4.623638763212135"><ele>157.33333333333334</ele><time>2026-04-27T10:56:52Z</time></trkpt><trkpt lat="37.94789448318122" lon="-4.623380167025661"><ele>157.66666666666666</ele><time>2026-04-27T10:56:53Z</time></trkpt><trkpt lat="37.94787506069071" lon="-4.623122565367154"><ele>158.0</ele><time>2026-04-27T10:56:54Z</time></trkpt><trkpt lat="37.94785008221171" lon="-4.622872871631744"><ele>158.33333333333331</ele><time>2026-04-27T10:56:55Z</time></trkpt><trkpt lat="37.947829661472234" lon="-4.622646563180418"><ele>158.66666666666666</ele><time>2026-04-27T10:56:56Z</time></trkpt><trkpt lat="37.947813518302844" lon="-4.622432361825715"><ele>159.0</ele><time>2026-04-27T10:56:57Z</time></trkpt><trkpt lat="37.94781103872162" lon="-4.62222165227649"><ele>159.0</ele><time>2026-04-27T10:56:58Z</time></trkpt><trkpt lat="37.947836924344024" lon="-4.622014999914674"><ele>159.0</ele><time>2026-04-27T10:56:59Z</time></trkpt><trkpt lat="37.9478945633856" lon="-4.621805382422056"><ele>159.0</ele><time>2026-04-27T10:57:00Z</time></trkpt><trkpt lat="37.94797238297544" lon="-4.6215836258345355"><ele>157.33333333333334</ele><time>2026-04-27T10:57:01Z</time></trkpt><trkpt lat="37.948054475867394" lon="-4.621358484518198"><ele>155.66666666666669</ele><time>2026-04-27T10:57:02Z</time></trkpt><trkpt lat="37.94813898122566" lon="-4.6211284736125355"><ele>154.0</ele><time>2026-04-27T10:57:03Z</time></trkpt><trkpt lat="37.94821927651951" lon="-4.62089725324669"><ele>154.0</ele><time>2026-04-27T10:57:04Z</time></trkpt><trkpt lat="37.94829308949909" lon="-4.620659579784368"><ele>154.0</ele><time>2026-04-27T10:57:05Z</time></trkpt><trkpt lat="37.94835383465409" lon="-4.620420106580087"><ele>154.0</ele><time>2026-04-27T10:57:06Z</time></trkpt><trkpt lat="37.94837465161509" lon="-4.620169398839413"><ele>155.33333333333334</ele><time>2026-04-27T10:57:07Z</time></trkpt><trkpt lat="37.94839873760944" lon="-4.619912294144986"><ele>156.66666666666666</ele><time>2026-04-27T10:57:08Z</time></trkpt><trkpt lat="37.94843320809935" lon="-4.619654283784114"><ele>158.0</ele><time>2026-04-27T10:57:09Z</time></trkpt><trkpt lat="37.94845863280835" lon="-4.619392858653819"><ele>158.66666666666666</ele><time>2026-04-27T10:57:10Z</time></trkpt><trkpt lat="37.94849909040495" lon="-4.619137508918302"><ele>159.33333333333334</ele><time>2026-04-27T10:57:11Z</time></trkpt><trkpt lat="37.94855885229526" lon="-4.618885644932624"><ele>160.0</ele><time>2026-04-27T10:57:12Z</time></trkpt><trkpt lat="37.948621031861286" lon="-4.618630139352347"><ele>160.33333333333334</ele><time>2026-04-27T10:57:13Z</time></trkpt><trkpt lat="37.948683934632164" lon="-4.618381701831951"><ele>160.66666666666666</ele><time>2026-04-27T10:57:14Z</time></trkpt><trkpt lat="37.9487423210953" lon="-4.618165155563942"><ele>161.0</ele><time>2026-04-27T10:57:15Z</time></trkpt><trkpt lat="37.948805411843146" lon="-4.617959088189237"><ele>160.33333333333331</ele><time>2026-04-27T10:57:16.001Z</time></trkpt><trkpt lat="37.948890777941614" lon="-4.617747352135404"><ele>159.66666666666666</ele><time>2026-04-27T10:57:17.001Z</time></trkpt><trkpt lat="37.949000708420876" lon="-4.617541167848232"><ele>159.0</ele><time>2026-04-27T10:57:18.001Z</time></trkpt><trkpt lat="37.949119353440956" lon="-4.617332606152164"><ele>161.0</ele><time>2026-04-27T10:57:19.001Z</time></trkpt><trkpt lat="37.949236237415796" lon="-4.6171144103504025"><ele>163.0</ele><time>2026-04-27T10:57:20.001Z</time></trkpt><trkpt lat="37.94935424305585" lon="-4.616895197000008"><ele>165.0</ele><time>2026-04-27T10:57:21.001Z</time></trkpt><trkpt lat="37.94947288127435" lon="-4.616668046794796"><ele>165.0</ele><time>2026-04-27T10:57:22.001Z</time></trkpt><trkpt lat="37.949594917481456" lon="-4.616437316628746"><ele>165.0</ele><time>2026-04-27T10:57:23.001Z</time></trkpt><trkpt lat="37.949715942353876" lon="-4.616210692547821"><ele>165.0</ele><time>2026-04-27T10:57:24.001Z</time></trkpt><trkpt lat="37.94983472399148" lon="-4.61598656025406"><ele>164.66666666666666</ele><time>2026-04-27T10:57:25.001Z</time></trkpt><trkpt lat="37.94995205536129" lon="-4.615756697647924"><ele>164.33333333333331</ele><time>2026-04-27T10:57:26.001Z</time></trkpt><trkpt lat="37.95006621044672" lon="-4.615529131466221"><ele>164.0</ele><time>2026-04-27T10:57:27.001Z</time></trkpt><trkpt lat="37.95018106700915" lon="-4.6153000944326825"><ele>166.66666666666666</ele><time>2026-04-27T10:57:28.001Z</time></trkpt><trkpt lat="37.95029643282799" lon="-4.615071065699937"><ele>169.33333333333334</ele><time>2026-04-27T10:57:29.001Z</time></trkpt><trkpt lat="37.95041750004536" lon="-4.6148457529979705"><ele>172.0</ele><time>2026-04-27T10:57:30.001Z</time></trkpt><trkpt lat="37.95054846607838" lon="-4.614628648989481"><ele>172.33333333333334</ele><time>2026-04-27T10:57:31.001Z</time></trkpt><trkpt lat="37.95068737547754" lon="-4.614410424082774"><ele>172.66666666666666</ele><time>2026-04-27T10:57:32.001Z</time></trkpt><trkpt lat="37.950823644057685" lon="-4.614205099512229"><ele>173.0</ele><time>2026-04-27T10:57:33.001Z</time></trkpt><trkpt lat="37.95093731116662" lon="-4.614029262914771"><ele>173.33333333333331</ele><time>2026-04-27T10:57:34.001Z</time></trkpt><trkpt lat="37.95103513970083" lon="-4.613884279943643"><ele>173.66666666666666</ele><time>2026-04-27T10:57:35.001Z</time></trkpt><trkpt lat="37.951144629227976" lon="-4.613746388443833"><ele>174.0</ele><time>2026-04-27T10:57:36.001Z</time></trkpt><trkpt lat="37.95128250511617" lon="-4.613622798260571"><ele>174.0</ele><time>2026-04-27T10:57:37.001Z</time></trkpt><trkpt lat="37.951442096574134" lon="-4.613514594229836"><ele>174.0</ele><time>2026-04-27T10:57:38.001Z</time></trkpt><trkpt lat="37.95159294538627" lon="-4.613428767479778"><ele>174.0</ele><time>2026-04-27T10:57:39.001Z</time></trkpt><trkpt lat="37.95172838723819" lon="-4.613346304334538"><ele>175.5</ele><time>2026-04-27T10:57:40.001Z</time></trkpt><trkpt lat="37.95184846801098" lon="-4.613234954305424"><ele>177.0</ele><time>2026-04-27T10:57:41.001Z</time></trkpt><trkpt lat="37.95191096852813" lon="-4.613065281329698"><ele>178.5</ele><time>2026-04-27T10:57:42.001Z</time></trkpt><trkpt lat="37.95200291597359" lon="-4.612924192447001"><ele>180.0</ele><time>2026-04-27T10:57:43.001Z</time></trkpt><trkpt lat="37.952091572586475" lon="-4.612793290842419"><ele>173.33333333333334</ele><time>2026-04-27T10:57:44.001Z</time></trkpt><trkpt lat="37.952229428618494" lon="-4.6126946293980255"><ele>166.66666666666669</ele><time>2026-04-27T10:57:45.001Z</time></trkpt><trkpt lat="37.952393793836826" lon="-4.6126359662175105"><ele>160.0</ele><time>2026-04-27T10:57:46.001Z</time></trkpt><trkpt lat="37.952570657360376" lon="-4.61258840483631"><ele>159.33333333333334</ele><time>2026-04-27T10:57:47.001Z</time></trkpt><trkpt lat="37.952753395686535" lon="-4.612536666634832"><ele>158.66666666666666</ele><time>2026-04-27T10:57:48.001Z</time></trkpt><trkpt lat="37.9529353142256" lon="-4.612506550989955"><ele>158.0</ele><time>2026-04-27T10:57:49.001Z</time></trkpt><trkpt lat="37.95309881150757" lon="-4.612502813657845"><ele>158.0</ele><time>2026-04-27T10:57:50.001Z</time></trkpt><trkpt lat="37.95325235178115" lon="-4.612519413461671"><ele>158.0</ele><time>2026-04-27T10:57:51.001Z</time></trkpt><trkpt lat="37.95339519242269" lon="-4.612560854160536"><ele>158.0</ele><time>2026-04-27T10:57:52.001Z</time></trkpt><trkpt lat="37.95353204905969" lon="-4.612647793515293"><ele>158.0</ele><time>2026-04-27T10:57:53.001Z</time></trkpt><trkpt lat="37.953664232509404" lon="-4.612779562940877"><ele>158.0</ele><time>2026-04-27T10:57:54.001Z</time></trkpt><trkpt lat="37.95378520160966" lon="-4.612922584807053"><ele>158.0</ele><time>2026-04-27T10:57:55.001Z</time></trkpt><trkpt lat="37.95391296765889" lon="-4.6130296703079265"><ele>159.33333333333331</ele><time>2026-04-27T10:57:56.001Z</time></trkpt><trkpt lat="37.95405504593813" lon="-4.613117384732107"><ele>160.66666666666666</ele><time>2026-04-27T10:57:57.001Z</time></trkpt><trkpt lat="37.954217061250695" lon="-4.613161284262813"><ele>162.0</ele><time>2026-04-27T10:57:58.001Z</time></trkpt><trkpt lat="37.954387531508075" lon="-4.613187686479307"><ele>162.0</ele><time>2026-04-27T10:57:59.001Z</time></trkpt><trkpt lat="37.95455409955538" lon="-4.6131966474060775"><ele>162.0</ele><time>2026-04-27T10:58:00.001Z</time></trkpt><trkpt lat="37.954709629874806" lon="-4.6131368318287995"><ele>162.0</ele><time>2026-04-27T10:58:01.001Z</time></trkpt><trkpt lat="37.954819247809326" lon="-4.612997398896816"><ele>162.0</ele><time>2026-04-27T10:58:02.001Z</time></trkpt><trkpt lat="37.95495030357782" lon="-4.612842762502636"><ele>162.0</ele><time>2026-04-27T10:58:03.001Z</time></trkpt><trkpt lat="37.955100240194575" lon="-4.612666718925859"><ele>162.0</ele><time>2026-04-27T10:58:04.001Z</time></trkpt><trkpt lat="37.9552461316959" lon="-4.61249446689825"><ele>164.0</ele><time>2026-04-27T10:58:05.001Z</time></trkpt><trkpt lat="37.955399341807016" lon="-4.61232748994948"><ele>166.0</ele><time>2026-04-27T10:58:06.001Z</time></trkpt><trkpt lat="37.955539537576" lon="-4.612146431951078"><ele>168.0</ele><time>2026-04-27T10:58:07.001Z</time></trkpt><trkpt lat="37.955670617850465" lon="-4.611983766645176"><ele>168.0</ele><time>2026-04-27T10:58:08.001Z</time></trkpt><trkpt lat="37.955789018485675" lon="-4.611827918625683"><ele>168.0</ele><time>2026-04-27T10:58:09Z</time></trkpt><trkpt lat="37.955887625675636" lon="-4.611641019370978"><ele>168.0</ele><time>2026-04-27T10:58:10Z</time></trkpt><trkpt lat="37.95595343413258" lon="-4.611434187696163"><ele>169.0</ele><time>2026-04-27T10:58:11Z</time></trkpt><trkpt lat="37.956002204247426" lon="-4.611256346516586"><ele>170.0</ele><time>2026-04-27T10:58:12Z</time></trkpt><trkpt lat="37.95607682206711" lon="-4.611116301533823"><ele>171.0</ele><time>2026-04-27T10:58:13Z</time></trkpt><trkpt lat="37.95619650662208" lon="-4.611006988209834"><ele>172.0</ele><time>2026-04-27T10:58:14Z</time></trkpt><trkpt lat="37.95634529997349" lon="-4.6109246113765945"><ele>172.66666666666669</ele><time>2026-04-27T10:58:15Z</time></trkpt><trkpt lat="37.95651733561285" lon="-4.610857044299633"><ele>173.33333333333334</ele><time>2026-04-27T10:58:16Z</time></trkpt><trkpt lat="37.956687776292775" lon="-4.6107851070554435"><ele>174.0</ele><time>2026-04-27T10:58:17Z</time></trkpt><trkpt lat="37.95686349830456" lon="-4.6107129553197"><ele>174.0</ele><time>2026-04-27T10:58:18Z</time></trkpt><trkpt lat="37.95703284952926" lon="-4.610639858703054"><ele>174.0</ele><time>2026-04-27T10:58:19Z</time></trkpt><trkpt lat="37.95719595308109" lon="-4.610559080605379"><ele>174.0</ele><time>2026-04-27T10:58:20Z</time></trkpt><trkpt lat="37.95735089458339" lon="-4.610445268441359"><ele>174.0</ele><time>2026-04-27T10:58:21Z</time></trkpt><trkpt lat="37.95749695623859" lon="-4.610336593365467"><ele>174.0</ele><time>2026-04-27T10:58:22Z</time></trkpt><trkpt lat="37.95762865775834" lon="-4.6102346352242884"><ele>174.0</ele><time>2026-04-27T10:58:23Z</time></trkpt><trkpt lat="37.95770670670708" lon="-4.610073103390427"><ele>173.66666666666666</ele><time>2026-04-27T10:58:24Z</time></trkpt><trkpt lat="37.95777176517022" lon="-4.609895472685035"><ele>173.33333333333331</ele><time>2026-04-27T10:58:25Z</time></trkpt><trkpt lat="37.95780971800703" lon="-4.609689467900703"><ele>173.0</ele><time>2026-04-27T10:58:26Z</time></trkpt><trkpt lat="37.95783456177741" lon="-4.609463839345912"><ele>171.33333333333331</ele><time>2026-04-27T10:58:27Z</time></trkpt><trkpt lat="37.95784728886903" lon="-4.6092302221456976"><ele>169.66666666666666</ele><time>2026-04-27T10:58:28Z</time></trkpt><trkpt lat="37.95785578689347" lon="-4.608987519129781"><ele>168.0</ele><time>2026-04-27T10:58:29Z</time></trkpt><trkpt lat="37.957876036145244" lon="-4.608731246152738"><ele>165.66666666666666</ele><time>2026-04-27T10:58:30Z</time></trkpt><trkpt lat="37.957875666676" lon="-4.60847368369448"><ele>163.33333333333331</ele><time>2026-04-27T10:58:31Z</time></trkpt><trkpt lat="37.95787926024383" lon="-4.608222217564007"><ele>161.0</ele><time>2026-04-27T10:58:32Z</time></trkpt><trkpt lat="37.957882062045876" lon="-4.607957453724732"><ele>155.66666666666666</ele><time>2026-04-27T10:58:33Z</time></trkpt><trkpt lat="37.95788703259479" lon="-4.607694135072601"><ele>150.33333333333334</ele><time>2026-04-27T10:58:34Z</time></trkpt><trkpt lat="37.957893344563395" lon="-4.607415561016771"><ele>145.0</ele><time>2026-04-27T10:58:35Z</time></trkpt><trkpt lat="37.957900201709975" lon="-4.60713372895424"><ele>145.66666666666669</ele><time>2026-04-27T10:58:36Z</time></trkpt><trkpt lat="37.95790689973817" lon="-4.606848071586524"><ele>146.33333333333334</ele><time>2026-04-27T10:58:37Z</time></trkpt><trkpt lat="37.95791141306335" lon="-4.606570744172246"><ele>147.0</ele><time>2026-04-27T10:58:38Z</time></trkpt><trkpt lat="37.9579150236886" lon="-4.60629588921958"><ele>146.33333333333334</ele><time>2026-04-27T10:58:39Z</time></trkpt><trkpt lat="37.95792046007899" lon="-4.606017019760264"><ele>145.66666666666669</ele><time>2026-04-27T10:58:40Z</time></trkpt><trkpt lat="37.957925512637225" lon="-4.6057400516594456"><ele>145.0</ele><time>2026-04-27T10:58:41Z</time></trkpt><trkpt lat="37.957933375619064" lon="-4.605460272297063"><ele>145.0</ele><time>2026-04-27T10:58:42Z</time></trkpt><trkpt lat="37.95794035807017" lon="-4.6051792618572644"><ele>145.0</ele><time>2026-04-27T10:58:43Z</time></trkpt><trkpt lat="37.95794586321826" lon="-4.604894479392538"><ele>145.0</ele><time>2026-04-27T10:58:44Z</time></trkpt><trkpt lat="37.95794931026262" lon="-4.604618830742551"><ele>141.0</ele><time>2026-04-27T10:58:45Z</time></trkpt><trkpt lat="37.9579533825328" lon="-4.604338098966673"><ele>137.0</ele><time>2026-04-27T10:58:46Z</time></trkpt><trkpt lat="37.95795798620383" lon="-4.604061297212227"><ele>133.0</ele><time>2026-04-27T10:58:47Z</time></trkpt><trkpt lat="37.95796348511689" lon="-4.603779223651122"><ele>133.5</ele><time>2026-04-27T10:58:48Z</time></trkpt><trkpt lat="37.95796549822158" lon="-4.603494754267087"><ele>134.0</ele><time>2026-04-27T10:58:49Z</time></trkpt><trkpt lat="37.95796773981356" lon="-4.6032086816110525"><ele>134.0</ele><time>2026-04-27T10:58:50Z</time></trkpt><trkpt lat="37.95797084381895" lon="-4.602923326801463"><ele>134.0</ele><time>2026-04-27T10:58:51Z</time></trkpt><trkpt lat="37.95796859184466" lon="-4.602638658926946"><ele>134.0</ele><time>2026-04-27T10:58:52Z</time></trkpt><trkpt lat="37.95795878305104" lon="-4.602353347043088"><ele>136.66666666666666</ele><time>2026-04-27T10:58:53Z</time></trkpt><trkpt lat="37.95794456838007" lon="-4.602069622042712"><ele>139.33333333333334</ele><time>2026-04-27T10:58:54Z</time></trkpt><trkpt lat="37.95793583591818" lon="-4.601790778639045"><ele>142.0</ele><time>2026-04-27T10:58:55Z</time></trkpt><trkpt lat="37.95792566382739" lon="-4.601511621748039"><ele>142.0</ele><time>2026-04-27T10:58:56Z</time></trkpt><trkpt lat="37.9579127641401" lon="-4.601230914600449"><ele>142.0</ele><time>2026-04-27T10:58:57Z</time></trkpt><trkpt lat="37.95790265716531" lon="-4.600943599605053"><ele>142.0</ele><time>2026-04-27T10:58:58Z</time></trkpt><trkpt lat="37.957893191018115" lon="-4.600664820088754"><ele>138.33333333333334</ele><time>2026-04-27T10:58:59Z</time></trkpt><trkpt lat="37.957885937508316" lon="-4.600389624622206"><ele>134.66666666666666</ele><time>2026-04-27T10:59:00Z</time></trkpt><trkpt lat="37.957877760569836" lon="-4.600108015107597"><ele>131.0</ele><time>2026-04-27T10:59:01Z</time></trkpt><trkpt lat="37.957866295182136" lon="-4.59982733402605"><ele>131.66666666666666</ele><time>2026-04-27T10:59:02Z</time></trkpt><trkpt lat="37.9578440273997" lon="-4.5995550535206995"><ele>132.33333333333334</ele><time>2026-04-27T10:59:03Z</time></trkpt><trkpt lat="37.95780043735106" lon="-4.5992831841094315"><ele>133.0</ele><time>2026-04-27T10:59:04Z</time></trkpt><trkpt lat="37.957718054646115" lon="-4.599041605810275"><ele>133.0</ele><time>2026-04-27T10:59:05Z</time></trkpt><trkpt lat="37.95762809201263" lon="-4.5988345595886875"><ele>133.0</ele><time>2026-04-27T10:59:06Z</time></trkpt><trkpt lat="37.957560198743494" lon="-4.598627013906324"><ele>133.0</ele><time>2026-04-27T10:59:07Z</time></trkpt><trkpt lat="37.95752625516968" lon="-4.598395985083967"><ele>133.33333333333334</ele><time>2026-04-27T10:59:08Z</time></trkpt><trkpt lat="37.95751961592999" lon="-4.5981526003196675"><ele>133.66666666666666</ele><time>2026-04-27T10:59:09Z</time></trkpt><trkpt lat="37.95751717419802" lon="-4.597904412309801"><ele>134.0</ele><time>2026-04-27T10:59:10Z</time></trkpt><trkpt lat="37.9575118418532" lon="-4.597651460524383"><ele>135.0</ele><time>2026-04-27T10:59:11Z</time></trkpt><trkpt lat="37.95750659671313" lon="-4.597400750384622"><ele>136.0</ele><time>2026-04-27T10:59:12Z</time></trkpt><trkpt lat="37.95750279010486" lon="-4.597164339312546"><ele>137.0</ele><time>2026-04-27T10:59:13Z</time></trkpt><trkpt lat="37.95750881654109" lon="-4.596943333030595"><ele>137.66666666666666</ele><time>2026-04-27T10:59:14Z</time></trkpt><trkpt lat="37.957520617729664" lon="-4.596753234962876"><ele>138.33333333333334</ele><time>2026-04-27T10:59:15Z</time></trkpt><trkpt lat="37.95755561438413" lon="-4.5965788428754175"><ele>139.0</ele><time>2026-04-27T10:59:16Z</time></trkpt><trkpt lat="37.95762631105137" lon="-4.596399181258602"><ele>140.0</ele><time>2026-04-27T10:59:17Z</time></trkpt><trkpt lat="37.95771866338534" lon="-4.596223142313319"><ele>141.0</ele><time>2026-04-27T10:59:18Z</time></trkpt><trkpt lat="37.957778127250904" lon="-4.596033587970435"><ele>142.0</ele><time>2026-04-27T10:59:19Z</time></trkpt><trkpt lat="37.957786152033556" lon="-4.595839091076316"><ele>142.0</ele><time>2026-04-27T10:59:20Z</time></trkpt><trkpt lat="37.95776864336051" lon="-4.5956138662401855"><ele>142.0</ele><time>2026-04-27T10:59:21Z</time></trkpt><trkpt lat="37.95776031194392" lon="-4.5953761084488525"><ele>142.0</ele><time>2026-04-27T10:59:22Z</time></trkpt><trkpt lat="37.95771139607272" lon="-4.5951362618632965"><ele>141.33333333333334</ele><time>2026-04-27T10:59:23Z</time></trkpt><trkpt lat="37.957678554019125" lon="-4.594892190919512"><ele>140.66666666666666</ele><time>2026-04-27T10:59:24Z</time></trkpt><trkpt lat="37.95762082390163" lon="-4.594652864560283"><ele>140.0</ele><time>2026-04-27T10:59:25Z</time></trkpt><trkpt lat="37.95756597982065" lon="-4.594408652651801"><ele>136.33333333333331</ele><time>2026-04-27T10:59:26Z</time></trkpt><trkpt lat="37.95751494011356" lon="-4.594173246745646"><ele>132.66666666666666</ele><time>2026-04-27T10:59:27Z</time></trkpt><trkpt lat="37.957464852146" lon="-4.593952699948984"><ele>129.0</ele><time>2026-04-27T10:59:28Z</time></trkpt><trkpt lat="37.95742017277295" lon="-4.593757129334988"><ele>128.66666666666666</ele><time>2026-04-27T10:59:29Z</time></trkpt><trkpt lat="37.95738425654455" lon="-4.593571404035703"><ele>128.33333333333331</ele><time>2026-04-27T10:59:30Z</time></trkpt><trkpt lat="37.957377198448434" lon="-4.5933824121241305"><ele>128.0</ele><time>2026-04-27T10:59:31Z</time></trkpt><trkpt lat="37.95740748905942" lon="-4.593179766570057"><ele>128.0</ele><time>2026-04-27T10:59:32Z</time></trkpt><trkpt lat="37.95747290870932" lon="-4.592962812259441"><ele>128.0</ele><time>2026-04-27T10:59:33Z</time></trkpt><trkpt lat="37.957544694142435" lon="-4.592735905274215"><ele>128.0</ele><time>2026-04-27T10:59:34Z</time></trkpt><trkpt lat="37.957609853856454" lon="-4.592513213632008"><ele>128.33333333333331</ele><time>2026-04-27T10:59:35Z</time></trkpt><trkpt lat="37.957672988408774" lon="-4.592295543191567"><ele>128.66666666666666</ele><time>2026-04-27T10:59:36Z</time></trkpt><trkpt lat="37.95772274893818" lon="-4.592084834786251"><ele>129.0</ele><time>2026-04-27T10:59:37Z</time></trkpt><trkpt lat="37.957737371665424" lon="-4.591869968903137"><ele>133.66666666666666</ele><time>2026-04-27T10:59:38Z</time></trkpt><trkpt lat="37.95772537313855" lon="-4.591651119341544"><ele>138.33333333333331</ele><time>2026-04-27T10:59:39Z</time></trkpt><trkpt lat="37.95770943979526" lon="-4.591420932060897"><ele>143.0</ele><time>2026-04-27T10:59:40Z</time></trkpt><trkpt lat="37.9576929120003" lon="-4.591190411302134"><ele>144.33333333333331</ele><time>2026-04-27T10:59:41Z</time></trkpt><trkpt lat="37.95768350395675" lon="-4.590956547809757"><ele>145.66666666666666</ele><time>2026-04-27T10:59:42Z</time></trkpt><trkpt lat="37.95766166091339" lon="-4.590723480078715"><ele>147.0</ele><time>2026-04-27T10:59:43Z</time></trkpt><trkpt lat="37.95763466394546" lon="-4.590489775745676"><ele>146.0</ele><time>2026-04-27T10:59:44Z</time></trkpt><trkpt lat="37.95759526509953" lon="-4.590261580137833"><ele>145.0</ele><time>2026-04-27T10:59:45Z</time></trkpt><trkpt lat="37.95755253250838" lon="-4.590021732361711"><ele>144.0</ele><time>2026-04-27T10:59:46Z</time></trkpt><trkpt lat="37.957512846120444" lon="-4.589781620607405"><ele>142.33333333333334</ele><time>2026-04-27T10:59:47Z</time></trkpt><trkpt lat="37.957470551257074" lon="-4.589534720309694"><ele>140.66666666666669</ele><time>2026-04-27T10:59:48.001Z</time></trkpt><trkpt lat="37.957422883741465" lon="-4.5892908740775304"><ele>139.0</ele><time>2026-04-27T10:59:49.001Z</time></trkpt><trkpt lat="37.957381040409366" lon="-4.589059570878934"><ele>139.0</ele><time>2026-04-27T10:59:50.001Z</time></trkpt><trkpt lat="37.95735835980079" lon="-4.58883754419679"><ele>139.0</ele><time>2026-04-27T10:59:51.001Z</time></trkpt><trkpt lat="37.95735576507008" lon="-4.588621881187858"><ele>139.0</ele><time>2026-04-27T10:59:52.001Z</time></trkpt><trkpt lat="37.95738355133585" lon="-4.588409403633162"><ele>139.0</ele><time>2026-04-27T10:59:53.001Z</time></trkpt><trkpt lat="37.957414878855104" lon="-4.588210548403537"><ele>139.0</ele><time>2026-04-27T10:59:54.001Z</time></trkpt><trkpt lat="37.95741799694136" lon="-4.588021290537046"><ele>139.0</ele><time>2026-04-27T10:59:55.001Z</time></trkpt><trkpt lat="37.9574040465086" lon="-4.5878031234433045"><ele>137.33333333333334</ele><time>2026-04-27T10:59:56.001Z</time></trkpt><trkpt lat="37.9573604687054" lon="-4.58756905700633"><ele>135.66666666666666</ele><time>2026-04-27T10:59:57.001Z</time></trkpt><trkpt lat="37.95731267474402" lon="-4.587333923069209"><ele>134.0</ele><time>2026-04-27T10:59:58.001Z</time></trkpt><trkpt lat="37.957270303345176" lon="-4.587094012547249"><ele>133.33333333333331</ele><time>2026-04-27T10:59:59Z</time></trkpt><trkpt lat="37.95722719139667" lon="-4.586848088353971"><ele>132.66666666666666</ele><time>2026-04-27T11:00:00Z</time></trkpt><trkpt lat="37.95718215431376" lon="-4.5866055172505815"><ele>132.0</ele><time>2026-04-27T11:00:01Z</time></trkpt><trkpt lat="37.95715768342756" lon="-4.586362912673989"><ele>134.33333333333334</ele><time>2026-04-27T11:00:02Z</time></trkpt><trkpt lat="37.95715638615794" lon="-4.586117968442004"><ele>136.66666666666669</ele><time>2026-04-27T11:00:03Z</time></trkpt><trkpt lat="37.95715849598406" lon="-4.585872029049269"><ele>139.0</ele><time>2026-04-27T11:00:04Z</time></trkpt><trkpt lat="37.95715000554626" lon="-4.5856442470159"><ele>139.0</ele><time>2026-04-27T11:00:05Z</time></trkpt><trkpt lat="37.95713109827802" lon="-4.585409710924974"><ele>139.0</ele><time>2026-04-27T11:00:06Z</time></trkpt><trkpt lat="37.95710564638698" lon="-4.585172533001613"><ele>139.0</ele><time>2026-04-27T11:00:07Z</time></trkpt><trkpt lat="37.95707774222003" lon="-4.584924564234654"><ele>139.0</ele><time>2026-04-27T11:00:08Z</time></trkpt><trkpt lat="37.95705203609609" lon="-4.584666776860862"><ele>139.0</ele><time>2026-04-27T11:00:09Z</time></trkpt><trkpt lat="37.95702036393271" lon="-4.584409990034324"><ele>139.0</ele><time>2026-04-27T11:00:10Z</time></trkpt><trkpt lat="37.95697743448027" lon="-4.584159609384907"><ele>139.0</ele><time>2026-04-27T11:00:11Z</time></trkpt><trkpt lat="37.956913960896415" lon="-4.583908041400569"><ele>139.0</ele><time>2026-04-27T11:00:12Z</time></trkpt><trkpt lat="37.95683980275901" lon="-4.583664771061096"><ele>139.0</ele><time>2026-04-27T11:00:13Z</time></trkpt><trkpt lat="37.95676217491838" lon="-4.583446248853403"><ele>138.33333333333334</ele><time>2026-04-27T11:00:14Z</time></trkpt><trkpt lat="37.95669838137363" lon="-4.583261834786105"><ele>137.66666666666666</ele><time>2026-04-27T11:00:15Z</time></trkpt><trkpt lat="37.9566421120155" lon="-4.583061541596943"><ele>137.0</ele><time>2026-04-27T11:00:16Z</time></trkpt><trkpt lat="37.95661452442595" lon="-4.582839114077928"><ele>138.33333333333331</ele><time>2026-04-27T11:00:17Z</time></trkpt><trkpt lat="37.956604813426324" lon="-4.58259652255307"><ele>139.66666666666666</ele><time>2026-04-27T11:00:18Z</time></trkpt><trkpt lat="37.956604778028826" lon="-4.582340808187826"><ele>141.0</ele><time>2026-04-27T11:00:19Z</time></trkpt><trkpt lat="37.956601043617596" lon="-4.582079083203559"><ele>141.66666666666666</ele><time>2026-04-27T11:00:20Z</time></trkpt><trkpt lat="37.95659617932397" lon="-4.581817257993294"><ele>142.33333333333331</ele><time>2026-04-27T11:00:21Z</time></trkpt><trkpt lat="37.95659194186433" lon="-4.581553713865839"><ele>143.0</ele><time>2026-04-27T11:00:22Z</time></trkpt><trkpt lat="37.95658901851737" lon="-4.581312160833296"><ele>143.33333333333331</ele><time>2026-04-27T11:00:23Z</time></trkpt><trkpt lat="37.9565860427039" lon="-4.581097142655235"><ele>143.66666666666666</ele><time>2026-04-27T11:00:24Z</time></trkpt><trkpt lat="37.956588265844424" lon="-4.5808748825473975"><ele>144.0</ele><time>2026-04-27T11:00:25Z</time></trkpt><trkpt lat="37.956597988537375" lon="-4.580642726629419"><ele>144.0</ele><time>2026-04-27T11:00:26Z</time></trkpt><trkpt lat="37.956621529167386" lon="-4.5804012085127725"><ele>144.0</ele><time>2026-04-27T11:00:27Z</time></trkpt><trkpt lat="37.95664832982435" lon="-4.580155371093386"><ele>144.0</ele><time>2026-04-27T11:00:28Z</time></trkpt><trkpt lat="37.95668163034012" lon="-4.579898667408261"><ele>143.66666666666666</ele><time>2026-04-27T11:00:29Z</time></trkpt><trkpt lat="37.95672701004806" lon="-4.5796496158030315"><ele>143.33333333333331</ele><time>2026-04-27T11:00:30Z</time></trkpt><trkpt lat="37.95678638080551" lon="-4.579411759856286"><ele>143.0</ele><time>2026-04-27T11:00:31Z</time></trkpt><trkpt lat="37.95685927090478" lon="-4.57919075116223"><ele>143.0</ele><time>2026-04-27T11:00:32Z</time></trkpt><trkpt lat="37.95692942275441" lon="-4.5789875809270555"><ele>143.0</ele><time>2026-04-27T11:00:33Z</time></trkpt><trkpt lat="37.95699079398467" lon="-4.578783295861693"><ele>143.0</ele><time>2026-04-27T11:00:34Z</time></trkpt><trkpt lat="37.95703404039646" lon="-4.578566895648772"><ele>141.66666666666666</ele><time>2026-04-27T11:00:35Z</time></trkpt><trkpt lat="37.957063735055605" lon="-4.578325709704123"><ele>140.33333333333334</ele><time>2026-04-27T11:00:36Z</time></trkpt><trkpt lat="37.957086212908465" lon="-4.578079437333269"><ele>139.0</ele><time>2026-04-27T11:00:37Z</time></trkpt><trkpt lat="37.957110677916425" lon="-4.577816158162914"><ele>136.66666666666669</ele><time>2026-04-27T11:00:38Z</time></trkpt><trkpt lat="37.95713223484766" lon="-4.577544020212931"><ele>134.33333333333334</ele><time>2026-04-27T11:00:39Z</time></trkpt><trkpt lat="37.95715314204512" lon="-4.57727436860058"><ele>132.0</ele><time>2026-04-27T11:00:40Z</time></trkpt><trkpt lat="37.95717518261596" lon="-4.577011716411662"><ele>132.0</ele><time>2026-04-27T11:00:41Z</time></trkpt><trkpt lat="37.95719974676671" lon="-4.576742975279108"><ele>132.0</ele><time>2026-04-27T11:00:42Z</time></trkpt><trkpt lat="37.957225089907496" lon="-4.576472824300151"><ele>132.0</ele><time>2026-04-27T11:00:43Z</time></trkpt><trkpt lat="37.95724864522721" lon="-4.576195876605838"><ele>133.66666666666666</ele><time>2026-04-27T11:00:44Z</time></trkpt><trkpt lat="37.95727036386805" lon="-4.5759214523809675"><ele>135.33333333333331</ele><time>2026-04-27T11:00:45Z</time></trkpt><trkpt lat="37.95729552092182" lon="-4.575654529915462"><ele>137.0</ele><time>2026-04-27T11:00:46Z</time></trkpt><trkpt lat="37.95732078263875" lon="-4.575386729780806"><ele>137.66666666666666</ele><time>2026-04-27T11:00:47Z</time></trkpt><trkpt lat="37.95734375571533" lon="-4.575121688464108"><ele>138.33333333333334</ele><time>2026-04-27T11:00:48Z</time></trkpt><trkpt lat="37.95736332277275" lon="-4.574850559044269"><ele>139.0</ele><time>2026-04-27T11:00:49Z</time></trkpt><trkpt lat="37.95738424377343" lon="-4.574579451384274"><ele>139.66666666666669</ele><time>2026-04-27T11:00:50Z</time></trkpt><trkpt lat="37.957408064100235" lon="-4.574306186635296"><ele>140.33333333333334</ele><time>2026-04-27T11:00:51Z</time></trkpt><trkpt lat="37.95742895885582" lon="-4.57404054467637"><ele>141.0</ele><time>2026-04-27T11:00:52Z</time></trkpt><trkpt lat="37.95744999819367" lon="-4.573766833842242"><ele>142.0</ele><time>2026-04-27T11:00:53Z</time></trkpt><trkpt lat="37.95746937631051" lon="-4.573494287982556"><ele>143.0</ele><time>2026-04-27T11:00:54Z</time></trkpt><trkpt lat="37.957486523251376" lon="-4.573223084010189"><ele>144.0</ele><time>2026-04-27T11:00:55Z</time></trkpt><trkpt lat="37.95750466992124" lon="-4.572948287072102"><ele>144.33333333333334</ele><time>2026-04-27T11:00:56Z</time></trkpt><trkpt lat="37.95752240262717" lon="-4.572677688782873"><ele>144.66666666666669</ele><time>2026-04-27T11:00:57Z</time></trkpt><trkpt lat="37.957540568782946" lon="-4.572398146137875"><ele>145.0</ele><time>2026-04-27T11:00:58Z</time></trkpt><trkpt lat="37.95756231305427" lon="-4.572115767154664"><ele>144.0</ele><time>2026-04-27T11:00:59Z</time></trkpt><trkpt lat="37.957586460000414" lon="-4.571829679586823"><ele>143.0</ele><time>2026-04-27T11:01:00Z</time></trkpt><trkpt lat="37.95761254460576" lon="-4.571546249776759"><ele>143.0</ele><time>2026-04-27T11:01:01Z</time></trkpt><trkpt lat="37.957635788329966" lon="-4.571256275300859"><ele>143.0</ele><time>2026-04-27T11:01:02Z</time></trkpt><trkpt lat="37.957661236354745" lon="-4.57097766383028"><ele>144.0</ele><time>2026-04-27T11:01:03Z</time></trkpt><trkpt lat="37.95768383073469" lon="-4.570698977092129"><ele>145.0</ele><time>2026-04-27T11:01:04Z</time></trkpt><trkpt lat="37.95770081819045" lon="-4.570419905617025"><ele>146.0</ele><time>2026-04-27T11:01:05Z</time></trkpt><trkpt lat="37.95772095830571" lon="-4.5701420320727015"><ele>146.0</ele><time>2026-04-27T11:01:06Z</time></trkpt><trkpt lat="37.957736173364275" lon="-4.5698682901629235"><ele>146.0</ele><time>2026-04-27T11:01:07Z</time></trkpt><trkpt lat="37.95774958558503" lon="-4.569594394840958"><ele>146.0</ele><time>2026-04-27T11:01:08Z</time></trkpt><trkpt lat="37.957761205254876" lon="-4.569324752196892"><ele>146.0</ele><time>2026-04-27T11:01:09Z</time></trkpt><trkpt lat="37.957770250915885" lon="-4.569056493273969"><ele>146.0</ele><time>2026-04-27T11:01:10Z</time></trkpt><trkpt lat="37.957776765076396" lon="-4.568791488314182"><ele>146.0</ele><time>2026-04-27T11:01:11Z</time></trkpt><trkpt lat="37.957783941860704" lon="-4.568527495015066"><ele>145.0</ele><time>2026-04-27T11:01:12Z</time></trkpt><trkpt lat="37.95779467926498" lon="-4.568259792924394"><ele>144.0</ele><time>2026-04-27T11:01:13Z</time></trkpt><trkpt lat="37.95780527040102" lon="-4.567988053551113"><ele>143.0</ele><time>2026-04-27T11:01:14Z</time></trkpt><trkpt lat="37.95781442014197" lon="-4.567714258162323"><ele>142.66666666666666</ele><time>2026-04-27T11:01:15Z</time></trkpt><trkpt lat="37.957821237915695" lon="-4.567434086797274"><ele>142.33333333333334</ele><time>2026-04-27T11:01:16Z</time></trkpt><trkpt lat="37.95782834099992" lon="-4.567153724375798"><ele>142.0</ele><time>2026-04-27T11:01:17Z</time></trkpt><trkpt lat="37.95783548304474" lon="-4.566870077860711"><ele>142.0</ele><time>2026-04-27T11:01:18Z</time></trkpt><trkpt lat="37.95784141611995" lon="-4.566585321589278"><ele>142.0</ele><time>2026-04-27T11:01:19Z</time></trkpt><trkpt lat="37.957844153533706" lon="-4.566294195627532"><ele>142.0</ele><time>2026-04-27T11:01:20Z</time></trkpt><trkpt lat="37.95784581650662" lon="-4.566005498711031"><ele>142.0</ele><time>2026-04-27T11:01:21Z</time></trkpt><trkpt lat="37.95784610206588" lon="-4.565716389957227"><ele>142.0</ele><time>2026-04-27T11:01:22Z</time></trkpt><trkpt lat="37.95784478182842" lon="-4.565432122878352"><ele>142.0</ele><time>2026-04-27T11:01:23Z</time></trkpt><trkpt lat="37.957841018070276" lon="-4.565150461950134"><ele>142.0</ele><time>2026-04-27T11:01:24Z</time></trkpt><trkpt lat="37.95783850611014" lon="-4.564861718024354"><ele>142.0</ele><time>2026-04-27T11:01:25Z</time></trkpt><trkpt lat="37.957832387383036" lon="-4.56457257301566"><ele>142.0</ele><time>2026-04-27T11:01:26Z</time></trkpt><trkpt lat="37.957825477362526" lon="-4.56429070991436"><ele>142.0</ele><time>2026-04-27T11:01:27Z</time></trkpt><trkpt lat="37.95782267809609" lon="-4.564003009968489"><ele>142.0</ele><time>2026-04-27T11:01:28Z</time></trkpt><trkpt lat="37.95782032251062" lon="-4.563716854099538"><ele>142.0</ele><time>2026-04-27T11:01:29Z</time></trkpt><trkpt lat="37.95781756331352" lon="-4.563427404553152"><ele>142.0</ele><time>2026-04-27T11:01:30Z</time></trkpt><trkpt lat="37.95781348704469" lon="-4.563136544893533"><ele>143.0</ele><time>2026-04-27T11:01:31Z</time></trkpt><trkpt lat="37.95781278547827" lon="-4.56284819938166"><ele>144.0</ele><time>2026-04-27T11:01:32Z</time></trkpt><trkpt lat="37.957811816522785" lon="-4.562556577302909"><ele>144.0</ele><time>2026-04-27T11:01:33Z</time></trkpt><trkpt lat="37.95781550848146" lon="-4.5622741323883576"><ele>144.0</ele><time>2026-04-27T11:01:34Z</time></trkpt><trkpt lat="37.957816063013304" lon="-4.561993726282011"><ele>144.0</ele><time>2026-04-27T11:01:35Z</time></trkpt><trkpt lat="37.95781637833955" lon="-4.561712525148944"><ele>144.33333333333334</ele><time>2026-04-27T11:01:36Z</time></trkpt><trkpt lat="37.95780726032543" lon="-4.5614346961949055"><ele>144.66666666666669</ele><time>2026-04-27T11:01:37Z</time></trkpt><trkpt lat="37.95779292968927" lon="-4.561154614826673"><ele>145.0</ele><time>2026-04-27T11:01:38Z</time></trkpt><trkpt lat="37.95778684483682" lon="-4.560875748725715"><ele>145.0</ele><time>2026-04-27T11:01:39Z</time></trkpt><trkpt lat="37.95778689631892" lon="-4.560591700398201"><ele>145.0</ele><time>2026-04-27T11:01:40Z</time></trkpt><trkpt lat="37.957788042156054" lon="-4.560308892866589"><ele>145.0</ele><time>2026-04-27T11:01:41Z</time></trkpt><trkpt lat="37.95778684046839" lon="-4.560021042772723"><ele>145.0</ele><time>2026-04-27T11:01:42Z</time></trkpt><trkpt lat="37.95778572797665" lon="-4.559726357448872"><ele>145.0</ele><time>2026-04-27T11:01:43Z</time></trkpt><trkpt lat="37.95778196691466" lon="-4.559431945120952"><ele>144.5</ele><time>2026-04-27T11:01:44Z</time></trkpt><trkpt lat="37.957779121070764" lon="-4.559135413947095"><ele>144.0</ele><time>2026-04-27T11:01:45Z</time></trkpt><trkpt lat="37.9577756252298" lon="-4.558836499824871"><ele>144.0</ele><time>2026-04-27T11:01:46Z</time></trkpt><trkpt lat="37.95777052749932" lon="-4.558543010577181"><ele>144.0</ele><time>2026-04-27T11:01:47Z</time></trkpt><trkpt lat="37.95776706081987" lon="-4.5582506019728415"><ele>144.0</ele><time>2026-04-27T11:01:48Z</time></trkpt><trkpt lat="37.957763667759835" lon="-4.557960377049983"><ele>144.0</ele><time>2026-04-27T11:01:49Z</time></trkpt><trkpt lat="37.9577574877417" lon="-4.557676264144474"><ele>144.33333333333334</ele><time>2026-04-27T11:01:50Z</time></trkpt><trkpt lat="37.957752159462416" lon="-4.557394890503314"><ele>144.66666666666669</ele><time>2026-04-27T11:01:51Z</time></trkpt><trkpt lat="37.957748092543525" lon="-4.557109700669775"><ele>145.0</ele><time>2026-04-27T11:01:52Z</time></trkpt><trkpt lat="37.95774550458631" lon="-4.556828261908034"><ele>145.5</ele><time>2026-04-27T11:01:53Z</time></trkpt><trkpt lat="37.95773892071444" lon="-4.556540013702776"><ele>146.0</ele><time>2026-04-27T11:01:54Z</time></trkpt><trkpt lat="37.95773201954066" lon="-4.556252516352512"><ele>146.0</ele><time>2026-04-27T11:01:55Z</time></trkpt><trkpt lat="37.95773277905375" lon="-4.555971072293451"><ele>146.0</ele><time>2026-04-27T11:01:56Z</time></trkpt><trkpt lat="37.95773180798404" lon="-4.555689584523095"><ele>146.0</ele><time>2026-04-27T11:01:57Z</time></trkpt><trkpt lat="37.95772721942708" lon="-4.555408711784795"><ele>145.66666666666666</ele><time>2026-04-27T11:01:58Z</time></trkpt><trkpt lat="37.9577229529489" lon="-4.555130041170226"><ele>145.33333333333334</ele><time>2026-04-27T11:01:59Z</time></trkpt><trkpt lat="37.95772028126111" lon="-4.554857871543943"><ele>145.0</ele><time>2026-04-27T11:02:00Z</time></trkpt><trkpt lat="37.95771663577503" lon="-4.554575653363344"><ele>144.33333333333334</ele><time>2026-04-27T11:02:01Z</time></trkpt><trkpt lat="37.957714220120835" lon="-4.554291301495483"><ele>143.66666666666666</ele><time>2026-04-27T11:02:02Z</time></trkpt><trkpt lat="37.95771189620808" lon="-4.554014210636145"><ele>143.0</ele><time>2026-04-27T11:02:03Z</time></trkpt><trkpt lat="37.95771564882818" lon="-4.55374323756596"><ele>142.0</ele><time>2026-04-27T11:02:04Z</time></trkpt><trkpt lat="37.95772576505482" lon="-4.553475176032275"><ele>141.0</ele><time>2026-04-27T11:02:05Z</time></trkpt><trkpt lat="37.957726131886375" lon="-4.553206018495068"><ele>140.0</ele><time>2026-04-27T11:02:06Z</time></trkpt><trkpt lat="37.95772365026142" lon="-4.552942767670521"><ele>139.66666666666666</ele><time>2026-04-27T11:02:07Z</time></trkpt><trkpt lat="37.95772965951951" lon="-4.5526806621967335"><ele>139.33333333333334</ele><time>2026-04-27T11:02:08Z</time></trkpt><trkpt lat="37.957736827218376" lon="-4.552426081957362"><ele>139.0</ele><time>2026-04-27T11:02:09Z</time></trkpt><trkpt lat="37.95775613354616" lon="-4.552165713933999"><ele>138.33333333333334</ele><time>2026-04-27T11:02:10Z</time></trkpt><trkpt lat="37.957780804453506" lon="-4.55190671626655"><ele>137.66666666666666</ele><time>2026-04-27T11:02:11Z</time></trkpt><trkpt lat="37.957811125947266" lon="-4.551649659079859"><ele>137.0</ele><time>2026-04-27T11:02:12Z</time></trkpt><trkpt lat="37.95785533274241" lon="-4.551392188523102"><ele>135.0</ele><time>2026-04-27T11:02:13Z</time></trkpt><trkpt lat="37.95790992485685" lon="-4.551139285538326"><ele>133.0</ele><time>2026-04-27T11:02:14Z</time></trkpt><trkpt lat="37.95796750085462" lon="-4.550896283736423"><ele>131.0</ele><time>2026-04-27T11:02:15Z</time></trkpt><trkpt lat="37.95802249303157" lon="-4.550669790057819"><ele>131.0</ele><time>2026-04-27T11:02:16Z</time></trkpt><trkpt lat="37.958080522563336" lon="-4.550469220273643"><ele>131.0</ele><time>2026-04-27T11:02:17Z</time></trkpt><trkpt lat="37.95814155812247" lon="-4.550288381052636"><ele>131.0</ele><time>2026-04-27T11:02:18Z</time></trkpt><trkpt lat="37.95819817743728" lon="-4.550137606124709"><ele>131.2</ele><time>2026-04-27T11:02:19Z</time></trkpt><trkpt lat="37.95825412473885" lon="-4.550001812455262"><ele>131.39999999999998</ele><time>2026-04-27T11:02:20Z</time></trkpt><trkpt lat="37.95831251818304" lon="-4.549884194975907"><ele>131.6</ele><time>2026-04-27T11:02:21Z</time></trkpt><trkpt lat="37.9583716697163" lon="-4.549793512371395"><ele>131.79999999999998</ele><time>2026-04-27T11:02:22Z</time></trkpt><trkpt lat="37.95842208061441" lon="-4.5497116722955235"><ele>132.0</ele><time>2026-04-27T11:02:23Z</time></trkpt><trkpt lat="37.95846190716418" lon="-4.549632841878064"><ele>132.2</ele><time>2026-04-27T11:02:24Z</time></trkpt><trkpt lat="37.95846318781486" lon="-4.549500915115753"><ele>132.39999999999998</ele><time>2026-04-27T11:02:26Z</time></trkpt><trkpt lat="37.95837013529163" lon="-4.54937973857028"><ele>132.60000000000002</ele><time>2026-04-27T11:02:28Z</time></trkpt><trkpt lat="37.958286811214776" lon="-4.5493483899451075"><ele>132.8</ele><time>2026-04-27T11:02:29Z</time></trkpt><trkpt lat="37.95819519516529" lon="-4.549326073791979"><ele>133.0</ele><time>2026-04-27T11:02:30Z</time></trkpt><trkpt lat="37.95809794224082" lon="-4.549298745517005"><ele>131.8</ele><time>2026-04-27T11:02:31Z</time></trkpt><trkpt lat="37.95799055909226" lon="-4.5492541635104375"><ele>130.60000000000002</ele><time>2026-04-27T11:02:32Z</time></trkpt><trkpt lat="37.957904257162696" lon="-4.549201518325106"><ele>129.39999999999998</ele><time>2026-04-27T11:02:33Z</time></trkpt><trkpt lat="37.95782967024734" lon="-4.549147433065992"><ele>128.2</ele><time>2026-04-27T11:02:34Z</time></trkpt><trkpt lat="37.95774193139423" lon="-4.54908075530796"><ele>127.0</ele><time>2026-04-27T11:02:35Z</time></trkpt><trkpt lat="37.957647572663475" lon="-4.549008550481834"><ele>127.0</ele><time>2026-04-27T11:02:36Z</time></trkpt><trkpt lat="37.95755124530198" lon="-4.548933686713774"><ele>126.99999999999999</ele><time>2026-04-27T11:02:37Z</time></trkpt><trkpt lat="37.95745801906676" lon="-4.548863419125211"><ele>126.99999999999999</ele><time>2026-04-27T11:02:38Z</time></trkpt><trkpt lat="37.957367691740835" lon="-4.548788624077027"><ele>127.0</ele><time>2026-04-27T11:02:39Z</time></trkpt><trkpt lat="37.957290221220006" lon="-4.54869713204488"><ele>127.0</ele><time>2026-04-27T11:02:40Z</time></trkpt><trkpt lat="37.95723212716132" lon="-4.54860425161631"><ele>127.00000000000001</ele><time>2026-04-27T11:02:41Z</time></trkpt><trkpt lat="37.95719579313533" lon="-4.548519970018734"><ele>127.0</ele><time>2026-04-27T11:02:42Z</time></trkpt><trkpt lat="37.95717209049904" lon="-4.548428139438092"><ele>127.0</ele><time>2026-04-27T11:02:43Z</time></trkpt><trkpt lat="37.95714960558338" lon="-4.548343462733759"><ele>127.0</ele><time>2026-04-27T11:02:44Z</time></trkpt><trkpt lat="37.95712840412043" lon="-4.548242482798063"><ele>127.00000000000001</ele><time>2026-04-27T11:02:45Z</time></trkpt><trkpt lat="37.9571141663331" lon="-4.548131357709987"><ele>127.0</ele><time>2026-04-27T11:02:46Z</time></trkpt><trkpt lat="37.9571199235278" lon="-4.548020506728042"><ele>127.00000000000001</ele><time>2026-04-27T11:02:47Z</time></trkpt><trkpt lat="37.957141829418276" lon="-4.54792166584538"><ele>127.0</ele><time>2026-04-27T11:02:48Z</time></trkpt><trkpt lat="37.95715448938688" lon="-4.547829265244405"><ele>127.0</ele><time>2026-04-27T11:02:49Z</time></trkpt><trkpt lat="37.95714535785695" lon="-4.54772364574473"><ele>127.0</ele><time>2026-04-27T11:02:50Z</time></trkpt><trkpt lat="37.95710752597901" lon="-4.547623592638645"><ele>127.00000000000001</ele><time>2026-04-27T11:02:51Z</time></trkpt><trkpt lat="37.957037133345736" lon="-4.547535558945676"><ele>127.0</ele><time>2026-04-27T11:02:52Z</time></trkpt><trkpt lat="37.95694983417233" lon="-4.547455498013464"><ele>126.75</ele><time>2026-04-27T11:02:53Z</time></trkpt><trkpt lat="37.95685839923327" lon="-4.5473613203693946"><ele>126.5</ele><time>2026-04-27T11:02:54Z</time></trkpt><trkpt lat="37.956761269828334" lon="-4.547254658523458"><ele>126.25</ele><time>2026-04-27T11:02:55Z</time></trkpt><trkpt lat="37.9566607329545" lon="-4.5471409227608195"><ele>126.0</ele><time>2026-04-27T11:02:56Z</time></trkpt><trkpt lat="37.95654717325967" lon="-4.547019078841342"><ele>125.25</ele><time>2026-04-27T11:02:57Z</time></trkpt><trkpt lat="37.95643852950407" lon="-4.546894792077284"><ele>124.5</ele><time>2026-04-27T11:02:58Z</time></trkpt><trkpt lat="37.956331995494196" lon="-4.546775467841465"><ele>123.75</ele><time>2026-04-27T11:02:59Z</time></trkpt><trkpt lat="37.95623412684526" lon="-4.546657032240106"><ele>123.0</ele><time>2026-04-27T11:03:00Z</time></trkpt><trkpt lat="37.95612489004103" lon="-4.54652994584712"><ele>123.0</ele><time>2026-04-27T11:03:01Z</time></trkpt><trkpt lat="37.956008862056144" lon="-4.546402904459365"><ele>123.0</ele><time>2026-04-27T11:03:02Z</time></trkpt><trkpt lat="37.95589177969106" lon="-4.546264640711808"><ele>123.0</ele><time>2026-04-27T11:03:03Z</time></trkpt><trkpt lat="37.95576874293029" lon="-4.546125469705396"><ele>123.0</ele><time>2026-04-27T11:03:04Z</time></trkpt><trkpt lat="37.95564485211541" lon="-4.545979040249844"><ele>123.0</ele><time>2026-04-27T11:03:05Z</time></trkpt><trkpt lat="37.95552358193121" lon="-4.545838201035552"><ele>123.0</ele><time>2026-04-27T11:03:06Z</time></trkpt><trkpt lat="37.95539720467573" lon="-4.545688863532106"><ele>123.0</ele><time>2026-04-27T11:03:07Z</time></trkpt><trkpt lat="37.955271957145044" lon="-4.5455449233253304"><ele>123.0</ele><time>2026-04-27T11:03:08Z</time></trkpt><trkpt lat="37.95515897480263" lon="-4.5454188743438015"><ele>123.0</ele><time>2026-04-27T11:03:09Z</time></trkpt><trkpt lat="37.95504970335948" lon="-4.545294665653666"><ele>123.33333333333334</ele><time>2026-04-27T11:03:10Z</time></trkpt><trkpt lat="37.9549307461402" lon="-4.5451892741896955"><ele>123.66666666666667</ele><time>2026-04-27T11:03:11Z</time></trkpt><trkpt lat="37.9547927092145" lon="-4.545093668795708"><ele>124.0</ele><time>2026-04-27T11:03:12Z</time></trkpt><trkpt lat="37.954639968988786" lon="-4.545013793534236"><ele>124.0</ele><time>2026-04-27T11:03:13Z</time></trkpt><trkpt lat="37.95448114342863" lon="-4.544949810841906"><ele>124.0</ele><time>2026-04-27T11:03:14Z</time></trkpt><trkpt lat="37.95431731254721" lon="-4.544897624862599"><ele>124.0</ele><time>2026-04-27T11:03:15Z</time></trkpt><trkpt lat="37.95413890343185" lon="-4.544884183253459"><ele>123.66666666666667</ele><time>2026-04-27T11:03:16Z</time></trkpt><trkpt lat="37.95395745344411" lon="-4.5448872609643205"><ele>123.33333333333334</ele><time>2026-04-27T11:03:17Z</time></trkpt><trkpt lat="37.95377581061143" lon="-4.544908724253624"><ele>123.0</ele><time>2026-04-27T11:03:18Z</time></trkpt><trkpt lat="37.95359106440537" lon="-4.544931308082044"><ele>123.0</ele><time>2026-04-27T11:03:19Z</time></trkpt><trkpt lat="37.953396607762414" lon="-4.544965921649764"><ele>123.0</ele><time>2026-04-27T11:03:20Z</time></trkpt><trkpt lat="37.95319440260479" lon="-4.544996850306167"><ele>123.0</ele><time>2026-04-27T11:03:21Z</time></trkpt><trkpt lat="37.95299152009596" lon="-4.545026025264161"><ele>122.66666666666666</ele><time>2026-04-27T11:03:22Z</time></trkpt><trkpt lat="37.95278852287387" lon="-4.545057672897904"><ele>122.33333333333333</ele><time>2026-04-27T11:03:23Z</time></trkpt><trkpt lat="37.9525887227342" lon="-4.545088237580697"><ele>122.0</ele><time>2026-04-27T11:03:24Z</time></trkpt><trkpt lat="37.95238595545289" lon="-4.545114312835587"><ele>122.0</ele><time>2026-04-27T11:03:25Z</time></trkpt><trkpt lat="37.95218306436932" lon="-4.545140257435393"><ele>122.0</ele><time>2026-04-27T11:03:26Z</time></trkpt><trkpt lat="37.95198681040403" lon="-4.5451665562922345"><ele>122.0</ele><time>2026-04-27T11:03:27Z</time></trkpt><trkpt lat="37.95179069238004" lon="-4.545194486402258"><ele>122.66666666666666</ele><time>2026-04-27T11:03:28Z</time></trkpt><trkpt lat="37.95159672643757" lon="-4.545225392754721"><ele>123.33333333333334</ele><time>2026-04-27T11:03:29Z</time></trkpt><trkpt lat="37.9514046239748" lon="-4.54525649041384"><ele>124.0</ele><time>2026-04-27T11:03:30Z</time></trkpt><trkpt lat="37.95121882023032" lon="-4.545279766089558"><ele>124.0</ele><time>2026-04-27T11:03:31Z</time></trkpt><trkpt lat="37.95103189006648" lon="-4.54529215408564"><ele>124.0</ele><time>2026-04-27T11:03:32Z</time></trkpt><trkpt lat="37.950848290367254" lon="-4.545286216190083"><ele>124.0</ele><time>2026-04-27T11:03:33Z</time></trkpt><trkpt lat="37.95066426426916" lon="-4.545244616236834"><ele>124.0</ele><time>2026-04-27T11:03:34Z</time></trkpt><trkpt lat="37.950486192289205" lon="-4.54515992119833"><ele>124.0</ele><time>2026-04-27T11:03:35Z</time></trkpt><trkpt lat="37.95031466665754" lon="-4.545041622268411"><ele>124.0</ele><time>2026-04-27T11:03:36Z</time></trkpt><trkpt lat="37.95014537677869" lon="-4.544914706787132"><ele>122.33333333333334</ele><time>2026-04-27T11:03:37Z</time></trkpt><trkpt lat="37.94996756517988" lon="-4.544800373997675"><ele>120.66666666666666</ele><time>2026-04-27T11:03:38Z</time></trkpt><trkpt lat="37.94978085237222" lon="-4.544697306897189"><ele>119.0</ele><time>2026-04-27T11:03:39Z</time></trkpt><trkpt lat="37.94959970237832" lon="-4.544589731939184"><ele>119.33333333333333</ele><time>2026-04-27T11:03:40Z</time></trkpt><trkpt lat="37.94942538499616" lon="-4.544484372548503"><ele>119.66666666666666</ele><time>2026-04-27T11:03:41Z</time></trkpt><trkpt lat="37.94926036350435" lon="-4.544384885483352"><ele>120.0</ele><time>2026-04-27T11:03:42Z</time></trkpt><trkpt lat="37.94909036065733" lon="-4.544285565113077"><ele>123.33333333333334</ele><time>2026-04-27T11:03:43Z</time></trkpt><trkpt lat="37.94892189009513" lon="-4.544196354958801"><ele>126.66666666666667</ele><time>2026-04-27T11:03:44Z</time></trkpt><trkpt lat="37.94874872346001" lon="-4.544118308624452"><ele>130.0</ele><time>2026-04-27T11:03:45Z</time></trkpt><trkpt lat="37.94858541286812" lon="-4.544066269917723"><ele>130.0</ele><time>2026-04-27T11:03:46Z</time></trkpt><trkpt lat="37.94843286322136" lon="-4.5440572206153815"><ele>130.0</ele><time>2026-04-27T11:03:47Z</time></trkpt><trkpt lat="37.94829057457502" lon="-4.544093012352384"><ele>130.0</ele><time>2026-04-27T11:03:48Z</time></trkpt><trkpt lat="37.948169637040245" lon="-4.5441568997912345"><ele>130.0</ele><time>2026-04-27T11:03:49Z</time></trkpt><trkpt lat="37.94807291604744" lon="-4.5442300079241535"><ele>131.0</ele><time>2026-04-27T11:03:50Z</time></trkpt><trkpt lat="37.94799680909689" lon="-4.544295425326076"><ele>132.0</ele><time>2026-04-27T11:03:51Z</time></trkpt><trkpt lat="37.94791679333331" lon="-4.544373326674218"><ele>133.0</ele><time>2026-04-27T11:03:52Z</time></trkpt><trkpt lat="37.94783748976807" lon="-4.544490955221916"><ele>134.0</ele><time>2026-04-27T11:03:53Z</time></trkpt><trkpt lat="37.94776891498334" lon="-4.544647202888758"><ele>134.0</ele><time>2026-04-27T11:03:54Z</time></trkpt><trkpt lat="37.94770533408941" lon="-4.5448225297538105"><ele>134.0</ele><time>2026-04-27T11:03:55Z</time></trkpt><trkpt lat="37.94764035323014" lon="-4.545007381235947"><ele>134.0</ele><time>2026-04-27T11:03:56Z</time></trkpt><trkpt lat="37.94756727096606" lon="-4.54519791499785"><ele>134.0</ele><time>2026-04-27T11:03:57Z</time></trkpt><trkpt lat="37.947490819585845" lon="-4.545396892040018"><ele>134.0</ele><time>2026-04-27T11:03:58Z</time></trkpt><trkpt lat="37.94741802952445" lon="-4.545592511446079"><ele>134.0</ele><time>2026-04-27T11:03:59Z</time></trkpt><trkpt lat="37.94734283125945" lon="-4.545781152293153"><ele>134.0</ele><time>2026-04-27T11:04:00Z</time></trkpt><trkpt lat="37.94727469160079" lon="-4.5459508784570115"><ele>134.0</ele><time>2026-04-27T11:04:01Z</time></trkpt><trkpt lat="37.94720730997536" lon="-4.546114067007524"><ele>134.0</ele><time>2026-04-27T11:04:02Z</time></trkpt><trkpt lat="37.94713594403234" lon="-4.546270963042204"><ele>134.0</ele><time>2026-04-27T11:04:03Z</time></trkpt><trkpt lat="37.94704544664196" lon="-4.546412123163402"><ele>133.25</ele><time>2026-04-27T11:04:04Z</time></trkpt><trkpt lat="37.94694164950418" lon="-4.546536880150502"><ele>132.5</ele><time>2026-04-27T11:04:05Z</time></trkpt><trkpt lat="37.94681922436449" lon="-4.546639521949636"><ele>131.75</ele><time>2026-04-27T11:04:06Z</time></trkpt><trkpt lat="37.946710103773974" lon="-4.546756484425681"><ele>131.0</ele><time>2026-04-27T11:04:07Z</time></trkpt><trkpt lat="37.946533044403814" lon="-4.546747228728944"><ele>133.25</ele><time>2026-04-27T11:04:08Z</time></trkpt><trkpt lat="37.9463914823164" lon="-4.546757848552897"><ele>135.5</ele><time>2026-04-27T11:04:09Z</time></trkpt><trkpt lat="37.94625523366797" lon="-4.5467440662196115"><ele>137.75</ele><time>2026-04-27T11:04:10Z</time></trkpt><trkpt lat="37.94612109825053" lon="-4.546698146282957"><ele>140.0</ele><time>2026-04-27T11:04:11Z</time></trkpt><trkpt lat="37.945994435847375" lon="-4.54661679133359"><ele>140.0</ele><time>2026-04-27T11:04:12Z</time></trkpt><trkpt lat="37.94587868874815" lon="-4.546511116413691"><ele>140.0</ele><time>2026-04-27T11:04:13Z</time></trkpt><trkpt lat="37.945777987787146" lon="-4.546393859570243"><ele>140.0</ele><time>2026-04-27T11:04:14Z</time></trkpt><trkpt lat="37.94569868340723" lon="-4.546258799337072"><ele>140.0</ele><time>2026-04-27T11:04:15Z</time></trkpt><trkpt lat="37.945633316445466" lon="-4.5461055381714335"><ele>140.66666666666666</ele><time>2026-04-27T11:04:16Z</time></trkpt><trkpt lat="37.945594782757" lon="-4.545930360170504"><ele>141.33333333333334</ele><time>2026-04-27T11:04:17Z</time></trkpt><trkpt lat="37.94557582259365" lon="-4.545741054328883"><ele>142.0</ele><time>2026-04-27T11:04:18Z</time></trkpt><trkpt lat="37.94555994767928" lon="-4.545540364527375"><ele>142.0</ele><time>2026-04-27T11:04:19Z</time></trkpt><trkpt lat="37.945537006016" lon="-4.5453335411385964"><ele>142.0</ele><time>2026-04-27T11:04:20Z</time></trkpt><trkpt lat="37.94551232624197" lon="-4.54511515271434"><ele>142.0</ele><time>2026-04-27T11:04:21Z</time></trkpt><trkpt lat="37.94548935031862" lon="-4.544889080700143"><ele>142.0</ele><time>2026-04-27T11:04:22Z</time></trkpt><trkpt lat="37.94547585168021" lon="-4.544659592656465"><ele>142.0</ele><time>2026-04-27T11:04:23Z</time></trkpt><trkpt lat="37.94546818620384" lon="-4.544422566391637"><ele>142.0</ele><time>2026-04-27T11:04:24Z</time></trkpt><trkpt lat="37.945478235946204" lon="-4.544188659346031"><ele>143.66666666666669</ele><time>2026-04-27T11:04:25Z</time></trkpt><trkpt lat="37.94550113725972" lon="-4.543946557588853"><ele>145.33333333333334</ele><time>2026-04-27T11:04:26Z</time></trkpt><trkpt lat="37.94553830715979" lon="-4.543713727284998"><ele>147.0</ele><time>2026-04-27T11:04:27Z</time></trkpt><trkpt lat="37.94559046965072" lon="-4.5434821149595646"><ele>147.66666666666666</ele><time>2026-04-27T11:04:28Z</time></trkpt><trkpt lat="37.94565396695787" lon="-4.543244945866501"><ele>148.33333333333331</ele><time>2026-04-27T11:04:29Z</time></trkpt><trkpt lat="37.94572631935904" lon="-4.543003413648241"><ele>149.0</ele><time>2026-04-27T11:04:30Z</time></trkpt><trkpt lat="37.94580146942776" lon="-4.542765205281241"><ele>147.33333333333331</ele><time>2026-04-27T11:04:31Z</time></trkpt><trkpt lat="37.9458812854099" lon="-4.542520115195433"><ele>145.66666666666666</ele><time>2026-04-27T11:04:32Z</time></trkpt><trkpt lat="37.94596019101903" lon="-4.542275765833327"><ele>144.0</ele><time>2026-04-27T11:04:33Z</time></trkpt><trkpt lat="37.94603599161639" lon="-4.542027312917986"><ele>144.0</ele><time>2026-04-27T11:04:34Z</time></trkpt><trkpt lat="37.946111514916225" lon="-4.541787004903083"><ele>144.0</ele><time>2026-04-27T11:04:35Z</time></trkpt><trkpt lat="37.94618824874393" lon="-4.541547263475216"><ele>144.0</ele><time>2026-04-27T11:04:36Z</time></trkpt><trkpt lat="37.94626664175091" lon="-4.541312785942185"><ele>143.33333333333334</ele><time>2026-04-27T11:04:37Z</time></trkpt><trkpt lat="37.946344225894045" lon="-4.541078589361087"><ele>142.66666666666669</ele><time>2026-04-27T11:04:38Z</time></trkpt><trkpt lat="37.9464222091087" lon="-4.540843757320969"><ele>142.0</ele><time>2026-04-27T11:04:39Z</time></trkpt><trkpt lat="37.9465054340831" lon="-4.54060985718903"><ele>142.33333333333334</ele><time>2026-04-27T11:04:40Z</time></trkpt><trkpt lat="37.94659570429414" lon="-4.540377645241689"><ele>142.66666666666666</ele><time>2026-04-27T11:04:41Z</time></trkpt><trkpt lat="37.9466930793717" lon="-4.54014777935462"><ele>143.0</ele><time>2026-04-27T11:04:42Z</time></trkpt><trkpt lat="37.94679645090345" lon="-4.539912335342977"><ele>143.0</ele><time>2026-04-27T11:04:43Z</time></trkpt><trkpt lat="37.94689940531635" lon="-4.53967101573153"><ele>143.0</ele><time>2026-04-27T11:04:44Z</time></trkpt><trkpt lat="37.947004213167155" lon="-4.53943217698328"><ele>143.0</ele><time>2026-04-27T11:04:45Z</time></trkpt><trkpt lat="37.947113157492915" lon="-4.5391949424816405"><ele>143.33333333333331</ele><time>2026-04-27T11:04:46Z</time></trkpt><trkpt lat="37.947223489727584" lon="-4.538952754637489"><ele>143.66666666666666</ele><time>2026-04-27T11:04:47Z</time></trkpt><trkpt lat="37.947324729984274" lon="-4.5387233832425595"><ele>144.0</ele><time>2026-04-27T11:04:48Z</time></trkpt><trkpt lat="37.947411344756716" lon="-4.538512616130076"><ele>144.33333333333334</ele><time>2026-04-27T11:04:49Z</time></trkpt><trkpt lat="37.947482044105385" lon="-4.538310857123524"><ele>144.66666666666669</ele><time>2026-04-27T11:04:50Z</time></trkpt><trkpt lat="37.947539709115915" lon="-4.538106095384605"><ele>145.0</ele><time>2026-04-27T11:04:51Z</time></trkpt><trkpt lat="37.94759036412187" lon="-4.537898478152545"><ele>144.66666666666669</ele><time>2026-04-27T11:04:52Z</time></trkpt><trkpt lat="37.94764951273138" lon="-4.537685725682207"><ele>144.33333333333334</ele><time>2026-04-27T11:04:53Z</time></trkpt><trkpt lat="37.94771284441088" lon="-4.5374812621250085"><ele>144.0</ele><time>2026-04-27T11:04:54Z</time></trkpt><trkpt lat="37.947774593617126" lon="-4.537266112126564"><ele>144.66666666666666</ele><time>2026-04-27T11:04:55Z</time></trkpt><trkpt lat="37.94783378899106" lon="-4.537050835505484"><ele>145.33333333333331</ele><time>2026-04-27T11:04:56Z</time></trkpt><trkpt lat="37.947892276273286" lon="-4.536828363426995"><ele>146.0</ele><time>2026-04-27T11:04:57Z</time></trkpt><trkpt lat="37.94795420140874" lon="-4.536601928154396"><ele>146.0</ele><time>2026-04-27T11:04:58Z</time></trkpt><trkpt lat="37.94801678013622" lon="-4.536368860513553"><ele>146.0</ele><time>2026-04-27T11:04:59Z</time></trkpt><trkpt lat="37.948075879566964" lon="-4.536132881722927"><ele>146.0</ele><time>2026-04-27T11:05:00Z</time></trkpt><trkpt lat="37.94812950461135" lon="-4.535884411732364"><ele>146.33333333333331</ele><time>2026-04-27T11:05:01Z</time></trkpt><trkpt lat="37.948177807566864" lon="-4.535635513349212"><ele>146.66666666666666</ele><time>2026-04-27T11:05:02Z</time></trkpt><trkpt lat="37.94821486426766" lon="-4.535377902190942"><ele>147.0</ele><time>2026-04-27T11:05:03Z</time></trkpt><trkpt lat="37.948241695513374" lon="-4.535119347518918"><ele>148.0</ele><time>2026-04-27T11:05:04Z</time></trkpt><trkpt lat="37.94826767111851" lon="-4.534860093533498"><ele>149.0</ele><time>2026-04-27T11:05:05Z</time></trkpt><trkpt lat="37.948290337316564" lon="-4.534596698933229"><ele>150.0</ele><time>2026-04-27T11:05:06Z</time></trkpt><trkpt lat="37.948314247516436" lon="-4.5343322156446755"><ele>150.33333333333334</ele><time>2026-04-27T11:05:07Z</time></trkpt><trkpt lat="37.94833591568641" lon="-4.534065181411758"><ele>150.66666666666669</ele><time>2026-04-27T11:05:08Z</time></trkpt><trkpt lat="37.94835970529908" lon="-4.533796659494582"><ele>151.0</ele><time>2026-04-27T11:05:09Z</time></trkpt><trkpt lat="37.94838525607402" lon="-4.533528268086989"><ele>151.0</ele><time>2026-04-27T11:05:10Z</time></trkpt><trkpt lat="37.94841000798107" lon="-4.533267343803697"><ele>151.0</ele><time>2026-04-27T11:05:11Z</time></trkpt><trkpt lat="37.94843157562507" lon="-4.533017543531167"><ele>151.0</ele><time>2026-04-27T11:05:12Z</time></trkpt><trkpt lat="37.94845392698832" lon="-4.532778820731826"><ele>150.0</ele><time>2026-04-27T11:05:13Z</time></trkpt><trkpt lat="37.94847713433891" lon="-4.532558528522018"><ele>149.0</ele><time>2026-04-27T11:05:14Z</time></trkpt><trkpt lat="37.94849611754205" lon="-4.532343658364278"><ele>148.0</ele><time>2026-04-27T11:05:15Z</time></trkpt><trkpt lat="37.94851159457619" lon="-4.532148584330739"><ele>148.0</ele><time>2026-04-27T11:05:16Z</time></trkpt><trkpt lat="37.94851553579756" lon="-4.531979757444599"><ele>148.0</ele><time>2026-04-27T11:05:17Z</time></trkpt><trkpt lat="37.948507528904884" lon="-4.531813866936635"><ele>148.0</ele><time>2026-04-27T11:05:18Z</time></trkpt><trkpt lat="37.94846220912293" lon="-4.5316722243078615"><ele>148.0</ele><time>2026-04-27T11:05:19Z</time></trkpt><trkpt lat="37.948404649103466" lon="-4.531549160265483"><ele>148.0</ele><time>2026-04-27T11:05:20Z</time></trkpt><trkpt lat="37.948376830358896" lon="-4.531416863305497"><ele>148.0</ele><time>2026-04-27T11:05:21Z</time></trkpt><trkpt lat="37.94839406934947" lon="-4.531265563834978"><ele>148.0</ele><time>2026-04-27T11:05:22Z</time></trkpt><trkpt lat="37.94845321184827" lon="-4.53112690833096"><ele>148.0</ele><time>2026-04-27T11:05:23Z</time></trkpt><trkpt lat="37.94849650326558" lon="-4.530978176760916"><ele>148.5</ele><time>2026-04-27T11:05:24Z</time></trkpt><trkpt lat="37.94848308177003" lon="-4.530805478550167"><ele>149.0</ele><time>2026-04-27T11:05:25Z</time></trkpt><trkpt lat="37.9484507844452" lon="-4.530623374338367"><ele>149.5</ele><time>2026-04-27T11:05:26Z</time></trkpt><trkpt lat="37.94841902732419" lon="-4.530429259872024"><ele>150.0</ele><time>2026-04-27T11:05:27Z</time></trkpt><trkpt lat="37.948385633337146" lon="-4.53021590248915"><ele>150.0</ele><time>2026-04-27T11:05:28Z</time></trkpt><trkpt lat="37.94835833692178" lon="-4.529992277116726"><ele>150.0</ele><time>2026-04-27T11:05:29Z</time></trkpt><trkpt lat="37.94832627665386" lon="-4.52977170717694"><ele>150.0</ele><time>2026-04-27T11:05:30Z</time></trkpt><trkpt lat="37.94829205004581" lon="-4.529539401107177"><ele>150.0</ele><time>2026-04-27T11:05:31Z</time></trkpt><trkpt lat="37.94825449536572" lon="-4.52929941576758"><ele>150.0</ele><time>2026-04-27T11:05:32Z</time></trkpt><trkpt lat="37.94821570692195" lon="-4.5290469834013285"><ele>150.0</ele><time>2026-04-27T11:05:33Z</time></trkpt><trkpt lat="37.94817923380416" lon="-4.528793848173451"><ele>149.0</ele><time>2026-04-27T11:05:34Z</time></trkpt><trkpt lat="37.94814283238748" lon="-4.528530167514531"><ele>148.0</ele><time>2026-04-27T11:05:35Z</time></trkpt><trkpt lat="37.94811005618853" lon="-4.5282568544284505"><ele>147.0</ele><time>2026-04-27T11:05:36Z</time></trkpt><trkpt lat="37.94807200991057" lon="-4.527989055033929"><ele>148.33333333333334</ele><time>2026-04-27T11:05:37Z</time></trkpt><trkpt lat="37.9480339927202" lon="-4.527717186998379"><ele>149.66666666666669</ele><time>2026-04-27T11:05:38Z</time></trkpt><trkpt lat="37.94800508911114" lon="-4.527445050992698"><ele>151.0</ele><time>2026-04-27T11:05:39Z</time></trkpt><trkpt lat="37.94799049429857" lon="-4.527171327462683"><ele>152.33333333333334</ele><time>2026-04-27T11:05:40Z</time></trkpt><trkpt lat="37.9479973696116" lon="-4.526890841320925"><ele>153.66666666666666</ele><time>2026-04-27T11:05:41Z</time></trkpt><trkpt lat="37.948018684713894" lon="-4.5266172366582245"><ele>155.0</ele><time>2026-04-27T11:05:42Z</time></trkpt><trkpt lat="37.94805891883546" lon="-4.526342350646823"><ele>154.66666666666666</ele><time>2026-04-27T11:05:43Z</time></trkpt><trkpt lat="37.9481080878559" lon="-4.526070570347094"><ele>154.33333333333334</ele><time>2026-04-27T11:05:44Z</time></trkpt><trkpt lat="37.948176401930766" lon="-4.525804033906386"><ele>154.0</ele><time>2026-04-27T11:05:45Z</time></trkpt><trkpt lat="37.948259855165354" lon="-4.525536177204182"><ele>154.5</ele><time>2026-04-27T11:05:46Z</time></trkpt><trkpt lat="37.94834965670146" lon="-4.5252674208413515"><ele>155.0</ele><time>2026-04-27T11:05:47Z</time></trkpt><trkpt lat="37.9484455779078" lon="-4.524998965683497"><ele>155.0</ele><time>2026-04-27T11:05:48Z</time></trkpt><trkpt lat="37.948539813194216" lon="-4.52472775645263"><ele>155.0</ele><time>2026-04-27T11:05:49Z</time></trkpt><trkpt lat="37.94862965781778" lon="-4.524448961154983"><ele>155.5</ele><time>2026-04-27T11:05:50Z</time></trkpt><trkpt lat="37.948713898552484" lon="-4.524163181553582"><ele>156.0</ele><time>2026-04-27T11:05:51Z</time></trkpt><trkpt lat="37.94879086958482" lon="-4.523876449491799"><ele>158.0</ele><time>2026-04-27T11:05:52Z</time></trkpt><trkpt lat="37.948857062388704" lon="-4.523581059700365"><ele>160.0</ele><time>2026-04-27T11:05:53Z</time></trkpt><trkpt lat="37.94891437730655" lon="-4.523289812220599"><ele>160.0</ele><time>2026-04-27T11:05:54Z</time></trkpt><trkpt lat="37.94895925140476" lon="-4.5230112451750575"><ele>160.0</ele><time>2026-04-27T11:05:55Z</time></trkpt><trkpt lat="37.949003230338455" lon="-4.522728545263426"><ele>160.5</ele><time>2026-04-27T11:05:56Z</time></trkpt><trkpt lat="37.9490414787855" lon="-4.522437939882156"><ele>161.0</ele><time>2026-04-27T11:05:57Z</time></trkpt><trkpt lat="37.94907966912704" lon="-4.522147907258191"><ele>162.0</ele><time>2026-04-27T11:05:58Z</time></trkpt><trkpt lat="37.94911752083683" lon="-4.521852545404043"><ele>163.0</ele><time>2026-04-27T11:05:59Z</time></trkpt><trkpt lat="37.94915819935622" lon="-4.521564567364552"><ele>163.0</ele><time>2026-04-27T11:06:00Z</time></trkpt><trkpt lat="37.94920017892538" lon="-4.521271013976518"><ele>163.0</ele><time>2026-04-27T11:06:01Z</time></trkpt><trkpt lat="37.94925522487147" lon="-4.520987010508867"><ele>162.0</ele><time>2026-04-27T11:06:02Z</time></trkpt><trkpt lat="37.94932299294794" lon="-4.52070481592157"><ele>161.0</ele><time>2026-04-27T11:06:03Z</time></trkpt><trkpt lat="37.94939712539189" lon="-4.520427575590836"><ele>161.0</ele><time>2026-04-27T11:06:04Z</time></trkpt><trkpt lat="37.949471051595246" lon="-4.520147335493247"><ele>161.0</ele><time>2026-04-27T11:06:05Z</time></trkpt><trkpt lat="37.94954026119664" lon="-4.519862382782833"><ele>161.0</ele><time>2026-04-27T11:06:06Z</time></trkpt><trkpt lat="37.949604572208614" lon="-4.519580471868114"><ele>161.0</ele><time>2026-04-27T11:06:07Z</time></trkpt><trkpt lat="37.94965066108886" lon="-4.519294375877834"><ele>160.5</ele><time>2026-04-27T11:06:08Z</time></trkpt><trkpt lat="37.94967605859954" lon="-4.519002938594074"><ele>160.0</ele><time>2026-04-27T11:06:09Z</time></trkpt><trkpt lat="37.949682362915944" lon="-4.518710995787258"><ele>159.0</ele><time>2026-04-27T11:06:10Z</time></trkpt><trkpt lat="37.949669819173394" lon="-4.518413702089755"><ele>158.0</ele><time>2026-04-27T11:06:11Z</time></trkpt><trkpt lat="37.94964239562372" lon="-4.518119482822895"><ele>155.0</ele><time>2026-04-27T11:06:12Z</time></trkpt><trkpt lat="37.949606772233935" lon="-4.517819993081976"><ele>152.0</ele><time>2026-04-27T11:06:13Z</time></trkpt><trkpt lat="37.949569925718656" lon="-4.51751719453826"><ele>152.0</ele><time>2026-04-27T11:06:14Z</time></trkpt><trkpt lat="37.9495406192613" lon="-4.517216824498715"><ele>152.0</ele><time>2026-04-27T11:06:15Z</time></trkpt><trkpt lat="37.94950847112977" lon="-4.516916994835495"><ele>150.5</ele><time>2026-04-27T11:06:16Z</time></trkpt><trkpt lat="37.9494781467153" lon="-4.516620250403961"><ele>149.0</ele><time>2026-04-27T11:06:17Z</time></trkpt><trkpt lat="37.94944686164522" lon="-4.516325037895264"><ele>149.5</ele><time>2026-04-27T11:06:18Z</time></trkpt><trkpt lat="37.949419199636345" lon="-4.516028781788893"><ele>150.0</ele><time>2026-04-27T11:06:19Z</time></trkpt><trkpt lat="37.94939151476122" lon="-4.515734375947606"><ele>150.0</ele><time>2026-04-27T11:06:20Z</time></trkpt><trkpt lat="37.94936355826618" lon="-4.515436477291329"><ele>150.0</ele><time>2026-04-27T11:06:21Z</time></trkpt><trkpt lat="37.94933760055245" lon="-4.5151436044695235"><ele>149.5</ele><time>2026-04-27T11:06:22Z</time></trkpt><trkpt lat="37.949310251176854" lon="-4.514848969668212"><ele>149.0</ele><time>2026-04-27T11:06:23Z</time></trkpt><trkpt lat="37.94928399276923" lon="-4.514554080756704"><ele>147.5</ele><time>2026-04-27T11:06:24Z</time></trkpt><trkpt lat="37.94925782357846" lon="-4.514259465782437"><ele>146.0</ele><time>2026-04-27T11:06:25Z</time></trkpt><trkpt lat="37.94923067565425" lon="-4.51396837320052"><ele>147.0</ele><time>2026-04-27T11:06:26Z</time></trkpt><trkpt lat="37.94920221366063" lon="-4.51367893353485"><ele>148.0</ele><time>2026-04-27T11:06:27Z</time></trkpt><trkpt lat="37.94917563759126" lon="-4.513392784103787"><ele>148.0</ele><time>2026-04-27T11:06:28Z</time></trkpt><trkpt lat="37.94915113048344" lon="-4.513106796650178"><ele>148.0</ele><time>2026-04-27T11:06:29Z</time></trkpt><trkpt lat="37.949126349605365" lon="-4.512817705356163"><ele>148.0</ele><time>2026-04-27T11:06:30Z</time></trkpt><trkpt lat="37.94909984459029" lon="-4.512528957657076"><ele>148.0</ele><time>2026-04-27T11:06:31Z</time></trkpt><trkpt lat="37.94906955215892" lon="-4.512244576778483"><ele>146.5</ele><time>2026-04-27T11:06:32Z</time></trkpt><trkpt lat="37.949028730462786" lon="-4.511959057200973"><ele>145.0</ele><time>2026-04-27T11:06:33Z</time></trkpt><trkpt lat="37.94897579023629" lon="-4.511686264316492"><ele>145.0</ele><time>2026-04-27T11:06:34Z</time></trkpt><trkpt lat="37.94890540643934" lon="-4.511419366450957"><ele>145.0</ele><time>2026-04-27T11:06:35Z</time></trkpt><trkpt lat="37.94882179626857" lon="-4.511160393887112"><ele>145.0</ele><time>2026-04-27T11:06:36Z</time></trkpt><trkpt lat="37.94873230432328" lon="-4.51090465203975"><ele>145.0</ele><time>2026-04-27T11:06:37Z</time></trkpt><trkpt lat="37.948647600368545" lon="-4.510645871338662"><ele>145.0</ele><time>2026-04-27T11:06:38Z</time></trkpt><trkpt lat="37.948567234991415" lon="-4.510385282216263"><ele>145.0</ele><time>2026-04-27T11:06:39Z</time></trkpt><trkpt lat="37.94849361949482" lon="-4.5101199100046845"><ele>145.0</ele><time>2026-04-27T11:06:40Z</time></trkpt><trkpt lat="37.94843183989516" lon="-4.509843902555092"><ele>145.0</ele><time>2026-04-27T11:06:41Z</time></trkpt><trkpt lat="37.94838609290783" lon="-4.5095669409251755"><ele>145.0</ele><time>2026-04-27T11:06:42Z</time></trkpt><trkpt lat="37.94835055106064" lon="-4.509281727840099"><ele>145.0</ele><time>2026-04-27T11:06:43Z</time></trkpt><trkpt lat="37.948306711855054" lon="-4.509000106711486"><ele>145.0</ele><time>2026-04-27T11:06:44Z</time></trkpt><trkpt lat="37.94824889910085" lon="-4.50872223782163"><ele>144.0</ele><time>2026-04-27T11:06:45Z</time></trkpt><trkpt lat="37.94818034859699" lon="-4.508446006817308"><ele>143.0</ele><time>2026-04-27T11:06:46Z</time></trkpt><trkpt lat="37.94811047092086" lon="-4.508174655468929"><ele>142.33333333333331</ele><time>2026-04-27T11:06:47Z</time></trkpt><trkpt lat="37.94803612757069" lon="-4.507902618093021"><ele>141.66666666666666</ele><time>2026-04-27T11:06:48Z</time></trkpt><trkpt lat="37.94796698632258" lon="-4.507634806759323"><ele>141.0</ele><time>2026-04-27T11:06:49Z</time></trkpt><trkpt lat="37.947900366167325" lon="-4.507365042644281"><ele>141.0</ele><time>2026-04-27T11:06:50Z</time></trkpt><trkpt lat="37.94783344432306" lon="-4.507094951317911"><ele>141.0</ele><time>2026-04-27T11:06:51Z</time></trkpt><trkpt lat="37.94776064141738" lon="-4.5068292933301"><ele>141.0</ele><time>2026-04-27T11:06:52Z</time></trkpt><trkpt lat="37.94768195040741" lon="-4.506561253634707"><ele>141.0</ele><time>2026-04-27T11:06:53Z</time></trkpt><trkpt lat="37.947605050789576" lon="-4.506297154161337"><ele>141.0</ele><time>2026-04-27T11:06:54Z</time></trkpt><trkpt lat="37.947525717166265" lon="-4.506029865803626"><ele>141.0</ele><time>2026-04-27T11:06:55Z</time></trkpt><trkpt lat="37.94744948230972" lon="-4.505767584506293"><ele>141.0</ele><time>2026-04-27T11:06:56Z</time></trkpt><trkpt lat="37.947376059325656" lon="-4.505508725407256"><ele>141.0</ele><time>2026-04-27T11:06:57Z</time></trkpt><trkpt lat="37.94729816807468" lon="-4.505247121398011"><ele>141.0</ele><time>2026-04-27T11:06:58Z</time></trkpt><trkpt lat="37.947220730306796" lon="-4.5049928305299645"><ele>140.33333333333334</ele><time>2026-04-27T11:06:59Z</time></trkpt><trkpt lat="37.947146606875194" lon="-4.504757359471487"><ele>139.66666666666669</ele><time>2026-04-27T11:07:00Z</time></trkpt><trkpt lat="37.9470653626957" lon="-4.504517943425033"><ele>139.0</ele><time>2026-04-27T11:07:01Z</time></trkpt><trkpt lat="37.94697143519709" lon="-4.5042904893039815"><ele>139.0</ele><time>2026-04-27T11:07:02Z</time></trkpt><trkpt lat="37.946861783914116" lon="-4.504069240147405"><ele>139.0</ele><time>2026-04-27T11:07:03Z</time></trkpt><trkpt lat="37.94674993065215" lon="-4.503858141181291"><ele>139.0</ele><time>2026-04-27T11:07:04Z</time></trkpt><trkpt lat="37.94664176405633" lon="-4.5036564518279185"><ele>139.0</ele><time>2026-04-27T11:07:05Z</time></trkpt><trkpt lat="37.94653070554024" lon="-4.5034548265902705"><ele>139.0</ele><time>2026-04-27T11:07:06Z</time></trkpt><trkpt lat="37.94641765849637" lon="-4.503253214353366"><ele>139.0</ele><time>2026-04-27T11:07:07Z</time></trkpt><trkpt lat="37.946301245650915" lon="-4.50305165920409"><ele>138.33333333333334</ele><time>2026-04-27T11:07:08Z</time></trkpt><trkpt lat="37.94618657654887" lon="-4.502840146735908"><ele>137.66666666666666</ele><time>2026-04-27T11:07:09Z</time></trkpt><trkpt lat="37.94607211629486" lon="-4.502626713063964"><ele>137.0</ele><time>2026-04-27T11:07:10Z</time></trkpt><trkpt lat="37.94595569712439" lon="-4.502413950350574"><ele>136.0</ele><time>2026-04-27T11:07:11Z</time></trkpt><trkpt lat="37.94583977610131" lon="-4.502204565877541"><ele>135.0</ele><time>2026-04-27T11:07:12Z</time></trkpt><trkpt lat="37.94572703546101" lon="-4.502003412675669"><ele>134.0</ele><time>2026-04-27T11:07:13Z</time></trkpt><trkpt lat="37.94562415110663" lon="-4.501814539231924"><ele>133.66666666666666</ele><time>2026-04-27T11:07:14Z</time></trkpt><trkpt lat="37.94552668295957" lon="-4.501630576622764"><ele>133.33333333333334</ele><time>2026-04-27T11:07:15Z</time></trkpt><trkpt lat="37.945429608776095" lon="-4.501462441504739"><ele>133.0</ele><time>2026-04-27T11:07:16Z</time></trkpt><trkpt lat="37.945334211442294" lon="-4.501297535300366"><ele>132.66666666666669</ele><time>2026-04-27T11:07:17Z</time></trkpt><trkpt lat="37.945243904786736" lon="-4.501136649909403"><ele>132.33333333333334</ele><time>2026-04-27T11:07:18Z</time></trkpt><trkpt lat="37.94515127599769" lon="-4.500965049614572"><ele>132.0</ele><time>2026-04-27T11:07:19Z</time></trkpt><trkpt lat="37.94505950192354" lon="-4.500796063266578"><ele>132.66666666666666</ele><time>2026-04-27T11:07:20Z</time></trkpt><trkpt lat="37.94496732327483" lon="-4.500630668705091"><ele>133.33333333333331</ele><time>2026-04-27T11:07:21Z</time></trkpt><trkpt lat="37.94487446579555" lon="-4.500467773386124"><ele>134.0</ele><time>2026-04-27T11:07:22Z</time></trkpt><trkpt lat="37.9447859422847" lon="-4.500312790461122"><ele>134.25</ele><time>2026-04-27T11:07:23Z</time></trkpt><trkpt lat="37.944704716645525" lon="-4.500161336129533"><ele>134.5</ele><time>2026-04-27T11:07:24Z</time></trkpt><trkpt lat="37.94463013059987" lon="-4.500023381057354"><ele>134.75</ele><time>2026-04-27T11:07:25Z</time></trkpt><trkpt lat="37.94455966420913" lon="-4.499890159140421"><ele>135.0</ele><time>2026-04-27T11:07:26Z</time></trkpt><trkpt lat="37.94449291798676" lon="-4.499761846730569"><ele>135.0</ele><time>2026-04-27T11:07:27Z</time></trkpt><trkpt lat="37.94442658581196" lon="-4.499634146510061"><ele>135.0</ele><time>2026-04-27T11:07:28Z</time></trkpt><trkpt lat="37.944372254614606" lon="-4.499511854369024"><ele>135.0</ele><time>2026-04-27T11:07:29Z</time></trkpt><trkpt lat="37.94433453697327" lon="-4.499387922298594"><ele>135.0</ele><time>2026-04-27T11:07:30Z</time></trkpt><trkpt lat="37.94430132841061" lon="-4.499256387677302"><ele>135.0</ele><time>2026-04-27T11:07:31Z</time></trkpt><trkpt lat="37.94427369780771" lon="-4.499129523245997"><ele>135.0</ele><time>2026-04-27T11:07:32Z</time></trkpt><trkpt lat="37.94425672516198" lon="-4.49901752852424"><ele>135.0</ele><time>2026-04-27T11:07:33Z</time></trkpt><trkpt lat="37.94423933715376" lon="-4.4988938852672"><ele>135.0</ele><time>2026-04-27T11:07:34Z</time></trkpt><trkpt lat="37.94422854214366" lon="-4.498777048192816"><ele>135.0</ele><time>2026-04-27T11:07:35Z</time></trkpt><trkpt lat="37.94422034122209" lon="-4.498660607410488"><ele>135.0</ele><time>2026-04-27T11:07:36Z</time></trkpt><trkpt lat="37.94419723555898" lon="-4.498556225025331"><ele>135.4</ele><time>2026-04-27T11:07:37Z</time></trkpt><trkpt lat="37.94418537581109" lon="-4.4984586533281945"><ele>135.8</ele><time>2026-04-27T11:07:38Z</time></trkpt><trkpt lat="37.9442173492877" lon="-4.498364262945717"><ele>136.2</ele><time>2026-04-27T11:07:39Z</time></trkpt><trkpt lat="37.94427287067711" lon="-4.4982562411363105"><ele>136.6</ele><time>2026-04-27T11:07:40Z</time></trkpt><trkpt lat="37.944319391576165" lon="-4.498125378720578"><ele>137.0</ele><time>2026-04-27T11:07:41Z</time></trkpt><trkpt lat="37.944352053663124" lon="-4.49798178189148"><ele>136.75</ele><time>2026-04-27T11:07:42Z</time></trkpt><trkpt lat="37.944388869080655" lon="-4.497822556598733"><ele>136.5</ele><time>2026-04-27T11:07:43Z</time></trkpt><trkpt lat="37.94442313871713" lon="-4.497649350283336"><ele>136.25</ele><time>2026-04-27T11:07:44Z</time></trkpt><trkpt lat="37.944433598841904" lon="-4.497462987026276"><ele>136.0</ele><time>2026-04-27T11:07:45Z</time></trkpt><trkpt lat="37.944443664016354" lon="-4.497279319972072"><ele>136.0</ele><time>2026-04-27T11:07:46Z</time></trkpt><trkpt lat="37.94444754271576" lon="-4.497097501675938"><ele>136.0</ele><time>2026-04-27T11:07:47Z</time></trkpt><trkpt lat="37.944414572415674" lon="-4.49690474620491"><ele>136.0</ele><time>2026-04-27T11:07:48Z</time></trkpt><trkpt lat="37.944362562804336" lon="-4.496707362023155"><ele>136.0</ele><time>2026-04-27T11:07:49Z</time></trkpt><trkpt lat="37.944292425486715" lon="-4.496512862888842"><ele>136.0</ele><time>2026-04-27T11:07:50Z</time></trkpt><trkpt lat="37.94419549097155" lon="-4.4963200776460726"><ele>136.0</ele><time>2026-04-27T11:07:51Z</time></trkpt><trkpt lat="37.9440770342314" lon="-4.496146423754155"><ele>136.0</ele><time>2026-04-27T11:07:52Z</time></trkpt><trkpt lat="37.943941109902596" lon="-4.495978544118344"><ele>136.0</ele><time>2026-04-27T11:07:53Z</time></trkpt><trkpt lat="37.943803307155235" lon="-4.495820543810347"><ele>136.0</ele><time>2026-04-27T11:07:54Z</time></trkpt><trkpt lat="37.94366764009223" lon="-4.495659750380156"><ele>136.0</ele><time>2026-04-27T11:07:55Z</time></trkpt><trkpt lat="37.943533910694754" lon="-4.495492235180757"><ele>136.0</ele><time>2026-04-27T11:07:56Z</time></trkpt><trkpt lat="37.94340177328309" lon="-4.4953252272306425"><ele>136.0</ele><time>2026-04-27T11:07:57Z</time></trkpt><trkpt lat="37.94327211572507" lon="-4.495149392294788"><ele>135.66666666666669</ele><time>2026-04-27T11:07:58Z</time></trkpt><trkpt lat="37.94315678964135" lon="-4.494963495104992"><ele>135.33333333333334</ele><time>2026-04-27T11:07:59Z</time></trkpt><trkpt lat="37.94307011188407" lon="-4.4947634622633785"><ele>135.0</ele><time>2026-04-27T11:08:00Z</time></trkpt><trkpt lat="37.9430021115951" lon="-4.4945465627156596"><ele>134.66666666666666</ele><time>2026-04-27T11:08:01Z</time></trkpt><trkpt lat="37.94294247908062" lon="-4.4943282864248095"><ele>134.33333333333331</ele><time>2026-04-27T11:08:02Z</time></trkpt><trkpt lat="37.942901822764604" lon="-4.494105303730687"><ele>134.0</ele><time>2026-04-27T11:08:03Z</time></trkpt><trkpt lat="37.94287718022409" lon="-4.493872515767336"><ele>133.66666666666666</ele><time>2026-04-27T11:08:04Z</time></trkpt><trkpt lat="37.94286518159708" lon="-4.493644792905854"><ele>133.33333333333334</ele><time>2026-04-27T11:08:05Z</time></trkpt><trkpt lat="37.942849583056194" lon="-4.493418469921883"><ele>133.0</ele><time>2026-04-27T11:08:06Z</time></trkpt><trkpt lat="37.94283115595392" lon="-4.493187564846003"><ele>133.0</ele><time>2026-04-27T11:08:07Z</time></trkpt><trkpt lat="37.94281357637708" lon="-4.49296351514218"><ele>133.0</ele><time>2026-04-27T11:08:08Z</time></trkpt><trkpt lat="37.94279408198315" lon="-4.49273284660961"><ele>133.0</ele><time>2026-04-27T11:08:09Z</time></trkpt><trkpt lat="37.94277574386144" lon="-4.492503624298123"><ele>133.33333333333334</ele><time>2026-04-27T11:08:10Z</time></trkpt><trkpt lat="37.942755101934814" lon="-4.492283116354406"><ele>133.66666666666666</ele><time>2026-04-27T11:08:11Z</time></trkpt><trkpt lat="37.94273545025158" lon="-4.492059060773639"><ele>134.0</ele><time>2026-04-27T11:08:12Z</time></trkpt><trkpt lat="37.94271971360963" lon="-4.491833330670399"><ele>132.66666666666666</ele><time>2026-04-27T11:08:13Z</time></trkpt><trkpt lat="37.94270261265464" lon="-4.491608373182166"><ele>131.33333333333334</ele><time>2026-04-27T11:08:14Z</time></trkpt><trkpt lat="37.94268332912461" lon="-4.491380647901654"><ele>130.0</ele><time>2026-04-27T11:08:15Z</time></trkpt><trkpt lat="37.94266150042888" lon="-4.491152774519048"><ele>129.66666666666669</ele><time>2026-04-27T11:08:16Z</time></trkpt><trkpt lat="37.9426400745289" lon="-4.490923104394999"><ele>129.33333333333334</ele><time>2026-04-27T11:08:17Z</time></trkpt><trkpt lat="37.94262301590867" lon="-4.490694439795797"><ele>129.0</ele><time>2026-04-27T11:08:18Z</time></trkpt><trkpt lat="37.94260528885085" lon="-4.490454239603262"><ele>129.66666666666666</ele><time>2026-04-27T11:08:19Z</time></trkpt><trkpt lat="37.94258738664629" lon="-4.490219109925927"><ele>130.33333333333331</ele><time>2026-04-27T11:08:20Z</time></trkpt><trkpt lat="37.94256779127276" lon="-4.48998136172201"><ele>131.0</ele><time>2026-04-27T11:08:21Z</time></trkpt><trkpt lat="37.94254533536667" lon="-4.489746350906543"><ele>131.33333333333331</ele><time>2026-04-27T11:08:22Z</time></trkpt><trkpt lat="37.94252686033896" lon="-4.48952067527744"><ele>131.66666666666666</ele><time>2026-04-27T11:08:23Z</time></trkpt><trkpt lat="37.942507200136355" lon="-4.489288338716818"><ele>132.0</ele><time>2026-04-27T11:08:24Z</time></trkpt><trkpt lat="37.94249075523709" lon="-4.489051472625389"><ele>132.0</ele><time>2026-04-27T11:08:25Z</time></trkpt><trkpt lat="37.94247223305657" lon="-4.488811355684011"><ele>132.0</ele><time>2026-04-27T11:08:26Z</time></trkpt><trkpt lat="37.94245196424605" lon="-4.488574995495444"><ele>132.0</ele><time>2026-04-27T11:08:27Z</time></trkpt><trkpt lat="37.942430588670845" lon="-4.488330269461035"><ele>131.66666666666666</ele><time>2026-04-27T11:08:28Z</time></trkpt><trkpt lat="37.94241049453341" lon="-4.488088531501988"><ele>131.33333333333331</ele><time>2026-04-27T11:08:29Z</time></trkpt><trkpt lat="37.94239169318933" lon="-4.487845346113659"><ele>131.0</ele><time>2026-04-27T11:08:30Z</time></trkpt><trkpt lat="37.94237306669009" lon="-4.487609623237304"><ele>131.0</ele><time>2026-04-27T11:08:31Z</time></trkpt><trkpt lat="37.94235763783871" lon="-4.487377820304754"><ele>131.0</ele><time>2026-04-27T11:08:32Z</time></trkpt><trkpt lat="37.942335569842584" lon="-4.487140215370261"><ele>131.0</ele><time>2026-04-27T11:08:33Z</time></trkpt><trkpt lat="37.94231414385649" lon="-4.486904654319087"><ele>131.0</ele><time>2026-04-27T11:08:34Z</time></trkpt><trkpt lat="37.94229485432517" lon="-4.486683052703431"><ele>131.0</ele><time>2026-04-27T11:08:35Z</time></trkpt><trkpt lat="37.94227590682536" lon="-4.486466504214286"><ele>131.0</ele><time>2026-04-27T11:08:36Z</time></trkpt><trkpt lat="37.942257382581595" lon="-4.486262383914949"><ele>130.66666666666666</ele><time>2026-04-27T11:08:37Z</time></trkpt><trkpt lat="37.94222990983262" lon="-4.486064720981712"><ele>130.33333333333334</ele><time>2026-04-27T11:08:38Z</time></trkpt><trkpt lat="37.94218951633332" lon="-4.485858317455144"><ele>130.0</ele><time>2026-04-27T11:08:39Z</time></trkpt><trkpt lat="37.942141154793575" lon="-4.4856454757980035"><ele>130.0</ele><time>2026-04-27T11:08:40Z</time></trkpt><trkpt lat="37.94209817402143" lon="-4.485429624216168"><ele>130.0</ele><time>2026-04-27T11:08:41Z</time></trkpt><trkpt lat="37.94205520680801" lon="-4.485208064397514"><ele>130.0</ele><time>2026-04-27T11:08:42Z</time></trkpt><trkpt lat="37.94201291771964" lon="-4.484978981016175"><ele>130.0</ele><time>2026-04-27T11:08:43Z</time></trkpt><trkpt lat="37.94197485783879" lon="-4.484750277919965"><ele>130.0</ele><time>2026-04-27T11:08:44Z</time></trkpt><trkpt lat="37.94194203838604" lon="-4.484508370855016"><ele>130.0</ele><time>2026-04-27T11:08:45Z</time></trkpt><trkpt lat="37.941914033254996" lon="-4.484269565689126"><ele>130.0</ele><time>2026-04-27T11:08:46Z</time></trkpt><trkpt lat="37.94189015959351" lon="-4.484031247161301"><ele>130.0</ele><time>2026-04-27T11:08:47Z</time></trkpt><trkpt lat="37.941867924231204" lon="-4.483791350925307"><ele>130.0</ele><time>2026-04-27T11:08:48Z</time></trkpt><trkpt lat="37.94185066935031" lon="-4.483561120399794"><ele>130.33333333333334</ele><time>2026-04-27T11:08:49Z</time></trkpt><trkpt lat="37.94183876891239" lon="-4.483364314119405"><ele>130.66666666666666</ele><time>2026-04-27T11:08:50Z</time></trkpt><trkpt lat="37.941819510237195" lon="-4.483165878875819"><ele>131.0</ele><time>2026-04-27T11:08:51Z</time></trkpt><trkpt lat="37.94178497346744" lon="-4.48297618976317"><ele>131.0</ele><time>2026-04-27T11:08:52Z</time></trkpt><trkpt lat="37.941737823807074" lon="-4.4827835209901155"><ele>131.0</ele><time>2026-04-27T11:08:53Z</time></trkpt><trkpt lat="37.94166948485115" lon="-4.48260517671718"><ele>131.0</ele><time>2026-04-27T11:08:54Z</time></trkpt><trkpt lat="37.94156779167328" lon="-4.482445105365458"><ele>131.33333333333331</ele><time>2026-04-27T11:08:55Z</time></trkpt><trkpt lat="37.941446208706886" lon="-4.482299416262298"><ele>131.66666666666666</ele><time>2026-04-27T11:08:56Z</time></trkpt><trkpt lat="37.941322851164315" lon="-4.48214855518212"><ele>132.0</ele><time>2026-04-27T11:08:57Z</time></trkpt><trkpt lat="37.94120404667103" lon="-4.481978909293491"><ele>132.0</ele><time>2026-04-27T11:08:58Z</time></trkpt><trkpt lat="37.94109103723228" lon="-4.481797334781868"><ele>132.0</ele><time>2026-04-27T11:08:59Z</time></trkpt><trkpt lat="37.9409892172101" lon="-4.481602974965975"><ele>132.0</ele><time>2026-04-27T11:09:00Z</time></trkpt><trkpt lat="37.9408944551198" lon="-4.481385186765175"><ele>132.0</ele><time>2026-04-27T11:09:01Z</time></trkpt><trkpt lat="37.94081781737914" lon="-4.481153675709005"><ele>132.0</ele><time>2026-04-27T11:09:02Z</time></trkpt><trkpt lat="37.94076078383797" lon="-4.480910639846859"><ele>132.0</ele><time>2026-04-27T11:09:03Z</time></trkpt><trkpt lat="37.94071629587023" lon="-4.480661675600068"><ele>131.66666666666666</ele><time>2026-04-27T11:09:04Z</time></trkpt><trkpt lat="37.94068735224919" lon="-4.480409861853005"><ele>131.33333333333331</ele><time>2026-04-27T11:09:05Z</time></trkpt><trkpt lat="37.9406773565387" lon="-4.480154178511263"><ele>131.0</ele><time>2026-04-27T11:09:06Z</time></trkpt><trkpt lat="37.9406848546659" lon="-4.479895666054872"><ele>131.0</ele><time>2026-04-27T11:09:07Z</time></trkpt><trkpt lat="37.94070104670896" lon="-4.479634976305203"><ele>131.0</ele><time>2026-04-27T11:09:08Z</time></trkpt><trkpt lat="37.94071760609618" lon="-4.479374466525075"><ele>131.0</ele><time>2026-04-27T11:09:09Z</time></trkpt><trkpt lat="37.94073518867204" lon="-4.479103656742729"><ele>131.0</ele><time>2026-04-27T11:09:10Z</time></trkpt><trkpt lat="37.94075600936072" lon="-4.478828138399623"><ele>131.0</ele><time>2026-04-27T11:09:11Z</time></trkpt><trkpt lat="37.94077840436269" lon="-4.478552869642503"><ele>131.0</ele><time>2026-04-27T11:09:12Z</time></trkpt><trkpt lat="37.94079779332518" lon="-4.47827345351495"><ele>131.0</ele><time>2026-04-27T11:09:13Z</time></trkpt><trkpt lat="37.94081558396391" lon="-4.4779944148946145"><ele>131.0</ele><time>2026-04-27T11:09:14Z</time></trkpt><trkpt lat="37.94081521356023" lon="-4.477729686829693"><ele>131.0</ele><time>2026-04-27T11:09:15Z</time></trkpt><trkpt lat="37.940821002363066" lon="-4.477467731932442"><ele>131.0</ele><time>2026-04-27T11:09:16Z</time></trkpt><trkpt lat="37.940817980952275" lon="-4.47720471415063"><ele>131.0</ele><time>2026-04-27T11:09:17Z</time></trkpt><trkpt lat="37.94079050972348" lon="-4.476939033835115"><ele>131.0</ele><time>2026-04-27T11:09:18Z</time></trkpt><trkpt lat="37.940755946982996" lon="-4.476669263176142"><ele>131.0</ele><time>2026-04-27T11:09:19Z</time></trkpt><trkpt lat="37.94068347658156" lon="-4.476405876212256"><ele>131.0</ele><time>2026-04-27T11:09:20Z</time></trkpt><trkpt lat="37.94059526395284" lon="-4.4761566711709415"><ele>131.0</ele><time>2026-04-27T11:09:21Z</time></trkpt><trkpt lat="37.94048921618392" lon="-4.475913422052444"><ele>131.0</ele><time>2026-04-27T11:09:22Z</time></trkpt><trkpt lat="37.94037531488742" lon="-4.475673774171096"><ele>131.0</ele><time>2026-04-27T11:09:23Z</time></trkpt><trkpt lat="37.940253018218954" lon="-4.475431597812717"><ele>131.0</ele><time>2026-04-27T11:09:24Z</time></trkpt><trkpt lat="37.94013381395482" lon="-4.475189664221355"><ele>131.0</ele><time>2026-04-27T11:09:25Z</time></trkpt><trkpt lat="37.940018365616005" lon="-4.474946344121034"><ele>131.0</ele><time>2026-04-27T11:09:26Z</time></trkpt><trkpt lat="37.939899235603804" lon="-4.474695191345984"><ele>132.0</ele><time>2026-04-27T11:09:27Z</time></trkpt><trkpt lat="37.939781499486905" lon="-4.474446736903992"><ele>133.0</ele><time>2026-04-27T11:09:28Z</time></trkpt><trkpt lat="37.9396649617214" lon="-4.474201603483165"><ele>133.0</ele><time>2026-04-27T11:09:29Z</time></trkpt><trkpt lat="37.93954660709101" lon="-4.47395472154503"><ele>133.0</ele><time>2026-04-27T11:09:30Z</time></trkpt><trkpt lat="37.93942761508762" lon="-4.47370856136589"><ele>132.5</ele><time>2026-04-27T11:09:31Z</time></trkpt><trkpt lat="37.93931188012275" lon="-4.4734614204808985"><ele>132.0</ele><time>2026-04-27T11:09:32Z</time></trkpt><trkpt lat="37.93919327542137" lon="-4.473210109601806"><ele>132.0</ele><time>2026-04-27T11:09:33Z</time></trkpt><trkpt lat="37.93907740750264" lon="-4.472961712677708"><ele>132.0</ele><time>2026-04-27T11:09:34Z</time></trkpt><trkpt lat="37.93895928670188" lon="-4.4727147430140795"><ele>132.5</ele><time>2026-04-27T11:09:35Z</time></trkpt><trkpt lat="37.938842643111386" lon="-4.472466590480056"><ele>133.0</ele><time>2026-04-27T11:09:36Z</time></trkpt><trkpt lat="37.93872751053017" lon="-4.47222498200548"><ele>133.0</ele><time>2026-04-27T11:09:37Z</time></trkpt><trkpt lat="37.938608749535355" lon="-4.471978153719809"><ele>133.0</ele><time>2026-04-27T11:09:38Z</time></trkpt><trkpt lat="37.93849191110471" lon="-4.471734265930208"><ele>133.5</ele><time>2026-04-27T11:09:39Z</time></trkpt><trkpt lat="37.93837381036469" lon="-4.471488027754014"><ele>134.0</ele><time>2026-04-27T11:09:40Z</time></trkpt><trkpt lat="37.93825600113392" lon="-4.47124531833018"><ele>134.0</ele><time>2026-04-27T11:09:41Z</time></trkpt><trkpt lat="37.938136345179494" lon="-4.470999188092776"><ele>134.0</ele><time>2026-04-27T11:09:42Z</time></trkpt><trkpt lat="37.93802003061435" lon="-4.470756004930172"><ele>134.0</ele><time>2026-04-27T11:09:43Z</time></trkpt><trkpt lat="37.93790576179223" lon="-4.470513271638111"><ele>134.0</ele><time>2026-04-27T11:09:44Z</time></trkpt><trkpt lat="37.937790180732975" lon="-4.470266497972566"><ele>134.0</ele><time>2026-04-27T11:09:45Z</time></trkpt><trkpt lat="37.93767464777276" lon="-4.470024135550672"><ele>134.0</ele><time>2026-04-27T11:09:46Z</time></trkpt><trkpt lat="37.9375602048742" lon="-4.4697792352643155"><ele>134.0</ele><time>2026-04-27T11:09:47Z</time></trkpt><trkpt lat="37.93744672294911" lon="-4.469541628667275"><ele>134.0</ele><time>2026-04-27T11:09:48Z</time></trkpt><trkpt lat="37.93733184984193" lon="-4.469302417412859"><ele>134.66666666666666</ele><time>2026-04-27T11:09:49Z</time></trkpt><trkpt lat="37.93721570477652" lon="-4.4690637922715135"><ele>135.33333333333334</ele><time>2026-04-27T11:09:50Z</time></trkpt><trkpt lat="37.93710431879415" lon="-4.468825935400683"><ele>136.0</ele><time>2026-04-27T11:09:51Z</time></trkpt><trkpt lat="37.93699376352082" lon="-4.4685897912576085"><ele>136.0</ele><time>2026-04-27T11:09:52Z</time></trkpt><trkpt lat="37.93688314543873" lon="-4.468353126962546"><ele>136.0</ele><time>2026-04-27T11:09:53Z</time></trkpt><trkpt lat="37.936773086294686" lon="-4.468116001213481"><ele>136.0</ele><time>2026-04-27T11:09:54Z</time></trkpt><trkpt lat="37.93666332073433" lon="-4.467878020744092"><ele>136.0</ele><time>2026-04-27T11:09:55Z</time></trkpt><trkpt lat="37.936552190121965" lon="-4.467643727726343"><ele>136.0</ele><time>2026-04-27T11:09:56Z</time></trkpt><trkpt lat="37.93643930036704" lon="-4.46741211763404"><ele>136.0</ele><time>2026-04-27T11:09:57Z</time></trkpt><trkpt lat="37.936324719768905" lon="-4.467177470641807"><ele>136.66666666666669</ele><time>2026-04-27T11:09:58Z</time></trkpt><trkpt lat="37.936210283284474" lon="-4.466941933116635"><ele>137.33333333333334</ele><time>2026-04-27T11:09:59Z</time></trkpt><trkpt lat="37.93609565409988" lon="-4.4667016545064175"><ele>138.0</ele><time>2026-04-27T11:10:00Z</time></trkpt><trkpt lat="37.935983387179725" lon="-4.466465884933357"><ele>137.33333333333334</ele><time>2026-04-27T11:10:01Z</time></trkpt><trkpt lat="37.93587316620691" lon="-4.4662251301038465"><ele>136.66666666666669</ele><time>2026-04-27T11:10:02Z</time></trkpt><trkpt lat="37.93576078551879" lon="-4.465981762675202"><ele>136.0</ele><time>2026-04-27T11:10:03Z</time></trkpt><trkpt lat="37.93564761685828" lon="-4.465747174794594"><ele>136.0</ele><time>2026-04-27T11:10:04Z</time></trkpt><trkpt lat="37.93553319346245" lon="-4.465503673624606"><ele>136.0</ele><time>2026-04-27T11:10:05Z</time></trkpt><trkpt lat="37.93541768361594" lon="-4.465259592637952"><ele>136.0</ele><time>2026-04-27T11:10:06Z</time></trkpt><trkpt lat="37.93530113655946" lon="-4.465014976967157"><ele>136.5</ele><time>2026-04-27T11:10:07Z</time></trkpt><trkpt lat="37.93518631252875" lon="-4.464773613616548"><ele>137.0</ele><time>2026-04-27T11:10:08Z</time></trkpt><trkpt lat="37.93506904080204" lon="-4.464526536757068"><ele>137.5</ele><time>2026-04-27T11:10:09Z</time></trkpt><trkpt lat="37.93495152928266" lon="-4.464277921939135"><ele>138.0</ele><time>2026-04-27T11:10:10Z</time></trkpt><trkpt lat="37.93483322188161" lon="-4.464036999797229"><ele>138.0</ele><time>2026-04-27T11:10:11Z</time></trkpt><trkpt lat="37.93471576957611" lon="-4.463786101059078"><ele>138.0</ele><time>2026-04-27T11:10:12Z</time></trkpt><trkpt lat="37.934598795158415" lon="-4.46353581219052"><ele>138.5</ele><time>2026-04-27T11:10:13Z</time></trkpt><trkpt lat="37.93447958940194" lon="-4.463285734228823"><ele>139.0</ele><time>2026-04-27T11:10:14Z</time></trkpt><trkpt lat="37.9343617757969" lon="-4.463039089313813"><ele>139.0</ele><time>2026-04-27T11:10:15Z</time></trkpt><trkpt lat="37.9342422372439" lon="-4.462792149598496"><ele>139.0</ele><time>2026-04-27T11:10:16Z</time></trkpt><trkpt lat="37.9341243785508" lon="-4.462541720711506"><ele>139.0</ele><time>2026-04-27T11:10:17Z</time></trkpt><trkpt lat="37.93400636020061" lon="-4.462290151457772"><ele>139.0</ele><time>2026-04-27T11:10:18Z</time></trkpt><trkpt lat="37.933887937184934" lon="-4.462042339896827"><ele>139.0</ele><time>2026-04-27T11:10:19Z</time></trkpt><trkpt lat="37.933769349232406" lon="-4.461801648871208"><ele>139.0</ele><time>2026-04-27T11:10:20Z</time></trkpt><trkpt lat="37.93365346017462" lon="-4.461549051564868"><ele>139.0</ele><time>2026-04-27T11:10:21Z</time></trkpt><trkpt lat="37.93353744962678" lon="-4.461299287260504"><ele>139.0</ele><time>2026-04-27T11:10:22Z</time></trkpt><trkpt lat="37.933418067727416" lon="-4.461053649312529"><ele>140.0</ele><time>2026-04-27T11:10:23Z</time></trkpt><trkpt lat="37.933301128531376" lon="-4.4608041464522366"><ele>141.0</ele><time>2026-04-27T11:10:24Z</time></trkpt><trkpt lat="37.93318193113196" lon="-4.460564560405152"><ele>140.5</ele><time>2026-04-27T11:10:25Z</time></trkpt><trkpt lat="37.933065909408526" lon="-4.460309797196508"><ele>140.0</ele><time>2026-04-27T11:10:26Z</time></trkpt><trkpt lat="37.932948589008454" lon="-4.460062563849657"><ele>140.0</ele><time>2026-04-27T11:10:27Z</time></trkpt><trkpt lat="37.9328329578673" lon="-4.459813408217087"><ele>140.0</ele><time>2026-04-27T11:10:28Z</time></trkpt><trkpt lat="37.932714192008596" lon="-4.4595674479269505"><ele>140.5</ele><time>2026-04-27T11:10:29Z</time></trkpt><trkpt lat="37.93259653700366" lon="-4.459316150470554"><ele>141.0</ele><time>2026-04-27T11:10:30Z</time></trkpt><trkpt lat="37.932478199666065" lon="-4.459066396015639"><ele>141.0</ele><time>2026-04-27T11:10:31Z</time></trkpt><trkpt lat="37.93235933763621" lon="-4.4588190506851335"><ele>141.0</ele><time>2026-04-27T11:10:32Z</time></trkpt><trkpt lat="37.93224254044617" lon="-4.458572036416221"><ele>142.0</ele><time>2026-04-27T11:10:33Z</time></trkpt><trkpt lat="37.932125291372" lon="-4.458321113899267"><ele>143.0</ele><time>2026-04-27T11:10:34Z</time></trkpt><trkpt lat="37.932003821471454" lon="-4.458075830759172"><ele>141.5</ele><time>2026-04-27T11:10:35Z</time></trkpt><trkpt lat="37.931884218501764" lon="-4.457826201398316"><ele>140.0</ele><time>2026-04-27T11:10:36Z</time></trkpt><trkpt lat="37.931766663864536" lon="-4.457578301197217"><ele>141.0</ele><time>2026-04-27T11:10:37Z</time></trkpt><trkpt lat="37.93164931482294" lon="-4.457330141747657"><ele>142.0</ele><time>2026-04-27T11:10:38Z</time></trkpt><trkpt lat="37.931531954731724" lon="-4.457079652558468"><ele>142.5</ele><time>2026-04-27T11:10:39Z</time></trkpt><trkpt lat="37.93141292690362" lon="-4.456832781065688"><ele>143.0</ele><time>2026-04-27T11:10:40Z</time></trkpt><trkpt lat="37.93129497739277" lon="-4.456582329166001"><ele>143.0</ele><time>2026-04-27T11:10:41Z</time></trkpt><trkpt lat="37.93117619549223" lon="-4.456332451951346"><ele>143.0</ele><time>2026-04-27T11:10:42Z</time></trkpt><trkpt lat="37.931058862668536" lon="-4.456092750641159"><ele>144.0</ele><time>2026-04-27T11:10:43Z</time></trkpt><trkpt lat="37.930943791322605" lon="-4.455846847885083"><ele>145.0</ele><time>2026-04-27T11:10:44Z</time></trkpt><trkpt lat="37.93082705325981" lon="-4.455600982944633"><ele>144.5</ele><time>2026-04-27T11:10:45Z</time></trkpt><trkpt lat="37.930711222939124" lon="-4.455356676714641"><ele>144.0</ele><time>2026-04-27T11:10:46Z</time></trkpt><trkpt lat="37.93059482153452" lon="-4.455110179970835"><ele>144.0</ele><time>2026-04-27T11:10:47Z</time></trkpt><trkpt lat="37.930477765735475" lon="-4.454865286525251"><ele>144.0</ele><time>2026-04-27T11:10:48Z</time></trkpt><trkpt lat="37.93035960868254" lon="-4.4546202636849745"><ele>144.0</ele><time>2026-04-27T11:10:49Z</time></trkpt><trkpt lat="37.93024410490391" lon="-4.454370401548523"><ele>144.0</ele><time>2026-04-27T11:10:50Z</time></trkpt><trkpt lat="37.93012688001935" lon="-4.454120675144844"><ele>145.5</ele><time>2026-04-27T11:10:51Z</time></trkpt><trkpt lat="37.93000970132764" lon="-4.453875049513935"><ele>147.0</ele><time>2026-04-27T11:10:52Z</time></trkpt><trkpt lat="37.92989360843432" lon="-4.453627005726775"><ele>147.0</ele><time>2026-04-27T11:10:53Z</time></trkpt><trkpt lat="37.92977549376422" lon="-4.453379080406111"><ele>147.0</ele><time>2026-04-27T11:10:54Z</time></trkpt><trkpt lat="37.92965573561391" lon="-4.453133751697311"><ele>146.5</ele><time>2026-04-27T11:10:55Z</time></trkpt><trkpt lat="37.92953739383529" lon="-4.452887228203685"><ele>146.0</ele><time>2026-04-27T11:10:56Z</time></trkpt><trkpt lat="37.929418449902535" lon="-4.452638942165085"><ele>146.0</ele><time>2026-04-27T11:10:57Z</time></trkpt><trkpt lat="37.92930292494478" lon="-4.4523891989332025"><ele>146.0</ele><time>2026-04-27T11:10:58Z</time></trkpt><trkpt lat="37.92918453239474" lon="-4.452142728481848"><ele>147.5</ele><time>2026-04-27T11:10:59Z</time></trkpt><trkpt lat="37.92906946564144" lon="-4.451895659371485"><ele>149.0</ele><time>2026-04-27T11:11:00Z</time></trkpt><trkpt lat="37.92895426978" lon="-4.451649930482784"><ele>149.0</ele><time>2026-04-27T11:11:01Z</time></trkpt><trkpt lat="37.92884254285041" lon="-4.451403656999129"><ele>149.0</ele><time>2026-04-27T11:11:02Z</time></trkpt><trkpt lat="37.928723938230576" lon="-4.451159843384855"><ele>149.5</ele><time>2026-04-27T11:11:03Z</time></trkpt><trkpt lat="37.928608151393355" lon="-4.450913169283066"><ele>150.0</ele><time>2026-04-27T11:11:04Z</time></trkpt><trkpt lat="37.92849132128475" lon="-4.450666588584484"><ele>151.0</ele><time>2026-04-27T11:11:05Z</time></trkpt><trkpt lat="37.928369831790846" lon="-4.450422527573399"><ele>152.0</ele><time>2026-04-27T11:11:06Z</time></trkpt><trkpt lat="37.92825248181514" lon="-4.450175693830349"><ele>152.0</ele><time>2026-04-27T11:11:07Z</time></trkpt><trkpt lat="37.928135019442216" lon="-4.449929974525991"><ele>152.0</ele><time>2026-04-27T11:11:08Z</time></trkpt><trkpt lat="37.92801715156142" lon="-4.449682507569993"><ele>151.5</ele><time>2026-04-27T11:11:09Z</time></trkpt><trkpt lat="37.92790075561774" lon="-4.449429033743366"><ele>151.0</ele><time>2026-04-27T11:11:10Z</time></trkpt><trkpt lat="37.92778207413924" lon="-4.449178613975877"><ele>151.0</ele><time>2026-04-27T11:11:11Z</time></trkpt><trkpt lat="37.92765070250535" lon="-4.448935347418618"><ele>151.0</ele><time>2026-04-27T11:11:12Z</time></trkpt><trkpt lat="37.92751438893613" lon="-4.448698638164622"><ele>152.5</ele><time>2026-04-27T11:11:13Z</time></trkpt><trkpt lat="37.927372841030234" lon="-4.448458498244502"><ele>154.0</ele><time>2026-04-27T11:11:14Z</time></trkpt><trkpt lat="37.9272297980505" lon="-4.448217018425641"><ele>154.0</ele><time>2026-04-27T11:11:15Z</time></trkpt><trkpt lat="37.927086718622505" lon="-4.447971161689294"><ele>154.0</ele><time>2026-04-27T11:11:16Z</time></trkpt><trkpt lat="37.926940276863874" lon="-4.447728542952437"><ele>153.0</ele><time>2026-04-27T11:11:17Z</time></trkpt><trkpt lat="37.92679729531425" lon="-4.447482735938352"><ele>152.0</ele><time>2026-04-27T11:11:18Z</time></trkpt><trkpt lat="37.926650200805" lon="-4.447241753954529"><ele>152.5</ele><time>2026-04-27T11:11:19Z</time></trkpt><trkpt lat="37.92649804771189" lon="-4.447002749122376"><ele>153.0</ele><time>2026-04-27T11:11:20Z</time></trkpt><trkpt lat="37.92635215337102" lon="-4.446760582049295"><ele>153.0</ele><time>2026-04-27T11:11:21Z</time></trkpt><trkpt lat="37.92620188709639" lon="-4.44651993843469"><ele>153.0</ele><time>2026-04-27T11:11:22Z</time></trkpt><trkpt lat="37.926054203318046" lon="-4.4462747401166745"><ele>153.5</ele><time>2026-04-27T11:11:23Z</time></trkpt><trkpt lat="37.92590635712663" lon="-4.446031561253568"><ele>154.0</ele><time>2026-04-27T11:11:24Z</time></trkpt><trkpt lat="37.92576193240905" lon="-4.44578829537891"><ele>154.0</ele><time>2026-04-27T11:11:25Z</time></trkpt><trkpt lat="37.92561840319127" lon="-4.445545096334322"><ele>154.0</ele><time>2026-04-27T11:11:26Z</time></trkpt><trkpt lat="37.92547366144888" lon="-4.445301044739125"><ele>154.5</ele><time>2026-04-27T11:11:27Z</time></trkpt><trkpt lat="37.92533072410268" lon="-4.445055690447174"><ele>155.0</ele><time>2026-04-27T11:11:28Z</time></trkpt><trkpt lat="37.92518648142548" lon="-4.444813469478942"><ele>155.5</ele><time>2026-04-27T11:11:29Z</time></trkpt><trkpt lat="37.92503901839758" lon="-4.444572901088307"><ele>156.0</ele><time>2026-04-27T11:11:30Z</time></trkpt><trkpt lat="37.924890753785505" lon="-4.444329626861232"><ele>156.0</ele><time>2026-04-27T11:11:31Z</time></trkpt><trkpt lat="37.924744600179594" lon="-4.44408584718711"><ele>156.0</ele><time>2026-04-27T11:11:32Z</time></trkpt><trkpt lat="37.92459928475549" lon="-4.443841235287165"><ele>155.5</ele><time>2026-04-27T11:11:33Z</time></trkpt><trkpt lat="37.92445254117206" lon="-4.443598772384451"><ele>155.0</ele><time>2026-04-27T11:11:34Z</time></trkpt><trkpt lat="37.924307272711175" lon="-4.4433535445711"><ele>155.5</ele><time>2026-04-27T11:11:35Z</time></trkpt><trkpt lat="37.92416159889004" lon="-4.44310868955685"><ele>156.0</ele><time>2026-04-27T11:11:36Z</time></trkpt><trkpt lat="37.924016440097475" lon="-4.442859528726422"><ele>156.0</ele><time>2026-04-27T11:11:37Z</time></trkpt><trkpt lat="37.92387089230669" lon="-4.442614131181452"><ele>156.0</ele><time>2026-04-27T11:11:38Z</time></trkpt><trkpt lat="37.923724572455676" lon="-4.442368865472777"><ele>157.5</ele><time>2026-04-27T11:11:39Z</time></trkpt><trkpt lat="37.92357500102819" lon="-4.4421252424391735"><ele>159.0</ele><time>2026-04-27T11:11:40Z</time></trkpt><trkpt lat="37.92342297758689" lon="-4.441887608647216"><ele>159.0</ele><time>2026-04-27T11:11:41Z</time></trkpt><trkpt lat="37.92326632052596" lon="-4.44165296578019"><ele>159.0</ele><time>2026-04-27T11:11:42Z</time></trkpt><trkpt lat="37.923101436804615" lon="-4.441430295065452"><ele>160.5</ele><time>2026-04-27T11:11:43Z</time></trkpt><trkpt lat="37.92292572238199" lon="-4.441225460002234"><ele>162.0</ele><time>2026-04-27T11:11:44Z</time></trkpt><trkpt lat="37.92273577358535" lon="-4.441043449999535"><ele>161.0</ele><time>2026-04-27T11:11:45Z</time></trkpt><trkpt lat="37.92254012641497" lon="-4.440873717896388"><ele>160.0</ele><time>2026-04-27T11:11:46Z</time></trkpt><trkpt lat="37.92233998829949" lon="-4.440716407077302"><ele>160.0</ele><time>2026-04-27T11:11:47Z</time></trkpt><trkpt lat="37.922141077155096" lon="-4.440557704073595"><ele>160.0</ele><time>2026-04-27T11:11:48Z</time></trkpt><trkpt lat="37.921946536620695" lon="-4.440402630217354"><ele>160.5</ele><time>2026-04-27T11:11:49Z</time></trkpt><trkpt lat="37.92175564858164" lon="-4.44023811380035"><ele>161.0</ele><time>2026-04-27T11:11:50Z</time></trkpt><trkpt lat="37.921565841482014" lon="-4.440084077230439"><ele>161.0</ele><time>2026-04-27T11:11:51Z</time></trkpt><trkpt lat="37.92137807134985" lon="-4.439920865209837"><ele>161.0</ele><time>2026-04-27T11:11:52Z</time></trkpt><trkpt lat="37.92119273679461" lon="-4.439760572983116"><ele>161.66666666666666</ele><time>2026-04-27T11:11:53Z</time></trkpt><trkpt lat="37.921008599339096" lon="-4.439602032648545"><ele>162.33333333333334</ele><time>2026-04-27T11:11:54Z</time></trkpt><trkpt lat="37.920824151351724" lon="-4.439440556005389"><ele>163.0</ele><time>2026-04-27T11:11:55Z</time></trkpt><trkpt lat="37.92064133148385" lon="-4.439276807438171"><ele>164.0</ele><time>2026-04-27T11:11:56Z</time></trkpt><trkpt lat="37.92045828454939" lon="-4.439106074023136"><ele>165.0</ele><time>2026-04-27T11:11:57Z</time></trkpt><trkpt lat="37.92027625103026" lon="-4.438927677684781"><ele>166.5</ele><time>2026-04-27T11:11:58Z</time></trkpt><trkpt lat="37.92009476900782" lon="-4.438740643775958"><ele>168.0</ele><time>2026-04-27T11:11:59Z</time></trkpt><trkpt lat="37.91991607389553" lon="-4.438554272608909"><ele>168.0</ele><time>2026-04-27T11:12:00Z</time></trkpt><trkpt lat="37.91973712704952" lon="-4.438360998060709"><ele>168.0</ele><time>2026-04-27T11:12:01Z</time></trkpt><trkpt lat="37.91955896735382" lon="-4.43816522783309"><ele>168.0</ele><time>2026-04-27T11:12:02Z</time></trkpt><trkpt lat="37.919382603819024" lon="-4.437972138316808"><ele>168.0</ele><time>2026-04-27T11:12:03Z</time></trkpt><trkpt lat="37.91918966469038" lon="-4.437792938887383"><ele>167.5</ele><time>2026-04-27T11:12:04Z</time></trkpt><trkpt lat="37.919021884984275" lon="-4.437577411765317"><ele>167.0</ele><time>2026-04-27T11:12:05Z</time></trkpt><trkpt lat="37.918842102851684" lon="-4.437384896156906"><ele>167.0</ele><time>2026-04-27T11:12:06Z</time></trkpt><trkpt lat="37.91866115988586" lon="-4.437192028256373"><ele>167.0</ele><time>2026-04-27T11:12:07Z</time></trkpt><trkpt lat="37.91847549787073" lon="-4.437001656869985"><ele>168.5</ele><time>2026-04-27T11:12:08Z</time></trkpt><trkpt lat="37.918288103591735" lon="-4.436822094100889"><ele>170.0</ele><time>2026-04-27T11:12:09Z</time></trkpt><trkpt lat="37.918099057271924" lon="-4.436650020125421"><ele>170.0</ele><time>2026-04-27T11:12:10Z</time></trkpt><trkpt lat="37.91790414484605" lon="-4.436474816958053"><ele>170.0</ele><time>2026-04-27T11:12:11Z</time></trkpt><trkpt lat="37.91771185398635" lon="-4.436305508685763"><ele>173.0</ele><time>2026-04-27T11:12:12Z</time></trkpt><trkpt lat="37.91752083891895" lon="-4.436137641324969"><ele>176.0</ele><time>2026-04-27T11:12:13Z</time></trkpt><trkpt lat="37.917329507688656" lon="-4.435968864314512"><ele>176.0</ele><time>2026-04-27T11:12:14Z</time></trkpt><trkpt lat="37.91713764171617" lon="-4.435796863146543"><ele>176.0</ele><time>2026-04-27T11:12:15Z</time></trkpt><trkpt lat="37.91694496354305" lon="-4.435630397090822"><ele>179.0</ele><time>2026-04-27T11:12:16Z</time></trkpt><trkpt lat="37.916753525028554" lon="-4.435460758434726"><ele>182.0</ele><time>2026-04-27T11:12:17Z</time></trkpt><trkpt lat="37.91656494507586" lon="-4.435295314653787"><ele>182.0</ele><time>2026-04-27T11:12:18Z</time></trkpt><trkpt lat="37.91637706420141" lon="-4.435136789469785"><ele>182.0</ele><time>2026-04-27T11:12:19Z</time></trkpt><trkpt lat="37.91619333936185" lon="-4.434970365427828"><ele>182.0</ele><time>2026-04-27T11:12:20Z</time></trkpt><trkpt lat="37.91601367178011" lon="-4.4347978978667175"><ele>182.0</ele><time>2026-04-27T11:12:21Z</time></trkpt><trkpt lat="37.915837602458666" lon="-4.434622680783992"><ele>182.0</ele><time>2026-04-27T11:12:22Z</time></trkpt><trkpt lat="37.91566650130994" lon="-4.43444459250065"><ele>184.66666666666666</ele><time>2026-04-27T11:12:23Z</time></trkpt><trkpt lat="37.91550457978204" lon="-4.434251474673922"><ele>187.33333333333334</ele><time>2026-04-27T11:12:24Z</time></trkpt><trkpt lat="37.915353665859186" lon="-4.434047481969967"><ele>190.0</ele><time>2026-04-27T11:12:25Z</time></trkpt><trkpt lat="37.91521744433388" lon="-4.433828572438669"><ele>190.66666666666669</ele><time>2026-04-27T11:12:26Z</time></trkpt><trkpt lat="37.91508766655409" lon="-4.43360289506277"><ele>191.33333333333334</ele><time>2026-04-27T11:12:27Z</time></trkpt><trkpt lat="37.91496679741038" lon="-4.433370790581551"><ele>192.0</ele><time>2026-04-27T11:12:28Z</time></trkpt><trkpt lat="37.9148581919554" lon="-4.43313189089623"><ele>194.33333333333331</ele><time>2026-04-27T11:12:29Z</time></trkpt><trkpt lat="37.914759136278086" lon="-4.432884068369623"><ele>196.66666666666666</ele><time>2026-04-27T11:12:30Z</time></trkpt><trkpt lat="37.9146731696273" lon="-4.432625959994706"><ele>199.0</ele><time>2026-04-27T11:12:31Z</time></trkpt><trkpt lat="37.91459350443762" lon="-4.432367182427794"><ele>200.33333333333331</ele><time>2026-04-27T11:12:32Z</time></trkpt><trkpt lat="37.91452491633842" lon="-4.432105107853221"><ele>201.66666666666669</ele><time>2026-04-27T11:12:33Z</time></trkpt><trkpt lat="37.91446949619958" lon="-4.431836623421657"><ele>203.0</ele><time>2026-04-27T11:12:34Z</time></trkpt><trkpt lat="37.914423653480746" lon="-4.431565298888843"><ele>205.33333333333334</ele><time>2026-04-27T11:12:35Z</time></trkpt><trkpt lat="37.91438985292896" lon="-4.431290932600823"><ele>207.66666666666669</ele><time>2026-04-27T11:12:36Z</time></trkpt><trkpt lat="37.914368267395695" lon="-4.431017355625724"><ele>210.0</ele><time>2026-04-27T11:12:37Z</time></trkpt><trkpt lat="37.91436098761113" lon="-4.430739856242319"><ele>210.66666666666669</ele><time>2026-04-27T11:12:38Z</time></trkpt><trkpt lat="37.914368329836044" lon="-4.430463263239423"><ele>211.33333333333334</ele><time>2026-04-27T11:12:39Z</time></trkpt><trkpt lat="37.91438487243829" lon="-4.430185249711764"><ele>212.0</ele><time>2026-04-27T11:12:40Z</time></trkpt><trkpt lat="37.91440927439623" lon="-4.429908648095119"><ele>212.33333333333334</ele><time>2026-04-27T11:12:41Z</time></trkpt><trkpt lat="37.91444539511884" lon="-4.429632114366716"><ele>212.66666666666669</ele><time>2026-04-27T11:12:42Z</time></trkpt><trkpt lat="37.91449292877929" lon="-4.429359559391744"><ele>213.0</ele><time>2026-04-27T11:12:43Z</time></trkpt><trkpt lat="37.91455659753016" lon="-4.429082643252316"><ele>213.0</ele><time>2026-04-27T11:12:44Z</time></trkpt><trkpt lat="37.9146267965938" lon="-4.428809698503545"><ele>213.0</ele><time>2026-04-27T11:12:45Z</time></trkpt><trkpt lat="37.9147025818694" lon="-4.428539301543583"><ele>215.5</ele><time>2026-04-27T11:12:46Z</time></trkpt><trkpt lat="37.91478015906124" lon="-4.428267111749958"><ele>218.0</ele><time>2026-04-27T11:12:47Z</time></trkpt><trkpt lat="37.91486275911567" lon="-4.427992008295414"><ele>218.0</ele><time>2026-04-27T11:12:48Z</time></trkpt><trkpt lat="37.91494078597463" lon="-4.427717221669217"><ele>218.0</ele><time>2026-04-27T11:12:49Z</time></trkpt><trkpt lat="37.91501900161682" lon="-4.4274426821898185"><ele>223.0</ele><time>2026-04-27T11:12:50Z</time></trkpt><trkpt lat="37.91509656917323" lon="-4.427165649829063"><ele>228.0</ele><time>2026-04-27T11:12:51Z</time></trkpt><trkpt lat="37.915180538527466" lon="-4.426891429778166"><ele>228.0</ele><time>2026-04-27T11:12:52Z</time></trkpt><trkpt lat="37.915265862465404" lon="-4.426613038136208"><ele>228.0</ele><time>2026-04-27T11:12:53Z</time></trkpt><trkpt lat="37.91535282963942" lon="-4.426332867294248"><ele>227.0</ele><time>2026-04-27T11:12:54Z</time></trkpt><trkpt lat="37.915433648555705" lon="-4.426054690361372"><ele>226.0</ele><time>2026-04-27T11:12:55Z</time></trkpt><trkpt lat="37.91551743488818" lon="-4.425769675775897"><ele>226.0</ele><time>2026-04-27T11:12:56Z</time></trkpt><trkpt lat="37.91560209948978" lon="-4.4254862105461354"><ele>226.0</ele><time>2026-04-27T11:12:57Z</time></trkpt><trkpt lat="37.91568449533391" lon="-4.425204806248241"><ele>225.0</ele><time>2026-04-27T11:12:58Z</time></trkpt><trkpt lat="37.91576715514829" lon="-4.424924767139433"><ele>224.0</ele><time>2026-04-27T11:12:59Z</time></trkpt><trkpt lat="37.915854105088926" lon="-4.424642525780515"><ele>229.5</ele><time>2026-04-27T11:13:00Z</time></trkpt><trkpt lat="37.91593752395398" lon="-4.424362951540057"><ele>235.0</ele><time>2026-04-27T11:13:01Z</time></trkpt><trkpt lat="37.916015003710605" lon="-4.424083179676303"><ele>235.5</ele><time>2026-04-27T11:13:02Z</time></trkpt><trkpt lat="37.91608402919745" lon="-4.423808844513564"><ele>236.0</ele><time>2026-04-27T11:13:03Z</time></trkpt><trkpt lat="37.91614667759616" lon="-4.423532480916821"><ele>236.0</ele><time>2026-04-27T11:13:04Z</time></trkpt><trkpt lat="37.91618202977095" lon="-4.423254062030016"><ele>236.0</ele><time>2026-04-27T11:13:05Z</time></trkpt><trkpt lat="37.91619111902067" lon="-4.422975024466814"><ele>236.0</ele><time>2026-04-27T11:13:06Z</time></trkpt><trkpt lat="37.9161829473002" lon="-4.42269343611673"><ele>236.0</ele><time>2026-04-27T11:13:07Z</time></trkpt><trkpt lat="37.91615120779109" lon="-4.422409840810701"><ele>236.0</ele><time>2026-04-27T11:13:08Z</time></trkpt><trkpt lat="37.91609331185931" lon="-4.422134251456022"><ele>237.5</ele><time>2026-04-27T11:13:09Z</time></trkpt><trkpt lat="37.91599603050206" lon="-4.421868176471837"><ele>239.0</ele><time>2026-04-27T11:13:10Z</time></trkpt><trkpt lat="37.91590837309794" lon="-4.421597875398433"><ele>239.0</ele><time>2026-04-27T11:13:11Z</time></trkpt><trkpt lat="37.91578555743511" lon="-4.421343059280405"><ele>239.0</ele><time>2026-04-27T11:13:12Z</time></trkpt><trkpt lat="37.91563292128075" lon="-4.421118776235327"><ele>239.0</ele><time>2026-04-27T11:13:13Z</time></trkpt><trkpt lat="37.91547711737963" lon="-4.420893977981797"><ele>239.0</ele><time>2026-04-27T11:13:14Z</time></trkpt><trkpt lat="37.91529363577255" lon="-4.420700717172621"><ele>239.0</ele><time>2026-04-27T11:13:15Z</time></trkpt><trkpt lat="37.91509773491454" lon="-4.420538996624445"><ele>239.0</ele><time>2026-04-27T11:13:16Z</time></trkpt><trkpt lat="37.91489061034605" lon="-4.420403610547996"><ele>239.0</ele><time>2026-04-27T11:13:17Z</time></trkpt><trkpt lat="37.91466846407874" lon="-4.4202953438141686"><ele>239.0</ele><time>2026-04-27T11:13:18Z</time></trkpt><trkpt lat="37.91444482291558" lon="-4.420215165541368"><ele>240.0</ele><time>2026-04-27T11:13:19Z</time></trkpt><trkpt lat="37.91421517913516" lon="-4.420143688286365"><ele>241.0</ele><time>2026-04-27T11:13:20Z</time></trkpt><trkpt lat="37.91398259945959" lon="-4.420091086230978"><ele>241.0</ele><time>2026-04-27T11:13:21Z</time></trkpt><trkpt lat="37.913746011916885" lon="-4.42004362657861"><ele>241.0</ele><time>2026-04-27T11:13:22Z</time></trkpt><trkpt lat="37.9135099520886" lon="-4.419991084978656"><ele>243.0</ele><time>2026-04-27T11:13:23Z</time></trkpt><trkpt lat="37.91326914558156" lon="-4.41993728304603"><ele>245.0</ele><time>2026-04-27T11:13:24Z</time></trkpt><trkpt lat="37.91302868511705" lon="-4.419884469309569"><ele>245.0</ele><time>2026-04-27T11:13:25Z</time></trkpt><trkpt lat="37.91278530922893" lon="-4.419830661787601"><ele>245.0</ele><time>2026-04-27T11:13:26Z</time></trkpt><trkpt lat="37.91254307402363" lon="-4.419779071606376"><ele>246.5</ele><time>2026-04-27T11:13:27Z</time></trkpt><trkpt lat="37.912302935495255" lon="-4.419725682154426"><ele>248.0</ele><time>2026-04-27T11:13:28Z</time></trkpt><trkpt lat="37.9120705656968" lon="-4.419673068363522"><ele>246.5</ele><time>2026-04-27T11:13:29Z</time></trkpt><trkpt lat="37.911837193965965" lon="-4.419622453385657"><ele>245.0</ele><time>2026-04-27T11:13:30Z</time></trkpt><trkpt lat="37.91160688766702" lon="-4.419571198664936"><ele>245.0</ele><time>2026-04-27T11:13:31Z</time></trkpt><trkpt lat="37.91138671829436" lon="-4.419517780435901"><ele>245.0</ele><time>2026-04-27T11:13:32Z</time></trkpt><trkpt lat="37.91115551346795" lon="-4.419462187469038"><ele>245.0</ele><time>2026-04-27T11:13:33Z</time></trkpt><trkpt lat="37.910929761083985" lon="-4.419413221932541"><ele>245.0</ele><time>2026-04-27T11:13:34Z</time></trkpt><trkpt lat="37.910703126650745" lon="-4.4193656467445095"><ele>247.5</ele><time>2026-04-27T11:13:35Z</time></trkpt><trkpt lat="37.910475306968316" lon="-4.419314507388173"><ele>250.0</ele><time>2026-04-27T11:13:36Z</time></trkpt><trkpt lat="37.91025132264002" lon="-4.419261806284824"><ele>252.5</ele><time>2026-04-27T11:13:37Z</time></trkpt><trkpt lat="37.91002720561245" lon="-4.419197639064982"><ele>255.0</ele><time>2026-04-27T11:13:38Z</time></trkpt><trkpt lat="37.90980467700452" lon="-4.419121372675134"><ele>255.0</ele><time>2026-04-27T11:13:39Z</time></trkpt><trkpt lat="37.90958228303206" lon="-4.419034484093792"><ele>255.0</ele><time>2026-04-27T11:13:40Z</time></trkpt><trkpt lat="37.909358978518995" lon="-4.418942935381646"><ele>257.0</ele><time>2026-04-27T11:13:41Z</time></trkpt><trkpt lat="37.90913603591126" lon="-4.418844989148324"><ele>259.0</ele><time>2026-04-27T11:13:42Z</time></trkpt><trkpt lat="37.9089187057389" lon="-4.418739262724783"><ele>255.0</ele><time>2026-04-27T11:13:43Z</time></trkpt><trkpt lat="37.908707211661714" lon="-4.418631988762393"><ele>251.0</ele><time>2026-04-27T11:13:44Z</time></trkpt><trkpt lat="37.90849520907092" lon="-4.418523955187667"><ele>251.5</ele><time>2026-04-27T11:13:45Z</time></trkpt><trkpt lat="37.90827957895244" lon="-4.418418876139556"><ele>252.0</ele><time>2026-04-27T11:13:46Z</time></trkpt><trkpt lat="37.90806391722173" lon="-4.418310115127998"><ele>252.0</ele><time>2026-04-27T11:13:47Z</time></trkpt><trkpt lat="37.90785582545534" lon="-4.418191823552264"><ele>252.0</ele><time>2026-04-27T11:13:48Z</time></trkpt><trkpt lat="37.9076478496426" lon="-4.4180691134713"><ele>250.66666666666669</ele><time>2026-04-27T11:13:49Z</time></trkpt><trkpt lat="37.90745227786692" lon="-4.417941343243185"><ele>249.33333333333334</ele><time>2026-04-27T11:13:50Z</time></trkpt><trkpt lat="37.90726650088399" lon="-4.417809253642179"><ele>248.0</ele><time>2026-04-27T11:13:51Z</time></trkpt><trkpt lat="37.90709619499912" lon="-4.417678650742366"><ele>248.0</ele><time>2026-04-27T11:13:52Z</time></trkpt><trkpt lat="37.90692351386208" lon="-4.417539831618739"><ele>248.0</ele><time>2026-04-27T11:13:53Z</time></trkpt><trkpt lat="37.90674813719646" lon="-4.417393691388555"><ele>248.0</ele><time>2026-04-27T11:13:54Z</time></trkpt><trkpt lat="37.90657414381671" lon="-4.417244768698179"><ele>247.66666666666669</ele><time>2026-04-27T11:13:55Z</time></trkpt><trkpt lat="37.906402918093136" lon="-4.417096063970256"><ele>247.33333333333331</ele><time>2026-04-27T11:13:56Z</time></trkpt><trkpt lat="37.906231467819424" lon="-4.41694790602104"><ele>247.0</ele><time>2026-04-27T11:13:57Z</time></trkpt><trkpt lat="37.906058354432886" lon="-4.416801610109136"><ele>249.33333333333331</ele><time>2026-04-27T11:13:58Z</time></trkpt><trkpt lat="37.90588393617434" lon="-4.41665181548968"><ele>251.66666666666669</ele><time>2026-04-27T11:13:59Z</time></trkpt><trkpt lat="37.90571206616831" lon="-4.416496814828146"><ele>254.0</ele><time>2026-04-27T11:14:00Z</time></trkpt><trkpt lat="37.90553877055068" lon="-4.4163382504110285"><ele>254.33333333333334</ele><time>2026-04-27T11:14:01Z</time></trkpt><trkpt lat="37.90536326147784" lon="-4.416180367328013"><ele>254.66666666666669</ele><time>2026-04-27T11:14:02Z</time></trkpt><trkpt lat="37.9051772195091" lon="-4.416009590830348"><ele>255.0</ele><time>2026-04-27T11:14:03Z</time></trkpt><trkpt lat="37.904964300941344" lon="-4.415828537651099"><ele>255.0</ele><time>2026-04-27T11:14:04Z</time></trkpt><trkpt lat="37.904742879395585" lon="-4.415633744015769"><ele>255.0</ele><time>2026-04-27T11:14:05Z</time></trkpt><trkpt lat="37.90451180620585" lon="-4.415430460517451"><ele>254.0</ele><time>2026-04-27T11:14:06Z</time></trkpt><trkpt lat="37.90426856057582" lon="-4.415214216847168"><ele>253.0</ele><time>2026-04-27T11:14:07Z</time></trkpt><trkpt lat="37.90403501770996" lon="-4.41501306301719"><ele>253.0</ele><time>2026-04-27T11:14:08Z</time></trkpt><trkpt lat="37.90381809225596" lon="-4.414831687852461"><ele>253.0</ele><time>2026-04-27T11:14:09Z</time></trkpt><trkpt lat="37.90360583936925" lon="-4.414652279399345"><ele>252.0</ele><time>2026-04-27T11:14:10Z</time></trkpt><trkpt lat="37.90340096734839" lon="-4.414477113455572"><ele>251.0</ele><time>2026-04-27T11:14:11Z</time></trkpt><trkpt lat="37.903207236479886" lon="-4.41430314762161"><ele>251.0</ele><time>2026-04-27T11:14:12Z</time></trkpt><trkpt lat="37.90302195492918" lon="-4.414113390506702"><ele>251.0</ele><time>2026-04-27T11:14:13Z</time></trkpt><trkpt lat="37.90285494320194" lon="-4.413903372662168"><ele>250.5</ele><time>2026-04-27T11:14:14Z</time></trkpt><trkpt lat="37.90270122235371" lon="-4.413678342679546"><ele>250.0</ele><time>2026-04-27T11:14:15Z</time></trkpt><trkpt lat="37.90256675095729" lon="-4.413437830528627"><ele>250.0</ele><time>2026-04-27T11:14:16Z</time></trkpt><trkpt lat="37.902449604188234" lon="-4.41318221251687"><ele>250.0</ele><time>2026-04-27T11:14:17Z</time></trkpt><trkpt lat="37.902353333850066" lon="-4.412909720911108"><ele>248.0</ele><time>2026-04-27T11:14:18Z</time></trkpt><trkpt lat="37.902277486722234" lon="-4.412626991887563"><ele>246.0</ele><time>2026-04-27T11:14:19Z</time></trkpt><trkpt lat="37.902226462193994" lon="-4.412340258769749"><ele>246.5</ele><time>2026-04-27T11:14:20Z</time></trkpt><trkpt lat="37.902189200383496" lon="-4.412043348626397"><ele>247.0</ele><time>2026-04-27T11:14:21Z</time></trkpt><trkpt lat="37.902159095527935" lon="-4.411744446146433"><ele>247.0</ele><time>2026-04-27T11:14:22Z</time></trkpt><trkpt lat="37.90213217736495" lon="-4.41144367923909"><ele>247.0</ele><time>2026-04-27T11:14:23Z</time></trkpt><trkpt lat="37.90209992370171" lon="-4.411142311910657"><ele>248.0</ele><time>2026-04-27T11:14:24Z</time></trkpt><trkpt lat="37.90207102590561" lon="-4.4108370447109"><ele>249.0</ele><time>2026-04-27T11:14:25Z</time></trkpt><trkpt lat="37.902043342974125" lon="-4.410534253211865"><ele>251.0</ele><time>2026-04-27T11:14:26Z</time></trkpt><trkpt lat="37.90202013425845" lon="-4.410233937647347"><ele>253.0</ele><time>2026-04-27T11:14:27Z</time></trkpt><trkpt lat="37.9019943735632" lon="-4.409933322382456"><ele>253.5</ele><time>2026-04-27T11:14:28Z</time></trkpt><trkpt lat="37.901967985919924" lon="-4.4096338767143815"><ele>254.0</ele><time>2026-04-27T11:14:29Z</time></trkpt><trkpt lat="37.901941730721795" lon="-4.409336150501782"><ele>254.0</ele><time>2026-04-27T11:14:30Z</time></trkpt><trkpt lat="37.90191225459377" lon="-4.409037190940694"><ele>254.0</ele><time>2026-04-27T11:14:31Z</time></trkpt><trkpt lat="37.90188177148693" lon="-4.408738147083016"><ele>255.0</ele><time>2026-04-27T11:14:32Z</time></trkpt><trkpt lat="37.90185229590604" lon="-4.408439714705979"><ele>256.0</ele><time>2026-04-27T11:14:33Z</time></trkpt><trkpt lat="37.901823311567604" lon="-4.408138089317245"><ele>258.0</ele><time>2026-04-27T11:14:34Z</time></trkpt><trkpt lat="37.901792352375324" lon="-4.4078361800699"><ele>260.0</ele><time>2026-04-27T11:14:35Z</time></trkpt><trkpt lat="37.90176451717839" lon="-4.407538870733929"><ele>258.0</ele><time>2026-04-27T11:14:36Z</time></trkpt><trkpt lat="37.90173869486091" lon="-4.407239720820964"><ele>256.0</ele><time>2026-04-27T11:14:37Z</time></trkpt><trkpt lat="37.90171242853598" lon="-4.406937682169843"><ele>256.0</ele><time>2026-04-27T11:14:38Z</time></trkpt><trkpt lat="37.901692064577425" lon="-4.406635381534982"><ele>256.0</ele><time>2026-04-27T11:14:39Z</time></trkpt><trkpt lat="37.9016741958056" lon="-4.406332462378791"><ele>257.0</ele><time>2026-04-27T11:14:40Z</time></trkpt><trkpt lat="37.90166150064245" lon="-4.406037365486682"><ele>258.0</ele><time>2026-04-27T11:14:41Z</time></trkpt><trkpt lat="37.90164782518521" lon="-4.405752839571377"><ele>258.3333333333333</ele><time>2026-04-27T11:14:42Z</time></trkpt><trkpt lat="37.90163403885112" lon="-4.405467442385861"><ele>258.66666666666663</ele><time>2026-04-27T11:14:43Z</time></trkpt><trkpt lat="37.9016192894748" lon="-4.405191874904071"><ele>259.0</ele><time>2026-04-27T11:14:44Z</time></trkpt><trkpt lat="37.901595973667256" lon="-4.404916437608981"><ele>259.66666666666663</ele><time>2026-04-27T11:14:45Z</time></trkpt><trkpt lat="37.90156928869464" lon="-4.404643043756591"><ele>260.3333333333333</ele><time>2026-04-27T11:14:46Z</time></trkpt><trkpt lat="37.901541522160464" lon="-4.404370286167528"><ele>261.0</ele><time>2026-04-27T11:14:47Z</time></trkpt><trkpt lat="37.90151024875183" lon="-4.404096662149024"><ele>263.3333333333333</ele><time>2026-04-27T11:14:48Z</time></trkpt><trkpt lat="37.90147757131057" lon="-4.40383002450745"><ele>265.66666666666663</ele><time>2026-04-27T11:14:49Z</time></trkpt><trkpt lat="37.90144039699276" lon="-4.4035686881417195"><ele>268.0</ele><time>2026-04-27T11:14:50Z</time></trkpt><trkpt lat="37.901401709915355" lon="-4.40331595144775"><ele>268.0</ele><time>2026-04-27T11:14:51Z</time></trkpt><trkpt lat="37.901358418921355" lon="-4.4030638362224055"><ele>268.0</ele><time>2026-04-27T11:14:52Z</time></trkpt><trkpt lat="37.901315808401534" lon="-4.402815854933019"><ele>268.0</ele><time>2026-04-27T11:14:53Z</time></trkpt><trkpt lat="37.90126632153328" lon="-4.402564914177826"><ele>270.3333333333333</ele><time>2026-04-27T11:14:54Z</time></trkpt><trkpt lat="37.90121363123867" lon="-4.4023158160324884"><ele>272.6666666666667</ele><time>2026-04-27T11:14:55Z</time></trkpt><trkpt lat="37.90115788857233" lon="-4.402067763741245"><ele>275.0</ele><time>2026-04-27T11:14:56Z</time></trkpt><trkpt lat="37.901103840181996" lon="-4.401816100163578"><ele>276.6666666666667</ele><time>2026-04-27T11:14:57Z</time></trkpt><trkpt lat="37.90104218004175" lon="-4.401554723463772"><ele>278.3333333333333</ele><time>2026-04-27T11:14:58Z</time></trkpt><trkpt lat="37.90098120853878" lon="-4.401285920960904"><ele>280.0</ele><time>2026-04-27T11:14:59Z</time></trkpt><trkpt lat="37.90091613264087" lon="-4.401012728596315"><ele>280.0</ele><time>2026-04-27T11:15:00Z</time></trkpt><trkpt lat="37.90085278033044" lon="-4.400744392164602"><ele>280.0</ele><time>2026-04-27T11:15:01Z</time></trkpt><trkpt lat="37.90079620830668" lon="-4.40048208905264"><ele>280.0</ele><time>2026-04-27T11:15:02Z</time></trkpt><trkpt lat="37.90074104992969" lon="-4.400217201648842"><ele>280.0</ele><time>2026-04-27T11:15:03Z</time></trkpt><trkpt lat="37.90069467861595" lon="-4.399950910208756"><ele>280.0</ele><time>2026-04-27T11:15:04Z</time></trkpt><trkpt lat="37.90065608453884" lon="-4.399677038412787"><ele>280.0</ele><time>2026-04-27T11:15:05Z</time></trkpt><trkpt lat="37.900623270923624" lon="-4.3993956091363975"><ele>282.0</ele><time>2026-04-27T11:15:06Z</time></trkpt><trkpt lat="37.900600575772806" lon="-4.399121067558173"><ele>284.0</ele><time>2026-04-27T11:15:07Z</time></trkpt><trkpt lat="37.90058953542593" lon="-4.39884366484116"><ele>286.0</ele><time>2026-04-27T11:15:08Z</time></trkpt><trkpt lat="37.9005863380556" lon="-4.398562411241809"><ele>288.0</ele><time>2026-04-27T11:15:09Z</time></trkpt><trkpt lat="37.900592594509675" lon="-4.398281669526279"><ele>290.0</ele><time>2026-04-27T11:15:10Z</time></trkpt><trkpt lat="37.900611333057164" lon="-4.397997805901454"><ele>292.0</ele><time>2026-04-27T11:15:11Z</time></trkpt><trkpt lat="37.90063647476719" lon="-4.397712519929567"><ele>294.5</ele><time>2026-04-27T11:15:12Z</time></trkpt><trkpt lat="37.90066933903438" lon="-4.397427852078754"><ele>297.0</ele><time>2026-04-27T11:15:13Z</time></trkpt><trkpt lat="37.90071229093628" lon="-4.397141238070445"><ele>298.0</ele><time>2026-04-27T11:15:14Z</time></trkpt><trkpt lat="37.90076545007995" lon="-4.3968580765845395"><ele>299.0</ele><time>2026-04-27T11:15:15Z</time></trkpt><trkpt lat="37.90082544291363" lon="-4.396580859506117"><ele>299.5</ele><time>2026-04-27T11:15:16Z</time></trkpt><trkpt lat="37.90089088064567" lon="-4.3963062437693905"><ele>300.0</ele><time>2026-04-27T11:15:17Z</time></trkpt><trkpt lat="37.90096422789449" lon="-4.396037013789107"><ele>303.5</ele><time>2026-04-27T11:15:18Z</time></trkpt><trkpt lat="37.90103665424379" lon="-4.395766859207369"><ele>307.0</ele><time>2026-04-27T11:15:19Z</time></trkpt><trkpt lat="37.901107022441224" lon="-4.395491662449274"><ele>307.0</ele><time>2026-04-27T11:15:20Z</time></trkpt><trkpt lat="37.901179370775154" lon="-4.395211595912981"><ele>307.0</ele><time>2026-04-27T11:15:21Z</time></trkpt><trkpt lat="37.90125489781839" lon="-4.394930164892938"><ele>308.5</ele><time>2026-04-27T11:15:22Z</time></trkpt><trkpt lat="37.90132959102617" lon="-4.394647895474508"><ele>310.0</ele><time>2026-04-27T11:15:23Z</time></trkpt><trkpt lat="37.901403283020265" lon="-4.394367745645357"><ele>310.0</ele><time>2026-04-27T11:15:24Z</time></trkpt><trkpt lat="37.90147303474248" lon="-4.3940803458764695"><ele>310.0</ele><time>2026-04-27T11:15:25Z</time></trkpt><trkpt lat="37.90153596079598" lon="-4.393789329208991"><ele>310.0</ele><time>2026-04-27T11:15:26Z</time></trkpt><trkpt lat="37.90158519726886" lon="-4.393492531965345"><ele>310.0</ele><time>2026-04-27T11:15:27Z</time></trkpt><trkpt lat="37.90162063054871" lon="-4.393184731072242"><ele>310.0</ele><time>2026-04-27T11:15:28Z</time></trkpt><trkpt lat="37.901641266031184" lon="-4.392877185382465"><ele>310.0</ele><time>2026-04-27T11:15:29Z</time></trkpt><trkpt lat="37.90164855452632" lon="-4.392571192506508"><ele>310.0</ele><time>2026-04-27T11:15:30Z</time></trkpt><trkpt lat="37.90164779267885" lon="-4.392268217586301"><ele>310.0</ele><time>2026-04-27T11:15:31Z</time></trkpt><trkpt lat="37.9016459349856" lon="-4.391965064570588"><ele>310.5</ele><time>2026-04-27T11:15:32Z</time></trkpt><trkpt lat="37.90164477601592" lon="-4.3916696426893935"><ele>311.0</ele><time>2026-04-27T11:15:33Z</time></trkpt><trkpt lat="37.90164360695406" lon="-4.391374596285938"><ele>311.33333333333337</ele><time>2026-04-27T11:15:34Z</time></trkpt><trkpt lat="37.90164206145082" lon="-4.391088377751886"><ele>311.6666666666667</ele><time>2026-04-27T11:15:35Z</time></trkpt><trkpt lat="37.90164329366076" lon="-4.390812984030943"><ele>312.0</ele><time>2026-04-27T11:15:36Z</time></trkpt><trkpt lat="37.901658487390854" lon="-4.390563508347914"><ele>312.3333333333333</ele><time>2026-04-27T11:15:37Z</time></trkpt><trkpt lat="37.90169689562895" lon="-4.390321217228344"><ele>312.66666666666663</ele><time>2026-04-27T11:15:38Z</time></trkpt><trkpt lat="37.90175223723647" lon="-4.390077540332747"><ele>313.0</ele><time>2026-04-27T11:15:39Z</time></trkpt><trkpt lat="37.901827621611865" lon="-4.389831198383812"><ele>311.3333333333333</ele><time>2026-04-27T11:15:40Z</time></trkpt><trkpt lat="37.901923766522465" lon="-4.389593914528881"><ele>309.6666666666667</ele><time>2026-04-27T11:15:41Z</time></trkpt><trkpt lat="37.902034162021174" lon="-4.389363763908283"><ele>308.0</ele><time>2026-04-27T11:15:42Z</time></trkpt><trkpt lat="37.90216098582652" lon="-4.389141353124963"><ele>308.0</ele><time>2026-04-27T11:15:43Z</time></trkpt><trkpt lat="37.90230266419402" lon="-4.388937111807391"><ele>308.0</ele><time>2026-04-27T11:15:44Z</time></trkpt><trkpt lat="37.90246184173878" lon="-4.388747995060938"><ele>308.0</ele><time>2026-04-27T11:15:45Z</time></trkpt><trkpt lat="37.90261923937042" lon="-4.388557684561253"><ele>309.33333333333337</ele><time>2026-04-27T11:15:46Z</time></trkpt><trkpt lat="37.90277396204392" lon="-4.388368405289119"><ele>310.6666666666667</ele><time>2026-04-27T11:15:47Z</time></trkpt><trkpt lat="37.902926067940754" lon="-4.388178084745198"><ele>312.0</ele><time>2026-04-27T11:15:48Z</time></trkpt><trkpt lat="37.9030747914139" lon="-4.387984616691814"><ele>313.0</ele><time>2026-04-27T11:15:49Z</time></trkpt><trkpt lat="37.90321195502367" lon="-4.387788824097966"><ele>314.0</ele><time>2026-04-27T11:15:50Z</time></trkpt><trkpt lat="37.90333667948445" lon="-4.387575916678356"><ele>315.0</ele><time>2026-04-27T11:15:51Z</time></trkpt><trkpt lat="37.903447537095204" lon="-4.387349990324336"><ele>315.3333333333333</ele><time>2026-04-27T11:15:52Z</time></trkpt><trkpt lat="37.90353854355174" lon="-4.387107301296707"><ele>315.66666666666663</ele><time>2026-04-27T11:15:53Z</time></trkpt><trkpt lat="37.90361325566415" lon="-4.3868508584994945"><ele>316.0</ele><time>2026-04-27T11:15:54Z</time></trkpt><trkpt lat="37.903676675433054" lon="-4.3865902879758725"><ele>317.3333333333333</ele><time>2026-04-27T11:15:55Z</time></trkpt><trkpt lat="37.90373373921469" lon="-4.386328036812624"><ele>318.6666666666667</ele><time>2026-04-27T11:15:56Z</time></trkpt><trkpt lat="37.9037849659607" lon="-4.386062284538444"><ele>320.0</ele><time>2026-04-27T11:15:57Z</time></trkpt><trkpt lat="37.90383341252691" lon="-4.385795466810695"><ele>320.0</ele><time>2026-04-27T11:15:58Z</time></trkpt><trkpt lat="37.903884580750265" lon="-4.385528075455833"><ele>320.0</ele><time>2026-04-27T11:15:59Z</time></trkpt><trkpt lat="37.90393603838283" lon="-4.385253844393958"><ele>320.0</ele><time>2026-04-27T11:16:00Z</time></trkpt><trkpt lat="37.90398863826254" lon="-4.384974761687475"><ele>321.5</ele><time>2026-04-27T11:16:01Z</time></trkpt><trkpt lat="37.90404212423657" lon="-4.384694484578552"><ele>323.0</ele><time>2026-04-27T11:16:02Z</time></trkpt><trkpt lat="37.90409053006413" lon="-4.384407303405679"><ele>324.0</ele><time>2026-04-27T11:16:03Z</time></trkpt><trkpt lat="37.90412401587336" lon="-4.384123370515293"><ele>325.0</ele><time>2026-04-27T11:16:04Z</time></trkpt><trkpt lat="37.90413717731479" lon="-4.383838772054293"><ele>325.5</ele><time>2026-04-27T11:16:05Z</time></trkpt><trkpt lat="37.90412531441704" lon="-4.383543833638316"><ele>326.0</ele><time>2026-04-27T11:16:06Z</time></trkpt><trkpt lat="37.904087395211256" lon="-4.383253227039205"><ele>325.5</ele><time>2026-04-27T11:16:07Z</time></trkpt><trkpt lat="37.90402083674534" lon="-4.382971335623092"><ele>325.0</ele><time>2026-04-27T11:16:08Z</time></trkpt><trkpt lat="37.903944859493215" lon="-4.382699785375454"><ele>325.0</ele><time>2026-04-27T11:16:09Z</time></trkpt><trkpt lat="37.90385046561435" lon="-4.3824366080096615"><ele>325.0</ele><time>2026-04-27T11:16:10Z</time></trkpt><trkpt lat="37.90373055838708" lon="-4.382189441794089"><ele>322.0</ele><time>2026-04-27T11:16:11Z</time></trkpt><trkpt lat="37.90359196515566" lon="-4.38196289132001"><ele>319.0</ele><time>2026-04-27T11:16:12Z</time></trkpt><trkpt lat="37.90343924753487" lon="-4.381752390058131"><ele>318.66666666666663</ele><time>2026-04-27T11:16:13Z</time></trkpt><trkpt lat="37.90327975979699" lon="-4.381563826620457"><ele>318.3333333333333</ele><time>2026-04-27T11:16:14Z</time></trkpt><trkpt lat="37.903109358815634" lon="-4.381394421160389"><ele>318.0</ele><time>2026-04-27T11:16:15Z</time></trkpt><trkpt lat="37.902923326900215" lon="-4.381250817226497"><ele>318.0</ele><time>2026-04-27T11:16:16Z</time></trkpt><trkpt lat="37.90272884324831" lon="-4.381123930125927"><ele>318.0</ele><time>2026-04-27T11:16:17Z</time></trkpt><trkpt lat="37.90252353857152" lon="-4.381013397483519"><ele>318.0</ele><time>2026-04-27T11:16:18Z</time></trkpt><trkpt lat="37.90231823946379" lon="-4.38090851873205"><ele>317.3333333333333</ele><time>2026-04-27T11:16:19Z</time></trkpt><trkpt lat="37.90211857395397" lon="-4.380794657911451"><ele>316.66666666666663</ele><time>2026-04-27T11:16:20Z</time></trkpt><trkpt lat="37.90192591142384" lon="-4.380665163191386"><ele>316.0</ele><time>2026-04-27T11:16:21Z</time></trkpt><trkpt lat="37.90175292721058" lon="-4.380478171963304"><ele>318.3333333333333</ele><time>2026-04-27T11:16:22Z</time></trkpt><trkpt lat="37.90159362813902" lon="-4.3802842040232015"><ele>320.6666666666667</ele><time>2026-04-27T11:16:23Z</time></trkpt><trkpt lat="37.90145362779068" lon="-4.380062861211454"><ele>323.0</ele><time>2026-04-27T11:16:24Z</time></trkpt><trkpt lat="37.90133351553236" lon="-4.3798204569018875"><ele>323.0</ele><time>2026-04-27T11:16:25Z</time></trkpt><trkpt lat="37.90123315902271" lon="-4.379566380233754"><ele>323.0</ele><time>2026-04-27T11:16:26Z</time></trkpt><trkpt lat="37.90115410511577" lon="-4.379296801469624"><ele>323.0</ele><time>2026-04-27T11:16:27Z</time></trkpt><trkpt lat="37.90109122843757" lon="-4.379015716078059"><ele>323.0</ele><time>2026-04-27T11:16:28Z</time></trkpt><trkpt lat="37.9010473486245" lon="-4.378723619671728"><ele>325.5</ele><time>2026-04-27T11:16:29Z</time></trkpt><trkpt lat="37.901018567031805" lon="-4.378425325779009"><ele>328.0</ele><time>2026-04-27T11:16:30Z</time></trkpt><trkpt lat="37.900997501727225" lon="-4.378123566889188"><ele>330.0</ele><time>2026-04-27T11:16:31Z</time></trkpt><trkpt lat="37.90097232076931" lon="-4.377823090596072"><ele>332.0</ele><time>2026-04-27T11:16:32Z</time></trkpt><trkpt lat="37.900921383042814" lon="-4.3775278280222105"><ele>337.0</ele><time>2026-04-27T11:16:33Z</time></trkpt><trkpt lat="37.90085185542885" lon="-4.377239260248818"><ele>342.0</ele><time>2026-04-27T11:16:34Z</time></trkpt><trkpt lat="37.90076859851437" lon="-4.376964017750239"><ele>342.0</ele><time>2026-04-27T11:16:35Z</time></trkpt><trkpt lat="37.90066129744188" lon="-4.376714570138648"><ele>342.0</ele><time>2026-04-27T11:16:36Z</time></trkpt><trkpt lat="37.90052714656876" lon="-4.376481992149213"><ele>339.0</ele><time>2026-04-27T11:16:37Z</time></trkpt><trkpt lat="37.90037510884556" lon="-4.376259357006851"><ele>336.0</ele><time>2026-04-27T11:16:38Z</time></trkpt><trkpt lat="37.90021344724955" lon="-4.376054926439753"><ele>340.0</ele><time>2026-04-27T11:16:39Z</time></trkpt><trkpt lat="37.90004888564548" lon="-4.375860117347054"><ele>344.0</ele><time>2026-04-27T11:16:40Z</time></trkpt><trkpt lat="37.89987982945552" lon="-4.375666404398069"><ele>339.5</ele><time>2026-04-27T11:16:41Z</time></trkpt><trkpt lat="37.899715229329466" lon="-4.375469023370806"><ele>335.0</ele><time>2026-04-27T11:16:42Z</time></trkpt><trkpt lat="37.89955585953905" lon="-4.375269448369905"><ele>335.0</ele><time>2026-04-27T11:16:43Z</time></trkpt><trkpt lat="37.89940383628096" lon="-4.375044486866758"><ele>335.0</ele><time>2026-04-27T11:16:44Z</time></trkpt><trkpt lat="37.89927298445812" lon="-4.374801561969107"><ele>338.5</ele><time>2026-04-27T11:16:45Z</time></trkpt><trkpt lat="37.89915654993047" lon="-4.374542680899755"><ele>342.0</ele><time>2026-04-27T11:16:46Z</time></trkpt><trkpt lat="37.89905469645885" lon="-4.374276032793554"><ele>342.0</ele><time>2026-04-27T11:16:47Z</time></trkpt><trkpt lat="37.898954922195266" lon="-4.374007664462574"><ele>342.0</ele><time>2026-04-27T11:16:48Z</time></trkpt><trkpt lat="37.898850312942145" lon="-4.373743517058717"><ele>340.0</ele><time>2026-04-27T11:16:49Z</time></trkpt><trkpt lat="37.89873644503723" lon="-4.373514436663564"><ele>338.0</ele><time>2026-04-27T11:16:50Z</time></trkpt><trkpt lat="37.89861491927707" lon="-4.373317108298603"><ele>336.0</ele><time>2026-04-27T11:16:51Z</time></trkpt><trkpt lat="37.89848029204432" lon="-4.373135522955962"><ele>339.6666666666667</ele><time>2026-04-27T11:16:52Z</time></trkpt><trkpt lat="37.89833821492487" lon="-4.372976702660926"><ele>343.33333333333337</ele><time>2026-04-27T11:16:53Z</time></trkpt><trkpt lat="37.898191672638255" lon="-4.372845271171249"><ele>347.0</ele><time>2026-04-27T11:16:54Z</time></trkpt><trkpt lat="37.898031977437604" lon="-4.3727273540801415"><ele>347.0</ele><time>2026-04-27T11:16:55Z</time></trkpt><trkpt lat="37.89785372238598" lon="-4.372619694921816"><ele>347.0</ele><time>2026-04-27T11:16:56Z</time></trkpt><trkpt lat="37.89765930347519" lon="-4.372524628862712"><ele>347.0</ele><time>2026-04-27T11:16:57Z</time></trkpt><trkpt lat="37.89745770037398" lon="-4.372450732664227"><ele>346.6666666666667</ele><time>2026-04-27T11:16:58Z</time></trkpt><trkpt lat="37.89724326522535" lon="-4.372396491764393"><ele>346.3333333333333</ele><time>2026-04-27T11:16:59Z</time></trkpt><trkpt lat="37.89702317037436" lon="-4.372364815826111"><ele>346.0</ele><time>2026-04-27T11:17:00Z</time></trkpt><trkpt lat="37.896797109361906" lon="-4.372360631951136"><ele>344.66666666666663</ele><time>2026-04-27T11:17:01Z</time></trkpt><trkpt lat="37.89658158476439" lon="-4.372360374318952"><ele>343.3333333333333</ele><time>2026-04-27T11:17:02Z</time></trkpt><trkpt lat="37.89637864363282" lon="-4.372348702062769"><ele>342.0</ele><time>2026-04-27T11:17:03Z</time></trkpt><trkpt lat="37.896181216421645" lon="-4.372323333226262"><ele>342.0</ele><time>2026-04-27T11:17:04Z</time></trkpt><trkpt lat="37.89597765870839" lon="-4.372281486810605"><ele>342.0</ele><time>2026-04-27T11:17:05Z</time></trkpt><trkpt lat="37.8957887512053" lon="-4.372208703604102"><ele>342.0</ele><time>2026-04-27T11:17:06Z</time></trkpt><trkpt lat="37.89560798852614" lon="-4.37211802011424"><ele>339.6666666666667</ele><time>2026-04-27T11:17:07Z</time></trkpt><trkpt lat="37.895416604099324" lon="-4.372008921704171"><ele>337.33333333333337</ele><time>2026-04-27T11:17:08Z</time></trkpt><trkpt lat="37.89523714913782" lon="-4.371875213145413"><ele>335.0</ele><time>2026-04-27T11:17:09Z</time></trkpt><trkpt lat="37.89506102919012" lon="-4.371742577501373"><ele>335.0</ele><time>2026-04-27T11:17:10Z</time></trkpt><trkpt lat="37.894885919278636" lon="-4.371616139397951"><ele>335.0</ele><time>2026-04-27T11:17:11Z</time></trkpt><trkpt lat="37.89470878639406" lon="-4.371493644793856"><ele>335.0</ele><time>2026-04-27T11:17:12Z</time></trkpt><trkpt lat="37.89452769475514" lon="-4.371384807388701"><ele>335.33333333333337</ele><time>2026-04-27T11:17:13Z</time></trkpt><trkpt lat="37.89434143886527" lon="-4.371300020255551"><ele>335.6666666666667</ele><time>2026-04-27T11:17:14Z</time></trkpt><trkpt lat="37.8941414449158" lon="-4.37122664291409"><ele>336.0</ele><time>2026-04-27T11:17:15Z</time></trkpt><trkpt lat="37.89393621464347" lon="-4.371178692833306"><ele>336.0</ele><time>2026-04-27T11:17:16Z</time></trkpt><trkpt lat="37.89373194168658" lon="-4.371163789488189"><ele>336.0</ele><time>2026-04-27T11:17:17Z</time></trkpt><trkpt lat="37.893530970924445" lon="-4.371161543269325"><ele>336.0</ele><time>2026-04-27T11:17:18Z</time></trkpt><trkpt lat="37.8933322682817" lon="-4.371181807561103"><ele>337.0</ele><time>2026-04-27T11:17:19Z</time></trkpt><trkpt lat="37.89314032774358" lon="-4.371227805564694"><ele>338.0</ele><time>2026-04-27T11:17:20Z</time></trkpt><trkpt lat="37.89296079158262" lon="-4.371296006774638"><ele>339.0</ele><time>2026-04-27T11:17:21Z</time></trkpt><trkpt lat="37.892792416724966" lon="-4.37137334894985"><ele>339.0</ele><time>2026-04-27T11:17:22Z</time></trkpt><trkpt lat="37.89264355950116" lon="-4.371460102910734"><ele>339.0</ele><time>2026-04-27T11:17:23Z</time></trkpt><trkpt lat="37.89249703698" lon="-4.371555227392118"><ele>339.0</ele><time>2026-04-27T11:17:24Z</time></trkpt><trkpt lat="37.892352075674836" lon="-4.371671281849083"><ele>339.0</ele><time>2026-04-27T11:17:25Z</time></trkpt><trkpt lat="37.89221847380835" lon="-4.371798286108524"><ele>339.0</ele><time>2026-04-27T11:17:26Z</time></trkpt><trkpt lat="37.892084416611745" lon="-4.371923453151162"><ele>339.0</ele><time>2026-04-27T11:17:27Z</time></trkpt><trkpt lat="37.89195604924884" lon="-4.372044292283973"><ele>339.0</ele><time>2026-04-27T11:17:28Z</time></trkpt><trkpt lat="37.8918294927917" lon="-4.372165979793568"><ele>339.0</ele><time>2026-04-27T11:17:29Z</time></trkpt><trkpt lat="37.89170183030906" lon="-4.372291426896384"><ele>339.0</ele><time>2026-04-27T11:17:30Z</time></trkpt><trkpt lat="37.89156776687643" lon="-4.372423381426945"><ele>338.0</ele><time>2026-04-27T11:17:31Z</time></trkpt><trkpt lat="37.89143299111657" lon="-4.372557442068802"><ele>337.0</ele><time>2026-04-27T11:17:32Z</time></trkpt><trkpt lat="37.89129401947084" lon="-4.372687547278637"><ele>336.0</ele><time>2026-04-27T11:17:33Z</time></trkpt><trkpt lat="37.891147367035884" lon="-4.372823674869119"><ele>336.0</ele><time>2026-04-27T11:17:34Z</time></trkpt><trkpt lat="37.89099975166734" lon="-4.372962900028224"><ele>336.0</ele><time>2026-04-27T11:17:35Z</time></trkpt><trkpt lat="37.890844775893086" lon="-4.3730992628266705"><ele>336.0</ele><time>2026-04-27T11:17:36Z</time></trkpt><trkpt lat="37.89067770588683" lon="-4.37323516180771"><ele>334.3333333333333</ele><time>2026-04-27T11:17:37Z</time></trkpt><trkpt lat="37.890500091670766" lon="-4.373359600467792"><ele>332.66666666666663</ele><time>2026-04-27T11:17:38Z</time></trkpt><trkpt lat="37.890309499308245" lon="-4.37347177825945"><ele>331.0</ele><time>2026-04-27T11:17:39Z</time></trkpt><trkpt lat="37.89011181965067" lon="-4.373567019128638"><ele>330.66666666666663</ele><time>2026-04-27T11:17:40Z</time></trkpt><trkpt lat="37.88990960609399" lon="-4.373636961574066"><ele>330.3333333333333</ele><time>2026-04-27T11:17:41Z</time></trkpt><trkpt lat="37.88970709413029" lon="-4.3736785020024715"><ele>330.0</ele><time>2026-04-27T11:17:42Z</time></trkpt><trkpt lat="37.88950428421455" lon="-4.373691541441673"><ele>330.0</ele><time>2026-04-27T11:17:43Z</time></trkpt><trkpt lat="37.88929997981449" lon="-4.373678840607956"><ele>330.0</ele><time>2026-04-27T11:17:44Z</time></trkpt><trkpt lat="37.88910224826943" lon="-4.3736488577782255"><ele>330.0</ele><time>2026-04-27T11:17:45Z</time></trkpt><trkpt lat="37.88890793590879" lon="-4.373598272518534"><ele>328.6666666666667</ele><time>2026-04-27T11:17:46Z</time></trkpt><trkpt lat="37.888710462137034" lon="-4.373522758791189"><ele>327.33333333333337</ele><time>2026-04-27T11:17:47Z</time></trkpt><trkpt lat="37.888535839967666" lon="-4.373425114830746"><ele>326.0</ele><time>2026-04-27T11:17:48Z</time></trkpt><trkpt lat="37.88836447760558" lon="-4.373315659638924"><ele>323.6666666666667</ele><time>2026-04-27T11:17:49Z</time></trkpt><trkpt lat="37.88819793528281" lon="-4.373193008501857"><ele>321.3333333333333</ele><time>2026-04-27T11:17:50Z</time></trkpt><trkpt lat="37.88804112087505" lon="-4.37304720863839"><ele>319.0</ele><time>2026-04-27T11:17:51Z</time></trkpt><trkpt lat="37.88789844743491" lon="-4.372878363940803"><ele>319.0</ele><time>2026-04-27T11:17:52Z</time></trkpt><trkpt lat="37.887761930159606" lon="-4.372694258996838"><ele>319.0</ele><time>2026-04-27T11:17:53Z</time></trkpt><trkpt lat="37.88763766379691" lon="-4.372505515736512"><ele>319.0</ele><time>2026-04-27T11:17:54Z</time></trkpt><trkpt lat="37.88752179395363" lon="-4.372323425479176"><ele>316.66666666666663</ele><time>2026-04-27T11:17:55Z</time></trkpt><trkpt lat="37.887410880741044" lon="-4.372145112944566"><ele>314.3333333333333</ele><time>2026-04-27T11:17:56Z</time></trkpt><trkpt lat="37.88730667407104" lon="-4.37197103199754"><ele>312.0</ele><time>2026-04-27T11:17:57Z</time></trkpt><trkpt lat="37.887196953689624" lon="-4.371798157144017"><ele>312.0</ele><time>2026-04-27T11:17:58Z</time></trkpt><trkpt lat="37.88708172758354" lon="-4.371618579150274"><ele>312.0</ele><time>2026-04-27T11:17:59Z</time></trkpt><trkpt lat="37.886968336002866" lon="-4.3714465368999615"><ele>312.0</ele><time>2026-04-27T11:18:00Z</time></trkpt><trkpt lat="37.886849894198775" lon="-4.371284359878658"><ele>310.0</ele><time>2026-04-27T11:18:01Z</time></trkpt><trkpt lat="37.88672251582843" lon="-4.37112786235752"><ele>308.0</ele><time>2026-04-27T11:18:02Z</time></trkpt><trkpt lat="37.8865850849963" lon="-4.370968314533658"><ele>306.0</ele><time>2026-04-27T11:18:03Z</time></trkpt><trkpt lat="37.88643389662102" lon="-4.370806669498509"><ele>306.0</ele><time>2026-04-27T11:18:04Z</time></trkpt><trkpt lat="37.88627465318732" lon="-4.370646215797362"><ele>306.0</ele><time>2026-04-27T11:18:05Z</time></trkpt><trkpt lat="37.88610777724019" lon="-4.370494678600423"><ele>306.0</ele><time>2026-04-27T11:18:06Z</time></trkpt><trkpt lat="37.88594292606966" lon="-4.370344140960742"><ele>303.6666666666667</ele><time>2026-04-27T11:18:07Z</time></trkpt><trkpt lat="37.88577408984665" lon="-4.370193625746099"><ele>301.33333333333337</ele><time>2026-04-27T11:18:08Z</time></trkpt><trkpt lat="37.88561066305773" lon="-4.3700431585359905"><ele>299.0</ele><time>2026-04-27T11:18:09Z</time></trkpt><trkpt lat="37.885456317194965" lon="-4.36989529927389"><ele>299.0</ele><time>2026-04-27T11:18:10Z</time></trkpt><trkpt lat="37.88530558146852" lon="-4.369739742878879"><ele>299.0</ele><time>2026-04-27T11:18:11Z</time></trkpt><trkpt lat="37.88516679425721" lon="-4.369575146447959"><ele>299.0</ele><time>2026-04-27T11:18:12Z</time></trkpt><trkpt lat="37.885043203419784" lon="-4.3694037939133175"><ele>300.0</ele><time>2026-04-27T11:18:13Z</time></trkpt><trkpt lat="37.8849376850036" lon="-4.369216768013857"><ele>301.0</ele><time>2026-04-27T11:18:14Z</time></trkpt><trkpt lat="37.88484446128878" lon="-4.369026967633544"><ele>302.0</ele><time>2026-04-27T11:18:15Z</time></trkpt><trkpt lat="37.88475987934907" lon="-4.368832374070184"><ele>302.0</ele><time>2026-04-27T11:18:16Z</time></trkpt><trkpt lat="37.88468303593755" lon="-4.368640185746647"><ele>302.0</ele><time>2026-04-27T11:18:17Z</time></trkpt><trkpt lat="37.884609480369335" lon="-4.368439163190969"><ele>302.0</ele><time>2026-04-27T11:18:18Z</time></trkpt><trkpt lat="37.88454375393764" lon="-4.368235877026756"><ele>300.6666666666667</ele><time>2026-04-27T11:18:19Z</time></trkpt><trkpt lat="37.884482024057334" lon="-4.368024678868578"><ele>299.3333333333333</ele><time>2026-04-27T11:18:20Z</time></trkpt><trkpt lat="37.88441730824089" lon="-4.367803634606172"><ele>298.0</ele><time>2026-04-27T11:18:21Z</time></trkpt><trkpt lat="37.8843454563022" lon="-4.367577832339391"><ele>298.0</ele><time>2026-04-27T11:18:22Z</time></trkpt><trkpt lat="37.88427179204686" lon="-4.36735285577895"><ele>298.0</ele><time>2026-04-27T11:18:23Z</time></trkpt><trkpt lat="37.88419812883144" lon="-4.3671299132202055"><ele>298.0</ele><time>2026-04-27T11:18:24Z</time></trkpt><trkpt lat="37.88412664126086" lon="-4.366905080482798"><ele>298.3333333333333</ele><time>2026-04-27T11:18:25Z</time></trkpt><trkpt lat="37.884053483039175" lon="-4.36668114638668"><ele>298.6666666666667</ele><time>2026-04-27T11:18:26Z</time></trkpt><trkpt lat="37.8839770137686" lon="-4.366453447929181"><ele>299.0</ele><time>2026-04-27T11:18:27Z</time></trkpt><trkpt lat="37.883905646945195" lon="-4.3662261118644805"><ele>299.0</ele><time>2026-04-27T11:18:28Z</time></trkpt><trkpt lat="37.88383247252479" lon="-4.365992885219746"><ele>299.0</ele><time>2026-04-27T11:18:29Z</time></trkpt><trkpt lat="37.88375494986195" lon="-4.365763210189816"><ele>299.0</ele><time>2026-04-27T11:18:30Z</time></trkpt><trkpt lat="37.88367683727919" lon="-4.365546867110844"><ele>298.33333333333337</ele><time>2026-04-27T11:18:31Z</time></trkpt><trkpt lat="37.88360580421021" lon="-4.3653372519315585"><ele>297.6666666666667</ele><time>2026-04-27T11:18:32Z</time></trkpt><trkpt lat="37.88354473016709" lon="-4.365147148517792"><ele>297.0</ele><time>2026-04-27T11:18:33Z</time></trkpt><trkpt lat="37.88348903982993" lon="-4.364959901381843"><ele>297.0</ele><time>2026-04-27T11:18:34Z</time></trkpt><trkpt lat="37.8834365481254" lon="-4.364785084585363"><ele>297.0</ele><time>2026-04-27T11:18:35Z</time></trkpt><trkpt lat="37.88339472410012" lon="-4.3646102297603"><ele>297.0</ele><time>2026-04-27T11:18:36Z</time></trkpt><trkpt lat="37.88334957208563" lon="-4.364418121214757"><ele>297.0</ele><time>2026-04-27T11:18:37Z</time></trkpt><trkpt lat="37.88330190261664" lon="-4.364220434376983"><ele>297.0</ele><time>2026-04-27T11:18:38Z</time></trkpt><trkpt lat="37.883256853447826" lon="-4.364006718998744"><ele>297.0</ele><time>2026-04-27T11:18:39Z</time></trkpt><trkpt lat="37.88321435138973" lon="-4.363789927549035"><ele>297.0</ele><time>2026-04-27T11:18:40Z</time></trkpt><trkpt lat="37.883179283564516" lon="-4.363559683009057"><ele>297.0</ele><time>2026-04-27T11:18:41Z</time></trkpt><trkpt lat="37.883149296672926" lon="-4.363321400790218"><ele>297.0</ele><time>2026-04-27T11:18:42Z</time></trkpt><trkpt lat="37.88311604277125" lon="-4.363076510177311"><ele>297.0</ele><time>2026-04-27T11:18:43Z</time></trkpt><trkpt lat="37.883092410359694" lon="-4.36282611346176"><ele>297.0</ele><time>2026-04-27T11:18:44Z</time></trkpt><trkpt lat="37.883065226058136" lon="-4.362566475323112"><ele>297.0</ele><time>2026-04-27T11:18:45Z</time></trkpt><trkpt lat="37.88303479439039" lon="-4.362302687895198"><ele>297.0</ele><time>2026-04-27T11:18:46Z</time></trkpt><trkpt lat="37.88300607588902" lon="-4.362042408880202"><ele>297.0</ele><time>2026-04-27T11:18:47Z</time></trkpt><trkpt lat="37.882968089643825" lon="-4.361780098135752"><ele>297.0</ele><time>2026-04-27T11:18:48Z</time></trkpt><trkpt lat="37.882936381161656" lon="-4.361510265294646"><ele>296.0</ele><time>2026-04-27T11:18:49Z</time></trkpt><trkpt lat="37.88290650017216" lon="-4.361238175373488"><ele>295.0</ele><time>2026-04-27T11:18:50Z</time></trkpt><trkpt lat="37.88286675972132" lon="-4.360963528367946"><ele>294.0</ele><time>2026-04-27T11:18:51Z</time></trkpt><trkpt lat="37.88283519506839" lon="-4.360682491959159"><ele>293.5</ele><time>2026-04-27T11:18:52Z</time></trkpt><trkpt lat="37.8828058744516" lon="-4.3603972565711615"><ele>293.0</ele><time>2026-04-27T11:18:53Z</time></trkpt><trkpt lat="37.882766270314775" lon="-4.360109200866136"><ele>293.0</ele><time>2026-04-27T11:18:54Z</time></trkpt><trkpt lat="37.88273080987409" lon="-4.359813964772427"><ele>293.0</ele><time>2026-04-27T11:18:55Z</time></trkpt><trkpt lat="37.88269666422119" lon="-4.359513199593863"><ele>292.5</ele><time>2026-04-27T11:18:56Z</time></trkpt><trkpt lat="37.88265676170612" lon="-4.3591821453269475"><ele>292.0</ele><time>2026-04-27T11:18:57Z</time></trkpt><trkpt lat="37.882614139357415" lon="-4.358852896671444"><ele>294.5</ele><time>2026-04-27T11:18:58Z</time></trkpt><trkpt lat="37.88257532199916" lon="-4.358544450990998"><ele>297.0</ele><time>2026-04-27T11:18:59Z</time></trkpt><trkpt lat="37.88253427544369" lon="-4.358237726209745"><ele>296.5</ele><time>2026-04-27T11:19:00Z</time></trkpt><trkpt lat="37.882496074151845" lon="-4.357929472410253"><ele>296.0</ele><time>2026-04-27T11:19:01Z</time></trkpt><trkpt lat="37.88246088561794" lon="-4.357623804423843"><ele>296.0</ele><time>2026-04-27T11:19:02Z</time></trkpt><trkpt lat="37.88242650285363" lon="-4.3573204102695735"><ele>296.0</ele><time>2026-04-27T11:19:03Z</time></trkpt><trkpt lat="37.882393506568064" lon="-4.357019037456853"><ele>294.5</ele><time>2026-04-27T11:19:04Z</time></trkpt><trkpt lat="37.88235952654544" lon="-4.35673748258825"><ele>293.0</ele><time>2026-04-27T11:19:05Z</time></trkpt><trkpt lat="37.88231833131657" lon="-4.356454524606304"><ele>292.5</ele><time>2026-04-27T11:19:06Z</time></trkpt><trkpt lat="37.882275846263674" lon="-4.3561658294754055"><ele>292.0</ele><time>2026-04-27T11:19:07Z</time></trkpt><trkpt lat="37.88222425330169" lon="-4.355886628556537"><ele>292.0</ele><time>2026-04-27T11:19:08Z</time></trkpt><trkpt lat="37.882153234018595" lon="-4.355606478255669"><ele>292.0</ele><time>2026-04-27T11:19:09Z</time></trkpt><trkpt lat="37.882068390385975" lon="-4.355336212088583"><ele>291.66666666666663</ele><time>2026-04-27T11:19:10Z</time></trkpt><trkpt lat="37.88197113846101" lon="-4.35507644171925"><ele>291.3333333333333</ele><time>2026-04-27T11:19:11Z</time></trkpt><trkpt lat="37.881860482716405" lon="-4.354835311604542"><ele>291.0</ele><time>2026-04-27T11:19:12Z</time></trkpt><trkpt lat="37.88173725524259" lon="-4.354605446951124"><ele>291.0</ele><time>2026-04-27T11:19:13Z</time></trkpt><trkpt lat="37.88160358220173" lon="-4.354387155093276"><ele>291.0</ele><time>2026-04-27T11:19:14Z</time></trkpt><trkpt lat="37.88146215770882" lon="-4.354193253815877"><ele>291.0</ele><time>2026-04-27T11:19:15Z</time></trkpt><trkpt lat="37.88131958051712" lon="-4.35401590951705"><ele>290.0</ele><time>2026-04-27T11:19:16Z</time></trkpt><trkpt lat="37.8811747827836" lon="-4.353854487269049"><ele>289.0</ele><time>2026-04-27T11:19:17Z</time></trkpt><trkpt lat="37.88102670203196" lon="-4.353698441753211"><ele>288.0</ele><time>2026-04-27T11:19:18Z</time></trkpt><trkpt lat="37.880878131354194" lon="-4.353545153085871"><ele>290.0</ele><time>2026-04-27T11:19:19Z</time></trkpt><trkpt lat="37.880726803096856" lon="-4.353396917952986"><ele>292.0</ele><time>2026-04-27T11:19:20Z</time></trkpt><trkpt lat="37.880563567458005" lon="-4.353238220558837"><ele>294.0</ele><time>2026-04-27T11:19:21Z</time></trkpt><trkpt lat="37.88038507142299" lon="-4.353065723510244"><ele>292.0</ele><time>2026-04-27T11:19:22Z</time></trkpt><trkpt lat="37.880200512385706" lon="-4.352878451929696"><ele>290.0</ele><time>2026-04-27T11:19:23Z</time></trkpt><trkpt lat="37.8800129226191" lon="-4.352684830301596"><ele>288.5</ele><time>2026-04-27T11:19:24Z</time></trkpt><trkpt lat="37.87981937211388" lon="-4.3524862819761125"><ele>287.0</ele><time>2026-04-27T11:19:25Z</time></trkpt><trkpt lat="37.87961991874409" lon="-4.352285323116319"><ele>285.0</ele><time>2026-04-27T11:19:26Z</time></trkpt><trkpt lat="37.87942127564262" lon="-4.352091067420006"><ele>283.0</ele><time>2026-04-27T11:19:27Z</time></trkpt><trkpt lat="37.879219931001586" lon="-4.351897199080737"><ele>281.5</ele><time>2026-04-27T11:19:28Z</time></trkpt><trkpt lat="37.87901086051284" lon="-4.3517049952781175"><ele>280.0</ele><time>2026-04-27T11:19:29Z</time></trkpt><trkpt lat="37.87881326680318" lon="-4.351516449388019"><ele>278.0</ele><time>2026-04-27T11:19:30Z</time></trkpt><trkpt lat="37.878620327769205" lon="-4.351326111369726"><ele>276.0</ele><time>2026-04-27T11:19:31Z</time></trkpt><trkpt lat="37.87843073690674" lon="-4.351137239382845"><ele>276.0</ele><time>2026-04-27T11:19:32Z</time></trkpt><trkpt lat="37.87826190223062" lon="-4.350967663324056"><ele>276.0</ele><time>2026-04-27T11:19:33Z</time></trkpt><trkpt lat="37.878098223591685" lon="-4.350810461154038"><ele>276.0</ele><time>2026-04-27T11:19:34Z</time></trkpt><trkpt lat="37.87794230976875" lon="-4.350660727041416"><ele>275.6666666666667</ele><time>2026-04-27T11:19:35Z</time></trkpt><trkpt lat="37.87778667759374" lon="-4.350495052251071"><ele>275.33333333333337</ele><time>2026-04-27T11:19:36Z</time></trkpt><trkpt lat="37.87760406451018" lon="-4.350286471677718"><ele>275.0</ele><time>2026-04-27T11:19:37Z</time></trkpt><trkpt lat="37.877377032590765" lon="-4.350081141536817"><ele>276.5</ele><time>2026-04-27T11:19:38Z</time></trkpt><trkpt lat="37.87717539867856" lon="-4.349807273640748"><ele>278.0</ele><time>2026-04-27T11:19:39Z</time></trkpt><trkpt lat="37.87698471720332" lon="-4.349526018282746"><ele>281.0</ele><time>2026-04-27T11:19:40Z</time></trkpt><trkpt lat="37.87683581614975" lon="-4.349228171986029"><ele>284.0</ele><time>2026-04-27T11:19:41Z</time></trkpt><trkpt lat="37.87671120872257" lon="-4.348920456922665"><ele>285.5</ele><time>2026-04-27T11:19:42Z</time></trkpt><trkpt lat="37.87661855428781" lon="-4.348591346530264"><ele>287.0</ele><time>2026-04-27T11:19:43Z</time></trkpt><trkpt lat="37.87653940918002" lon="-4.348257876335954"><ele>289.0</ele><time>2026-04-27T11:19:44Z</time></trkpt><trkpt lat="37.876480880245296" lon="-4.347911357518075"><ele>291.0</ele><time>2026-04-27T11:19:45Z</time></trkpt><trkpt lat="37.87644672569676" lon="-4.347530876147738"><ele>291.5</ele><time>2026-04-27T11:19:46Z</time></trkpt><trkpt lat="37.87643128089166" lon="-4.347143116564511"><ele>292.0</ele><time>2026-04-27T11:19:47Z</time></trkpt><trkpt lat="37.876408660691204" lon="-4.346747329581341"><ele>293.0</ele><time>2026-04-27T11:19:48Z</time></trkpt><trkpt lat="37.876367075332645" lon="-4.346332937458334"><ele>294.0</ele><time>2026-04-27T11:19:49Z</time></trkpt><trkpt lat="37.876303304233076" lon="-4.345900915713972"><ele>296.0</ele><time>2026-04-27T11:19:50Z</time></trkpt><trkpt lat="37.87623193682758" lon="-4.34545835079097"><ele>298.0</ele><time>2026-04-27T11:19:51Z</time></trkpt><trkpt lat="37.87616772300238" lon="-4.344996908503112"><ele>299.5</ele><time>2026-04-27T11:19:52Z</time></trkpt><trkpt lat="37.87612104712032" lon="-4.3445429306728744"><ele>301.0</ele><time>2026-04-27T11:19:53Z</time></trkpt><trkpt lat="37.87607516616783" lon="-4.344142597357815"><ele>303.0</ele><time>2026-04-27T11:19:54Z</time></trkpt><trkpt lat="37.87603251415244" lon="-4.343778144350632"><ele>305.0</ele><time>2026-04-27T11:19:55Z</time></trkpt><trkpt lat="37.87599212853853" lon="-4.343435052402686"><ele>305.0</ele><time>2026-04-27T11:19:56Z</time></trkpt><trkpt lat="37.87595276883987" lon="-4.343105639357706"><ele>305.0</ele><time>2026-04-27T11:19:57Z</time></trkpt><trkpt lat="37.87591594332935" lon="-4.342787111057387"><ele>306.0</ele><time>2026-04-27T11:19:58Z</time></trkpt><trkpt lat="37.87588017361968" lon="-4.342478131726807"><ele>307.0</ele><time>2026-04-27T11:19:59Z</time></trkpt><trkpt lat="37.87584440168081" lon="-4.3421665074249995"><ele>309.0</ele><time>2026-04-27T11:20:00Z</time></trkpt><trkpt lat="37.87580969315834" lon="-4.341859740355064"><ele>311.0</ele><time>2026-04-27T11:20:01Z</time></trkpt><trkpt lat="37.87577762282091" lon="-4.341553092080686"><ele>308.5</ele><time>2026-04-27T11:20:02Z</time></trkpt><trkpt lat="37.875740293224325" lon="-4.341246726710782"><ele>306.0</ele><time>2026-04-27T11:20:03Z</time></trkpt><trkpt lat="37.87569899623739" lon="-4.340942756719937"><ele>306.0</ele><time>2026-04-27T11:20:04Z</time></trkpt><trkpt lat="37.875651377509065" lon="-4.340641329470313"><ele>306.0</ele><time>2026-04-27T11:20:05Z</time></trkpt><trkpt lat="37.87559625521954" lon="-4.340349058488674"><ele>302.5</ele><time>2026-04-27T11:20:06Z</time></trkpt><trkpt lat="37.87552877275412" lon="-4.34005801990807"><ele>299.0</ele><time>2026-04-27T11:20:07Z</time></trkpt><trkpt lat="37.875436289452296" lon="-4.339767606887448"><ele>297.0</ele><time>2026-04-27T11:20:08Z</time></trkpt><trkpt lat="37.875337073039134" lon="-4.339480692247992"><ele>295.0</ele><time>2026-04-27T11:20:09Z</time></trkpt><trkpt lat="37.875225786272885" lon="-4.339189752846528"><ele>294.5</ele><time>2026-04-27T11:20:10Z</time></trkpt><trkpt lat="37.875094353955625" lon="-4.33890406203396"><ele>294.0</ele><time>2026-04-27T11:20:11Z</time></trkpt><trkpt lat="37.87495205682964" lon="-4.338621788380398"><ele>292.5</ele><time>2026-04-27T11:20:12Z</time></trkpt><trkpt lat="37.874797047006126" lon="-4.338353605994986"><ele>291.0</ele><time>2026-04-27T11:20:13Z</time></trkpt><trkpt lat="37.87462849141496" lon="-4.338096913715766"><ele>289.0</ele><time>2026-04-27T11:20:14Z</time></trkpt><trkpt lat="37.874445528100814" lon="-4.337856728670742"><ele>287.0</ele><time>2026-04-27T11:20:15Z</time></trkpt><trkpt lat="37.87425361624745" lon="-4.337635291714727"><ele>291.5</ele><time>2026-04-27T11:20:16Z</time></trkpt><trkpt lat="37.87405319058066" lon="-4.33742735405657"><ele>296.0</ele><time>2026-04-27T11:20:17Z</time></trkpt><trkpt lat="37.87385848979598" lon="-4.337224834417739"><ele>292.0</ele><time>2026-04-27T11:20:18Z</time></trkpt><trkpt lat="37.873660366564124" lon="-4.337027835695563"><ele>288.0</ele><time>2026-04-27T11:20:19Z</time></trkpt><trkpt lat="37.873463473191926" lon="-4.336840496309292"><ele>292.5</ele><time>2026-04-27T11:20:20Z</time></trkpt><trkpt lat="37.87326826793776" lon="-4.336660134538091"><ele>297.0</ele><time>2026-04-27T11:20:21Z</time></trkpt><trkpt lat="37.87307626691649" lon="-4.336482110693579"><ele>293.0</ele><time>2026-04-27T11:20:22Z</time></trkpt><trkpt lat="37.872888412510164" lon="-4.336305675699628"><ele>289.0</ele><time>2026-04-27T11:20:23Z</time></trkpt><trkpt lat="37.87270302286475" lon="-4.3361322285297"><ele>294.0</ele><time>2026-04-27T11:20:24Z</time></trkpt><trkpt lat="37.87252209940122" lon="-4.335963643674685"><ele>299.0</ele><time>2026-04-27T11:20:25Z</time></trkpt><trkpt lat="37.87233910524909" lon="-4.335790110520101"><ele>299.0</ele><time>2026-04-27T11:20:26Z</time></trkpt><trkpt lat="37.87215881960461" lon="-4.335616231282218"><ele>299.0</ele><time>2026-04-27T11:20:27Z</time></trkpt><trkpt lat="37.87197524358478" lon="-4.335447474154971"><ele>299.0</ele><time>2026-04-27T11:20:28Z</time></trkpt><trkpt lat="37.87179670451635" lon="-4.335275793366783"><ele>299.0</ele><time>2026-04-27T11:20:29Z</time></trkpt><trkpt lat="37.871622763508945" lon="-4.33510281816963"><ele>299.0</ele><time>2026-04-27T11:20:30Z</time></trkpt><trkpt lat="37.871448254555716" lon="-4.334929999859051"><ele>299.0</ele><time>2026-04-27T11:20:31Z</time></trkpt><trkpt lat="37.87128033284509" lon="-4.334757149843166"><ele>299.0</ele><time>2026-04-27T11:20:32Z</time></trkpt><trkpt lat="37.87112034894276" lon="-4.334571524751838"><ele>299.0</ele><time>2026-04-27T11:20:33Z</time></trkpt><trkpt lat="37.87097382378146" lon="-4.334363087090611"><ele>298.6666666666667</ele><time>2026-04-27T11:20:34Z</time></trkpt><trkpt lat="37.87083824517145" lon="-4.334137953958274"><ele>298.3333333333333</ele><time>2026-04-27T11:20:35Z</time></trkpt><trkpt lat="37.87071043703302" lon="-4.333905429142674"><ele>298.0</ele><time>2026-04-27T11:20:36Z</time></trkpt><trkpt lat="37.87059353602804" lon="-4.333658480891885"><ele>296.66666666666663</ele><time>2026-04-27T11:20:37Z</time></trkpt><trkpt lat="37.87048275323684" lon="-4.333407091283727"><ele>295.3333333333333</ele><time>2026-04-27T11:20:38Z</time></trkpt><trkpt lat="37.87038829814014" lon="-4.333168115632623"><ele>294.0</ele><time>2026-04-27T11:20:39Z</time></trkpt><trkpt lat="37.87030406126579" lon="-4.332942339214363"><ele>294.0</ele><time>2026-04-27T11:20:40Z</time></trkpt><trkpt lat="37.870224368322994" lon="-4.332740136451469"><ele>294.0</ele><time>2026-04-27T11:20:41Z</time></trkpt><trkpt lat="37.87015231594672" lon="-4.332558883023832"><ele>294.0</ele><time>2026-04-27T11:20:42Z</time></trkpt><trkpt lat="37.870093074519474" lon="-4.332407834989956"><ele>294.0</ele><time>2026-04-27T11:20:43Z</time></trkpt><trkpt lat="37.87004531477946" lon="-4.332294031250399"><ele>294.0</ele><time>2026-04-27T11:20:44Z</time></trkpt><trkpt lat="37.87000731391096" lon="-4.332202185677878"><ele>294.0</ele><time>2026-04-27T11:20:46Z</time></trkpt><trkpt lat="37.86997358934411" lon="-4.332086894373589"><ele>294.0</ele><time>2026-04-27T11:23:44Z</time></trkpt><trkpt lat="37.869939801875795" lon="-4.331974674387564"><ele>294.0</ele><time>2026-04-27T11:23:45Z</time></trkpt><trkpt lat="37.86989759556243" lon="-4.331847169983976"><ele>293.75</ele><time>2026-04-27T11:23:46Z</time></trkpt><trkpt lat="37.86984930194194" lon="-4.331703413726661"><ele>293.5</ele><time>2026-04-27T11:23:47Z</time></trkpt><trkpt lat="37.869791474371276" lon="-4.331532932071243"><ele>293.25</ele><time>2026-04-27T11:23:48Z</time></trkpt><trkpt lat="37.86972994490411" lon="-4.331354660975956"><ele>293.0</ele><time>2026-04-27T11:23:49Z</time></trkpt><trkpt lat="37.869669061746535" lon="-4.3311608593725826"><ele>294.33333333333337</ele><time>2026-04-27T11:23:50Z</time></trkpt><trkpt lat="37.869612322433156" lon="-4.3309543591005335"><ele>295.6666666666667</ele><time>2026-04-27T11:23:51Z</time></trkpt><trkpt lat="37.86956426719606" lon="-4.330729797890621"><ele>297.0</ele><time>2026-04-27T11:23:52Z</time></trkpt><trkpt lat="37.869530354869646" lon="-4.330497796402991"><ele>298.0</ele><time>2026-04-27T11:23:53Z</time></trkpt><trkpt lat="37.86951993105698" lon="-4.330255269166248"><ele>299.0</ele><time>2026-04-27T11:23:54Z</time></trkpt><trkpt lat="37.86951723300548" lon="-4.33000729936101"><ele>300.0</ele><time>2026-04-27T11:23:55Z</time></trkpt><trkpt lat="37.86952581550696" lon="-4.329750623803998"><ele>301.0</ele><time>2026-04-27T11:23:56Z</time></trkpt><trkpt lat="37.8695547851109" lon="-4.329494228205914"><ele>302.0</ele><time>2026-04-27T11:23:57Z</time></trkpt><trkpt lat="37.8695935970667" lon="-4.329237156973785"><ele>303.0</ele><time>2026-04-27T11:23:58Z</time></trkpt><trkpt lat="37.86965004404934" lon="-4.328983641907477"><ele>304.3333333333333</ele><time>2026-04-27T11:23:59Z</time></trkpt><trkpt lat="37.86972255366071" lon="-4.328732649366277"><ele>305.66666666666663</ele><time>2026-04-27T11:24:00Z</time></trkpt><trkpt lat="37.869813931083506" lon="-4.328487646305564"><ele>307.0</ele><time>2026-04-27T11:24:01Z</time></trkpt><trkpt lat="37.869916899729304" lon="-4.328245746734718"><ele>309.0</ele><time>2026-04-27T11:24:02Z</time></trkpt><trkpt lat="37.87003259501302" lon="-4.328004729308204"><ele>311.0</ele><time>2026-04-27T11:24:03Z</time></trkpt><trkpt lat="37.87015620485428" lon="-4.327759742539023"><ele>311.0</ele><time>2026-04-27T11:24:04Z</time></trkpt><trkpt lat="37.87028192151295" lon="-4.327504522819966"><ele>311.0</ele><time>2026-04-27T11:24:05Z</time></trkpt><trkpt lat="37.870399744153715" lon="-4.327250314524899"><ele>312.0</ele><time>2026-04-27T11:24:06Z</time></trkpt><trkpt lat="37.870525207453326" lon="-4.326996149851094"><ele>313.0</ele><time>2026-04-27T11:24:07Z</time></trkpt><trkpt lat="37.870652534239866" lon="-4.326739389402707"><ele>313.0</ele><time>2026-04-27T11:24:08Z</time></trkpt><trkpt lat="37.87078573692013" lon="-4.326483632010264"><ele>313.0</ele><time>2026-04-27T11:24:09Z</time></trkpt><trkpt lat="37.87090457249176" lon="-4.326212912576318"><ele>313.5</ele><time>2026-04-27T11:24:10Z</time></trkpt><trkpt lat="37.87103476232588" lon="-4.325947276508096"><ele>314.0</ele><time>2026-04-27T11:24:11Z</time></trkpt><trkpt lat="37.87116748143326" lon="-4.325679567442096"><ele>314.5</ele><time>2026-04-27T11:24:12Z</time></trkpt><trkpt lat="37.87130233330339" lon="-4.325408472263787"><ele>315.0</ele><time>2026-04-27T11:24:13Z</time></trkpt><trkpt lat="37.87143692059715" lon="-4.325137908969644"><ele>315.0</ele><time>2026-04-27T11:24:14Z</time></trkpt><trkpt lat="37.871572944335625" lon="-4.324864457962281"><ele>315.0</ele><time>2026-04-27T11:24:15Z</time></trkpt><trkpt lat="37.87170779313091" lon="-4.324594281824835"><ele>318.0</ele><time>2026-04-27T11:24:16Z</time></trkpt><trkpt lat="37.87184253710095" lon="-4.324322613956696"><ele>321.0</ele><time>2026-04-27T11:24:17Z</time></trkpt><trkpt lat="37.871988569801154" lon="-4.324058507581919"><ele>321.5</ele><time>2026-04-27T11:24:18Z</time></trkpt><trkpt lat="37.87210889737146" lon="-4.323778992640917"><ele>322.0</ele><time>2026-04-27T11:24:19Z</time></trkpt><trkpt lat="37.872214782102546" lon="-4.323495358914945"><ele>322.0</ele><time>2026-04-27T11:24:20Z</time></trkpt><trkpt lat="37.87230623560878" lon="-4.32320722713772"><ele>322.0</ele><time>2026-04-27T11:24:21Z</time></trkpt><trkpt lat="37.87238417190429" lon="-4.322907692951268"><ele>324.5</ele><time>2026-04-27T11:24:22Z</time></trkpt><trkpt lat="37.87245209751202" lon="-4.322605652159218"><ele>327.0</ele><time>2026-04-27T11:24:23Z</time></trkpt><trkpt lat="37.87250661222688" lon="-4.322300340747721"><ele>330.5</ele><time>2026-04-27T11:24:24Z</time></trkpt><trkpt lat="37.87255455897259" lon="-4.3219922555019465"><ele>334.0</ele><time>2026-04-27T11:24:25Z</time></trkpt><trkpt lat="37.872599708057834" lon="-4.321682048446292"><ele>337.0</ele><time>2026-04-27T11:24:26Z</time></trkpt><trkpt lat="37.87264200896263" lon="-4.321372848753463"><ele>340.0</ele><time>2026-04-27T11:24:27Z</time></trkpt><trkpt lat="37.87268613789807" lon="-4.321062919448266"><ele>340.0</ele><time>2026-04-27T11:24:28Z</time></trkpt><trkpt lat="37.87273125098548" lon="-4.32075124953409"><ele>340.0</ele><time>2026-04-27T11:24:29Z</time></trkpt><trkpt lat="37.87277321740167" lon="-4.320440331633841"><ele>340.5</ele><time>2026-04-27T11:24:30Z</time></trkpt><trkpt lat="37.8728031505312" lon="-4.320125738687004"><ele>341.0</ele><time>2026-04-27T11:24:31Z</time></trkpt><trkpt lat="37.87282507948257" lon="-4.319809776541518"><ele>341.0</ele><time>2026-04-27T11:24:32Z</time></trkpt><trkpt lat="37.87283199199194" lon="-4.319492807853578"><ele>341.0</ele><time>2026-04-27T11:24:33Z</time></trkpt><trkpt lat="37.87282467896068" lon="-4.319178037798549"><ele>342.0</ele><time>2026-04-27T11:24:34Z</time></trkpt><trkpt lat="37.872798824272124" lon="-4.318860332779408"><ele>343.0</ele><time>2026-04-27T11:24:35Z</time></trkpt><trkpt lat="37.872759327386746" lon="-4.318538946903822"><ele>343.0</ele><time>2026-04-27T11:24:36Z</time></trkpt><trkpt lat="37.87270711893471" lon="-4.318221981321946"><ele>343.0</ele><time>2026-04-27T11:24:37Z</time></trkpt><trkpt lat="37.87264218962578" lon="-4.317901928596669"><ele>343.5</ele><time>2026-04-27T11:24:38Z</time></trkpt><trkpt lat="37.87259875210368" lon="-4.317578091560967"><ele>344.0</ele><time>2026-04-27T11:24:39Z</time></trkpt><trkpt lat="37.87249000581353" lon="-4.317267600992305"><ele>346.0</ele><time>2026-04-27T11:24:40Z</time></trkpt><trkpt lat="37.872407454527405" lon="-4.316954799905519"><ele>348.0</ele><time>2026-04-27T11:24:41Z</time></trkpt><trkpt lat="37.87232435184011" lon="-4.316637312972356"><ele>349.0</ele><time>2026-04-27T11:24:42Z</time></trkpt><trkpt lat="37.8722369832844" lon="-4.31632173987436"><ele>350.0</ele><time>2026-04-27T11:24:43Z</time></trkpt><trkpt lat="37.87214975988236" lon="-4.316027597357634"><ele>350.0</ele><time>2026-04-27T11:24:44Z</time></trkpt><trkpt lat="37.872063292873094" lon="-4.315753656895645"><ele>350.0</ele><time>2026-04-27T11:24:45Z</time></trkpt><trkpt lat="37.87197529595643" lon="-4.315486987374118"><ele>350.0</ele><time>2026-04-27T11:24:46Z</time></trkpt><trkpt lat="37.87188140976053" lon="-4.3152180989943565"><ele>350.0</ele><time>2026-04-27T11:24:47Z</time></trkpt><trkpt lat="37.87178236766278" lon="-4.314949688769807"><ele>345.5</ele><time>2026-04-27T11:24:48Z</time></trkpt><trkpt lat="37.87166982590712" lon="-4.314685568542764"><ele>341.0</ele><time>2026-04-27T11:24:49Z</time></trkpt><trkpt lat="37.87154378352463" lon="-4.31442895719879"><ele>341.0</ele><time>2026-04-27T11:24:50Z</time></trkpt><trkpt lat="37.87140794873571" lon="-4.3141749410950725"><ele>341.0</ele><time>2026-04-27T11:24:51Z</time></trkpt><trkpt lat="37.87126429402916" lon="-4.313925896069686"><ele>341.0</ele><time>2026-04-27T11:24:52Z</time></trkpt><trkpt lat="37.87110112139396" lon="-4.313694651105241"><ele>341.0</ele><time>2026-04-27T11:24:53Z</time></trkpt><trkpt lat="37.8709193170362" lon="-4.313479505923184"><ele>337.0</ele><time>2026-04-27T11:24:54Z</time></trkpt><trkpt lat="37.87073339763478" lon="-4.313265354865604"><ele>333.0</ele><time>2026-04-27T11:24:55Z</time></trkpt><trkpt lat="37.870539048603305" lon="-4.313063075265501"><ele>331.5</ele><time>2026-04-27T11:24:56Z</time></trkpt><trkpt lat="37.870342452573496" lon="-4.312862501434116"><ele>330.0</ele><time>2026-04-27T11:24:57Z</time></trkpt><trkpt lat="37.87013964502574" lon="-4.312670802322054"><ele>328.5</ele><time>2026-04-27T11:24:58Z</time></trkpt><trkpt lat="37.869942538648594" lon="-4.31248696949445"><ele>327.0</ele><time>2026-04-27T11:24:59Z</time></trkpt><trkpt lat="37.869749473012014" lon="-4.312306846461031"><ele>329.0</ele><time>2026-04-27T11:25:00Z</time></trkpt><trkpt lat="37.869562704504006" lon="-4.31212995099493"><ele>331.0</ele><time>2026-04-27T11:25:01Z</time></trkpt><trkpt lat="37.86938187119236" lon="-4.311958615962611"><ele>330.66666666666663</ele><time>2026-04-27T11:25:02Z</time></trkpt><trkpt lat="37.86920584426056" lon="-4.311796646955906"><ele>330.3333333333333</ele><time>2026-04-27T11:25:03Z</time></trkpt><trkpt lat="37.869035294899554" lon="-4.311644329947226"><ele>330.0</ele><time>2026-04-27T11:25:04Z</time></trkpt><trkpt lat="37.868859150922184" lon="-4.3114941040865915"><ele>329.6666666666667</ele><time>2026-04-27T11:25:05Z</time></trkpt><trkpt lat="37.86868912026278" lon="-4.311341890255909"><ele>329.33333333333337</ele><time>2026-04-27T11:25:06Z</time></trkpt><trkpt lat="37.86852321774115" lon="-4.3111770460339125"><ele>329.0</ele><time>2026-04-27T11:25:07Z</time></trkpt><trkpt lat="37.86837534873192" lon="-4.310982215231554"><ele>329.0</ele><time>2026-04-27T11:25:08Z</time></trkpt><trkpt lat="37.868239005512955" lon="-4.310763230246357"><ele>329.0</ele><time>2026-04-27T11:25:09Z</time></trkpt><trkpt lat="37.86811892478299" lon="-4.310520687365927"><ele>329.0</ele><time>2026-04-27T11:25:10Z</time></trkpt><trkpt lat="37.86802384364884" lon="-4.31025475833936"><ele>330.0</ele><time>2026-04-27T11:25:11Z</time></trkpt><trkpt lat="37.867957725373024" lon="-4.309957861908303"><ele>331.0</ele><time>2026-04-27T11:25:12Z</time></trkpt><trkpt lat="37.8679165566055" lon="-4.309657112665495"><ele>332.5</ele><time>2026-04-27T11:25:13Z</time></trkpt><trkpt lat="37.867884858365386" lon="-4.309349117346882"><ele>334.0</ele><time>2026-04-27T11:25:14Z</time></trkpt><trkpt lat="37.86786072564763" lon="-4.309032496572942"><ele>335.0</ele><time>2026-04-27T11:25:15Z</time></trkpt><trkpt lat="37.86784356129775" lon="-4.308708003174756"><ele>336.0</ele><time>2026-04-27T11:25:16Z</time></trkpt><trkpt lat="37.867835305808775" lon="-4.308379946891836"><ele>337.0</ele><time>2026-04-27T11:25:17Z</time></trkpt><trkpt lat="37.86784545320914" lon="-4.3080454026991815"><ele>338.0</ele><time>2026-04-27T11:25:18Z</time></trkpt><trkpt lat="37.86787861961339" lon="-4.307707733173714"><ele>338.0</ele><time>2026-04-27T11:25:19Z</time></trkpt><trkpt lat="37.86792746784056" lon="-4.307362624523971"><ele>338.0</ele><time>2026-04-27T11:25:20Z</time></trkpt><trkpt lat="37.86799253224842" lon="-4.30701977306896"><ele>337.5</ele><time>2026-04-27T11:25:21Z</time></trkpt><trkpt lat="37.86806834704238" lon="-4.306673218171226"><ele>337.0</ele><time>2026-04-27T11:25:22Z</time></trkpt><trkpt lat="37.86814334078288" lon="-4.30631977997479"><ele>336.0</ele><time>2026-04-27T11:25:23Z</time></trkpt><trkpt lat="37.868225094507245" lon="-4.3059653597996554"><ele>335.0</ele><time>2026-04-27T11:25:24Z</time></trkpt><trkpt lat="37.86831074455867" lon="-4.3056053651107975"><ele>335.5</ele><time>2026-04-27T11:25:25Z</time></trkpt><trkpt lat="37.86839474459125" lon="-4.3052507896743935"><ele>336.0</ele><time>2026-04-27T11:25:26Z</time></trkpt><trkpt lat="37.86847659350607" lon="-4.304903116126119"><ele>338.0</ele><time>2026-04-27T11:25:27Z</time></trkpt><trkpt lat="37.86854829321179" lon="-4.304558216212761"><ele>340.0</ele><time>2026-04-27T11:25:28Z</time></trkpt><trkpt lat="37.86859930763926" lon="-4.304207516552185"><ele>340.0</ele><time>2026-04-27T11:25:29Z</time></trkpt><trkpt lat="37.86862255102074" lon="-4.303853512521597"><ele>340.0</ele><time>2026-04-27T11:25:30Z</time></trkpt><trkpt lat="37.868624582515345" lon="-4.303498446964866"><ele>340.0</ele><time>2026-04-27T11:25:31Z</time></trkpt><trkpt lat="37.86860554352402" lon="-4.303139716371246"><ele>340.0</ele><time>2026-04-27T11:25:32Z</time></trkpt><trkpt lat="37.86856132926485" lon="-4.302785989781422"><ele>342.0</ele><time>2026-04-27T11:25:33Z</time></trkpt><trkpt lat="37.86850411105469" lon="-4.302436125850237"><ele>344.0</ele><time>2026-04-27T11:25:34Z</time></trkpt><trkpt lat="37.868447680795754" lon="-4.302087706932032"><ele>345.0</ele><time>2026-04-27T11:25:35Z</time></trkpt><trkpt lat="37.868400517851256" lon="-4.301731765690436"><ele>346.0</ele><time>2026-04-27T11:25:36Z</time></trkpt><trkpt lat="37.868351838805296" lon="-4.301377555696367"><ele>347.0</ele><time>2026-04-27T11:25:37Z</time></trkpt><trkpt lat="37.86830091288987" lon="-4.301021824304268"><ele>348.0</ele><time>2026-04-27T11:25:38Z</time></trkpt><trkpt lat="37.86825611875664" lon="-4.300666575659615"><ele>349.0</ele><time>2026-04-27T11:25:39Z</time></trkpt><trkpt lat="37.868213129570634" lon="-4.300310925969513"><ele>350.0</ele><time>2026-04-27T11:25:40Z</time></trkpt><trkpt lat="37.868178262979" lon="-4.299960389561526"><ele>350.5</ele><time>2026-04-27T11:25:41Z</time></trkpt><trkpt lat="37.86814827191968" lon="-4.299608320134752"><ele>351.0</ele><time>2026-04-27T11:25:42Z</time></trkpt><trkpt lat="37.86811764766671" lon="-4.2992554007379695"><ele>351.0</ele><time>2026-04-27T11:25:43Z</time></trkpt><trkpt lat="37.86809658929759" lon="-4.298901107617739"><ele>351.0</ele><time>2026-04-27T11:25:44Z</time></trkpt><trkpt lat="37.868083277053934" lon="-4.298547047807448"><ele>351.0</ele><time>2026-04-27T11:25:45Z</time></trkpt><trkpt lat="37.86807437346973" lon="-4.298189110870806"><ele>351.0</ele><time>2026-04-27T11:25:46Z</time></trkpt><trkpt lat="37.86806578293834" lon="-4.2978326828355256"><ele>349.5</ele><time>2026-04-27T11:25:47Z</time></trkpt><trkpt lat="37.86805631201695" lon="-4.297474133783933"><ele>348.0</ele><time>2026-04-27T11:25:48Z</time></trkpt><trkpt lat="37.86804603323553" lon="-4.297113742638197"><ele>348.0</ele><time>2026-04-27T11:25:49Z</time></trkpt><trkpt lat="37.86803679063986" lon="-4.296748687225744"><ele>348.0</ele><time>2026-04-27T11:25:50Z</time></trkpt><trkpt lat="37.86803078487326" lon="-4.296383250877388"><ele>347.0</ele><time>2026-04-27T11:25:51Z</time></trkpt><trkpt lat="37.868024654046835" lon="-4.296015668238036"><ele>346.0</ele><time>2026-04-27T11:25:52Z</time></trkpt><trkpt lat="37.86801874537183" lon="-4.295652262968383"><ele>346.0</ele><time>2026-04-27T11:25:53Z</time></trkpt><trkpt lat="37.868010519786324" lon="-4.295293329683563"><ele>346.0</ele><time>2026-04-27T11:25:54Z</time></trkpt><trkpt lat="37.868003153412296" lon="-4.294946914188651"><ele>345.5</ele><time>2026-04-27T11:25:55Z</time></trkpt><trkpt lat="37.868002352558776" lon="-4.294603023913404"><ele>345.0</ele><time>2026-04-27T11:25:56Z</time></trkpt><trkpt lat="37.86802250902798" lon="-4.294251704201426"><ele>344.0</ele><time>2026-04-27T11:25:57Z</time></trkpt><trkpt lat="37.86805794435717" lon="-4.293896015605826"><ele>343.0</ele><time>2026-04-27T11:25:58Z</time></trkpt><trkpt lat="37.86810323596581" lon="-4.29353511754463"><ele>343.0</ele><time>2026-04-27T11:25:59Z</time></trkpt><trkpt lat="37.86815003092464" lon="-4.293174565777125"><ele>343.0</ele><time>2026-04-27T11:26:00Z</time></trkpt><trkpt lat="37.86819289564058" lon="-4.292810715067085"><ele>342.0</ele><time>2026-04-27T11:26:01Z</time></trkpt><trkpt lat="37.868234007808525" lon="-4.292445925823525"><ele>341.0</ele><time>2026-04-27T11:26:02Z</time></trkpt><trkpt lat="37.86827282412963" lon="-4.292075888777584"><ele>340.5</ele><time>2026-04-27T11:26:03Z</time></trkpt><trkpt lat="37.86831407745065" lon="-4.291706390695554"><ele>340.0</ele><time>2026-04-27T11:26:04Z</time></trkpt><trkpt lat="37.868357419618356" lon="-4.291339492446403"><ele>338.5</ele><time>2026-04-27T11:26:05Z</time></trkpt><trkpt lat="37.868392993983306" lon="-4.290967139586611"><ele>337.0</ele><time>2026-04-27T11:26:06Z</time></trkpt><trkpt lat="37.868414725789705" lon="-4.290596539887854"><ele>337.0</ele><time>2026-04-27T11:26:07Z</time></trkpt><trkpt lat="37.868422964431154" lon="-4.290219642384642"><ele>337.0</ele><time>2026-04-27T11:26:08Z</time></trkpt><trkpt lat="37.86842074449976" lon="-4.2898426502337585"><ele>336.5</ele><time>2026-04-27T11:26:09Z</time></trkpt><trkpt lat="37.868416306825885" lon="-4.289465027787704"><ele>336.0</ele><time>2026-04-27T11:26:10Z</time></trkpt><trkpt lat="37.868407484519416" lon="-4.289091567212021"><ele>334.5</ele><time>2026-04-27T11:26:11Z</time></trkpt><trkpt lat="37.86840159368177" lon="-4.288717412833621"><ele>333.0</ele><time>2026-04-27T11:26:12Z</time></trkpt><trkpt lat="37.86839467387607" lon="-4.288347039500517"><ele>331.5</ele><time>2026-04-27T11:26:13Z</time></trkpt><trkpt lat="37.868387730612646" lon="-4.287973122392045"><ele>330.0</ele><time>2026-04-27T11:26:14Z</time></trkpt><trkpt lat="37.8683848895909" lon="-4.287602211756329"><ele>329.5</ele><time>2026-04-27T11:26:15Z</time></trkpt><trkpt lat="37.86838348865554" lon="-4.287232993996354"><ele>329.0</ele><time>2026-04-27T11:26:16Z</time></trkpt><trkpt lat="37.86837960510775" lon="-4.286856930364531"><ele>329.0</ele><time>2026-04-27T11:26:17Z</time></trkpt><trkpt lat="37.86837397215029" lon="-4.286487430224179"><ele>329.0</ele><time>2026-04-27T11:26:18Z</time></trkpt><trkpt lat="37.868371674447616" lon="-4.286118277874524"><ele>328.5</ele><time>2026-04-27T11:26:19Z</time></trkpt><trkpt lat="37.86836656866746" lon="-4.285749165799389"><ele>328.0</ele><time>2026-04-27T11:26:20Z</time></trkpt><trkpt lat="37.86836016886022" lon="-4.28537924271122"><ele>327.5</ele><time>2026-04-27T11:26:21Z</time></trkpt><trkpt lat="37.86835092080875" lon="-4.285013826933245"><ele>327.0</ele><time>2026-04-27T11:26:22Z</time></trkpt><trkpt lat="37.868344680807475" lon="-4.284649669193164"><ele>326.5</ele><time>2026-04-27T11:26:23Z</time></trkpt><trkpt lat="37.8683414370922" lon="-4.2842882533221855"><ele>326.0</ele><time>2026-04-27T11:26:24Z</time></trkpt><trkpt lat="37.868340393423104" lon="-4.283928971930908"><ele>326.0</ele><time>2026-04-27T11:26:25Z</time></trkpt><trkpt lat="37.86834860481141" lon="-4.283568096060633"><ele>326.0</ele><time>2026-04-27T11:26:26Z</time></trkpt><trkpt lat="37.86836964711565" lon="-4.283210445494198"><ele>325.5</ele><time>2026-04-27T11:26:27Z</time></trkpt><trkpt lat="37.868419528060464" lon="-4.282849050623749"><ele>325.0</ele><time>2026-04-27T11:26:28Z</time></trkpt><trkpt lat="37.868487419945225" lon="-4.282496033927565"><ele>325.0</ele><time>2026-04-27T11:26:29Z</time></trkpt><trkpt lat="37.86857393604931" lon="-4.282145593650004"><ele>325.0</ele><time>2026-04-27T11:26:30Z</time></trkpt><trkpt lat="37.86867348170537" lon="-4.281799283298135"><ele>325.0</ele><time>2026-04-27T11:26:31Z</time></trkpt><trkpt lat="37.868785307524966" lon="-4.281453952730814"><ele>325.0</ele><time>2026-04-27T11:26:32Z</time></trkpt><trkpt lat="37.86889024426076" lon="-4.281109709399861"><ele>323.5</ele><time>2026-04-27T11:26:33Z</time></trkpt><trkpt lat="37.86899439336475" lon="-4.280763983401132"><ele>322.0</ele><time>2026-04-27T11:26:34Z</time></trkpt><trkpt lat="37.86909679678616" lon="-4.280418917148567"><ele>323.0</ele><time>2026-04-27T11:26:35Z</time></trkpt><trkpt lat="37.869200654497895" lon="-4.280063693438577"><ele>324.0</ele><time>2026-04-27T11:26:36Z</time></trkpt><trkpt lat="37.8693051327063" lon="-4.27971806373203"><ele>324.0</ele><time>2026-04-27T11:26:37Z</time></trkpt><trkpt lat="37.86941461747809" lon="-4.279373903513882"><ele>324.0</ele><time>2026-04-27T11:26:38Z</time></trkpt><trkpt lat="37.869533872449324" lon="-4.279034479335976"><ele>322.5</ele><time>2026-04-27T11:26:39Z</time></trkpt><trkpt lat="37.86967205602742" lon="-4.27871216237763"><ele>321.0</ele><time>2026-04-27T11:26:40Z</time></trkpt><trkpt lat="37.8698303629334" lon="-4.278401994586304"><ele>321.0</ele><time>2026-04-27T11:26:41Z</time></trkpt><trkpt lat="37.86999735175181" lon="-4.278102376317753"><ele>321.0</ele><time>2026-04-27T11:26:42Z</time></trkpt><trkpt lat="37.87016592630064" lon="-4.277799602277747"><ele>321.5</ele><time>2026-04-27T11:26:43Z</time></trkpt><trkpt lat="37.87033174996022" lon="-4.277494066639039"><ele>322.0</ele><time>2026-04-27T11:26:44Z</time></trkpt><trkpt lat="37.870496219754685" lon="-4.2771836673341745"><ele>319.5</ele><time>2026-04-27T11:26:45Z</time></trkpt><trkpt lat="37.870659164617514" lon="-4.276870684010973"><ele>317.0</ele><time>2026-04-27T11:26:46Z</time></trkpt><trkpt lat="37.87082400931129" lon="-4.276553734409363"><ele>318.5</ele><time>2026-04-27T11:26:47Z</time></trkpt><trkpt lat="37.8709900948456" lon="-4.276233424445356"><ele>320.0</ele><time>2026-04-27T11:26:48Z</time></trkpt><trkpt lat="37.87115526073394" lon="-4.275911464249811"><ele>317.0</ele><time>2026-04-27T11:26:49Z</time></trkpt><trkpt lat="37.87131583194728" lon="-4.275589594497351"><ele>314.0</ele><time>2026-04-27T11:26:50Z</time></trkpt><trkpt lat="37.87147832499636" lon="-4.275263630355789"><ele>314.0</ele><time>2026-04-27T11:26:51Z</time></trkpt><trkpt lat="37.87163841237459" lon="-4.274938104300899"><ele>314.0</ele><time>2026-04-27T11:26:52Z</time></trkpt><trkpt lat="37.871797257830885" lon="-4.2746136794803515"><ele>315.0</ele><time>2026-04-27T11:26:53Z</time></trkpt><trkpt lat="37.87195513568941" lon="-4.2742909373582165"><ele>316.0</ele><time>2026-04-27T11:26:54Z</time></trkpt><trkpt lat="37.87211074360866" lon="-4.273968205777885"><ele>313.0</ele><time>2026-04-27T11:26:55Z</time></trkpt><trkpt lat="37.872266971148235" lon="-4.273648099728312"><ele>310.0</ele><time>2026-04-27T11:26:56Z</time></trkpt><trkpt lat="37.87242324154272" lon="-4.273328254462872"><ele>310.0</ele><time>2026-04-27T11:26:57Z</time></trkpt><trkpt lat="37.87257792193653" lon="-4.27301358659422"><ele>310.0</ele><time>2026-04-27T11:26:58Z</time></trkpt><trkpt lat="37.87273029829853" lon="-4.2727016783555145"><ele>310.0</ele><time>2026-04-27T11:26:59Z</time></trkpt><trkpt lat="37.87288085333437" lon="-4.272392299503139"><ele>310.0</ele><time>2026-04-27T11:27:00Z</time></trkpt><trkpt lat="37.873021424835905" lon="-4.272080721310419"><ele>310.0</ele><time>2026-04-27T11:27:01Z</time></trkpt><trkpt lat="37.87314703811621" lon="-4.271762152516758"><ele>310.0</ele><time>2026-04-27T11:27:02Z</time></trkpt><trkpt lat="37.87325032613517" lon="-4.271450263466505"><ele>310.0</ele><time>2026-04-27T11:27:03Z</time></trkpt><trkpt lat="37.87333142732452" lon="-4.271150279576634"><ele>310.0</ele><time>2026-04-27T11:27:04Z</time></trkpt><trkpt lat="37.87339510080762" lon="-4.270846918594582"><ele>310.5</ele><time>2026-04-27T11:27:05Z</time></trkpt><trkpt lat="37.87343751305652" lon="-4.270529695699688"><ele>311.0</ele><time>2026-04-27T11:27:06Z</time></trkpt><trkpt lat="37.87346821430333" lon="-4.270206095066432"><ele>311.0</ele><time>2026-04-27T11:27:07Z</time></trkpt><trkpt lat="37.8734897840711" lon="-4.269879381567555"><ele>311.0</ele><time>2026-04-27T11:27:08Z</time></trkpt><trkpt lat="37.87349535490752" lon="-4.269550758364939"><ele>310.5</ele><time>2026-04-27T11:27:09Z</time></trkpt><trkpt lat="37.87349642196946" lon="-4.269223334083053"><ele>310.0</ele><time>2026-04-27T11:27:10Z</time></trkpt><trkpt lat="37.8734985931918" lon="-4.268898291252033"><ele>309.0</ele><time>2026-04-27T11:27:11Z</time></trkpt><trkpt lat="37.87350083664333" lon="-4.268576790177404"><ele>308.0</ele><time>2026-04-27T11:27:12Z</time></trkpt><trkpt lat="37.873503973632786" lon="-4.268254173345618"><ele>307.0</ele><time>2026-04-27T11:27:13Z</time></trkpt><trkpt lat="37.87350779446716" lon="-4.267938808194583"><ele>306.0</ele><time>2026-04-27T11:27:14Z</time></trkpt><trkpt lat="37.87350951414125" lon="-4.267618378227644"><ele>306.0</ele><time>2026-04-27T11:27:15Z</time></trkpt><trkpt lat="37.87351596418306" lon="-4.2672987432826925"><ele>306.0</ele><time>2026-04-27T11:27:16Z</time></trkpt><trkpt lat="37.87352040679865" lon="-4.26697885860021"><ele>306.0</ele><time>2026-04-27T11:27:16.999Z</time></trkpt><trkpt lat="37.87352327104785" lon="-4.266657044515256"><ele>306.0</ele><time>2026-04-27T11:27:17.999Z</time></trkpt><trkpt lat="37.87352710860411" lon="-4.266335703334877"><ele>306.0</ele><time>2026-04-27T11:27:18.999Z</time></trkpt><trkpt lat="37.87353469298216" lon="-4.266007691045049"><ele>306.0</ele><time>2026-04-27T11:27:19.999Z</time></trkpt><trkpt lat="37.8735436494224" lon="-4.265676677848036"><ele>305.5</ele><time>2026-04-27T11:27:20.999Z</time></trkpt><trkpt lat="37.8735534755348" lon="-4.265343149011019"><ele>305.0</ele><time>2026-04-27T11:27:21.999Z</time></trkpt><trkpt lat="37.87356893907304" lon="-4.265007233316564"><ele>304.0</ele><time>2026-04-27T11:27:22.999Z</time></trkpt><trkpt lat="37.8735949826413" lon="-4.2646678634912"><ele>303.0</ele><time>2026-04-27T11:27:23.999Z</time></trkpt><trkpt lat="37.8736288281019" lon="-4.264328292933497"><ele>303.0</ele><time>2026-04-27T11:27:24.999Z</time></trkpt><trkpt lat="37.8736662147948" lon="-4.263985577210877"><ele>303.0</ele><time>2026-04-27T11:27:25.999Z</time></trkpt><trkpt lat="37.8737084306661" lon="-4.263646418942257"><ele>301.0</ele><time>2026-04-27T11:27:26.999Z</time></trkpt><trkpt lat="37.87375662831449" lon="-4.263309270919625"><ele>299.0</ele><time>2026-04-27T11:27:27.999Z</time></trkpt><trkpt lat="37.873812098483384" lon="-4.2629704514849704"><ele>298.5</ele><time>2026-04-27T11:27:28.999Z</time></trkpt><trkpt lat="37.87387707335496" lon="-4.262647585042823"><ele>298.0</ele><time>2026-04-27T11:27:29.999Z</time></trkpt><trkpt lat="37.87394635999332" lon="-4.262321714612936"><ele>297.5</ele><time>2026-04-27T11:27:30.999Z</time></trkpt><trkpt lat="37.87401827083534" lon="-4.261998851244181"><ele>297.0</ele><time>2026-04-27T11:27:31.999Z</time></trkpt><trkpt lat="37.874095689528176" lon="-4.2616757313896025"><ele>297.0</ele><time>2026-04-27T11:27:32.999Z</time></trkpt><trkpt lat="37.87417881488408" lon="-4.261353146927368"><ele>297.0</ele><time>2026-04-27T11:27:33.999Z</time></trkpt><trkpt lat="37.87426733962426" lon="-4.261032681104661"><ele>297.0</ele><time>2026-04-27T11:27:34.999Z</time></trkpt><trkpt lat="37.8743605377807" lon="-4.2607157509717535"><ele>297.0</ele><time>2026-04-27T11:27:36Z</time></trkpt><trkpt lat="37.87446323393943" lon="-4.2604058076977225"><ele>296.5</ele><time>2026-04-27T11:27:37Z</time></trkpt><trkpt lat="37.874572896083784" lon="-4.260093350222003"><ele>296.0</ele><time>2026-04-27T11:27:38Z</time></trkpt><trkpt lat="37.87468940194602" lon="-4.2597887070329845"><ele>297.0</ele><time>2026-04-27T11:27:39Z</time></trkpt><trkpt lat="37.874810006089255" lon="-4.259482707431983"><ele>298.0</ele><time>2026-04-27T11:27:40Z</time></trkpt><trkpt lat="37.874936699503834" lon="-4.259180855043727"><ele>298.0</ele><time>2026-04-27T11:27:41Z</time></trkpt><trkpt lat="37.875069945069875" lon="-4.258880996383067"><ele>298.0</ele><time>2026-04-27T11:27:42Z</time></trkpt><trkpt lat="37.87521017137886" lon="-4.258584168459402"><ele>296.5</ele><time>2026-04-27T11:27:43Z</time></trkpt><trkpt lat="37.87535747392877" lon="-4.25829184479104"><ele>295.0</ele><time>2026-04-27T11:27:44Z</time></trkpt><trkpt lat="37.875508443777896" lon="-4.258001951945056"><ele>295.0</ele><time>2026-04-27T11:27:45Z</time></trkpt><trkpt lat="37.87565898714647" lon="-4.25770998644733"><ele>295.0</ele><time>2026-04-27T11:27:46Z</time></trkpt><trkpt lat="37.87581223863955" lon="-4.257424462721738"><ele>295.5</ele><time>2026-04-27T11:27:47Z</time></trkpt><trkpt lat="37.87596564667399" lon="-4.257138049876064"><ele>296.0</ele><time>2026-04-27T11:27:48Z</time></trkpt><trkpt lat="37.87611976244162" lon="-4.256855173179307"><ele>296.0</ele><time>2026-04-27T11:27:49Z</time></trkpt><trkpt lat="37.876270156518096" lon="-4.2565665903949474"><ele>296.0</ele><time>2026-04-27T11:27:50Z</time></trkpt><trkpt lat="37.876416512382164" lon="-4.256273462450845"><ele>297.5</ele><time>2026-04-27T11:27:51Z</time></trkpt><trkpt lat="37.87656173211128" lon="-4.255984197949351"><ele>299.0</ele><time>2026-04-27T11:27:52Z</time></trkpt><trkpt lat="37.87668831634723" lon="-4.255717583284332"><ele>297.0</ele><time>2026-04-27T11:27:53Z</time></trkpt><trkpt lat="37.87678360191667" lon="-4.2554969815239305"><ele>295.0</ele><time>2026-04-27T11:27:54Z</time></trkpt><trkpt lat="37.87685509486712" lon="-4.25530683713998"><ele>293.0</ele><time>2026-04-27T11:27:55Z</time></trkpt><trkpt lat="37.87691131555931" lon="-4.255145295433541"><ele>293.0</ele><time>2026-04-27T11:27:56Z</time></trkpt><trkpt lat="37.87695752880099" lon="-4.255011958832486"><ele>293.0</ele><time>2026-04-27T11:27:57Z</time></trkpt><trkpt lat="37.87699129268692" lon="-4.254911110796548"><ele>293.0</ele><time>2026-04-27T11:27:58Z</time></trkpt><trkpt lat="37.87700953850291" lon="-4.254831271261347"><ele>293.0</ele><time>2026-04-27T11:27:59Z</time></trkpt><trkpt lat="37.87703533645133" lon="-4.254731470564424"><ele>293.0</ele><time>2026-04-27T11:28:01Z</time></trkpt><trkpt lat="37.87708647982041" lon="-4.254672191572034"><ele>293.0</ele><time>2026-04-27T11:30:51Z</time></trkpt><trkpt lat="37.87712287311247" lon="-4.254606292526014"><ele>292.6</ele><time>2026-04-27T11:30:52Z</time></trkpt><trkpt lat="37.87716000463316" lon="-4.254507275860126"><ele>292.20000000000005</ele><time>2026-04-27T11:30:53Z</time></trkpt><trkpt lat="37.87720369667483" lon="-4.254388646231451"><ele>291.8</ele><time>2026-04-27T11:30:54Z</time></trkpt><trkpt lat="37.87725520767108" lon="-4.254262465650614"><ele>291.40000000000003</ele><time>2026-04-27T11:30:55Z</time></trkpt><trkpt lat="37.877311148160906" lon="-4.254117166258817"><ele>291.0</ele><time>2026-04-27T11:30:56Z</time></trkpt><trkpt lat="37.87737161892085" lon="-4.253960032629501"><ele>291.0</ele><time>2026-04-27T11:30:57Z</time></trkpt><trkpt lat="37.87743307220693" lon="-4.253801567567824"><ele>291.0</ele><time>2026-04-27T11:30:58Z</time></trkpt><trkpt lat="37.877498704741384" lon="-4.2536326589549525"><ele>291.0</ele><time>2026-04-27T11:30:59Z</time></trkpt><trkpt lat="37.877563114954135" lon="-4.253465240883797"><ele>291.0</ele><time>2026-04-27T11:31:00Z</time></trkpt><trkpt lat="37.87762391507224" lon="-4.253303185146993"><ele>290.25</ele><time>2026-04-27T11:31:01Z</time></trkpt><trkpt lat="37.877691385393796" lon="-4.253137208474084"><ele>289.5</ele><time>2026-04-27T11:31:02Z</time></trkpt><trkpt lat="37.87776206865786" lon="-4.252962732535196"><ele>288.75</ele><time>2026-04-27T11:31:03Z</time></trkpt><trkpt lat="37.877832336142276" lon="-4.252808373571435"><ele>288.0</ele><time>2026-04-27T11:31:04Z</time></trkpt><trkpt lat="37.87790186770127" lon="-4.252637387552058"><ele>288.0</ele><time>2026-04-27T11:31:05Z</time></trkpt><trkpt lat="37.877972118854494" lon="-4.252447532964865"><ele>288.0</ele><time>2026-04-27T11:31:06Z</time></trkpt><trkpt lat="37.87805020421154" lon="-4.252246125443117"><ele>288.0</ele><time>2026-04-27T11:31:07Z</time></trkpt><trkpt lat="37.87813084668019" lon="-4.252037760772377"><ele>290.3333333333333</ele><time>2026-04-27T11:31:08Z</time></trkpt><trkpt lat="37.87821431418241" lon="-4.251825197643533"><ele>292.66666666666663</ele><time>2026-04-27T11:31:09Z</time></trkpt><trkpt lat="37.87829521896579" lon="-4.251623636470286"><ele>295.0</ele><time>2026-04-27T11:31:10Z</time></trkpt><trkpt lat="37.87837445167089" lon="-4.251429352897967"><ele>293.3333333333333</ele><time>2026-04-27T11:31:11Z</time></trkpt><trkpt lat="37.87845513146712" lon="-4.2512274925207025"><ele>291.6666666666667</ele><time>2026-04-27T11:31:12Z</time></trkpt><trkpt lat="37.87853753194196" lon="-4.251020937483824"><ele>290.0</ele><time>2026-04-27T11:31:13Z</time></trkpt><trkpt lat="37.87861782459477" lon="-4.250818396931268"><ele>291.6666666666667</ele><time>2026-04-27T11:31:14Z</time></trkpt><trkpt lat="37.878697744162366" lon="-4.250609960159522"><ele>293.3333333333333</ele><time>2026-04-27T11:31:15Z</time></trkpt><trkpt lat="37.87878055994882" lon="-4.25039355870916"><ele>295.0</ele><time>2026-04-27T11:31:16Z</time></trkpt><trkpt lat="37.87886997434931" lon="-4.250156021022492"><ele>295.0</ele><time>2026-04-27T11:31:17Z</time></trkpt><trkpt lat="37.87896138888769" lon="-4.249912676193945"><ele>295.0</ele><time>2026-04-27T11:31:18Z</time></trkpt><trkpt lat="37.87905248203179" lon="-4.2496677858942515"><ele>295.0</ele><time>2026-04-27T11:31:19Z</time></trkpt><trkpt lat="37.879142183619386" lon="-4.249419792531724"><ele>296.3333333333333</ele><time>2026-04-27T11:31:20Z</time></trkpt><trkpt lat="37.879233306217834" lon="-4.249176551843907"><ele>297.6666666666667</ele><time>2026-04-27T11:31:21Z</time></trkpt><trkpt lat="37.879330458832605" lon="-4.248914259648685"><ele>299.0</ele><time>2026-04-27T11:31:22Z</time></trkpt><trkpt lat="37.87942707740018" lon="-4.248653284260383"><ele>297.0</ele><time>2026-04-27T11:31:23Z</time></trkpt><trkpt lat="37.879521332657745" lon="-4.2483854516430775"><ele>295.0</ele><time>2026-04-27T11:31:24Z</time></trkpt><trkpt lat="37.879611660395945" lon="-4.2481186932535415"><ele>295.0</ele><time>2026-04-27T11:31:25Z</time></trkpt><trkpt lat="37.87969854142763" lon="-4.24784867855899"><ele>295.0</ele><time>2026-04-27T11:31:26Z</time></trkpt><trkpt lat="37.87978558280758" lon="-4.247571162462562"><ele>295.5</ele><time>2026-04-27T11:31:27Z</time></trkpt><trkpt lat="37.87987421381666" lon="-4.247292799633944"><ele>296.0</ele><time>2026-04-27T11:31:28Z</time></trkpt><trkpt lat="37.87996107978073" lon="-4.247014125216631"><ele>296.0</ele><time>2026-04-27T11:31:29Z</time></trkpt><trkpt lat="37.88005098713351" lon="-4.2467281182647065"><ele>296.0</ele><time>2026-04-27T11:31:30Z</time></trkpt><trkpt lat="37.880141381608404" lon="-4.246440910013879"><ele>290.5</ele><time>2026-04-27T11:31:31Z</time></trkpt><trkpt lat="37.8802324682226" lon="-4.246150050742801"><ele>285.0</ele><time>2026-04-27T11:31:32Z</time></trkpt><trkpt lat="37.880327307148555" lon="-4.245861088896948"><ele>287.5</ele><time>2026-04-27T11:31:33Z</time></trkpt><trkpt lat="37.88041952781979" lon="-4.245572387728123"><ele>290.0</ele><time>2026-04-27T11:31:34Z</time></trkpt><trkpt lat="37.88051060455568" lon="-4.245281567844995"><ele>290.0</ele><time>2026-04-27T11:31:35Z</time></trkpt><trkpt lat="37.88060060237282" lon="-4.244995097028611"><ele>290.0</ele><time>2026-04-27T11:31:36Z</time></trkpt><trkpt lat="37.88069046400144" lon="-4.244706875006137"><ele>291.5</ele><time>2026-04-27T11:31:37Z</time></trkpt><trkpt lat="37.88076720528282" lon="-4.244415433001842"><ele>293.0</ele><time>2026-04-27T11:31:38Z</time></trkpt><trkpt lat="37.880829497121994" lon="-4.244117263944105"><ele>294.0</ele><time>2026-04-27T11:31:39Z</time></trkpt><trkpt lat="37.88087345360111" lon="-4.243806495149987"><ele>295.0</ele><time>2026-04-27T11:31:40Z</time></trkpt><trkpt lat="37.880909174646135" lon="-4.243492967434152"><ele>292.0</ele><time>2026-04-27T11:31:41Z</time></trkpt><trkpt lat="37.88093653340453" lon="-4.24317652900373"><ele>289.0</ele><time>2026-04-27T11:31:42Z</time></trkpt><trkpt lat="37.88094357315859" lon="-4.24285366795386"><ele>289.0</ele><time>2026-04-27T11:31:43Z</time></trkpt><trkpt lat="37.88093811861651" lon="-4.2425375832991"><ele>289.0</ele><time>2026-04-27T11:31:44Z</time></trkpt><trkpt lat="37.88091884648059" lon="-4.242227585911293"><ele>290.5</ele><time>2026-04-27T11:31:45Z</time></trkpt><trkpt lat="37.88088813063258" lon="-4.241930610687681"><ele>292.0</ele><time>2026-04-27T11:31:46Z</time></trkpt><trkpt lat="37.88084537025701" lon="-4.241635738718133"><ele>290.0</ele><time>2026-04-27T11:31:47Z</time></trkpt><trkpt lat="37.88078982805229" lon="-4.241348674265766"><ele>288.0</ele><time>2026-04-27T11:31:48Z</time></trkpt><trkpt lat="37.88072501717771" lon="-4.241064872167529"><ele>288.0</ele><time>2026-04-27T11:31:49Z</time></trkpt><trkpt lat="37.880658267712676" lon="-4.2407800975186625"><ele>288.0</ele><time>2026-04-27T11:31:50Z</time></trkpt><trkpt lat="37.88059549986607" lon="-4.240494698634823"><ele>285.0</ele><time>2026-04-27T11:31:51Z</time></trkpt><trkpt lat="37.88053527792409" lon="-4.240209291725716"><ele>282.0</ele><time>2026-04-27T11:31:52Z</time></trkpt><trkpt lat="37.880481108723764" lon="-4.239921666117676"><ele>281.0</ele><time>2026-04-27T11:31:53Z</time></trkpt><trkpt lat="37.880429544378586" lon="-4.239633557254442"><ele>280.0</ele><time>2026-04-27T11:31:54Z</time></trkpt><trkpt lat="37.88038297838265" lon="-4.239346590750636"><ele>280.0</ele><time>2026-04-27T11:31:55Z</time></trkpt><trkpt lat="37.880341219482624" lon="-4.239047221286372"><ele>280.0</ele><time>2026-04-27T11:31:56Z</time></trkpt><trkpt lat="37.88031225065558" lon="-4.238748812839548"><ele>279.0</ele><time>2026-04-27T11:31:57Z</time></trkpt><trkpt lat="37.88028986486746" lon="-4.238448637304206"><ele>278.0</ele><time>2026-04-27T11:31:58Z</time></trkpt><trkpt lat="37.88027305381982" lon="-4.238140496066901"><ele>276.0</ele><time>2026-04-27T11:31:59Z</time></trkpt><trkpt lat="37.880258041641945" lon="-4.237830110977316"><ele>274.0</ele><time>2026-04-27T11:32:00Z</time></trkpt><trkpt lat="37.88024904502831" lon="-4.2375206439296464"><ele>271.0</ele><time>2026-04-27T11:32:01Z</time></trkpt><trkpt lat="37.880248925517336" lon="-4.237209008920587"><ele>268.0</ele><time>2026-04-27T11:32:02Z</time></trkpt><trkpt lat="37.880258959556286" lon="-4.236895436628127"><ele>268.0</ele><time>2026-04-27T11:32:03Z</time></trkpt><trkpt lat="37.88027447296896" lon="-4.236579724645324"><ele>268.0</ele><time>2026-04-27T11:32:04Z</time></trkpt><trkpt lat="37.88029410410853" lon="-4.236266260884082"><ele>266.0</ele><time>2026-04-27T11:32:05Z</time></trkpt><trkpt lat="37.88032295258807" lon="-4.235957169794229"><ele>264.0</ele><time>2026-04-27T11:32:06Z</time></trkpt><trkpt lat="37.88036343801089" lon="-4.235650212754946"><ele>263.5</ele><time>2026-04-27T11:32:07Z</time></trkpt><trkpt lat="37.88040569540723" lon="-4.2353424736727465"><ele>263.0</ele><time>2026-04-27T11:32:08Z</time></trkpt><trkpt lat="37.88045102228373" lon="-4.235036406080484"><ele>263.0</ele><time>2026-04-27T11:32:09Z</time></trkpt><trkpt lat="37.88050882464701" lon="-4.234737722218741"><ele>263.0</ele><time>2026-04-27T11:32:10Z</time></trkpt><trkpt lat="37.880571845708985" lon="-4.234440217783746"><ele>263.0</ele><time>2026-04-27T11:32:11Z</time></trkpt><trkpt lat="37.880636917825406" lon="-4.234153938011093"><ele>263.0</ele><time>2026-04-27T11:32:12Z</time></trkpt><trkpt lat="37.88070289365872" lon="-4.233873397379363"><ele>264.0</ele><time>2026-04-27T11:32:13Z</time></trkpt><trkpt lat="37.880764202369974" lon="-4.233611646976972"><ele>265.0</ele><time>2026-04-27T11:32:14Z</time></trkpt><trkpt lat="37.88082252249619" lon="-4.233367936208257"><ele>266.0</ele><time>2026-04-27T11:32:15Z</time></trkpt><trkpt lat="37.880876549623366" lon="-4.233138780932225"><ele>266.6666666666667</ele><time>2026-04-27T11:32:16Z</time></trkpt><trkpt lat="37.88092526731509" lon="-4.232918845939068"><ele>267.3333333333333</ele><time>2026-04-27T11:32:17Z</time></trkpt><trkpt lat="37.88097185626397" lon="-4.232704215184552"><ele>268.0</ele><time>2026-04-27T11:32:18Z</time></trkpt><trkpt lat="37.88101323773207" lon="-4.232479662186161"><ele>263.0</ele><time>2026-04-27T11:32:19Z</time></trkpt><trkpt lat="37.88104341145014" lon="-4.2322577630733536"><ele>258.0</ele><time>2026-04-27T11:32:20Z</time></trkpt><trkpt lat="37.88106852735228" lon="-4.232033016763414"><ele>253.0</ele><time>2026-04-27T11:32:21Z</time></trkpt><trkpt lat="37.88108881481834" lon="-4.231810689336711"><ele>253.0</ele><time>2026-04-27T11:32:22Z</time></trkpt><trkpt lat="37.88110080177563" lon="-4.23157771634634"><ele>253.0</ele><time>2026-04-27T11:32:23Z</time></trkpt><trkpt lat="37.88110466565002" lon="-4.231349446820589"><ele>253.0</ele><time>2026-04-27T11:32:24Z</time></trkpt><trkpt lat="37.88109871698986" lon="-4.231132319255409"><ele>253.0</ele><time>2026-04-27T11:32:25Z</time></trkpt><trkpt lat="37.88109352667933" lon="-4.230909905956399"><ele>253.0</ele><time>2026-04-27T11:32:26Z</time></trkpt><trkpt lat="37.881083709214394" lon="-4.230684458076983"><ele>253.0</ele><time>2026-04-27T11:32:27Z</time></trkpt><trkpt lat="37.881075875487085" lon="-4.230437717783894"><ele>252.0</ele><time>2026-04-27T11:32:28Z</time></trkpt><trkpt lat="37.881070029401805" lon="-4.230156450754789"><ele>251.0</ele><time>2026-04-27T11:32:29Z</time></trkpt><trkpt lat="37.881058951582695" lon="-4.229847894784892"><ele>250.5</ele><time>2026-04-27T11:32:30Z</time></trkpt><trkpt lat="37.88104936488815" lon="-4.229519616044617"><ele>250.0</ele><time>2026-04-27T11:32:31Z</time></trkpt><trkpt lat="37.88103927782624" lon="-4.22917838497765"><ele>250.5</ele><time>2026-04-27T11:32:32Z</time></trkpt><trkpt lat="37.88102608549414" lon="-4.228838934386644"><ele>251.0</ele><time>2026-04-27T11:32:33Z</time></trkpt><trkpt lat="37.881004496570135" lon="-4.2285018604852596"><ele>251.0</ele><time>2026-04-27T11:32:34Z</time></trkpt><trkpt lat="37.880976424689145" lon="-4.228158957357099"><ele>251.0</ele><time>2026-04-27T11:32:35Z</time></trkpt><trkpt lat="37.88095121626096" lon="-4.227808476579218"><ele>253.5</ele><time>2026-04-27T11:32:36Z</time></trkpt><trkpt lat="37.88092936614208" lon="-4.227459995670568"><ele>256.0</ele><time>2026-04-27T11:32:37Z</time></trkpt><trkpt lat="37.880910459689616" lon="-4.227111745904943"><ele>256.0</ele><time>2026-04-27T11:32:38Z</time></trkpt><trkpt lat="37.88089281034966" lon="-4.226765995430218"><ele>256.0</ele><time>2026-04-27T11:32:39Z</time></trkpt><trkpt lat="37.880876936063224" lon="-4.226416530358096"><ele>255.5</ele><time>2026-04-27T11:32:40Z</time></trkpt><trkpt lat="37.88086019788977" lon="-4.2260638587311465"><ele>255.0</ele><time>2026-04-27T11:32:41Z</time></trkpt><trkpt lat="37.88084308058431" lon="-4.225716328012075"><ele>255.5</ele><time>2026-04-27T11:32:42Z</time></trkpt><trkpt lat="37.88082698767507" lon="-4.225373943117318"><ele>256.0</ele><time>2026-04-27T11:32:43Z</time></trkpt><trkpt lat="37.8808128393557" lon="-4.225038198505343"><ele>254.5</ele><time>2026-04-27T11:32:44Z</time></trkpt><trkpt lat="37.88079485438772" lon="-4.224707644178337"><ele>253.0</ele><time>2026-04-27T11:32:45Z</time></trkpt><trkpt lat="37.88077689071811" lon="-4.224381978009633"><ele>253.0</ele><time>2026-04-27T11:32:46Z</time></trkpt><trkpt lat="37.88076091066095" lon="-4.2240675386328626"><ele>253.0</ele><time>2026-04-27T11:32:47Z</time></trkpt><trkpt lat="37.880746658444295" lon="-4.2237585735493335"><ele>252.0</ele><time>2026-04-27T11:32:48Z</time></trkpt><trkpt lat="37.88072615241071" lon="-4.223450441649869"><ele>251.0</ele><time>2026-04-27T11:32:49Z</time></trkpt><trkpt lat="37.88068773924331" lon="-4.223147791942236"><ele>249.0</ele><time>2026-04-27T11:32:50Z</time></trkpt><trkpt lat="37.880636396621234" lon="-4.222842812170481"><ele>247.0</ele><time>2026-04-27T11:32:51Z</time></trkpt><trkpt lat="37.88057135130647" lon="-4.222545379793235"><ele>245.0</ele><time>2026-04-27T11:32:52Z</time></trkpt><trkpt lat="37.880487896020774" lon="-4.222255796270772"><ele>243.0</ele><time>2026-04-27T11:32:53Z</time></trkpt><trkpt lat="37.88039234880161" lon="-4.2219898423126025"><ele>243.0</ele><time>2026-04-27T11:32:54Z</time></trkpt><trkpt lat="37.88027559172235" lon="-4.221720485338245"><ele>243.0</ele><time>2026-04-27T11:32:55Z</time></trkpt><trkpt lat="37.880149658641386" lon="-4.221467424545749"><ele>245.0</ele><time>2026-04-27T11:32:56Z</time></trkpt><trkpt lat="37.88000817450634" lon="-4.221220161743801"><ele>247.0</ele><time>2026-04-27T11:32:57Z</time></trkpt><trkpt lat="37.87985322796484" lon="-4.220982096382891"><ele>247.0</ele><time>2026-04-27T11:32:58Z</time></trkpt><trkpt lat="37.879688342907684" lon="-4.220750993885492"><ele>247.0</ele><time>2026-04-27T11:32:59Z</time></trkpt><trkpt lat="37.87952124027758" lon="-4.220518323205072"><ele>248.0</ele><time>2026-04-27T11:33:00Z</time></trkpt><trkpt lat="37.87936048262086" lon="-4.220276805784702"><ele>249.0</ele><time>2026-04-27T11:33:01Z</time></trkpt><trkpt lat="37.87921312433319" lon="-4.22002734667696"><ele>244.5</ele><time>2026-04-27T11:33:02Z</time></trkpt><trkpt lat="37.87907930733488" lon="-4.219770110818068"><ele>240.0</ele><time>2026-04-27T11:33:03Z</time></trkpt><trkpt lat="37.87895618513017" lon="-4.219493404260666"><ele>240.0</ele><time>2026-04-27T11:33:04Z</time></trkpt><trkpt lat="37.87884704167334" lon="-4.2192069645430355"><ele>240.0</ele><time>2026-04-27T11:33:05Z</time></trkpt><trkpt lat="37.87874665318864" lon="-4.218906095274268"><ele>238.0</ele><time>2026-04-27T11:33:06Z</time></trkpt><trkpt lat="37.878657836120325" lon="-4.218601160087909"><ele>236.0</ele><time>2026-04-27T11:33:07Z</time></trkpt><trkpt lat="37.8785812817926" lon="-4.218299320582748"><ele>233.5</ele><time>2026-04-27T11:33:08Z</time></trkpt><trkpt lat="37.87850716860965" lon="-4.218003827846266"><ele>231.0</ele><time>2026-04-27T11:33:09Z</time></trkpt><trkpt lat="37.87843681274361" lon="-4.217716368545853"><ele>234.5</ele><time>2026-04-27T11:33:10Z</time></trkpt><trkpt lat="37.87836764442616" lon="-4.2174344982527785"><ele>238.0</ele><time>2026-04-27T11:33:11Z</time></trkpt><trkpt lat="37.87829386021224" lon="-4.217148009718077"><ele>238.0</ele><time>2026-04-27T11:33:12Z</time></trkpt><trkpt lat="37.878219683031126" lon="-4.216861800685357"><ele>238.0</ele><time>2026-04-27T11:33:13Z</time></trkpt><trkpt lat="37.8781470904167" lon="-4.2165727041698124"><ele>234.0</ele><time>2026-04-27T11:33:14Z</time></trkpt><trkpt lat="37.87808203188482" lon="-4.216276668673181"><ele>230.0</ele><time>2026-04-27T11:33:15Z</time></trkpt><trkpt lat="37.87801895788617" lon="-4.2159699878025965"><ele>230.0</ele><time>2026-04-27T11:33:16Z</time></trkpt><trkpt lat="37.877967499478494" lon="-4.215659202368196"><ele>230.0</ele><time>2026-04-27T11:33:17Z</time></trkpt><trkpt lat="37.87792190508814" lon="-4.2153362510736905"><ele>227.5</ele><time>2026-04-27T11:33:18Z</time></trkpt><trkpt lat="37.87788820213374" lon="-4.215005827769342"><ele>225.0</ele><time>2026-04-27T11:33:19Z</time></trkpt><trkpt lat="37.87787139127071" lon="-4.214676301494765"><ele>222.5</ele><time>2026-04-27T11:33:20Z</time></trkpt><trkpt lat="37.877873956080094" lon="-4.214343683315348"><ele>220.0</ele><time>2026-04-27T11:33:21Z</time></trkpt><trkpt lat="37.87789464615766" lon="-4.214011362622995"><ele>220.0</ele><time>2026-04-27T11:33:22Z</time></trkpt><trkpt lat="37.87792319326786" lon="-4.213682612851521"><ele>220.0</ele><time>2026-04-27T11:33:23Z</time></trkpt><trkpt lat="37.8779706997555" lon="-4.213353517921032"><ele>225.0</ele><time>2026-04-27T11:33:24Z</time></trkpt><trkpt lat="37.87803296970109" lon="-4.213029794722638"><ele>230.0</ele><time>2026-04-27T11:33:25Z</time></trkpt><trkpt lat="37.878110790962936" lon="-4.212703851277086"><ele>230.0</ele><time>2026-04-27T11:33:26Z</time></trkpt><trkpt lat="37.87820052088079" lon="-4.212381079217368"><ele>230.0</ele><time>2026-04-27T11:33:27Z</time></trkpt><trkpt lat="37.878299616491326" lon="-4.212068608085164"><ele>233.5</ele><time>2026-04-27T11:33:28Z</time></trkpt><trkpt lat="37.878396912996934" lon="-4.211751591771834"><ele>237.0</ele><time>2026-04-27T11:33:29Z</time></trkpt><trkpt lat="37.87849522099123" lon="-4.211436052215989"><ele>237.0</ele><time>2026-04-27T11:33:30Z</time></trkpt><trkpt lat="37.87859391279249" lon="-4.211124453131905"><ele>237.0</ele><time>2026-04-27T11:33:31Z</time></trkpt><trkpt lat="37.878695063068825" lon="-4.210807785241082"><ele>238.5</ele><time>2026-04-27T11:33:32Z</time></trkpt><trkpt lat="37.87879687686918" lon="-4.210488816071407"><ele>240.0</ele><time>2026-04-27T11:33:33Z</time></trkpt><trkpt lat="37.87889939972044" lon="-4.210159381333206"><ele>240.0</ele><time>2026-04-27T11:33:34Z</time></trkpt><trkpt lat="37.879006557153254" lon="-4.209828747848615"><ele>240.0</ele><time>2026-04-27T11:33:34.999Z</time></trkpt><trkpt lat="37.87911133868288" lon="-4.209501238247877"><ele>242.0</ele><time>2026-04-27T11:33:35.999Z</time></trkpt><trkpt lat="37.8792156499402" lon="-4.209171823151281"><ele>244.0</ele><time>2026-04-27T11:33:36.999Z</time></trkpt><trkpt lat="37.87932232591573" lon="-4.208841621659553"><ele>244.0</ele><time>2026-04-27T11:33:37.999Z</time></trkpt><trkpt lat="37.87942658968427" lon="-4.208514016248457"><ele>244.0</ele><time>2026-04-27T11:33:38.999Z</time></trkpt><trkpt lat="37.87952914444097" lon="-4.208182462552577"><ele>246.5</ele><time>2026-04-27T11:33:39.999Z</time></trkpt><trkpt lat="37.879613818755885" lon="-4.207844287527433"><ele>249.0</ele><time>2026-04-27T11:33:40.999Z</time></trkpt><trkpt lat="37.879717362202136" lon="-4.2075178373087585"><ele>252.5</ele><time>2026-04-27T11:33:41.999Z</time></trkpt><trkpt lat="37.8798198477352" lon="-4.2071936086344826"><ele>256.0</ele><time>2026-04-27T11:33:42.999Z</time></trkpt><trkpt lat="37.87992250845435" lon="-4.206872606704922"><ele>256.0</ele><time>2026-04-27T11:33:43.999Z</time></trkpt><trkpt lat="37.880022993855704" lon="-4.2065581324438925"><ele>256.0</ele><time>2026-04-27T11:33:44.999Z</time></trkpt><trkpt lat="37.880120098146755" lon="-4.206247454306115"><ele>256.5</ele><time>2026-04-27T11:33:45.999Z</time></trkpt><trkpt lat="37.88021319757576" lon="-4.205936977734369"><ele>257.0</ele><time>2026-04-27T11:33:46.999Z</time></trkpt><trkpt lat="37.88030056228593" lon="-4.205622736921541"><ele>260.5</ele><time>2026-04-27T11:33:47.999Z</time></trkpt><trkpt lat="37.88038032702618" lon="-4.205300696891038"><ele>264.0</ele><time>2026-04-27T11:33:48.999Z</time></trkpt><trkpt lat="37.880453206374526" lon="-4.204975612746785"><ele>266.5</ele><time>2026-04-27T11:33:49.999Z</time></trkpt><trkpt lat="37.88051949612253" lon="-4.204647899357887"><ele>269.0</ele><time>2026-04-27T11:33:50.999Z</time></trkpt><trkpt lat="37.880575563054514" lon="-4.2043130964505515"><ele>271.0</ele><time>2026-04-27T11:33:51.999Z</time></trkpt><trkpt lat="37.880623845179855" lon="-4.203974840501196"><ele>273.0</ele><time>2026-04-27T11:33:52.999Z</time></trkpt><trkpt lat="37.88066502103539" lon="-4.203633590086341"><ele>273.0</ele><time>2026-04-27T11:33:53.999Z</time></trkpt><trkpt lat="37.880695820785164" lon="-4.2032896353643014"><ele>273.0</ele><time>2026-04-27T11:33:55Z</time></trkpt><trkpt lat="37.88073488348834" lon="-4.2029453664905185"><ele>274.5</ele><time>2026-04-27T11:33:56Z</time></trkpt><trkpt lat="37.880747588506374" lon="-4.20259581087013"><ele>276.0</ele><time>2026-04-27T11:33:57Z</time></trkpt><trkpt lat="37.880748293272504" lon="-4.202247941520396"><ele>276.0</ele><time>2026-04-27T11:33:58Z</time></trkpt><trkpt lat="37.88073959356646" lon="-4.201903925386106"><ele>276.0</ele><time>2026-04-27T11:33:59Z</time></trkpt><trkpt lat="37.88072815603566" lon="-4.201558435333532"><ele>275.0</ele><time>2026-04-27T11:34:00Z</time></trkpt><trkpt lat="37.88069313430931" lon="-4.201217322459585"><ele>274.0</ele><time>2026-04-27T11:34:01Z</time></trkpt><trkpt lat="37.88066349466511" lon="-4.20088097496652"><ele>277.5</ele><time>2026-04-27T11:34:02Z</time></trkpt><trkpt lat="37.88063977131828" lon="-4.200541588993232"><ele>281.0</ele><time>2026-04-27T11:34:03Z</time></trkpt><trkpt lat="37.88058719190343" lon="-4.200210792071653"><ele>281.0</ele><time>2026-04-27T11:34:04Z</time></trkpt><trkpt lat="37.88053031872115" lon="-4.199880933830684"><ele>281.0</ele><time>2026-04-27T11:34:05Z</time></trkpt><trkpt lat="37.880464712882095" lon="-4.199547580297271"><ele>282.5</ele><time>2026-04-27T11:34:06Z</time></trkpt><trkpt lat="37.8803830477528" lon="-4.199223736214039"><ele>284.0</ele><time>2026-04-27T11:34:07Z</time></trkpt><trkpt lat="37.88031676064032" lon="-4.1988916649698504"><ele>285.0</ele><time>2026-04-27T11:34:08Z</time></trkpt><trkpt lat="37.880232440836785" lon="-4.198566928709619"><ele>286.0</ele><time>2026-04-27T11:34:09Z</time></trkpt><trkpt lat="37.880138666575554" lon="-4.19824355565251"><ele>291.0</ele><time>2026-04-27T11:34:10Z</time></trkpt><trkpt lat="37.88004356305468" lon="-4.197914777355782"><ele>296.0</ele><time>2026-04-27T11:34:11Z</time></trkpt><trkpt lat="37.879946782768336" lon="-4.197588273618057"><ele>296.5</ele><time>2026-04-27T11:34:12Z</time></trkpt><trkpt lat="37.87985162353566" lon="-4.197262059173717"><ele>297.0</ele><time>2026-04-27T11:34:13Z</time></trkpt><trkpt lat="37.87975842719448" lon="-4.196931923852555"><ele>297.0</ele><time>2026-04-27T11:34:14Z</time></trkpt><trkpt lat="37.879665475814114" lon="-4.196603044724804"><ele>297.0</ele><time>2026-04-27T11:34:15Z</time></trkpt><trkpt lat="37.87957094958638" lon="-4.196280168964655"><ele>299.0</ele><time>2026-04-27T11:34:16Z</time></trkpt><trkpt lat="37.87947988029697" lon="-4.195962756269011"><ele>301.0</ele><time>2026-04-27T11:34:17Z</time></trkpt><trkpt lat="37.87939229986303" lon="-4.195651624889829"><ele>302.5</ele><time>2026-04-27T11:34:18Z</time></trkpt><trkpt lat="37.87930837318261" lon="-4.195353646613337"><ele>304.0</ele><time>2026-04-27T11:34:19Z</time></trkpt><trkpt lat="37.87923041949603" lon="-4.195080376945479"><ele>308.0</ele><time>2026-04-27T11:34:20Z</time></trkpt><trkpt lat="37.87916238549568" lon="-4.194793920190139"><ele>312.0</ele><time>2026-04-27T11:34:21Z</time></trkpt><trkpt lat="37.87909251111941" lon="-4.194500304978072"><ele>312.0</ele><time>2026-04-27T11:34:22Z</time></trkpt><trkpt lat="37.87904308397078" lon="-4.194202822897354"><ele>312.0</ele><time>2026-04-27T11:34:23Z</time></trkpt><trkpt lat="37.879012792333185" lon="-4.193903319977855"><ele>314.0</ele><time>2026-04-27T11:34:24Z</time></trkpt><trkpt lat="37.87899667300667" lon="-4.193596930242733"><ele>316.0</ele><time>2026-04-27T11:34:25Z</time></trkpt><trkpt lat="37.87900049852632" lon="-4.193285920356505"><ele>317.0</ele><time>2026-04-27T11:34:26Z</time></trkpt><trkpt lat="37.87901815188263" lon="-4.192968876836178"><ele>318.0</ele><time>2026-04-27T11:34:27Z</time></trkpt><trkpt lat="37.87904348461983" lon="-4.192663115829976"><ele>318.0</ele><time>2026-04-27T11:34:28Z</time></trkpt><trkpt lat="37.879079443642574" lon="-4.192396365459542"><ele>318.0</ele><time>2026-04-27T11:34:29Z</time></trkpt><trkpt lat="37.879116426542424" lon="-4.192163795630303"><ele>318.0</ele><time>2026-04-27T11:34:30Z</time></trkpt><trkpt lat="37.879164729283374" lon="-4.191950131136738"><ele>317.6666666666667</ele><time>2026-04-27T11:34:31Z</time></trkpt><trkpt lat="37.87923976269198" lon="-4.191718865907874"><ele>317.33333333333337</ele><time>2026-04-27T11:34:32Z</time></trkpt><trkpt lat="37.87932991455776" lon="-4.191467656665337"><ele>317.0</ele><time>2026-04-27T11:34:33Z</time></trkpt><trkpt lat="37.87943247779976" lon="-4.191215977931017"><ele>317.0</ele><time>2026-04-27T11:34:34Z</time></trkpt><trkpt lat="37.87954768062247" lon="-4.190961787386355"><ele>317.0</ele><time>2026-04-27T11:34:35Z</time></trkpt><trkpt lat="37.87967844274799" lon="-4.190712789400713"><ele>321.0</ele><time>2026-04-27T11:34:36Z</time></trkpt><trkpt lat="37.879811097606236" lon="-4.190470645045108"><ele>325.0</ele><time>2026-04-27T11:34:37Z</time></trkpt><trkpt lat="37.87995025095829" lon="-4.190219170582793"><ele>325.0</ele><time>2026-04-27T11:34:38Z</time></trkpt><trkpt lat="37.8800915877708" lon="-4.189961184080068"><ele>325.0</ele><time>2026-04-27T11:34:39Z</time></trkpt><trkpt lat="37.880234883155666" lon="-4.189704271708083"><ele>325.0</ele><time>2026-04-27T11:34:40Z</time></trkpt><trkpt lat="37.8803786066154" lon="-4.1894415233743345"><ele>325.0</ele><time>2026-04-27T11:34:41Z</time></trkpt><trkpt lat="37.88052438910503" lon="-4.18918764996325"><ele>328.0</ele><time>2026-04-27T11:34:42Z</time></trkpt><trkpt lat="37.880666995687" lon="-4.18892614918212"><ele>331.0</ele><time>2026-04-27T11:34:43Z</time></trkpt><trkpt lat="37.8807999914385" lon="-4.188647400638366"><ele>331.0</ele><time>2026-04-27T11:34:44Z</time></trkpt><trkpt lat="37.880918354782985" lon="-4.188356981278613"><ele>331.0</ele><time>2026-04-27T11:34:45Z</time></trkpt><trkpt lat="37.88102769389822" lon="-4.1880596045504035"><ele>337.5</ele><time>2026-04-27T11:34:46Z</time></trkpt><trkpt lat="37.88111508663815" lon="-4.187750624122902"><ele>344.0</ele><time>2026-04-27T11:34:47Z</time></trkpt><trkpt lat="37.881182835195325" lon="-4.187436332198442"><ele>345.5</ele><time>2026-04-27T11:34:48Z</time></trkpt><trkpt lat="37.881232560792235" lon="-4.187114129680073"><ele>347.0</ele><time>2026-04-27T11:34:49Z</time></trkpt><trkpt lat="37.8812618032709" lon="-4.186788958239529"><ele>348.0</ele><time>2026-04-27T11:34:50Z</time></trkpt><trkpt lat="37.88127221997132" lon="-4.1864575151685415"><ele>349.0</ele><time>2026-04-27T11:34:51Z</time></trkpt><trkpt lat="37.88127022402298" lon="-4.186131424374131"><ele>349.0</ele><time>2026-04-27T11:34:52Z</time></trkpt><trkpt lat="37.88127030847134" lon="-4.1858080533258235"><ele>349.0</ele><time>2026-04-27T11:34:53Z</time></trkpt><trkpt lat="37.881269656015576" lon="-4.185486058135521"><ele>351.0</ele><time>2026-04-27T11:34:54Z</time></trkpt><trkpt lat="37.88126662962896" lon="-4.185160701070724"><ele>353.0</ele><time>2026-04-27T11:34:55Z</time></trkpt><trkpt lat="37.881266650401706" lon="-4.1848354951159745"><ele>355.0</ele><time>2026-04-27T11:34:56Z</time></trkpt><trkpt lat="37.88126647808943" lon="-4.184513142345154"><ele>357.0</ele><time>2026-04-27T11:34:57Z</time></trkpt><trkpt lat="37.88126427269837" lon="-4.184192190145153"><ele>360.5</ele><time>2026-04-27T11:34:58Z</time></trkpt><trkpt lat="37.881261804125785" lon="-4.183868309682353"><ele>364.0</ele><time>2026-04-27T11:34:59Z</time></trkpt><trkpt lat="37.88125828874147" lon="-4.183546810591299"><ele>364.0</ele><time>2026-04-27T11:35:00Z</time></trkpt><trkpt lat="37.88125256507679" lon="-4.183218761511131"><ele>364.0</ele><time>2026-04-27T11:35:01Z</time></trkpt><trkpt lat="37.88124026849766" lon="-4.182886538910226"><ele>365.0</ele><time>2026-04-27T11:35:02Z</time></trkpt><trkpt lat="37.88121916649443" lon="-4.182550052154242"><ele>366.0</ele><time>2026-04-27T11:35:03Z</time></trkpt><trkpt lat="37.88119207450832" lon="-4.182216273566602"><ele>366.5</ele><time>2026-04-27T11:35:04Z</time></trkpt><trkpt lat="37.88115425160946" lon="-4.181893691056575"><ele>367.0</ele><time>2026-04-27T11:35:05Z</time></trkpt><trkpt lat="37.881112775246464" lon="-4.181569994617235"><ele>368.0</ele><time>2026-04-27T11:35:06Z</time></trkpt><trkpt lat="37.88105811272736" lon="-4.181250596442546"><ele>369.0</ele><time>2026-04-27T11:35:07Z</time></trkpt><trkpt lat="37.880994305888926" lon="-4.180932645167565"><ele>368.5</ele><time>2026-04-27T11:35:08Z</time></trkpt><trkpt lat="37.88092271071692" lon="-4.180623262621207"><ele>368.0</ele><time>2026-04-27T11:35:09Z</time></trkpt><trkpt lat="37.880847226083745" lon="-4.180325483404855"><ele>368.0</ele><time>2026-04-27T11:35:10Z</time></trkpt><trkpt lat="37.88075669203717" lon="-4.18001352729664"><ele>368.0</ele><time>2026-04-27T11:35:11Z</time></trkpt><trkpt lat="37.880664765485825" lon="-4.179720794729844"><ele>369.0</ele><time>2026-04-27T11:35:12Z</time></trkpt><trkpt lat="37.88056087228697" lon="-4.179433787125287"><ele>370.0</ele><time>2026-04-27T11:35:13Z</time></trkpt><trkpt lat="37.880450096423736" lon="-4.179155522047416"><ele>372.0</ele><time>2026-04-27T11:35:14Z</time></trkpt><trkpt lat="37.88033670877105" lon="-4.178884317120324"><ele>374.0</ele><time>2026-04-27T11:35:15Z</time></trkpt><trkpt lat="37.88021992274554" lon="-4.178616588252587"><ele>374.5</ele><time>2026-04-27T11:35:16Z</time></trkpt><trkpt lat="37.88008891383543" lon="-4.1783525837234"><ele>375.0</ele><time>2026-04-27T11:35:17Z</time></trkpt><trkpt lat="37.87995239658967" lon="-4.178095818656767"><ele>377.5</ele><time>2026-04-27T11:35:18Z</time></trkpt><trkpt lat="37.879799184339014" lon="-4.177865253634816"><ele>380.0</ele><time>2026-04-27T11:35:19Z</time></trkpt><trkpt lat="37.87966235507354" lon="-4.177608003068313"><ele>380.0</ele><time>2026-04-27T11:35:20Z</time></trkpt><trkpt lat="37.879494121607046" lon="-4.177388126474266"><ele>380.0</ele><time>2026-04-27T11:35:21Z</time></trkpt><trkpt lat="37.87933596567774" lon="-4.177170905457862"><ele>386.5</ele><time>2026-04-27T11:35:22Z</time></trkpt><trkpt lat="37.87917555003684" lon="-4.176961591732234"><ele>393.0</ele><time>2026-04-27T11:35:23Z</time></trkpt><trkpt lat="37.87901721699508" lon="-4.176766152406423"><ele>393.0</ele><time>2026-04-27T11:35:24Z</time></trkpt><trkpt lat="37.87885574051405" lon="-4.176575987609424"><ele>393.0</ele><time>2026-04-27T11:35:25Z</time></trkpt><trkpt lat="37.87868512162374" lon="-4.176386919046992"><ele>393.0</ele><time>2026-04-27T11:35:26Z</time></trkpt><trkpt lat="37.87850367609719" lon="-4.17619840246409"><ele>399.0</ele><time>2026-04-27T11:35:27Z</time></trkpt><trkpt lat="37.87832214039234" lon="-4.175996504495966"><ele>405.0</ele><time>2026-04-27T11:35:28Z</time></trkpt><trkpt lat="37.87811625334197" lon="-4.1758320901577655"><ele>409.0</ele><time>2026-04-27T11:35:29Z</time></trkpt><trkpt lat="37.87792063427998" lon="-4.175650548733331"><ele>413.0</ele><time>2026-04-27T11:35:30Z</time></trkpt><trkpt lat="37.87774015887869" lon="-4.175456837407699"><ele>411.5</ele><time>2026-04-27T11:35:31Z</time></trkpt><trkpt lat="37.87754644946888" lon="-4.175280600070414"><ele>410.0</ele><time>2026-04-27T11:35:32Z</time></trkpt><trkpt lat="37.87735396746123" lon="-4.175101093305826"><ele>410.0</ele><time>2026-04-27T11:35:33Z</time></trkpt><trkpt lat="37.87715950064355" lon="-4.1749224155657725"><ele>410.0</ele><time>2026-04-27T11:35:34Z</time></trkpt><trkpt lat="37.87696180951067" lon="-4.17474143307658"><ele>415.5</ele><time>2026-04-27T11:35:35Z</time></trkpt><trkpt lat="37.876761683944366" lon="-4.174557642275666"><ele>421.0</ele><time>2026-04-27T11:35:36Z</time></trkpt><trkpt lat="37.87655086674979" lon="-4.174387335987898"><ele>421.0</ele><time>2026-04-27T11:35:37Z</time></trkpt><trkpt lat="37.87635391606021" lon="-4.174206008550105"><ele>421.0</ele><time>2026-04-27T11:35:38Z</time></trkpt><trkpt lat="37.87615631931962" lon="-4.174028527906415"><ele>424.5</ele><time>2026-04-27T11:35:39Z</time></trkpt><trkpt lat="37.87596946594587" lon="-4.173835257713176"><ele>428.0</ele><time>2026-04-27T11:35:40Z</time></trkpt><trkpt lat="37.87576932251221" lon="-4.173659367934932"><ele>428.0</ele><time>2026-04-27T11:35:40.999Z</time></trkpt><trkpt lat="37.87557570118658" lon="-4.1734827161366495"><ele>428.0</ele><time>2026-04-27T11:35:41.999Z</time></trkpt><trkpt lat="37.87538186695242" lon="-4.173304188355075"><ele>427.0</ele><time>2026-04-27T11:35:42.999Z</time></trkpt><trkpt lat="37.87518448678611" lon="-4.173122674384493"><ele>426.0</ele><time>2026-04-27T11:35:43.999Z</time></trkpt><trkpt lat="37.87498948660225" lon="-4.172937799525013"><ele>426.0</ele><time>2026-04-27T11:35:44.999Z</time></trkpt><trkpt lat="37.87479217559583" lon="-4.172748927635285"><ele>426.0</ele><time>2026-04-27T11:35:45.999Z</time></trkpt><trkpt lat="37.874589503332" lon="-4.17256184289698"><ele>426.0</ele><time>2026-04-27T11:35:46.999Z</time></trkpt><trkpt lat="37.87438224912518" lon="-4.172375793000355"><ele>426.0</ele><time>2026-04-27T11:35:47.999Z</time></trkpt><trkpt lat="37.87417545800304" lon="-4.172187024982603"><ele>429.0</ele><time>2026-04-27T11:35:48.999Z</time></trkpt><trkpt lat="37.87397321226455" lon="-4.172001198247059"><ele>432.0</ele><time>2026-04-27T11:35:49.999Z</time></trkpt><trkpt lat="37.87377908118972" lon="-4.171817028550001"><ele>432.0</ele><time>2026-04-27T11:35:50.999Z</time></trkpt><trkpt lat="37.873587580220104" lon="-4.171636471115505"><ele>432.0</ele><time>2026-04-27T11:35:51.999Z</time></trkpt><trkpt lat="37.8733969681436" lon="-4.1714617234258045"><ele>434.66666666666663</ele><time>2026-04-27T11:35:52.999Z</time></trkpt><trkpt lat="37.87321536063245" lon="-4.171291794754222"><ele>437.3333333333333</ele><time>2026-04-27T11:35:53.999Z</time></trkpt><trkpt lat="37.87304454187027" lon="-4.171129135155055"><ele>440.0</ele><time>2026-04-27T11:35:54.999Z</time></trkpt><trkpt lat="37.87287920925256" lon="-4.170971988191634"><ele>440.0</ele><time>2026-04-27T11:35:55.999Z</time></trkpt><trkpt lat="37.87272194779036" lon="-4.170830103742814"><ele>440.0</ele><time>2026-04-27T11:35:56.999Z</time></trkpt><trkpt lat="37.872576078558055" lon="-4.170703951661503"><ele>440.0</ele><time>2026-04-27T11:35:57.999Z</time></trkpt><trkpt lat="37.87243608128794" lon="-4.170582297139563"><ele>439.0</ele><time>2026-04-27T11:35:58.999Z</time></trkpt><trkpt lat="37.87230198961149" lon="-4.170469052438562"><ele>438.0</ele><time>2026-04-27T11:36:00Z</time></trkpt><trkpt lat="37.872172184611806" lon="-4.17035590028519"><ele>437.0</ele><time>2026-04-27T11:36:01Z</time></trkpt><trkpt lat="37.87205146683869" lon="-4.170244191331056"><ele>437.0</ele><time>2026-04-27T11:36:02Z</time></trkpt><trkpt lat="37.871936458335846" lon="-4.170142241839207"><ele>437.0</ele><time>2026-04-27T11:36:03Z</time></trkpt><trkpt lat="37.87182874978047" lon="-4.170059110305116"><ele>437.0</ele><time>2026-04-27T11:36:04Z</time></trkpt><trkpt lat="37.87172317163444" lon="-4.17001400665722"><ele>437.0</ele><time>2026-04-27T11:36:05Z</time></trkpt><trkpt lat="37.87162462128961" lon="-4.170016369215533"><ele>435.0</ele><time>2026-04-27T11:36:06Z</time></trkpt><trkpt lat="37.87153022115489" lon="-4.17006871502095"><ele>433.0</ele><time>2026-04-27T11:36:07Z</time></trkpt><trkpt lat="37.87144319346557" lon="-4.170187013177829"><ele>431.0</ele><time>2026-04-27T11:36:08Z</time></trkpt><trkpt lat="37.87135688592933" lon="-4.170312864381972"><ele>429.0</ele><time>2026-04-27T11:36:09Z</time></trkpt><trkpt lat="37.871262893364445" lon="-4.170478692051293"><ele>429.0</ele><time>2026-04-27T11:36:10Z</time></trkpt><trkpt lat="37.87116774911079" lon="-4.170662197029177"><ele>429.0</ele><time>2026-04-27T11:36:11Z</time></trkpt><trkpt lat="37.8710789249045" lon="-4.170851830906977"><ele>429.0</ele><time>2026-04-27T11:36:12Z</time></trkpt><trkpt lat="37.87098816728154" lon="-4.17102986895013"><ele>430.66666666666663</ele><time>2026-04-27T11:36:13Z</time></trkpt><trkpt lat="37.87090195329053" lon="-4.1712106752200935"><ele>432.3333333333333</ele><time>2026-04-27T11:36:14Z</time></trkpt><trkpt lat="37.87082332460791" lon="-4.171383930167458"><ele>434.0</ele><time>2026-04-27T11:36:15Z</time></trkpt><trkpt lat="37.87075141678511" lon="-4.171538587054957"><ele>434.0</ele><time>2026-04-27T11:36:16Z</time></trkpt><trkpt lat="37.87068526575981" lon="-4.171682974685099"><ele>434.0</ele><time>2026-04-27T11:36:17Z</time></trkpt><trkpt lat="37.87063073253064" lon="-4.171817801815248"><ele>434.0</ele><time>2026-04-27T11:36:18Z</time></trkpt><trkpt lat="37.87058850607493" lon="-4.171945939377699"><ele>434.0</ele><time>2026-04-27T11:36:19Z</time></trkpt><trkpt lat="37.87055967410517" lon="-4.172083588889391"><ele>434.0</ele><time>2026-04-27T11:36:20Z</time></trkpt><trkpt lat="37.87054332249079" lon="-4.172228637221265"><ele>434.0</ele><time>2026-04-27T11:36:21Z</time></trkpt><trkpt lat="37.87055377047425" lon="-4.17237374276432"><ele>434.0</ele><time>2026-04-27T11:36:22Z</time></trkpt><trkpt lat="37.870596750388316" lon="-4.172511301838053"><ele>434.0</ele><time>2026-04-27T11:36:23Z</time></trkpt><trkpt lat="37.87065217402008" lon="-4.172644621232416"><ele>435.75</ele><time>2026-04-27T11:36:24Z</time></trkpt><trkpt lat="37.8707230506831" lon="-4.172753059891588"><ele>437.5</ele><time>2026-04-27T11:36:25Z</time></trkpt><trkpt lat="37.87080900509698" lon="-4.172847985390135"><ele>439.25</ele><time>2026-04-27T11:36:26Z</time></trkpt><trkpt lat="37.870908897098914" lon="-4.1729391039543895"><ele>441.0</ele><time>2026-04-27T11:36:27Z</time></trkpt><trkpt lat="37.871021627436306" lon="-4.173018982208736"><ele>443.25</ele><time>2026-04-27T11:36:28Z</time></trkpt><trkpt lat="37.87114167430516" lon="-4.173098971602544"><ele>445.5</ele><time>2026-04-27T11:36:29Z</time></trkpt><trkpt lat="37.87125869826322" lon="-4.173183389360555"><ele>447.75</ele><time>2026-04-27T11:36:30Z</time></trkpt><trkpt lat="37.87136781957125" lon="-4.173263252823969"><ele>450.0</ele><time>2026-04-27T11:36:31Z</time></trkpt><trkpt lat="37.87146576086603" lon="-4.173334676944231"><ele>450.0</ele><time>2026-04-27T11:36:32Z</time></trkpt><trkpt lat="37.871560770212156" lon="-4.173400935843855"><ele>450.0</ele><time>2026-04-27T11:36:33Z</time></trkpt><trkpt lat="37.871653502369334" lon="-4.173467168042891"><ele>450.0</ele><time>2026-04-27T11:36:34Z</time></trkpt><trkpt lat="37.87173692033162" lon="-4.17353208484115"><ele>450.0</ele><time>2026-04-27T11:36:35Z</time></trkpt><trkpt lat="37.87181152167427" lon="-4.173583588078898"><ele>450.0</ele><time>2026-04-27T11:36:36Z</time></trkpt><trkpt lat="37.8718761695184" lon="-4.173623881113156"><ele>449.6666666666667</ele><time>2026-04-27T11:36:37Z</time></trkpt><trkpt lat="37.87193541450339" lon="-4.173659018532224"><ele>449.33333333333337</ele><time>2026-04-27T11:36:38Z</time></trkpt><trkpt lat="37.87202925784378" lon="-4.173718631863368"><ele>449.0</ele><time>2026-04-27T11:36:40Z</time></trkpt><trkpt lat="37.87208237789596" lon="-4.173763562923591"><ele>448.6666666666667</ele><time>2026-04-27T11:36:41Z</time></trkpt><trkpt lat="37.87213904962776" lon="-4.173805496876775"><ele>448.33333333333337</ele><time>2026-04-27T11:36:42Z</time></trkpt><trkpt lat="37.872240852444314" lon="-4.173883443257658"><ele>448.0</ele><time>2026-04-27T11:36:44Z</time></trkpt><trkpt lat="37.8723198976024" lon="-4.173873906725612"><ele>448.0</ele><time>2026-04-27T11:36:45Z</time></trkpt><trkpt lat="37.8724130364646" lon="-4.173889491441016"><ele>447.99999999999994</ele><time>2026-04-27T11:36:46Z</time></trkpt><trkpt lat="37.8723902001004" lon="-4.173759596491627"><ele>447.99999999999994</ele><time>2026-04-27T11:36:47Z</time></trkpt><trkpt lat="37.8724271098692" lon="-4.1736392681768715"><ele>448.0</ele><time>2026-04-27T11:36:48Z</time></trkpt><trkpt lat="37.872467127093564" lon="-4.17349892596636"><ele>448.0</ele><time>2026-04-27T11:36:49Z</time></trkpt><trkpt lat="37.87252283553011" lon="-4.173329583337658"><ele>449.6666666666667</ele><time>2026-04-27T11:36:50Z</time></trkpt><trkpt lat="37.87257518733665" lon="-4.173125257052879"><ele>451.33333333333337</ele><time>2026-04-27T11:36:51Z</time></trkpt><trkpt lat="37.87263077923841" lon="-4.17291855852083"><ele>453.0</ele><time>2026-04-27T11:36:52Z</time></trkpt><trkpt lat="37.87269136589127" lon="-4.172687197125298"><ele>448.33333333333337</ele><time>2026-04-27T11:36:53Z</time></trkpt><trkpt lat="37.87275297777198" lon="-4.1724536947463395"><ele>443.6666666666667</ele><time>2026-04-27T11:36:54Z</time></trkpt><trkpt lat="37.872809383382034" lon="-4.172245705960082"><ele>439.0</ele><time>2026-04-27T11:36:55Z</time></trkpt><trkpt lat="37.8728671558133" lon="-4.1720432249086015"><ele>439.0</ele><time>2026-04-27T11:36:56Z</time></trkpt><trkpt lat="37.87292340187059" lon="-4.171841478656541"><ele>439.0</ele><time>2026-04-27T11:36:57Z</time></trkpt><trkpt lat="37.87297577413289" lon="-4.17164720310035"><ele>439.0</ele><time>2026-04-27T11:36:58Z</time></trkpt><trkpt lat="37.87303147425003" lon="-4.171457643294925"><ele>439.33333333333337</ele><time>2026-04-27T11:36:59Z</time></trkpt><trkpt lat="37.87308663447435" lon="-4.171269152063591"><ele>439.66666666666663</ele><time>2026-04-27T11:37:00Z</time></trkpt><trkpt lat="37.87313555535665" lon="-4.171084134826146"><ele>440.0</ele><time>2026-04-27T11:37:01Z</time></trkpt><trkpt lat="37.87318056417643" lon="-4.170913281441503"><ele>440.0</ele><time>2026-04-27T11:37:02Z</time></trkpt><trkpt lat="37.87323300934152" lon="-4.170730088057839"><ele>440.0</ele><time>2026-04-27T11:37:03Z</time></trkpt><trkpt lat="37.873287497202085" lon="-4.170538224232841"><ele>440.0</ele><time>2026-04-27T11:37:04Z</time></trkpt><trkpt lat="37.87334113997483" lon="-4.170343209339673"><ele>440.66666666666663</ele><time>2026-04-27T11:37:05Z</time></trkpt><trkpt lat="37.87339447596521" lon="-4.170146082870285"><ele>441.33333333333337</ele><time>2026-04-27T11:37:06Z</time></trkpt><trkpt lat="37.873446154141995" lon="-4.16995342131323"><ele>442.0</ele><time>2026-04-27T11:37:07Z</time></trkpt><trkpt lat="37.87350078024868" lon="-4.1697637982777565"><ele>444.33333333333337</ele><time>2026-04-27T11:37:08Z</time></trkpt><trkpt lat="37.873556636467946" lon="-4.169574125370785"><ele>446.66666666666663</ele><time>2026-04-27T11:37:09Z</time></trkpt><trkpt lat="37.87361569019182" lon="-4.169376624388041"><ele>449.0</ele><time>2026-04-27T11:37:10Z</time></trkpt><trkpt lat="37.87366335005573" lon="-4.169177335958227"><ele>448.5</ele><time>2026-04-27T11:37:11Z</time></trkpt><trkpt lat="37.87371132619143" lon="-4.168991235502431"><ele>448.0</ele><time>2026-04-27T11:37:12Z</time></trkpt><trkpt lat="37.87371233361456" lon="-4.168791970130474"><ele>447.5</ele><time>2026-04-27T11:37:13Z</time></trkpt><trkpt lat="37.8736867821641" lon="-4.16862780177688"><ele>447.0</ele><time>2026-04-27T11:37:14Z</time></trkpt><trkpt lat="37.87362505638446" lon="-4.168497211872621"><ele>447.0</ele><time>2026-04-27T11:37:15Z</time></trkpt><trkpt lat="37.87380550677992" lon="-4.168214861672036"><ele>447.0</ele><time>2026-04-27T11:37:16Z</time></trkpt><trkpt lat="37.87336903691687" lon="-4.168208304145164"><ele>448.66666666666663</ele><time>2026-04-27T11:37:17Z</time></trkpt><trkpt lat="37.87326085619918" lon="-4.16802548285603"><ele>450.3333333333333</ele><time>2026-04-27T11:37:18Z</time></trkpt><trkpt lat="37.873164338384676" lon="-4.167875410872355"><ele>452.0</ele><time>2026-04-27T11:37:19Z</time></trkpt><trkpt lat="37.873097634725596" lon="-4.167714959856155"><ele>452.0</ele><time>2026-04-27T11:37:20Z</time></trkpt><trkpt lat="37.87306481509016" lon="-4.167522277180454"><ele>452.0</ele><time>2026-04-27T11:37:21Z</time></trkpt><trkpt lat="37.87305799957098" lon="-4.1673302502041"><ele>452.0</ele><time>2026-04-27T11:37:22Z</time></trkpt><trkpt lat="37.87305353928805" lon="-4.167172668194489"><ele>452.0</ele><time>2026-04-27T11:37:23Z</time></trkpt><trkpt lat="37.8730464636392" lon="-4.167039506090421"><ele>452.8333333333333</ele><time>2026-04-27T11:37:24Z</time></trkpt><trkpt lat="37.87304535823284" lon="-4.166927369157534"><ele>453.66666666666663</ele><time>2026-04-27T11:37:25Z</time></trkpt><trkpt lat="37.873040869303225" lon="-4.166827114077312"><ele>454.5</ele><time>2026-04-27T11:37:26Z</time></trkpt><trkpt lat="37.87303018685995" lon="-4.166733916909363"><ele>455.33333333333337</ele><time>2026-04-27T11:37:27Z</time></trkpt><trkpt lat="37.873029883387034" lon="-4.166636114076368"><ele>456.1666666666667</ele><time>2026-04-27T11:37:28Z</time></trkpt><trkpt lat="37.87305654339741" lon="-4.1665057356040505"><ele>457.0</ele><time>2026-04-27T11:37:29Z</time></trkpt><trkpt lat="37.87309097859738" lon="-4.166314665267758"><ele>457.0</ele><time>2026-04-27T11:37:30Z</time></trkpt><trkpt lat="37.87313734074903" lon="-4.166107164083346"><ele>457.0</ele><time>2026-04-27T11:37:31Z</time></trkpt><trkpt lat="37.873186279893986" lon="-4.1659029616021295"><ele>457.0</ele><time>2026-04-27T11:37:32Z</time></trkpt><trkpt lat="37.87324767752687" lon="-4.165685193558862"><ele>457.0</ele><time>2026-04-27T11:37:33Z</time></trkpt><trkpt lat="37.87329719195299" lon="-4.165473392003772"><ele>457.0</ele><time>2026-04-27T11:37:34Z</time></trkpt><trkpt lat="37.87334552169292" lon="-4.165290158296694"><ele>457.0</ele><time>2026-04-27T11:37:35Z</time></trkpt><trkpt lat="37.87338487580754" lon="-4.165119920429214"><ele>457.0</ele><time>2026-04-27T11:37:36Z</time></trkpt><trkpt lat="37.87341003653762" lon="-4.164953954106247"><ele>457.0</ele><time>2026-04-27T11:37:37Z</time></trkpt><trkpt lat="37.873449141908196" lon="-4.164779542837086"><ele>457.0</ele><time>2026-04-27T11:37:38Z</time></trkpt><trkpt lat="37.87348668858381" lon="-4.164612083366746"><ele>457.0</ele><time>2026-04-27T11:37:39Z</time></trkpt><trkpt lat="37.873524214710336" lon="-4.164448354691171"><ele>458.5</ele><time>2026-04-27T11:37:40Z</time></trkpt><trkpt lat="37.87357927982181" lon="-4.164285688928034"><ele>460.0</ele><time>2026-04-27T11:37:41Z</time></trkpt><trkpt lat="37.87361954367862" lon="-4.164124063380855"><ele>461.5</ele><time>2026-04-27T11:37:42Z</time></trkpt><trkpt lat="37.87367056707418" lon="-4.163954026513076"><ele>463.0</ele><time>2026-04-27T11:37:43Z</time></trkpt><trkpt lat="37.8737420595556" lon="-4.163781071946874"><ele>463.0</ele><time>2026-04-27T11:37:44Z</time></trkpt><trkpt lat="37.873829989813636" lon="-4.163604229289001"><ele>463.0</ele><time>2026-04-27T11:37:45Z</time></trkpt><trkpt lat="37.87393727113686" lon="-4.163417819120901"><ele>463.0</ele><time>2026-04-27T11:37:46Z</time></trkpt><trkpt lat="37.87402348948847" lon="-4.163251456885467"><ele>462.6666666666667</ele><time>2026-04-27T11:37:47Z</time></trkpt><trkpt lat="37.87411296782705" lon="-4.163081321016404"><ele>462.33333333333337</ele><time>2026-04-27T11:37:48Z</time></trkpt><trkpt lat="37.874206656400005" lon="-4.1629117016372925"><ele>462.0</ele><time>2026-04-27T11:37:49Z</time></trkpt><trkpt lat="37.87429389485442" lon="-4.1627430712099995"><ele>461.33333333333337</ele><time>2026-04-27T11:37:50Z</time></trkpt><trkpt lat="37.87437445391909" lon="-4.162583797231236"><ele>460.6666666666667</ele><time>2026-04-27T11:37:51Z</time></trkpt><trkpt lat="37.874466191135504" lon="-4.162424230639906"><ele>460.0</ele><time>2026-04-27T11:37:52Z</time></trkpt><trkpt lat="37.87457537331747" lon="-4.162271621043455"><ele>461.33333333333337</ele><time>2026-04-27T11:37:53Z</time></trkpt><trkpt lat="37.87469830544587" lon="-4.162135247612321"><ele>462.66666666666663</ele><time>2026-04-27T11:37:54Z</time></trkpt><trkpt lat="37.874837701276675" lon="-4.162019105829523"><ele>464.0</ele><time>2026-04-27T11:37:55Z</time></trkpt><trkpt lat="37.874985944277554" lon="-4.161900147339121"><ele>464.3333333333333</ele><time>2026-04-27T11:37:56Z</time></trkpt><trkpt lat="37.87513453813513" lon="-4.161770694997043"><ele>464.66666666666663</ele><time>2026-04-27T11:37:57Z</time></trkpt><trkpt lat="37.87527890193944" lon="-4.161640924410715"><ele>465.0</ele><time>2026-04-27T11:37:58Z</time></trkpt><trkpt lat="37.8754245662843" lon="-4.161510459242821"><ele>466.66666666666663</ele><time>2026-04-27T11:37:59Z</time></trkpt><trkpt lat="37.87557390075429" lon="-4.161376990935216"><ele>468.3333333333333</ele><time>2026-04-27T11:38:00Z</time></trkpt><trkpt lat="37.87573366574772" lon="-4.161241841761889"><ele>470.0</ele><time>2026-04-27T11:38:01Z</time></trkpt><trkpt lat="37.875893330572524" lon="-4.161103830459987"><ele>469.66666666666663</ele><time>2026-04-27T11:38:02Z</time></trkpt><trkpt lat="37.876052909416174" lon="-4.160951272477951"><ele>469.33333333333337</ele><time>2026-04-27T11:38:03Z</time></trkpt><trkpt lat="37.87620475660324" lon="-4.160784971676943"><ele>469.0</ele><time>2026-04-27T11:38:04Z</time></trkpt><trkpt lat="37.876342391931146" lon="-4.1606076043413855"><ele>470.33333333333337</ele><time>2026-04-27T11:38:05Z</time></trkpt><trkpt lat="37.87648084642343" lon="-4.1604220249052775"><ele>471.66666666666663</ele><time>2026-04-27T11:38:06Z</time></trkpt><trkpt lat="37.87662770250275" lon="-4.160231198283479"><ele>473.0</ele><time>2026-04-27T11:38:07Z</time></trkpt><trkpt lat="37.876768990297016" lon="-4.160043512634941"><ele>474.0</ele><time>2026-04-27T11:38:08Z</time></trkpt><trkpt lat="37.876914445133686" lon="-4.159856208764129"><ele>475.0</ele><time>2026-04-27T11:38:09Z</time></trkpt><trkpt lat="37.87703931239731" lon="-4.159684863335825"><ele>476.0</ele><time>2026-04-27T11:38:10Z</time></trkpt><trkpt lat="37.877157463557324" lon="-4.159535523257523"><ele>476.0</ele><time>2026-04-27T11:38:11Z</time></trkpt><trkpt lat="37.8772857522817" lon="-4.159396127999691"><ele>476.0</ele><time>2026-04-27T11:38:12Z</time></trkpt><trkpt lat="37.87743693234253" lon="-4.159261120418194"><ele>476.0</ele><time>2026-04-27T11:38:13Z</time></trkpt><trkpt lat="37.87759139276177" lon="-4.159135855361088"><ele>474.66666666666663</ele><time>2026-04-27T11:38:14Z</time></trkpt><trkpt lat="37.87775547766646" lon="-4.159009165803011"><ele>473.33333333333337</ele><time>2026-04-27T11:38:15Z</time></trkpt><trkpt lat="37.877909786526345" lon="-4.158885940406919"><ele>472.0</ele><time>2026-04-27T11:38:16Z</time></trkpt><trkpt lat="37.87805685106603" lon="-4.15876305647222"><ele>472.0</ele><time>2026-04-27T11:38:17Z</time></trkpt><trkpt lat="37.87821500053471" lon="-4.1586359359837735"><ele>472.0</ele><time>2026-04-27T11:38:18Z</time></trkpt><trkpt lat="37.878396934414575" lon="-4.158517908123059"><ele>472.0</ele><time>2026-04-27T11:38:19Z</time></trkpt><trkpt lat="37.87859910046197" lon="-4.158405464440988"><ele>468.0</ele><time>2026-04-27T11:38:20Z</time></trkpt><trkpt lat="37.87881069634039" lon="-4.1582846606368555"><ele>464.0</ele><time>2026-04-27T11:38:21Z</time></trkpt><trkpt lat="37.879025908314375" lon="-4.158161772709795"><ele>464.0</ele><time>2026-04-27T11:38:22Z</time></trkpt><trkpt lat="37.87924446281945" lon="-4.158033663632267"><ele>464.0</ele><time>2026-04-27T11:38:23Z</time></trkpt><trkpt lat="37.879470582132576" lon="-4.157906816509979"><ele>460.5</ele><time>2026-04-27T11:38:24Z</time></trkpt><trkpt lat="37.87970440880659" lon="-4.157774818949242"><ele>457.0</ele><time>2026-04-27T11:38:25Z</time></trkpt><trkpt lat="37.879936280143916" lon="-4.1576426768514105"><ele>454.5</ele><time>2026-04-27T11:38:26Z</time></trkpt><trkpt lat="37.880144397279096" lon="-4.1575102874207"><ele>452.0</ele><time>2026-04-27T11:38:27Z</time></trkpt><trkpt lat="37.88036395782364" lon="-4.1573822096375155"><ele>452.0</ele><time>2026-04-27T11:38:28Z</time></trkpt><trkpt lat="37.88057325018576" lon="-4.157222116338568"><ele>452.0</ele><time>2026-04-27T11:38:29Z</time></trkpt><trkpt lat="37.880773429507826" lon="-4.157046242452173"><ele>451.5</ele><time>2026-04-27T11:38:30Z</time></trkpt><trkpt lat="37.88096250998804" lon="-4.156852712597451"><ele>451.0</ele><time>2026-04-27T11:38:31Z</time></trkpt><trkpt lat="37.88113409811698" lon="-4.156652405799869"><ele>449.5</ele><time>2026-04-27T11:38:32Z</time></trkpt><trkpt lat="37.88129395272991" lon="-4.156435298588488"><ele>448.0</ele><time>2026-04-27T11:38:33Z</time></trkpt><trkpt lat="37.881442535944146" lon="-4.156199257053317"><ele>448.0</ele><time>2026-04-27T11:38:34Z</time></trkpt><trkpt lat="37.88158390428307" lon="-4.155952412423273"><ele>448.0</ele><time>2026-04-27T11:38:35Z</time></trkpt><trkpt lat="37.881715529067144" lon="-4.155691795018743"><ele>447.0</ele><time>2026-04-27T11:38:36Z</time></trkpt><trkpt lat="37.881836113626115" lon="-4.155425468618365"><ele>446.0</ele><time>2026-04-27T11:38:37Z</time></trkpt><trkpt lat="37.88195170177584" lon="-4.155145760206658"><ele>445.0</ele><time>2026-04-27T11:38:38Z</time></trkpt><trkpt lat="37.88206691774694" lon="-4.1548679043136945"><ele>444.0</ele><time>2026-04-27T11:38:39Z</time></trkpt><trkpt lat="37.88218524177666" lon="-4.154586138996446"><ele>444.0</ele><time>2026-04-27T11:38:40Z</time></trkpt><trkpt lat="37.88230372290192" lon="-4.154305180024161"><ele>444.0</ele><time>2026-04-27T11:38:41Z</time></trkpt><trkpt lat="37.88242952674761" lon="-4.154030946608545"><ele>444.5</ele><time>2026-04-27T11:38:42Z</time></trkpt><trkpt lat="37.88254630064244" lon="-4.15375086295258"><ele>445.0</ele><time>2026-04-27T11:38:43Z</time></trkpt><trkpt lat="37.88266922013249" lon="-4.153481166260561"><ele>443.5</ele><time>2026-04-27T11:38:44Z</time></trkpt><trkpt lat="37.882816566222296" lon="-4.153223700840765"><ele>442.0</ele><time>2026-04-27T11:38:45Z</time></trkpt><trkpt lat="37.8829780345084" lon="-4.152982636650768"><ele>442.0</ele><time>2026-04-27T11:38:46Z</time></trkpt><trkpt lat="37.88315345745286" lon="-4.152755111773169"><ele>442.0</ele><time>2026-04-27T11:38:47Z</time></trkpt><trkpt lat="37.88334000117532" lon="-4.152540612796956"><ele>439.5</ele><time>2026-04-27T11:38:48Z</time></trkpt><trkpt lat="37.88352488887734" lon="-4.152329199348702"><ele>437.0</ele><time>2026-04-27T11:38:49Z</time></trkpt><trkpt lat="37.88370401209468" lon="-4.1521144128205"><ele>437.0</ele><time>2026-04-27T11:38:50Z</time></trkpt><trkpt lat="37.88387287474643" lon="-4.151907749097482"><ele>437.0</ele><time>2026-04-27T11:38:51Z</time></trkpt><trkpt lat="37.88404510714617" lon="-4.151699449589069"><ele>437.5</ele><time>2026-04-27T11:38:52Z</time></trkpt><trkpt lat="37.884220250090735" lon="-4.151495770975046"><ele>438.0</ele><time>2026-04-27T11:38:53Z</time></trkpt><trkpt lat="37.884394010478225" lon="-4.151292180814067"><ele>435.0</ele><time>2026-04-27T11:38:54Z</time></trkpt><trkpt lat="37.88456833717001" lon="-4.151082955988384"><ele>432.0</ele><time>2026-04-27T11:38:55Z</time></trkpt><trkpt lat="37.884744011034286" lon="-4.150872879528633"><ele>432.0</ele><time>2026-04-27T11:38:56Z</time></trkpt><trkpt lat="37.884918883260156" lon="-4.150659099093294"><ele>432.0</ele><time>2026-04-27T11:38:57Z</time></trkpt><trkpt lat="37.885098837309094" lon="-4.150439698955657"><ele>429.5</ele><time>2026-04-27T11:38:58Z</time></trkpt><trkpt lat="37.88527425081634" lon="-4.150215722179574"><ele>427.0</ele><time>2026-04-27T11:38:59Z</time></trkpt><trkpt lat="37.88544997606812" lon="-4.149985550331677"><ele>427.0</ele><time>2026-04-27T11:39:00Z</time></trkpt><trkpt lat="37.88562754310845" lon="-4.149748528168505"><ele>427.0</ele><time>2026-04-27T11:39:01Z</time></trkpt><trkpt lat="37.88580292301051" lon="-4.149506395050219"><ele>424.0</ele><time>2026-04-27T11:39:02Z</time></trkpt><trkpt lat="37.88597884611433" lon="-4.149259116329283"><ele>421.0</ele><time>2026-04-27T11:39:03Z</time></trkpt><trkpt lat="37.8861608715301" lon="-4.149003854238401"><ele>420.5</ele><time>2026-04-27T11:39:04Z</time></trkpt><trkpt lat="37.88633753224797" lon="-4.148746580747818"><ele>420.0</ele><time>2026-04-27T11:39:05Z</time></trkpt><trkpt lat="37.886515935938974" lon="-4.148485615748154"><ele>420.0</ele><time>2026-04-27T11:39:06Z</time></trkpt><trkpt lat="37.88669036943268" lon="-4.148221711708771"><ele>420.0</ele><time>2026-04-27T11:39:07Z</time></trkpt><trkpt lat="37.886866400348815" lon="-4.147953725571476"><ele>417.5</ele><time>2026-04-27T11:39:08Z</time></trkpt><trkpt lat="37.887045236276066" lon="-4.147685393851416"><ele>415.0</ele><time>2026-04-27T11:39:09Z</time></trkpt><trkpt lat="37.88722519753648" lon="-4.147418592185259"><ele>415.0</ele><time>2026-04-27T11:39:10Z</time></trkpt><trkpt lat="37.887405083198594" lon="-4.147148360349426"><ele>415.0</ele><time>2026-04-27T11:39:11Z</time></trkpt><trkpt lat="37.8875837160228" lon="-4.146873759441424"><ele>413.0</ele><time>2026-04-27T11:39:12Z</time></trkpt><trkpt lat="37.88776485908665" lon="-4.146598066744151"><ele>411.0</ele><time>2026-04-27T11:39:13Z</time></trkpt><trkpt lat="37.88794216025938" lon="-4.1463232840309034"><ele>411.0</ele><time>2026-04-27T11:39:14Z</time></trkpt><trkpt lat="37.8881258867545" lon="-4.146048321986794"><ele>411.0</ele><time>2026-04-27T11:39:15Z</time></trkpt><trkpt lat="37.888309022630246" lon="-4.145774261805249"><ele>408.5</ele><time>2026-04-27T11:39:16Z</time></trkpt><trkpt lat="37.88849014130696" lon="-4.145506156407828"><ele>406.0</ele><time>2026-04-27T11:39:17Z</time></trkpt><trkpt lat="37.88866736836324" lon="-4.145240854188318"><ele>406.0</ele><time>2026-04-27T11:39:18Z</time></trkpt><trkpt lat="37.88883697412858" lon="-4.144980114867262"><ele>406.0</ele><time>2026-04-27T11:39:19Z</time></trkpt><trkpt lat="37.889008571794584" lon="-4.144718595461797"><ele>406.0</ele><time>2026-04-27T11:39:20Z</time></trkpt><trkpt lat="37.88917745326833" lon="-4.144464938071017"><ele>406.0</ele><time>2026-04-27T11:39:21Z</time></trkpt><trkpt lat="37.889347724756036" lon="-4.144208050976899"><ele>404.0</ele><time>2026-04-27T11:39:22Z</time></trkpt><trkpt lat="37.88951888583495" lon="-4.143951336233598"><ele>402.0</ele><time>2026-04-27T11:39:23Z</time></trkpt><trkpt lat="37.88968562466872" lon="-4.143695619858795"><ele>402.0</ele><time>2026-04-27T11:39:24Z</time></trkpt><trkpt lat="37.88985070084281" lon="-4.1434402369787735"><ele>402.0</ele><time>2026-04-27T11:39:25Z</time></trkpt><trkpt lat="37.890010576555575" lon="-4.143183210614499"><ele>399.5</ele><time>2026-04-27T11:39:26Z</time></trkpt><trkpt lat="37.89016751361577" lon="-4.142921727648903"><ele>397.0</ele><time>2026-04-27T11:39:27Z</time></trkpt><trkpt lat="37.890318202888686" lon="-4.142655785387933"><ele>397.0</ele><time>2026-04-27T11:39:28Z</time></trkpt><trkpt lat="37.8904599986991" lon="-4.142385621431213"><ele>397.0</ele><time>2026-04-27T11:39:29Z</time></trkpt><trkpt lat="37.89059763212704" lon="-4.142111139460992"><ele>397.0</ele><time>2026-04-27T11:39:30Z</time></trkpt><trkpt lat="37.89072493187113" lon="-4.141839102462047"><ele>397.0</ele><time>2026-04-27T11:39:31Z</time></trkpt><trkpt lat="37.89084511001002" lon="-4.1415787240680375"><ele>395.33333333333337</ele><time>2026-04-27T11:39:32Z</time></trkpt><trkpt lat="37.89095167102109" lon="-4.141336482842188"><ele>393.66666666666663</ele><time>2026-04-27T11:39:33Z</time></trkpt><trkpt lat="37.89105266564076" lon="-4.141102843209693"><ele>392.0</ele><time>2026-04-27T11:39:34Z</time></trkpt><trkpt lat="37.891149062081844" lon="-4.1408761720828"><ele>391.0</ele><time>2026-04-27T11:39:35Z</time></trkpt><trkpt lat="37.89123933594802" lon="-4.140657584774172"><ele>390.0</ele><time>2026-04-27T11:39:36Z</time></trkpt><trkpt lat="37.89132619714167" lon="-4.1404366739962395"><ele>389.0</ele><time>2026-04-27T11:39:37Z</time></trkpt><trkpt lat="37.89140634443241" lon="-4.140231732346408"><ele>389.0</ele><time>2026-04-27T11:39:38Z</time></trkpt><trkpt lat="37.89148961828173" lon="-4.14003095579434"><ele>389.0</ele><time>2026-04-27T11:39:39Z</time></trkpt><trkpt lat="37.891568937602955" lon="-4.139840215834901"><ele>389.0</ele><time>2026-04-27T11:39:40Z</time></trkpt><trkpt lat="37.89164614061743" lon="-4.13964655563037"><ele>387.3333333333333</ele><time>2026-04-27T11:39:41Z</time></trkpt><trkpt lat="37.89172356297514" lon="-4.139455401767522"><ele>385.66666666666663</ele><time>2026-04-27T11:39:42Z</time></trkpt><trkpt lat="37.8918108386947" lon="-4.139282503020452"><ele>384.0</ele><time>2026-04-27T11:39:43Z</time></trkpt><trkpt lat="37.891909958480284" lon="-4.139130605654714"><ele>382.6666666666667</ele><time>2026-04-27T11:39:44Z</time></trkpt><trkpt lat="37.8920154457386" lon="-4.138981781919135"><ele>381.33333333333337</ele><time>2026-04-27T11:39:45Z</time></trkpt><trkpt lat="37.89212005812753" lon="-4.138834921524159"><ele>380.0</ele><time>2026-04-27T11:39:46Z</time></trkpt><trkpt lat="37.89221709428543" lon="-4.138697427423143"><ele>380.0</ele><time>2026-04-27T11:39:47Z</time></trkpt><trkpt lat="37.89231042702636" lon="-4.138558145114154"><ele>380.0</ele><time>2026-04-27T11:39:48Z</time></trkpt><trkpt lat="37.892400584265694" lon="-4.138424850421625"><ele>380.0</ele><time>2026-04-27T11:39:49Z</time></trkpt><trkpt lat="37.89248771079383" lon="-4.138293696327697"><ele>380.0</ele><time>2026-04-27T11:39:50Z</time></trkpt><trkpt lat="37.89257147692106" lon="-4.138168514640369"><ele>379.0</ele><time>2026-04-27T11:39:51Z</time></trkpt><trkpt lat="37.892650435658666" lon="-4.138045920464389"><ele>378.0</ele><time>2026-04-27T11:39:52Z</time></trkpt><trkpt lat="37.89273223278049" lon="-4.137927527914357"><ele>377.0</ele><time>2026-04-27T11:39:53Z</time></trkpt><trkpt lat="37.89281211650986" lon="-4.137810214299791"><ele>376.0</ele><time>2026-04-27T11:39:54Z</time></trkpt><trkpt lat="37.89289208709561" lon="-4.137689422470306"><ele>376.0</ele><time>2026-04-27T11:39:55Z</time></trkpt><trkpt lat="37.89297402253214" lon="-4.13757317775148"><ele>376.0</ele><time>2026-04-27T11:39:56Z</time></trkpt><trkpt lat="37.89304363094711" lon="-4.13746522269215"><ele>376.0</ele><time>2026-04-27T11:39:57Z</time></trkpt><trkpt lat="37.893112448607475" lon="-4.137367857574808"><ele>376.0</ele><time>2026-04-27T11:39:58Z</time></trkpt><trkpt lat="37.89317637278285" lon="-4.1372777206183455"><ele>376.0</ele><time>2026-04-27T11:39:59Z</time></trkpt><trkpt lat="37.89323972874271" lon="-4.137185383281599"><ele>376.4</ele><time>2026-04-27T11:40:00Z</time></trkpt><trkpt lat="37.89330086417227" lon="-4.1370920987608"><ele>376.8</ele><time>2026-04-27T11:40:01Z</time></trkpt><trkpt lat="37.89336755778608" lon="-4.136991723668693"><ele>377.2</ele><time>2026-04-27T11:40:02Z</time></trkpt><trkpt lat="37.89343705080392" lon="-4.1368869281090594"><ele>377.59999999999997</ele><time>2026-04-27T11:40:03Z</time></trkpt><trkpt lat="37.893513702436124" lon="-4.13677739541764"><ele>378.0</ele><time>2026-04-27T11:40:04Z</time></trkpt><trkpt lat="37.89359568383551" lon="-4.13665988489321"><ele>377.25</ele><time>2026-04-27T11:40:05Z</time></trkpt><trkpt lat="37.89367440781415" lon="-4.136538258617343"><ele>376.5</ele><time>2026-04-27T11:40:06Z</time></trkpt><trkpt lat="37.89374574103034" lon="-4.1364121051407405"><ele>375.75</ele><time>2026-04-27T11:40:07Z</time></trkpt><trkpt lat="37.89380708965304" lon="-4.136267789490086"><ele>375.0</ele><time>2026-04-27T11:40:08Z</time></trkpt><trkpt lat="37.8938596626973" lon="-4.136108791823105"><ele>375.0</ele><time>2026-04-27T11:40:09Z</time></trkpt><trkpt lat="37.8939132537093" lon="-4.135948441634669"><ele>375.0</ele><time>2026-04-27T11:40:10Z</time></trkpt><trkpt lat="37.893963833952945" lon="-4.13578951909561"><ele>375.0</ele><time>2026-04-27T11:40:11Z</time></trkpt><trkpt lat="37.89400799693166" lon="-4.135638310498881"><ele>375.0</ele><time>2026-04-27T11:40:12Z</time></trkpt><trkpt lat="37.89405194172211" lon="-4.135496673413823"><ele>375.25</ele><time>2026-04-27T11:40:13Z</time></trkpt><trkpt lat="37.894092276609435" lon="-4.135364915655769"><ele>375.5</ele><time>2026-04-27T11:40:14Z</time></trkpt><trkpt lat="37.89413542695895" lon="-4.1352357021208155"><ele>375.75</ele><time>2026-04-27T11:40:15Z</time></trkpt><trkpt lat="37.89417468105312" lon="-4.135104555391556"><ele>376.0</ele><time>2026-04-27T11:40:16Z</time></trkpt><trkpt lat="37.89421574397752" lon="-4.1349662406657455"><ele>375.5</ele><time>2026-04-27T11:40:17Z</time></trkpt><trkpt lat="37.89426856588155" lon="-4.134815998034233"><ele>375.0</ele><time>2026-04-27T11:40:18Z</time></trkpt><trkpt lat="37.89431889400723" lon="-4.134654244619076"><ele>374.5</ele><time>2026-04-27T11:40:19Z</time></trkpt><trkpt lat="37.89437073039481" lon="-4.134483023600028"><ele>374.0</ele><time>2026-04-27T11:40:20Z</time></trkpt><trkpt lat="37.89442337392805" lon="-4.134306103257362"><ele>374.0</ele><time>2026-04-27T11:40:21Z</time></trkpt><trkpt lat="37.894482371881885" lon="-4.134124349863225"><ele>374.0</ele><time>2026-04-27T11:40:22Z</time></trkpt><trkpt lat="37.89455024823634" lon="-4.133928295043354"><ele>374.0</ele><time>2026-04-27T11:40:23Z</time></trkpt><trkpt lat="37.89461542706974" lon="-4.133725269159825"><ele>374.0</ele><time>2026-04-27T11:40:24Z</time></trkpt><trkpt lat="37.89467726700762" lon="-4.133535075305999"><ele>374.0</ele><time>2026-04-27T11:40:25Z</time></trkpt><trkpt lat="37.89474175721653" lon="-4.133336824202051"><ele>374.0</ele><time>2026-04-27T11:40:26Z</time></trkpt><trkpt lat="37.89481002461087" lon="-4.133139591379825"><ele>374.0</ele><time>2026-04-27T11:40:27Z</time></trkpt><trkpt lat="37.89488934933041" lon="-4.132948657487235"><ele>374.0</ele><time>2026-04-27T11:40:28Z</time></trkpt><trkpt lat="37.894997706373715" lon="-4.132768154249829"><ele>374.0</ele><time>2026-04-27T11:40:29Z</time></trkpt><trkpt lat="37.89513586716263" lon="-4.132610368654117"><ele>374.33333333333337</ele><time>2026-04-27T11:40:30Z</time></trkpt><trkpt lat="37.895301220671946" lon="-4.132451226725018"><ele>374.6666666666667</ele><time>2026-04-27T11:40:31Z</time></trkpt><trkpt lat="37.89548262717445" lon="-4.132286810505612"><ele>375.0</ele><time>2026-04-27T11:40:32Z</time></trkpt><trkpt lat="37.89567217958792" lon="-4.132115082762368"><ele>375.0</ele><time>2026-04-27T11:40:33Z</time></trkpt><trkpt lat="37.89586396218644" lon="-4.13193460667296"><ele>375.0</ele><time>2026-04-27T11:40:34Z</time></trkpt><trkpt lat="37.896059007176774" lon="-4.131757481779475"><ele>374.5</ele><time>2026-04-27T11:40:35Z</time></trkpt><trkpt lat="37.89626357967827" lon="-4.131575334919798"><ele>374.0</ele><time>2026-04-27T11:40:36Z</time></trkpt><trkpt lat="37.89647510130711" lon="-4.131393625232057"><ele>374.0</ele><time>2026-04-27T11:40:37Z</time></trkpt><trkpt lat="37.8966807395881" lon="-4.131215813006527"><ele>374.0</ele><time>2026-04-27T11:40:38Z</time></trkpt><trkpt lat="37.89688403370457" lon="-4.131039640231144"><ele>373.5</ele><time>2026-04-27T11:40:39Z</time></trkpt><trkpt lat="37.89708635655374" lon="-4.130869312242586"><ele>373.0</ele><time>2026-04-27T11:40:40Z</time></trkpt><trkpt lat="37.89729183174959" lon="-4.13069258555071"><ele>373.0</ele><time>2026-04-27T11:40:41Z</time></trkpt><trkpt lat="37.897502044561804" lon="-4.130516077729284"><ele>373.0</ele><time>2026-04-27T11:40:42Z</time></trkpt><trkpt lat="37.89771641529386" lon="-4.130333512363838"><ele>373.0</ele><time>2026-04-27T11:40:43Z</time></trkpt><trkpt lat="37.89794363845208" lon="-4.13013591535523"><ele>373.0</ele><time>2026-04-27T11:40:44Z</time></trkpt><trkpt lat="37.89819216280606" lon="-4.1299248383490985"><ele>373.5</ele><time>2026-04-27T11:40:45Z</time></trkpt><trkpt lat="37.89844668845378" lon="-4.1297043435333185"><ele>374.0</ele><time>2026-04-27T11:40:46Z</time></trkpt><trkpt lat="37.89869823868553" lon="-4.129490732162704"><ele>374.0</ele><time>2026-04-27T11:40:47Z</time></trkpt><trkpt lat="37.89895085016147" lon="-4.129284703163638"><ele>374.0</ele><time>2026-04-27T11:40:48Z</time></trkpt><trkpt lat="37.89920307236083" lon="-4.129050455487201"><ele>374.5</ele><time>2026-04-27T11:40:49Z</time></trkpt><trkpt lat="37.899479415686464" lon="-4.128814134498613"><ele>375.0</ele><time>2026-04-27T11:40:50Z</time></trkpt><trkpt lat="37.89976039098678" lon="-4.1285738523520745"><ele>375.0</ele><time>2026-04-27T11:40:51Z</time></trkpt><trkpt lat="37.90004144693075" lon="-4.1283325734760234"><ele>375.0</ele><time>2026-04-27T11:40:52Z</time></trkpt><trkpt lat="37.90032379976847" lon="-4.128089970959275"><ele>377.5</ele><time>2026-04-27T11:40:53Z</time></trkpt><trkpt lat="37.9005995093022" lon="-4.127852229574518"><ele>380.0</ele><time>2026-04-27T11:40:54Z</time></trkpt><trkpt lat="37.90088003519475" lon="-4.127633115825811"><ele>380.5</ele><time>2026-04-27T11:40:55Z</time></trkpt><trkpt lat="37.90114329160428" lon="-4.127398114213234"><ele>381.0</ele><time>2026-04-27T11:40:56Z</time></trkpt><trkpt lat="37.90140017640361" lon="-4.127174941891223"><ele>381.0</ele><time>2026-04-27T11:40:57Z</time></trkpt><trkpt lat="37.90165880534605" lon="-4.126945846268334"><ele>381.0</ele><time>2026-04-27T11:40:58Z</time></trkpt><trkpt lat="37.90191288185981" lon="-4.126731682214417"><ele>382.0</ele><time>2026-04-27T11:40:59Z</time></trkpt><trkpt lat="37.90216224620222" lon="-4.126520075022149"><ele>383.0</ele><time>2026-04-27T11:41:00Z</time></trkpt><trkpt lat="37.902398029482015" lon="-4.12631845057618"><ele>384.5</ele><time>2026-04-27T11:41:01Z</time></trkpt><trkpt lat="37.90262219945225" lon="-4.126126682050637"><ele>386.0</ele><time>2026-04-27T11:41:02Z</time></trkpt><trkpt lat="37.90284086340236" lon="-4.1259409762743395"><ele>386.0</ele><time>2026-04-27T11:41:03Z</time></trkpt><trkpt lat="37.90304919072952" lon="-4.125762306872577"><ele>386.0</ele><time>2026-04-27T11:41:04Z</time></trkpt><trkpt lat="37.903257531228476" lon="-4.12557938505244"><ele>385.5</ele><time>2026-04-27T11:41:05Z</time></trkpt><trkpt lat="37.90345828921111" lon="-4.125381989985472"><ele>385.0</ele><time>2026-04-27T11:41:06Z</time></trkpt><trkpt lat="37.90364104631774" lon="-4.1251747790462625"><ele>385.0</ele><time>2026-04-27T11:41:07Z</time></trkpt><trkpt lat="37.90380459082895" lon="-4.124947215756741"><ele>385.0</ele><time>2026-04-27T11:41:08Z</time></trkpt><trkpt lat="37.90394976331861" lon="-4.124703577029055"><ele>384.0</ele><time>2026-04-27T11:41:09Z</time></trkpt><trkpt lat="37.904082087526916" lon="-4.124445012926579"><ele>383.0</ele><time>2026-04-27T11:41:10Z</time></trkpt><trkpt lat="37.90419821733322" lon="-4.124183885034728"><ele>379.5</ele><time>2026-04-27T11:41:11Z</time></trkpt><trkpt lat="37.90431265439083" lon="-4.123923026061661"><ele>376.0</ele><time>2026-04-27T11:41:12Z</time></trkpt><trkpt lat="37.90443942920397" lon="-4.12365795604499"><ele>376.0</ele><time>2026-04-27T11:41:13Z</time></trkpt><trkpt lat="37.90458305222535" lon="-4.123400636669737"><ele>376.0</ele><time>2026-04-27T11:41:14Z</time></trkpt><trkpt lat="37.90475383403337" lon="-4.123166743631158"><ele>376.0</ele><time>2026-04-27T11:41:15Z</time></trkpt><trkpt lat="37.904944458109355" lon="-4.12295481469409"><ele>376.0</ele><time>2026-04-27T11:41:16Z</time></trkpt><trkpt lat="37.905152641070835" lon="-4.1227484139145725"><ele>375.0</ele><time>2026-04-27T11:41:17Z</time></trkpt><trkpt lat="37.905374026151755" lon="-4.122553090759449"><ele>374.0</ele><time>2026-04-27T11:41:18Z</time></trkpt><trkpt lat="37.90560167118951" lon="-4.122357771433739"><ele>373.0</ele><time>2026-04-27T11:41:19Z</time></trkpt><trkpt lat="37.90582655224405" lon="-4.122151733873276"><ele>372.0</ele><time>2026-04-27T11:41:20Z</time></trkpt><trkpt lat="37.90604890655414" lon="-4.121943497223582"><ele>372.0</ele><time>2026-04-27T11:41:21Z</time></trkpt><trkpt lat="37.90627282552791" lon="-4.121736386921307"><ele>372.0</ele><time>2026-04-27T11:41:22Z</time></trkpt><trkpt lat="37.906499519269786" lon="-4.1215302015456174"><ele>371.0</ele><time>2026-04-27T11:41:23Z</time></trkpt><trkpt lat="37.906726676676556" lon="-4.121323552157734"><ele>370.0</ele><time>2026-04-27T11:41:24Z</time></trkpt><trkpt lat="37.9069542686045" lon="-4.121125126909578"><ele>370.0</ele><time>2026-04-27T11:41:25Z</time></trkpt><trkpt lat="37.9071825576338" lon="-4.120943363521608"><ele>370.0</ele><time>2026-04-27T11:41:26Z</time></trkpt><trkpt lat="37.90742240134572" lon="-4.120795007220725"><ele>370.5</ele><time>2026-04-27T11:41:27Z</time></trkpt><trkpt lat="37.907677992208164" lon="-4.120682989933271"><ele>371.0</ele><time>2026-04-27T11:41:28Z</time></trkpt><trkpt lat="37.90794068798842" lon="-4.120608766171262"><ele>371.0</ele><time>2026-04-27T11:41:29Z</time></trkpt><trkpt lat="37.908208448786176" lon="-4.120539271536549"><ele>371.0</ele><time>2026-04-27T11:41:30Z</time></trkpt><trkpt lat="37.908475136347974" lon="-4.120465099695888"><ele>369.0</ele><time>2026-04-27T11:41:31Z</time></trkpt><trkpt lat="37.90873620034405" lon="-4.120388218386127"><ele>367.0</ele><time>2026-04-27T11:41:32Z</time></trkpt><trkpt lat="37.908998360505066" lon="-4.120309630511994"><ele>368.5</ele><time>2026-04-27T11:41:33Z</time></trkpt><trkpt lat="37.90925513170428" lon="-4.120225381162578"><ele>370.0</ele><time>2026-04-27T11:41:34Z</time></trkpt><trkpt lat="37.90950783830675" lon="-4.120124112016645"><ele>370.0</ele><time>2026-04-27T11:41:35Z</time></trkpt><trkpt lat="37.9097473332858" lon="-4.119985275001767"><ele>370.0</ele><time>2026-04-27T11:41:36Z</time></trkpt><trkpt lat="37.90997558820964" lon="-4.119824008340486"><ele>369.5</ele><time>2026-04-27T11:41:37Z</time></trkpt><trkpt lat="37.910190740755276" lon="-4.119650493269147"><ele>369.0</ele><time>2026-04-27T11:41:38Z</time></trkpt><trkpt lat="37.910399940784956" lon="-4.1194736650536115"><ele>369.0</ele><time>2026-04-27T11:41:39Z</time></trkpt><trkpt lat="37.910603816066576" lon="-4.119296157784865"><ele>369.0</ele><time>2026-04-27T11:41:40Z</time></trkpt><trkpt lat="37.910810021644295" lon="-4.119109976499652"><ele>366.5</ele><time>2026-04-27T11:41:41Z</time></trkpt><trkpt lat="37.911022297310524" lon="-4.118918726474239"><ele>364.0</ele><time>2026-04-27T11:41:42Z</time></trkpt><trkpt lat="37.91123706892492" lon="-4.118728248126365"><ele>364.0</ele><time>2026-04-27T11:41:43Z</time></trkpt><trkpt lat="37.91145230058872" lon="-4.118530860076938"><ele>364.0</ele><time>2026-04-27T11:41:44Z</time></trkpt><trkpt lat="37.91166762906783" lon="-4.1183221699608925"><ele>363.0</ele><time>2026-04-27T11:41:45Z</time></trkpt><trkpt lat="37.91188234841898" lon="-4.118108440555431"><ele>362.0</ele><time>2026-04-27T11:41:46Z</time></trkpt><trkpt lat="37.91209695754719" lon="-4.1178909653297096"><ele>362.0</ele><time>2026-04-27T11:41:47Z</time></trkpt><trkpt lat="37.91231007394945" lon="-4.1176691137991615"><ele>362.0</ele><time>2026-04-27T11:41:48Z</time></trkpt><trkpt lat="37.91252368594296" lon="-4.117441629290319"><ele>362.5</ele><time>2026-04-27T11:41:49Z</time></trkpt><trkpt lat="37.91273549155959" lon="-4.117211347474862"><ele>363.0</ele><time>2026-04-27T11:41:50Z</time></trkpt><trkpt lat="37.912945693311784" lon="-4.11697596305644"><ele>363.0</ele><time>2026-04-27T11:41:51Z</time></trkpt><trkpt lat="37.91316197907587" lon="-4.11673699857161"><ele>363.0</ele><time>2026-04-27T11:41:52Z</time></trkpt><trkpt lat="37.913372513201374" lon="-4.116500618925569"><ele>361.0</ele><time>2026-04-27T11:41:53Z</time></trkpt><trkpt lat="37.91358536618446" lon="-4.116264436014896"><ele>359.0</ele><time>2026-04-27T11:41:54Z</time></trkpt><trkpt lat="37.91379585293902" lon="-4.11602382673901"><ele>359.0</ele><time>2026-04-27T11:41:55Z</time></trkpt><trkpt lat="37.9140072845024" lon="-4.115790698624257"><ele>359.0</ele><time>2026-04-27T11:41:56Z</time></trkpt><trkpt lat="37.91421971199021" lon="-4.115550273722672"><ele>359.0</ele><time>2026-04-27T11:41:57Z</time></trkpt><trkpt lat="37.91443256391469" lon="-4.1153126465052745"><ele>359.0</ele><time>2026-04-27T11:41:58Z</time></trkpt><trkpt lat="37.91464599754396" lon="-4.115073145158003"><ele>360.0</ele><time>2026-04-27T11:41:59Z</time></trkpt><trkpt lat="37.91485965869337" lon="-4.114837616042787"><ele>361.0</ele><time>2026-04-27T11:42:00Z</time></trkpt><trkpt lat="37.91507257086272" lon="-4.114599621513156"><ele>361.0</ele><time>2026-04-27T11:42:01Z</time></trkpt><trkpt lat="37.91528257736254" lon="-4.114359788500396"><ele>361.0</ele><time>2026-04-27T11:42:02Z</time></trkpt><trkpt lat="37.91548648639954" lon="-4.114113554305687"><ele>360.0</ele><time>2026-04-27T11:42:03Z</time></trkpt><trkpt lat="37.91570064808002" lon="-4.113886049267833"><ele>359.0</ele><time>2026-04-27T11:42:04Z</time></trkpt><trkpt lat="37.91591758192968" lon="-4.113662784724182"><ele>359.0</ele><time>2026-04-27T11:42:05Z</time></trkpt><trkpt lat="37.916135940545175" lon="-4.113443891219823"><ele>359.0</ele><time>2026-04-27T11:42:06Z</time></trkpt><trkpt lat="37.916341969627084" lon="-4.113234427912016"><ele>360.0</ele><time>2026-04-27T11:42:07Z</time></trkpt><trkpt lat="37.91654348102246" lon="-4.113027715330565"><ele>361.0</ele><time>2026-04-27T11:42:08Z</time></trkpt><trkpt lat="37.91674290484016" lon="-4.1128168332656"><ele>361.0</ele><time>2026-04-27T11:42:09Z</time></trkpt><trkpt lat="37.91693385368738" lon="-4.112584287137653"><ele>361.0</ele><time>2026-04-27T11:42:10Z</time></trkpt><trkpt lat="37.917105496318236" lon="-4.1123292335274275"><ele>356.0</ele><time>2026-04-27T11:42:11Z</time></trkpt><trkpt lat="37.917262436355976" lon="-4.112060203276667"><ele>351.0</ele><time>2026-04-27T11:42:12Z</time></trkpt><trkpt lat="37.91739594092156" lon="-4.111770469174829"><ele>349.0</ele><time>2026-04-27T11:42:13Z</time></trkpt><trkpt lat="37.917512209985375" lon="-4.111476625141967"><ele>347.0</ele><time>2026-04-27T11:42:14Z</time></trkpt><trkpt lat="37.9176103538577" lon="-4.111182537780566"><ele>348.0</ele><time>2026-04-27T11:42:15Z</time></trkpt><trkpt lat="37.917704587567215" lon="-4.110900503104075"><ele>349.0</ele><time>2026-04-27T11:42:16Z</time></trkpt><trkpt lat="37.91780658003185" lon="-4.110618735673806"><ele>349.0</ele><time>2026-04-27T11:42:17Z</time></trkpt><trkpt lat="37.91791862210961" lon="-4.110340293649187"><ele>349.0</ele><time>2026-04-27T11:42:18Z</time></trkpt><trkpt lat="37.91804681260246" lon="-4.1100628157174475"><ele>346.0</ele><time>2026-04-27T11:42:19Z</time></trkpt><trkpt lat="37.91818444960305" lon="-4.10979099663745"><ele>343.0</ele><time>2026-04-27T11:42:20Z</time></trkpt><trkpt lat="37.918334123895335" lon="-4.1095249231804205"><ele>343.0</ele><time>2026-04-27T11:42:21Z</time></trkpt><trkpt lat="37.918496373552784" lon="-4.10926536088494"><ele>343.0</ele><time>2026-04-27T11:42:22Z</time></trkpt><trkpt lat="37.918671434113" lon="-4.109012620094579"><ele>343.0</ele><time>2026-04-27T11:42:23Z</time></trkpt><trkpt lat="37.91885594205947" lon="-4.108768928524409"><ele>343.0</ele><time>2026-04-27T11:42:24Z</time></trkpt><trkpt lat="37.91905184199859" lon="-4.108541271864053"><ele>342.0</ele><time>2026-04-27T11:42:25Z</time></trkpt><trkpt lat="37.91925461083106" lon="-4.108327653530076"><ele>341.0</ele><time>2026-04-27T11:42:26Z</time></trkpt><trkpt lat="37.9194617182565" lon="-4.108125051957004"><ele>341.0</ele><time>2026-04-27T11:42:27Z</time></trkpt><trkpt lat="37.91967219638245" lon="-4.107936177540541"><ele>341.0</ele><time>2026-04-27T11:42:28Z</time></trkpt><trkpt lat="37.919879343890614" lon="-4.107747949904939"><ele>339.0</ele><time>2026-04-27T11:42:29Z</time></trkpt><trkpt lat="37.920090810142966" lon="-4.107556365959038"><ele>337.0</ele><time>2026-04-27T11:42:30Z</time></trkpt><trkpt lat="37.92030174931688" lon="-4.107358361384896"><ele>337.0</ele><time>2026-04-27T11:42:31Z</time></trkpt><trkpt lat="37.920510679935454" lon="-4.107153706042212"><ele>337.0</ele><time>2026-04-27T11:42:32Z</time></trkpt><trkpt lat="37.92072284505198" lon="-4.106944556067856"><ele>337.0</ele><time>2026-04-27T11:42:33Z</time></trkpt><trkpt lat="37.92093514872277" lon="-4.106731677857988"><ele>337.0</ele><time>2026-04-27T11:42:34Z</time></trkpt><trkpt lat="37.92115037943658" lon="-4.106514664190769"><ele>337.0</ele><time>2026-04-27T11:42:35Z</time></trkpt><trkpt lat="37.921367093882274" lon="-4.106296186099701"><ele>337.0</ele><time>2026-04-27T11:42:36Z</time></trkpt><trkpt lat="37.92158372175907" lon="-4.106074041470381"><ele>336.5</ele><time>2026-04-27T11:42:37Z</time></trkpt><trkpt lat="37.921796397640826" lon="-4.105847290757383"><ele>336.0</ele><time>2026-04-27T11:42:38Z</time></trkpt><trkpt lat="37.9220091918256" lon="-4.105621731037987"><ele>336.0</ele><time>2026-04-27T11:42:39Z</time></trkpt><trkpt lat="37.92222168035551" lon="-4.105396375050334"><ele>336.0</ele><time>2026-04-27T11:42:40Z</time></trkpt><trkpt lat="37.922429259756086" lon="-4.105168010124392"><ele>334.0</ele><time>2026-04-27T11:42:41Z</time></trkpt><trkpt lat="37.92263028012187" lon="-4.104930571149012"><ele>332.0</ele><time>2026-04-27T11:42:42Z</time></trkpt><trkpt lat="37.92282830178185" lon="-4.104691370753711"><ele>332.0</ele><time>2026-04-27T11:42:43Z</time></trkpt><trkpt lat="37.923020529071245" lon="-4.10443973758605"><ele>332.0</ele><time>2026-04-27T11:42:44Z</time></trkpt><trkpt lat="37.923201056230184" lon="-4.104177146105511"><ele>330.0</ele><time>2026-04-27T11:42:45Z</time></trkpt><trkpt lat="37.923371471343614" lon="-4.103903355642281"><ele>328.0</ele><time>2026-04-27T11:42:46Z</time></trkpt><trkpt lat="37.92353426754183" lon="-4.103618891483875"><ele>329.0</ele><time>2026-04-27T11:42:47Z</time></trkpt><trkpt lat="37.92369120220984" lon="-4.1033296512424835"><ele>330.0</ele><time>2026-04-27T11:42:48Z</time></trkpt><trkpt lat="37.92384075817367" lon="-4.103032865365113"><ele>330.0</ele><time>2026-04-27T11:42:49Z</time></trkpt><trkpt lat="37.92398703006819" lon="-4.1027327715860835"><ele>330.0</ele><time>2026-04-27T11:42:50Z</time></trkpt><trkpt lat="37.924131970848734" lon="-4.102437076444187"><ele>331.5</ele><time>2026-04-27T11:42:51Z</time></trkpt><trkpt lat="37.924275787188755" lon="-4.102142045158907"><ele>333.0</ele><time>2026-04-27T11:42:52Z</time></trkpt><trkpt lat="37.92441419927189" lon="-4.101850949934297"><ele>331.0</ele><time>2026-04-27T11:42:53Z</time></trkpt><trkpt lat="37.92455094566634" lon="-4.10155659957279"><ele>329.0</ele><time>2026-04-27T11:42:54Z</time></trkpt><trkpt lat="37.92468514742901" lon="-4.101264889415035"><ele>329.0</ele><time>2026-04-27T11:42:55Z</time></trkpt><trkpt lat="37.92481629634322" lon="-4.100972854718039"><ele>329.0</ele><time>2026-04-27T11:42:56Z</time></trkpt><trkpt lat="37.92494716740888" lon="-4.100682042169991"><ele>328.0</ele><time>2026-04-27T11:42:57Z</time></trkpt><trkpt lat="37.92507710942587" lon="-4.100388499251937"><ele>327.0</ele><time>2026-04-27T11:42:58Z</time></trkpt><trkpt lat="37.92520670427748" lon="-4.100093632362453"><ele>324.5</ele><time>2026-04-27T11:42:59Z</time></trkpt><trkpt lat="37.925342290472265" lon="-4.099804210335388"><ele>322.0</ele><time>2026-04-27T11:43:00Z</time></trkpt><trkpt lat="37.92548765747496" lon="-4.099528085383156"><ele>322.0</ele><time>2026-04-27T11:43:01Z</time></trkpt><trkpt lat="37.92564309736241" lon="-4.0992728068007365"><ele>322.0</ele><time>2026-04-27T11:43:02Z</time></trkpt><trkpt lat="37.925815614486055" lon="-4.0990342478519715"><ele>319.5</ele><time>2026-04-27T11:43:03Z</time></trkpt><trkpt lat="37.92600684157999" lon="-4.0988183290454"><ele>317.0</ele><time>2026-04-27T11:43:04Z</time></trkpt><trkpt lat="37.926214860914975" lon="-4.0986253550293235"><ele>317.0</ele><time>2026-04-27T11:43:05Z</time></trkpt><trkpt lat="37.92643594514952" lon="-4.098453066958135"><ele>317.0</ele><time>2026-04-27T11:43:06Z</time></trkpt><trkpt lat="37.92666541591451" lon="-4.098296708612619"><ele>314.0</ele><time>2026-04-27T11:43:07Z</time></trkpt><trkpt lat="37.92688958333096" lon="-4.098124242611089"><ele>311.0</ele><time>2026-04-27T11:43:08Z</time></trkpt><trkpt lat="37.92712242543939" lon="-4.097979907388425"><ele>311.0</ele><time>2026-04-27T11:43:09Z</time></trkpt><trkpt lat="37.927325683426595" lon="-4.097807148483539"><ele>311.0</ele><time>2026-04-27T11:43:10Z</time></trkpt><trkpt lat="37.92752079213351" lon="-4.097616236431393"><ele>312.5</ele><time>2026-04-27T11:43:11Z</time></trkpt><trkpt lat="37.92770400711804" lon="-4.0974036563344365"><ele>314.0</ele><time>2026-04-27T11:43:12Z</time></trkpt><trkpt lat="37.9278777951794" lon="-4.0971823830558725"><ele>314.0</ele><time>2026-04-27T11:43:13Z</time></trkpt><trkpt lat="37.92801747101359" lon="-4.096927040449461"><ele>314.0</ele><time>2026-04-27T11:43:14Z</time></trkpt><trkpt lat="37.92815363083371" lon="-4.09666724976453"><ele>315.0</ele><time>2026-04-27T11:43:15Z</time></trkpt><trkpt lat="37.928275309205745" lon="-4.096394339105266"><ele>316.0</ele><time>2026-04-27T11:43:16Z</time></trkpt><trkpt lat="37.928394207567294" lon="-4.096105277681986"><ele>318.5</ele><time>2026-04-27T11:43:17Z</time></trkpt><trkpt lat="37.928460759191815" lon="-4.095787518580515"><ele>321.0</ele><time>2026-04-27T11:43:18Z</time></trkpt><trkpt lat="37.92852367675807" lon="-4.0954618374533265"><ele>323.5</ele><time>2026-04-27T11:43:19Z</time></trkpt><trkpt lat="37.928565790345985" lon="-4.0951303579406115"><ele>326.0</ele><time>2026-04-27T11:43:20Z</time></trkpt><trkpt lat="37.928587668349216" lon="-4.094788895830643"><ele>327.0</ele><time>2026-04-27T11:43:21Z</time></trkpt><trkpt lat="37.92858187016991" lon="-4.0944428861962505"><ele>328.0</ele><time>2026-04-27T11:43:22Z</time></trkpt><trkpt lat="37.928546313885334" lon="-4.094102340978499"><ele>330.0</ele><time>2026-04-27T11:43:23Z</time></trkpt><trkpt lat="37.92850011587268" lon="-4.0937634364212805"><ele>332.0</ele><time>2026-04-27T11:43:24Z</time></trkpt><trkpt lat="37.92844896833055" lon="-4.0934344433776975"><ele>333.0</ele><time>2026-04-27T11:43:25Z</time></trkpt><trkpt lat="37.92841198571179" lon="-4.093107592244145"><ele>334.0</ele><time>2026-04-27T11:43:26Z</time></trkpt><trkpt lat="37.92839192961702" lon="-4.092780902551429"><ele>334.5</ele><time>2026-04-27T11:43:27Z</time></trkpt><trkpt lat="37.92839214631621" lon="-4.092448927562882"><ele>335.0</ele><time>2026-04-27T11:43:28Z</time></trkpt><trkpt lat="37.92841542565128" lon="-4.092115581141244"><ele>335.0</ele><time>2026-04-27T11:43:29Z</time></trkpt><trkpt lat="37.928456261872995" lon="-4.09179122632034"><ele>335.0</ele><time>2026-04-27T11:43:30Z</time></trkpt><trkpt lat="37.92850439646274" lon="-4.091469721418943"><ele>336.0</ele><time>2026-04-27T11:43:31Z</time></trkpt><trkpt lat="37.92855004173374" lon="-4.091153324474528"><ele>337.0</ele><time>2026-04-27T11:43:32Z</time></trkpt><trkpt lat="37.928592981600076" lon="-4.090847876394651"><ele>339.5</ele><time>2026-04-27T11:43:33Z</time></trkpt><trkpt lat="37.92861246108413" lon="-4.090542967022619"><ele>342.0</ele><time>2026-04-27T11:43:34Z</time></trkpt><trkpt lat="37.92864215935045" lon="-4.090232339393593"><ele>344.0</ele><time>2026-04-27T11:43:35Z</time></trkpt><trkpt lat="37.928666198147454" lon="-4.089919721052014"><ele>346.0</ele><time>2026-04-27T11:43:36Z</time></trkpt><trkpt lat="37.92868334698006" lon="-4.08960584477451"><ele>346.0</ele><time>2026-04-27T11:43:37Z</time></trkpt><trkpt lat="37.928692877615234" lon="-4.089285815459277"><ele>346.0</ele><time>2026-04-27T11:43:38Z</time></trkpt><trkpt lat="37.92869435735247" lon="-4.08896560774878"><ele>348.0</ele><time>2026-04-27T11:43:39Z</time></trkpt><trkpt lat="37.92870604866342" lon="-4.088648228936977"><ele>350.0</ele><time>2026-04-27T11:43:40Z</time></trkpt><trkpt lat="37.92869710191964" lon="-4.088338328288714"><ele>349.5</ele><time>2026-04-27T11:43:41Z</time></trkpt><trkpt lat="37.9286867476178" lon="-4.088035924172207"><ele>349.0</ele><time>2026-04-27T11:43:42Z</time></trkpt><trkpt lat="37.92867762293052" lon="-4.08773356240673"><ele>349.0</ele><time>2026-04-27T11:43:43Z</time></trkpt><trkpt lat="37.928666151318176" lon="-4.087430914775709"><ele>349.0</ele><time>2026-04-27T11:43:44Z</time></trkpt><trkpt lat="37.9286644797184" lon="-4.087118498862725"><ele>348.5</ele><time>2026-04-27T11:43:45Z</time></trkpt><trkpt lat="37.92868391981669" lon="-4.086794161988588"><ele>348.0</ele><time>2026-04-27T11:43:46Z</time></trkpt><trkpt lat="37.92870380604289" lon="-4.086464683857535"><ele>350.5</ele><time>2026-04-27T11:43:47Z</time></trkpt><trkpt lat="37.92872775085613" lon="-4.0861411456461845"><ele>353.0</ele><time>2026-04-27T11:43:48Z</time></trkpt><trkpt lat="37.92889108725727" lon="-4.085835292669307"><ele>354.0</ele><time>2026-04-27T11:43:49Z</time></trkpt><trkpt lat="37.92900129142463" lon="-4.085535987648805"><ele>355.0</ele><time>2026-04-27T11:43:50Z</time></trkpt><trkpt lat="37.92914003803685" lon="-4.085241774873806"><ele>362.0</ele><time>2026-04-27T11:43:51Z</time></trkpt><trkpt lat="37.92929584653659" lon="-4.084960785178432"><ele>369.0</ele><time>2026-04-27T11:43:52Z</time></trkpt><trkpt lat="37.929463872944766" lon="-4.084682773798673"><ele>369.5</ele><time>2026-04-27T11:43:53Z</time></trkpt><trkpt lat="37.92962700024914" lon="-4.0843998814367115"><ele>370.0</ele><time>2026-04-27T11:43:54Z</time></trkpt><trkpt lat="37.9297845491998" lon="-4.084103152778746"><ele>370.0</ele><time>2026-04-27T11:43:55Z</time></trkpt><trkpt lat="37.929933223796816" lon="-4.083799502181413"><ele>370.0</ele><time>2026-04-27T11:43:56Z</time></trkpt><trkpt lat="37.93007847610129" lon="-4.083486457500014"><ele>374.5</ele><time>2026-04-27T11:43:57Z</time></trkpt><trkpt lat="37.930219146230655" lon="-4.083169417076359"><ele>379.0</ele><time>2026-04-27T11:43:58Z</time></trkpt><trkpt lat="37.93034796713729" lon="-4.082852962618792"><ele>379.0</ele><time>2026-04-27T11:43:59Z</time></trkpt><trkpt lat="37.93046156912203" lon="-4.082532308187385"><ele>379.0</ele><time>2026-04-27T11:44:00Z</time></trkpt><trkpt lat="37.93056913095539" lon="-4.082221941541516"><ele>379.5</ele><time>2026-04-27T11:44:01Z</time></trkpt><trkpt lat="37.93066961677251" lon="-4.081916773327826"><ele>380.0</ele><time>2026-04-27T11:44:02Z</time></trkpt><trkpt lat="37.930759737681036" lon="-4.081629599070973"><ele>379.5</ele><time>2026-04-27T11:44:03Z</time></trkpt><trkpt lat="37.930847780477364" lon="-4.08133604747864"><ele>379.0</ele><time>2026-04-27T11:44:04Z</time></trkpt><trkpt lat="37.93093818082848" lon="-4.081056115575547"><ele>383.0</ele><time>2026-04-27T11:44:05Z</time></trkpt><trkpt lat="37.93103059829025" lon="-4.080776705286832"><ele>387.0</ele><time>2026-04-27T11:44:06Z</time></trkpt><trkpt lat="37.93113653299282" lon="-4.0805077936912175"><ele>387.0</ele><time>2026-04-27T11:44:07Z</time></trkpt><trkpt lat="37.931267947987415" lon="-4.080240532094834"><ele>387.0</ele><time>2026-04-27T11:44:08Z</time></trkpt><trkpt lat="37.93140993004182" lon="-4.079981867260544"><ele>386.5</ele><time>2026-04-27T11:44:09Z</time></trkpt><trkpt lat="37.931560909879806" lon="-4.079730042019415"><ele>386.0</ele><time>2026-04-27T11:44:10Z</time></trkpt><trkpt lat="37.93172292661277" lon="-4.079482544962684"><ele>387.0</ele><time>2026-04-27T11:44:11Z</time></trkpt><trkpt lat="37.931887357484335" lon="-4.0792455893281065"><ele>388.0</ele><time>2026-04-27T11:44:12Z</time></trkpt><trkpt lat="37.93205410856654" lon="-4.079010084350336"><ele>388.0</ele><time>2026-04-27T11:44:13Z</time></trkpt><trkpt lat="37.93221922718238" lon="-4.078770480886152"><ele>388.0</ele><time>2026-04-27T11:44:14Z</time></trkpt><trkpt lat="37.93238141783554" lon="-4.078536906638554"><ele>388.0</ele><time>2026-04-27T11:44:15Z</time></trkpt><trkpt lat="37.93254484126231" lon="-4.0782924739940425"><ele>388.0</ele><time>2026-04-27T11:44:16Z</time></trkpt><trkpt lat="37.93270832773708" lon="-4.0780589535569725"><ele>389.5</ele><time>2026-04-27T11:44:17Z</time></trkpt><trkpt lat="37.93287675106561" lon="-4.077821650715418"><ele>391.0</ele><time>2026-04-27T11:44:18Z</time></trkpt><trkpt lat="37.933046519911656" lon="-4.077581608495613"><ele>389.0</ele><time>2026-04-27T11:44:19Z</time></trkpt><trkpt lat="37.93321485651105" lon="-4.077340835122437"><ele>387.0</ele><time>2026-04-27T11:44:20Z</time></trkpt><trkpt lat="37.9333822156442" lon="-4.077093371024156"><ele>390.0</ele><time>2026-04-27T11:44:21Z</time></trkpt><trkpt lat="37.933548781650366" lon="-4.076848461066191"><ele>393.0</ele><time>2026-04-27T11:44:22Z</time></trkpt><trkpt lat="37.93371988853491" lon="-4.076601738057462"><ele>395.0</ele><time>2026-04-27T11:44:23Z</time></trkpt><trkpt lat="37.9338905209528" lon="-4.076355758683368"><ele>397.0</ele><time>2026-04-27T11:44:24Z</time></trkpt><trkpt lat="37.93406336071367" lon="-4.0761107541947705"><ele>397.5</ele><time>2026-04-27T11:44:25Z</time></trkpt><trkpt lat="37.93423380083599" lon="-4.07586249164298"><ele>398.0</ele><time>2026-04-27T11:44:26Z</time></trkpt><trkpt lat="37.934406171250934" lon="-4.075615646508277"><ele>401.5</ele><time>2026-04-27T11:44:27Z</time></trkpt><trkpt lat="37.93457866947412" lon="-4.075366452037745"><ele>405.0</ele><time>2026-04-27T11:44:28Z</time></trkpt><trkpt lat="37.93474984164272" lon="-4.075115686274549"><ele>407.5</ele><time>2026-04-27T11:44:29Z</time></trkpt><trkpt lat="37.934925940836244" lon="-4.074867307806882"><ele>410.0</ele><time>2026-04-27T11:44:30Z</time></trkpt><trkpt lat="37.93510045310745" lon="-4.074613823427759"><ele>410.0</ele><time>2026-04-27T11:44:31Z</time></trkpt><trkpt lat="37.93527421411851" lon="-4.074355051137359"><ele>410.0</ele><time>2026-04-27T11:44:32Z</time></trkpt><trkpt lat="37.93544543771501" lon="-4.074096224555966"><ele>412.5</ele><time>2026-04-27T11:44:33Z</time></trkpt><trkpt lat="37.93561608300975" lon="-4.073839939732658"><ele>415.0</ele><time>2026-04-27T11:44:34Z</time></trkpt><trkpt lat="37.93578957906352" lon="-4.073589736527656"><ele>415.0</ele><time>2026-04-27T11:44:35Z</time></trkpt><trkpt lat="37.93596389996849" lon="-4.073349824569973"><ele>415.0</ele><time>2026-04-27T11:44:36Z</time></trkpt><trkpt lat="37.93614648567566" lon="-4.073121206416929"><ele>417.0</ele><time>2026-04-27T11:44:37Z</time></trkpt><trkpt lat="37.93633485769937" lon="-4.072912029004259"><ele>419.0</ele><time>2026-04-27T11:44:38Z</time></trkpt><trkpt lat="37.9365373633717" lon="-4.072722059326138"><ele>420.0</ele><time>2026-04-27T11:44:39Z</time></trkpt><trkpt lat="37.936745724424654" lon="-4.072555253281522"><ele>421.0</ele><time>2026-04-27T11:44:40Z</time></trkpt><trkpt lat="37.93695823913597" lon="-4.0724039958734535"><ele>423.0</ele><time>2026-04-27T11:44:41Z</time></trkpt><trkpt lat="37.937177388860995" lon="-4.072266276146953"><ele>425.0</ele><time>2026-04-27T11:44:42Z</time></trkpt><trkpt lat="37.93738932492481" lon="-4.072152616402982"><ele>426.0</ele><time>2026-04-27T11:44:43Z</time></trkpt><trkpt lat="37.93758538985877" lon="-4.072057047740677"><ele>427.0</ele><time>2026-04-27T11:44:44Z</time></trkpt><trkpt lat="37.93776643554269" lon="-4.07196663900496"><ele>428.0</ele><time>2026-04-27T11:44:45Z</time></trkpt><trkpt lat="37.93794052427791" lon="-4.071871492715752"><ele>428.0</ele><time>2026-04-27T11:44:46Z</time></trkpt><trkpt lat="37.93809992181448" lon="-4.071784289060661"><ele>428.0</ele><time>2026-04-27T11:44:47Z</time></trkpt><trkpt lat="37.93824482721451" lon="-4.0717106768124"><ele>428.0</ele><time>2026-04-27T11:44:48Z</time></trkpt><trkpt lat="37.93837509739857" lon="-4.0716418142318815"><ele>428.0</ele><time>2026-04-27T11:44:49Z</time></trkpt><trkpt lat="37.93849124070608" lon="-4.071582849486711"><ele>427.99999999999994</ele><time>2026-04-27T11:44:50Z</time></trkpt><trkpt lat="37.938583444609954" lon="-4.071527737887022"><ele>427.99999999999994</ele><time>2026-04-27T11:44:51Z</time></trkpt><trkpt lat="37.938659196114344" lon="-4.071469034360544"><ele>428.0</ele><time>2026-04-27T11:44:52Z</time></trkpt><trkpt lat="37.93871667654509" lon="-4.071385276912624"><ele>428.0</ele><time>2026-04-27T11:44:53Z</time></trkpt><trkpt lat="37.938758519664454" lon="-4.071287341658297"><ele>428.0</ele><time>2026-04-27T11:44:54Z</time></trkpt><trkpt lat="37.93879090983075" lon="-4.071181347111087"><ele>427.99999999999994</ele><time>2026-04-27T11:44:55Z</time></trkpt><trkpt lat="37.93883300881792" lon="-4.071106209245857"><ele>427.99999999999994</ele><time>2026-04-27T11:44:56Z</time></trkpt><trkpt lat="37.93889398427784" lon="-4.0710641374688725"><ele>428.0</ele><time>2026-04-27T11:44:57Z</time></trkpt><trkpt lat="37.939041708011715" lon="-4.071078301080412"><ele>428.0</ele><time>2026-04-27T11:44:59Z</time></trkpt><trkpt lat="37.93911814487028" lon="-4.0711313768786725"><ele>427.99999999999994</ele><time>2026-04-27T11:45:00Z</time></trkpt><trkpt lat="37.939175717541296" lon="-4.071208291118338"><ele>428.0</ele><time>2026-04-27T11:45:01Z</time></trkpt><trkpt lat="37.939204146012884" lon="-4.071307344052445"><ele>428.0</ele><time>2026-04-27T11:45:02Z</time></trkpt><trkpt lat="37.93920311771434" lon="-4.07141576626936"><ele>428.0</ele><time>2026-04-27T11:45:03Z</time></trkpt><trkpt lat="37.93917187317218" lon="-4.071520077612535"><ele>427.99999999999994</ele><time>2026-04-27T11:45:04Z</time></trkpt><trkpt lat="37.9391165035663" lon="-4.071622971714929"><ele>428.0</ele><time>2026-04-27T11:45:05Z</time></trkpt><trkpt lat="37.93905892562064" lon="-4.071730663828856"><ele>428.0</ele><time>2026-04-27T11:45:06Z</time></trkpt><trkpt lat="37.93903899094109" lon="-4.071872635191417"><ele>428.0</ele><time>2026-04-27T11:45:07Z</time></trkpt><trkpt lat="37.93906304596733" lon="-4.072040097082433"><ele>428.0</ele><time>2026-04-27T11:45:08Z</time></trkpt><trkpt lat="37.93910992379244" lon="-4.07220708135147"><ele>428.0</ele><time>2026-04-27T11:45:09Z</time></trkpt><trkpt lat="37.93916437789825" lon="-4.072367103714844"><ele>421.3333333333333</ele><time>2026-04-27T11:45:10Z</time></trkpt><trkpt lat="37.93922276114063" lon="-4.0725252206686715"><ele>414.66666666666663</ele><time>2026-04-27T11:45:11Z</time></trkpt><trkpt lat="37.939292430432786" lon="-4.072696946710799"><ele>408.0</ele><time>2026-04-27T11:45:12Z</time></trkpt><trkpt lat="37.93937152397394" lon="-4.072877189080674"><ele>408.0</ele><time>2026-04-27T11:45:13Z</time></trkpt><trkpt lat="37.93946154016711" lon="-4.073074579865973"><ele>408.0</ele><time>2026-04-27T11:45:14Z</time></trkpt><trkpt lat="37.93955097027298" lon="-4.073270518338811"><ele>408.0</ele><time>2026-04-27T11:45:15Z</time></trkpt><trkpt lat="37.93964264679677" lon="-4.073473016125133"><ele>408.66666666666663</ele><time>2026-04-27T11:45:16Z</time></trkpt><trkpt lat="37.93973909908281" lon="-4.073678500782742"><ele>409.3333333333333</ele><time>2026-04-27T11:45:17Z</time></trkpt><trkpt lat="37.93983628140839" lon="-4.073888312055625"><ele>410.0</ele><time>2026-04-27T11:45:18Z</time></trkpt><trkpt lat="37.939934937375064" lon="-4.074104489682245"><ele>411.66666666666663</ele><time>2026-04-27T11:45:19Z</time></trkpt><trkpt lat="37.94003890546538" lon="-4.074332298518436"><ele>413.33333333333337</ele><time>2026-04-27T11:45:20Z</time></trkpt><trkpt lat="37.940147719075526" lon="-4.074563517000173"><ele>415.0</ele><time>2026-04-27T11:45:21Z</time></trkpt><trkpt lat="37.94025156956211" lon="-4.074790861709895"><ele>413.0</ele><time>2026-04-27T11:45:22Z</time></trkpt><trkpt lat="37.940355579301446" lon="-4.0750209574986105"><ele>411.0</ele><time>2026-04-27T11:45:23Z</time></trkpt><trkpt lat="37.94045783945721" lon="-4.075238692694716"><ele>409.0</ele><time>2026-04-27T11:45:24Z</time></trkpt><trkpt lat="37.940554994858125" lon="-4.075455697890481"><ele>409.0</ele><time>2026-04-27T11:45:25Z</time></trkpt><trkpt lat="37.940653167538" lon="-4.075672397784852"><ele>409.0</ele><time>2026-04-27T11:45:26Z</time></trkpt><trkpt lat="37.940751070106906" lon="-4.0758881443365365"><ele>409.0</ele><time>2026-04-27T11:45:27Z</time></trkpt><trkpt lat="37.94085093797591" lon="-4.076096901727953"><ele>407.6666666666667</ele><time>2026-04-27T11:45:28Z</time></trkpt><trkpt lat="37.94096373909634" lon="-4.0763110474943245"><ele>406.33333333333337</ele><time>2026-04-27T11:45:29Z</time></trkpt><trkpt lat="37.941078693849136" lon="-4.0765174164268645"><ele>405.0</ele><time>2026-04-27T11:45:30Z</time></trkpt><trkpt lat="37.94118957363957" lon="-4.076717656129965"><ele>405.0</ele><time>2026-04-27T11:45:31Z</time></trkpt><trkpt lat="37.94129902984488" lon="-4.076904077371826"><ele>405.0</ele><time>2026-04-27T11:45:32Z</time></trkpt><trkpt lat="37.94141708438906" lon="-4.077081329792617"><ele>405.0</ele><time>2026-04-27T11:45:33Z</time></trkpt><trkpt lat="37.94155186767761" lon="-4.077246932040417"><ele>405.0</ele><time>2026-04-27T11:45:34Z</time></trkpt><trkpt lat="37.94170675122578" lon="-4.0774093266320195"><ele>405.0</ele><time>2026-04-27T11:45:35Z</time></trkpt><trkpt lat="37.94186790829212" lon="-4.077565485983258"><ele>405.0</ele><time>2026-04-27T11:45:36Z</time></trkpt><trkpt lat="37.94204477279596" lon="-4.077706499521524"><ele>406.33333333333337</ele><time>2026-04-27T11:45:37Z</time></trkpt><trkpt lat="37.9422319095678" lon="-4.077830462910258"><ele>407.6666666666667</ele><time>2026-04-27T11:45:38Z</time></trkpt><trkpt lat="37.94242008772937" lon="-4.077938112932931"><ele>409.0</ele><time>2026-04-27T11:45:39Z</time></trkpt><trkpt lat="37.942612030088995" lon="-4.078014702014284"><ele>409.0</ele><time>2026-04-27T11:45:40Z</time></trkpt><trkpt lat="37.94281308670425" lon="-4.078058321248228"><ele>409.0</ele><time>2026-04-27T11:45:41Z</time></trkpt><trkpt lat="37.94302207513725" lon="-4.078081246271143"><ele>409.0</ele><time>2026-04-27T11:45:42Z</time></trkpt><trkpt lat="37.9432345290346" lon="-4.078080135594055"><ele>407.0</ele><time>2026-04-27T11:45:43Z</time></trkpt><trkpt lat="37.94344942765598" lon="-4.078025010590071"><ele>405.0</ele><time>2026-04-27T11:45:44Z</time></trkpt><trkpt lat="37.943667899544714" lon="-4.077982111847707"><ele>403.0</ele><time>2026-04-27T11:45:45Z</time></trkpt><trkpt lat="37.94387851894886" lon="-4.077894243719089"><ele>403.0</ele><time>2026-04-27T11:45:46Z</time></trkpt><trkpt lat="37.94408287292467" lon="-4.077787115219084"><ele>403.0</ele><time>2026-04-27T11:45:47Z</time></trkpt><trkpt lat="37.9442792434011" lon="-4.077637493076683"><ele>403.0</ele><time>2026-04-27T11:45:48Z</time></trkpt><trkpt lat="37.94448127538126" lon="-4.077489151122064"><ele>403.0</ele><time>2026-04-27T11:45:49Z</time></trkpt><trkpt lat="37.94468774606276" lon="-4.0773528637046805"><ele>403.0</ele><time>2026-04-27T11:45:50Z</time></trkpt><trkpt lat="37.94488173140562" lon="-4.0771746647020635"><ele>403.0</ele><time>2026-04-27T11:45:51Z</time></trkpt><trkpt lat="37.94509745957198" lon="-4.077023154481152"><ele>399.5</ele><time>2026-04-27T11:45:52Z</time></trkpt><trkpt lat="37.945308114359655" lon="-4.076852706198208"><ele>396.0</ele><time>2026-04-27T11:45:53Z</time></trkpt><trkpt lat="37.945526290098066" lon="-4.076677813279433"><ele>395.5</ele><time>2026-04-27T11:45:54Z</time></trkpt><trkpt lat="37.945746863539206" lon="-4.076502602856564"><ele>395.0</ele><time>2026-04-27T11:45:55Z</time></trkpt><trkpt lat="37.945967593616125" lon="-4.076322623365027"><ele>395.0</ele><time>2026-04-27T11:45:56Z</time></trkpt><trkpt lat="37.94618786499873" lon="-4.076142058028398"><ele>395.0</ele><time>2026-04-27T11:45:57Z</time></trkpt><trkpt lat="37.946411426332" lon="-4.0759663295134425"><ele>395.0</ele><time>2026-04-27T11:45:58Z</time></trkpt><trkpt lat="37.946632744220764" lon="-4.07579002138178"><ele>395.0</ele><time>2026-04-27T11:45:59Z</time></trkpt><trkpt lat="37.94684702432664" lon="-4.075608888156953"><ele>394.5</ele><time>2026-04-27T11:46:00Z</time></trkpt><trkpt lat="37.9470558435967" lon="-4.075417388373099"><ele>394.0</ele><time>2026-04-27T11:46:01Z</time></trkpt><trkpt lat="37.94724908591189" lon="-4.0751979684035415"><ele>394.0</ele><time>2026-04-27T11:46:02Z</time></trkpt><trkpt lat="37.94743658989925" lon="-4.074988904997432"><ele>394.0</ele><time>2026-04-27T11:46:03Z</time></trkpt><trkpt lat="37.94762409867262" lon="-4.074773461540976"><ele>395.0</ele><time>2026-04-27T11:46:04Z</time></trkpt><trkpt lat="37.9477905567292" lon="-4.07453815982293"><ele>396.0</ele><time>2026-04-27T11:46:05Z</time></trkpt><trkpt lat="37.94793728539235" lon="-4.0742792111660835"><ele>393.0</ele><time>2026-04-27T11:46:06Z</time></trkpt><trkpt lat="37.948106063143115" lon="-4.0740469203436875"><ele>390.0</ele><time>2026-04-27T11:46:07Z</time></trkpt><trkpt lat="37.94825585020599" lon="-4.073799926895449"><ele>395.5</ele><time>2026-04-27T11:46:08Z</time></trkpt><trkpt lat="37.94840698875522" lon="-4.07356815492259"><ele>401.0</ele><time>2026-04-27T11:46:09Z</time></trkpt><trkpt lat="37.94856799860641" lon="-4.073337286080167"><ele>397.0</ele><time>2026-04-27T11:46:10Z</time></trkpt><trkpt lat="37.94874140199629" lon="-4.0731074103924865"><ele>393.0</ele><time>2026-04-27T11:46:11Z</time></trkpt><trkpt lat="37.94891869839836" lon="-4.072895679442087"><ele>393.0</ele><time>2026-04-27T11:46:12Z</time></trkpt><trkpt lat="37.949114404675775" lon="-4.072689651915939"><ele>393.0</ele><time>2026-04-27T11:46:13Z</time></trkpt><trkpt lat="37.94932099340354" lon="-4.072507781579594"><ele>392.0</ele><time>2026-04-27T11:46:14Z</time></trkpt><trkpt lat="37.949532609852064" lon="-4.072342533654816"><ele>391.0</ele><time>2026-04-27T11:46:15Z</time></trkpt><trkpt lat="37.949748616593034" lon="-4.072197865912442"><ele>391.0</ele><time>2026-04-27T11:46:16Z</time></trkpt><trkpt lat="37.9499737970127" lon="-4.0720739577130605"><ele>391.0</ele><time>2026-04-27T11:46:17Z</time></trkpt><trkpt lat="37.950201714700995" lon="-4.071973001243414"><ele>388.5</ele><time>2026-04-27T11:46:18Z</time></trkpt><trkpt lat="37.95043458732319" lon="-4.07188681255164"><ele>386.0</ele><time>2026-04-27T11:46:19Z</time></trkpt><trkpt lat="37.95066988880703" lon="-4.071816828330069"><ele>383.0</ele><time>2026-04-27T11:46:20Z</time></trkpt><trkpt lat="37.95090649492028" lon="-4.071769918260864"><ele>380.0</ele><time>2026-04-27T11:46:21Z</time></trkpt><trkpt lat="37.95114352620406" lon="-4.071744431445857"><ele>380.0</ele><time>2026-04-27T11:46:22Z</time></trkpt><trkpt lat="37.95138265071725" lon="-4.071735967498352"><ele>380.0</ele><time>2026-04-27T11:46:23Z</time></trkpt><trkpt lat="37.95161452004861" lon="-4.071752228491927"><ele>380.5</ele><time>2026-04-27T11:46:24Z</time></trkpt><trkpt lat="37.95184383776906" lon="-4.071787343400079"><ele>381.0</ele><time>2026-04-27T11:46:25Z</time></trkpt><trkpt lat="37.95207451910177" lon="-4.07183774648733"><ele>381.0</ele><time>2026-04-27T11:46:26Z</time></trkpt><trkpt lat="37.952296916748026" lon="-4.071899168317461"><ele>381.0</ele><time>2026-04-27T11:46:27Z</time></trkpt><trkpt lat="37.95252248058941" lon="-4.071928884899357"><ele>382.0</ele><time>2026-04-27T11:46:28Z</time></trkpt><trkpt lat="37.95273750602349" lon="-4.072028807698928"><ele>383.0</ele><time>2026-04-27T11:46:29Z</time></trkpt><trkpt lat="37.95295562538204" lon="-4.072091562303078"><ele>383.0</ele><time>2026-04-27T11:46:30Z</time></trkpt><trkpt lat="37.95316542701025" lon="-4.072156077917061"><ele>383.0</ele><time>2026-04-27T11:46:31Z</time></trkpt><trkpt lat="37.95336942072904" lon="-4.072224824368608"><ele>383.0</ele><time>2026-04-27T11:46:32Z</time></trkpt><trkpt lat="37.953582720548155" lon="-4.07229563818693"><ele>382.0</ele><time>2026-04-27T11:46:33Z</time></trkpt><trkpt lat="37.953798227577195" lon="-4.072361157566491"><ele>381.0</ele><time>2026-04-27T11:46:34Z</time></trkpt><trkpt lat="37.95400281848478" lon="-4.072416666260129"><ele>380.0</ele><time>2026-04-27T11:46:35Z</time></trkpt><trkpt lat="37.95420448109354" lon="-4.07246482004275"><ele>376.0</ele><time>2026-04-27T11:46:36Z</time></trkpt><trkpt lat="37.95441366520157" lon="-4.072497567861512"><ele>372.0</ele><time>2026-04-27T11:46:37Z</time></trkpt><trkpt lat="37.95462649010056" lon="-4.0725003981316785"><ele>368.0</ele><time>2026-04-27T11:46:38Z</time></trkpt><trkpt lat="37.954842544865855" lon="-4.072479587238904"><ele>367.0</ele><time>2026-04-27T11:46:39Z</time></trkpt><trkpt lat="37.95505685716999" lon="-4.07240875242726"><ele>366.0</ele><time>2026-04-27T11:46:40Z</time></trkpt><trkpt lat="37.95527235982127" lon="-4.072335967180177"><ele>365.0</ele><time>2026-04-27T11:46:41Z</time></trkpt><trkpt lat="37.95547851683956" lon="-4.072235427439674"><ele>365.0</ele><time>2026-04-27T11:46:42Z</time></trkpt><trkpt lat="37.955670391710534" lon="-4.072114244681136"><ele>365.0</ele><time>2026-04-27T11:46:43Z</time></trkpt><trkpt lat="37.955850540983405" lon="-4.071964199838001"><ele>365.0</ele><time>2026-04-27T11:46:44Z</time></trkpt><trkpt lat="37.95602326483321" lon="-4.07179053603819"><ele>361.5</ele><time>2026-04-27T11:46:45Z</time></trkpt><trkpt lat="37.95618545977921" lon="-4.071593652555068"><ele>358.0</ele><time>2026-04-27T11:46:46Z</time></trkpt><trkpt lat="37.95633395912215" lon="-4.07137575621272"><ele>358.0</ele><time>2026-04-27T11:46:47Z</time></trkpt><trkpt lat="37.95647420586531" lon="-4.071148839049326"><ele>358.0</ele><time>2026-04-27T11:46:48Z</time></trkpt><trkpt lat="37.95661731505016" lon="-4.070920479258477"><ele>358.0</ele><time>2026-04-27T11:46:49Z</time></trkpt><trkpt lat="37.95676724829589" lon="-4.070694445367552"><ele>358.0</ele><time>2026-04-27T11:46:50Z</time></trkpt><trkpt lat="37.95693597076021" lon="-4.070481392760935"><ele>358.0</ele><time>2026-04-27T11:46:51Z</time></trkpt><trkpt lat="37.95711969278512" lon="-4.070283014534155"><ele>358.0</ele><time>2026-04-27T11:46:52Z</time></trkpt><trkpt lat="37.95731161122125" lon="-4.070104220128173"><ele>358.0</ele><time>2026-04-27T11:46:53Z</time></trkpt><trkpt lat="37.95751819324039" lon="-4.069942865218694"><ele>358.0</ele><time>2026-04-27T11:46:54Z</time></trkpt><trkpt lat="37.95773557329784" lon="-4.0697978466668205"><ele>359.0</ele><time>2026-04-27T11:46:55Z</time></trkpt><trkpt lat="37.95796371202326" lon="-4.069679120384052"><ele>360.0</ele><time>2026-04-27T11:46:56Z</time></trkpt><trkpt lat="37.95820264053284" lon="-4.069580452555836"><ele>354.5</ele><time>2026-04-27T11:46:57Z</time></trkpt><trkpt lat="37.95844894722635" lon="-4.069490816430871"><ele>349.0</ele><time>2026-04-27T11:46:58Z</time></trkpt><trkpt lat="37.9587007827581" lon="-4.069406469221848"><ele>349.0</ele><time>2026-04-27T11:46:59Z</time></trkpt><trkpt lat="37.95894065876952" lon="-4.069301013586499"><ele>349.0</ele><time>2026-04-27T11:47:00Z</time></trkpt><trkpt lat="37.959194001763855" lon="-4.069214214764356"><ele>349.5</ele><time>2026-04-27T11:47:01Z</time></trkpt><trkpt lat="37.959450164066816" lon="-4.069132104647526"><ele>350.0</ele><time>2026-04-27T11:47:02Z</time></trkpt><trkpt lat="37.95970401820493" lon="-4.069047411117367"><ele>350.0</ele><time>2026-04-27T11:47:03Z</time></trkpt><trkpt lat="37.95995824095632" lon="-4.068965592755241"><ele>350.0</ele><time>2026-04-27T11:47:04Z</time></trkpt><trkpt lat="37.96021140384777" lon="-4.068881450026823"><ele>346.0</ele><time>2026-04-27T11:47:05Z</time></trkpt><trkpt lat="37.960458909761286" lon="-4.068800335785015"><ele>342.0</ele><time>2026-04-27T11:47:06Z</time></trkpt><trkpt lat="37.960701335662904" lon="-4.068724469307529"><ele>339.5</ele><time>2026-04-27T11:47:07Z</time></trkpt><trkpt lat="37.96094786109421" lon="-4.068658095047793"><ele>337.0</ele><time>2026-04-27T11:47:08Z</time></trkpt><trkpt lat="37.961198387206096" lon="-4.068618248318348"><ele>337.0</ele><time>2026-04-27T11:47:09Z</time></trkpt><trkpt lat="37.96145475974366" lon="-4.068610598089388"><ele>337.0</ele><time>2026-04-27T11:47:10Z</time></trkpt><trkpt lat="37.961714658054184" lon="-4.068643123639335"><ele>337.0</ele><time>2026-04-27T11:47:11Z</time></trkpt><trkpt lat="37.96197312624391" lon="-4.068719920727134"><ele>337.0</ele><time>2026-04-27T11:47:12Z</time></trkpt><trkpt lat="37.96222829162449" lon="-4.068822350678094"><ele>337.0</ele><time>2026-04-27T11:47:13Z</time></trkpt><trkpt lat="37.96248036326117" lon="-4.068919152322919"><ele>337.0</ele><time>2026-04-27T11:47:14Z</time></trkpt><trkpt lat="37.962724422307375" lon="-4.068988105744884"><ele>337.5</ele><time>2026-04-27T11:47:15Z</time></trkpt><trkpt lat="37.96296081955953" lon="-4.069029136684432"><ele>338.0</ele><time>2026-04-27T11:47:16Z</time></trkpt><trkpt lat="37.96320290190262" lon="-4.06903538808204"><ele>336.0</ele><time>2026-04-27T11:47:17Z</time></trkpt><trkpt lat="37.963448725484874" lon="-4.069020711960996"><ele>334.0</ele><time>2026-04-27T11:47:18Z</time></trkpt><trkpt lat="37.963697313019814" lon="-4.068985876560402"><ele>334.0</ele><time>2026-04-27T11:47:19Z</time></trkpt><trkpt lat="37.96394547503849" lon="-4.068914926062007"><ele>334.0</ele><time>2026-04-27T11:47:20Z</time></trkpt><trkpt lat="37.96419074993916" lon="-4.068809312425522"><ele>333.0</ele><time>2026-04-27T11:47:21Z</time></trkpt><trkpt lat="37.96443037920149" lon="-4.06868747032418"><ele>332.0</ele><time>2026-04-27T11:47:22Z</time></trkpt><trkpt lat="37.96465900928252" lon="-4.068566565709704"><ele>332.0</ele><time>2026-04-27T11:47:23Z</time></trkpt><trkpt lat="37.96489702241563" lon="-4.068454461097982"><ele>332.0</ele><time>2026-04-27T11:47:24Z</time></trkpt><trkpt lat="37.965147817985155" lon="-4.0683631362518895"><ele>328.5</ele><time>2026-04-27T11:47:25Z</time></trkpt><trkpt lat="37.9654054421874" lon="-4.068307153356118"><ele>325.0</ele><time>2026-04-27T11:47:26Z</time></trkpt><trkpt lat="37.965655523366806" lon="-4.068293911283164"><ele>323.0</ele><time>2026-04-27T11:47:27Z</time></trkpt><trkpt lat="37.9658877514994" lon="-4.068314428020446"><ele>321.0</ele><time>2026-04-27T11:47:28Z</time></trkpt><trkpt lat="37.96611432448431" lon="-4.068323523616646"><ele>321.0</ele><time>2026-04-27T11:47:29Z</time></trkpt><trkpt lat="37.966341443185556" lon="-4.068320977388266"><ele>321.0</ele><time>2026-04-27T11:47:30Z</time></trkpt><trkpt lat="37.966572410872836" lon="-4.068296365773077"><ele>321.5</ele><time>2026-04-27T11:47:31Z</time></trkpt><trkpt lat="37.96680289593957" lon="-4.068248733791956"><ele>322.0</ele><time>2026-04-27T11:47:32Z</time></trkpt><trkpt lat="37.967034427399305" lon="-4.068176220445315"><ele>322.0</ele><time>2026-04-27T11:47:33Z</time></trkpt><trkpt lat="37.967255517209644" lon="-4.068066190439267"><ele>322.0</ele><time>2026-04-27T11:47:34Z</time></trkpt><trkpt lat="37.96746371919335" lon="-4.067970265126435"><ele>320.3333333333333</ele><time>2026-04-27T11:47:35Z</time></trkpt><trkpt lat="37.967660626133934" lon="-4.067867866826918"><ele>318.6666666666667</ele><time>2026-04-27T11:47:36Z</time></trkpt><trkpt lat="37.96786391690046" lon="-4.067772725243934"><ele>317.0</ele><time>2026-04-27T11:47:37Z</time></trkpt><trkpt lat="37.96807404533071" lon="-4.067670420615817"><ele>317.0</ele><time>2026-04-27T11:47:38Z</time></trkpt><trkpt lat="37.96829472479468" lon="-4.067579790155607"><ele>317.0</ele><time>2026-04-27T11:47:39Z</time></trkpt><trkpt lat="37.96852299507467" lon="-4.067514466295124"><ele>316.0</ele><time>2026-04-27T11:47:40Z</time></trkpt><trkpt lat="37.96875923064593" lon="-4.067478624225364"><ele>315.0</ele><time>2026-04-27T11:47:41Z</time></trkpt><trkpt lat="37.969002210803346" lon="-4.067471263412718"><ele>312.5</ele><time>2026-04-27T11:47:42Z</time></trkpt><trkpt lat="37.96925044456885" lon="-4.067498194180075"><ele>310.0</ele><time>2026-04-27T11:47:43Z</time></trkpt><trkpt lat="37.96949887044729" lon="-4.067536381526561"><ele>310.0</ele><time>2026-04-27T11:47:44Z</time></trkpt><trkpt lat="37.96974910445193" lon="-4.0675856729184945"><ele>310.0</ele><time>2026-04-27T11:47:45Z</time></trkpt><trkpt lat="37.970000686891794" lon="-4.067632986359835"><ele>308.5</ele><time>2026-04-27T11:47:46Z</time></trkpt><trkpt lat="37.97025691577616" lon="-4.06766796257332"><ele>307.0</ele><time>2026-04-27T11:47:47Z</time></trkpt><trkpt lat="37.97051124696269" lon="-4.067702765681044"><ele>307.0</ele><time>2026-04-27T11:47:48Z</time></trkpt><trkpt lat="37.970767806094074" lon="-4.067743722847838"><ele>307.0</ele><time>2026-04-27T11:47:49Z</time></trkpt><trkpt lat="37.971022200834085" lon="-4.067788453243813"><ele>306.5</ele><time>2026-04-27T11:47:50Z</time></trkpt><trkpt lat="37.9712778917177" lon="-4.067838141779858"><ele>306.0</ele><time>2026-04-27T11:47:51Z</time></trkpt><trkpt lat="37.971530757793495" lon="-4.067907716535009"><ele>305.5</ele><time>2026-04-27T11:47:52Z</time></trkpt><trkpt lat="37.97177741256426" lon="-4.068006946721667"><ele>305.0</ele><time>2026-04-27T11:47:53Z</time></trkpt><trkpt lat="37.97201311648155" lon="-4.068141174112955"><ele>301.0</ele><time>2026-04-27T11:47:54Z</time></trkpt><trkpt lat="37.97224200435709" lon="-4.0683070201040845"><ele>297.0</ele><time>2026-04-27T11:47:55Z</time></trkpt><trkpt lat="37.972457444470365" lon="-4.068502526510974"><ele>301.0</ele><time>2026-04-27T11:47:56Z</time></trkpt><trkpt lat="37.97265737519504" lon="-4.068724066000939"><ele>305.0</ele><time>2026-04-27T11:47:57Z</time></trkpt><trkpt lat="37.97283781399352" lon="-4.06896398445179"><ele>301.0</ele><time>2026-04-27T11:47:58Z</time></trkpt><trkpt lat="37.97298867559128" lon="-4.069212995475113"><ele>297.0</ele><time>2026-04-27T11:47:59Z</time></trkpt><trkpt lat="37.97313787399385" lon="-4.069465664158385"><ele>297.0</ele><time>2026-04-27T11:48:00Z</time></trkpt><trkpt lat="37.97328889371836" lon="-4.069713727568484"><ele>297.0</ele><time>2026-04-27T11:48:01Z</time></trkpt><trkpt lat="37.97345193296652" lon="-4.069948996142574"><ele>295.0</ele><time>2026-04-27T11:48:02Z</time></trkpt><trkpt lat="37.97364583142501" lon="-4.07014071759283"><ele>293.0</ele><time>2026-04-27T11:48:03Z</time></trkpt><trkpt lat="37.973830373250614" lon="-4.0703394357143114"><ele>293.0</ele><time>2026-04-27T11:48:04Z</time></trkpt><trkpt lat="37.97403863921258" lon="-4.070501504703041"><ele>293.0</ele><time>2026-04-27T11:48:05Z</time></trkpt><trkpt lat="37.97425356769198" lon="-4.0706381534150164"><ele>293.0</ele><time>2026-04-27T11:48:06Z</time></trkpt><trkpt lat="37.974481191861216" lon="-4.070751227547479"><ele>293.0</ele><time>2026-04-27T11:48:07Z</time></trkpt><trkpt lat="37.9747198704827" lon="-4.070849839818044"><ele>288.0</ele><time>2026-04-27T11:48:08Z</time></trkpt><trkpt lat="37.97497197528897" lon="-4.0709045475712085"><ele>283.0</ele><time>2026-04-27T11:48:09Z</time></trkpt><trkpt lat="37.97522323475684" lon="-4.0709848420062045"><ele>281.0</ele><time>2026-04-27T11:48:10Z</time></trkpt><trkpt lat="37.97548520454788" lon="-4.071023331078353"><ele>279.0</ele><time>2026-04-27T11:48:11Z</time></trkpt><trkpt lat="37.97574114122715" lon="-4.071067425220138"><ele>280.5</ele><time>2026-04-27T11:48:12Z</time></trkpt><trkpt lat="37.97599857739007" lon="-4.071121395832242"><ele>282.0</ele><time>2026-04-27T11:48:13Z</time></trkpt><trkpt lat="37.976251450191725" lon="-4.071183071059693"><ele>282.0</ele><time>2026-04-27T11:48:14Z</time></trkpt><trkpt lat="37.976500828151515" lon="-4.071247057822299"><ele>282.0</ele><time>2026-04-27T11:48:15Z</time></trkpt><trkpt lat="37.9767497622729" lon="-4.071308338820422"><ele>280.0</ele><time>2026-04-27T11:48:16Z</time></trkpt><trkpt lat="37.97699111003634" lon="-4.071365067125575"><ele>278.0</ele><time>2026-04-27T11:48:16.999Z</time></trkpt><trkpt lat="37.97722899543435" lon="-4.071422152347674"><ele>278.0</ele><time>2026-04-27T11:48:17.999Z</time></trkpt><trkpt lat="37.97746250372825" lon="-4.071479493876868"><ele>278.0</ele><time>2026-04-27T11:48:18.999Z</time></trkpt><trkpt lat="37.97769801223376" lon="-4.071536752504255"><ele>276.5</ele><time>2026-04-27T11:48:19.999Z</time></trkpt><trkpt lat="37.977933793327715" lon="-4.071594769001825"><ele>275.0</ele><time>2026-04-27T11:48:20.999Z</time></trkpt><trkpt lat="37.97817330749735" lon="-4.071654150733158"><ele>272.5</ele><time>2026-04-27T11:48:21.999Z</time></trkpt><trkpt lat="37.97841054588976" lon="-4.0717107765907645"><ele>270.0</ele><time>2026-04-27T11:48:23Z</time></trkpt><trkpt lat="37.97865621555498" lon="-4.071757917470414"><ele>270.0</ele><time>2026-04-27T11:48:24Z</time></trkpt><trkpt lat="37.978896935685604" lon="-4.071784352017568"><ele>270.0</ele><time>2026-04-27T11:48:25Z</time></trkpt><trkpt lat="37.97914537663532" lon="-4.0717821468219935"><ele>267.5</ele><time>2026-04-27T11:48:26Z</time></trkpt><trkpt lat="37.97939259157521" lon="-4.071745899620246"><ele>265.0</ele><time>2026-04-27T11:48:27Z</time></trkpt><trkpt lat="37.97963855019965" lon="-4.071681159159495"><ele>265.0</ele><time>2026-04-27T11:48:28Z</time></trkpt><trkpt lat="37.97988333328574" lon="-4.0716033808194965"><ele>265.0</ele><time>2026-04-27T11:48:29Z</time></trkpt><trkpt lat="37.980113754631056" lon="-4.071512606280342"><ele>263.5</ele><time>2026-04-27T11:48:30Z</time></trkpt><trkpt lat="37.98033940488768" lon="-4.071393736404825"><ele>262.0</ele><time>2026-04-27T11:48:31Z</time></trkpt><trkpt lat="37.98054823397792" lon="-4.071234209606015"><ele>262.0</ele><time>2026-04-27T11:48:32Z</time></trkpt><trkpt lat="37.98074997398417" lon="-4.071057031054505"><ele>262.0</ele><time>2026-04-27T11:48:33Z</time></trkpt><trkpt lat="37.98093760098459" lon="-4.0708660902456115"><ele>262.5</ele><time>2026-04-27T11:48:34Z</time></trkpt><trkpt lat="37.981106533418654" lon="-4.070650343654919"><ele>263.0</ele><time>2026-04-27T11:48:35Z</time></trkpt><trkpt lat="37.981274316281365" lon="-4.070427823476942"><ele>263.0</ele><time>2026-04-27T11:48:36Z</time></trkpt><trkpt lat="37.98144604982242" lon="-4.070211378025123"><ele>263.0</ele><time>2026-04-27T11:48:37Z</time></trkpt><trkpt lat="37.98162839412901" lon="-4.069998674996545"><ele>261.5</ele><time>2026-04-27T11:48:38Z</time></trkpt><trkpt lat="37.981815664196816" lon="-4.0697893648679555"><ele>260.0</ele><time>2026-04-27T11:48:39Z</time></trkpt><trkpt lat="37.98201154783717" lon="-4.069585865124048"><ele>260.0</ele><time>2026-04-27T11:48:40Z</time></trkpt><trkpt lat="37.982219082167724" lon="-4.069389629380098"><ele>260.0</ele><time>2026-04-27T11:48:41Z</time></trkpt><trkpt lat="37.98243508334842" lon="-4.069204865442691"><ele>260.5</ele><time>2026-04-27T11:48:42Z</time></trkpt><trkpt lat="37.98266564841431" lon="-4.06903418854859"><ele>261.0</ele><time>2026-04-27T11:48:43Z</time></trkpt><trkpt lat="37.98289379459992" lon="-4.068870862403962"><ele>261.0</ele><time>2026-04-27T11:48:44Z</time></trkpt><trkpt lat="37.983126518927726" lon="-4.068718515180848"><ele>261.0</ele><time>2026-04-27T11:48:45Z</time></trkpt><trkpt lat="37.98336451584995" lon="-4.068569506961468"><ele>260.5</ele><time>2026-04-27T11:48:46Z</time></trkpt><trkpt lat="37.98360104461161" lon="-4.068425870735353"><ele>260.0</ele><time>2026-04-27T11:48:47Z</time></trkpt><trkpt lat="37.983830414612896" lon="-4.068284628677844"><ele>259.5</ele><time>2026-04-27T11:48:48Z</time></trkpt><trkpt lat="37.98405067086651" lon="-4.06814617749883"><ele>259.0</ele><time>2026-04-27T11:48:49Z</time></trkpt><trkpt lat="37.984257241400016" lon="-4.067983673448406"><ele>259.0</ele><time>2026-04-27T11:48:50Z</time></trkpt><trkpt lat="37.984451846551146" lon="-4.067795778803294"><ele>259.0</ele><time>2026-04-27T11:48:51Z</time></trkpt><trkpt lat="37.984633060090104" lon="-4.067584206229737"><ele>255.5</ele><time>2026-04-27T11:48:52Z</time></trkpt><trkpt lat="37.984803786246594" lon="-4.067351768903926"><ele>252.0</ele><time>2026-04-27T11:48:53Z</time></trkpt><trkpt lat="37.98496195535326" lon="-4.067101288704545"><ele>254.5</ele><time>2026-04-27T11:48:54Z</time></trkpt><trkpt lat="37.98510274831832" lon="-4.0668346232065335"><ele>257.0</ele><time>2026-04-27T11:48:55Z</time></trkpt><trkpt lat="37.98522427232872" lon="-4.066543799419268"><ele>257.0</ele><time>2026-04-27T11:48:56Z</time></trkpt><trkpt lat="37.985326097623016" lon="-4.066241253428972"><ele>257.0</ele><time>2026-04-27T11:48:57Z</time></trkpt><trkpt lat="37.98541580438096" lon="-4.065929712890089"><ele>256.0</ele><time>2026-04-27T11:48:58Z</time></trkpt><trkpt lat="37.98550197518555" lon="-4.06562013008185"><ele>255.0</ele><time>2026-04-27T11:48:59Z</time></trkpt><trkpt lat="37.98559329085767" lon="-4.065323490702242"><ele>255.0</ele><time>2026-04-27T11:49:00Z</time></trkpt><trkpt lat="37.98569706588547" lon="-4.065027217492555"><ele>255.0</ele><time>2026-04-27T11:49:01Z</time></trkpt><trkpt lat="37.98581870257631" lon="-4.064747256682302"><ele>256.0</ele><time>2026-04-27T11:49:02Z</time></trkpt><trkpt lat="37.98595857662085" lon="-4.064469798894704"><ele>257.0</ele><time>2026-04-27T11:49:03Z</time></trkpt><trkpt lat="37.986111686769064" lon="-4.0642110594495175"><ele>257.0</ele><time>2026-04-27T11:49:04Z</time></trkpt><trkpt lat="37.986279577470924" lon="-4.063957011591567"><ele>257.0</ele><time>2026-04-27T11:49:05Z</time></trkpt><trkpt lat="37.986457980932634" lon="-4.0637165916576565"><ele>257.0</ele><time>2026-04-27T11:49:06Z</time></trkpt><trkpt lat="37.986653169887084" lon="-4.063491630816173"><ele>257.0</ele><time>2026-04-27T11:49:07Z</time></trkpt><trkpt lat="37.986862225574484" lon="-4.063291086330251"><ele>254.0</ele><time>2026-04-27T11:49:08Z</time></trkpt><trkpt lat="37.987086332237254" lon="-4.063113335971103"><ele>251.0</ele><time>2026-04-27T11:49:09Z</time></trkpt><trkpt lat="37.98732105976243" lon="-4.062953229499356"><ele>247.0</ele><time>2026-04-27T11:49:10Z</time></trkpt><trkpt lat="37.987565592256516" lon="-4.0628101203445475"><ele>243.0</ele><time>2026-04-27T11:49:11Z</time></trkpt><trkpt lat="37.987818161269594" lon="-4.062689640187265"><ele>243.0</ele><time>2026-04-27T11:49:12Z</time></trkpt><trkpt lat="37.988079407094716" lon="-4.062592430041686"><ele>243.0</ele><time>2026-04-27T11:49:13Z</time></trkpt><trkpt lat="37.9883442426053" lon="-4.062521494780052"><ele>242.0</ele><time>2026-04-27T11:49:14Z</time></trkpt><trkpt lat="37.988610914513934" lon="-4.062474696521699"><ele>241.0</ele><time>2026-04-27T11:49:15Z</time></trkpt><trkpt lat="37.98887784851202" lon="-4.062454928132792"><ele>241.0</ele><time>2026-04-27T11:49:16Z</time></trkpt><trkpt lat="37.989148062147784" lon="-4.06245444417088"><ele>241.0</ele><time>2026-04-27T11:49:17Z</time></trkpt><trkpt lat="37.98941684835533" lon="-4.062462946800263"><ele>239.0</ele><time>2026-04-27T11:49:18Z</time></trkpt><trkpt lat="37.98968371150545" lon="-4.062475034913874"><ele>237.0</ele><time>2026-04-27T11:49:19Z</time></trkpt><trkpt lat="37.98994794624393" lon="-4.062479764993739"><ele>235.5</ele><time>2026-04-27T11:49:20Z</time></trkpt><trkpt lat="37.99021649266823" lon="-4.062479344247506"><ele>234.0</ele><time>2026-04-27T11:49:21Z</time></trkpt><trkpt lat="37.99048328775647" lon="-4.06248216740942"><ele>234.0</ele><time>2026-04-27T11:49:22Z</time></trkpt><trkpt lat="37.99074894983924" lon="-4.062485188553929"><ele>234.0</ele><time>2026-04-27T11:49:23Z</time></trkpt><trkpt lat="37.991015155267" lon="-4.062489502921771"><ele>232.0</ele><time>2026-04-27T11:49:24Z</time></trkpt><trkpt lat="37.99128163160721" lon="-4.062492544195846"><ele>230.0</ele><time>2026-04-27T11:49:25Z</time></trkpt><trkpt lat="37.991546903097934" lon="-4.0624948062778845"><ele>227.0</ele><time>2026-04-27T11:49:26Z</time></trkpt><trkpt lat="37.9918168248899" lon="-4.0624996502691495"><ele>224.0</ele><time>2026-04-27T11:49:27Z</time></trkpt><trkpt lat="37.992085976901045" lon="-4.062503417260161"><ele>224.0</ele><time>2026-04-27T11:49:28Z</time></trkpt><trkpt lat="37.992358318476654" lon="-4.0625057222095515"><ele>224.0</ele><time>2026-04-27T11:49:29Z</time></trkpt><trkpt lat="37.99263021551178" lon="-4.062506116649413"><ele>224.0</ele><time>2026-04-27T11:49:30Z</time></trkpt><trkpt lat="37.99290054463579" lon="-4.0625067010527385"><ele>224.0</ele><time>2026-04-27T11:49:31Z</time></trkpt><trkpt lat="37.99317503827978" lon="-4.0625110744723845"><ele>224.0</ele><time>2026-04-27T11:49:32Z</time></trkpt><trkpt lat="37.993445581738555" lon="-4.062519625385366"><ele>224.0</ele><time>2026-04-27T11:49:33Z</time></trkpt><trkpt lat="37.993721996815104" lon="-4.0625225984639695"><ele>224.0</ele><time>2026-04-27T11:49:34Z</time></trkpt><trkpt lat="37.993996549171406" lon="-4.062525570195285"><ele>224.0</ele><time>2026-04-27T11:49:35Z</time></trkpt><trkpt lat="37.994266674497474" lon="-4.062524579796672"><ele>222.5</ele><time>2026-04-27T11:49:36Z</time></trkpt><trkpt lat="37.99454148533291" lon="-4.062522065849746"><ele>221.0</ele><time>2026-04-27T11:49:37Z</time></trkpt><trkpt lat="37.99480947748462" lon="-4.062523056851099"><ele>220.0</ele><time>2026-04-27T11:49:38Z</time></trkpt><trkpt lat="37.995078117859514" lon="-4.062523563239622"><ele>219.0</ele><time>2026-04-27T11:49:39Z</time></trkpt><trkpt lat="37.99535205847067" lon="-4.062519008377994"><ele>219.0</ele><time>2026-04-27T11:49:40Z</time></trkpt><trkpt lat="37.99562185092771" lon="-4.062516449978679"><ele>219.0</ele><time>2026-04-27T11:49:41Z</time></trkpt><trkpt lat="37.99589406891932" lon="-4.062517127806033"><ele>218.5</ele><time>2026-04-27T11:49:42Z</time></trkpt><trkpt lat="37.996164383147324" lon="-4.062520120417898"><ele>218.0</ele><time>2026-04-27T11:49:43Z</time></trkpt><trkpt lat="37.99644042868132" lon="-4.0625265794516245"><ele>218.0</ele><time>2026-04-27T11:49:44Z</time></trkpt><trkpt lat="37.99671100135538" lon="-4.062533169893297"><ele>218.0</ele><time>2026-04-27T11:49:45Z</time></trkpt><trkpt lat="37.99698132493792" lon="-4.062539978763219"><ele>218.0</ele><time>2026-04-27T11:49:46Z</time></trkpt><trkpt lat="37.99725756059164" lon="-4.062542950495502"><ele>218.0</ele><time>2026-04-27T11:49:47Z</time></trkpt><trkpt lat="37.99753117938212" lon="-4.062549190676742"><ele>218.0</ele><time>2026-04-27T11:49:48Z</time></trkpt><trkpt lat="37.99780661047227" lon="-4.06255281002083"><ele>218.0</ele><time>2026-04-27T11:49:49Z</time></trkpt><trkpt lat="37.99808892327898" lon="-4.062557739536509"><ele>218.0</ele><time>2026-04-27T11:49:50Z</time></trkpt><trkpt lat="37.998369405728106" lon="-4.062542988075247"><ele>218.0</ele><time>2026-04-27T11:49:51Z</time></trkpt><trkpt lat="37.998647108492605" lon="-4.062567915669684"><ele>218.0</ele><time>2026-04-27T11:49:52Z</time></trkpt><trkpt lat="37.99892831054473" lon="-4.062570345313454"><ele>218.0</ele><time>2026-04-27T11:49:53Z</time></trkpt><trkpt lat="37.999205601551516" lon="-4.062575106465558"><ele>219.5</ele><time>2026-04-27T11:49:54Z</time></trkpt><trkpt lat="37.9994837170046" lon="-4.062579931313703"><ele>221.0</ele><time>2026-04-27T11:49:55Z</time></trkpt><trkpt lat="37.9997663311517" lon="-4.062582534949867"><ele>221.0</ele><time>2026-04-27T11:49:56Z</time></trkpt><trkpt lat="38.000048120765136" lon="-4.062586506036535"><ele>221.0</ele><time>2026-04-27T11:49:57Z</time></trkpt><trkpt lat="38.00032949510589" lon="-4.062570123033554"><ele>221.0</ele><time>2026-04-27T11:49:58Z</time></trkpt><trkpt lat="38.00061532660186" lon="-4.062595296129097"><ele>221.0</ele><time>2026-04-27T11:49:59Z</time></trkpt><trkpt lat="38.000900422964705" lon="-4.062569908938811"><ele>223.5</ele><time>2026-04-27T11:50:00Z</time></trkpt><trkpt lat="38.00117983194345" lon="-4.06255018293129"><ele>226.0</ele><time>2026-04-27T11:50:01Z</time></trkpt><trkpt lat="38.001456044297" lon="-4.062522337846798"><ele>234.0</ele><time>2026-04-27T11:50:02Z</time></trkpt><trkpt lat="38.00172277467028" lon="-4.062446580691366"><ele>242.0</ele><time>2026-04-27T11:50:03Z</time></trkpt><trkpt lat="38.00198229556643" lon="-4.062330610733341"><ele>242.0</ele><time>2026-04-27T11:50:04Z</time></trkpt><trkpt lat="38.00222845119594" lon="-4.062179527901484"><ele>242.0</ele><time>2026-04-27T11:50:05Z</time></trkpt><trkpt lat="38.00246058699114" lon="-4.062005379424956"><ele>243.5</ele><time>2026-04-27T11:50:06Z</time></trkpt><trkpt lat="38.00267457604146" lon="-4.06181373450405"><ele>245.0</ele><time>2026-04-27T11:50:07Z</time></trkpt><trkpt lat="38.00286923386653" lon="-4.06159407020112"><ele>245.0</ele><time>2026-04-27T11:50:08Z</time></trkpt><trkpt lat="38.00305036845307" lon="-4.061351230503736"><ele>245.0</ele><time>2026-04-27T11:50:09Z</time></trkpt><trkpt lat="38.003221671478315" lon="-4.061084951225077"><ele>244.0</ele><time>2026-04-27T11:50:10Z</time></trkpt><trkpt lat="38.00336870999863" lon="-4.06078930129459"><ele>243.0</ele><time>2026-04-27T11:50:11Z</time></trkpt><trkpt lat="38.00352904478865" lon="-4.060496997745675"><ele>243.0</ele><time>2026-04-27T11:50:12Z</time></trkpt><trkpt lat="38.0036877205736" lon="-4.060200928296326"><ele>243.0</ele><time>2026-04-27T11:50:13Z</time></trkpt><trkpt lat="38.00384464535105" lon="-4.05990812604427"><ele>242.0</ele><time>2026-04-27T11:50:14Z</time></trkpt><trkpt lat="38.00401457591081" lon="-4.05962506061205"><ele>241.0</ele><time>2026-04-27T11:50:15Z</time></trkpt><trkpt lat="38.004166850519454" lon="-4.059332834646199"><ele>243.5</ele><time>2026-04-27T11:50:16Z</time></trkpt><trkpt lat="38.004318949111976" lon="-4.059046595448096"><ele>246.0</ele><time>2026-04-27T11:50:17Z</time></trkpt><trkpt lat="38.004471804123696" lon="-4.058758150791257"><ele>246.0</ele><time>2026-04-27T11:50:18Z</time></trkpt><trkpt lat="38.004626339964545" lon="-4.058470993398564"><ele>246.0</ele><time>2026-04-27T11:50:19Z</time></trkpt><trkpt lat="38.004781853961916" lon="-4.058184526655121"><ele>246.0</ele><time>2026-04-27T11:50:20Z</time></trkpt><trkpt lat="38.004938593914915" lon="-4.057894205823785"><ele>246.0</ele><time>2026-04-27T11:50:21Z</time></trkpt><trkpt lat="38.00509439903141" lon="-4.057604325364692"><ele>244.5</ele><time>2026-04-27T11:50:22Z</time></trkpt><trkpt lat="38.00525057129269" lon="-4.057312501164252"><ele>243.0</ele><time>2026-04-27T11:50:23.001Z</time></trkpt><trkpt lat="38.00540777564845" lon="-4.057022420485575"><ele>243.0</ele><time>2026-04-27T11:50:24.001Z</time></trkpt><trkpt lat="38.00556665264647" lon="-4.0567342124278465"><ele>243.0</ele><time>2026-04-27T11:50:25.001Z</time></trkpt><trkpt lat="38.005725775804784" lon="-4.056449561592367"><ele>244.5</ele><time>2026-04-27T11:50:26.001Z</time></trkpt><trkpt lat="38.005878910873264" lon="-4.056172592341846"><ele>246.0</ele><time>2026-04-27T11:50:27.001Z</time></trkpt><trkpt lat="38.00602611371811" lon="-4.0558967815984035"><ele>246.5</ele><time>2026-04-27T11:50:28.001Z</time></trkpt><trkpt lat="38.006168949403275" lon="-4.055626477965354"><ele>247.0</ele><time>2026-04-27T11:50:29.001Z</time></trkpt><trkpt lat="38.00631029465997" lon="-4.055358404756089"><ele>247.0</ele><time>2026-04-27T11:50:30.001Z</time></trkpt><trkpt lat="38.00644939473679" lon="-4.0550915984175075"><ele>247.0</ele><time>2026-04-27T11:50:31.001Z</time></trkpt><trkpt lat="38.0065864295048" lon="-4.054830711073388"><ele>249.0</ele><time>2026-04-27T11:50:32.001Z</time></trkpt><trkpt lat="38.006725272279816" lon="-4.054572277755937"><ele>251.0</ele><time>2026-04-27T11:50:33.001Z</time></trkpt><trkpt lat="38.006862721112014" lon="-4.054314678210524"><ele>253.0</ele><time>2026-04-27T11:50:34.001Z</time></trkpt><trkpt lat="38.00699859760596" lon="-4.0540570147715975"><ele>255.0</ele><time>2026-04-27T11:50:35.001Z</time></trkpt><trkpt lat="38.00713572565189" lon="-4.053799858660944"><ele>255.0</ele><time>2026-04-27T11:50:36.001Z</time></trkpt><trkpt lat="38.007273527994265" lon="-4.053545997690769"><ele>255.0</ele><time>2026-04-27T11:50:37.001Z</time></trkpt><trkpt lat="38.00741058649627" lon="-4.053296121817091"><ele>252.0</ele><time>2026-04-27T11:50:38.001Z</time></trkpt><trkpt lat="38.00754953538574" lon="-4.053044855228574"><ele>249.0</ele><time>2026-04-27T11:50:39.001Z</time></trkpt><trkpt lat="38.00768726414342" lon="-4.052793088934194"><ele>249.0</ele><time>2026-04-27T11:50:40.001Z</time></trkpt><trkpt lat="38.007824877276946" lon="-4.052535504817682"><ele>249.0</ele><time>2026-04-27T11:50:41.001Z</time></trkpt><trkpt lat="38.007961111247916" lon="-4.052272248278335"><ele>251.0</ele><time>2026-04-27T11:50:42.001Z</time></trkpt><trkpt lat="38.008102580699024" lon="-4.052004221876372"><ele>253.0</ele><time>2026-04-27T11:50:43.001Z</time></trkpt><trkpt lat="38.00824681851186" lon="-4.051737156437685"><ele>247.5</ele><time>2026-04-27T11:50:44.001Z</time></trkpt><trkpt lat="38.008392218139136" lon="-4.051466661611625"><ele>242.0</ele><time>2026-04-27T11:50:45.001Z</time></trkpt><trkpt lat="38.00853514847811" lon="-4.0511964335534225"><ele>242.0</ele><time>2026-04-27T11:50:46.001Z</time></trkpt><trkpt lat="38.00868094895948" lon="-4.050926740896556"><ele>242.0</ele><time>2026-04-27T11:50:47.001Z</time></trkpt><trkpt lat="38.0088199290999" lon="-4.0506633625880575"><ele>243.0</ele><time>2026-04-27T11:50:48.001Z</time></trkpt><trkpt lat="38.008946950020345" lon="-4.050418872889915"><ele>244.0</ele><time>2026-04-27T11:50:49.001Z</time></trkpt><trkpt lat="38.00907327569841" lon="-4.050184113018621"><ele>239.5</ele><time>2026-04-27T11:50:50.001Z</time></trkpt><trkpt lat="38.00920661494729" lon="-4.0499381235989285"><ele>235.0</ele><time>2026-04-27T11:50:51Z</time></trkpt><trkpt lat="38.00933701747535" lon="-4.049696784096388"><ele>235.0</ele><time>2026-04-27T11:50:52Z</time></trkpt><trkpt lat="38.00946423285385" lon="-4.049461596464978"><ele>235.0</ele><time>2026-04-27T11:50:53Z</time></trkpt><trkpt lat="38.00959152932118" lon="-4.049227705015946"><ele>235.0</ele><time>2026-04-27T11:50:54Z</time></trkpt><trkpt lat="38.009719365348" lon="-4.048993197609818"><ele>233.66666666666666</ele><time>2026-04-27T11:50:55Z</time></trkpt><trkpt lat="38.009844546181505" lon="-4.048756312551409"><ele>232.33333333333331</ele><time>2026-04-27T11:50:56Z</time></trkpt><trkpt lat="38.0099688329314" lon="-4.048521935529546"><ele>231.0</ele><time>2026-04-27T11:50:57Z</time></trkpt><trkpt lat="38.01008951235058" lon="-4.048292472505425"><ele>231.0</ele><time>2026-04-27T11:50:58Z</time></trkpt><trkpt lat="38.010198231064116" lon="-4.048071480974152"><ele>231.0</ele><time>2026-04-27T11:50:59Z</time></trkpt><trkpt lat="38.0103017244708" lon="-4.0478612289546065"><ele>231.0</ele><time>2026-04-27T11:51:00Z</time></trkpt><trkpt lat="38.01040902599657" lon="-4.0476506549476"><ele>232.33333333333331</ele><time>2026-04-27T11:51:01Z</time></trkpt><trkpt lat="38.010517430245926" lon="-4.047438211181777"><ele>233.66666666666666</ele><time>2026-04-27T11:51:02Z</time></trkpt><trkpt lat="38.01062088844182" lon="-4.0472293555882555"><ele>235.0</ele><time>2026-04-27T11:51:03Z</time></trkpt><trkpt lat="38.01071920648071" lon="-4.047032157565586"><ele>235.0</ele><time>2026-04-27T11:51:04Z</time></trkpt><trkpt lat="38.01081366020245" lon="-4.046848014566079"><ele>235.0</ele><time>2026-04-27T11:51:05Z</time></trkpt><trkpt lat="38.01089902709944" lon="-4.046674211460956"><ele>235.0</ele><time>2026-04-27T11:51:06Z</time></trkpt><trkpt lat="38.01096115234693" lon="-4.046512839152708"><ele>231.75</ele><time>2026-04-27T11:51:07Z</time></trkpt><trkpt lat="38.01099094457855" lon="-4.0463530188121"><ele>228.5</ele><time>2026-04-27T11:51:08Z</time></trkpt><trkpt lat="38.01100852372683" lon="-4.046191695035632"><ele>225.25</ele><time>2026-04-27T11:51:09Z</time></trkpt><trkpt lat="38.01101264270522" lon="-4.046005903006682"><ele>222.0</ele><time>2026-04-27T11:51:10Z</time></trkpt><trkpt lat="38.01098514782843" lon="-4.04578347701502"><ele>222.0</ele><time>2026-04-27T11:51:11Z</time></trkpt><trkpt lat="38.01094805079269" lon="-4.04557133467324"><ele>222.0</ele><time>2026-04-27T11:51:12Z</time></trkpt><trkpt lat="38.010886293459315" lon="-4.045365267644479"><ele>222.0</ele><time>2026-04-27T11:51:13Z</time></trkpt><trkpt lat="38.010808913708026" lon="-4.045173874610529"><ele>222.0</ele><time>2026-04-27T11:51:14Z</time></trkpt><trkpt lat="38.01072295726615" lon="-4.0449922146044575"><ele>222.0</ele><time>2026-04-27T11:51:15Z</time></trkpt><trkpt lat="38.01062919428377" lon="-4.044819903503664"><ele>222.0</ele><time>2026-04-27T11:51:16Z</time></trkpt><trkpt lat="38.010523401443294" lon="-4.044635452407972"><ele>221.0</ele><time>2026-04-27T11:51:17Z</time></trkpt><trkpt lat="38.01041052932073" lon="-4.0444520117656895"><ele>220.0</ele><time>2026-04-27T11:51:18Z</time></trkpt><trkpt lat="38.01029129293859" lon="-4.044266557419543"><ele>219.0</ele><time>2026-04-27T11:51:19Z</time></trkpt><trkpt lat="38.010164550929126" lon="-4.044080389082575"><ele>220.0</ele><time>2026-04-27T11:51:20Z</time></trkpt><trkpt lat="38.01002901779617" lon="-4.043899441071578"><ele>221.0</ele><time>2026-04-27T11:51:21Z</time></trkpt><trkpt lat="38.00987562334247" lon="-4.043722244405177"><ele>222.0</ele><time>2026-04-27T11:51:22Z</time></trkpt><trkpt lat="38.0097135872165" lon="-4.043552109953189"><ele>222.0</ele><time>2026-04-27T11:51:23Z</time></trkpt><trkpt lat="38.00954714344581" lon="-4.043387011523586"><ele>222.0</ele><time>2026-04-27T11:51:24Z</time></trkpt><trkpt lat="38.00938623013344" lon="-4.043229282696461"><ele>222.0</ele><time>2026-04-27T11:51:25Z</time></trkpt><trkpt lat="38.009231471190745" lon="-4.0430732328097"><ele>222.33333333333331</ele><time>2026-04-27T11:51:26Z</time></trkpt><trkpt lat="38.0090773447276" lon="-4.042916876379552"><ele>222.66666666666666</ele><time>2026-04-27T11:51:27Z</time></trkpt><trkpt lat="38.008926580290236" lon="-4.042762461160074"><ele>223.0</ele><time>2026-04-27T11:51:28Z</time></trkpt><trkpt lat="38.00877786475706" lon="-4.042604405192"><ele>225.66666666666666</ele><time>2026-04-27T11:51:29Z</time></trkpt><trkpt lat="38.00863142828789" lon="-4.042437839170295"><ele>228.33333333333331</ele><time>2026-04-27T11:51:30Z</time></trkpt><trkpt lat="38.00848771302646" lon="-4.042261218515765"><ele>231.0</ele><time>2026-04-27T11:51:31Z</time></trkpt><trkpt lat="38.008349634460494" lon="-4.042073779282127"><ele>229.33333333333331</ele><time>2026-04-27T11:51:32Z</time></trkpt><trkpt lat="38.00821472969126" lon="-4.041870983516079"><ele>227.66666666666666</ele><time>2026-04-27T11:51:33Z</time></trkpt><trkpt lat="38.008089851492706" lon="-4.04165158452907"><ele>226.0</ele><time>2026-04-27T11:51:34Z</time></trkpt><trkpt lat="38.00797862250636" lon="-4.04141596709935"><ele>226.0</ele><time>2026-04-27T11:51:35Z</time></trkpt><trkpt lat="38.007868904496824" lon="-4.041180786902576"><ele>226.0</ele><time>2026-04-27T11:51:36Z</time></trkpt><trkpt lat="38.00778296003371" lon="-4.0408992831883195"><ele>226.5</ele><time>2026-04-27T11:51:37Z</time></trkpt><trkpt lat="38.007688136275256" lon="-4.040583888495024"><ele>227.0</ele><time>2026-04-27T11:51:38Z</time></trkpt><trkpt lat="38.00757568416132" lon="-4.040255315563363"><ele>226.0</ele><time>2026-04-27T11:51:39Z</time></trkpt><trkpt lat="38.00749032722976" lon="-4.039931727254571"><ele>225.0</ele><time>2026-04-27T11:51:40Z</time></trkpt><trkpt lat="38.00737595306022" lon="-4.03958159964789"><ele>225.0</ele><time>2026-04-27T11:51:41Z</time></trkpt><trkpt lat="38.007269527222064" lon="-4.039258401544598"><ele>225.0</ele><time>2026-04-27T11:51:42Z</time></trkpt><trkpt lat="38.007152250530126" lon="-4.038938214034775"><ele>225.5</ele><time>2026-04-27T11:51:43Z</time></trkpt><trkpt lat="38.00702805066694" lon="-4.038623509191203"><ele>226.0</ele><time>2026-04-27T11:51:44Z</time></trkpt><trkpt lat="38.00686388496576" lon="-4.038334382024932"><ele>227.0</ele><time>2026-04-27T11:51:45Z</time></trkpt><trkpt lat="38.006679916979806" lon="-4.038066675894179"><ele>228.0</ele><time>2026-04-27T11:51:46Z</time></trkpt><trkpt lat="38.00647360419287" lon="-4.037815505101981"><ele>228.5</ele><time>2026-04-27T11:51:47Z</time></trkpt><trkpt lat="38.00625632388266" lon="-4.037580321285388"><ele>229.0</ele><time>2026-04-27T11:51:48Z</time></trkpt><trkpt lat="38.006028032055916" lon="-4.037356299057684"><ele>230.0</ele><time>2026-04-27T11:51:49Z</time></trkpt><trkpt lat="38.0057953786849" lon="-4.037135088735632"><ele>231.0</ele><time>2026-04-27T11:51:50Z</time></trkpt><trkpt lat="38.005573450215536" lon="-4.036934335274025"><ele>231.0</ele><time>2026-04-27T11:51:51Z</time></trkpt><trkpt lat="38.00534277097691" lon="-4.036714870804959"><ele>231.0</ele><time>2026-04-27T11:51:52Z</time></trkpt><trkpt lat="38.00511614337558" lon="-4.036499244831589"><ele>232.0</ele><time>2026-04-27T11:51:53Z</time></trkpt><trkpt lat="38.00490249560076" lon="-4.036269875992636"><ele>233.0</ele><time>2026-04-27T11:51:54Z</time></trkpt><trkpt lat="38.00467968314322" lon="-4.036057666091514"><ele>233.0</ele><time>2026-04-27T11:51:55Z</time></trkpt><trkpt lat="38.00445270411716" lon="-4.03586547957221"><ele>233.0</ele><time>2026-04-27T11:51:56Z</time></trkpt><trkpt lat="38.00424095538526" lon="-4.035643259857467"><ele>234.0</ele><time>2026-04-27T11:51:57Z</time></trkpt><trkpt lat="38.00402584772126" lon="-4.035436670164059"><ele>235.0</ele><time>2026-04-27T11:51:58Z</time></trkpt><trkpt lat="38.003811629407764" lon="-4.035233856183671"><ele>235.0</ele><time>2026-04-27T11:51:59Z</time></trkpt><trkpt lat="38.00359345579222" lon="-4.03504804365122"><ele>235.0</ele><time>2026-04-27T11:52:00Z</time></trkpt><trkpt lat="38.00338427513011" lon="-4.034848596133662"><ele>238.0</ele><time>2026-04-27T11:52:01Z</time></trkpt><trkpt lat="38.003175436032585" lon="-4.034658055989834"><ele>241.0</ele><time>2026-04-27T11:52:02Z</time></trkpt><trkpt lat="38.002963751027394" lon="-4.034497371344646"><ele>241.0</ele><time>2026-04-27T11:52:03Z</time></trkpt><trkpt lat="38.00274778135167" lon="-4.0343689128218205"><ele>241.0</ele><time>2026-04-27T11:52:04Z</time></trkpt><trkpt lat="38.00252026066544" lon="-4.034259706479096"><ele>240.5</ele><time>2026-04-27T11:52:05Z</time></trkpt><trkpt lat="38.0022955575829" lon="-4.034150472649446"><ele>240.0</ele><time>2026-04-27T11:52:06Z</time></trkpt><trkpt lat="38.00205415987471" lon="-4.03408709563867"><ele>241.0</ele><time>2026-04-27T11:52:07Z</time></trkpt><trkpt lat="38.00180719545201" lon="-4.034021918285201"><ele>242.0</ele><time>2026-04-27T11:52:08Z</time></trkpt><trkpt lat="38.00156416878715" lon="-4.033940259559653"><ele>242.0</ele><time>2026-04-27T11:52:09Z</time></trkpt><trkpt lat="38.00133465246813" lon="-4.033827612041724"><ele>242.0</ele><time>2026-04-27T11:52:10Z</time></trkpt><trkpt lat="38.00111659001304" lon="-4.033686677016604"><ele>242.0</ele><time>2026-04-27T11:52:11Z</time></trkpt><trkpt lat="38.00091499295019" lon="-4.033519734549661"><ele>242.0</ele><time>2026-04-27T11:52:12Z</time></trkpt><trkpt lat="38.00072297980089" lon="-4.033316045425307"><ele>240.5</ele><time>2026-04-27T11:52:13Z</time></trkpt><trkpt lat="38.000562905528064" lon="-4.03306450344783"><ele>239.0</ele><time>2026-04-27T11:52:14Z</time></trkpt><trkpt lat="38.000400547599796" lon="-4.032814266869439"><ele>239.0</ele><time>2026-04-27T11:52:15Z</time></trkpt><trkpt lat="38.00025244296954" lon="-4.032536018308859"><ele>239.0</ele><time>2026-04-27T11:52:16Z</time></trkpt><trkpt lat="38.00011496285925" lon="-4.032244980664136"><ele>241.5</ele><time>2026-04-27T11:52:17Z</time></trkpt><trkpt lat="37.99998048917408" lon="-4.031948103970472"><ele>244.0</ele><time>2026-04-27T11:52:18Z</time></trkpt><trkpt lat="37.99983964817485" lon="-4.031657604455948"><ele>245.5</ele><time>2026-04-27T11:52:19Z</time></trkpt><trkpt lat="37.999696055846634" lon="-4.031371294195581"><ele>247.0</ele><time>2026-04-27T11:52:20Z</time></trkpt><trkpt lat="37.99955475320243" lon="-4.031086775454471"><ele>249.0</ele><time>2026-04-27T11:52:21Z</time></trkpt><trkpt lat="37.99941458680288" lon="-4.0308034961529735"><ele>251.0</ele><time>2026-04-27T11:52:22Z</time></trkpt><trkpt lat="37.99927655598149" lon="-4.030520591230906"><ele>249.5</ele><time>2026-04-27T11:52:23Z</time></trkpt><trkpt lat="37.99913438449582" lon="-4.030232880950568"><ele>248.0</ele><time>2026-04-27T11:52:24Z</time></trkpt><trkpt lat="37.99899306482484" lon="-4.029943400875166"><ele>251.0</ele><time>2026-04-27T11:52:25Z</time></trkpt><trkpt lat="37.9988505099899" lon="-4.029649777083656"><ele>254.0</ele><time>2026-04-27T11:52:26Z</time></trkpt><trkpt lat="37.998707870190465" lon="-4.029350465329904"><ele>257.5</ele><time>2026-04-27T11:52:27Z</time></trkpt><trkpt lat="37.99856883438661" lon="-4.0290462692724285"><ele>261.0</ele><time>2026-04-27T11:52:28Z</time></trkpt><trkpt lat="37.99844580552898" lon="-4.028742934719414"><ele>261.0</ele><time>2026-04-27T11:52:29.001Z</time></trkpt><trkpt lat="37.99834762017587" lon="-4.028425626054345"><ele>261.0</ele><time>2026-04-27T11:52:30.001Z</time></trkpt><trkpt lat="37.99827786377309" lon="-4.028098731714545"><ele>259.0</ele><time>2026-04-27T11:52:31.001Z</time></trkpt><trkpt lat="37.9982327937173" lon="-4.027765487147644"><ele>257.0</ele><time>2026-04-27T11:52:32.001Z</time></trkpt><trkpt lat="37.99820516767695" lon="-4.027439764737124"><ele>257.0</ele><time>2026-04-27T11:52:33.001Z</time></trkpt><trkpt lat="37.998184892788544" lon="-4.027133427682587"><ele>257.0</ele><time>2026-04-27T11:52:34.001Z</time></trkpt><trkpt lat="37.9981622954434" lon="-4.026837382044726"><ele>255.0</ele><time>2026-04-27T11:52:35.001Z</time></trkpt><trkpt lat="37.99812772300746" lon="-4.026541032403616"><ele>253.0</ele><time>2026-04-27T11:52:36.001Z</time></trkpt><trkpt lat="37.998075565693" lon="-4.026244016828593"><ele>253.0</ele><time>2026-04-27T11:52:37.001Z</time></trkpt><trkpt lat="37.99800800955818" lon="-4.0259427419180485"><ele>253.0</ele><time>2026-04-27T11:52:38.001Z</time></trkpt><trkpt lat="37.997927600694844" lon="-4.025647211157194"><ele>250.5</ele><time>2026-04-27T11:52:39.001Z</time></trkpt><trkpt lat="37.997836012163646" lon="-4.02535666554245"><ele>248.0</ele><time>2026-04-27T11:52:40.001Z</time></trkpt><trkpt lat="37.997733305094535" lon="-4.02507610355501"><ele>244.5</ele><time>2026-04-27T11:52:41.001Z</time></trkpt><trkpt lat="37.99761125161685" lon="-4.024798412844358"><ele>241.0</ele><time>2026-04-27T11:52:42.001Z</time></trkpt><trkpt lat="37.99747727919455" lon="-4.024530489107857"><ele>240.0</ele><time>2026-04-27T11:52:43.001Z</time></trkpt><trkpt lat="37.99737482507608" lon="-4.0242465686581435"><ele>239.0</ele><time>2026-04-27T11:52:44.001Z</time></trkpt><trkpt lat="37.99716516552687" lon="-4.024021391124736"><ele>237.0</ele><time>2026-04-27T11:52:45.001Z</time></trkpt><trkpt lat="37.996991649441085" lon="-4.023780249659197"><ele>235.0</ele><time>2026-04-27T11:52:46.001Z</time></trkpt><trkpt lat="37.996800184560726" lon="-4.023558304233853"><ele>237.5</ele><time>2026-04-27T11:52:47.001Z</time></trkpt><trkpt lat="37.996599419761345" lon="-4.023344529053893"><ele>240.0</ele><time>2026-04-27T11:52:48.001Z</time></trkpt><trkpt lat="37.9963866506504" lon="-4.023151063597128"><ele>240.5</ele><time>2026-04-27T11:52:49.001Z</time></trkpt><trkpt lat="37.99617440963118" lon="-4.022972875839683"><ele>241.0</ele><time>2026-04-27T11:52:50.001Z</time></trkpt><trkpt lat="37.99595577021549" lon="-4.022817119017552"><ele>244.0</ele><time>2026-04-27T11:52:51.001Z</time></trkpt><trkpt lat="37.995740854261925" lon="-4.022687904350077"><ele>247.0</ele><time>2026-04-27T11:52:52.001Z</time></trkpt><trkpt lat="37.99552968990694" lon="-4.022583503355406"><ele>247.0</ele><time>2026-04-27T11:52:53.001Z</time></trkpt><trkpt lat="37.99530918714814" lon="-4.022485357484053"><ele>247.0</ele><time>2026-04-27T11:52:54.001Z</time></trkpt><trkpt lat="37.995088528691795" lon="-4.022383778478234"><ele>246.0</ele><time>2026-04-27T11:52:55.001Z</time></trkpt><trkpt lat="37.99487370178737" lon="-4.022268852807024"><ele>245.0</ele><time>2026-04-27T11:52:56.001Z</time></trkpt><trkpt lat="37.99466471131744" lon="-4.02214631125895"><ele>245.0</ele><time>2026-04-27T11:52:57.001Z</time></trkpt><trkpt lat="37.99445422162827" lon="-4.022028404629206"><ele>245.0</ele><time>2026-04-27T11:52:58.001Z</time></trkpt><trkpt lat="37.99424641337196" lon="-4.0219157397436"><ele>245.0</ele><time>2026-04-27T11:52:59.001Z</time></trkpt><trkpt lat="37.994040894581865" lon="-4.021804653694317"><ele>245.0</ele><time>2026-04-27T11:53:00.001Z</time></trkpt><trkpt lat="37.99384043237143" lon="-4.021697725496336"><ele>245.0</ele><time>2026-04-27T11:53:01.001Z</time></trkpt><trkpt lat="37.99364063244713" lon="-4.021588991598312"><ele>245.0</ele><time>2026-04-27T11:53:02.001Z</time></trkpt><trkpt lat="37.99343877823711" lon="-4.0214745962750404"><ele>245.0</ele><time>2026-04-27T11:53:03.001Z</time></trkpt><trkpt lat="37.99323870885595" lon="-4.021334476726406"><ele>248.0</ele><time>2026-04-27T11:53:04.001Z</time></trkpt><trkpt lat="37.99304363796311" lon="-4.0211682764542305"><ele>251.0</ele><time>2026-04-27T11:53:05.001Z</time></trkpt><trkpt lat="37.992854982697885" lon="-4.020983640504602"><ele>249.5</ele><time>2026-04-27T11:53:06.001Z</time></trkpt><trkpt lat="37.99267522257058" lon="-4.020785483692996"><ele>248.0</ele><time>2026-04-27T11:53:07.001Z</time></trkpt><trkpt lat="37.99250133262894" lon="-4.020564900815251"><ele>251.0</ele><time>2026-04-27T11:53:08.001Z</time></trkpt><trkpt lat="37.99233728266501" lon="-4.020321809584101"><ele>254.0</ele><time>2026-04-27T11:53:09.001Z</time></trkpt><trkpt lat="37.9921850022131" lon="-4.020054084492913"><ele>252.0</ele><time>2026-04-27T11:53:10.001Z</time></trkpt><trkpt lat="37.9920410225528" lon="-4.019768339327523"><ele>250.0</ele><time>2026-04-27T11:53:11.001Z</time></trkpt><trkpt lat="37.99190642532997" lon="-4.019472424125586"><ele>250.0</ele><time>2026-04-27T11:53:12.001Z</time></trkpt><trkpt lat="37.99177505634122" lon="-4.019160680185343"><ele>250.0</ele><time>2026-04-27T11:53:13.001Z</time></trkpt><trkpt lat="37.99164028502298" lon="-4.018849742624382"><ele>253.5</ele><time>2026-04-27T11:53:14.001Z</time></trkpt><trkpt lat="37.99150000049597" lon="-4.018536935220886"><ele>257.0</ele><time>2026-04-27T11:53:15.001Z</time></trkpt><trkpt lat="37.99135862680605" lon="-4.018222864645297"><ele>260.5</ele><time>2026-04-27T11:53:16.001Z</time></trkpt><trkpt lat="37.99121497182149" lon="-4.017905069972727"><ele>264.0</ele><time>2026-04-27T11:53:17.001Z</time></trkpt><trkpt lat="37.99107122406351" lon="-4.017591680935522"><ele>268.0</ele><time>2026-04-27T11:53:18.001Z</time></trkpt><trkpt lat="37.99092404476929" lon="-4.017288226743874"><ele>272.0</ele><time>2026-04-27T11:53:19.001Z</time></trkpt><trkpt lat="37.99076526024652" lon="-4.017004123893709"><ele>273.0</ele><time>2026-04-27T11:53:20.001Z</time></trkpt><trkpt lat="37.990594415230305" lon="-4.016741359096036"><ele>274.0</ele><time>2026-04-27T11:53:21.001Z</time></trkpt><trkpt lat="37.99041139458458" lon="-4.016511579337389"><ele>277.0</ele><time>2026-04-27T11:53:22Z</time></trkpt><trkpt lat="37.990218343867646" lon="-4.0163073822113375"><ele>280.0</ele><time>2026-04-27T11:53:23Z</time></trkpt><trkpt lat="37.99002041063851" lon="-4.016125009665595"><ele>284.0</ele><time>2026-04-27T11:53:24Z</time></trkpt><trkpt lat="37.989810899901705" lon="-4.01595745909722"><ele>288.0</ele><time>2026-04-27T11:53:25Z</time></trkpt><trkpt lat="37.989592861551955" lon="-4.015813126839419"><ele>288.0</ele><time>2026-04-27T11:53:26Z</time></trkpt><trkpt lat="37.98936421054595" lon="-4.015687653425689"><ele>288.0</ele><time>2026-04-27T11:53:27Z</time></trkpt><trkpt lat="37.989126980997916" lon="-4.015585867307994"><ele>288.0</ele><time>2026-04-27T11:53:28Z</time></trkpt><trkpt lat="37.98888427820444" lon="-4.015494589671579"><ele>288.0</ele><time>2026-04-27T11:53:29Z</time></trkpt><trkpt lat="37.98864015671746" lon="-4.01541335688206"><ele>288.0</ele><time>2026-04-27T11:53:30Z</time></trkpt><trkpt lat="37.988392413906986" lon="-4.015326729054527"><ele>288.0</ele><time>2026-04-27T11:53:31Z</time></trkpt><trkpt lat="37.9881456058619" lon="-4.015234962111122"><ele>289.0</ele><time>2026-04-27T11:53:32Z</time></trkpt><trkpt lat="37.987894872781595" lon="-4.015150586358638"><ele>290.0</ele><time>2026-04-27T11:53:33Z</time></trkpt><trkpt lat="37.98763971794346" lon="-4.015064053802319"><ele>288.0</ele><time>2026-04-27T11:53:34Z</time></trkpt><trkpt lat="37.98738166241015" lon="-4.014985082205478"><ele>286.0</ele><time>2026-04-27T11:53:35Z</time></trkpt><trkpt lat="37.987123818000434" lon="-4.014902444885472"><ele>286.0</ele><time>2026-04-27T11:53:36Z</time></trkpt><trkpt lat="37.98686005359634" lon="-4.014818863148807"><ele>286.0</ele><time>2026-04-27T11:53:37Z</time></trkpt><trkpt lat="37.98659459318747" lon="-4.014731763604815"><ele>287.5</ele><time>2026-04-27T11:53:38Z</time></trkpt><trkpt lat="37.9863252091406" lon="-4.0146408668362525"><ele>289.0</ele><time>2026-04-27T11:53:39Z</time></trkpt><trkpt lat="37.986054695428294" lon="-4.014551127523291"><ele>288.0</ele><time>2026-04-27T11:53:40Z</time></trkpt><trkpt lat="37.985782010197475" lon="-4.0144623073844174"><ele>287.0</ele><time>2026-04-27T11:53:41Z</time></trkpt><trkpt lat="37.985508937725406" lon="-4.014374653406659"><ele>287.0</ele><time>2026-04-27T11:53:42Z</time></trkpt><trkpt lat="37.98523301509968" lon="-4.014287628612041"><ele>287.0</ele><time>2026-04-27T11:53:43Z</time></trkpt><trkpt lat="37.98495787716432" lon="-4.014199939880567"><ele>287.0</ele><time>2026-04-27T11:53:44Z</time></trkpt><trkpt lat="37.98468547625466" lon="-4.014111296175929"><ele>287.0</ele><time>2026-04-27T11:53:45Z</time></trkpt><trkpt lat="37.98441141403169" lon="-4.0140206291643326"><ele>291.5</ele><time>2026-04-27T11:53:46Z</time></trkpt><trkpt lat="37.98413600041156" lon="-4.0139311631016845"><ele>296.0</ele><time>2026-04-27T11:53:47Z</time></trkpt><trkpt lat="37.983867250135546" lon="-4.0138360766554895"><ele>296.0</ele><time>2026-04-27T11:53:48Z</time></trkpt><trkpt lat="37.983604329846834" lon="-4.013726890161397"><ele>296.0</ele><time>2026-04-27T11:53:49Z</time></trkpt><trkpt lat="37.98334442770209" lon="-4.013599951204896"><ele>296.0</ele><time>2026-04-27T11:53:50Z</time></trkpt><trkpt lat="37.9830905093865" lon="-4.013447391919092"><ele>296.0</ele><time>2026-04-27T11:53:51Z</time></trkpt><trkpt lat="37.98284272592137" lon="-4.013277147270924"><ele>296.0</ele><time>2026-04-27T11:53:52Z</time></trkpt><trkpt lat="37.98259560250905" lon="-4.013098683203541"><ele>296.0</ele><time>2026-04-27T11:53:53Z</time></trkpt><trkpt lat="37.98235143284576" lon="-4.012915312932414"><ele>301.0</ele><time>2026-04-27T11:53:54Z</time></trkpt><trkpt lat="37.982109200250726" lon="-4.012754226093701"><ele>306.0</ele><time>2026-04-27T11:53:55Z</time></trkpt><trkpt lat="37.98189471360168" lon="-4.012605461948503"><ele>304.5</ele><time>2026-04-27T11:53:56Z</time></trkpt><trkpt lat="37.98169593324128" lon="-4.012446352438575"><ele>303.0</ele><time>2026-04-27T11:53:57Z</time></trkpt><trkpt lat="37.98151155215208" lon="-4.012267068198827"><ele>309.0</ele><time>2026-04-27T11:53:58Z</time></trkpt><trkpt lat="37.981342314756496" lon="-4.012058220494751"><ele>315.0</ele><time>2026-04-27T11:53:59Z</time></trkpt><trkpt lat="37.98119154922198" lon="-4.011822447551126"><ele>313.0</ele><time>2026-04-27T11:54:00Z</time></trkpt><trkpt lat="37.98104935939532" lon="-4.011566911131056"><ele>311.0</ele><time>2026-04-27T11:54:01Z</time></trkpt><trkpt lat="37.98093350024127" lon="-4.0112871494424835"><ele>317.0</ele><time>2026-04-27T11:54:02Z</time></trkpt><trkpt lat="37.980841841862635" lon="-4.010989327256922"><ele>323.0</ele><time>2026-04-27T11:54:03Z</time></trkpt><trkpt lat="37.98077895718712" lon="-4.010676601951089"><ele>323.0</ele><time>2026-04-27T11:54:04Z</time></trkpt><trkpt lat="37.98073890652864" lon="-4.0103481249093385"><ele>323.0</ele><time>2026-04-27T11:54:05Z</time></trkpt><trkpt lat="37.980717324597606" lon="-4.010006944922869"><ele>326.0</ele><time>2026-04-27T11:54:06Z</time></trkpt><trkpt lat="37.980704186664084" lon="-4.009665565530341"><ele>329.0</ele><time>2026-04-27T11:54:07Z</time></trkpt><trkpt lat="37.980690786589015" lon="-4.009324686795428"><ele>332.5</ele><time>2026-04-27T11:54:08Z</time></trkpt><trkpt lat="37.98067262510683" lon="-4.008988442898624"><ele>336.0</ele><time>2026-04-27T11:54:09Z</time></trkpt><trkpt lat="37.980646952673695" lon="-4.008665010493561"><ele>336.0</ele><time>2026-04-27T11:54:10Z</time></trkpt><trkpt lat="37.980608937713036" lon="-4.0083511256002815"><ele>336.0</ele><time>2026-04-27T11:54:11Z</time></trkpt><trkpt lat="37.98054413158475" lon="-4.008063026173445"><ele>338.0</ele><time>2026-04-27T11:54:12Z</time></trkpt><trkpt lat="37.98045035224071" lon="-4.0077925861629735"><ele>340.0</ele><time>2026-04-27T11:54:13Z</time></trkpt><trkpt lat="37.980330793577394" lon="-4.007541620094125"><ele>338.0</ele><time>2026-04-27T11:54:14Z</time></trkpt><trkpt lat="37.98018732747982" lon="-4.007305776331866"><ele>336.0</ele><time>2026-04-27T11:54:15Z</time></trkpt><trkpt lat="37.980023921505286" lon="-4.007090913997434"><ele>340.5</ele><time>2026-04-27T11:54:16Z</time></trkpt><trkpt lat="37.97983570207122" lon="-4.006897438300138"><ele>345.0</ele><time>2026-04-27T11:54:17Z</time></trkpt><trkpt lat="37.97963328297602" lon="-4.006747954835357"><ele>342.5</ele><time>2026-04-27T11:54:18Z</time></trkpt><trkpt lat="37.97940959442516" lon="-4.006589336501019"><ele>340.0</ele><time>2026-04-27T11:54:19Z</time></trkpt><trkpt lat="37.97919330748847" lon="-4.006455241534744"><ele>344.0</ele><time>2026-04-27T11:54:20Z</time></trkpt><trkpt lat="37.978976036123896" lon="-4.006313881561339"><ele>348.0</ele><time>2026-04-27T11:54:21Z</time></trkpt><trkpt lat="37.978760997708086" lon="-4.006151055483881"><ele>348.0</ele><time>2026-04-27T11:54:22Z</time></trkpt><trkpt lat="37.978554621879134" lon="-4.0059686538017445"><ele>348.0</ele><time>2026-04-27T11:54:23Z</time></trkpt><trkpt lat="37.97835327457519" lon="-4.00575867053178"><ele>353.0</ele><time>2026-04-27T11:54:24Z</time></trkpt><trkpt lat="37.97817635363458" lon="-4.005511601060131"><ele>358.0</ele><time>2026-04-27T11:54:25Z</time></trkpt><trkpt lat="37.97802454241308" lon="-4.005241466149928"><ele>356.0</ele><time>2026-04-27T11:54:26Z</time></trkpt><trkpt lat="37.97789268383806" lon="-4.00496368232188"><ele>354.0</ele><time>2026-04-27T11:54:27Z</time></trkpt><trkpt lat="37.97777076174179" lon="-4.004692726515772"><ele>354.0</ele><time>2026-04-27T11:54:28Z</time></trkpt><trkpt lat="37.97765735110907" lon="-4.0044378028004255"><ele>354.0</ele><time>2026-04-27T11:54:29Z</time></trkpt><trkpt lat="37.97754494807049" lon="-4.004200397275271"><ele>354.0</ele><time>2026-04-27T11:54:30Z</time></trkpt><trkpt lat="37.977423049453506" lon="-4.003979546217221"><ele>356.0</ele><time>2026-04-27T11:54:31Z</time></trkpt><trkpt lat="37.977276851297496" lon="-4.003777718285408"><ele>358.0</ele><time>2026-04-27T11:54:32Z</time></trkpt><trkpt lat="37.977130076106626" lon="-4.00360743377346"><ele>360.0</ele><time>2026-04-27T11:54:33Z</time></trkpt><trkpt lat="37.976989904258964" lon="-4.003454441894641"><ele>359.3333333333333</ele><time>2026-04-27T11:54:34Z</time></trkpt><trkpt lat="37.976853030592345" lon="-4.003324699311842"><ele>358.66666666666663</ele><time>2026-04-27T11:54:35.001Z</time></trkpt><trkpt lat="37.976720590400404" lon="-4.0032088460421145"><ele>358.0</ele><time>2026-04-27T11:54:36.001Z</time></trkpt><trkpt lat="37.97659792752699" lon="-4.003111170895454"><ele>358.0</ele><time>2026-04-27T11:54:37.001Z</time></trkpt><trkpt lat="37.97647139875108" lon="-4.003046223574687"><ele>358.0</ele><time>2026-04-27T11:54:38.001Z</time></trkpt><trkpt lat="37.976357756474286" lon="-4.002988803747966"><ele>358.0</ele><time>2026-04-27T11:54:39.001Z</time></trkpt><trkpt lat="37.976269720162755" lon="-4.002926866913153"><ele>358.0</ele><time>2026-04-27T11:54:40.001Z</time></trkpt><trkpt lat="37.976192286122554" lon="-4.0028991446915825"><ele>358.0</ele><time>2026-04-27T11:54:41.001Z</time></trkpt><trkpt lat="37.97611420569747" lon="-4.002876054272109"><ele>358.0</ele><time>2026-04-27T11:54:43.001Z</time></trkpt><trkpt lat="37.97603555740663" lon="-4.0028532826598715"><ele>358.0</ele><time>2026-04-27T11:54:45.001Z</time></trkpt><trkpt lat="37.975949925750015" lon="-4.002847815425684"><ele>358.0</ele><time>2026-04-27T11:54:47.001Z</time></trkpt><trkpt lat="37.97592413833512" lon="-4.002614005277664"><ele>358.0</ele><time>2026-04-27T11:54:49.001Z</time></trkpt><trkpt lat="37.9759088264194" lon="-4.002500985360799"><ele>358.0</ele><time>2026-04-27T11:54:50.001Z</time></trkpt><trkpt lat="37.97588771938745" lon="-4.002359224479975"><ele>359.66666666666663</ele><time>2026-04-27T11:54:51.001Z</time></trkpt><trkpt lat="37.97585800010286" lon="-4.002198861010526"><ele>361.3333333333333</ele><time>2026-04-27T11:54:52.001Z</time></trkpt><trkpt lat="37.97581658666514" lon="-4.00202222968745"><ele>363.0</ele><time>2026-04-27T11:54:53.001Z</time></trkpt><trkpt lat="37.97575586045178" lon="-4.001800132486682"><ele>362.6666666666667</ele><time>2026-04-27T11:54:54.001Z</time></trkpt><trkpt lat="37.97569580674703" lon="-4.001543668288414"><ele>362.33333333333337</ele><time>2026-04-27T11:54:55.001Z</time></trkpt><trkpt lat="37.97563961306804" lon="-4.001279170096288"><ele>362.0</ele><time>2026-04-27T11:54:56.001Z</time></trkpt><trkpt lat="37.9755626999919" lon="-4.00101390311851"><ele>363.0</ele><time>2026-04-27T11:54:57.001Z</time></trkpt><trkpt lat="37.9754948031196" lon="-4.00073017647906"><ele>364.0</ele><time>2026-04-27T11:54:58.001Z</time></trkpt><trkpt lat="37.97543828206271" lon="-4.0004423989511535"><ele>364.0</ele><time>2026-04-27T11:54:59.001Z</time></trkpt><trkpt lat="37.975367962406956" lon="-4.0001792082131225"><ele>364.0</ele><time>2026-04-27T11:55:00.001Z</time></trkpt><trkpt lat="37.9753023708227" lon="-3.999928692092986"><ele>364.0</ele><time>2026-04-27T11:55:01.001Z</time></trkpt><trkpt lat="37.97524726877215" lon="-3.999702931207258"><ele>364.0</ele><time>2026-04-27T11:55:02.001Z</time></trkpt><trkpt lat="37.975196021087385" lon="-3.999492408247319"><ele>364.0</ele><time>2026-04-27T11:55:03.001Z</time></trkpt><trkpt lat="37.97514686621471" lon="-3.9992679842231724"><ele>364.0</ele><time>2026-04-27T11:55:04.001Z</time></trkpt><trkpt lat="37.975102442736194" lon="-3.9990407997088644"><ele>365.3333333333333</ele><time>2026-04-27T11:55:05.001Z</time></trkpt><trkpt lat="37.97505131782239" lon="-3.998819420330259"><ele>366.6666666666667</ele><time>2026-04-27T11:55:06.001Z</time></trkpt><trkpt lat="37.97504331731015" lon="-3.9985784295734814"><ele>368.0</ele><time>2026-04-27T11:55:07.001Z</time></trkpt><trkpt lat="37.97502666797557" lon="-3.998351249779185"><ele>371.6666666666667</ele><time>2026-04-27T11:55:08.001Z</time></trkpt><trkpt lat="37.97501454781434" lon="-3.9981079715995804"><ele>375.3333333333333</ele><time>2026-04-27T11:55:09.001Z</time></trkpt><trkpt lat="37.97501212117976" lon="-3.9978588295073374"><ele>379.0</ele><time>2026-04-27T11:55:10.001Z</time></trkpt><trkpt lat="37.97502087174294" lon="-3.9975944963543943"><ele>374.3333333333333</ele><time>2026-04-27T11:55:11.001Z</time></trkpt><trkpt lat="37.97503646800824" lon="-3.9973192351311315"><ele>369.6666666666667</ele><time>2026-04-27T11:55:12.001Z</time></trkpt><trkpt lat="37.975059836906006" lon="-3.997032585502716"><ele>365.0</ele><time>2026-04-27T11:55:13Z</time></trkpt><trkpt lat="37.97508919468663" lon="-3.9967684747048295"><ele>362.0</ele><time>2026-04-27T11:55:14Z</time></trkpt><trkpt lat="37.97512880156042" lon="-3.9965172588124735"><ele>359.0</ele><time>2026-04-27T11:55:15Z</time></trkpt><trkpt lat="37.97517531589515" lon="-3.9962629597634427"><ele>356.0</ele><time>2026-04-27T11:55:16Z</time></trkpt><trkpt lat="37.975230420185646" lon="-3.9960088061623424"><ele>356.33333333333337</ele><time>2026-04-27T11:55:17Z</time></trkpt><trkpt lat="37.97528820898552" lon="-3.995761554475264"><ele>356.6666666666667</ele><time>2026-04-27T11:55:18Z</time></trkpt><trkpt lat="37.97534104749788" lon="-3.995532878272058"><ele>357.0</ele><time>2026-04-27T11:55:19Z</time></trkpt><trkpt lat="37.97538084296714" lon="-3.9953056487672804"><ele>357.0</ele><time>2026-04-27T11:55:20Z</time></trkpt><trkpt lat="37.975402278605586" lon="-3.995070757758115"><ele>357.0</ele><time>2026-04-27T11:55:21Z</time></trkpt><trkpt lat="37.975401039119006" lon="-3.9948460307885063"><ele>357.0</ele><time>2026-04-27T11:55:22Z</time></trkpt><trkpt lat="37.97538768954486" lon="-3.9946188581491393"><ele>358.3333333333333</ele><time>2026-04-27T11:55:23Z</time></trkpt><trkpt lat="37.97535885800025" lon="-3.9943933008255796"><ele>359.66666666666663</ele><time>2026-04-27T11:55:24Z</time></trkpt><trkpt lat="37.97532029534908" lon="-3.994166226491234"><ele>361.0</ele><time>2026-04-27T11:55:25Z</time></trkpt><trkpt lat="37.975273948760716" lon="-3.9939638017535013"><ele>361.0</ele><time>2026-04-27T11:55:26Z</time></trkpt><trkpt lat="37.97523292489283" lon="-3.993766582925876"><ele>361.0</ele><time>2026-04-27T11:55:27Z</time></trkpt><trkpt lat="37.975198165642816" lon="-3.9935732695210286"><ele>361.0</ele><time>2026-04-27T11:55:28Z</time></trkpt><trkpt lat="37.97516850948091" lon="-3.993388659778588"><ele>360.5</ele><time>2026-04-27T11:55:29Z</time></trkpt><trkpt lat="37.975133625408894" lon="-3.993212229257057"><ele>360.0</ele><time>2026-04-27T11:55:30Z</time></trkpt><trkpt lat="37.97507594087916" lon="-3.9930646295687366"><ele>359.5</ele><time>2026-04-27T11:55:31Z</time></trkpt><trkpt lat="37.974985529637344" lon="-3.992943730733714"><ele>359.0</ele><time>2026-04-27T11:55:32Z</time></trkpt><trkpt lat="37.9748629416113" lon="-3.992869468214242"><ele>359.0</ele><time>2026-04-27T11:55:33Z</time></trkpt><trkpt lat="37.974722362884684" lon="-3.9928267614832986"><ele>359.0</ele><time>2026-04-27T11:55:34Z</time></trkpt><trkpt lat="37.974586442326846" lon="-3.992797387953133"><ele>359.0</ele><time>2026-04-27T11:55:35Z</time></trkpt><trkpt lat="37.97445897002135" lon="-3.992766991356016"><ele>359.0</ele><time>2026-04-27T11:55:36Z</time></trkpt><trkpt lat="37.97433195305585" lon="-3.992728867801433"><ele>359.0</ele><time>2026-04-27T11:55:37Z</time></trkpt><trkpt lat="37.97420465947246" lon="-3.992685204838927"><ele>359.0</ele><time>2026-04-27T11:55:38Z</time></trkpt><trkpt lat="37.97407412559927" lon="-3.992638964616509"><ele>359.0</ele><time>2026-04-27T11:55:39Z</time></trkpt><trkpt lat="37.9739361036189" lon="-3.992584786667918"><ele>359.0</ele><time>2026-04-27T11:55:40Z</time></trkpt><trkpt lat="37.973803731432234" lon="-3.9925136172149736"><ele>356.75</ele><time>2026-04-27T11:55:41Z</time></trkpt><trkpt lat="37.973686963888134" lon="-3.992416678787602"><ele>354.5</ele><time>2026-04-27T11:55:42Z</time></trkpt><trkpt lat="37.973577024786614" lon="-3.9923140456654553"><ele>352.25</ele><time>2026-04-27T11:55:43Z</time></trkpt><trkpt lat="37.97348628335729" lon="-3.99220630061065"><ele>350.0</ele><time>2026-04-27T11:55:44Z</time></trkpt><trkpt lat="37.973403363308" lon="-3.992120160350288"><ele>350.5</ele><time>2026-04-27T11:55:45Z</time></trkpt><trkpt lat="37.97332938812585" lon="-3.992060557933026"><ele>351.0</ele><time>2026-04-27T11:55:46Z</time></trkpt><trkpt lat="37.973245960366896" lon="-3.9919759041273006"><ele>351.5</ele><time>2026-04-27T11:55:48Z</time></trkpt><trkpt lat="37.973204183757986" lon="-3.9918967806368397"><ele>352.0</ele><time>2026-04-27T11:55:52Z</time></trkpt><trkpt lat="37.973137703286525" lon="-3.9918304925215073"><ele>352.5</ele><time>2026-04-27T11:59:58Z</time></trkpt><trkpt lat="37.97318813104366" lon="-3.991881488263337"><ele>353.0</ele><time>2026-04-27T12:00:24.999Z</time></trkpt><trkpt lat="37.97314847719967" lon="-3.99203223478107"><ele>353.0</ele><time>2026-04-27T12:00:29.999Z</time></trkpt><trkpt lat="37.97318314175601" lon="-3.9921060291779757"><ele>353.0</ele><time>2026-04-27T12:00:35.999Z</time></trkpt><trkpt lat="37.97322616845837" lon="-3.9921648675700685"><ele>353.0</ele><time>2026-04-27T12:00:40.999Z</time></trkpt><trkpt lat="37.973258660117885" lon="-3.9922378830399383"><ele>353.0</ele><time>2026-04-27T12:00:46.999Z</time></trkpt><trkpt lat="37.97321870457314" lon="-3.9921741756185343"><ele>353.0</ele><time>2026-04-27T12:01:15.999Z</time></trkpt><trkpt lat="37.9731832381185" lon="-3.992101568703311"><ele>353.0</ele><time>2026-04-27T12:01:22.999Z</time></trkpt><trkpt lat="37.973161021870176" lon="-3.992020906949529"><ele>353.0</ele><time>2026-04-27T12:01:30.999Z</time></trkpt><trkpt lat="37.973128263689226" lon="-3.991950467523034"><ele>353.0</ele><time>2026-04-27T12:01:42.999Z</time></trkpt><trkpt lat="37.9730838310016" lon="-3.9918910336652016"><ele>353.0</ele><time>2026-04-27T12:14:34Z</time></trkpt><trkpt lat="37.97305352194795" lon="-3.9919744399305523"><ele>353.0</ele><time>2026-04-27T12:38:23Z</time></trkpt><trkpt lat="37.972990590555526" lon="-3.992033085828849"><ele>353.0</ele><time>2026-04-27T12:38:28Z</time></trkpt><trkpt lat="37.97302371250644" lon="-3.991959271206919"><ele>353.0</ele><time>2026-04-27T12:38:56Z</time></trkpt><trkpt lat="37.97307096385185" lon="-3.991891311429044"><ele>353.0</ele><time>2026-04-27T12:39:06Z</time></trkpt><trkpt lat="37.97303741491101" lon="-3.9918218839249486"><ele>353.0</ele><time>2026-04-27T12:51:41Z</time></trkpt><trkpt lat="37.972954799880306" lon="-3.99177228862438"><ele>353.0</ele><time>2026-04-27T12:51:43Z</time></trkpt><trkpt lat="37.97287621318431" lon="-3.9917058395416154"><ele>353.0</ele><time>2026-04-27T12:51:45Z</time></trkpt><trkpt lat="37.972925735811046" lon="-3.991622854749313"><ele>353.0</ele><time>2026-04-27T12:51:48Z</time></trkpt><trkpt lat="37.972911460205694" lon="-3.9914959066440394"><ele>353.0</ele><time>2026-04-27T12:52:05Z</time></trkpt><trkpt lat="37.97293517932958" lon="-3.991420726178645"><ele>353.0</ele><time>2026-04-27T12:52:06Z</time></trkpt><trkpt lat="37.97295389119578" lon="-3.991340301183043"><ele>353.0</ele><time>2026-04-27T12:52:07Z</time></trkpt><trkpt lat="37.97296944859937" lon="-3.9912469013321337"><ele>353.0</ele><time>2026-04-27T12:52:08Z</time></trkpt><trkpt lat="37.97296605132198" lon="-3.991118875848125"><ele>353.0</ele><time>2026-04-27T12:52:09Z</time></trkpt><trkpt lat="37.972953425392795" lon="-3.991001424389391"><ele>353.0</ele><time>2026-04-27T12:52:10Z</time></trkpt><trkpt lat="37.972933465606296" lon="-3.9908868422409673"><ele>353.0</ele><time>2026-04-27T12:52:11Z</time></trkpt><trkpt lat="37.97291310771255" lon="-3.9907618885869396"><ele>353.0</ele><time>2026-04-27T12:52:12Z</time></trkpt><trkpt lat="37.972891758338726" lon="-3.990637983721774"><ele>353.83333333333337</ele><time>2026-04-27T12:52:13Z</time></trkpt><trkpt lat="37.972872390212544" lon="-3.990518185844983"><ele>354.6666666666667</ele><time>2026-04-27T12:52:14Z</time></trkpt><trkpt lat="37.97285345394046" lon="-3.9904110450575367"><ele>355.5</ele><time>2026-04-27T12:52:15Z</time></trkpt><trkpt lat="37.972834726482525" lon="-3.990305711430055"><ele>356.3333333333333</ele><time>2026-04-27T12:52:16Z</time></trkpt><trkpt lat="37.972806523659315" lon="-3.990202240598611"><ele>357.16666666666663</ele><time>2026-04-27T12:52:17Z</time></trkpt><trkpt lat="37.972766615081916" lon="-3.9901038962836464"><ele>358.0</ele><time>2026-04-27T12:52:18Z</time></trkpt><trkpt lat="37.972710642580324" lon="-3.990012481523145"><ele>358.59999999999997</ele><time>2026-04-27T12:52:19Z</time></trkpt><trkpt lat="37.97265116397812" lon="-3.989928616411256"><ele>359.2</ele><time>2026-04-27T12:52:20Z</time></trkpt><trkpt lat="37.972579968156076" lon="-3.9898339485960745"><ele>359.8</ele><time>2026-04-27T12:52:21Z</time></trkpt><trkpt lat="37.972506352617486" lon="-3.9897452205418236"><ele>360.4</ele><time>2026-04-27T12:52:22Z</time></trkpt><trkpt lat="37.97244378645393" lon="-3.989671508835135"><ele>361.0</ele><time>2026-04-27T12:52:23Z</time></trkpt><trkpt lat="37.972390003691515" lon="-3.9895987398270822"><ele>361.6</ele><time>2026-04-27T12:52:24Z</time></trkpt><trkpt lat="37.972332761374155" lon="-3.989524418390699"><ele>362.20000000000005</ele><time>2026-04-27T12:52:25Z</time></trkpt><trkpt lat="37.972244775369674" lon="-3.9894230237258"><ele>362.79999999999995</ele><time>2026-04-27T12:52:26Z</time></trkpt><trkpt lat="37.97215204568293" lon="-3.989306801111022"><ele>363.4</ele><time>2026-04-27T12:52:27Z</time></trkpt><trkpt lat="37.9720778519255" lon="-3.98920785243834"><ele>364.0</ele><time>2026-04-27T12:52:28Z</time></trkpt><trkpt lat="37.97200445753655" lon="-3.989124092162804"><ele>364.2</ele><time>2026-04-27T12:52:29Z</time></trkpt><trkpt lat="37.971939590849644" lon="-3.9890428644483684"><ele>364.4</ele><time>2026-04-27T12:52:30Z</time></trkpt><trkpt lat="37.97187854875404" lon="-3.988973192459842"><ele>364.6</ele><time>2026-04-27T12:52:31Z</time></trkpt><trkpt lat="37.97181225803554" lon="-3.9889061381543507"><ele>364.8</ele><time>2026-04-27T12:52:32Z</time></trkpt><trkpt lat="37.97173931724552" lon="-3.9888217638274224"><ele>365.0</ele><time>2026-04-27T12:52:33Z</time></trkpt><trkpt lat="37.971659228948425" lon="-3.9887458072962563"><ele>365.75</ele><time>2026-04-27T12:52:34Z</time></trkpt><trkpt lat="37.97161891899123" lon="-3.9886195380536176"><ele>366.5</ele><time>2026-04-27T12:52:35Z</time></trkpt><trkpt lat="37.97154868572373" lon="-3.9884992739403864"><ele>367.25</ele><time>2026-04-27T12:52:36Z</time></trkpt><trkpt lat="37.97148720719333" lon="-3.988359889252207"><ele>368.0</ele><time>2026-04-27T12:52:37Z</time></trkpt><trkpt lat="37.971431009575134" lon="-3.988216212935306"><ele>368.0</ele><time>2026-04-27T12:52:38Z</time></trkpt><trkpt lat="37.97139578583481" lon="-3.9880791700677403"><ele>368.0</ele><time>2026-04-27T12:52:39Z</time></trkpt><trkpt lat="37.971370507656964" lon="-3.987946107071611"><ele>368.0</ele><time>2026-04-27T12:52:40Z</time></trkpt><trkpt lat="37.97135427282454" lon="-3.9878099851983246"><ele>368.0</ele><time>2026-04-27T12:52:41Z</time></trkpt><trkpt lat="37.97136025071531" lon="-3.9876751014428002"><ele>368.0</ele><time>2026-04-27T12:52:42Z</time></trkpt><trkpt lat="37.97136567562388" lon="-3.9875462273927758"><ele>368.59999999999997</ele><time>2026-04-27T12:52:43Z</time></trkpt><trkpt lat="37.97137237858526" lon="-3.9874299441202963"><ele>369.2</ele><time>2026-04-27T12:52:44Z</time></trkpt><trkpt lat="37.971376327934436" lon="-3.9873151982908683"><ele>369.8</ele><time>2026-04-27T12:52:45Z</time></trkpt><trkpt lat="37.971373820966555" lon="-3.987171285044061"><ele>370.4</ele><time>2026-04-27T12:52:46Z</time></trkpt><trkpt lat="37.97137203870979" lon="-3.9870337226846684"><ele>371.0</ele><time>2026-04-27T12:52:47Z</time></trkpt><trkpt lat="37.97136686708058" lon="-3.986923435866201"><ele>371.0</ele><time>2026-04-27T12:52:48Z</time></trkpt><trkpt lat="37.9713665870964" lon="-3.9868104042352974"><ele>371.0</ele><time>2026-04-27T12:52:49Z</time></trkpt><trkpt lat="37.97136146667666" lon="-3.9866890318631287"><ele>371.0</ele><time>2026-04-27T12:52:50Z</time></trkpt><trkpt lat="37.97135137749381" lon="-3.9865768190256667"><ele>371.0</ele><time>2026-04-27T12:52:51Z</time></trkpt><trkpt lat="37.971343265911855" lon="-3.986491037972204"><ele>371.0</ele><time>2026-04-27T12:52:52Z</time></trkpt><trkpt lat="37.9713366777658" lon="-3.986404834128248"><ele>371.0</ele><time>2026-04-27T12:52:53Z</time></trkpt><trkpt lat="37.97133133188414" lon="-3.9863046802423177"><ele>371.33333333333337</ele><time>2026-04-27T12:52:54Z</time></trkpt><trkpt lat="37.971345772635296" lon="-3.986215327492919"><ele>371.6666666666667</ele><time>2026-04-27T12:52:55Z</time></trkpt><trkpt lat="37.97139318645725" lon="-3.9861389690777997"><ele>372.0</ele><time>2026-04-27T12:52:56Z</time></trkpt><trkpt lat="37.97146085360725" lon="-3.986068208841887"><ele>372.3333333333333</ele><time>2026-04-27T12:52:57Z</time></trkpt><trkpt lat="37.97149384300929" lon="-3.985977582596783"><ele>372.66666666666663</ele><time>2026-04-27T12:52:58Z</time></trkpt><trkpt lat="37.97152095007002" lon="-3.985862359250902"><ele>373.0</ele><time>2026-04-27T12:52:59Z</time></trkpt><trkpt lat="37.971556869299484" lon="-3.985710741469857"><ele>373.0</ele><time>2026-04-27T12:53:00Z</time></trkpt><trkpt lat="37.97157440706205" lon="-3.9855936498011006"><ele>373.0</ele><time>2026-04-27T12:53:01Z</time></trkpt><trkpt lat="37.97158723432084" lon="-3.9855132261364474"><ele>373.0</ele><time>2026-04-27T12:53:02Z</time></trkpt><trkpt lat="37.97160159340171" lon="-3.985435017231743"><ele>373.0</ele><time>2026-04-27T12:53:03Z</time></trkpt><trkpt lat="37.97161077651009" lon="-3.985351273991518"><ele>373.0</ele><time>2026-04-27T12:53:04Z</time></trkpt><trkpt lat="37.97162824436543" lon="-3.9852507458518085"><ele>373.0</ele><time>2026-04-27T12:53:05Z</time></trkpt><trkpt lat="37.97164431658414" lon="-3.9851323301277053"><ele>373.3333333333333</ele><time>2026-04-27T12:53:06Z</time></trkpt><trkpt lat="37.971659675370944" lon="-3.98499974935733"><ele>373.66666666666663</ele><time>2026-04-27T12:53:07Z</time></trkpt><trkpt lat="37.971671826367086" lon="-3.9848924660530023"><ele>374.0</ele><time>2026-04-27T12:53:08Z</time></trkpt><trkpt lat="37.97168317182562" lon="-3.984788740378386"><ele>374.3333333333333</ele><time>2026-04-27T12:53:09Z</time></trkpt><trkpt lat="37.97169484864882" lon="-3.984686849538506"><ele>374.6666666666667</ele><time>2026-04-27T12:53:10Z</time></trkpt><trkpt lat="37.97171604529077" lon="-3.984582574694841"><ele>375.0</ele><time>2026-04-27T12:53:11Z</time></trkpt><trkpt lat="37.97172619661057" lon="-3.9844722036072717"><ele>374.0</ele><time>2026-04-27T12:53:12Z</time></trkpt><trkpt lat="37.971733560490605" lon="-3.984357501064446"><ele>373.0</ele><time>2026-04-27T12:53:13Z</time></trkpt><trkpt lat="37.97173532932736" lon="-3.984231049370771"><ele>372.0</ele><time>2026-04-27T12:53:14Z</time></trkpt><trkpt lat="37.97174384383281" lon="-3.9840632296553404"><ele>371.0</ele><time>2026-04-27T12:53:15Z</time></trkpt><trkpt lat="37.97174745011758" lon="-3.983933311234586"><ele>370.0</ele><time>2026-04-27T12:53:16Z</time></trkpt><trkpt lat="37.97175558298683" lon="-3.983838818779666"><ele>369.5</ele><time>2026-04-27T12:53:17Z</time></trkpt><trkpt lat="37.97176304568123" lon="-3.9837397558873127"><ele>369.0</ele><time>2026-04-27T12:53:18Z</time></trkpt><trkpt lat="37.971768570648564" lon="-3.9836425800108746"><ele>368.5</ele><time>2026-04-27T12:53:19Z</time></trkpt><trkpt lat="37.97177367896276" lon="-3.983534181131396"><ele>368.0</ele><time>2026-04-27T12:53:20Z</time></trkpt><trkpt lat="37.97177989881861" lon="-3.983419808274006"><ele>367.5</ele><time>2026-04-27T12:53:21Z</time></trkpt><trkpt lat="37.971786924946755" lon="-3.9832893081383802"><ele>367.0</ele><time>2026-04-27T12:53:22Z</time></trkpt><trkpt lat="37.971794906429814" lon="-3.9831401666334747"><ele>365.25</ele><time>2026-04-27T12:53:22.999Z</time></trkpt><trkpt lat="37.97180716225517" lon="-3.982984298108517"><ele>363.5</ele><time>2026-04-27T12:53:23.999Z</time></trkpt><trkpt lat="37.97181312292496" lon="-3.98283987132721"><ele>361.75</ele><time>2026-04-27T12:53:24.999Z</time></trkpt><trkpt lat="37.97182963754422" lon="-3.982701450821547"><ele>360.0</ele><time>2026-04-27T12:53:25.999Z</time></trkpt><trkpt lat="37.971844394141726" lon="-3.9825622000721808"><ele>359.2</ele><time>2026-04-27T12:53:26.999Z</time></trkpt><trkpt lat="37.97186295511675" lon="-3.982427215586577"><ele>358.4</ele><time>2026-04-27T12:53:27.999Z</time></trkpt><trkpt lat="37.971879471842165" lon="-3.982295812585789"><ele>357.6</ele><time>2026-04-27T12:53:28.999Z</time></trkpt><trkpt lat="37.97189325669837" lon="-3.982156928046895"><ele>356.8</ele><time>2026-04-27T12:53:29.999Z</time></trkpt><trkpt lat="37.97192230633442" lon="-3.9820117293179895"><ele>356.0</ele><time>2026-04-27T12:53:30.999Z</time></trkpt><trkpt lat="37.97196119028001" lon="-3.9818559325221723"><ele>356.0</ele><time>2026-04-27T12:53:31.999Z</time></trkpt><trkpt lat="37.97199940979798" lon="-3.9816941555965393"><ele>356.0</ele><time>2026-04-27T12:53:32.999Z</time></trkpt><trkpt lat="37.972041050953464" lon="-3.981526134133578"><ele>356.0</ele><time>2026-04-27T12:53:33.999Z</time></trkpt><trkpt lat="37.97208178494419" lon="-3.981358656131776"><ele>356.0</ele><time>2026-04-27T12:53:34.999Z</time></trkpt><trkpt lat="37.97211151294157" lon="-3.9811983666814665"><ele>356.25</ele><time>2026-04-27T12:53:35.999Z</time></trkpt><trkpt lat="37.97214510392134" lon="-3.9810358463352595"><ele>356.5</ele><time>2026-04-27T12:53:36.999Z</time></trkpt><trkpt lat="37.97218119910758" lon="-3.9808773511359217"><ele>356.75</ele><time>2026-04-27T12:53:37.999Z</time></trkpt><trkpt lat="37.97221834149238" lon="-3.9807216586188616"><ele>357.0</ele><time>2026-04-27T12:53:38.999Z</time></trkpt><trkpt lat="37.97226135490307" lon="-3.9805628611912027"><ele>357.5</ele><time>2026-04-27T12:53:39.999Z</time></trkpt><trkpt lat="37.97229673808685" lon="-3.980401933485125"><ele>358.0</ele><time>2026-04-27T12:53:40.999Z</time></trkpt><trkpt lat="37.972333294012" lon="-3.980240816672316"><ele>358.5</ele><time>2026-04-27T12:53:41.999Z</time></trkpt><trkpt lat="37.97236917234632" lon="-3.9800817407468783"><ele>359.0</ele><time>2026-04-27T12:53:42.999Z</time></trkpt><trkpt lat="37.972408144334004" lon="-3.9799221372799805"><ele>359.5</ele><time>2026-04-27T12:53:43.999Z</time></trkpt><trkpt lat="37.97244405525149" lon="-3.9797646981703916"><ele>360.0</ele><time>2026-04-27T12:53:44.999Z</time></trkpt><trkpt lat="37.97248487638588" lon="-3.979600180938152"><ele>360.5</ele><time>2026-04-27T12:53:45.999Z</time></trkpt><trkpt lat="37.97252515066724" lon="-3.9794347948184323"><ele>361.0</ele><time>2026-04-27T12:53:46.999Z</time></trkpt><trkpt lat="37.97256011319962" lon="-3.9792589352812846"><ele>363.5</ele><time>2026-04-27T12:53:47.999Z</time></trkpt><trkpt lat="37.972598694959366" lon="-3.979082958361074"><ele>366.0</ele><time>2026-04-27T12:53:48.999Z</time></trkpt><trkpt lat="37.972641735734165" lon="-3.9789046744410346"><ele>368.5</ele><time>2026-04-27T12:53:49.999Z</time></trkpt><trkpt lat="37.97267796775931" lon="-3.978733878759113"><ele>371.0</ele><time>2026-04-27T12:53:50.999Z</time></trkpt><trkpt lat="37.972706259494146" lon="-3.978563340597818"><ele>371.0</ele><time>2026-04-27T12:53:51.999Z</time></trkpt><trkpt lat="37.972724148805725" lon="-3.9783809501904615"><ele>371.0</ele><time>2026-04-27T12:53:52.999Z</time></trkpt><trkpt lat="37.9727243297214" lon="-3.9781973735195715"><ele>371.0</ele><time>2026-04-27T12:53:53.999Z</time></trkpt><trkpt lat="37.972707775913115" lon="-3.9780192592132257"><ele>371.0</ele><time>2026-04-27T12:53:54.999Z</time></trkpt><trkpt lat="37.97268149784802" lon="-3.9778410863622837"><ele>370.33333333333337</ele><time>2026-04-27T12:53:55.999Z</time></trkpt><trkpt lat="37.97263670337429" lon="-3.977657456531019"><ele>369.6666666666667</ele><time>2026-04-27T12:53:56.999Z</time></trkpt><trkpt lat="37.97256989366698" lon="-3.977470478437707"><ele>369.0</ele><time>2026-04-27T12:53:57.999Z</time></trkpt><trkpt lat="37.97248492838486" lon="-3.9772846598970046"><ele>368.3333333333333</ele><time>2026-04-27T12:53:58.999Z</time></trkpt><trkpt lat="37.97237333572649" lon="-3.9771069853709653"><ele>367.66666666666663</ele><time>2026-04-27T12:53:59.999Z</time></trkpt><trkpt lat="37.97226704194759" lon="-3.9769404405689612"><ele>367.0</ele><time>2026-04-27T12:54:00.999Z</time></trkpt><trkpt lat="37.97215671831879" lon="-3.9767760819362885"><ele>364.0</ele><time>2026-04-27T12:54:01.999Z</time></trkpt><trkpt lat="37.97204289957358" lon="-3.9766073659417813"><ele>361.0</ele><time>2026-04-27T12:54:02.999Z</time></trkpt><trkpt lat="37.97192780251852" lon="-3.976439910233675"><ele>358.0</ele><time>2026-04-27T12:54:03.999Z</time></trkpt><trkpt lat="37.97181611097973" lon="-3.976275077407462"><ele>358.0</ele><time>2026-04-27T12:54:04.999Z</time></trkpt><trkpt lat="37.971713479458955" lon="-3.976124730976025"><ele>358.0</ele><time>2026-04-27T12:54:05.999Z</time></trkpt><trkpt lat="37.97161892264392" lon="-3.97598374002437"><ele>358.0</ele><time>2026-04-27T12:54:06.999Z</time></trkpt><trkpt lat="37.97153398997349" lon="-3.975851850874033"><ele>358.0</ele><time>2026-04-27T12:54:07.999Z</time></trkpt><trkpt lat="37.971449238263325" lon="-3.975729730941189"><ele>358.4</ele><time>2026-04-27T12:54:08.999Z</time></trkpt><trkpt lat="37.97137522614862" lon="-3.975615081026851"><ele>358.79999999999995</ele><time>2026-04-27T12:54:09.999Z</time></trkpt><trkpt lat="37.971320526902716" lon="-3.97551542173756"><ele>359.2</ele><time>2026-04-27T12:54:10.999Z</time></trkpt><trkpt lat="37.971270894928836" lon="-3.9754194290923226"><ele>359.6</ele><time>2026-04-27T12:54:11.999Z</time></trkpt><trkpt lat="37.97123053747343" lon="-3.9753187617209633"><ele>360.0</ele><time>2026-04-27T12:54:12.999Z</time></trkpt><trkpt lat="37.971196763901595" lon="-3.9752381912815986"><ele>360.0</ele><time>2026-04-27T12:54:13.999Z</time></trkpt><trkpt lat="37.97117329276958" lon="-3.975158210051186"><ele>360.0</ele><time>2026-04-27T12:54:14.999Z</time></trkpt><trkpt lat="37.97115076884186" lon="-3.975083434662826"><ele>360.0</ele><time>2026-04-27T12:54:15.999Z</time></trkpt><trkpt lat="37.971124517773845" lon="-3.9749588233390667"><ele>360.0</ele><time>2026-04-27T12:54:17.999Z</time></trkpt><trkpt lat="37.9711164935738" lon="-3.9748407067895486"><ele>360.0</ele><time>2026-04-27T12:56:00.999Z</time></trkpt><trkpt lat="37.9711009698237" lon="-3.9746695208648735"><ele>358.6</ele><time>2026-04-27T12:56:02.999Z</time></trkpt><trkpt lat="37.97111923308937" lon="-3.9745593812650677"><ele>357.2</ele><time>2026-04-27T12:56:03.999Z</time></trkpt><trkpt lat="37.971140610696565" lon="-3.974434456261797"><ele>355.79999999999995</ele><time>2026-04-27T12:56:04.999Z</time></trkpt><trkpt lat="37.971165357818215" lon="-3.974301734128272"><ele>354.4</ele><time>2026-04-27T12:56:05.999Z</time></trkpt><trkpt lat="37.9712001935442" lon="-3.974168045504736"><ele>353.0</ele><time>2026-04-27T12:56:06.999Z</time></trkpt><trkpt lat="37.97125128264035" lon="-3.974037445756795"><ele>352.5</ele><time>2026-04-27T12:56:07.999Z</time></trkpt><trkpt lat="37.97131654745162" lon="-3.973908793040836"><ele>352.0</ele><time>2026-04-27T12:56:08.999Z</time></trkpt><trkpt lat="37.971395567882006" lon="-3.9737801749789514"><ele>351.5</ele><time>2026-04-27T12:56:09.999Z</time></trkpt><trkpt lat="37.97148735833151" lon="-3.9736592369374795"><ele>351.0</ele><time>2026-04-27T12:56:10.999Z</time></trkpt><trkpt lat="37.97159919555948" lon="-3.9735494366846242"><ele>350.3333333333333</ele><time>2026-04-27T12:56:11.999Z</time></trkpt><trkpt lat="37.971718939089975" lon="-3.9734400529675895"><ele>349.66666666666663</ele><time>2026-04-27T12:56:12.999Z</time></trkpt><trkpt lat="37.97185592106519" lon="-3.9733308489562007"><ele>349.0</ele><time>2026-04-27T12:56:13.999Z</time></trkpt><trkpt lat="37.971996531712" lon="-3.9732224493089645"><ele>349.0</ele><time>2026-04-27T12:56:14.999Z</time></trkpt><trkpt lat="37.97214640151281" lon="-3.9731069987891"><ele>349.0</ele><time>2026-04-27T12:56:15.999Z</time></trkpt><trkpt lat="37.972298824441694" lon="-3.9729890532998393"><ele>349.0</ele><time>2026-04-27T12:56:16.999Z</time></trkpt><trkpt lat="37.97244542292575" lon="-3.972873885674511"><ele>346.0</ele><time>2026-04-27T12:56:17.999Z</time></trkpt><trkpt lat="37.97258793739202" lon="-3.9727619862492545"><ele>343.0</ele><time>2026-04-27T12:56:18.999Z</time></trkpt><trkpt lat="37.972724907939984" lon="-3.9726559176441922"><ele>340.0</ele><time>2026-04-27T12:56:19.999Z</time></trkpt><trkpt lat="37.972865632063865" lon="-3.972547454519797"><ele>342.0</ele><time>2026-04-27T12:56:20.999Z</time></trkpt><trkpt lat="37.9730059928047" lon="-3.9724414416563416"><ele>344.0</ele><time>2026-04-27T12:56:21.999Z</time></trkpt><trkpt lat="37.97315152011637" lon="-3.9723303432360857"><ele>346.0</ele><time>2026-04-27T12:56:22.999Z</time></trkpt><trkpt lat="37.97329798651359" lon="-3.972217209219064"><ele>344.66666666666663</ele><time>2026-04-27T12:56:23.999Z</time></trkpt><trkpt lat="37.97344152196195" lon="-3.972103602776163"><ele>343.3333333333333</ele><time>2026-04-27T12:56:24.999Z</time></trkpt><trkpt lat="37.97358668443995" lon="-3.971986711000444"><ele>342.0</ele><time>2026-04-27T12:56:25.999Z</time></trkpt><trkpt lat="37.97373449655805" lon="-3.9718683046045817"><ele>342.0</ele><time>2026-04-27T12:56:26.999Z</time></trkpt><trkpt lat="37.97388588399222" lon="-3.9717497811391604"><ele>342.0</ele><time>2026-04-27T12:56:27.999Z</time></trkpt><trkpt lat="37.97404172674964" lon="-3.9716269162264113"><ele>342.0</ele><time>2026-04-27T12:56:28.999Z</time></trkpt><trkpt lat="37.97420246060208" lon="-3.97150171113132"><ele>342.3333333333333</ele><time>2026-04-27T12:56:29.999Z</time></trkpt><trkpt lat="37.974359751184764" lon="-3.9713846114138445"><ele>342.66666666666663</ele><time>2026-04-27T12:56:30.999Z</time></trkpt><trkpt lat="37.974517989514034" lon="-3.971266871088313"><ele>343.0</ele><time>2026-04-27T12:56:31.999Z</time></trkpt><trkpt lat="37.974677883949575" lon="-3.971157891954101"><ele>343.0</ele><time>2026-04-27T12:56:32.999Z</time></trkpt><trkpt lat="37.974846347101945" lon="-3.971058120834353"><ele>343.0</ele><time>2026-04-27T12:56:33.999Z</time></trkpt><trkpt lat="37.97502386102087" lon="-3.9709790751440526"><ele>343.0</ele><time>2026-04-27T12:56:34.999Z</time></trkpt><trkpt lat="37.97521287279267" lon="-3.9709205991211913"><ele>341.3333333333333</ele><time>2026-04-27T12:56:35.999Z</time></trkpt><trkpt lat="37.97540663759607" lon="-3.9708860422758203"><ele>339.6666666666667</ele><time>2026-04-27T12:56:36.999Z</time></trkpt><trkpt lat="37.97559296020728" lon="-3.9708504812340313"><ele>338.0</ele><time>2026-04-27T12:56:37.999Z</time></trkpt><trkpt lat="37.975785476567" lon="-3.9708521855883046"><ele>334.6666666666667</ele><time>2026-04-27T12:56:38.999Z</time></trkpt><trkpt lat="37.975981423604715" lon="-3.9708718117463486"><ele>331.3333333333333</ele><time>2026-04-27T12:56:39.999Z</time></trkpt><trkpt lat="37.97616598933172" lon="-3.9708939159025434"><ele>328.0</ele><time>2026-04-27T12:56:40.999Z</time></trkpt><trkpt lat="37.97634301448618" lon="-3.970917172113372"><ele>328.0</ele><time>2026-04-27T12:56:41.999Z</time></trkpt><trkpt lat="37.97651528685756" lon="-3.970927890981318"><ele>328.0</ele><time>2026-04-27T12:56:42.999Z</time></trkpt><trkpt lat="37.97668738710122" lon="-3.970943978222019"><ele>328.0</ele><time>2026-04-27T12:56:43.999Z</time></trkpt><trkpt lat="37.97685721463597" lon="-3.970901937101049"><ele>326.66666666666663</ele><time>2026-04-27T12:56:44.999Z</time></trkpt><trkpt lat="37.97702167741038" lon="-3.9708399118564888"><ele>325.3333333333333</ele><time>2026-04-27T12:56:45.999Z</time></trkpt><trkpt lat="37.977175201422924" lon="-3.9707478296086594"><ele>324.0</ele><time>2026-04-27T12:56:46.999Z</time></trkpt><trkpt lat="37.97731435255377" lon="-3.970627336322969"><ele>324.0</ele><time>2026-04-27T12:56:47.999Z</time></trkpt><trkpt lat="37.977446539322216" lon="-3.970472011768347"><ele>324.0</ele><time>2026-04-27T12:56:48.999Z</time></trkpt><trkpt lat="37.97756997761722" lon="-3.9702950930166545"><ele>324.0</ele><time>2026-04-27T12:56:50Z</time></trkpt><trkpt lat="37.977677537439654" lon="-3.9700866591692217"><ele>324.0</ele><time>2026-04-27T12:56:51Z</time></trkpt><trkpt lat="37.977776534000334" lon="-3.969870024949392"><ele>324.0</ele><time>2026-04-27T12:56:52Z</time></trkpt><trkpt lat="37.97786648574917" lon="-3.9696384315934696"><ele>324.0</ele><time>2026-04-27T12:56:53Z</time></trkpt><trkpt lat="37.97796097096457" lon="-3.9694142850350587"><ele>321.3333333333333</ele><time>2026-04-27T12:56:54Z</time></trkpt><trkpt lat="37.978055994835366" lon="-3.969190621256794"><ele>318.66666666666663</ele><time>2026-04-27T12:56:55Z</time></trkpt><trkpt lat="37.97815102156957" lon="-3.9689692268860766"><ele>316.0</ele><time>2026-04-27T12:56:56Z</time></trkpt><trkpt lat="37.97824328221948" lon="-3.968761140285049"><ele>316.0</ele><time>2026-04-27T12:56:57Z</time></trkpt><trkpt lat="37.978335089990615" lon="-3.968558878060777"><ele>316.0</ele><time>2026-04-27T12:56:58Z</time></trkpt><trkpt lat="37.978437253784975" lon="-3.9683778515937145"><ele>316.0</ele><time>2026-04-27T12:56:59Z</time></trkpt><trkpt lat="37.9785664559139" lon="-3.968229057219811"><ele>313.0</ele><time>2026-04-27T12:57:00Z</time></trkpt><trkpt lat="37.97872560659499" lon="-3.968105624390477"><ele>310.0</ele><time>2026-04-27T12:57:01Z</time></trkpt><trkpt lat="37.978906407447376" lon="-3.968020573071457"><ele>307.0</ele><time>2026-04-27T12:57:02Z</time></trkpt><trkpt lat="37.979099476864626" lon="-3.9679896933899044"><ele>303.66666666666663</ele><time>2026-04-27T12:57:03Z</time></trkpt><trkpt lat="37.979297212109884" lon="-3.968014563187555"><ele>300.3333333333333</ele><time>2026-04-27T12:57:04Z</time></trkpt><trkpt lat="37.97949799764588" lon="-3.9680804708325392"><ele>297.0</ele><time>2026-04-27T12:57:05Z</time></trkpt><trkpt lat="37.97970685161617" lon="-3.9681280506108156"><ele>297.0</ele><time>2026-04-27T12:57:06Z</time></trkpt><trkpt lat="37.97991273289902" lon="-3.9681852114997134"><ele>297.0</ele><time>2026-04-27T12:57:07Z</time></trkpt><trkpt lat="37.980106720024764" lon="-3.9682267888772906"><ele>297.0</ele><time>2026-04-27T12:57:08Z</time></trkpt><trkpt lat="37.98029991372759" lon="-3.9682417444108933"><ele>295.3333333333333</ele><time>2026-04-27T12:57:09Z</time></trkpt><trkpt lat="37.980496604882056" lon="-3.9682169100078877"><ele>293.66666666666663</ele><time>2026-04-27T12:57:10Z</time></trkpt><trkpt lat="37.98069117746852" lon="-3.9681614817653763"><ele>292.0</ele><time>2026-04-27T12:57:11Z</time></trkpt><trkpt lat="37.98087575225094" lon="-3.9680967727337633"><ele>291.3333333333333</ele><time>2026-04-27T12:57:12Z</time></trkpt><trkpt lat="37.9810625426749" lon="-3.9680237194725954"><ele>290.6666666666667</ele><time>2026-04-27T12:57:13Z</time></trkpt><trkpt lat="37.98124779321138" lon="-3.967951937218136"><ele>290.0</ele><time>2026-04-27T12:57:14Z</time></trkpt><trkpt lat="37.98144816057085" lon="-3.9678748872143554"><ele>290.0</ele><time>2026-04-27T12:57:15Z</time></trkpt><trkpt lat="37.98164491001458" lon="-3.9677992284648176"><ele>290.0</ele><time>2026-04-27T12:57:16Z</time></trkpt><trkpt lat="37.98184565550156" lon="-3.9677237711955025"><ele>290.0</ele><time>2026-04-27T12:57:17Z</time></trkpt><trkpt lat="37.982046763752585" lon="-3.9676488712987146"><ele>291.0</ele><time>2026-04-27T12:57:18Z</time></trkpt><trkpt lat="37.9822442802633" lon="-3.9675753093276516"><ele>292.0</ele><time>2026-04-27T12:57:19Z</time></trkpt><trkpt lat="37.982440680591836" lon="-3.967502162932928"><ele>293.0</ele><time>2026-04-27T12:57:20Z</time></trkpt><trkpt lat="37.982632196232764" lon="-3.9674307952955763"><ele>290.0</ele><time>2026-04-27T12:57:21Z</time></trkpt><trkpt lat="37.98283220880463" lon="-3.967355868322733"><ele>287.0</ele><time>2026-04-27T12:57:22Z</time></trkpt><trkpt lat="37.98302825311011" lon="-3.9672824292792512"><ele>284.0</ele><time>2026-04-27T12:57:23Z</time></trkpt><trkpt lat="37.983217738903804" lon="-3.967211447157702"><ele>283.33333333333337</ele><time>2026-04-27T12:57:24Z</time></trkpt><trkpt lat="37.983399744007464" lon="-3.9671431083085755"><ele>282.6666666666667</ele><time>2026-04-27T12:57:25Z</time></trkpt><trkpt lat="37.9835763535841" lon="-3.967076643418196"><ele>282.0</ele><time>2026-04-27T12:57:26Z</time></trkpt><trkpt lat="37.98375659350457" lon="-3.9670093204803036"><ele>282.0</ele><time>2026-04-27T12:57:27Z</time></trkpt><trkpt lat="37.983940851957286" lon="-3.966940887565686"><ele>282.0</ele><time>2026-04-27T12:57:28Z</time></trkpt><trkpt lat="37.98411906751654" lon="-3.966874699009526"><ele>282.0</ele><time>2026-04-27T12:57:29Z</time></trkpt><trkpt lat="37.98429523603567" lon="-3.966809401044878"><ele>283.3333333333333</ele><time>2026-04-27T12:57:30Z</time></trkpt><trkpt lat="37.98447866802395" lon="-3.9667622118502215"><ele>284.66666666666663</ele><time>2026-04-27T12:57:31Z</time></trkpt><trkpt lat="37.98464926931153" lon="-3.966689171768267"><ele>286.0</ele><time>2026-04-27T12:57:32Z</time></trkpt><trkpt lat="37.98480143726209" lon="-3.966591899875517"><ele>282.0</ele><time>2026-04-27T12:57:33Z</time></trkpt><trkpt lat="37.98491843194793" lon="-3.9664516837652575"><ele>278.0</ele><time>2026-04-27T12:57:34Z</time></trkpt><trkpt lat="37.984997379187654" lon="-3.9662709261667444"><ele>274.0</ele><time>2026-04-27T12:57:34.999Z</time></trkpt><trkpt lat="37.985012488369435" lon="-3.966068805979274"><ele>275.0</ele><time>2026-04-27T12:57:35.999Z</time></trkpt><trkpt lat="37.98503378559621" lon="-3.9658774368559793"><ele>276.0</ele><time>2026-04-27T12:57:36.999Z</time></trkpt><trkpt lat="37.985034596556815" lon="-3.965702254531935"><ele>277.0</ele><time>2026-04-27T12:57:37.999Z</time></trkpt><trkpt lat="37.98506080425958" lon="-3.9655371803355695"><ele>278.0</ele><time>2026-04-27T12:57:38.999Z</time></trkpt><trkpt lat="37.985120886161944" lon="-3.965382652439536"><ele>275.75</ele><time>2026-04-27T12:57:39.999Z</time></trkpt><trkpt lat="37.98521004966024" lon="-3.9652442618972246"><ele>273.5</ele><time>2026-04-27T12:57:40.999Z</time></trkpt><trkpt lat="37.985325173071395" lon="-3.965132208661408"><ele>271.25</ele><time>2026-04-27T12:57:41.999Z</time></trkpt><trkpt lat="37.98545866336053" lon="-3.9650364957467"><ele>269.0</ele><time>2026-04-27T12:57:42.999Z</time></trkpt><trkpt lat="37.9855977394983" lon="-3.9649426931097382"><ele>268.33333333333337</ele><time>2026-04-27T12:57:43.999Z</time></trkpt><trkpt lat="37.98573774030908" lon="-3.9648399702848596"><ele>267.6666666666667</ele><time>2026-04-27T12:57:44.999Z</time></trkpt><trkpt lat="37.985882182640246" lon="-3.9647272681533074"><ele>267.0</ele><time>2026-04-27T12:57:45.999Z</time></trkpt><trkpt lat="37.9860253015039" lon="-3.964613593800505"><ele>266.0</ele><time>2026-04-27T12:57:46.999Z</time></trkpt><trkpt lat="37.98616839816539" lon="-3.9645015572980147"><ele>265.0</ele><time>2026-04-27T12:57:47.999Z</time></trkpt><trkpt lat="37.986314655011704" lon="-3.9643843555960205"><ele>264.0</ele><time>2026-04-27T12:57:48.999Z</time></trkpt><trkpt lat="37.986457723743854" lon="-3.964275633191732"><ele>263.3333333333333</ele><time>2026-04-27T12:57:49.999Z</time></trkpt><trkpt lat="37.986609985730894" lon="-3.964157661364429"><ele>262.66666666666663</ele><time>2026-04-27T12:57:50.999Z</time></trkpt><trkpt lat="37.986761524727854" lon="-3.964035430882707"><ele>262.0</ele><time>2026-04-27T12:57:51.999Z</time></trkpt><trkpt lat="37.98691411021218" lon="-3.9639177722324836"><ele>262.0</ele><time>2026-04-27T12:57:52.999Z</time></trkpt><trkpt lat="37.987069243942734" lon="-3.9637958307660424"><ele>262.0</ele><time>2026-04-27T12:57:53.999Z</time></trkpt><trkpt lat="37.987226556857145" lon="-3.963679550713808"><ele>262.0</ele><time>2026-04-27T12:57:54.999Z</time></trkpt><trkpt lat="37.98738238453363" lon="-3.9635608698897093"><ele>262.3333333333333</ele><time>2026-04-27T12:57:55.999Z</time></trkpt><trkpt lat="37.9875418758624" lon="-3.9634376115548466"><ele>262.6666666666667</ele><time>2026-04-27T12:57:56.999Z</time></trkpt><trkpt lat="37.98769951838047" lon="-3.9633211100413974"><ele>263.0</ele><time>2026-04-27T12:57:57.999Z</time></trkpt><trkpt lat="37.98784858528297" lon="-3.963209953496671"><ele>261.33333333333337</ele><time>2026-04-27T12:57:58.999Z</time></trkpt><trkpt lat="37.98798012767979" lon="-3.963101986825247"><ele>259.6666666666667</ele><time>2026-04-27T12:57:59.999Z</time></trkpt><trkpt lat="37.98810883315009" lon="-3.962999431365313"><ele>258.0</ele><time>2026-04-27T12:58:00.999Z</time></trkpt><trkpt lat="37.98824010522765" lon="-3.9629015294881027"><ele>258.6666666666667</ele><time>2026-04-27T12:58:01.999Z</time></trkpt><trkpt lat="37.9883719779262" lon="-3.962799281301049"><ele>259.33333333333337</ele><time>2026-04-27T12:58:02.999Z</time></trkpt><trkpt lat="37.988494990167325" lon="-3.962689692488324"><ele>260.0</ele><time>2026-04-27T12:58:03.999Z</time></trkpt><trkpt lat="37.98861176979309" lon="-3.962571378115963"><ele>258.75</ele><time>2026-04-27T12:58:04.999Z</time></trkpt><trkpt lat="37.98872170197807" lon="-3.962434506808134"><ele>257.5</ele><time>2026-04-27T12:58:05.999Z</time></trkpt><trkpt lat="37.98881633484977" lon="-3.9622887761391543"><ele>256.25</ele><time>2026-04-27T12:58:07Z</time></trkpt><trkpt lat="37.98890024601665" lon="-3.9621381887663083"><ele>255.0</ele><time>2026-04-27T12:58:08Z</time></trkpt><trkpt lat="37.988978705489245" lon="-3.961990647146017"><ele>255.0</ele><time>2026-04-27T12:58:09Z</time></trkpt><trkpt lat="37.98905893995875" lon="-3.9618398595285553"><ele>255.0</ele><time>2026-04-27T12:58:10Z</time></trkpt><trkpt lat="37.989143374328904" lon="-3.961677042659256"><ele>255.0</ele><time>2026-04-27T12:58:11Z</time></trkpt><trkpt lat="37.98923241229202" lon="-3.961516095684384"><ele>254.0</ele><time>2026-04-27T12:58:12Z</time></trkpt><trkpt lat="37.989327794065495" lon="-3.9613398756061033"><ele>253.0</ele><time>2026-04-27T12:58:13Z</time></trkpt><trkpt lat="37.989428066522414" lon="-3.9611507881193715"><ele>252.0</ele><time>2026-04-27T12:58:14Z</time></trkpt><trkpt lat="37.9895335167649" lon="-3.960949542263958"><ele>252.0</ele><time>2026-04-27T12:58:15Z</time></trkpt><trkpt lat="37.98964247777105" lon="-3.9607438188739015"><ele>252.0</ele><time>2026-04-27T12:58:16Z</time></trkpt><trkpt lat="37.98975543767165" lon="-3.9605275735827123"><ele>252.0</ele><time>2026-04-27T12:58:17Z</time></trkpt><trkpt lat="37.98986431622392" lon="-3.9603161674640748"><ele>252.0</ele><time>2026-04-27T12:58:18Z</time></trkpt><trkpt lat="37.98997640063319" lon="-3.9601153695117137"><ele>252.0</ele><time>2026-04-27T12:58:19Z</time></trkpt><trkpt lat="37.990100710090374" lon="-3.959924337288083"><ele>252.0</ele><time>2026-04-27T12:58:20Z</time></trkpt><trkpt lat="37.99023652940339" lon="-3.959761791509428"><ele>251.0</ele><time>2026-04-27T12:58:21Z</time></trkpt><trkpt lat="37.99039366268261" lon="-3.9596257832279913"><ele>250.0</ele><time>2026-04-27T12:58:22Z</time></trkpt><trkpt lat="37.9905690411299" lon="-3.9595335338538122"><ele>249.0</ele><time>2026-04-27T12:58:23Z</time></trkpt><trkpt lat="37.99075792736747" lon="-3.9594824571166765"><ele>249.0</ele><time>2026-04-27T12:58:24Z</time></trkpt><trkpt lat="37.99095836737975" lon="-3.9594637933868424"><ele>249.0</ele><time>2026-04-27T12:58:25Z</time></trkpt><trkpt lat="37.991159066852056" lon="-3.9594525684089863"><ele>249.0</ele><time>2026-04-27T12:58:26Z</time></trkpt><trkpt lat="37.99136024276015" lon="-3.95943549303905"><ele>249.0</ele><time>2026-04-27T12:58:27Z</time></trkpt><trkpt lat="37.991560752896895" lon="-3.959413910610029"><ele>249.0</ele><time>2026-04-27T12:58:28Z</time></trkpt><trkpt lat="37.99176969085078" lon="-3.9593913736295585"><ele>249.0</ele><time>2026-04-27T12:58:29Z</time></trkpt><trkpt lat="37.99198139306955" lon="-3.959367738781034"><ele>248.33333333333331</ele><time>2026-04-27T12:58:30Z</time></trkpt><trkpt lat="37.992196540651726" lon="-3.9593476458568158"><ele>247.66666666666666</ele><time>2026-04-27T12:58:31Z</time></trkpt><trkpt lat="37.99241259740531" lon="-3.959301110980483"><ele>247.0</ele><time>2026-04-27T12:58:32Z</time></trkpt><trkpt lat="37.992633042918655" lon="-3.9592748674415805"><ele>246.33333333333331</ele><time>2026-04-27T12:58:33Z</time></trkpt><trkpt lat="37.992855645097265" lon="-3.9592496946606826"><ele>245.66666666666669</ele><time>2026-04-27T12:58:34Z</time></trkpt><trkpt lat="37.993069585740265" lon="-3.959217782522182"><ele>245.0</ele><time>2026-04-27T12:58:35Z</time></trkpt><trkpt lat="37.99328958514746" lon="-3.9591763192195635"><ele>245.66666666666669</ele><time>2026-04-27T12:58:36Z</time></trkpt><trkpt lat="37.99350036428612" lon="-3.9591175676224886"><ele>246.33333333333331</ele><time>2026-04-27T12:58:37Z</time></trkpt><trkpt lat="37.993708548944" lon="-3.9590353060413195"><ele>247.0</ele><time>2026-04-27T12:58:38Z</time></trkpt><trkpt lat="37.99391322437887" lon="-3.9589505837773666"><ele>247.0</ele><time>2026-04-27T12:58:39Z</time></trkpt><trkpt lat="37.99411097658004" lon="-3.9588215520581103"><ele>247.0</ele><time>2026-04-27T12:58:40Z</time></trkpt><trkpt lat="37.9942969557118" lon="-3.958674345214389"><ele>247.0</ele><time>2026-04-27T12:58:41Z</time></trkpt><trkpt lat="37.99447328145074" lon="-3.9585149287770247"><ele>247.0</ele><time>2026-04-27T12:58:42Z</time></trkpt><trkpt lat="37.99464926359978" lon="-3.9583444441141364"><ele>247.0</ele><time>2026-04-27T12:58:43Z</time></trkpt><trkpt lat="37.99482556270723" lon="-3.958162891802559"><ele>247.0</ele><time>2026-04-27T12:58:44Z</time></trkpt><trkpt lat="37.9949972365675" lon="-3.9579822460092644"><ele>242.5</ele><time>2026-04-27T12:58:45Z</time></trkpt><trkpt lat="37.995172865335206" lon="-3.9578021220827417"><ele>238.0</ele><time>2026-04-27T12:58:46Z</time></trkpt><trkpt lat="37.99535114116064" lon="-3.9576230596520734"><ele>237.0</ele><time>2026-04-27T12:58:47Z</time></trkpt><trkpt lat="37.99552133658618" lon="-3.9574516650676044"><ele>236.0</ele><time>2026-04-27T12:58:48Z</time></trkpt><trkpt lat="37.995699757293984" lon="-3.957267709641678"><ele>235.0</ele><time>2026-04-27T12:58:49Z</time></trkpt><trkpt lat="37.995877667592765" lon="-3.9570870191222856"><ele>235.0</ele><time>2026-04-27T12:58:50Z</time></trkpt><trkpt lat="37.99605999357264" lon="-3.9569032467644565"><ele>235.0</ele><time>2026-04-27T12:58:51Z</time></trkpt><trkpt lat="37.99624111985629" lon="-3.9567228711450246"><ele>237.0</ele><time>2026-04-27T12:58:52Z</time></trkpt><trkpt lat="37.996425085277714" lon="-3.9565378829821616"><ele>239.0</ele><time>2026-04-27T12:58:53Z</time></trkpt><trkpt lat="37.99661344151625" lon="-3.956349649028365"><ele>236.0</ele><time>2026-04-27T12:58:54Z</time></trkpt><trkpt lat="37.99679809325387" lon="-3.9561610884756426"><ele>233.0</ele><time>2026-04-27T12:58:55Z</time></trkpt><trkpt lat="37.996982682199636" lon="-3.9559737942222255"><ele>235.0</ele><time>2026-04-27T12:58:56Z</time></trkpt><trkpt lat="37.997165320676885" lon="-3.955790888036527"><ele>237.0</ele><time>2026-04-27T12:58:57Z</time></trkpt><trkpt lat="37.99734778892234" lon="-3.9556109650454663"><ele>234.66666666666669</ele><time>2026-04-27T12:58:58Z</time></trkpt><trkpt lat="37.99752099872285" lon="-3.955434370990043"><ele>232.33333333333334</ele><time>2026-04-27T12:58:59Z</time></trkpt><trkpt lat="37.997693082323494" lon="-3.9552602783407536"><ele>230.0</ele><time>2026-04-27T12:59:00Z</time></trkpt><trkpt lat="37.99786317838084" lon="-3.9550827942311724"><ele>229.33333333333334</ele><time>2026-04-27T12:59:01Z</time></trkpt><trkpt lat="37.99803298584313" lon="-3.954912183628757"><ele>228.66666666666669</ele><time>2026-04-27T12:59:02Z</time></trkpt><trkpt lat="37.99820775755153" lon="-3.9547372340511444"><ele>228.0</ele><time>2026-04-27T12:59:03Z</time></trkpt><trkpt lat="37.99838361503961" lon="-3.9545621379253735"><ele>228.0</ele><time>2026-04-27T12:59:04Z</time></trkpt><trkpt lat="37.99856869136371" lon="-3.9543898301005322"><ele>228.0</ele><time>2026-04-27T12:59:05Z</time></trkpt><trkpt lat="37.99877050961925" lon="-3.954226937170754"><ele>229.0</ele><time>2026-04-27T12:59:06Z</time></trkpt><trkpt lat="37.998986511569676" lon="-3.9540791581253183"><ele>230.0</ele><time>2026-04-27T12:59:07Z</time></trkpt><trkpt lat="37.99920617456291" lon="-3.9539474632770024"><ele>228.0</ele><time>2026-04-27T12:59:08Z</time></trkpt><trkpt lat="37.999426968943425" lon="-3.95381568855301"><ele>226.0</ele><time>2026-04-27T12:59:09Z</time></trkpt><trkpt lat="37.99964442293155" lon="-3.953679471081747"><ele>226.0</ele><time>2026-04-27T12:59:10Z</time></trkpt><trkpt lat="37.999861003969876" lon="-3.9535438552083018"><ele>226.0</ele><time>2026-04-27T12:59:11Z</time></trkpt><trkpt lat="38.00007509451046" lon="-3.9534142936675227"><ele>227.0</ele><time>2026-04-27T12:59:12Z</time></trkpt><trkpt lat="38.0002855147619" lon="-3.953282882593785"><ele>228.0</ele><time>2026-04-27T12:59:13Z</time></trkpt><trkpt lat="38.00049216935446" lon="-3.95315346342434"><ele>228.0</ele><time>2026-04-27T12:59:14Z</time></trkpt><trkpt lat="38.00069504224414" lon="-3.953029047752923"><ele>228.0</ele><time>2026-04-27T12:59:15Z</time></trkpt><trkpt lat="38.000903125890844" lon="-3.9528877508723133"><ele>226.0</ele><time>2026-04-27T12:59:16Z</time></trkpt><trkpt lat="38.0011025418129" lon="-3.952728554031051"><ele>224.0</ele><time>2026-04-27T12:59:17Z</time></trkpt><trkpt lat="38.00129145842605" lon="-3.9525438569725484"><ele>223.0</ele><time>2026-04-27T12:59:18Z</time></trkpt><trkpt lat="38.001467430031006" lon="-3.952337722759787"><ele>222.0</ele><time>2026-04-27T12:59:19Z</time></trkpt><trkpt lat="38.001633288299814" lon="-3.95211054868112"><ele>222.0</ele><time>2026-04-27T12:59:20Z</time></trkpt><trkpt lat="38.00178283195364" lon="-3.951871417990306"><ele>222.0</ele><time>2026-04-27T12:59:21Z</time></trkpt><trkpt lat="38.00189436758331" lon="-3.9516203035151696"><ele>221.0</ele><time>2026-04-27T12:59:22Z</time></trkpt><trkpt lat="38.0019990868768" lon="-3.951358639755415"><ele>220.0</ele><time>2026-04-27T12:59:23Z</time></trkpt><trkpt lat="38.00210265609341" lon="-3.9510856326019197"><ele>222.0</ele><time>2026-04-27T12:59:24Z</time></trkpt><trkpt lat="38.00218230029069" lon="-3.9507961736792145"><ele>224.0</ele><time>2026-04-27T12:59:25Z</time></trkpt><trkpt lat="38.002262477968486" lon="-3.950496310461851"><ele>224.0</ele><time>2026-04-27T12:59:26Z</time></trkpt><trkpt lat="38.00234571574038" lon="-3.9502023750198325"><ele>224.0</ele><time>2026-04-27T12:59:27Z</time></trkpt><trkpt lat="38.002430198616324" lon="-3.9499136644039328"><ele>224.0</ele><time>2026-04-27T12:59:28Z</time></trkpt><trkpt lat="38.00251334594922" lon="-3.9496249711568834"><ele>224.0</ele><time>2026-04-27T12:59:29Z</time></trkpt><trkpt lat="38.00259493525037" lon="-3.9493447507617194"><ele>225.0</ele><time>2026-04-27T12:59:30Z</time></trkpt><trkpt lat="38.00267401957944" lon="-3.949069342943601"><ele>226.0</ele><time>2026-04-27T12:59:31Z</time></trkpt><trkpt lat="38.00275380044206" lon="-3.9488116030591285"><ele>227.0</ele><time>2026-04-27T12:59:32Z</time></trkpt><trkpt lat="38.00283093725289" lon="-3.9485450968784455"><ele>227.66666666666669</ele><time>2026-04-27T12:59:33Z</time></trkpt><trkpt lat="38.00291562291262" lon="-3.948279200517871"><ele>228.33333333333331</ele><time>2026-04-27T12:59:34Z</time></trkpt><trkpt lat="38.00299737575471" lon="-3.9480161934799183"><ele>229.0</ele><time>2026-04-27T12:59:35Z</time></trkpt><trkpt lat="38.00308103697118" lon="-3.9477490267327986"><ele>229.5</ele><time>2026-04-27T12:59:36Z</time></trkpt><trkpt lat="38.00315485456601" lon="-3.9474772330878904"><ele>230.0</ele><time>2026-04-27T12:59:37Z</time></trkpt><trkpt lat="38.00321061245799" lon="-3.947190371702219"><ele>230.0</ele><time>2026-04-27T12:59:38Z</time></trkpt><trkpt lat="38.0032477428236" lon="-3.946891370036791"><ele>230.0</ele><time>2026-04-27T12:59:39Z</time></trkpt><trkpt lat="38.003262536326126" lon="-3.9465872025527493"><ele>230.5</ele><time>2026-04-27T12:59:40Z</time></trkpt><trkpt lat="38.00325670011166" lon="-3.9462836938088994"><ele>231.0</ele><time>2026-04-27T12:59:41Z</time></trkpt><trkpt lat="38.00324221778373" lon="-3.9459668791818285"><ele>230.5</ele><time>2026-04-27T12:59:42Z</time></trkpt><trkpt lat="38.003235491651196" lon="-3.9456516084706212"><ele>230.0</ele><time>2026-04-27T12:59:43Z</time></trkpt><trkpt lat="38.00323690854069" lon="-3.9453351363817375"><ele>231.0</ele><time>2026-04-27T12:59:44Z</time></trkpt><trkpt lat="38.003234648616946" lon="-3.9450188402407007"><ele>232.0</ele><time>2026-04-27T12:59:45Z</time></trkpt><trkpt lat="38.003230318505445" lon="-3.944705966598549"><ele>232.0</ele><time>2026-04-27T12:59:46Z</time></trkpt><trkpt lat="38.00322788982575" lon="-3.944390740606587"><ele>232.0</ele><time>2026-04-27T12:59:47Z</time></trkpt><trkpt lat="38.00322452293112" lon="-3.9440873878426967"><ele>232.0</ele><time>2026-04-27T12:59:48Z</time></trkpt><trkpt lat="38.00322050775514" lon="-3.943783229204392"><ele>232.0</ele><time>2026-04-27T12:59:49Z</time></trkpt><trkpt lat="38.00321460824333" lon="-3.943481180988156"><ele>230.0</ele><time>2026-04-27T12:59:50Z</time></trkpt><trkpt lat="38.003211278519345" lon="-3.9431829463308"><ele>228.0</ele><time>2026-04-27T12:59:51Z</time></trkpt><trkpt lat="38.003206452612794" lon="-3.9428791309429245"><ele>228.0</ele><time>2026-04-27T12:59:52Z</time></trkpt><trkpt lat="38.003204512982094" lon="-3.9425776529095895"><ele>228.0</ele><time>2026-04-27T12:59:53Z</time></trkpt><trkpt lat="38.00320639771473" lon="-3.9422827210647298"><ele>226.0</ele><time>2026-04-27T12:59:54Z</time></trkpt><trkpt lat="38.003216471822384" lon="-3.9419781797985847"><ele>224.0</ele><time>2026-04-27T12:59:55Z</time></trkpt><trkpt lat="38.003245594012334" lon="-3.941675268243852"><ele>224.0</ele><time>2026-04-27T12:59:56Z</time></trkpt><trkpt lat="38.003282049897415" lon="-3.9413673890663747"><ele>224.0</ele><time>2026-04-27T12:59:57Z</time></trkpt><trkpt lat="38.0033210626177" lon="-3.9410547352145775"><ele>223.0</ele><time>2026-04-27T12:59:58Z</time></trkpt><trkpt lat="38.00335545331621" lon="-3.9407436258465998"><ele>222.0</ele><time>2026-04-27T12:59:59Z</time></trkpt><trkpt lat="38.00339141631605" lon="-3.9404294048312094"><ele>222.0</ele><time>2026-04-27T13:00:00Z</time></trkpt><trkpt lat="38.00342698464845" lon="-3.940112531847737"><ele>222.0</ele><time>2026-04-27T13:00:01Z</time></trkpt><trkpt lat="38.00346146064474" lon="-3.9397939216065336"><ele>221.5</ele><time>2026-04-27T13:00:02Z</time></trkpt><trkpt lat="38.00349793301354" lon="-3.939482322991752"><ele>221.0</ele><time>2026-04-27T13:00:03Z</time></trkpt><trkpt lat="38.003534537052" lon="-3.939167425140944"><ele>221.0</ele><time>2026-04-27T13:00:04Z</time></trkpt><trkpt lat="38.003567230702785" lon="-3.9388514605463083"><ele>221.0</ele><time>2026-04-27T13:00:05Z</time></trkpt><trkpt lat="38.00360021024129" lon="-3.9385346912662604"><ele>221.5</ele><time>2026-04-27T13:00:06Z</time></trkpt><trkpt lat="38.00363594496651" lon="-3.9382184933511173"><ele>222.0</ele><time>2026-04-27T13:00:07Z</time></trkpt><trkpt lat="38.00367262096369" lon="-3.9379045596373414"><ele>222.0</ele><time>2026-04-27T13:00:08Z</time></trkpt><trkpt lat="38.0037167516381" lon="-3.937593096286438"><ele>222.0</ele><time>2026-04-27T13:00:09Z</time></trkpt><trkpt lat="38.00377679317765" lon="-3.937282001072068"><ele>223.0</ele><time>2026-04-27T13:00:10Z</time></trkpt><trkpt lat="38.00386049150576" lon="-3.936979795288008"><ele>224.0</ele><time>2026-04-27T13:00:11Z</time></trkpt><trkpt lat="38.00396924989357" lon="-3.936684580215813"><ele>225.0</ele><time>2026-04-27T13:00:12Z</time></trkpt><trkpt lat="38.004095339207986" lon="-3.9363942861119274"><ele>226.0</ele><time>2026-04-27T13:00:13Z</time></trkpt><trkpt lat="38.00423556325902" lon="-3.936110956365676"><ele>223.5</ele><time>2026-04-27T13:00:14Z</time></trkpt><trkpt lat="38.00437976775165" lon="-3.935826492190361"><ele>221.0</ele><time>2026-04-27T13:00:15Z</time></trkpt><trkpt lat="38.00452216068147" lon="-3.935536875322467"><ele>221.0</ele><time>2026-04-27T13:00:16Z</time></trkpt><trkpt lat="38.00466371858708" lon="-3.9352475731129157"><ele>221.0</ele><time>2026-04-27T13:00:17Z</time></trkpt><trkpt lat="38.00480436379444" lon="-3.93496012875305"><ele>220.0</ele><time>2026-04-27T13:00:18Z</time></trkpt><trkpt lat="38.00494191686751" lon="-3.9346795776323433"><ele>219.0</ele><time>2026-04-27T13:00:19Z</time></trkpt><trkpt lat="38.005075840869246" lon="-3.934405767508959"><ele>221.0</ele><time>2026-04-27T13:00:20Z</time></trkpt><trkpt lat="38.005205994191705" lon="-3.934134638301358"><ele>223.0</ele><time>2026-04-27T13:00:21Z</time></trkpt><trkpt lat="38.005324045798154" lon="-3.93385744357158"><ele>223.0</ele><time>2026-04-27T13:00:22Z</time></trkpt><trkpt lat="38.005417552467065" lon="-3.9335754031311545"><ele>223.0</ele><time>2026-04-27T13:00:23Z</time></trkpt><trkpt lat="38.00547699279596" lon="-3.933287690175131"><ele>222.5</ele><time>2026-04-27T13:00:24Z</time></trkpt><trkpt lat="38.005496260760836" lon="-3.9329844562477847"><ele>222.0</ele><time>2026-04-27T13:00:25Z</time></trkpt><trkpt lat="38.005488116103045" lon="-3.9326660352142313"><ele>224.5</ele><time>2026-04-27T13:00:26Z</time></trkpt><trkpt lat="38.005475351618635" lon="-3.932356699621041"><ele>227.0</ele><time>2026-04-27T13:00:27Z</time></trkpt><trkpt lat="38.00546608050962" lon="-3.9320554470156397"><ele>227.0</ele><time>2026-04-27T13:00:28Z</time></trkpt><trkpt lat="38.00545967428655" lon="-3.9317716886970207"><ele>227.0</ele><time>2026-04-27T13:00:29Z</time></trkpt><trkpt lat="38.00545321147238" lon="-3.9315057388081387"><ele>227.0</ele><time>2026-04-27T13:00:30Z</time></trkpt><trkpt lat="38.00544841476702" lon="-3.931253391883969"><ele>226.66666666666669</ele><time>2026-04-27T13:00:31Z</time></trkpt><trkpt lat="38.00544699445377" lon="-3.9310140086844916"><ele>226.33333333333331</ele><time>2026-04-27T13:00:32Z</time></trkpt><trkpt lat="38.00543772698795" lon="-3.9307860249419506"><ele>226.0</ele><time>2026-04-27T13:00:33Z</time></trkpt><trkpt lat="38.005425904504364" lon="-3.9305678354996183"><ele>226.0</ele><time>2026-04-27T13:00:34Z</time></trkpt><trkpt lat="38.00541606382032" lon="-3.9303657220211012"><ele>226.0</ele><time>2026-04-27T13:00:35Z</time></trkpt><trkpt lat="38.005412355002235" lon="-3.930179815273407"><ele>226.0</ele><time>2026-04-27T13:00:36Z</time></trkpt><trkpt lat="38.005431468541815" lon="-3.93001369511736"><ele>226.0</ele><time>2026-04-27T13:00:37Z</time></trkpt><trkpt lat="38.00549617308273" lon="-3.9298723434614335"><ele>225.5</ele><time>2026-04-27T13:00:38Z</time></trkpt><trkpt lat="38.005590992597725" lon="-3.92975108413259"><ele>225.0</ele><time>2026-04-27T13:00:39Z</time></trkpt><trkpt lat="38.00569201763553" lon="-3.9296453708698946"><ele>224.5</ele><time>2026-04-27T13:00:40Z</time></trkpt><trkpt lat="38.0057695238645" lon="-3.929529405297084"><ele>224.0</ele><time>2026-04-27T13:00:41Z</time></trkpt><trkpt lat="38.00583412651468" lon="-3.9294155528021313"><ele>223.75</ele><time>2026-04-27T13:00:42Z</time></trkpt><trkpt lat="38.00585575198651" lon="-3.9292514270619856"><ele>223.5</ele><time>2026-04-27T13:00:43Z</time></trkpt><trkpt lat="38.005853283766406" lon="-3.9290793766633034"><ele>223.25</ele><time>2026-04-27T13:00:44Z</time></trkpt><trkpt lat="38.00579971812397" lon="-3.928911435608228"><ele>223.0</ele><time>2026-04-27T13:00:45Z</time></trkpt><trkpt lat="38.005717908210286" lon="-3.928756258137048"><ele>223.0</ele><time>2026-04-27T13:00:46Z</time></trkpt><trkpt lat="38.00561605620272" lon="-3.9285892358631385"><ele>223.0</ele><time>2026-04-27T13:00:47Z</time></trkpt><trkpt lat="38.00551682534991" lon="-3.9283897847986022"><ele>223.0</ele><time>2026-04-27T13:00:48Z</time></trkpt><trkpt lat="38.00544256782215" lon="-3.928171046124821"><ele>223.0</ele><time>2026-04-27T13:00:49Z</time></trkpt><trkpt lat="38.00540854720059" lon="-3.9279533232987776"><ele>223.0</ele><time>2026-04-27T13:00:50Z</time></trkpt><trkpt lat="38.00540267411081" lon="-3.9277532964484587"><ele>223.0</ele><time>2026-04-27T13:00:51Z</time></trkpt><trkpt lat="38.005396627916525" lon="-3.927574014679492"><ele>223.0</ele><time>2026-04-27T13:00:52Z</time></trkpt><trkpt lat="38.00537613303613" lon="-3.927382869679675"><ele>223.0</ele><time>2026-04-27T13:00:53Z</time></trkpt><trkpt lat="38.00535600904215" lon="-3.9271955296157617"><ele>223.0</ele><time>2026-04-27T13:00:54Z</time></trkpt><trkpt lat="38.005343770032155" lon="-3.927031539671464"><ele>223.0</ele><time>2026-04-27T13:00:55Z</time></trkpt><trkpt lat="38.00533591411448" lon="-3.92687337763497"><ele>222.5</ele><time>2026-04-27T13:00:56Z</time></trkpt><trkpt lat="38.005314035063336" lon="-3.926720814195599"><ele>222.0</ele><time>2026-04-27T13:00:57Z</time></trkpt><trkpt lat="38.005292514362395" lon="-3.926566444540764"><ele>221.5</ele><time>2026-04-27T13:00:58.001Z</time></trkpt><trkpt lat="38.00527616760409" lon="-3.9264271726259588"><ele>221.0</ele><time>2026-04-27T13:00:59.001Z</time></trkpt><trkpt lat="38.00524851116174" lon="-3.9262767628207396"><ele>221.0</ele><time>2026-04-27T13:01:00.001Z</time></trkpt><trkpt lat="38.00520450538088" lon="-3.9261197411845594"><ele>221.0</ele><time>2026-04-27T13:01:01.001Z</time></trkpt><trkpt lat="38.005152634611655" lon="-3.925973135055054"><ele>221.0</ele><time>2026-04-27T13:01:02.001Z</time></trkpt><trkpt lat="38.00509422775632" lon="-3.925838808355899"><ele>221.0</ele><time>2026-04-27T13:01:03.001Z</time></trkpt><trkpt lat="38.005047046997674" lon="-3.9257079608439875"><ele>221.25</ele><time>2026-04-27T13:01:04.001Z</time></trkpt><trkpt lat="38.00500958731811" lon="-3.9255724572964708"><ele>221.5</ele><time>2026-04-27T13:01:05.001Z</time></trkpt><trkpt lat="38.00497156266878" lon="-3.9254278340311024"><ele>221.75</ele><time>2026-04-27T13:01:06.001Z</time></trkpt><trkpt lat="38.00493543729568" lon="-3.925288419581175"><ele>222.0</ele><time>2026-04-27T13:01:07.001Z</time></trkpt><trkpt lat="38.00490793502329" lon="-3.925160842576138"><ele>222.33333333333334</ele><time>2026-04-27T13:01:08.001Z</time></trkpt><trkpt lat="38.00489037313229" lon="-3.9250554319106965"><ele>222.66666666666669</ele><time>2026-04-27T13:01:09.001Z</time></trkpt><trkpt lat="38.00485009985932" lon="-3.924952578866872"><ele>223.0</ele><time>2026-04-27T13:01:10.001Z</time></trkpt><trkpt lat="38.004811550972676" lon="-3.924848870893111"><ele>223.33333333333334</ele><time>2026-04-27T13:01:11.001Z</time></trkpt><trkpt lat="38.00477710096321" lon="-3.9247585505831943"><ele>223.66666666666669</ele><time>2026-04-27T13:01:12.001Z</time></trkpt><trkpt lat="38.004743576010526" lon="-3.9246813076394163"><ele>224.0</ele><time>2026-04-27T13:01:13.001Z</time></trkpt><trkpt lat="38.004708198021035" lon="-3.924590883398176"><ele>224.00000000000003</ele><time>2026-04-27T13:01:14.001Z</time></trkpt><trkpt lat="38.00466041924903" lon="-3.924491210997367"><ele>224.0</ele><time>2026-04-27T13:01:15.001Z</time></trkpt><trkpt lat="38.00462359939834" lon="-3.9243932263762145"><ele>224.0</ele><time>2026-04-27T13:01:16.001Z</time></trkpt><trkpt lat="38.00458623949098" lon="-3.9242997771159254"><ele>224.0</ele><time>2026-04-27T13:01:17.001Z</time></trkpt><trkpt lat="38.004548202976636" lon="-3.92420856611834"><ele>224.00000000000003</ele><time>2026-04-27T13:01:18.001Z</time></trkpt><trkpt lat="38.004517394921415" lon="-3.924117729317659"><ele>224.0</ele><time>2026-04-27T13:01:19.001Z</time></trkpt><trkpt lat="38.00448692667015" lon="-3.924027107807486"><ele>224.00000000000003</ele><time>2026-04-27T13:01:20.001Z</time></trkpt><trkpt lat="38.004454626646144" lon="-3.923929711234049"><ele>224.0</ele><time>2026-04-27T13:01:21.001Z</time></trkpt><trkpt lat="38.00442675804867" lon="-3.9238349134652095"><ele>224.0</ele><time>2026-04-27T13:01:22.001Z</time></trkpt><trkpt lat="38.00439883096874" lon="-3.923743885973411"><ele>224.0</ele><time>2026-04-27T13:01:23.001Z</time></trkpt><trkpt lat="38.00436942311824" lon="-3.9236435750378202"><ele>224.00000000000003</ele><time>2026-04-27T13:01:24.001Z</time></trkpt><trkpt lat="38.00433902140404" lon="-3.9235431200572233"><ele>224.0</ele><time>2026-04-27T13:01:25.001Z</time></trkpt><trkpt lat="38.00431449780443" lon="-3.92343150229278"><ele>224.00000000000003</ele><time>2026-04-27T13:01:26.001Z</time></trkpt><trkpt lat="38.00429240701318" lon="-3.9233200393346057"><ele>224.0</ele><time>2026-04-27T13:01:27.001Z</time></trkpt><trkpt lat="38.00427708745959" lon="-3.9232119622993933"><ele>224.0</ele><time>2026-04-27T13:01:28.001Z</time></trkpt><trkpt lat="38.0042554387468" lon="-3.9231036305525757"><ele>224.0</ele><time>2026-04-27T13:01:29.001Z</time></trkpt><trkpt lat="38.00422765289538" lon="-3.9229970520096296"><ele>224.00000000000003</ele><time>2026-04-27T13:01:30.001Z</time></trkpt><trkpt lat="38.00419440356567" lon="-3.9228862482068765"><ele>224.0</ele><time>2026-04-27T13:01:31.001Z</time></trkpt><trkpt lat="38.004147695157734" lon="-3.922778996653652"><ele>224.0</ele><time>2026-04-27T13:01:32.001Z</time></trkpt><trkpt lat="38.00410470365627" lon="-3.922660617196852"><ele>223.99999999999997</ele><time>2026-04-27T13:01:33.001Z</time></trkpt><trkpt lat="38.00405967486533" lon="-3.9225464756560164"><ele>223.99999999999997</ele><time>2026-04-27T13:01:34.001Z</time></trkpt><trkpt lat="38.004014155557904" lon="-3.922433043277045"><ele>224.0</ele><time>2026-04-27T13:01:35.001Z</time></trkpt><trkpt lat="38.003972583152795" lon="-3.9223088988562136"><ele>224.0</ele><time>2026-04-27T13:01:36.001Z</time></trkpt><trkpt lat="38.00392252610364" lon="-3.9221958212545496"><ele>224.0</ele><time>2026-04-27T13:01:37.001Z</time></trkpt><trkpt lat="38.00386885486354" lon="-3.9220917546237892"><ele>223.99999999999997</ele><time>2026-04-27T13:01:38.001Z</time></trkpt><trkpt lat="38.00382646131712" lon="-3.9219932578811405"><ele>223.99999999999997</ele><time>2026-04-27T13:01:39.001Z</time></trkpt><trkpt lat="38.00378225793801" lon="-3.9218835114206687"><ele>224.0</ele><time>2026-04-27T13:01:40.001Z</time></trkpt><trkpt lat="38.0037238464678" lon="-3.921758337697768"><ele>224.0</ele><time>2026-04-27T13:01:41.001Z</time></trkpt><trkpt lat="38.00366807039092" lon="-3.921636705901706"><ele>224.0</ele><time>2026-04-27T13:01:42.001Z</time></trkpt><trkpt lat="38.003616759131724" lon="-3.9215170880291463"><ele>223.99999999999997</ele><time>2026-04-27T13:01:43.001Z</time></trkpt><trkpt lat="38.00357115644873" lon="-3.9213948890125545"><ele>223.99999999999997</ele><time>2026-04-27T13:01:44.001Z</time></trkpt><trkpt lat="38.00353234198511" lon="-3.9212681219130667"><ele>224.0</ele><time>2026-04-27T13:01:45.001Z</time></trkpt><trkpt lat="38.003498739694564" lon="-3.9211437109992717"><ele>224.0</ele><time>2026-04-27T13:01:46.001Z</time></trkpt><trkpt lat="38.00346949124872" lon="-3.921024542591338"><ele>224.0</ele><time>2026-04-27T13:01:47.001Z</time></trkpt><trkpt lat="38.00344090260555" lon="-3.920906890773296"><ele>223.99999999999997</ele><time>2026-04-27T13:01:48.001Z</time></trkpt><trkpt lat="38.00341016085317" lon="-3.9207871733818935"><ele>223.99999999999997</ele><time>2026-04-27T13:01:49.001Z</time></trkpt><trkpt lat="38.00337896024083" lon="-3.9206631553243465"><ele>224.0</ele><time>2026-04-27T13:01:50.001Z</time></trkpt><trkpt lat="38.00334981148157" lon="-3.9205519534912563"><ele>224.0</ele><time>2026-04-27T13:01:51.001Z</time></trkpt><trkpt lat="38.00332300744802" lon="-3.920453035992716"><ele>224.85714285714286</ele><time>2026-04-27T13:01:52.001Z</time></trkpt><trkpt lat="38.00330489957006" lon="-3.9203576311873936"><ele>225.71428571428572</ele><time>2026-04-27T13:01:53.001Z</time></trkpt><trkpt lat="38.003280491141076" lon="-3.9202659958935127"><ele>226.57142857142856</ele><time>2026-04-27T13:01:54.001Z</time></trkpt><trkpt lat="38.00326737312265" lon="-3.9201819514453273"><ele>227.42857142857142</ele><time>2026-04-27T13:01:55.001Z</time></trkpt><trkpt lat="38.003262903339284" lon="-3.9200943845433915"><ele>228.28571428571428</ele><time>2026-04-27T13:01:56.001Z</time></trkpt><trkpt lat="38.00325380121405" lon="-3.9200033108801753"><ele>229.1428571428571</ele><time>2026-04-27T13:01:57.001Z</time></trkpt><trkpt lat="38.00325165626128" lon="-3.9199036678906696"><ele>229.99999999999997</ele><time>2026-04-27T13:01:58.001Z</time></trkpt><trkpt lat="38.00325755119646" lon="-3.9197994747008904"><ele>230.00000000000003</ele><time>2026-04-27T13:01:59.001Z</time></trkpt><trkpt lat="38.00325929854011" lon="-3.919691311185602"><ele>230.0</ele><time>2026-04-27T13:02:00.001Z</time></trkpt><trkpt lat="38.003265164411054" lon="-3.919577799369747"><ele>230.0</ele><time>2026-04-27T13:02:01.001Z</time></trkpt><trkpt lat="38.00327046174554" lon="-3.919461799731222"><ele>230.0</ele><time>2026-04-27T13:02:02.001Z</time></trkpt><trkpt lat="38.00326562259689" lon="-3.919348235647849"><ele>230.00000000000003</ele><time>2026-04-27T13:02:03.001Z</time></trkpt><trkpt lat="38.00325616304343" lon="-3.919239280775701"><ele>230.0</ele><time>2026-04-27T13:02:04.001Z</time></trkpt><trkpt lat="38.00324973493444" lon="-3.919132981793417"><ele>229.50000000000003</ele><time>2026-04-27T13:02:05.001Z</time></trkpt><trkpt lat="38.00324580916586" lon="-3.9190326335124674"><ele>229.0</ele><time>2026-04-27T13:02:06.001Z</time></trkpt><trkpt lat="38.00325748883041" lon="-3.9189242880787925"><ele>228.5</ele><time>2026-04-27T13:02:07.001Z</time></trkpt><trkpt lat="38.00326974896442" lon="-3.9188189394659725"><ele>228.0</ele><time>2026-04-27T13:02:08.001Z</time></trkpt><trkpt lat="38.003274447360425" lon="-3.9187131025797317"><ele>227.50000000000003</ele><time>2026-04-27T13:02:09.001Z</time></trkpt><trkpt lat="38.00328305237766" lon="-3.918614773014438"><ele>227.0</ele><time>2026-04-27T13:02:10.001Z</time></trkpt><trkpt lat="38.00329888913043" lon="-3.9185110245611376"><ele>226.66666666666669</ele><time>2026-04-27T13:02:11.001Z</time></trkpt><trkpt lat="38.00331344749467" lon="-3.918398321550971"><ele>226.33333333333334</ele><time>2026-04-27T13:02:12.001Z</time></trkpt><trkpt lat="38.003334994974466" lon="-3.918287887364483"><ele>226.0</ele><time>2026-04-27T13:02:13.001Z</time></trkpt><trkpt lat="38.00335899330819" lon="-3.9181887137375844"><ele>225.66666666666669</ele><time>2026-04-27T13:02:14.001Z</time></trkpt><trkpt lat="38.00338110805503" lon="-3.9180885156679888"><ele>225.33333333333334</ele><time>2026-04-27T13:02:15.001Z</time></trkpt><trkpt lat="38.003407883345275" lon="-3.918003263340886"><ele>225.0</ele><time>2026-04-27T13:02:16.001Z</time></trkpt><trkpt lat="38.00342791058312" lon="-3.9179049302485525"><ele>224.66666666666666</ele><time>2026-04-27T13:02:17.001Z</time></trkpt><trkpt lat="38.00345538444936" lon="-3.9178006289870515"><ele>224.33333333333331</ele><time>2026-04-27T13:02:18.001Z</time></trkpt><trkpt lat="38.003477281174604" lon="-3.9176967056730385"><ele>224.0</ele><time>2026-04-27T13:02:19.001Z</time></trkpt><trkpt lat="38.003497121832865" lon="-3.91759725383231"><ele>223.66666666666666</ele><time>2026-04-27T13:02:20.001Z</time></trkpt><trkpt lat="38.00351742473766" lon="-3.9175029906002328"><ele>223.33333333333331</ele><time>2026-04-27T13:02:21.001Z</time></trkpt><trkpt lat="38.0035359758249" lon="-3.9174069095437756"><ele>223.0</ele><time>2026-04-27T13:02:22.001Z</time></trkpt><trkpt lat="38.00356140409294" lon="-3.9173082474341454"><ele>222.99999999999997</ele><time>2026-04-27T13:02:23Z</time></trkpt><trkpt lat="38.0035796318612" lon="-3.9172058373048357"><ele>223.0</ele><time>2026-04-27T13:02:24Z</time></trkpt><trkpt lat="38.00359503130842" lon="-3.9171120766274923"><ele>223.0</ele><time>2026-04-27T13:02:25Z</time></trkpt><trkpt lat="38.00361760314988" lon="-3.9170250887030678"><ele>223.0</ele><time>2026-04-27T13:02:26Z</time></trkpt><trkpt lat="38.003633205595214" lon="-3.916928577231188"><ele>222.99999999999997</ele><time>2026-04-27T13:02:27Z</time></trkpt><trkpt lat="38.00364920583638" lon="-3.91681336025695"><ele>223.0</ele><time>2026-04-27T13:02:28Z</time></trkpt><trkpt lat="38.00366887001648" lon="-3.916699302343818"><ele>223.2</ele><time>2026-04-27T13:02:29Z</time></trkpt><trkpt lat="38.00368814153545" lon="-3.9165847265788263"><ele>223.4</ele><time>2026-04-27T13:02:30Z</time></trkpt><trkpt lat="38.00370256001454" lon="-3.916472203496374"><ele>223.59999999999997</ele><time>2026-04-27T13:02:31Z</time></trkpt><trkpt lat="38.00371725549208" lon="-3.9163716931262913"><ele>223.79999999999998</ele><time>2026-04-27T13:02:32Z</time></trkpt><trkpt lat="38.00372610641617" lon="-3.916286311855776"><ele>224.0</ele><time>2026-04-27T13:02:33.001Z</time></trkpt><trkpt lat="38.00374362530783" lon="-3.916134960181372"><ele>224.0</ele><time>2026-04-27T13:02:35.001Z</time></trkpt><trkpt lat="38.0037571827951" lon="-3.9160527266542178"><ele>224.0</ele><time>2026-04-27T13:02:36.001Z</time></trkpt><trkpt lat="38.003771539313725" lon="-3.915959804896188"><ele>224.0</ele><time>2026-04-27T13:02:37.001Z</time></trkpt><trkpt lat="38.00379007588519" lon="-3.915861294520104"><ele>224.0</ele><time>2026-04-27T13:02:38.001Z</time></trkpt><trkpt lat="38.00380589100299" lon="-3.915763248372511"><ele>224.0</ele><time>2026-04-27T13:02:39.001Z</time></trkpt><trkpt lat="38.00382286994889" lon="-3.915666948942579"><ele>224.0</ele><time>2026-04-27T13:02:40.001Z</time></trkpt><trkpt lat="38.00384633840809" lon="-3.915580590198702"><ele>224.0</ele><time>2026-04-27T13:02:41.001Z</time></trkpt><trkpt lat="38.00386535681011" lon="-3.9154923064005236"><ele>224.0</ele><time>2026-04-27T13:02:42.001Z</time></trkpt><trkpt lat="38.003897567775866" lon="-3.915352639243453"><ele>223.99999999999997</ele><time>2026-04-27T13:02:44.001Z</time></trkpt><trkpt lat="38.003930319596336" lon="-3.91522741092047"><ele>223.99999999999997</ele><time>2026-04-27T13:02:46.001Z</time></trkpt><trkpt lat="38.00396377546276" lon="-3.91509457569113"><ele>224.0</ele><time>2026-04-27T13:02:48.001Z</time></trkpt><trkpt lat="38.00400023537314" lon="-3.914957243002273"><ele>224.0</ele><time>2026-04-27T13:02:50.001Z</time></trkpt><trkpt lat="38.00404069260162" lon="-3.914804951369468"><ele>224.0</ele><time>2026-04-27T13:02:52.001Z</time></trkpt><trkpt lat="38.0040807238554" lon="-3.914660914039627"><ele>224.0</ele><time>2026-04-27T13:02:54.001Z</time></trkpt><trkpt lat="38.00412293587298" lon="-3.914530685384967"><ele>224.0</ele><time>2026-04-27T13:02:56.001Z</time></trkpt><trkpt lat="38.004159799776275" lon="-3.914391861044568"><ele>224.0</ele><time>2026-04-27T13:02:58.001Z</time></trkpt><trkpt lat="38.00419212905571" lon="-3.914259231265842"><ele>223.85714285714286</ele><time>2026-04-27T13:03:00.001Z</time></trkpt><trkpt lat="38.004200678927255" lon="-3.9141743245228975"><ele>223.71428571428572</ele><time>2026-04-27T13:03:01.001Z</time></trkpt><trkpt lat="38.0041984353909" lon="-3.914076260703433"><ele>223.57142857142856</ele><time>2026-04-27T13:03:02.001Z</time></trkpt><trkpt lat="38.00418790676449" lon="-3.913975353528068"><ele>223.42857142857144</ele><time>2026-04-27T13:03:03.001Z</time></trkpt><trkpt lat="38.00417391079462" lon="-3.9138857024315654"><ele>223.28571428571428</ele><time>2026-04-27T13:03:04.001Z</time></trkpt><trkpt lat="38.004159276926394" lon="-3.913798567725654"><ele>223.14285714285714</ele><time>2026-04-27T13:03:05.001Z</time></trkpt><trkpt lat="38.00414357382701" lon="-3.9137158642907433"><ele>223.0</ele><time>2026-04-27T13:03:06.001Z</time></trkpt><trkpt lat="38.00412257173391" lon="-3.913587836845171"><ele>223.4</ele><time>2026-04-27T13:03:08.001Z</time></trkpt><trkpt lat="38.00409498690936" lon="-3.9134774162985693"><ele>223.8</ele><time>2026-04-27T13:03:10.001Z</time></trkpt><trkpt lat="38.00407385714797" lon="-3.9133542125566727"><ele>224.2</ele><time>2026-04-27T13:03:12.001Z</time></trkpt><trkpt lat="38.00403828366655" lon="-3.913203322108358"><ele>224.6</ele><time>2026-04-27T13:03:14.001Z</time></trkpt><trkpt lat="38.0040207229522" lon="-3.913111580147892"><ele>225.0</ele><time>2026-04-27T13:03:15.001Z</time></trkpt><trkpt lat="38.0040039243394" lon="-3.9130128043107324"><ele>225.0</ele><time>2026-04-27T13:03:16.001Z</time></trkpt><trkpt lat="38.003986069192074" lon="-3.912912328177861"><ele>225.0</ele><time>2026-04-27T13:03:17.001Z</time></trkpt><trkpt lat="38.003961095221" lon="-3.912815679570653"><ele>225.0</ele><time>2026-04-27T13:03:18.001Z</time></trkpt><trkpt lat="38.0039392245331" lon="-3.9126927467074575"><ele>225.0</ele><time>2026-04-27T13:03:20.001Z</time></trkpt><trkpt lat="38.00390920989354" lon="-3.912547055063621"><ele>225.0</ele><time>2026-04-27T13:03:22.001Z</time></trkpt><trkpt lat="38.003892060115746" lon="-3.9124522035977987"><ele>225.0</ele><time>2026-04-27T13:03:23.001Z</time></trkpt><trkpt lat="38.003864307784355" lon="-3.912342230154683"><ele>225.0</ele><time>2026-04-27T13:03:24.001Z</time></trkpt><trkpt lat="38.003842746809774" lon="-3.912212650118387"><ele>225.0</ele><time>2026-04-27T13:03:25.001Z</time></trkpt><trkpt lat="38.003812030288586" lon="-3.9120714453564567"><ele>225.0</ele><time>2026-04-27T13:03:26.001Z</time></trkpt><trkpt lat="38.003778954462405" lon="-3.9119194485305493"><ele>225.0</ele><time>2026-04-27T13:03:27.001Z</time></trkpt><trkpt lat="38.00375017946605" lon="-3.9117669272970117"><ele>224.5</ele><time>2026-04-27T13:03:28.001Z</time></trkpt><trkpt lat="38.00371702708402" lon="-3.9116025361037563"><ele>224.0</ele><time>2026-04-27T13:03:29.001Z</time></trkpt><trkpt lat="38.003680603581046" lon="-3.9114291890222725"><ele>223.5</ele><time>2026-04-27T13:03:30.001Z</time></trkpt><trkpt lat="38.003648632731135" lon="-3.911252243391708"><ele>223.0</ele><time>2026-04-27T13:03:31.001Z</time></trkpt><trkpt lat="38.003611615974975" lon="-3.9110675972757587"><ele>223.0</ele><time>2026-04-27T13:03:32.001Z</time></trkpt><trkpt lat="38.003571628271196" lon="-3.9108883746052308"><ele>223.0</ele><time>2026-04-27T13:03:33.001Z</time></trkpt><trkpt lat="38.00353027696654" lon="-3.9107105941272176"><ele>223.0</ele><time>2026-04-27T13:03:34.001Z</time></trkpt><trkpt lat="38.00348629993899" lon="-3.910540093435303"><ele>223.0</ele><time>2026-04-27T13:03:35.001Z</time></trkpt><trkpt lat="38.00344822596949" lon="-3.910382653917129"><ele>223.0</ele><time>2026-04-27T13:03:36.001Z</time></trkpt><trkpt lat="38.003414234259374" lon="-3.9102253071816597"><ele>223.0</ele><time>2026-04-27T13:03:37.001Z</time></trkpt><trkpt lat="38.003375268124046" lon="-3.910067694344777"><ele>223.0</ele><time>2026-04-27T13:03:38.001Z</time></trkpt><trkpt lat="38.003332039116195" lon="-3.909906112040077"><ele>223.0</ele><time>2026-04-27T13:03:39.001Z</time></trkpt><trkpt lat="38.0032860586473" lon="-3.9097315988906547"><ele>223.66666666666666</ele><time>2026-04-27T13:03:40.001Z</time></trkpt><trkpt lat="38.00322641352469" lon="-3.909528145293102"><ele>224.33333333333331</ele><time>2026-04-27T13:03:41.001Z</time></trkpt><trkpt lat="38.003167904121966" lon="-3.9092926254685048"><ele>225.0</ele><time>2026-04-27T13:03:42.001Z</time></trkpt><trkpt lat="38.0031004327894" lon="-3.9090334638460624"><ele>225.0</ele><time>2026-04-27T13:03:43.001Z</time></trkpt><trkpt lat="38.00303162106782" lon="-3.9087714107455"><ele>225.0</ele><time>2026-04-27T13:03:44.001Z</time></trkpt><trkpt lat="38.00295740092745" lon="-3.9084933807891016"><ele>225.0</ele><time>2026-04-27T13:03:45.001Z</time></trkpt><trkpt lat="38.00287950290037" lon="-3.9082045819561193"><ele>226.0</ele><time>2026-04-27T13:03:46.001Z</time></trkpt><trkpt lat="38.00280714892308" lon="-3.9079382010598107"><ele>227.0</ele><time>2026-04-27T13:03:47.001Z</time></trkpt><trkpt lat="38.002743080862956" lon="-3.9077027758605762"><ele>228.0</ele><time>2026-04-27T13:03:48.001Z</time></trkpt><trkpt lat="38.00266161429849" lon="-3.907470135118802"><ele>229.33333333333331</ele><time>2026-04-27T13:03:49.001Z</time></trkpt><trkpt lat="38.00255249189876" lon="-3.9072550770829517"><ele>230.66666666666666</ele><time>2026-04-27T13:03:50.001Z</time></trkpt><trkpt lat="38.00242785516081" lon="-3.9070584912668394"><ele>232.0</ele><time>2026-04-27T13:03:51.001Z</time></trkpt><trkpt lat="38.00230373147175" lon="-3.9068726470597155"><ele>235.33333333333331</ele><time>2026-04-27T13:03:52.001Z</time></trkpt><trkpt lat="38.002186330378706" lon="-3.90670431282018"><ele>238.66666666666669</ele><time>2026-04-27T13:03:53.001Z</time></trkpt><trkpt lat="38.00207919171256" lon="-3.906548759098274"><ele>242.0</ele><time>2026-04-27T13:03:54.001Z</time></trkpt><trkpt lat="38.00196979613894" lon="-3.9063797640831104"><ele>242.0</ele><time>2026-04-27T13:03:55.001Z</time></trkpt><trkpt lat="38.001858561455826" lon="-3.9062061357074027"><ele>242.0</ele><time>2026-04-27T13:03:56.001Z</time></trkpt><trkpt lat="38.001739093349535" lon="-3.9060272761320336"><ele>242.0</ele><time>2026-04-27T13:03:57.001Z</time></trkpt><trkpt lat="38.00161970623645" lon="-3.905861061523229"><ele>242.33333333333334</ele><time>2026-04-27T13:03:58.001Z</time></trkpt><trkpt lat="38.00148135171813" lon="-3.905691007543435"><ele>242.66666666666669</ele><time>2026-04-27T13:03:59.001Z</time></trkpt><trkpt lat="38.00133408450488" lon="-3.9055251661268127"><ele>243.0</ele><time>2026-04-27T13:04:00.001Z</time></trkpt><trkpt lat="38.00117178364384" lon="-3.9053676452260406"><ele>243.0</ele><time>2026-04-27T13:04:01.001Z</time></trkpt><trkpt lat="38.000996946716576" lon="-3.9052236221811354"><ele>243.0</ele><time>2026-04-27T13:04:02.001Z</time></trkpt><trkpt lat="38.00081526013443" lon="-3.905092531568203"><ele>243.0</ele><time>2026-04-27T13:04:03.001Z</time></trkpt><trkpt lat="38.00062558594244" lon="-3.9049695337347647"><ele>241.0</ele><time>2026-04-27T13:04:04.001Z</time></trkpt><trkpt lat="38.000438688391114" lon="-3.904860018584261"><ele>239.0</ele><time>2026-04-27T13:04:05.001Z</time></trkpt><trkpt lat="38.00024490863212" lon="-3.904752752531796"><ele>237.0</ele><time>2026-04-27T13:04:06.001Z</time></trkpt><trkpt lat="38.00004042715708" lon="-3.9046383934310116"><ele>237.0</ele><time>2026-04-27T13:04:07.001Z</time></trkpt><trkpt lat="37.99983124214926" lon="-3.9045180832156587"><ele>237.0</ele><time>2026-04-27T13:04:08.001Z</time></trkpt><trkpt lat="37.999619277842484" lon="-3.904387861009126"><ele>237.0</ele><time>2026-04-27T13:04:09.001Z</time></trkpt><trkpt lat="37.99938970634876" lon="-3.90425062931036"><ele>237.0</ele><time>2026-04-27T13:04:10.001Z</time></trkpt><trkpt lat="37.9991271032924" lon="-3.9041055234643953"><ele>237.5</ele><time>2026-04-27T13:04:11.001Z</time></trkpt><trkpt lat="37.99884242214161" lon="-3.9039465327188436"><ele>238.0</ele><time>2026-04-27T13:04:12.001Z</time></trkpt><trkpt lat="37.998550557951916" lon="-3.9037845724601823"><ele>239.5</ele><time>2026-04-27T13:04:13.001Z</time></trkpt><trkpt lat="37.99828958833641" lon="-3.903632926003285"><ele>241.0</ele><time>2026-04-27T13:04:14.001Z</time></trkpt><trkpt lat="37.99805210401709" lon="-3.90349245174341"><ele>242.5</ele><time>2026-04-27T13:04:15.001Z</time></trkpt><trkpt lat="37.99782395539395" lon="-3.9033619108914777"><ele>244.0</ele><time>2026-04-27T13:04:16.001Z</time></trkpt><trkpt lat="37.99760236801251" lon="-3.903239129360144"><ele>245.0</ele><time>2026-04-27T13:04:17.001Z</time></trkpt><trkpt lat="37.99738298187778" lon="-3.9031151993540694"><ele>246.0</ele><time>2026-04-27T13:04:18.001Z</time></trkpt><trkpt lat="37.997157192567876" lon="-3.902985870168875"><ele>246.0</ele><time>2026-04-27T13:04:19.001Z</time></trkpt><trkpt lat="37.99693715359567" lon="-3.902852164978227"><ele>246.0</ele><time>2026-04-27T13:04:20.001Z</time></trkpt><trkpt lat="37.99671553594068" lon="-3.9027133068892934"><ele>250.5</ele><time>2026-04-27T13:04:21Z</time></trkpt><trkpt lat="37.996493944716825" lon="-3.9025637437970984"><ele>255.0</ele><time>2026-04-27T13:04:22Z</time></trkpt><trkpt lat="37.99628309536922" lon="-3.9023996703877386"><ele>255.0</ele><time>2026-04-27T13:04:23Z</time></trkpt><trkpt lat="37.9960729834823" lon="-3.902219709005774"><ele>255.0</ele><time>2026-04-27T13:04:24Z</time></trkpt><trkpt lat="37.99587391471047" lon="-3.90202924553425"><ele>254.5</ele><time>2026-04-27T13:04:25Z</time></trkpt><trkpt lat="37.99566483085731" lon="-3.901855424204716"><ele>254.0</ele><time>2026-04-27T13:04:26Z</time></trkpt><trkpt lat="37.99549162216075" lon="-3.9016211245438206"><ele>258.0</ele><time>2026-04-27T13:04:27Z</time></trkpt><trkpt lat="37.99530276245167" lon="-3.9013995822083274"><ele>262.0</ele><time>2026-04-27T13:04:28Z</time></trkpt><trkpt lat="37.99512505622642" lon="-3.9011795351166914"><ele>263.5</ele><time>2026-04-27T13:04:29Z</time></trkpt><trkpt lat="37.99494652672526" lon="-3.900956018215578"><ele>265.0</ele><time>2026-04-27T13:04:30Z</time></trkpt><trkpt lat="37.99477742880456" lon="-3.9007359989567516"><ele>266.5</ele><time>2026-04-27T13:04:31Z</time></trkpt><trkpt lat="37.99461038193812" lon="-3.9005127986897254"><ele>268.0</ele><time>2026-04-27T13:04:32Z</time></trkpt><trkpt lat="37.994445592299485" lon="-3.900289856525792"><ele>268.5</ele><time>2026-04-27T13:04:33Z</time></trkpt><trkpt lat="37.99428759717287" lon="-3.9000733257973605"><ele>269.0</ele><time>2026-04-27T13:04:34Z</time></trkpt><trkpt lat="37.99412470992829" lon="-3.899855636481029"><ele>272.0</ele><time>2026-04-27T13:04:35Z</time></trkpt><trkpt lat="37.99397284805677" lon="-3.89964711700882"><ele>275.0</ele><time>2026-04-27T13:04:36Z</time></trkpt><trkpt lat="37.993822511661996" lon="-3.899443087760146"><ele>278.0</ele><time>2026-04-27T13:04:37Z</time></trkpt><trkpt lat="37.99367065462304" lon="-3.8992390569288458"><ele>278.33333333333337</ele><time>2026-04-27T13:04:38Z</time></trkpt><trkpt lat="37.993520938472685" lon="-3.899033188011932"><ele>278.6666666666667</ele><time>2026-04-27T13:04:39Z</time></trkpt><trkpt lat="37.99336984226382" lon="-3.8988260737707243"><ele>279.0</ele><time>2026-04-27T13:04:40Z</time></trkpt><trkpt lat="37.9932134704277" lon="-3.8986185354324676"><ele>281.5</ele><time>2026-04-27T13:04:41Z</time></trkpt><trkpt lat="37.99305348387821" lon="-3.8984066293782216"><ele>284.0</ele><time>2026-04-27T13:04:42Z</time></trkpt><trkpt lat="37.99289277795774" lon="-3.8981916817179316"><ele>284.0</ele><time>2026-04-27T13:04:43Z</time></trkpt><trkpt lat="37.9927318846881" lon="-3.8979729240195415"><ele>284.0</ele><time>2026-04-27T13:04:44Z</time></trkpt><trkpt lat="37.99256937877987" lon="-3.8977493600642616"><ele>282.5</ele><time>2026-04-27T13:04:45Z</time></trkpt><trkpt lat="37.99240744577497" lon="-3.897525052905253"><ele>281.0</ele><time>2026-04-27T13:04:46Z</time></trkpt><trkpt lat="37.9922436991358" lon="-3.8972947873196615"><ele>281.0</ele><time>2026-04-27T13:04:47Z</time></trkpt><trkpt lat="37.99208180873416" lon="-3.897071776713615"><ele>281.0</ele><time>2026-04-27T13:04:48Z</time></trkpt><trkpt lat="37.99192007441229" lon="-3.896854079341725"><ele>283.0</ele><time>2026-04-27T13:04:49Z</time></trkpt><trkpt lat="37.9917598625133" lon="-3.896635937950338"><ele>285.0</ele><time>2026-04-27T13:04:50Z</time></trkpt><trkpt lat="37.991601047778104" lon="-3.89641758218666"><ele>286.0</ele><time>2026-04-27T13:04:51Z</time></trkpt><trkpt lat="37.991443708187205" lon="-3.8962050416110294"><ele>287.0</ele><time>2026-04-27T13:04:52Z</time></trkpt><trkpt lat="37.99128817096041" lon="-3.8959967158221427"><ele>288.0</ele><time>2026-04-27T13:04:53Z</time></trkpt><trkpt lat="37.991132129442505" lon="-3.8957906123134163"><ele>289.0</ele><time>2026-04-27T13:04:54Z</time></trkpt><trkpt lat="37.99097746065481" lon="-3.895588037974852"><ele>290.0</ele><time>2026-04-27T13:04:55Z</time></trkpt><trkpt lat="37.990816704756746" lon="-3.8953774473779474"><ele>291.5</ele><time>2026-04-27T13:04:56Z</time></trkpt><trkpt lat="37.99065749464633" lon="-3.895164594575402"><ele>293.0</ele><time>2026-04-27T13:04:57Z</time></trkpt><trkpt lat="37.99049621906516" lon="-3.8949453308418236"><ele>294.5</ele><time>2026-04-27T13:04:58Z</time></trkpt><trkpt lat="37.9903375897316" lon="-3.8947266883449823"><ele>296.0</ele><time>2026-04-27T13:04:59Z</time></trkpt><trkpt lat="37.99018131452571" lon="-3.8945097745420765"><ele>296.0</ele><time>2026-04-27T13:05:00Z</time></trkpt><trkpt lat="37.99002476139344" lon="-3.8942946341009397"><ele>296.0</ele><time>2026-04-27T13:05:01Z</time></trkpt><trkpt lat="37.98987044241207" lon="-3.894081184419394"><ele>297.0</ele><time>2026-04-27T13:05:02Z</time></trkpt><trkpt lat="37.98971597255549" lon="-3.893869781881126"><ele>298.0</ele><time>2026-04-27T13:05:03Z</time></trkpt><trkpt lat="37.98955855178659" lon="-3.8936543374622135"><ele>298.0</ele><time>2026-04-27T13:05:04Z</time></trkpt><trkpt lat="37.98940316190747" lon="-3.8934438066595085"><ele>298.0</ele><time>2026-04-27T13:05:05Z</time></trkpt><trkpt lat="37.9892426625354" lon="-3.893226158035524"><ele>299.5</ele><time>2026-04-27T13:05:06Z</time></trkpt><trkpt lat="37.98908496114088" lon="-3.8930138409686057"><ele>301.0</ele><time>2026-04-27T13:05:07Z</time></trkpt><trkpt lat="37.98892504974629" lon="-3.8928005196346644"><ele>299.5</ele><time>2026-04-27T13:05:08Z</time></trkpt><trkpt lat="37.98876491164398" lon="-3.8925891209368872"><ele>298.0</ele><time>2026-04-27T13:05:09Z</time></trkpt><trkpt lat="37.98861176022091" lon="-3.892380101701906"><ele>298.0</ele><time>2026-04-27T13:05:10Z</time></trkpt><trkpt lat="37.98846948290344" lon="-3.8921592297379575"><ele>298.0</ele><time>2026-04-27T13:05:11Z</time></trkpt><trkpt lat="37.9883505762278" lon="-3.891918177358277"><ele>298.0</ele><time>2026-04-27T13:05:12Z</time></trkpt><trkpt lat="37.98824933054389" lon="-3.891654708975195"><ele>297.66666666666663</ele><time>2026-04-27T13:05:13Z</time></trkpt><trkpt lat="37.988164948951805" lon="-3.8913997717707036"><ele>297.3333333333333</ele><time>2026-04-27T13:05:14Z</time></trkpt><trkpt lat="37.988075455850456" lon="-3.8911480094346516"><ele>297.0</ele><time>2026-04-27T13:05:15Z</time></trkpt><trkpt lat="37.98797978936141" lon="-3.8908871818348114"><ele>295.0</ele><time>2026-04-27T13:05:16Z</time></trkpt><trkpt lat="37.98788211248609" lon="-3.8906209106244694"><ele>293.0</ele><time>2026-04-27T13:05:17Z</time></trkpt><trkpt lat="37.98777976097027" lon="-3.890343840723647"><ele>290.0</ele><time>2026-04-27T13:05:18Z</time></trkpt><trkpt lat="37.98767625775615" lon="-3.890076081713396"><ele>287.0</ele><time>2026-04-27T13:05:19Z</time></trkpt><trkpt lat="37.98757402013009" lon="-3.889815195855185"><ele>286.33333333333337</ele><time>2026-04-27T13:05:20Z</time></trkpt><trkpt lat="37.98747588816055" lon="-3.889564451147407"><ele>285.6666666666667</ele><time>2026-04-27T13:05:21Z</time></trkpt><trkpt lat="37.98737956036489" lon="-3.8893280924979385"><ele>285.0</ele><time>2026-04-27T13:05:22Z</time></trkpt><trkpt lat="37.987268355271326" lon="-3.8891058331746224"><ele>283.0</ele><time>2026-04-27T13:05:23Z</time></trkpt><trkpt lat="37.987148584292136" lon="-3.888903324007456"><ele>281.0</ele><time>2026-04-27T13:05:24Z</time></trkpt><trkpt lat="37.987035351563634" lon="-3.8887063308061403"><ele>279.0</ele><time>2026-04-27T13:05:25Z</time></trkpt><trkpt lat="37.98693491149847" lon="-3.8885126561478476"><ele>276.3333333333333</ele><time>2026-04-27T13:05:26Z</time></trkpt><trkpt lat="37.98685474583017" lon="-3.888317460257849"><ele>273.66666666666663</ele><time>2026-04-27T13:05:27Z</time></trkpt><trkpt lat="37.98679857205026" lon="-3.8881039267474153"><ele>271.0</ele><time>2026-04-27T13:05:28Z</time></trkpt><trkpt lat="37.986755995253084" lon="-3.8878542680846295"><ele>270.66666666666663</ele><time>2026-04-27T13:05:29Z</time></trkpt><trkpt lat="37.98671992945863" lon="-3.8875850824554155"><ele>270.3333333333333</ele><time>2026-04-27T13:05:30Z</time></trkpt><trkpt lat="37.98667819414055" lon="-3.887322165690551"><ele>270.0</ele><time>2026-04-27T13:05:31Z</time></trkpt><trkpt lat="37.986635355943676" lon="-3.8870849891724433"><ele>270.6666666666667</ele><time>2026-04-27T13:05:32Z</time></trkpt><trkpt lat="37.986592555700014" lon="-3.886862620666311"><ele>271.33333333333337</ele><time>2026-04-27T13:05:33Z</time></trkpt><trkpt lat="37.98655356858729" lon="-3.886640611641143"><ele>272.0</ele><time>2026-04-27T13:05:34Z</time></trkpt><trkpt lat="37.98651188162118" lon="-3.8864206251579683"><ele>272.6666666666667</ele><time>2026-04-27T13:05:35Z</time></trkpt><trkpt lat="37.986474898968495" lon="-3.886205434692773"><ele>273.3333333333333</ele><time>2026-04-27T13:05:36Z</time></trkpt><trkpt lat="37.986435480580475" lon="-3.885993031605909"><ele>274.0</ele><time>2026-04-27T13:05:37Z</time></trkpt><trkpt lat="37.98638874427603" lon="-3.885786988668233"><ele>274.75</ele><time>2026-04-27T13:05:38Z</time></trkpt><trkpt lat="37.98633263506636" lon="-3.885598764439846"><ele>275.5</ele><time>2026-04-27T13:05:39Z</time></trkpt><trkpt lat="37.98626775772777" lon="-3.885456788656951"><ele>276.25</ele><time>2026-04-27T13:05:40Z</time></trkpt><trkpt lat="37.98620540010596" lon="-3.885338250096991"><ele>277.0</ele><time>2026-04-27T13:05:41Z</time></trkpt><trkpt lat="37.98614881671568" lon="-3.88524667411775"><ele>277.0</ele><time>2026-04-27T13:05:42Z</time></trkpt><trkpt lat="37.98610424889436" lon="-3.8851694816344287"><ele>277.0</ele><time>2026-04-27T13:05:43Z</time></trkpt><trkpt lat="37.98606372497378" lon="-3.885098486184425"><ele>277.0</ele><time>2026-04-27T13:05:44Z</time></trkpt><trkpt lat="37.98602063067221" lon="-3.8850321024595114"><ele>277.0</ele><time>2026-04-27T13:05:45Z</time></trkpt><trkpt lat="37.98597225904053" lon="-3.8849546131153807"><ele>277.0</ele><time>2026-04-27T13:05:46Z</time></trkpt><trkpt lat="37.9859288104418" lon="-3.884853381092937"><ele>277.0</ele><time>2026-04-27T13:05:47Z</time></trkpt><trkpt lat="37.98590709360523" lon="-3.8847372701948886"><ele>278.6</ele><time>2026-04-27T13:05:48Z</time></trkpt><trkpt lat="37.98591159941693" lon="-3.884612369920124"><ele>280.2</ele><time>2026-04-27T13:05:49Z</time></trkpt><trkpt lat="37.98593142766143" lon="-3.8844647628236357"><ele>281.8</ele><time>2026-04-27T13:05:50Z</time></trkpt><trkpt lat="37.985936987271195" lon="-3.884317785703195"><ele>283.4</ele><time>2026-04-27T13:05:51Z</time></trkpt><trkpt lat="37.98593490458945" lon="-3.8841724869600505"><ele>285.0</ele><time>2026-04-27T13:05:52Z</time></trkpt><trkpt lat="37.98593723632929" lon="-3.8840280481786245"><ele>286.25</ele><time>2026-04-27T13:05:53Z</time></trkpt><trkpt lat="37.98593518224189" lon="-3.8838858209182385"><ele>287.5</ele><time>2026-04-27T13:05:54Z</time></trkpt><trkpt lat="37.98590345844404" lon="-3.8837280388530915"><ele>288.75</ele><time>2026-04-27T13:05:55Z</time></trkpt><trkpt lat="37.98587406965081" lon="-3.8835558700604276"><ele>290.0</ele><time>2026-04-27T13:05:56Z</time></trkpt><trkpt lat="37.985842300790715" lon="-3.883440999256272"><ele>291.2</ele><time>2026-04-27T13:05:57Z</time></trkpt><trkpt lat="37.98582226037915" lon="-3.8832901038389416"><ele>292.4</ele><time>2026-04-27T13:05:58Z</time></trkpt><trkpt lat="37.985789050849746" lon="-3.883148905163093"><ele>293.6</ele><time>2026-04-27T13:05:59.001Z</time></trkpt><trkpt lat="37.98577481684024" lon="-3.883031497379062"><ele>294.8</ele><time>2026-04-27T13:06:00.001Z</time></trkpt><trkpt lat="37.985769055561136" lon="-3.8828957630712266"><ele>296.0</ele><time>2026-04-27T13:06:02.001Z</time></trkpt><trkpt lat="37.985776719793506" lon="-3.8828148704336627"><ele>296.0</ele><time>2026-04-27T13:06:04.001Z</time></trkpt><trkpt lat="37.98568698763486" lon="-3.882817899893855"><ele>296.0</ele><time>2026-04-27T13:06:06.001Z</time></trkpt><trkpt lat="37.98560028218025" lon="-3.882810623915542"><ele>296.0</ele><time>2026-04-27T13:06:07.001Z</time></trkpt><trkpt lat="37.9854838811392" lon="-3.8828008559924556"><ele>296.0</ele><time>2026-04-27T13:06:08.001Z</time></trkpt><trkpt lat="37.985373037423" lon="-3.8827919492017293"><ele>296.0</ele><time>2026-04-27T13:06:09.001Z</time></trkpt><trkpt lat="37.98526774082966" lon="-3.882783789032532"><ele>296.0</ele><time>2026-04-27T13:06:10.001Z</time></trkpt><trkpt lat="37.98517607775353" lon="-3.882776685420421"><ele>296.0</ele><time>2026-04-27T13:06:11.001Z</time></trkpt><trkpt lat="37.98508981608305" lon="-3.8827700003990406"><ele>296.0</ele><time>2026-04-27T13:06:12.001Z</time></trkpt><trkpt lat="37.98502033483257" lon="-3.8827450002750443"><ele>296.0</ele><time>2026-04-27T13:06:13.001Z</time></trkpt><trkpt lat="37.984947281507175" lon="-3.882741628096851"><ele>296.0</ele><time>2026-04-27T13:06:14.001Z</time></trkpt><trkpt lat="37.98487332918671" lon="-3.882738828767757"><ele>296.0</ele><time>2026-04-27T13:06:15Z</time></trkpt><trkpt lat="37.98480156510123" lon="-3.8827278172455864"><ele>295.8</ele><time>2026-04-27T13:06:16Z</time></trkpt><trkpt lat="37.98473201679124" lon="-3.8827104093971316"><ele>295.6</ele><time>2026-04-27T13:06:17Z</time></trkpt><trkpt lat="37.98462675146262" lon="-3.8826327593877905"><ele>295.4</ele><time>2026-04-27T13:06:19Z</time></trkpt><trkpt lat="37.98454405323709" lon="-3.8825307934917412"><ele>295.2</ele><time>2026-04-27T13:06:21Z</time></trkpt><trkpt lat="37.98444156293945" lon="-3.882461702670753"><ele>295.0</ele><time>2026-04-27T13:06:23Z</time></trkpt><trkpt lat="37.984343303103685" lon="-3.882372567319954"><ele>296.0</ele><time>2026-04-27T13:06:25Z</time></trkpt><trkpt lat="37.98426258408568" lon="-3.8823005786189673"><ele>297.0</ele><time>2026-04-27T13:06:27Z</time></trkpt><trkpt lat="37.9842168146503" lon="-3.8822339794867142"><ele>298.0</ele><time>2026-04-27T13:06:30Z</time></trkpt><trkpt lat="37.98426068016301" lon="-3.882089065156041"><ele>299.0</ele><time>2026-04-27T13:06:34Z</time></trkpt><trkpt lat="37.98430184153118" lon="-3.8819901072456218"><ele>300.0</ele><time>2026-04-27T13:06:36Z</time></trkpt><trkpt lat="37.98423292718942" lon="-3.8818169490907466"><ele>299.75</ele><time>2026-04-27T13:06:38Z</time></trkpt><trkpt lat="37.984193255767956" lon="-3.881697647360874"><ele>299.5</ele><time>2026-04-27T13:06:40Z</time></trkpt><trkpt lat="37.98413244557265" lon="-3.8815428578477067"><ele>299.25</ele><time>2026-04-27T13:06:42Z</time></trkpt><trkpt lat="37.98406785907836" lon="-3.881424910255861"><ele>299.0</ele><time>2026-04-27T13:06:44Z</time></trkpt><trkpt lat="37.98402043964292" lon="-3.881272047297759"><ele>299.0</ele><time>2026-04-27T13:06:46Z</time></trkpt><trkpt lat="37.983988986303316" lon="-3.88118153575268"><ele>299.0</ele><time>2026-04-27T13:06:47Z</time></trkpt><trkpt lat="37.98395525912052" lon="-3.8810912319354594"><ele>299.0</ele><time>2026-04-27T13:06:48Z</time></trkpt><trkpt lat="37.983929701566694" lon="-3.880986398052567"><ele>299.0</ele><time>2026-04-27T13:06:49Z</time></trkpt><trkpt lat="37.98389432873343" lon="-3.8808885350403073"><ele>299.0</ele><time>2026-04-27T13:06:50Z</time></trkpt><trkpt lat="37.9838640561699" lon="-3.880799399465477"><ele>299.0</ele><time>2026-04-27T13:06:51Z</time></trkpt><trkpt lat="37.9838242777108" lon="-3.880720745876099"><ele>299.8</ele><time>2026-04-27T13:06:52Z</time></trkpt><trkpt lat="37.983798857668674" lon="-3.880638403246779"><ele>300.59999999999997</ele><time>2026-04-27T13:06:53Z</time></trkpt><trkpt lat="37.98376700427818" lon="-3.880558412710312"><ele>301.4</ele><time>2026-04-27T13:06:54Z</time></trkpt><trkpt lat="37.983709326797516" lon="-3.880412634199148"><ele>302.2</ele><time>2026-04-27T13:06:56Z</time></trkpt><trkpt lat="37.983672833897586" lon="-3.880320879516771"><ele>303.0</ele><time>2026-04-27T13:06:57Z</time></trkpt><trkpt lat="37.98362816155902" lon="-3.8802064474315427"><ele>303.0</ele><time>2026-04-27T13:06:58Z</time></trkpt><trkpt lat="37.98359991192673" lon="-3.880113325158797"><ele>303.0</ele><time>2026-04-27T13:06:59Z</time></trkpt><trkpt lat="37.98356811558792" lon="-3.8800187083661215"><ele>303.0</ele><time>2026-04-27T13:07:00Z</time></trkpt><trkpt lat="37.98353542811991" lon="-3.879904122372368"><ele>303.0</ele><time>2026-04-27T13:07:01Z</time></trkpt><trkpt lat="37.98350505555112" lon="-3.8798045282531275"><ele>303.0</ele><time>2026-04-27T13:07:02Z</time></trkpt><trkpt lat="37.98348500173977" lon="-3.8797136495433397"><ele>303.0</ele><time>2026-04-27T13:07:03Z</time></trkpt><trkpt lat="37.98346172455723" lon="-3.879624294629565"><ele>303.1666666666667</ele><time>2026-04-27T13:07:04Z</time></trkpt><trkpt lat="37.98343990633154" lon="-3.879529571483181"><ele>303.3333333333333</ele><time>2026-04-27T13:07:05Z</time></trkpt><trkpt lat="37.98341488294782" lon="-3.8794373868742205"><ele>303.5</ele><time>2026-04-27T13:07:06Z</time></trkpt><trkpt lat="37.983380962674566" lon="-3.8793168801743607"><ele>303.66666666666663</ele><time>2026-04-27T13:07:07Z</time></trkpt><trkpt lat="37.983353165959905" lon="-3.879211201778892"><ele>303.8333333333333</ele><time>2026-04-27T13:07:08Z</time></trkpt><trkpt lat="37.983333031611984" lon="-3.879100530640008"><ele>304.0</ele><time>2026-04-27T13:07:09Z</time></trkpt><trkpt lat="37.98330878400422" lon="-3.8789775983378134"><ele>304.0</ele><time>2026-04-27T13:07:10Z</time></trkpt><trkpt lat="37.983277729751165" lon="-3.8788657676446343"><ele>304.0</ele><time>2026-04-27T13:07:11Z</time></trkpt><trkpt lat="37.98324995196918" lon="-3.878765325911386"><ele>304.0</ele><time>2026-04-27T13:07:12Z</time></trkpt><trkpt lat="37.98321559015172" lon="-3.8786538028080066"><ele>304.0</ele><time>2026-04-27T13:07:13Z</time></trkpt><trkpt lat="37.98317911198432" lon="-3.878542731410713"><ele>304.0</ele><time>2026-04-27T13:07:14Z</time></trkpt><trkpt lat="37.98314129772312" lon="-3.878428777762922"><ele>304.2</ele><time>2026-04-27T13:07:15Z</time></trkpt><trkpt lat="37.98310313896109" lon="-3.878313714898616"><ele>304.4</ele><time>2026-04-27T13:07:16Z</time></trkpt><trkpt lat="37.98306654540788" lon="-3.878204560089655"><ele>304.6</ele><time>2026-04-27T13:07:17Z</time></trkpt><trkpt lat="37.98303416193067" lon="-3.87810318204897"><ele>304.8</ele><time>2026-04-27T13:07:18Z</time></trkpt><trkpt lat="37.983001675533444" lon="-3.877995543669519"><ele>305.0</ele><time>2026-04-27T13:07:19Z</time></trkpt><trkpt lat="37.98296688774713" lon="-3.8778899479927555"><ele>305.0</ele><time>2026-04-27T13:07:20Z</time></trkpt><trkpt lat="37.98293815394639" lon="-3.8777813284672087"><ele>305.0</ele><time>2026-04-27T13:07:21Z</time></trkpt><trkpt lat="37.982900986681464" lon="-3.87767438773643"><ele>305.0</ele><time>2026-04-27T13:07:22Z</time></trkpt><trkpt lat="37.98288179657263" lon="-3.877574575201593"><ele>305.0</ele><time>2026-04-27T13:07:23Z</time></trkpt><trkpt lat="37.98285632755203" lon="-3.8774776374365074"><ele>305.0</ele><time>2026-04-27T13:07:24Z</time></trkpt><trkpt lat="37.98282199808796" lon="-3.8773679481848604"><ele>305.0</ele><time>2026-04-27T13:07:25Z</time></trkpt><trkpt lat="37.98278241199837" lon="-3.8772520516292066"><ele>305.5</ele><time>2026-04-27T13:07:26Z</time></trkpt><trkpt lat="37.9827342099205" lon="-3.8771166428289945"><ele>306.0</ele><time>2026-04-27T13:07:27Z</time></trkpt><trkpt lat="37.982686637288204" lon="-3.8769646615304354"><ele>306.5</ele><time>2026-04-27T13:07:28Z</time></trkpt><trkpt lat="37.9826370987778" lon="-3.8768008349190675"><ele>307.0</ele><time>2026-04-27T13:07:29Z</time></trkpt><trkpt lat="37.98257620375043" lon="-3.87662688530627"><ele>307.66666666666663</ele><time>2026-04-27T13:07:30Z</time></trkpt><trkpt lat="37.98251941396767" lon="-3.8764536806050995"><ele>308.3333333333333</ele><time>2026-04-27T13:07:31Z</time></trkpt><trkpt lat="37.98246325382976" lon="-3.8762720320022006"><ele>309.0</ele><time>2026-04-27T13:07:32Z</time></trkpt><trkpt lat="37.98240238544652" lon="-3.8760783628611755"><ele>308.6666666666667</ele><time>2026-04-27T13:07:33Z</time></trkpt><trkpt lat="37.98233482308222" lon="-3.875874085589071"><ele>308.33333333333337</ele><time>2026-04-27T13:07:34Z</time></trkpt><trkpt lat="37.982271672671835" lon="-3.875661676278337"><ele>308.0</ele><time>2026-04-27T13:07:35Z</time></trkpt><trkpt lat="37.982207759826466" lon="-3.8754497952765843"><ele>308.0</ele><time>2026-04-27T13:07:36Z</time></trkpt><trkpt lat="37.982146711754815" lon="-3.875244127944974"><ele>308.0</ele><time>2026-04-27T13:07:37Z</time></trkpt><trkpt lat="37.98207849983918" lon="-3.8750383541476983"><ele>308.0</ele><time>2026-04-27T13:07:38Z</time></trkpt><trkpt lat="37.982006288804605" lon="-3.874827679179758"><ele>309.0</ele><time>2026-04-27T13:07:39Z</time></trkpt><trkpt lat="37.981924026074644" lon="-3.8746134182367493"><ele>310.0</ele><time>2026-04-27T13:07:40Z</time></trkpt><trkpt lat="37.98183182574209" lon="-3.874387397683717"><ele>311.0</ele><time>2026-04-27T13:07:41Z</time></trkpt><trkpt lat="37.98173123559835" lon="-3.8741508251756485"><ele>310.33333333333337</ele><time>2026-04-27T13:07:42Z</time></trkpt><trkpt lat="37.98162767348484" lon="-3.8739082530112965"><ele>309.6666666666667</ele><time>2026-04-27T13:07:43Z</time></trkpt><trkpt lat="37.981519785181064" lon="-3.8736621108132145"><ele>309.0</ele><time>2026-04-27T13:07:44Z</time></trkpt><trkpt lat="37.981400397090574" lon="-3.873408376232877"><ele>311.0</ele><time>2026-04-27T13:07:45Z</time></trkpt><trkpt lat="37.98128110198722" lon="-3.873157095856004"><ele>313.0</ele><time>2026-04-27T13:07:46Z</time></trkpt><trkpt lat="37.9811554846727" lon="-3.872910405338864"><ele>313.0</ele><time>2026-04-27T13:07:47Z</time></trkpt><trkpt lat="37.98102682309141" lon="-3.872672547634722"><ele>313.0</ele><time>2026-04-27T13:07:48Z</time></trkpt><trkpt lat="37.980895798568845" lon="-3.872435711508128"><ele>312.66666666666663</ele><time>2026-04-27T13:07:49Z</time></trkpt><trkpt lat="37.98076226127289" lon="-3.8722097515377687"><ele>312.3333333333333</ele><time>2026-04-27T13:07:50Z</time></trkpt><trkpt lat="37.980623747842586" lon="-3.87199120006664"><ele>312.0</ele><time>2026-04-27T13:07:51Z</time></trkpt><trkpt lat="37.98048497733629" lon="-3.871777019692996"><ele>313.0</ele><time>2026-04-27T13:07:52Z</time></trkpt><trkpt lat="37.98034840474389" lon="-3.87156327134996"><ele>314.0</ele><time>2026-04-27T13:07:53Z</time></trkpt><trkpt lat="37.980215724235094" lon="-3.8713447016387903"><ele>315.0</ele><time>2026-04-27T13:07:54Z</time></trkpt><trkpt lat="37.98008437002552" lon="-3.8711327727311247"><ele>314.6666666666667</ele><time>2026-04-27T13:07:55Z</time></trkpt><trkpt lat="37.979949458937845" lon="-3.870924449485856"><ele>314.33333333333337</ele><time>2026-04-27T13:07:56Z</time></trkpt><trkpt lat="37.97982126072231" lon="-3.8707156371241274"><ele>314.0</ele><time>2026-04-27T13:07:57Z</time></trkpt><trkpt lat="37.97969278244179" lon="-3.870505151888259"><ele>314.0</ele><time>2026-04-27T13:07:58Z</time></trkpt><trkpt lat="37.979564550734516" lon="-3.8703006632747274"><ele>314.0</ele><time>2026-04-27T13:07:59Z</time></trkpt><trkpt lat="37.979432110124726" lon="-3.8700932820920553"><ele>314.0</ele><time>2026-04-27T13:08:00Z</time></trkpt><trkpt lat="37.97929395288682" lon="-3.869877506726375"><ele>314.33333333333337</ele><time>2026-04-27T13:08:01Z</time></trkpt><trkpt lat="37.979154422131586" lon="-3.8696546089545127"><ele>314.6666666666667</ele><time>2026-04-27T13:08:02Z</time></trkpt><trkpt lat="37.97901848003337" lon="-3.8694316962931055"><ele>315.0</ele><time>2026-04-27T13:08:03Z</time></trkpt><trkpt lat="37.97888471216576" lon="-3.8692023023848634"><ele>318.5</ele><time>2026-04-27T13:08:04Z</time></trkpt><trkpt lat="37.97875481353911" lon="-3.8689597297599825"><ele>322.0</ele><time>2026-04-27T13:08:05Z</time></trkpt><trkpt lat="37.978627810074826" lon="-3.868701239728412"><ele>324.0</ele><time>2026-04-27T13:08:06Z</time></trkpt><trkpt lat="37.978504223667514" lon="-3.8684280846445906"><ele>326.0</ele><time>2026-04-27T13:08:07Z</time></trkpt><trkpt lat="37.978386025263134" lon="-3.868140460632733"><ele>324.5</ele><time>2026-04-27T13:08:08Z</time></trkpt><trkpt lat="37.97827015257107" lon="-3.8678392324086435"><ele>323.0</ele><time>2026-04-27T13:08:09Z</time></trkpt><trkpt lat="37.97816061849708" lon="-3.8675309090314047"><ele>323.0</ele><time>2026-04-27T13:08:10Z</time></trkpt><trkpt lat="37.97804627827712" lon="-3.8672108433970656"><ele>323.0</ele><time>2026-04-27T13:08:11Z</time></trkpt><trkpt lat="37.97793221458574" lon="-3.8668946777830477"><ele>324.5</ele><time>2026-04-27T13:08:12Z</time></trkpt><trkpt lat="37.97781221721759" lon="-3.866573418679471"><ele>326.0</ele><time>2026-04-27T13:08:13Z</time></trkpt><trkpt lat="37.97768858156176" lon="-3.866248979532921"><ele>326.0</ele><time>2026-04-27T13:08:14Z</time></trkpt><trkpt lat="37.97755425852213" lon="-3.8659180987617847"><ele>326.0</ele><time>2026-04-27T13:08:15Z</time></trkpt><trkpt lat="37.97740919691837" lon="-3.8655872014554173"><ele>326.0</ele><time>2026-04-27T13:08:16Z</time></trkpt><trkpt lat="37.97725035079765" lon="-3.865261250459504"><ele>326.0</ele><time>2026-04-27T13:08:17Z</time></trkpt><trkpt lat="37.97707150863912" lon="-3.8649510397434144"><ele>326.0</ele><time>2026-04-27T13:08:18Z</time></trkpt><trkpt lat="37.97688068641109" lon="-3.8646522888385113"><ele>326.0</ele><time>2026-04-27T13:08:19Z</time></trkpt><trkpt lat="37.97667897223401" lon="-3.864367150257903"><ele>328.0</ele><time>2026-04-27T13:08:20Z</time></trkpt><trkpt lat="37.9764751889102" lon="-3.8640911235085156"><ele>330.0</ele><time>2026-04-27T13:08:21Z</time></trkpt><trkpt lat="37.976274012792935" lon="-3.863819809648954"><ele>330.0</ele><time>2026-04-27T13:08:22Z</time></trkpt><trkpt lat="37.976082049501855" lon="-3.8635606743881437"><ele>330.0</ele><time>2026-04-27T13:08:23Z</time></trkpt><trkpt lat="37.975902097988886" lon="-3.863311749560823"><ele>332.5</ele><time>2026-04-27T13:08:24Z</time></trkpt><trkpt lat="37.97573094987477" lon="-3.86307325184395"><ele>335.0</ele><time>2026-04-27T13:08:25Z</time></trkpt><trkpt lat="37.97556508798806" lon="-3.8628410151361385"><ele>335.0</ele><time>2026-04-27T13:08:26Z</time></trkpt><trkpt lat="37.97540892743792" lon="-3.8626154873760457"><ele>335.0</ele><time>2026-04-27T13:08:27Z</time></trkpt><trkpt lat="37.97525864773421" lon="-3.8623929298736233"><ele>339.0</ele><time>2026-04-27T13:08:28Z</time></trkpt><trkpt lat="37.975109976857745" lon="-3.862163471907342"><ele>343.0</ele><time>2026-04-27T13:08:29Z</time></trkpt><trkpt lat="37.97497076746898" lon="-3.8619341520075956"><ele>345.0</ele><time>2026-04-27T13:08:30Z</time></trkpt><trkpt lat="37.97483511034769" lon="-3.861704087993989"><ele>347.0</ele><time>2026-04-27T13:08:31Z</time></trkpt><trkpt lat="37.9747048996455" lon="-3.86147917959966"><ele>349.0</ele><time>2026-04-27T13:08:32Z</time></trkpt><trkpt lat="37.974576007835665" lon="-3.861253722548529"><ele>349.0</ele><time>2026-04-27T13:08:33Z</time></trkpt><trkpt lat="37.97444574202849" lon="-3.8610249536503876"><ele>349.0</ele><time>2026-04-27T13:08:34Z</time></trkpt><trkpt lat="37.97430883891034" lon="-3.8607801419720476"><ele>352.0</ele><time>2026-04-27T13:08:35Z</time></trkpt><trkpt lat="37.97417428679406" lon="-3.8605236857158385"><ele>355.0</ele><time>2026-04-27T13:08:36Z</time></trkpt><trkpt lat="37.97404099455427" lon="-3.860257575847541"><ele>357.5</ele><time>2026-04-27T13:08:37Z</time></trkpt><trkpt lat="37.97390865253657" lon="-3.8599830981580427"><ele>360.0</ele><time>2026-04-27T13:08:38Z</time></trkpt><trkpt lat="37.97377856641169" lon="-3.8597017649005068"><ele>360.0</ele><time>2026-04-27T13:08:39Z</time></trkpt><trkpt lat="37.97365107537063" lon="-3.85941943430831"><ele>360.0</ele><time>2026-04-27T13:08:40Z</time></trkpt><trkpt lat="37.97352668043631" lon="-3.859130581173604"><ele>362.0</ele><time>2026-04-27T13:08:41Z</time></trkpt><trkpt lat="37.97341436045534" lon="-3.8588540787140833"><ele>364.0</ele><time>2026-04-27T13:08:42Z</time></trkpt><trkpt lat="37.973305918751294" lon="-3.8585788036834154"><ele>366.5</ele><time>2026-04-27T13:08:43Z</time></trkpt><trkpt lat="37.97319942391969" lon="-3.8583025996095017"><ele>369.0</ele><time>2026-04-27T13:08:44Z</time></trkpt><trkpt lat="37.973095575072506" lon="-3.8580228150649116"><ele>369.0</ele><time>2026-04-27T13:08:45Z</time></trkpt><trkpt lat="37.97300728738545" lon="-3.857728370891888"><ele>369.0</ele><time>2026-04-27T13:08:46Z</time></trkpt><trkpt lat="37.972951398873036" lon="-3.85742257123257"><ele>370.5</ele><time>2026-04-27T13:08:47Z</time></trkpt><trkpt lat="37.97291455181244" lon="-3.857101945516439"><ele>372.0</ele><time>2026-04-27T13:08:48Z</time></trkpt><trkpt lat="37.97287790386128" lon="-3.8567844639829354"><ele>372.5</ele><time>2026-04-27T13:08:49Z</time></trkpt><trkpt lat="37.97283294832186" lon="-3.8564699464872407"><ele>373.0</ele><time>2026-04-27T13:08:50Z</time></trkpt><trkpt lat="37.97278625517756" lon="-3.8561611253458974"><ele>373.0</ele><time>2026-04-27T13:08:51Z</time></trkpt><trkpt lat="37.97274316101245" lon="-3.855854010176549"><ele>373.0</ele><time>2026-04-27T13:08:52Z</time></trkpt><trkpt lat="37.97270646004837" lon="-3.855542783922058"><ele>373.0</ele><time>2026-04-27T13:08:53Z</time></trkpt><trkpt lat="37.972680816741054" lon="-3.855225967201186"><ele>373.0</ele><time>2026-04-27T13:08:54Z</time></trkpt><trkpt lat="37.97266977411209" lon="-3.8549140426890207"><ele>373.5</ele><time>2026-04-27T13:08:55Z</time></trkpt><trkpt lat="37.97266804713521" lon="-3.854597297993538"><ele>374.0</ele><time>2026-04-27T13:08:56Z</time></trkpt><trkpt lat="37.97267412551095" lon="-3.8542798254163295"><ele>375.0</ele><time>2026-04-27T13:08:57Z</time></trkpt><trkpt lat="37.97268449648991" lon="-3.853961689711894"><ele>376.0</ele><time>2026-04-27T13:08:58Z</time></trkpt><trkpt lat="37.97269513071411" lon="-3.8536447361589814"><ele>374.5</ele><time>2026-04-27T13:08:59Z</time></trkpt><trkpt lat="37.972708161751115" lon="-3.853321560804945"><ele>373.0</ele><time>2026-04-27T13:09:00Z</time></trkpt><trkpt lat="37.97271764505471" lon="-3.853003752236851"><ele>373.0</ele><time>2026-04-27T13:09:01Z</time></trkpt><trkpt lat="37.972726763842815" lon="-3.852680089913937"><ele>373.0</ele><time>2026-04-27T13:09:02Z</time></trkpt><trkpt lat="37.97274575761416" lon="-3.8523544432079353"><ele>371.5</ele><time>2026-04-27T13:09:03Z</time></trkpt><trkpt lat="37.972777414056" lon="-3.8520133948542985"><ele>370.0</ele><time>2026-04-27T13:09:04Z</time></trkpt><trkpt lat="37.97282018943919" lon="-3.8516764437817677"><ele>370.0</ele><time>2026-04-27T13:09:05Z</time></trkpt><trkpt lat="37.972869832303495" lon="-3.8513326281642533"><ele>370.0</ele><time>2026-04-27T13:09:06Z</time></trkpt><trkpt lat="37.97292662926487" lon="-3.850986961446031"><ele>368.5</ele><time>2026-04-27T13:09:07Z</time></trkpt><trkpt lat="37.97298545843238" lon="-3.8506382403602624"><ele>367.0</ele><time>2026-04-27T13:09:08Z</time></trkpt><trkpt lat="37.97304583112604" lon="-3.850285938040387"><ele>365.5</ele><time>2026-04-27T13:09:09Z</time></trkpt><trkpt lat="37.97311119084307" lon="-3.8499344374107065"><ele>364.0</ele><time>2026-04-27T13:09:10Z</time></trkpt><trkpt lat="37.97317876947547" lon="-3.8495885078128715"><ele>364.5</ele><time>2026-04-27T13:09:11Z</time></trkpt><trkpt lat="37.97325052286423" lon="-3.8492606620152916"><ele>365.0</ele><time>2026-04-27T13:09:12Z</time></trkpt><trkpt lat="37.97332857563396" lon="-3.84896036422156"><ele>366.0</ele><time>2026-04-27T13:09:13Z</time></trkpt><trkpt lat="37.97341277607203" lon="-3.8486729331339427"><ele>367.0</ele><time>2026-04-27T13:09:14Z</time></trkpt><trkpt lat="37.97349668631905" lon="-3.8484026655687944"><ele>367.0</ele><time>2026-04-27T13:09:15Z</time></trkpt><trkpt lat="37.97356293073612" lon="-3.848134393087724"><ele>367.0</ele><time>2026-04-27T13:09:16Z</time></trkpt><trkpt lat="37.973611159288296" lon="-3.847853176933762"><ele>367.0</ele><time>2026-04-27T13:09:17Z</time></trkpt><trkpt lat="37.97362615067838" lon="-3.8475678574337167"><ele>364.66666666666663</ele><time>2026-04-27T13:09:18Z</time></trkpt><trkpt lat="37.97360902610306" lon="-3.84728623184142"><ele>362.3333333333333</ele><time>2026-04-27T13:09:19Z</time></trkpt><trkpt lat="37.97356720579059" lon="-3.847005663642754"><ele>360.0</ele><time>2026-04-27T13:09:20Z</time></trkpt><trkpt lat="37.97350047078437" lon="-3.8467176653480584"><ele>354.5</ele><time>2026-04-27T13:09:21Z</time></trkpt><trkpt lat="37.97342761814643" lon="-3.846427137837299"><ele>349.0</ele><time>2026-04-27T13:09:22Z</time></trkpt><trkpt lat="37.973357181575366" lon="-3.8461314551975447"><ele>345.5</ele><time>2026-04-27T13:09:23Z</time></trkpt><trkpt lat="37.97328691218409" lon="-3.8458386916501928"><ele>342.0</ele><time>2026-04-27T13:09:24Z</time></trkpt><trkpt lat="37.97322008292934" lon="-3.8455398780658743"><ele>342.0</ele><time>2026-04-27T13:09:25Z</time></trkpt><trkpt lat="37.97314976129065" lon="-3.845236867032348"><ele>342.0</ele><time>2026-04-27T13:09:26Z</time></trkpt><trkpt lat="37.97307352534548" lon="-3.8449336263142007"><ele>340.5</ele><time>2026-04-27T13:09:27Z</time></trkpt><trkpt lat="37.97301415122759" lon="-3.844624238047457"><ele>339.0</ele><time>2026-04-27T13:09:28Z</time></trkpt><trkpt lat="37.97294537008106" lon="-3.844306440177799"><ele>334.5</ele><time>2026-04-27T13:09:29Z</time></trkpt><trkpt lat="37.97288613745845" lon="-3.843979655380021"><ele>330.0</ele><time>2026-04-27T13:09:30Z</time></trkpt><trkpt lat="37.97283356149927" lon="-3.8436465569763474"><ele>327.0</ele><time>2026-04-27T13:09:31Z</time></trkpt><trkpt lat="37.97279092403517" lon="-3.8433102162790997"><ele>324.0</ele><time>2026-04-27T13:09:32Z</time></trkpt><trkpt lat="37.972761159009465" lon="-3.8429673792886763"><ele>322.0</ele><time>2026-04-27T13:09:33Z</time></trkpt><trkpt lat="37.972727164285004" lon="-3.8426272820248064"><ele>320.0</ele><time>2026-04-27T13:09:34Z</time></trkpt><trkpt lat="37.97269628654436" lon="-3.8422884133323163"><ele>320.0</ele><time>2026-04-27T13:09:35Z</time></trkpt><trkpt lat="37.97266942657014" lon="-3.8419476539428374"><ele>320.0</ele><time>2026-04-27T13:09:36Z</time></trkpt><trkpt lat="37.97266137075928" lon="-3.841608804333678"><ele>320.0</ele><time>2026-04-27T13:09:37Z</time></trkpt><trkpt lat="37.97268099685717" lon="-3.841267741236899"><ele>320.0</ele><time>2026-04-27T13:09:38Z</time></trkpt><trkpt lat="37.97273870674799" lon="-3.8409390297201647"><ele>320.0</ele><time>2026-04-27T13:09:39Z</time></trkpt><trkpt lat="37.97283512327984" lon="-3.8406234801581136"><ele>320.0</ele><time>2026-04-27T13:09:40Z</time></trkpt><trkpt lat="37.972928169699806" lon="-3.8403005111142043"><ele>319.0</ele><time>2026-04-27T13:09:41Z</time></trkpt><trkpt lat="37.97301143369917" lon="-3.8399793186721602"><ele>318.0</ele><time>2026-04-27T13:09:42Z</time></trkpt><trkpt lat="37.9730915296127" lon="-3.8396521001838195"><ele>318.0</ele><time>2026-04-27T13:09:43Z</time></trkpt><trkpt lat="37.973171935579266" lon="-3.839319244342212"><ele>318.0</ele><time>2026-04-27T13:09:44Z</time></trkpt><trkpt lat="37.973254703971975" lon="-3.838990823504254"><ele>319.0</ele><time>2026-04-27T13:09:45Z</time></trkpt><trkpt lat="37.97333481749532" lon="-3.838671108727036"><ele>320.0</ele><time>2026-04-27T13:09:46Z</time></trkpt><trkpt lat="37.97341030046792" lon="-3.838351720769647"><ele>320.0</ele><time>2026-04-27T13:09:47Z</time></trkpt><trkpt lat="37.973480526328466" lon="-3.8380451798945"><ele>320.0</ele><time>2026-04-27T13:09:48Z</time></trkpt><trkpt lat="37.97355293017738" lon="-3.8377471197589013"><ele>322.5</ele><time>2026-04-27T13:09:49Z</time></trkpt><trkpt lat="37.973622068772876" lon="-3.8374465895179766"><ele>325.0</ele><time>2026-04-27T13:09:50Z</time></trkpt><trkpt lat="37.97367657825096" lon="-3.837141962261082"><ele>325.0</ele><time>2026-04-27T13:09:51Z</time></trkpt><trkpt lat="37.97370635373961" lon="-3.8368489190699715"><ele>325.0</ele><time>2026-04-27T13:09:52Z</time></trkpt><trkpt lat="37.97370521699154" lon="-3.8365395431112836"><ele>328.0</ele><time>2026-04-27T13:09:53Z</time></trkpt><trkpt lat="37.97367724258761" lon="-3.8362103028944423"><ele>331.0</ele><time>2026-04-27T13:09:54Z</time></trkpt><trkpt lat="37.973643069567" lon="-3.835887420186513"><ele>333.0</ele><time>2026-04-27T13:09:55Z</time></trkpt><trkpt lat="37.973610087059356" lon="-3.835574346141704"><ele>335.0</ele><time>2026-04-27T13:09:56Z</time></trkpt><trkpt lat="37.97358193699063" lon="-3.8352753779065605"><ele>336.0</ele><time>2026-04-27T13:09:57Z</time></trkpt><trkpt lat="37.97355942011796" lon="-3.8349902067609407"><ele>337.0</ele><time>2026-04-27T13:09:58Z</time></trkpt><trkpt lat="37.97354653949283" lon="-3.8347122101935835"><ele>338.0</ele><time>2026-04-27T13:09:59Z</time></trkpt><trkpt lat="37.973523099458234" lon="-3.834429081312639"><ele>338.5</ele><time>2026-04-27T13:10:00Z</time></trkpt><trkpt lat="37.97349911130421" lon="-3.8341404079000627"><ele>339.0</ele><time>2026-04-27T13:10:01Z</time></trkpt><trkpt lat="37.9734845780714" lon="-3.8338486486926464"><ele>339.0</ele><time>2026-04-27T13:10:02Z</time></trkpt><trkpt lat="37.97346020931306" lon="-3.833551246012054"><ele>339.0</ele><time>2026-04-27T13:10:03Z</time></trkpt><trkpt lat="37.97343865117099" lon="-3.8332543127430765"><ele>338.0</ele><time>2026-04-27T13:10:04Z</time></trkpt><trkpt lat="37.97340952165008" lon="-3.8329442919292416"><ele>337.0</ele><time>2026-04-27T13:10:05Z</time></trkpt><trkpt lat="37.9733895918143" lon="-3.8326395011115815"><ele>335.0</ele><time>2026-04-27T13:10:06Z</time></trkpt><trkpt lat="37.97336837017413" lon="-3.8323355012430316"><ele>333.0</ele><time>2026-04-27T13:10:07Z</time></trkpt><trkpt lat="37.97333984860115" lon="-3.832029100381341"><ele>327.5</ele><time>2026-04-27T13:10:08Z</time></trkpt><trkpt lat="37.97332353426319" lon="-3.831724118964693"><ele>322.0</ele><time>2026-04-27T13:10:09Z</time></trkpt><trkpt lat="37.973312653701015" lon="-3.8314155692450265"><ele>322.0</ele><time>2026-04-27T13:10:10Z</time></trkpt><trkpt lat="37.97329877491616" lon="-3.831106765633456"><ele>322.0</ele><time>2026-04-27T13:10:11Z</time></trkpt><trkpt lat="37.973289780966994" lon="-3.8307979904791636"><ele>320.5</ele><time>2026-04-27T13:10:12Z</time></trkpt><trkpt lat="37.97328565216164" lon="-3.8304880307095157"><ele>319.0</ele><time>2026-04-27T13:10:13Z</time></trkpt><trkpt lat="37.97329174062177" lon="-3.8301782787460286"><ele>316.5</ele><time>2026-04-27T13:10:14Z</time></trkpt><trkpt lat="37.97329852997354" lon="-3.8298657090881942"><ele>314.0</ele><time>2026-04-27T13:10:15Z</time></trkpt><trkpt lat="37.97330842087971" lon="-3.8295526780378624"><ele>313.0</ele><time>2026-04-27T13:10:16Z</time></trkpt><trkpt lat="37.97331947192639" lon="-3.82923682197557"><ele>312.0</ele><time>2026-04-27T13:10:17Z</time></trkpt><trkpt lat="37.973332615493455" lon="-3.8289196541884656"><ele>312.0</ele><time>2026-04-27T13:10:18Z</time></trkpt><trkpt lat="37.973349642463475" lon="-3.8285993866138592"><ele>312.0</ele><time>2026-04-27T13:10:19Z</time></trkpt><trkpt lat="37.97336520939555" lon="-3.8282759496426184"><ele>312.5</ele><time>2026-04-27T13:10:20Z</time></trkpt><trkpt lat="37.97337645436845" lon="-3.827950865959195"><ele>313.0</ele><time>2026-04-27T13:10:21Z</time></trkpt><trkpt lat="37.97338917646072" lon="-3.827625458661223"><ele>313.0</ele><time>2026-04-27T13:10:22Z</time></trkpt><trkpt lat="37.97340948493837" lon="-3.8272994062946837"><ele>313.0</ele><time>2026-04-27T13:10:23Z</time></trkpt><trkpt lat="37.973422880282385" lon="-3.826970953427837"><ele>310.5</ele><time>2026-04-27T13:10:24Z</time></trkpt><trkpt lat="37.973429202736455" lon="-3.8266460775694457"><ele>308.0</ele><time>2026-04-27T13:10:25Z</time></trkpt><trkpt lat="37.97343010122225" lon="-3.8263189446911783"><ele>308.0</ele><time>2026-04-27T13:10:26Z</time></trkpt><trkpt lat="37.973420548429274" lon="-3.8259928762507833"><ele>308.0</ele><time>2026-04-27T13:10:27Z</time></trkpt><trkpt lat="37.97339074019464" lon="-3.825669427475005"><ele>306.0</ele><time>2026-04-27T13:10:28Z</time></trkpt><trkpt lat="37.97334785462153" lon="-3.8253500736254384"><ele>304.0</ele><time>2026-04-27T13:10:29Z</time></trkpt><trkpt lat="37.97330473117541" lon="-3.825027408226511"><ele>303.5</ele><time>2026-04-27T13:10:30Z</time></trkpt><trkpt lat="37.973261236806664" lon="-3.8247033701798534"><ele>303.0</ele><time>2026-04-27T13:10:31Z</time></trkpt><trkpt lat="37.97321280252619" lon="-3.8243796061630153"><ele>302.0</ele><time>2026-04-27T13:10:32Z</time></trkpt><trkpt lat="37.97316412052442" lon="-3.824064058895387"><ele>301.0</ele><time>2026-04-27T13:10:33Z</time></trkpt><trkpt lat="37.97311550454095" lon="-3.8237495844281195"><ele>300.5</ele><time>2026-04-27T13:10:34Z</time></trkpt><trkpt lat="37.97306481951304" lon="-3.8234379077145055"><ele>300.0</ele><time>2026-04-27T13:10:35Z</time></trkpt><trkpt lat="37.973015273395056" lon="-3.823128829128862"><ele>300.0</ele><time>2026-04-27T13:10:36Z</time></trkpt><trkpt lat="37.97296743871856" lon="-3.8228251115089797"><ele>300.0</ele><time>2026-04-27T13:10:37Z</time></trkpt><trkpt lat="37.972923957703124" lon="-3.822523499515423"><ele>299.5</ele><time>2026-04-27T13:10:38Z</time></trkpt><trkpt lat="37.972884059549244" lon="-3.8222173423070616"><ele>299.0</ele><time>2026-04-27T13:10:39Z</time></trkpt><trkpt lat="37.972837388568685" lon="-3.821910240777806"><ele>298.5</ele><time>2026-04-27T13:10:40Z</time></trkpt><trkpt lat="37.97279050591032" lon="-3.8216066271054934"><ele>298.0</ele><time>2026-04-27T13:10:41Z</time></trkpt><trkpt lat="37.97274683986603" lon="-3.8213049855801846"><ele>298.0</ele><time>2026-04-27T13:10:42Z</time></trkpt><trkpt lat="37.97270350148904" lon="-3.821005012431549"><ele>298.0</ele><time>2026-04-27T13:10:43Z</time></trkpt><trkpt lat="37.97268392904737" lon="-3.820696317701887"><ele>298.0</ele><time>2026-04-27T13:10:44Z</time></trkpt><trkpt lat="37.97268134482554" lon="-3.8203856705583963"><ele>298.0</ele><time>2026-04-27T13:10:45Z</time></trkpt><trkpt lat="37.97268798796019" lon="-3.8200838761805658"><ele>298.0</ele><time>2026-04-27T13:10:46Z</time></trkpt><trkpt lat="37.97269377459333" lon="-3.819780051379273"><ele>298.0</ele><time>2026-04-27T13:10:47Z</time></trkpt><trkpt lat="37.97268924574391" lon="-3.819483213229155"><ele>297.0</ele><time>2026-04-27T13:10:48Z</time></trkpt><trkpt lat="37.97268301838563" lon="-3.8191868276986627"><ele>296.0</ele><time>2026-04-27T13:10:49Z</time></trkpt><trkpt lat="37.972682645350545" lon="-3.818885405719953"><ele>296.0</ele><time>2026-04-27T13:10:50Z</time></trkpt><trkpt lat="37.972678040699876" lon="-3.8185819461844166"><ele>296.0</ele><time>2026-04-27T13:10:51Z</time></trkpt><trkpt lat="37.972670692782856" lon="-3.818280846911408"><ele>294.0</ele><time>2026-04-27T13:10:52Z</time></trkpt><trkpt lat="37.97264836404578" lon="-3.817976590767514"><ele>292.0</ele><time>2026-04-27T13:10:53Z</time></trkpt><trkpt lat="37.97261139855535" lon="-3.8176669736344326"><ele>292.0</ele><time>2026-04-27T13:10:54Z</time></trkpt><trkpt lat="37.97256780193999" lon="-3.817352051859952"><ele>292.0</ele><time>2026-04-27T13:10:55Z</time></trkpt><trkpt lat="37.97251538783657" lon="-3.8170372565327404"><ele>289.0</ele><time>2026-04-27T13:10:56Z</time></trkpt><trkpt lat="37.97247442514895" lon="-3.8167546821518292"><ele>286.0</ele><time>2026-04-27T13:10:57Z</time></trkpt><trkpt lat="37.97243089192196" lon="-3.816480547096807"><ele>283.0</ele><time>2026-04-27T13:10:58Z</time></trkpt><trkpt lat="37.97238969168817" lon="-3.8162193569612457"><ele>282.66666666666663</ele><time>2026-04-27T13:10:59Z</time></trkpt><trkpt lat="37.97235133974527" lon="-3.815982746789612"><ele>282.3333333333333</ele><time>2026-04-27T13:11:00Z</time></trkpt><trkpt lat="37.97231513532689" lon="-3.815760371482954"><ele>282.0</ele><time>2026-04-27T13:11:01Z</time></trkpt><trkpt lat="37.97227993791067" lon="-3.815563491511036"><ele>282.0</ele><time>2026-04-27T13:11:02Z</time></trkpt><trkpt lat="37.97224488824978" lon="-3.8153677734754723"><ele>282.0</ele><time>2026-04-27T13:11:03Z</time></trkpt><trkpt lat="37.9722141804232" lon="-3.815184360057943"><ele>282.0</ele><time>2026-04-27T13:11:04Z</time></trkpt><trkpt lat="37.97219323251083" lon="-3.8150246320523933"><ele>282.0</ele><time>2026-04-27T13:11:05Z</time></trkpt><trkpt lat="37.97217181960004" lon="-3.8148855668730643"><ele>281.4</ele><time>2026-04-27T13:11:06Z</time></trkpt><trkpt lat="37.97215402848897" lon="-3.8147715419374975"><ele>280.79999999999995</ele><time>2026-04-27T13:11:07Z</time></trkpt><trkpt lat="37.97213109518701" lon="-3.8146657223106875"><ele>280.2</ele><time>2026-04-27T13:11:09Z</time></trkpt><trkpt lat="37.972080661574246" lon="-3.8146013803042864"><ele>279.59999999999997</ele><time>2026-04-27T13:11:12Z</time></trkpt><trkpt lat="37.9719005636847" lon="-3.814581456249579"><ele>279.0</ele><time>2026-04-27T13:11:13Z</time></trkpt><trkpt lat="37.97177984446258" lon="-3.8145278488097047"><ele>278.5</ele><time>2026-04-27T13:11:14Z</time></trkpt><trkpt lat="37.97163741045013" lon="-3.814455806843807"><ele>278.0</ele><time>2026-04-27T13:11:15Z</time></trkpt><trkpt lat="37.971500586321426" lon="-3.814368235053668"><ele>277.5</ele><time>2026-04-27T13:11:16Z</time></trkpt><trkpt lat="37.97138986529136" lon="-3.8142566324540503"><ele>277.0</ele><time>2026-04-27T13:11:17Z</time></trkpt><trkpt lat="37.97131666762514" lon="-3.814123254009012"><ele>276.8</ele><time>2026-04-27T13:11:18Z</time></trkpt><trkpt lat="37.97127871430822" lon="-3.813982940129006"><ele>276.6</ele><time>2026-04-27T13:11:19Z</time></trkpt><trkpt lat="37.97125894425917" lon="-3.8138622231155725"><ele>276.40000000000003</ele><time>2026-04-27T13:11:20Z</time></trkpt><trkpt lat="37.97124374203036" lon="-3.81376163553913"><ele>276.2</ele><time>2026-04-27T13:11:21Z</time></trkpt><trkpt lat="37.971221135422034" lon="-3.8136736051929674"><ele>276.0</ele><time>2026-04-27T13:12:10Z</time></trkpt><trkpt lat="37.97122848435738" lon="-3.8135190346794285"><ele>276.2</ele><time>2026-04-27T13:12:12Z</time></trkpt><trkpt lat="37.97123017408332" lon="-3.8134103467173808"><ele>276.40000000000003</ele><time>2026-04-27T13:12:13Z</time></trkpt><trkpt lat="37.97124021420499" lon="-3.8132922423600344"><ele>276.6</ele><time>2026-04-27T13:12:14Z</time></trkpt><trkpt lat="37.971270606638654" lon="-3.813173272391484"><ele>276.8</ele><time>2026-04-27T13:12:15Z</time></trkpt><trkpt lat="37.97131420430592" lon="-3.8130576515878323"><ele>277.0</ele><time>2026-04-27T13:12:16Z</time></trkpt><trkpt lat="37.97137670396821" lon="-3.812929780226199"><ele>277.0</ele><time>2026-04-27T13:12:17Z</time></trkpt><trkpt lat="37.97144129428038" lon="-3.8127951255063923"><ele>277.0</ele><time>2026-04-27T13:12:18Z</time></trkpt><trkpt lat="37.97150844338496" lon="-3.812657471106051"><ele>277.0</ele><time>2026-04-27T13:12:19Z</time></trkpt><trkpt lat="37.97157796922891" lon="-3.812504190488907"><ele>277.0</ele><time>2026-04-27T13:12:20Z</time></trkpt><trkpt lat="37.97164301385455" lon="-3.8123416587152055"><ele>275.25</ele><time>2026-04-27T13:12:21Z</time></trkpt><trkpt lat="37.97169917333379" lon="-3.8121759455322524"><ele>273.5</ele><time>2026-04-27T13:12:22Z</time></trkpt><trkpt lat="37.97173155182647" lon="-3.8119933447691694"><ele>271.75</ele><time>2026-04-27T13:12:23Z</time></trkpt><trkpt lat="37.97174588457491" lon="-3.8118196941360942"><ele>270.0</ele><time>2026-04-27T13:12:24Z</time></trkpt><trkpt lat="37.97175537955178" lon="-3.8116479485251724"><ele>270.0</ele><time>2026-04-27T13:12:25Z</time></trkpt><trkpt lat="37.971761545859096" lon="-3.811482033720219"><ele>270.0</ele><time>2026-04-27T13:12:26Z</time></trkpt><trkpt lat="37.97176270156814" lon="-3.811332083289025"><ele>270.0</ele><time>2026-04-27T13:12:27Z</time></trkpt><trkpt lat="37.9717591687592" lon="-3.811185915319541"><ele>270.0</ele><time>2026-04-27T13:12:28Z</time></trkpt><trkpt lat="37.9717579410886" lon="-3.8110383869765534"><ele>270.5</ele><time>2026-04-27T13:12:29Z</time></trkpt><trkpt lat="37.97174903779017" lon="-3.8108849627576715"><ele>271.0</ele><time>2026-04-27T13:12:30Z</time></trkpt><trkpt lat="37.97173849727184" lon="-3.8107323450308233"><ele>271.5</ele><time>2026-04-27T13:12:31Z</time></trkpt><trkpt lat="37.97172515696009" lon="-3.8105800648888435"><ele>272.0</ele><time>2026-04-27T13:12:32Z</time></trkpt><trkpt lat="37.971716727496975" lon="-3.8104307535713096"><ele>272.0</ele><time>2026-04-27T13:12:33Z</time></trkpt><trkpt lat="37.97171355746414" lon="-3.810290030904081"><ele>272.0</ele><time>2026-04-27T13:12:34Z</time></trkpt><trkpt lat="37.97170725728132" lon="-3.8101483410173818"><ele>272.0</ele><time>2026-04-27T13:12:35Z</time></trkpt><trkpt lat="37.971689819594175" lon="-3.8099955364712295"><ele>272.0</ele><time>2026-04-27T13:12:36Z</time></trkpt><trkpt lat="37.97166027493618" lon="-3.8098611254319077"><ele>273.8</ele><time>2026-04-27T13:12:37Z</time></trkpt><trkpt lat="37.97161659133259" lon="-3.80974283358354"><ele>275.6</ele><time>2026-04-27T13:12:38Z</time></trkpt><trkpt lat="37.97156989327216" lon="-3.8096409758317447"><ele>277.40000000000003</ele><time>2026-04-27T13:12:39Z</time></trkpt><trkpt lat="37.97152046242452" lon="-3.809534820109281"><ele>279.2</ele><time>2026-04-27T13:12:40Z</time></trkpt><trkpt lat="37.971486374729665" lon="-3.8094306889282072"><ele>281.0</ele><time>2026-04-27T13:12:41Z</time></trkpt><trkpt lat="37.971464351254916" lon="-3.8093164590433455"><ele>281.0</ele><time>2026-04-27T13:12:42Z</time></trkpt><trkpt lat="37.971454539841254" lon="-3.8091910088717897"><ele>281.0</ele><time>2026-04-27T13:12:43Z</time></trkpt><trkpt lat="37.971453887647485" lon="-3.80906986182886"><ele>281.0</ele><time>2026-04-27T13:12:44Z</time></trkpt><trkpt lat="37.971468061391775" lon="-3.8089533563922995"><ele>281.0</ele><time>2026-04-27T13:12:45Z</time></trkpt><trkpt lat="37.97148809295515" lon="-3.808830297984212"><ele>281.0</ele><time>2026-04-27T13:12:46Z</time></trkpt><trkpt lat="37.97151599022572" lon="-3.808705939902494"><ele>281.0</ele><time>2026-04-27T13:12:47Z</time></trkpt><trkpt lat="37.97154435516635" lon="-3.8085694313513287"><ele>281.0</ele><time>2026-04-27T13:12:48Z</time></trkpt><trkpt lat="37.97156373406043" lon="-3.808420360052385"><ele>281.0</ele><time>2026-04-27T13:12:49Z</time></trkpt><trkpt lat="37.97156961927403" lon="-3.8082614824225236"><ele>281.0</ele><time>2026-04-27T13:12:50Z</time></trkpt><trkpt lat="37.97156325085057" lon="-3.808100890188785"><ele>280.75</ele><time>2026-04-27T13:12:51Z</time></trkpt><trkpt lat="37.97156578336081" lon="-3.8079401104957813"><ele>280.5</ele><time>2026-04-27T13:12:52Z</time></trkpt><trkpt lat="37.97154504548348" lon="-3.8077937544411786"><ele>280.25</ele><time>2026-04-27T13:12:53Z</time></trkpt><trkpt lat="37.9715186159424" lon="-3.807652135654775"><ele>280.0</ele><time>2026-04-27T13:12:54Z</time></trkpt><trkpt lat="37.97147991829288" lon="-3.8075350773262127"><ele>279.66666666666663</ele><time>2026-04-27T13:12:55Z</time></trkpt><trkpt lat="37.97144372947758" lon="-3.8074325194692378"><ele>279.3333333333333</ele><time>2026-04-27T13:12:56Z</time></trkpt><trkpt lat="37.97138766000819" lon="-3.807355075955084"><ele>279.0</ele><time>2026-04-27T13:12:57Z</time></trkpt><trkpt lat="37.97135444976715" lon="-3.8072748715198075"><ele>278.6666666666667</ele><time>2026-04-27T13:12:58Z</time></trkpt><trkpt lat="37.971306887155286" lon="-3.807210842984214"><ele>278.33333333333337</ele><time>2026-04-27T13:12:59Z</time></trkpt><trkpt lat="37.971265791305726" lon="-3.8071481181811686"><ele>278.0</ele><time>2026-04-27T13:13:00Z</time></trkpt><trkpt lat="37.97119266652301" lon="-3.807049153998647"><ele>278.0</ele><time>2026-04-27T13:13:02Z</time></trkpt><trkpt lat="37.971112555542874" lon="-3.806928863568922"><ele>278.0</ele><time>2026-04-27T13:13:04Z</time></trkpt><trkpt lat="37.97105589833822" lon="-3.806843826679194"><ele>278.0</ele><time>2026-04-27T13:13:05Z</time></trkpt><trkpt lat="37.97100979444255" lon="-3.8067484779524245"><ele>278.0</ele><time>2026-04-27T13:13:06Z</time></trkpt><trkpt lat="37.970977248249135" lon="-3.806639215283446"><ele>278.0</ele><time>2026-04-27T13:13:07Z</time></trkpt><trkpt lat="37.97095785284974" lon="-3.8065244405431704"><ele>277.5</ele><time>2026-04-27T13:13:08Z</time></trkpt><trkpt lat="37.970948615797504" lon="-3.806414174587556"><ele>277.0</ele><time>2026-04-27T13:13:09Z</time></trkpt><trkpt lat="37.97094340093237" lon="-3.8063027723746803"><ele>276.5</ele><time>2026-04-27T13:13:10Z</time></trkpt><trkpt lat="37.97092769328534" lon="-3.8061989650238446"><ele>276.0</ele><time>2026-04-27T13:13:11Z</time></trkpt><trkpt lat="37.97091653706477" lon="-3.8060952179180627"><ele>275.5</ele><time>2026-04-27T13:13:12Z</time></trkpt><trkpt lat="37.97090349407572" lon="-3.8059905072575915"><ele>275.0</ele><time>2026-04-27T13:13:13Z</time></trkpt><trkpt lat="37.97088674824756" lon="-3.8059031430882904"><ele>274.6666666666667</ele><time>2026-04-27T13:13:14Z</time></trkpt><trkpt lat="37.97086523798368" lon="-3.805754788018467"><ele>274.33333333333337</ele><time>2026-04-27T13:13:16Z</time></trkpt><trkpt lat="37.97084945540947" lon="-3.8056726098738634"><ele>274.0</ele><time>2026-04-27T13:13:17Z</time></trkpt><trkpt lat="37.97083331966493" lon="-3.8055892270827933"><ele>273.6666666666667</ele><time>2026-04-27T13:13:18Z</time></trkpt><trkpt lat="37.97081582893742" lon="-3.8054987375014826"><ele>273.3333333333333</ele><time>2026-04-27T13:13:19Z</time></trkpt><trkpt lat="37.97079981931548" lon="-3.805395806894214"><ele>273.0</ele><time>2026-04-27T13:13:20Z</time></trkpt><trkpt lat="37.970778481539995" lon="-3.8052888567525764"><ele>274.2</ele><time>2026-04-27T13:13:21Z</time></trkpt><trkpt lat="37.97076264704629" lon="-3.8051725307136275"><ele>275.4</ele><time>2026-04-27T13:13:22Z</time></trkpt><trkpt lat="37.97074261761771" lon="-3.8050546833574597"><ele>276.59999999999997</ele><time>2026-04-27T13:13:23Z</time></trkpt><trkpt lat="37.9707281883325" lon="-3.8049370555962914"><ele>277.8</ele><time>2026-04-27T13:13:24Z</time></trkpt><trkpt lat="37.97070586176848" lon="-3.804823210663762"><ele>279.0</ele><time>2026-04-27T13:13:25Z</time></trkpt><trkpt lat="37.97068467019697" lon="-3.804722468726886"><ele>279.0</ele><time>2026-04-27T13:13:26Z</time></trkpt><trkpt lat="37.97067113090267" lon="-3.804629177766272"><ele>279.0</ele><time>2026-04-27T13:13:27Z</time></trkpt><trkpt lat="37.97065751802996" lon="-3.804545254501118"><ele>279.0</ele><time>2026-04-27T13:13:28Z</time></trkpt><trkpt lat="37.97061863587727" lon="-3.8044066043442126"><ele>279.0</ele><time>2026-04-27T13:13:30Z</time></trkpt><trkpt lat="37.97058616242829" lon="-3.80433800095139"><ele>279.0</ele><time>2026-04-27T13:13:32Z</time></trkpt><trkpt lat="37.97054488084264" lon="-3.804259737318581"><ele>279.0</ele><time>2026-04-27T13:13:35Z</time></trkpt><trkpt lat="37.97050750230972" lon="-3.804165343257077"><ele>278.6666666666667</ele><time>2026-04-27T13:13:38Z</time></trkpt><trkpt lat="37.97048122513866" lon="-3.804089705895708"><ele>278.3333333333333</ele><time>2026-04-27T13:13:41Z</time></trkpt><trkpt lat="37.970456141471644" lon="-3.803980200171051"><ele>278.0</ele><time>2026-04-27T13:14:28.999Z</time></trkpt><trkpt lat="37.97042533070911" lon="-3.803903258746479"><ele>277.66666666666663</ele><time>2026-04-27T13:14:29.999Z</time></trkpt><trkpt lat="37.970391542190946" lon="-3.8038251025269925"><ele>277.3333333333333</ele><time>2026-04-27T13:14:30.999Z</time></trkpt><trkpt lat="37.970343954100116" lon="-3.803711940402129"><ele>277.0</ele><time>2026-04-27T13:14:32.999Z</time></trkpt><trkpt lat="37.970305797959675" lon="-3.803617692378332"><ele>277.0</ele><time>2026-04-27T13:14:34.999Z</time></trkpt><trkpt lat="37.97025051230701" lon="-3.803502015354985"><ele>277.0</ele><time>2026-04-27T13:14:36.999Z</time></trkpt><trkpt lat="37.97018376577334" lon="-3.803380899765176"><ele>277.0</ele><time>2026-04-27T13:14:38.999Z</time></trkpt><trkpt lat="37.970187060901985" lon="-3.803277374742805"><ele>277.0</ele><time>2026-04-27T13:14:39.999Z</time></trkpt><trkpt lat="37.97014770865379" lon="-3.8032041998449477"><ele>277.0</ele><time>2026-04-27T13:14:40.999Z</time></trkpt><trkpt lat="37.97006107988136" lon="-3.803072540435068"><ele>276.5</ele><time>2026-04-27T13:14:42.999Z</time></trkpt><trkpt lat="37.96996829044738" lon="-3.80300439488859"><ele>276.0</ele><time>2026-04-27T13:14:44.999Z</time></trkpt><trkpt lat="37.970074787511095" lon="-3.802810142347669"><ele>275.5</ele><time>2026-04-27T13:14:45.999Z</time></trkpt><trkpt lat="37.970126246504314" lon="-3.8027246538523998"><ele>275.0</ele><time>2026-04-27T13:14:46.999Z</time></trkpt><trkpt lat="37.9701688725563" lon="-3.8026477340423375"><ele>275.0</ele><time>2026-04-27T13:14:47.999Z</time></trkpt><trkpt lat="37.970210846861065" lon="-3.8025610869955413"><ele>275.0</ele><time>2026-04-27T13:14:48.999Z</time></trkpt><trkpt lat="37.97025652438919" lon="-3.8024735450599643"><ele>275.0</ele><time>2026-04-27T13:14:49.999Z</time></trkpt><trkpt lat="37.97029904132771" lon="-3.8023846334856297"><ele>275.0</ele><time>2026-04-27T13:14:50.999Z</time></trkpt><trkpt lat="37.9703434622831" lon="-3.802295077791169"><ele>275.0</ele><time>2026-04-27T13:14:51.999Z</time></trkpt><trkpt lat="37.97039560999985" lon="-3.802209829978464"><ele>275.0</ele><time>2026-04-27T13:14:52.999Z</time></trkpt><trkpt lat="37.97043236111069" lon="-3.80211716723107"><ele>275.0</ele><time>2026-04-27T13:14:53.999Z</time></trkpt><trkpt lat="37.970475376126764" lon="-3.8020359825931633"><ele>275.0</ele><time>2026-04-27T13:14:54.999Z</time></trkpt><trkpt lat="37.970505876463406" lon="-3.801942752687777"><ele>275.0</ele><time>2026-04-27T13:14:55.999Z</time></trkpt><trkpt lat="37.97053525806115" lon="-3.8018653353379843"><ele>275.0</ele><time>2026-04-27T13:14:56.999Z</time></trkpt><trkpt lat="37.97057673512878" lon="-3.8017903528872936"><ele>275.0</ele><time>2026-04-27T13:14:57.999Z</time></trkpt><trkpt lat="37.97061589595621" lon="-3.8017119387092633"><ele>275.0</ele><time>2026-04-27T13:14:58.999Z</time></trkpt><trkpt lat="37.97065580432187" lon="-3.8016306247276557"><ele>275.0</ele><time>2026-04-27T13:14:59.999Z</time></trkpt><trkpt lat="37.97069439334907" lon="-3.8015611152133806"><ele>275.0</ele><time>2026-04-27T13:15:00.999Z</time></trkpt><trkpt lat="37.970732004369" lon="-3.80149273539391"><ele>275.0</ele><time>2026-04-27T13:15:01.999Z</time></trkpt><trkpt lat="37.970774070086016" lon="-3.801428119417103"><ele>275.0</ele><time>2026-04-27T13:15:03Z</time></trkpt><trkpt lat="37.97080556556525" lon="-3.8013510531070756"><ele>275.0</ele><time>2026-04-27T13:15:04Z</time></trkpt><trkpt lat="37.9708359658391" lon="-3.8012728496281123"><ele>275.0</ele><time>2026-04-27T13:15:05Z</time></trkpt><trkpt lat="37.970885326064774" lon="-3.8012131511934175"><ele>275.0</ele><time>2026-04-27T13:15:06Z</time></trkpt><trkpt lat="37.970933114921145" lon="-3.801076940832484"><ele>273.8</ele><time>2026-04-27T13:15:08Z</time></trkpt><trkpt lat="37.971015318603584" lon="-3.8009458823231195"><ele>272.6</ele><time>2026-04-27T13:15:10Z</time></trkpt><trkpt lat="37.97105346650283" lon="-3.8008674490087677"><ele>271.4</ele><time>2026-04-27T13:15:11Z</time></trkpt><trkpt lat="37.97109400933408" lon="-3.800784091643705"><ele>270.2</ele><time>2026-04-27T13:15:12Z</time></trkpt><trkpt lat="37.97114077061873" lon="-3.800687948931086"><ele>269.0</ele><time>2026-04-27T13:15:13Z</time></trkpt><trkpt lat="37.971184677711" lon="-3.8005976745280226"><ele>269.0</ele><time>2026-04-27T13:15:14Z</time></trkpt><trkpt lat="37.97122852465062" lon="-3.8005075238018704"><ele>269.0</ele><time>2026-04-27T13:15:15Z</time></trkpt><trkpt lat="37.97126768632606" lon="-3.800427006146939"><ele>269.0</ele><time>2026-04-27T13:15:16Z</time></trkpt><trkpt lat="37.97130395182049" lon="-3.8003524431101345"><ele>269.0</ele><time>2026-04-27T13:15:17Z</time></trkpt><trkpt lat="37.97134247283226" lon="-3.8002732426637977"><ele>269.0</ele><time>2026-04-27T13:15:18Z</time></trkpt><trkpt lat="37.971377470181345" lon="-3.8002012869816553"><ele>269.0</ele><time>2026-04-27T13:15:19Z</time></trkpt><trkpt lat="37.97140001147361" lon="-3.8001239195876026"><ele>269.0</ele><time>2026-04-27T13:15:20Z</time></trkpt><trkpt lat="37.97144916299069" lon="-3.800053884264817"><ele>268.5</ele><time>2026-04-27T13:15:21Z</time></trkpt><trkpt lat="37.97150870325636" lon="-3.7999059176771532"><ele>268.0</ele><time>2026-04-27T13:15:23Z</time></trkpt><trkpt lat="37.971551557928" lon="-3.7998243280948416"><ele>267.5</ele><time>2026-04-27T13:15:24Z</time></trkpt><trkpt lat="37.97158900611929" lon="-3.7997428438461607"><ele>267.0</ele><time>2026-04-27T13:15:25Z</time></trkpt><trkpt lat="37.971626793433245" lon="-3.7996606675284847"><ele>266.5</ele><time>2026-04-27T13:15:26Z</time></trkpt><trkpt lat="37.97166846960457" lon="-3.7995801642168336"><ele>266.0</ele><time>2026-04-27T13:15:27Z</time></trkpt><trkpt lat="37.97171905916506" lon="-3.799494651206112"><ele>266.0</ele><time>2026-04-27T13:15:28Z</time></trkpt><trkpt lat="37.97176544790108" lon="-3.7994033954631377"><ele>266.0</ele><time>2026-04-27T13:15:29Z</time></trkpt><trkpt lat="37.971807403851734" lon="-3.799314605456762"><ele>266.0</ele><time>2026-04-27T13:15:30Z</time></trkpt><trkpt lat="37.97185053587449" lon="-3.799223729687221"><ele>266.0</ele><time>2026-04-27T13:15:31Z</time></trkpt><trkpt lat="37.97189669332996" lon="-3.799137714385758"><ele>266.0</ele><time>2026-04-27T13:15:32Z</time></trkpt><trkpt lat="37.97194422415072" lon="-3.7990505797280654"><ele>266.0</ele><time>2026-04-27T13:15:33Z</time></trkpt><trkpt lat="37.9719878522494" lon="-3.7989697694332247"><ele>266.2857142857143</ele><time>2026-04-27T13:15:34Z</time></trkpt><trkpt lat="37.97202813223293" lon="-3.798896199669101"><ele>266.57142857142856</ele><time>2026-04-27T13:15:35Z</time></trkpt><trkpt lat="37.97207415639789" lon="-3.798791571683217"><ele>266.8571428571429</ele><time>2026-04-27T13:15:36Z</time></trkpt><trkpt lat="37.972119239111805" lon="-3.798703377942957"><ele>267.1428571428571</ele><time>2026-04-27T13:15:37Z</time></trkpt><trkpt lat="37.97215477622696" lon="-3.7986291619842794"><ele>267.42857142857144</ele><time>2026-04-27T13:15:38Z</time></trkpt><trkpt lat="37.972192504510595" lon="-3.798559806443897"><ele>267.7142857142857</ele><time>2026-04-27T13:15:39Z</time></trkpt><trkpt lat="37.97222655507543" lon="-3.798492417074254"><ele>268.0</ele><time>2026-04-27T13:15:40Z</time></trkpt><trkpt lat="37.972260459977576" lon="-3.7984210066279744"><ele>268.3333333333333</ele><time>2026-04-27T13:15:41Z</time></trkpt><trkpt lat="37.972301254220106" lon="-3.798344741501851"><ele>268.66666666666663</ele><time>2026-04-27T13:15:42Z</time></trkpt><trkpt lat="37.972345681706706" lon="-3.798276184275633"><ele>269.0</ele><time>2026-04-27T13:15:43Z</time></trkpt><trkpt lat="37.97238651127049" lon="-3.7982116978406557"><ele>269.3333333333333</ele><time>2026-04-27T13:15:44Z</time></trkpt><trkpt lat="37.97244739789187" lon="-3.798104425661129"><ele>269.6666666666667</ele><time>2026-04-27T13:15:46Z</time></trkpt><trkpt lat="37.97248392003259" lon="-3.798003936108109"><ele>270.0</ele><time>2026-04-27T13:15:48Z</time></trkpt><trkpt lat="37.97247786361301" lon="-3.79785751667793"><ele>270.0</ele><time>2026-04-27T13:15:50Z</time></trkpt><trkpt lat="37.97251231786417" lon="-3.7977340478371735"><ele>270.0</ele><time>2026-04-27T13:15:51Z</time></trkpt><trkpt lat="37.97253821382412" lon="-3.7976503769038343"><ele>270.0</ele><time>2026-04-27T13:15:52Z</time></trkpt><trkpt lat="37.97258778184759" lon="-3.7975782285959316"><ele>270.0</ele><time>2026-04-27T13:15:53Z</time></trkpt><trkpt lat="37.972660720252556" lon="-3.79753912423259"><ele>270.0</ele><time>2026-04-27T13:15:54Z</time></trkpt><trkpt lat="37.97273278005438" lon="-3.797538252444482"><ele>270.0</ele><time>2026-04-27T13:15:55Z</time></trkpt><trkpt lat="37.97281541129086" lon="-3.7975799479327645"><ele>269.75</ele><time>2026-04-27T13:15:56Z</time></trkpt><trkpt lat="37.97290432933334" lon="-3.797656387663425"><ele>269.5</ele><time>2026-04-27T13:15:57Z</time></trkpt><trkpt lat="37.97301108487135" lon="-3.797731036505283"><ele>269.25</ele><time>2026-04-27T13:15:58Z</time></trkpt><trkpt lat="37.97314984051525" lon="-3.7977828733019976"><ele>269.0</ele><time>2026-04-27T13:15:59Z</time></trkpt><trkpt lat="37.97330330512677" lon="-3.7977974460668973"><ele>266.6666666666667</ele><time>2026-04-27T13:16:00Z</time></trkpt><trkpt lat="37.973486227483555" lon="-3.7977947294902683"><ele>264.3333333333333</ele><time>2026-04-27T13:16:01Z</time></trkpt><trkpt lat="37.97368242602589" lon="-3.7977987920095346"><ele>262.0</ele><time>2026-04-27T13:16:02Z</time></trkpt><trkpt lat="37.973887459693934" lon="-3.797805145223572"><ele>262.0</ele><time>2026-04-27T13:16:03Z</time></trkpt><trkpt lat="37.974078654153224" lon="-3.7978128076913555"><ele>262.0</ele><time>2026-04-27T13:16:04Z</time></trkpt><trkpt lat="37.9742737668852" lon="-3.7978231931435835"><ele>262.0</ele><time>2026-04-27T13:16:05Z</time></trkpt><trkpt lat="37.97446431582566" lon="-3.797834696757441"><ele>261.0</ele><time>2026-04-27T13:16:06Z</time></trkpt><trkpt lat="37.974658829818374" lon="-3.7978472310348104"><ele>260.0</ele><time>2026-04-27T13:16:07Z</time></trkpt><trkpt lat="37.97485906659727" lon="-3.797859828352558"><ele>259.0</ele><time>2026-04-27T13:16:08Z</time></trkpt><trkpt lat="37.975062524931886" lon="-3.797854169885052"><ele>256.0</ele><time>2026-04-27T13:16:09Z</time></trkpt><trkpt lat="37.97526459569328" lon="-3.79788463583646"><ele>253.0</ele><time>2026-04-27T13:16:10Z</time></trkpt><trkpt lat="37.97545453449504" lon="-3.797876270571233"><ele>250.0</ele><time>2026-04-27T13:16:11Z</time></trkpt><trkpt lat="37.975629994060704" lon="-3.797886342751591"><ele>250.0</ele><time>2026-04-27T13:16:12Z</time></trkpt><trkpt lat="37.975794491810916" lon="-3.797895785669789"><ele>250.0</ele><time>2026-04-27T13:16:13Z</time></trkpt><trkpt lat="37.975969479700595" lon="-3.7979058307744595"><ele>250.0</ele><time>2026-04-27T13:16:14Z</time></trkpt><trkpt lat="37.9761469299829" lon="-3.7979160172328124"><ele>249.66666666666666</ele><time>2026-04-27T13:16:15Z</time></trkpt><trkpt lat="37.97633157119618" lon="-3.7979461376258348"><ele>249.33333333333331</ele><time>2026-04-27T13:16:16Z</time></trkpt><trkpt lat="37.97651932885471" lon="-3.797951243704079"><ele>249.0</ele><time>2026-04-27T13:16:17Z</time></trkpt><trkpt lat="37.97670214143714" lon="-3.797960544421956"><ele>248.33333333333331</ele><time>2026-04-27T13:16:18Z</time></trkpt><trkpt lat="37.97689113304189" lon="-3.7979733949756342"><ele>247.66666666666666</ele><time>2026-04-27T13:16:19Z</time></trkpt><trkpt lat="37.97708190719787" lon="-3.7979861800350707"><ele>247.0</ele><time>2026-04-27T13:16:20Z</time></trkpt><trkpt lat="37.97727508418145" lon="-3.7979988993420926"><ele>247.0</ele><time>2026-04-27T13:16:21Z</time></trkpt><trkpt lat="37.97748068263345" lon="-3.797991063272536"><ele>247.0</ele><time>2026-04-27T13:16:22Z</time></trkpt><trkpt lat="37.97768108030629" lon="-3.7979999414603767"><ele>247.0</ele><time>2026-04-27T13:16:23Z</time></trkpt><trkpt lat="37.977882987587655" lon="-3.7980327220005865"><ele>246.33333333333331</ele><time>2026-04-27T13:16:24Z</time></trkpt><trkpt lat="37.97808644454446" lon="-3.7980417327313987"><ele>245.66666666666669</ele><time>2026-04-27T13:16:25Z</time></trkpt><trkpt lat="37.978287856285405" lon="-3.798053766797418"><ele>245.0</ele><time>2026-04-27T13:16:26Z</time></trkpt><trkpt lat="37.978493696197816" lon="-3.798041987234473"><ele>244.66666666666669</ele><time>2026-04-27T13:16:27Z</time></trkpt><trkpt lat="37.97869592888891" lon="-3.7980486359779757"><ele>244.33333333333331</ele><time>2026-04-27T13:16:28Z</time></trkpt><trkpt lat="37.978897282107084" lon="-3.7980754855053105"><ele>244.0</ele><time>2026-04-27T13:16:29Z</time></trkpt><trkpt lat="37.97910299138411" lon="-3.7980806468969392"><ele>244.33333333333331</ele><time>2026-04-27T13:16:30Z</time></trkpt><trkpt lat="37.9793078059439" lon="-3.7980846582580576"><ele>244.66666666666669</ele><time>2026-04-27T13:16:31Z</time></trkpt><trkpt lat="37.979514425961675" lon="-3.798093334818647"><ele>245.0</ele><time>2026-04-27T13:16:32Z</time></trkpt><trkpt lat="37.97972724686477" lon="-3.7980983668902506"><ele>245.0</ele><time>2026-04-27T13:16:33Z</time></trkpt><trkpt lat="37.97993651098372" lon="-3.79810375188308"><ele>245.0</ele><time>2026-04-27T13:16:34Z</time></trkpt><trkpt lat="37.9801500955127" lon="-3.7981108948777256"><ele>245.0</ele><time>2026-04-27T13:16:35Z</time></trkpt><trkpt lat="37.98036494234657" lon="-3.798114142148144"><ele>244.33333333333334</ele><time>2026-04-27T13:16:36Z</time></trkpt><trkpt lat="37.980582302041874" lon="-3.798117716718963"><ele>243.66666666666669</ele><time>2026-04-27T13:16:37Z</time></trkpt><trkpt lat="37.9807994300653" lon="-3.7981209226539856"><ele>243.0</ele><time>2026-04-27T13:16:38Z</time></trkpt><trkpt lat="37.9810181069649" lon="-3.79812453744461"><ele>243.0</ele><time>2026-04-27T13:16:39Z</time></trkpt><trkpt lat="37.981234840935755" lon="-3.7981276976734026"><ele>243.0</ele><time>2026-04-27T13:16:40Z</time></trkpt><trkpt lat="37.981438922914585" lon="-3.798133445797822"><ele>243.0</ele><time>2026-04-27T13:16:41Z</time></trkpt><trkpt lat="37.98164128321436" lon="-3.79813192105868"><ele>243.0</ele><time>2026-04-27T13:16:42Z</time></trkpt><trkpt lat="37.98184042047679" lon="-3.7981350777678764"><ele>243.0</ele><time>2026-04-27T13:16:43Z</time></trkpt><trkpt lat="37.98204169378821" lon="-3.7981488442514673"><ele>243.0</ele><time>2026-04-27T13:16:44Z</time></trkpt><trkpt lat="37.98224721119305" lon="-3.7981778381228892"><ele>243.0</ele><time>2026-04-27T13:16:45Z</time></trkpt><trkpt lat="37.98245508227753" lon="-3.7982216885318145"><ele>243.0</ele><time>2026-04-27T13:16:46Z</time></trkpt><trkpt lat="37.982659484621465" lon="-3.798288799958462"><ele>243.0</ele><time>2026-04-27T13:16:47Z</time></trkpt><trkpt lat="37.98286736053083" lon="-3.7983750201609543"><ele>242.5</ele><time>2026-04-27T13:16:48Z</time></trkpt><trkpt lat="37.98306890972906" lon="-3.7984822482283374"><ele>242.0</ele><time>2026-04-27T13:16:49Z</time></trkpt><trkpt lat="37.98328197606089" lon="-3.79860735292088"><ele>237.5</ele><time>2026-04-27T13:16:50Z</time></trkpt><trkpt lat="37.98350749362394" lon="-3.7987407476396786"><ele>233.0</ele><time>2026-04-27T13:16:51Z</time></trkpt><trkpt lat="37.98373846005894" lon="-3.798881970724869"><ele>233.0</ele><time>2026-04-27T13:16:52Z</time></trkpt><trkpt lat="37.98397897769411" lon="-3.7990276034402757"><ele>233.0</ele><time>2026-04-27T13:16:53Z</time></trkpt><trkpt lat="37.98423296597241" lon="-3.799156130460131"><ele>235.0</ele><time>2026-04-27T13:16:54Z</time></trkpt><trkpt lat="37.98448629554186" lon="-3.7993070054949403"><ele>237.0</ele><time>2026-04-27T13:16:55Z</time></trkpt><trkpt lat="37.98474490852271" lon="-3.7994622784756427"><ele>238.5</ele><time>2026-04-27T13:16:56Z</time></trkpt><trkpt lat="37.984996869376346" lon="-3.7996340337222536"><ele>240.0</ele><time>2026-04-27T13:16:57Z</time></trkpt><trkpt lat="37.985257784558925" lon="-3.799781734707613"><ele>242.0</ele><time>2026-04-27T13:16:58Z</time></trkpt><trkpt lat="37.985512593598465" lon="-3.799923339334064"><ele>244.0</ele><time>2026-04-27T13:16:59Z</time></trkpt><trkpt lat="37.98576904260827" lon="-3.8000556649689536"><ele>245.0</ele><time>2026-04-27T13:17:00Z</time></trkpt><trkpt lat="37.98602998526461" lon="-3.8001520303572867"><ele>246.0</ele><time>2026-04-27T13:17:01Z</time></trkpt><trkpt lat="37.986287794905" lon="-3.80025077528207"><ele>244.5</ele><time>2026-04-27T13:17:02Z</time></trkpt><trkpt lat="37.98654561752336" lon="-3.800328164559884"><ele>243.0</ele><time>2026-04-27T13:17:03Z</time></trkpt><trkpt lat="37.986788953459005" lon="-3.8003754566777643"><ele>243.0</ele><time>2026-04-27T13:17:04Z</time></trkpt><trkpt lat="37.987022278364726" lon="-3.8004261671304054"><ele>243.0</ele><time>2026-04-27T13:17:05Z</time></trkpt><trkpt lat="37.987245493934076" lon="-3.8004302329777437"><ele>243.0</ele><time>2026-04-27T13:17:06Z</time></trkpt><trkpt lat="37.9874648391582" lon="-3.8004262921846657"><ele>243.0</ele><time>2026-04-27T13:17:07Z</time></trkpt><trkpt lat="37.987681010921634" lon="-3.8004155213836586"><ele>243.0</ele><time>2026-04-27T13:17:08Z</time></trkpt><trkpt lat="37.98790111204028" lon="-3.800391365158321"><ele>242.5</ele><time>2026-04-27T13:17:09Z</time></trkpt><trkpt lat="37.98811980720864" lon="-3.8003510585819993"><ele>242.0</ele><time>2026-04-27T13:17:10Z</time></trkpt><trkpt lat="37.98834538187951" lon="-3.8002973476119934"><ele>242.0</ele><time>2026-04-27T13:17:11Z</time></trkpt><trkpt lat="37.98857262436414" lon="-3.800243409594542"><ele>242.0</ele><time>2026-04-27T13:17:12Z</time></trkpt><trkpt lat="37.98879389143061" lon="-3.8001654261762323"><ele>242.5</ele><time>2026-04-27T13:17:13Z</time></trkpt><trkpt lat="37.98901821772883" lon="-3.8000861594899833"><ele>243.0</ele><time>2026-04-27T13:17:14Z</time></trkpt><trkpt lat="37.989245362673984" lon="-3.800007166364675"><ele>243.0</ele><time>2026-04-27T13:17:15Z</time></trkpt><trkpt lat="37.98947410143412" lon="-3.7999311264400784"><ele>243.0</ele><time>2026-04-27T13:17:16Z</time></trkpt><trkpt lat="37.989709160449216" lon="-3.7998424775178434"><ele>243.0</ele><time>2026-04-27T13:17:17Z</time></trkpt><trkpt lat="37.989949856229124" lon="-3.799751034388327"><ele>243.0</ele><time>2026-04-27T13:17:18Z</time></trkpt><trkpt lat="37.99019556621886" lon="-3.7996623489798287"><ele>242.5</ele><time>2026-04-27T13:17:19Z</time></trkpt><trkpt lat="37.99044821459824" lon="-3.7995706046116298"><ele>242.0</ele><time>2026-04-27T13:17:20Z</time></trkpt><trkpt lat="37.99070069915955" lon="-3.799480251028789"><ele>242.5</ele><time>2026-04-27T13:17:21Z</time></trkpt><trkpt lat="37.99095032760085" lon="-3.799388503297717"><ele>243.0</ele><time>2026-04-27T13:17:22Z</time></trkpt><trkpt lat="37.99120259539614" lon="-3.7992975849674315"><ele>243.0</ele><time>2026-04-27T13:17:23Z</time></trkpt><trkpt lat="37.991454611190264" lon="-3.799204751602746"><ele>243.0</ele><time>2026-04-27T13:17:24Z</time></trkpt><trkpt lat="37.9917120976814" lon="-3.799111472783494"><ele>243.0</ele><time>2026-04-27T13:17:25Z</time></trkpt><trkpt lat="37.991968415864044" lon="-3.799015693971994"><ele>243.0</ele><time>2026-04-27T13:17:26Z</time></trkpt><trkpt lat="37.992225809251956" lon="-3.798920666842388"><ele>243.0</ele><time>2026-04-27T13:17:27Z</time></trkpt><trkpt lat="37.99248325966057" lon="-3.798832030266161"><ele>243.0</ele><time>2026-04-27T13:17:28Z</time></trkpt><trkpt lat="37.9927491285825" lon="-3.7987324989134748"><ele>242.5</ele><time>2026-04-27T13:17:29Z</time></trkpt><trkpt lat="37.99300901835305" lon="-3.79864281463206"><ele>242.0</ele><time>2026-04-27T13:17:30Z</time></trkpt><trkpt lat="37.99327421977334" lon="-3.798548305436215"><ele>241.0</ele><time>2026-04-27T13:17:31Z</time></trkpt><trkpt lat="37.99353864239609" lon="-3.798449701855131"><ele>240.0</ele><time>2026-04-27T13:17:32Z</time></trkpt><trkpt lat="37.99379853393425" lon="-3.798351242803705"><ele>240.0</ele><time>2026-04-27T13:17:33Z</time></trkpt><trkpt lat="37.99406391897926" lon="-3.7982538204166123"><ele>240.0</ele><time>2026-04-27T13:17:34Z</time></trkpt><trkpt lat="37.99432298995519" lon="-3.7981567243511307"><ele>239.5</ele><time>2026-04-27T13:17:35Z</time></trkpt><trkpt lat="37.994583101828766" lon="-3.7980546342280834"><ele>239.0</ele><time>2026-04-27T13:17:36Z</time></trkpt><trkpt lat="37.99483950962628" lon="-3.797955277805827"><ele>240.0</ele><time>2026-04-27T13:17:37Z</time></trkpt><trkpt lat="37.995099075323886" lon="-3.7978537906965646"><ele>241.0</ele><time>2026-04-27T13:17:38Z</time></trkpt><trkpt lat="37.995357753632014" lon="-3.7977583265261567"><ele>242.0</ele><time>2026-04-27T13:17:39Z</time></trkpt><trkpt lat="37.9956152670794" lon="-3.797664126899243"><ele>243.0</ele><time>2026-04-27T13:17:40Z</time></trkpt><trkpt lat="37.99587174994969" lon="-3.797567501261624"><ele>243.0</ele><time>2026-04-27T13:17:41Z</time></trkpt><trkpt lat="37.996129819028816" lon="-3.7974652736406362"><ele>243.0</ele><time>2026-04-27T13:17:42Z</time></trkpt><trkpt lat="37.9963853330514" lon="-3.7973551177680585"><ele>243.0</ele><time>2026-04-27T13:17:43Z</time></trkpt><trkpt lat="37.99663482938922" lon="-3.7972381319122555"><ele>243.0</ele><time>2026-04-27T13:17:44Z</time></trkpt><trkpt lat="37.996890250457824" lon="-3.797109633558901"><ele>242.5</ele><time>2026-04-27T13:17:45Z</time></trkpt><trkpt lat="37.99713932701024" lon="-3.796964226841718"><ele>242.0</ele><time>2026-04-27T13:17:46Z</time></trkpt><trkpt lat="37.997389322306546" lon="-3.7968135555677645"><ele>242.0</ele><time>2026-04-27T13:17:47Z</time></trkpt><trkpt lat="37.997635903793224" lon="-3.7966579264065596"><ele>242.0</ele><time>2026-04-27T13:17:48Z</time></trkpt><trkpt lat="37.99787687169566" lon="-3.7964943863475655"><ele>242.0</ele><time>2026-04-27T13:17:49Z</time></trkpt><trkpt lat="37.998116583686816" lon="-3.796330840363172"><ele>242.0</ele><time>2026-04-27T13:17:50Z</time></trkpt><trkpt lat="37.99835642007092" lon="-3.7961491556096125"><ele>244.0</ele><time>2026-04-27T13:17:51Z</time></trkpt><trkpt lat="37.998592496935586" lon="-3.7959654588728764"><ele>246.0</ele><time>2026-04-27T13:17:52Z</time></trkpt><trkpt lat="37.99882299886" lon="-3.7957734063267665"><ele>246.0</ele><time>2026-04-27T13:17:53Z</time></trkpt><trkpt lat="37.999040857171416" lon="-3.7955796888776683"><ele>246.0</ele><time>2026-04-27T13:17:54Z</time></trkpt><trkpt lat="37.99926256176246" lon="-3.7953718975260355"><ele>247.0</ele><time>2026-04-27T13:17:55Z</time></trkpt><trkpt lat="37.999474292231945" lon="-3.7951582566125337"><ele>248.0</ele><time>2026-04-27T13:17:56Z</time></trkpt><trkpt lat="37.99968300304376" lon="-3.794944471315257"><ele>248.0</ele><time>2026-04-27T13:17:57Z</time></trkpt><trkpt lat="37.999887918640205" lon="-3.794732934522947"><ele>248.0</ele><time>2026-04-27T13:17:58Z</time></trkpt><trkpt lat="38.000087935087976" lon="-3.7945230900979867"><ele>253.5</ele><time>2026-04-27T13:17:59Z</time></trkpt><trkpt lat="38.00028443501534" lon="-3.794310303792654"><ele>259.0</ele><time>2026-04-27T13:18:00Z</time></trkpt><trkpt lat="38.000480593437416" lon="-3.794091139863862"><ele>259.0</ele><time>2026-04-27T13:18:01Z</time></trkpt><trkpt lat="38.000671596532484" lon="-3.7938680708389154"><ele>259.0</ele><time>2026-04-27T13:18:02Z</time></trkpt><trkpt lat="38.000865098884" lon="-3.79364429184987"><ele>262.5</ele><time>2026-04-27T13:18:03Z</time></trkpt><trkpt lat="38.001055875750396" lon="-3.7934202379261315"><ele>266.0</ele><time>2026-04-27T13:18:04Z</time></trkpt><trkpt lat="38.001248860307534" lon="-3.7931882976740696"><ele>266.0</ele><time>2026-04-27T13:18:05Z</time></trkpt><trkpt lat="38.00143778172433" lon="-3.7929601735866783"><ele>266.0</ele><time>2026-04-27T13:18:06Z</time></trkpt><trkpt lat="38.001632060613375" lon="-3.79273297939472"><ele>264.5</ele><time>2026-04-27T13:18:07Z</time></trkpt><trkpt lat="38.00182067216132" lon="-3.7925031830353833"><ele>263.0</ele><time>2026-04-27T13:18:08Z</time></trkpt><trkpt lat="38.00200776575487" lon="-3.792275290145095"><ele>263.0</ele><time>2026-04-27T13:18:09Z</time></trkpt><trkpt lat="38.00219486552577" lon="-3.7920484505789496"><ele>263.0</ele><time>2026-04-27T13:18:10Z</time></trkpt><trkpt lat="38.00238429484286" lon="-3.7918228894453576"><ele>263.0</ele><time>2026-04-27T13:18:11Z</time></trkpt><trkpt lat="38.002574739664" lon="-3.7916004772618246"><ele>263.0</ele><time>2026-04-27T13:18:12Z</time></trkpt><trkpt lat="38.00276364436915" lon="-3.7913821627773223"><ele>263.0</ele><time>2026-04-27T13:18:13Z</time></trkpt><trkpt lat="38.00294845997432" lon="-3.7911703103387544"><ele>263.0</ele><time>2026-04-27T13:18:14Z</time></trkpt><trkpt lat="38.00312709652523" lon="-3.7909668703243553"><ele>264.0</ele><time>2026-04-27T13:18:15Z</time></trkpt><trkpt lat="38.00330493712845" lon="-3.790763706989903"><ele>265.0</ele><time>2026-04-27T13:18:16Z</time></trkpt><trkpt lat="38.003482729432946" lon="-3.790559463334344"><ele>265.0</ele><time>2026-04-27T13:18:17Z</time></trkpt><trkpt lat="38.00366678340139" lon="-3.790358965440697"><ele>265.0</ele><time>2026-04-27T13:18:18Z</time></trkpt><trkpt lat="38.00385097082824" lon="-3.790159664851"><ele>266.0</ele><time>2026-04-27T13:18:19Z</time></trkpt><trkpt lat="38.00403565808475" lon="-3.7899675918328533"><ele>267.0</ele><time>2026-04-27T13:18:20Z</time></trkpt><trkpt lat="38.004206566902155" lon="-3.789792046546774"><ele>267.0</ele><time>2026-04-27T13:18:21Z</time></trkpt><trkpt lat="38.00437625372268" lon="-3.789622467363862"><ele>267.0</ele><time>2026-04-27T13:18:22Z</time></trkpt><trkpt lat="38.00455876719231" lon="-3.7894483591857457"><ele>267.0</ele><time>2026-04-27T13:18:23Z</time></trkpt><trkpt lat="38.00474840541887" lon="-3.7892475098454406"><ele>269.0</ele><time>2026-04-27T13:18:24Z</time></trkpt><trkpt lat="38.00496152343576" lon="-3.7890555805173936"><ele>271.0</ele><time>2026-04-27T13:18:25Z</time></trkpt><trkpt lat="38.005183460482144" lon="-3.7888667518527885"><ele>271.5</ele><time>2026-04-27T13:18:26Z</time></trkpt><trkpt lat="38.005423440252486" lon="-3.788694062776397"><ele>272.0</ele><time>2026-04-27T13:18:27Z</time></trkpt><trkpt lat="38.00565176866615" lon="-3.788512519844845"><ele>274.5</ele><time>2026-04-27T13:18:28Z</time></trkpt><trkpt lat="38.005879080850114" lon="-3.788320067006164"><ele>277.0</ele><time>2026-04-27T13:18:29Z</time></trkpt><trkpt lat="38.00612330652342" lon="-3.78814934608412"><ele>277.0</ele><time>2026-04-27T13:18:30Z</time></trkpt><trkpt lat="38.006380998205216" lon="-3.788003888048403"><ele>277.0</ele><time>2026-04-27T13:18:31Z</time></trkpt><trkpt lat="38.006633503898684" lon="-3.7878454897906395"><ele>278.0</ele><time>2026-04-27T13:18:32Z</time></trkpt><trkpt lat="38.006895161253745" lon="-3.7876793307977876"><ele>279.0</ele><time>2026-04-27T13:18:33Z</time></trkpt><trkpt lat="38.007168646395954" lon="-3.7875367126835973"><ele>280.0</ele><time>2026-04-27T13:18:34Z</time></trkpt><trkpt lat="38.00745754295697" lon="-3.7874267494769933"><ele>281.0</ele><time>2026-04-27T13:18:35Z</time></trkpt><trkpt lat="38.007746610771086" lon="-3.7873079668895033"><ele>285.0</ele><time>2026-04-27T13:18:36Z</time></trkpt><trkpt lat="38.00804061113925" lon="-3.7872080999800612"><ele>289.0</ele><time>2026-04-27T13:18:37Z</time></trkpt><trkpt lat="38.008340053917884" lon="-3.787106454341067"><ele>292.5</ele><time>2026-04-27T13:18:38Z</time></trkpt><trkpt lat="38.00864607363894" lon="-3.787031766124586"><ele>296.0</ele><time>2026-04-27T13:18:39Z</time></trkpt><trkpt lat="38.00895213222416" lon="-3.786979799460004"><ele>298.0</ele><time>2026-04-27T13:18:40Z</time></trkpt><trkpt lat="38.00926139204523" lon="-3.786935652769757"><ele>300.0</ele><time>2026-04-27T13:18:41Z</time></trkpt><trkpt lat="38.009572289525856" lon="-3.7869009813890186"><ele>300.0</ele><time>2026-04-27T13:18:42Z</time></trkpt><trkpt lat="38.00988005001625" lon="-3.7868791315247976"><ele>300.0</ele><time>2026-04-27T13:18:43Z</time></trkpt><trkpt lat="38.010178436136755" lon="-3.78685694929214"><ele>301.0</ele><time>2026-04-27T13:18:44Z</time></trkpt><trkpt lat="38.010471538956686" lon="-3.786830848956037"><ele>302.0</ele><time>2026-04-27T13:18:45Z</time></trkpt><trkpt lat="38.010758012811756" lon="-3.786811639156758"><ele>304.5</ele><time>2026-04-27T13:18:46Z</time></trkpt><trkpt lat="38.01103433297483" lon="-3.7868044493025215"><ele>307.0</ele><time>2026-04-27T13:18:47Z</time></trkpt><trkpt lat="38.0113064109948" lon="-3.7867664648215755"><ele>307.0</ele><time>2026-04-27T13:18:48Z</time></trkpt><trkpt lat="38.01157061692533" lon="-3.7866929890109056"><ele>307.0</ele><time>2026-04-27T13:18:49Z</time></trkpt><trkpt lat="38.011832987487715" lon="-3.7866296776029857"><ele>308.5</ele><time>2026-04-27T13:18:50Z</time></trkpt><trkpt lat="38.012096190094454" lon="-3.7865545523874458"><ele>310.0</ele><time>2026-04-27T13:18:51Z</time></trkpt><trkpt lat="38.012358482579046" lon="-3.7864630706435367"><ele>308.5</ele><time>2026-04-27T13:18:52Z</time></trkpt><trkpt lat="38.01262348317146" lon="-3.7863743431613877"><ele>307.0</ele><time>2026-04-27T13:18:53Z</time></trkpt><trkpt lat="38.012881244358816" lon="-3.7862556059385533"><ele>307.0</ele><time>2026-04-27T13:18:54Z</time></trkpt><trkpt lat="38.01313457833441" lon="-3.7861309014477875"><ele>307.0</ele><time>2026-04-27T13:18:55Z</time></trkpt><trkpt lat="38.013383481023595" lon="-3.786003283560969"><ele>305.0</ele><time>2026-04-27T13:18:56Z</time></trkpt><trkpt lat="38.013628093571086" lon="-3.785863229025129"><ele>303.0</ele><time>2026-04-27T13:18:57Z</time></trkpt><trkpt lat="38.0138771561372" lon="-3.7857316524944586"><ele>303.0</ele><time>2026-04-27T13:18:58Z</time></trkpt><trkpt lat="38.014119844798834" lon="-3.785585435223755"><ele>303.0</ele><time>2026-04-27T13:18:59Z</time></trkpt><trkpt lat="38.01436408401817" lon="-3.7854468943637816"><ele>302.5</ele><time>2026-04-27T13:19:00Z</time></trkpt><trkpt lat="38.014609338461604" lon="-3.7853109832817955"><ele>302.0</ele><time>2026-04-27T13:19:01Z</time></trkpt><trkpt lat="38.01485783980153" lon="-3.7851680107460965"><ele>299.5</ele><time>2026-04-27T13:19:02Z</time></trkpt><trkpt lat="38.01510578651782" lon="-3.785026091329894"><ele>297.0</ele><time>2026-04-27T13:19:03Z</time></trkpt><trkpt lat="38.015352799904846" lon="-3.784883197515067"><ele>297.0</ele><time>2026-04-27T13:19:04Z</time></trkpt><trkpt lat="38.01559818914796" lon="-3.7847450936546188"><ele>297.0</ele><time>2026-04-27T13:19:05Z</time></trkpt><trkpt lat="38.01584637613262" lon="-3.7846030896032645"><ele>295.5</ele><time>2026-04-27T13:19:06Z</time></trkpt><trkpt lat="38.01609390249673" lon="-3.7844653670617476"><ele>294.0</ele><time>2026-04-27T13:19:07Z</time></trkpt><trkpt lat="38.01633923321335" lon="-3.784328040858246"><ele>294.0</ele><time>2026-04-27T13:19:08Z</time></trkpt><trkpt lat="38.01658206100598" lon="-3.784195591251279"><ele>294.0</ele><time>2026-04-27T13:19:09Z</time></trkpt><trkpt lat="38.01682536290931" lon="-3.784064573054527"><ele>290.5</ele><time>2026-04-27T13:19:10Z</time></trkpt><trkpt lat="38.017063007740994" lon="-3.783934027085168"><ele>287.0</ele><time>2026-04-27T13:19:11Z</time></trkpt><trkpt lat="38.017299343212215" lon="-3.7838009785255506"><ele>285.5</ele><time>2026-04-27T13:19:12Z</time></trkpt><trkpt lat="38.017539498230946" lon="-3.7836693540274116"><ele>284.0</ele><time>2026-04-27T13:19:13Z</time></trkpt><trkpt lat="38.01777976733222" lon="-3.783543287675255"><ele>285.5</ele><time>2026-04-27T13:19:14Z</time></trkpt><trkpt lat="38.01801562269746" lon="-3.7834144379049595"><ele>287.0</ele><time>2026-04-27T13:19:15Z</time></trkpt><trkpt lat="38.01825701676804" lon="-3.783283122830334"><ele>286.0</ele><time>2026-04-27T13:19:16Z</time></trkpt><trkpt lat="38.018492885006296" lon="-3.7831521332697386"><ele>285.0</ele><time>2026-04-27T13:19:17Z</time></trkpt><trkpt lat="38.018727306030655" lon="-3.7830235237609724"><ele>285.0</ele><time>2026-04-27T13:19:18Z</time></trkpt><trkpt lat="38.01896274484232" lon="-3.7828971439469616"><ele>285.0</ele><time>2026-04-27T13:19:19Z</time></trkpt><trkpt lat="38.019170666113745" lon="-3.7827883364268398"><ele>285.0</ele><time>2026-04-27T13:19:20Z</time></trkpt><trkpt lat="38.01936195314044" lon="-3.7826906917559935"><ele>285.0</ele><time>2026-04-27T13:19:21Z</time></trkpt><trkpt lat="38.01955367188315" lon="-3.782588582798523"><ele>285.0</ele><time>2026-04-27T13:19:22Z</time></trkpt><trkpt lat="38.01973939248574" lon="-3.782484533364642"><ele>285.0</ele><time>2026-04-27T13:19:23Z</time></trkpt><trkpt lat="38.019911208498115" lon="-3.782386873609081"><ele>285.0</ele><time>2026-04-27T13:19:24Z</time></trkpt><trkpt lat="38.02007742028453" lon="-3.7823006212388783"><ele>285.0</ele><time>2026-04-27T13:19:25Z</time></trkpt><trkpt lat="38.0202440169845" lon="-3.7822125993724054"><ele>284.6666666666667</ele><time>2026-04-27T13:19:26Z</time></trkpt><trkpt lat="38.02041952328291" lon="-3.782114675214759"><ele>284.33333333333337</ele><time>2026-04-27T13:19:27Z</time></trkpt><trkpt lat="38.02059621939787" lon="-3.7820222008929494"><ele>284.0</ele><time>2026-04-27T13:19:28Z</time></trkpt><trkpt lat="38.020775639759265" lon="-3.7819279187325052"><ele>283.33333333333337</ele><time>2026-04-27T13:19:29Z</time></trkpt><trkpt lat="38.020960378997366" lon="-3.7818289703723567"><ele>282.6666666666667</ele><time>2026-04-27T13:19:30Z</time></trkpt><trkpt lat="38.021148386779274" lon="-3.7817268547727276"><ele>282.0</ele><time>2026-04-27T13:19:31Z</time></trkpt><trkpt lat="38.02133836003294" lon="-3.7816242459385943"><ele>282.0</ele><time>2026-04-27T13:19:32Z</time></trkpt><trkpt lat="38.02153098312944" lon="-3.7815195191483983"><ele>282.0</ele><time>2026-04-27T13:19:33Z</time></trkpt><trkpt lat="38.021717922246395" lon="-3.7814193508980383"><ele>282.0</ele><time>2026-04-27T13:19:34Z</time></trkpt><trkpt lat="38.02189426465198" lon="-3.7813256533683597"><ele>280.3333333333333</ele><time>2026-04-27T13:19:35Z</time></trkpt><trkpt lat="38.022072856144085" lon="-3.7812291423864366"><ele>278.66666666666663</ele><time>2026-04-27T13:19:36Z</time></trkpt><trkpt lat="38.022251788573726" lon="-3.7811333343724605"><ele>277.0</ele><time>2026-04-27T13:19:37Z</time></trkpt><trkpt lat="38.022426950008516" lon="-3.781036727834397"><ele>276.0</ele><time>2026-04-27T13:19:38Z</time></trkpt><trkpt lat="38.02258871312672" lon="-3.780951477066119"><ele>275.0</ele><time>2026-04-27T13:19:39Z</time></trkpt><trkpt lat="38.02274910943474" lon="-3.7808652944021763"><ele>274.0</ele><time>2026-04-27T13:19:40Z</time></trkpt><trkpt lat="38.022915357326966" lon="-3.7807754177860096"><ele>274.0</ele><time>2026-04-27T13:19:41Z</time></trkpt><trkpt lat="38.02308556218009" lon="-3.7806836812497284"><ele>274.0</ele><time>2026-04-27T13:19:42Z</time></trkpt><trkpt lat="38.023256119473885" lon="-3.780593168820832"><ele>274.0</ele><time>2026-04-27T13:19:43Z</time></trkpt><trkpt lat="38.02341544836724" lon="-3.780506607960015"><ele>273.0</ele><time>2026-04-27T13:19:44Z</time></trkpt><trkpt lat="38.023573526796" lon="-3.780414454676991"><ele>272.0</ele><time>2026-04-27T13:19:45Z</time></trkpt><trkpt lat="38.02373189309927" lon="-3.7803194348046882"><ele>271.0</ele><time>2026-04-27T13:19:46Z</time></trkpt><trkpt lat="38.023885024704136" lon="-3.7802212404371183"><ele>271.5</ele><time>2026-04-27T13:19:47Z</time></trkpt><trkpt lat="38.024020540428324" lon="-3.7801164499146602"><ele>272.0</ele><time>2026-04-27T13:19:48Z</time></trkpt><trkpt lat="38.02413810354017" lon="-3.780028556524782"><ele>272.5</ele><time>2026-04-27T13:19:49Z</time></trkpt><trkpt lat="38.024232449138154" lon="-3.779951273637532"><ele>273.0</ele><time>2026-04-27T13:19:50Z</time></trkpt><trkpt lat="38.02430119284692" lon="-3.779870135295559"><ele>273.0</ele><time>2026-04-27T13:19:51Z</time></trkpt><trkpt lat="38.02433898978374" lon="-3.7797691962893234"><ele>273.0</ele><time>2026-04-27T13:19:52Z</time></trkpt><trkpt lat="38.02433810852053" lon="-3.779657810520635"><ele>273.0</ele><time>2026-04-27T13:19:53Z</time></trkpt><trkpt lat="38.024302912027395" lon="-3.7795504112914093"><ele>273.0</ele><time>2026-04-27T13:19:54Z</time></trkpt><trkpt lat="38.02424067527701" lon="-3.779478583552018"><ele>273.0</ele><time>2026-04-27T13:19:55Z</time></trkpt><trkpt lat="38.024169766125844" lon="-3.7794288928248796"><ele>273.0</ele><time>2026-04-27T13:19:56Z</time></trkpt><trkpt lat="38.02408874665295" lon="-3.779388926295533"><ele>272.8</ele><time>2026-04-27T13:19:57Z</time></trkpt><trkpt lat="38.02401677200946" lon="-3.779319457371011"><ele>272.6</ele><time>2026-04-27T13:19:58Z</time></trkpt><trkpt lat="38.02395422012282" lon="-3.7792246508292546"><ele>272.4</ele><time>2026-04-27T13:19:59Z</time></trkpt><trkpt lat="38.02393054444051" lon="-3.779110806845338"><ele>272.2</ele><time>2026-04-27T13:20:00Z</time></trkpt><trkpt lat="38.02394894292355" lon="-3.779001754209085"><ele>272.0</ele><time>2026-04-27T13:20:01Z</time></trkpt><trkpt lat="38.02398548822639" lon="-3.778868707228954"><ele>272.0</ele><time>2026-04-27T13:20:02Z</time></trkpt><trkpt lat="38.02399616561613" lon="-3.7787142566410568"><ele>272.0</ele><time>2026-04-27T13:20:03Z</time></trkpt><trkpt lat="38.023955853303434" lon="-3.778560721167232"><ele>272.0</ele><time>2026-04-27T13:20:04Z</time></trkpt><trkpt lat="38.02389088593154" lon="-3.778398112706946"><ele>272.0</ele><time>2026-04-27T13:20:05Z</time></trkpt><trkpt lat="38.0238282012463" lon="-3.778229537670245"><ele>272.0</ele><time>2026-04-27T13:20:06Z</time></trkpt><trkpt lat="38.02377174780968" lon="-3.778064426254302"><ele>272.0</ele><time>2026-04-27T13:20:07Z</time></trkpt><trkpt lat="38.02370003142181" lon="-3.7778556109532517"><ele>272.0</ele><time>2026-04-27T13:20:08Z</time></trkpt><trkpt lat="38.02363193109719" lon="-3.7776587148674095"><ele>273.33333333333337</ele><time>2026-04-27T13:20:09Z</time></trkpt><trkpt lat="38.0235831856016" lon="-3.7774713675757434"><ele>274.6666666666667</ele><time>2026-04-27T13:20:10Z</time></trkpt><trkpt lat="38.02355082782191" lon="-3.777270268355695"><ele>276.0</ele><time>2026-04-27T13:20:11Z</time></trkpt><trkpt lat="38.02354830067892" lon="-3.7770648665700097"><ele>276.0</ele><time>2026-04-27T13:20:12Z</time></trkpt><trkpt lat="38.02357732558652" lon="-3.7768652372933573"><ele>276.0</ele><time>2026-04-27T13:20:13Z</time></trkpt><trkpt lat="38.02363666873631" lon="-3.7766723979616192"><ele>276.0</ele><time>2026-04-27T13:20:14Z</time></trkpt><trkpt lat="38.02372169568911" lon="-3.7764796664049567"><ele>276.0</ele><time>2026-04-27T13:20:15Z</time></trkpt><trkpt lat="38.02383503773635" lon="-3.776279725001999"><ele>276.0</ele><time>2026-04-27T13:20:16Z</time></trkpt><trkpt lat="38.02398617218392" lon="-3.77606336659557"><ele>276.0</ele><time>2026-04-27T13:20:17Z</time></trkpt><trkpt lat="38.02415189796394" lon="-3.7758120726103845"><ele>276.0</ele><time>2026-04-27T13:20:18Z</time></trkpt><trkpt lat="38.02430521883456" lon="-3.775565267109671"><ele>276.0</ele><time>2026-04-27T13:20:19Z</time></trkpt><trkpt lat="38.024441871473634" lon="-3.775350349548075"><ele>276.3333333333333</ele><time>2026-04-27T13:20:20Z</time></trkpt><trkpt lat="38.02457085076944" lon="-3.775146461376679"><ele>276.66666666666663</ele><time>2026-04-27T13:20:21Z</time></trkpt><trkpt lat="38.02470077008778" lon="-3.7749394107915326"><ele>277.0</ele><time>2026-04-27T13:20:22Z</time></trkpt><trkpt lat="38.024828415601135" lon="-3.7747268807622882"><ele>277.0</ele><time>2026-04-27T13:20:23Z</time></trkpt><trkpt lat="38.02496268577358" lon="-3.774510201545899"><ele>277.0</ele><time>2026-04-27T13:20:24Z</time></trkpt><trkpt lat="38.02509750755005" lon="-3.7742928689799133"><ele>277.0</ele><time>2026-04-27T13:20:25Z</time></trkpt><trkpt lat="38.02522479459756" lon="-3.7740797848256906"><ele>277.0</ele><time>2026-04-27T13:20:26Z</time></trkpt><trkpt lat="38.02535327798691" lon="-3.773863445426701"><ele>277.0</ele><time>2026-04-27T13:20:27Z</time></trkpt><trkpt lat="38.0254786706366" lon="-3.773646859619088"><ele>277.0</ele><time>2026-04-27T13:20:28Z</time></trkpt><trkpt lat="38.02560903672628" lon="-3.77343498854711"><ele>277.0</ele><time>2026-04-27T13:20:29Z</time></trkpt><trkpt lat="38.025736841831744" lon="-3.7732054434955424"><ele>277.0</ele><time>2026-04-27T13:20:30Z</time></trkpt><trkpt lat="38.0258727303652" lon="-3.7729839630740023"><ele>277.0</ele><time>2026-04-27T13:20:31Z</time></trkpt><trkpt lat="38.02600650959049" lon="-3.772759866490434"><ele>276.66666666666663</ele><time>2026-04-27T13:20:32Z</time></trkpt><trkpt lat="38.02614094276752" lon="-3.7725352851255267"><ele>276.3333333333333</ele><time>2026-04-27T13:20:33Z</time></trkpt><trkpt lat="38.02627332863293" lon="-3.772308365162777"><ele>276.0</ele><time>2026-04-27T13:20:34Z</time></trkpt><trkpt lat="38.02640771016964" lon="-3.772078675105608"><ele>276.3333333333333</ele><time>2026-04-27T13:20:35Z</time></trkpt><trkpt lat="38.026545181492715" lon="-3.771851613897123"><ele>276.66666666666663</ele><time>2026-04-27T13:20:36Z</time></trkpt><trkpt lat="38.0266766534061" lon="-3.771631690481707"><ele>277.0</ele><time>2026-04-27T13:20:37Z</time></trkpt><trkpt lat="38.02680576654813" lon="-3.7714166230115733"><ele>277.0</ele><time>2026-04-27T13:20:38Z</time></trkpt><trkpt lat="38.02692501311056" lon="-3.7712121800449308"><ele>277.0</ele><time>2026-04-27T13:20:39Z</time></trkpt><trkpt lat="38.02704267294649" lon="-3.771017897066864"><ele>277.0</ele><time>2026-04-27T13:20:40Z</time></trkpt><trkpt lat="38.02715938706649" lon="-3.7708232752790676"><ele>276.66666666666663</ele><time>2026-04-27T13:20:41Z</time></trkpt><trkpt lat="38.027269938198316" lon="-3.7706329097019786"><ele>276.3333333333333</ele><time>2026-04-27T13:20:42Z</time></trkpt><trkpt lat="38.02738198808688" lon="-3.7704480804741247"><ele>276.0</ele><time>2026-04-27T13:20:43Z</time></trkpt><trkpt lat="38.027494718907306" lon="-3.7702597373698947"><ele>276.0</ele><time>2026-04-27T13:20:44Z</time></trkpt><trkpt lat="38.02760748661658" lon="-3.770069104496791"><ele>276.0</ele><time>2026-04-27T13:20:45Z</time></trkpt><trkpt lat="38.02771823611267" lon="-3.769882462409886"><ele>276.0</ele><time>2026-04-27T13:20:46Z</time></trkpt><trkpt lat="38.027835823658606" lon="-3.7696859736363786"><ele>276.0</ele><time>2026-04-27T13:20:47Z</time></trkpt><trkpt lat="38.02795671913385" lon="-3.769479322579475"><ele>276.0</ele><time>2026-04-27T13:20:48Z</time></trkpt><trkpt lat="38.028072615520884" lon="-3.7692846563784315"><ele>276.0</ele><time>2026-04-27T13:20:49Z</time></trkpt><trkpt lat="38.028191747312576" lon="-3.7690879060407485"><ele>275.6666666666667</ele><time>2026-04-27T13:20:50Z</time></trkpt><trkpt lat="38.028316201968074" lon="-3.7688823272937055"><ele>275.33333333333337</ele><time>2026-04-27T13:20:51Z</time></trkpt><trkpt lat="38.028438933177796" lon="-3.768672858051909"><ele>275.0</ele><time>2026-04-27T13:20:52Z</time></trkpt><trkpt lat="38.02856793803849" lon="-3.768448162718084"><ele>276.0</ele><time>2026-04-27T13:20:53Z</time></trkpt><trkpt lat="38.028701513372305" lon="-3.76822070813536"><ele>277.0</ele><time>2026-04-27T13:20:54Z</time></trkpt><trkpt lat="38.02883879132884" lon="-3.7679818796876807"><ele>277.0</ele><time>2026-04-27T13:20:55Z</time></trkpt><trkpt lat="38.02898002000149" lon="-3.7677422779552363"><ele>277.0</ele><time>2026-04-27T13:20:56Z</time></trkpt><trkpt lat="38.02913092808201" lon="-3.7674977364706934"><ele>276.5</ele><time>2026-04-27T13:20:57Z</time></trkpt><trkpt lat="38.02927781675691" lon="-3.767250500304606"><ele>276.0</ele><time>2026-04-27T13:20:58Z</time></trkpt><trkpt lat="38.02942661290354" lon="-3.7669987126437006"><ele>277.0</ele><time>2026-04-27T13:20:59Z</time></trkpt><trkpt lat="38.02957872401055" lon="-3.7667373440794956"><ele>278.0</ele><time>2026-04-27T13:21:00Z</time></trkpt><trkpt lat="38.02973503089096" lon="-3.7664760156981516"><ele>278.0</ele><time>2026-04-27T13:21:01Z</time></trkpt><trkpt lat="38.02989697550029" lon="-3.7662053275371243"><ele>278.0</ele><time>2026-04-27T13:21:02Z</time></trkpt><trkpt lat="38.03005535747964" lon="-3.7659409758960884"><ele>278.0</ele><time>2026-04-27T13:21:03Z</time></trkpt><trkpt lat="38.030215658363765" lon="-3.7656673411873007"><ele>278.0</ele><time>2026-04-27T13:21:04Z</time></trkpt><trkpt lat="38.030375595086824" lon="-3.7653936428402384"><ele>278.5</ele><time>2026-04-27T13:21:05Z</time></trkpt><trkpt lat="38.0305370459627" lon="-3.7651222635536064"><ele>279.0</ele><time>2026-04-27T13:21:06Z</time></trkpt><trkpt lat="38.03069837701356" lon="-3.764846166673346"><ele>279.0</ele><time>2026-04-27T13:21:07Z</time></trkpt><trkpt lat="38.030857861768524" lon="-3.7645712140655005"><ele>279.0</ele><time>2026-04-27T13:21:08Z</time></trkpt><trkpt lat="38.031020111063484" lon="-3.7642872841129407"><ele>279.0</ele><time>2026-04-27T13:21:09Z</time></trkpt><trkpt lat="38.03118251857247" lon="-3.764000712816855"><ele>279.0</ele><time>2026-04-27T13:21:10Z</time></trkpt><trkpt lat="38.03134972658684" lon="-3.763712078769259"><ele>278.5</ele><time>2026-04-27T13:21:11Z</time></trkpt><trkpt lat="38.03151590832725" lon="-3.7634297506041925"><ele>278.0</ele><time>2026-04-27T13:21:12Z</time></trkpt><trkpt lat="38.03168360194896" lon="-3.7631357443754676"><ele>278.0</ele><time>2026-04-27T13:21:13Z</time></trkpt><trkpt lat="38.03184954100871" lon="-3.762836851520269"><ele>278.0</ele><time>2026-04-27T13:21:14Z</time></trkpt><trkpt lat="38.03201342033302" lon="-3.762546796180726"><ele>279.0</ele><time>2026-04-27T13:21:15Z</time></trkpt><trkpt lat="38.032181713111896" lon="-3.7622537290007494"><ele>280.0</ele><time>2026-04-27T13:21:16Z</time></trkpt><trkpt lat="38.032342291031895" lon="-3.761967236084466"><ele>279.5</ele><time>2026-04-27T13:21:17Z</time></trkpt><trkpt lat="38.03249724145528" lon="-3.7617016838035235"><ele>279.0</ele><time>2026-04-27T13:21:18Z</time></trkpt><trkpt lat="38.032649408331764" lon="-3.76144386004668"><ele>279.0</ele><time>2026-04-27T13:21:19Z</time></trkpt><trkpt lat="38.03279356277802" lon="-3.76118460178678"><ele>279.0</ele><time>2026-04-27T13:21:20Z</time></trkpt><trkpt lat="38.03294112585535" lon="-3.760922300460914"><ele>279.5</ele><time>2026-04-27T13:21:21Z</time></trkpt><trkpt lat="38.03308349948636" lon="-3.7606728788941415"><ele>280.0</ele><time>2026-04-27T13:21:22Z</time></trkpt><trkpt lat="38.03322436437668" lon="-3.760417227047569"><ele>280.5</ele><time>2026-04-27T13:21:23Z</time></trkpt><trkpt lat="38.03336463306325" lon="-3.7601703023393505"><ele>281.0</ele><time>2026-04-27T13:21:24Z</time></trkpt><trkpt lat="38.033502456480065" lon="-3.7599244439903146"><ele>281.0</ele><time>2026-04-27T13:21:25Z</time></trkpt><trkpt lat="38.03364005214957" lon="-3.7596806748401717"><ele>281.0</ele><time>2026-04-27T13:21:26Z</time></trkpt><trkpt lat="38.033781084455086" lon="-3.759440320035839"><ele>281.5</ele><time>2026-04-27T13:21:27Z</time></trkpt><trkpt lat="38.033924321152206" lon="-3.7591980359204427"><ele>282.0</ele><time>2026-04-27T13:21:28Z</time></trkpt><trkpt lat="38.0340691295371" lon="-3.7589441952815505"><ele>281.5</ele><time>2026-04-27T13:21:29Z</time></trkpt><trkpt lat="38.03421994295941" lon="-3.7586992593754163"><ele>281.0</ele><time>2026-04-27T13:21:30Z</time></trkpt><trkpt lat="38.03437964586315" lon="-3.758449251500793"><ele>281.0</ele><time>2026-04-27T13:21:31Z</time></trkpt><trkpt lat="38.03454536236555" lon="-3.758201395160597"><ele>281.0</ele><time>2026-04-27T13:21:32Z</time></trkpt><trkpt lat="38.03471532069202" lon="-3.757971467451213"><ele>281.0</ele><time>2026-04-27T13:21:33Z</time></trkpt><trkpt lat="38.03489327147252" lon="-3.7577406272202096"><ele>281.0</ele><time>2026-04-27T13:21:34Z</time></trkpt><trkpt lat="38.03506744540004" lon="-3.7575165716366303"><ele>280.5</ele><time>2026-04-27T13:21:35Z</time></trkpt><trkpt lat="38.03524076159698" lon="-3.757292270780496"><ele>280.0</ele><time>2026-04-27T13:21:36Z</time></trkpt><trkpt lat="38.03541850426019" lon="-3.757071379040147"><ele>281.0</ele><time>2026-04-27T13:21:37Z</time></trkpt><trkpt lat="38.03559330442753" lon="-3.7568513824551046"><ele>282.0</ele><time>2026-04-27T13:21:38Z</time></trkpt><trkpt lat="38.0357704528722" lon="-3.756631056534229"><ele>282.0</ele><time>2026-04-27T13:21:39Z</time></trkpt><trkpt lat="38.03594626919286" lon="-3.7564129945692972"><ele>282.0</ele><time>2026-04-27T13:21:40Z</time></trkpt><trkpt lat="38.03611968148195" lon="-3.7561912901036245"><ele>282.0</ele><time>2026-04-27T13:21:41Z</time></trkpt><trkpt lat="38.03628338057246" lon="-3.755970931440386"><ele>282.0</ele><time>2026-04-27T13:21:42Z</time></trkpt><trkpt lat="38.036445258044544" lon="-3.7557439949563354"><ele>282.0</ele><time>2026-04-27T13:21:43Z</time></trkpt><trkpt lat="38.03659802907936" lon="-3.755499132389779"><ele>282.0</ele><time>2026-04-27T13:21:44Z</time></trkpt><trkpt lat="38.03673372338524" lon="-3.75525070202467"><ele>282.5</ele><time>2026-04-27T13:21:45Z</time></trkpt><trkpt lat="38.036858235794426" lon="-3.754983705291243"><ele>283.0</ele><time>2026-04-27T13:21:46Z</time></trkpt><trkpt lat="38.03696843334939" lon="-3.7547090431200476"><ele>283.0</ele><time>2026-04-27T13:21:47Z</time></trkpt><trkpt lat="38.03706942548255" lon="-3.7544288954379472"><ele>283.0</ele><time>2026-04-27T13:21:48Z</time></trkpt><trkpt lat="38.03715837684077" lon="-3.7541425848371417"><ele>284.5</ele><time>2026-04-27T13:21:49Z</time></trkpt><trkpt lat="38.037238022513876" lon="-3.7538508848913055"><ele>286.0</ele><time>2026-04-27T13:21:50Z</time></trkpt><trkpt lat="38.03732056885694" lon="-3.753562736105719"><ele>285.5</ele><time>2026-04-27T13:21:51Z</time></trkpt><trkpt lat="38.037401749510416" lon="-3.7532666549019886"><ele>285.0</ele><time>2026-04-27T13:21:52Z</time></trkpt><trkpt lat="38.03748145533026" lon="-3.752975717600038"><ele>286.0</ele><time>2026-04-27T13:21:53Z</time></trkpt><trkpt lat="38.03756244653331" lon="-3.752675168633789"><ele>287.0</ele><time>2026-04-27T13:21:54Z</time></trkpt><trkpt lat="38.037648412328004" lon="-3.7523619648880895"><ele>287.0</ele><time>2026-04-27T13:21:55Z</time></trkpt><trkpt lat="38.03773389705221" lon="-3.752042444504766"><ele>287.0</ele><time>2026-04-27T13:21:56Z</time></trkpt><trkpt lat="38.03782588556898" lon="-3.751713936170367"><ele>288.0</ele><time>2026-04-27T13:21:57Z</time></trkpt><trkpt lat="38.037919540946596" lon="-3.7513834964101975"><ele>289.0</ele><time>2026-04-27T13:21:58Z</time></trkpt><trkpt lat="38.03800937505469" lon="-3.7510397110712144"><ele>289.5</ele><time>2026-04-27T13:21:59Z</time></trkpt><trkpt lat="38.03810627544557" lon="-3.7507025413922768"><ele>290.0</ele><time>2026-04-27T13:22:00Z</time></trkpt><trkpt lat="38.038202305528145" lon="-3.7503640336843107"><ele>290.0</ele><time>2026-04-27T13:22:01Z</time></trkpt><trkpt lat="38.03829573213822" lon="-3.7500200909011348"><ele>290.0</ele><time>2026-04-27T13:22:02Z</time></trkpt><trkpt lat="38.03838776744638" lon="-3.7496886927228785"><ele>291.5</ele><time>2026-04-27T13:22:03Z</time></trkpt><trkpt lat="38.038474578893265" lon="-3.749353711375467"><ele>293.0</ele><time>2026-04-27T13:22:04Z</time></trkpt><trkpt lat="38.03856094665387" lon="-3.7490165392003174"><ele>293.0</ele><time>2026-04-27T13:22:05Z</time></trkpt><trkpt lat="38.03862051316152" lon="-3.7486746779959232"><ele>293.0</ele><time>2026-04-27T13:22:06Z</time></trkpt><trkpt lat="38.03867169758384" lon="-3.748338148212456"><ele>294.5</ele><time>2026-04-27T13:22:07Z</time></trkpt><trkpt lat="38.03871695825979" lon="-3.7479932430604923"><ele>296.0</ele><time>2026-04-27T13:22:08Z</time></trkpt><trkpt lat="38.03875304226196" lon="-3.747657499515907"><ele>297.0</ele><time>2026-04-27T13:22:09Z</time></trkpt><trkpt lat="38.03877756767797" lon="-3.747321278593583"><ele>298.0</ele><time>2026-04-27T13:22:10Z</time></trkpt><trkpt lat="38.038788501003594" lon="-3.746997289480406"><ele>298.5</ele><time>2026-04-27T13:22:11Z</time></trkpt><trkpt lat="38.038793681647086" lon="-3.7466761345229957"><ele>299.0</ele><time>2026-04-27T13:22:12Z</time></trkpt><trkpt lat="38.03879783241762" lon="-3.7463618798137"><ele>299.0</ele><time>2026-04-27T13:22:13Z</time></trkpt><trkpt lat="38.03880240432723" lon="-3.746054422802762"><ele>299.0</ele><time>2026-04-27T13:22:14Z</time></trkpt><trkpt lat="38.03880637371234" lon="-3.7457604671711295"><ele>299.33333333333337</ele><time>2026-04-27T13:22:15Z</time></trkpt><trkpt lat="38.03881011947536" lon="-3.7454748580392807"><ele>299.6666666666667</ele><time>2026-04-27T13:22:16Z</time></trkpt><trkpt lat="38.03881365307091" lon="-3.7451963070842775"><ele>300.0</ele><time>2026-04-27T13:22:17Z</time></trkpt><trkpt lat="38.03882094771605" lon="-3.74492019626212"><ele>300.3333333333333</ele><time>2026-04-27T13:22:18Z</time></trkpt><trkpt lat="38.03882673724304" lon="-3.7446434723897424"><ele>300.66666666666663</ele><time>2026-04-27T13:22:19Z</time></trkpt><trkpt lat="38.038829139836096" lon="-3.7443678023295495"><ele>301.0</ele><time>2026-04-27T13:22:20Z</time></trkpt><trkpt lat="38.038830132741246" lon="-3.7440918287489606"><ele>302.3333333333333</ele><time>2026-04-27T13:22:21Z</time></trkpt><trkpt lat="38.038834544578584" lon="-3.743811865369025"><ele>303.6666666666667</ele><time>2026-04-27T13:22:22Z</time></trkpt><trkpt lat="38.038840142239074" lon="-3.7435310900013326"><ele>305.0</ele><time>2026-04-27T13:22:23Z</time></trkpt><trkpt lat="38.03884747632561" lon="-3.743249412548997"><ele>305.5</ele><time>2026-04-27T13:22:24Z</time></trkpt><trkpt lat="38.03885332172381" lon="-3.742964204052096"><ele>306.0</ele><time>2026-04-27T13:22:25Z</time></trkpt><trkpt lat="38.03885870461692" lon="-3.7426777156704367"><ele>306.3333333333333</ele><time>2026-04-27T13:22:26Z</time></trkpt><trkpt lat="38.03886348923474" lon="-3.742394310617696"><ele>306.66666666666663</ele><time>2026-04-27T13:22:27Z</time></trkpt><trkpt lat="38.03887144637316" lon="-3.7421089828346337"><ele>307.0</ele><time>2026-04-27T13:22:28Z</time></trkpt><trkpt lat="38.038883251187585" lon="-3.7418222739055524"><ele>306.0</ele><time>2026-04-27T13:22:29Z</time></trkpt><trkpt lat="38.03890610120436" lon="-3.7415274905919853"><ele>305.0</ele><time>2026-04-27T13:22:30Z</time></trkpt><trkpt lat="38.03894438345601" lon="-3.7412272667233677"><ele>305.5</ele><time>2026-04-27T13:22:31Z</time></trkpt><trkpt lat="38.03900200869591" lon="-3.740927317957183"><ele>306.0</ele><time>2026-04-27T13:22:32Z</time></trkpt><trkpt lat="38.03907918984652" lon="-3.7406235286966707"><ele>306.0</ele><time>2026-04-27T13:22:33Z</time></trkpt><trkpt lat="38.03917477458858" lon="-3.740322978726218"><ele>306.0</ele><time>2026-04-27T13:22:34Z</time></trkpt><trkpt lat="38.03928847467217" lon="-3.7400239273012863"><ele>306.0</ele><time>2026-04-27T13:22:35Z</time></trkpt><trkpt lat="38.039413367025425" lon="-3.7397245804703507"><ele>306.0</ele><time>2026-04-27T13:22:36Z</time></trkpt><trkpt lat="38.03954659035226" lon="-3.7394278516530113"><ele>307.0</ele><time>2026-04-27T13:22:37Z</time></trkpt><trkpt lat="38.03968204137073" lon="-3.739126784497986"><ele>308.0</ele><time>2026-04-27T13:22:38Z</time></trkpt><trkpt lat="38.039819645264906" lon="-3.7388227612147076"><ele>309.0</ele><time>2026-04-27T13:22:39Z</time></trkpt><trkpt lat="38.03995410755902" lon="-3.73852858118475"><ele>310.0</ele><time>2026-04-27T13:22:40Z</time></trkpt><trkpt lat="38.04008243090212" lon="-3.7382421875869185"><ele>310.5</ele><time>2026-04-27T13:22:41Z</time></trkpt><trkpt lat="38.040209331802735" lon="-3.7379566358647973"><ele>311.0</ele><time>2026-04-27T13:22:42Z</time></trkpt><trkpt lat="38.040328295062196" lon="-3.7376911951702616"><ele>312.5</ele><time>2026-04-27T13:22:43Z</time></trkpt><trkpt lat="38.04044294865242" lon="-3.7374309868639033"><ele>314.0</ele><time>2026-04-27T13:22:44Z</time></trkpt><trkpt lat="38.0405594396427" lon="-3.737173917186874"><ele>314.0</ele><time>2026-04-27T13:22:45Z</time></trkpt><trkpt lat="38.04067564919329" lon="-3.7369139522228547"><ele>314.0</ele><time>2026-04-27T13:22:46Z</time></trkpt><trkpt lat="38.04078959381432" lon="-3.7366513324697674"><ele>313.0</ele><time>2026-04-27T13:22:47.001Z</time></trkpt><trkpt lat="38.04090428803243" lon="-3.7363860332956453"><ele>312.0</ele><time>2026-04-27T13:22:48.001Z</time></trkpt><trkpt lat="38.04102776845318" lon="-3.7361161233307367"><ele>312.0</ele><time>2026-04-27T13:22:49.001Z</time></trkpt><trkpt lat="38.04116756967327" lon="-3.735849009456257"><ele>312.0</ele><time>2026-04-27T13:22:50.001Z</time></trkpt><trkpt lat="38.04131798590637" lon="-3.735593668103786"><ele>312.0</ele><time>2026-04-27T13:22:51.001Z</time></trkpt><trkpt lat="38.04146227655887" lon="-3.735329736028791"><ele>312.0</ele><time>2026-04-27T13:22:52.001Z</time></trkpt><trkpt lat="38.041602658103734" lon="-3.7350841795561434"><ele>312.0</ele><time>2026-04-27T13:22:53.001Z</time></trkpt><trkpt lat="38.04181281960941" lon="-3.7349062398926716"><ele>312.0</ele><time>2026-04-27T13:22:54.001Z</time></trkpt><trkpt lat="38.04198215924963" lon="-3.7347000289654564"><ele>312.0</ele><time>2026-04-27T13:22:55.001Z</time></trkpt><trkpt lat="38.04215202227206" lon="-3.7345017873490876"><ele>312.0</ele><time>2026-04-27T13:22:56.001Z</time></trkpt><trkpt lat="38.04232363337537" lon="-3.7343029503010428"><ele>310.5</ele><time>2026-04-27T13:22:57.001Z</time></trkpt><trkpt lat="38.04249439054406" lon="-3.7341059770266924"><ele>309.0</ele><time>2026-04-27T13:22:58.001Z</time></trkpt><trkpt lat="38.04266571186571" lon="-3.733920048642373"><ele>309.0</ele><time>2026-04-27T13:22:59.001Z</time></trkpt><trkpt lat="38.042840567114844" lon="-3.733739560753548"><ele>309.0</ele><time>2026-04-27T13:23:00.001Z</time></trkpt><trkpt lat="38.04301821023252" lon="-3.7335576020261483"><ele>309.5</ele><time>2026-04-27T13:23:01.001Z</time></trkpt><trkpt lat="38.043195769067445" lon="-3.73336792988281"><ele>310.0</ele><time>2026-04-27T13:23:02.001Z</time></trkpt><trkpt lat="38.043370306925695" lon="-3.7331741856172145"><ele>310.0</ele><time>2026-04-27T13:23:03.001Z</time></trkpt><trkpt lat="38.04354248749438" lon="-3.7329778717915443"><ele>310.0</ele><time>2026-04-27T13:23:04.001Z</time></trkpt><trkpt lat="38.04371409976226" lon="-3.7327798828347922"><ele>311.0</ele><time>2026-04-27T13:23:05.001Z</time></trkpt><trkpt lat="38.043885702914146" lon="-3.7325802570052793"><ele>312.0</ele><time>2026-04-27T13:23:06.001Z</time></trkpt><trkpt lat="38.04405278034949" lon="-3.732381839608712"><ele>310.5</ele><time>2026-04-27T13:23:07.001Z</time></trkpt><trkpt lat="38.044215200598615" lon="-3.7321776083295535"><ele>309.0</ele><time>2026-04-27T13:23:08Z</time></trkpt><trkpt lat="38.044372708735025" lon="-3.7319648019789198"><ele>310.0</ele><time>2026-04-27T13:23:09Z</time></trkpt><trkpt lat="38.04452513568212" lon="-3.73174630655736"><ele>311.0</ele><time>2026-04-27T13:23:10Z</time></trkpt><trkpt lat="38.04467207236175" lon="-3.731522459517031"><ele>311.0</ele><time>2026-04-27T13:23:11Z</time></trkpt><trkpt lat="38.04481862390665" lon="-3.7312866484623504"><ele>311.0</ele><time>2026-04-27T13:23:12Z</time></trkpt><trkpt lat="38.04495924179324" lon="-3.7310430605129237"><ele>310.5</ele><time>2026-04-27T13:23:13Z</time></trkpt><trkpt lat="38.04509555406986" lon="-3.7307982629848624"><ele>310.0</ele><time>2026-04-27T13:23:14Z</time></trkpt><trkpt lat="38.04523144068978" lon="-3.7305431547929775"><ele>310.0</ele><time>2026-04-27T13:23:15Z</time></trkpt><trkpt lat="38.04535572635022" lon="-3.7302846140664094"><ele>310.0</ele><time>2026-04-27T13:23:16Z</time></trkpt><trkpt lat="38.04547478046942" lon="-3.7300122809278786"><ele>310.0</ele><time>2026-04-27T13:23:17Z</time></trkpt><trkpt lat="38.045587437196744" lon="-3.7297360979854637"><ele>310.0</ele><time>2026-04-27T13:23:18Z</time></trkpt><trkpt lat="38.04568771050686" lon="-3.7294755555911565"><ele>310.0</ele><time>2026-04-27T13:23:19Z</time></trkpt><trkpt lat="38.04578837391319" lon="-3.7292005340416075"><ele>310.0</ele><time>2026-04-27T13:23:20Z</time></trkpt><trkpt lat="38.04587283110569" lon="-3.728944721044415"><ele>309.5</ele><time>2026-04-27T13:23:21Z</time></trkpt><trkpt lat="38.045959863570445" lon="-3.7286707483137147"><ele>309.0</ele><time>2026-04-27T13:23:22Z</time></trkpt><trkpt lat="38.04604217816684" lon="-3.7283947458653306"><ele>309.0</ele><time>2026-04-27T13:23:23Z</time></trkpt><trkpt lat="38.0461164351469" lon="-3.7281201793015053"><ele>309.0</ele><time>2026-04-27T13:23:24Z</time></trkpt><trkpt lat="38.046184078066034" lon="-3.727836950335548"><ele>308.0</ele><time>2026-04-27T13:23:25Z</time></trkpt><trkpt lat="38.04624383602408" lon="-3.7275482013041734"><ele>307.0</ele><time>2026-04-27T13:23:26Z</time></trkpt><trkpt lat="38.0462943274089" lon="-3.727264303211836"><ele>307.0</ele><time>2026-04-27T13:23:27Z</time></trkpt><trkpt lat="38.04634177740314" lon="-3.7269683593361305"><ele>307.0</ele><time>2026-04-27T13:23:28Z</time></trkpt><trkpt lat="38.04638428811547" lon="-3.726658814122961"><ele>308.0</ele><time>2026-04-27T13:23:29Z</time></trkpt><trkpt lat="38.046416601973256" lon="-3.7263445123213037"><ele>309.0</ele><time>2026-04-27T13:23:30Z</time></trkpt><trkpt lat="38.04644486064943" lon="-3.7260168989227433"><ele>309.0</ele><time>2026-04-27T13:23:31Z</time></trkpt><trkpt lat="38.04646350699907" lon="-3.725678467030471"><ele>309.0</ele><time>2026-04-27T13:23:32Z</time></trkpt><trkpt lat="38.04647262502201" lon="-3.7253382505493944"><ele>309.5</ele><time>2026-04-27T13:23:33Z</time></trkpt><trkpt lat="38.046471312939" lon="-3.7249826271656366"><ele>310.0</ele><time>2026-04-27T13:23:34Z</time></trkpt><trkpt lat="38.04646420964066" lon="-3.7246187326351134"><ele>310.5</ele><time>2026-04-27T13:23:35Z</time></trkpt><trkpt lat="38.046447557542606" lon="-3.724248812529698"><ele>311.0</ele><time>2026-04-27T13:23:36Z</time></trkpt><trkpt lat="38.046420519452084" lon="-3.7238714516661457"><ele>311.5</ele><time>2026-04-27T13:23:37Z</time></trkpt><trkpt lat="38.04638894067337" lon="-3.7234925481047805"><ele>312.0</ele><time>2026-04-27T13:23:38Z</time></trkpt><trkpt lat="38.046352629346494" lon="-3.72311029919346"><ele>313.0</ele><time>2026-04-27T13:23:39Z</time></trkpt><trkpt lat="38.046316636467985" lon="-3.7227309480569515"><ele>314.0</ele><time>2026-04-27T13:23:40Z</time></trkpt><trkpt lat="38.046280204217446" lon="-3.722346808103342"><ele>314.0</ele><time>2026-04-27T13:23:41Z</time></trkpt><trkpt lat="38.04624463880766" lon="-3.721960285110434"><ele>314.0</ele><time>2026-04-27T13:23:42Z</time></trkpt><trkpt lat="38.04621091088274" lon="-3.721572600958869"><ele>314.5</ele><time>2026-04-27T13:23:43Z</time></trkpt><trkpt lat="38.046177915556434" lon="-3.7211861385492497"><ele>315.0</ele><time>2026-04-27T13:23:44Z</time></trkpt><trkpt lat="38.04615270150859" lon="-3.72079964601377"><ele>314.0</ele><time>2026-04-27T13:23:45Z</time></trkpt><trkpt lat="38.046139384182176" lon="-3.7204141627608416"><ele>313.0</ele><time>2026-04-27T13:23:46Z</time></trkpt><trkpt lat="38.046136128439095" lon="-3.720034142334845"><ele>313.0</ele><time>2026-04-27T13:23:47Z</time></trkpt><trkpt lat="38.04614588214307" lon="-3.7196687455261848"><ele>313.0</ele><time>2026-04-27T13:23:48Z</time></trkpt><trkpt lat="38.046168736917586" lon="-3.7193035154444654"><ele>312.5</ele><time>2026-04-27T13:23:49Z</time></trkpt><trkpt lat="38.0462031088447" lon="-3.7189433406123156"><ele>312.0</ele><time>2026-04-27T13:23:50Z</time></trkpt><trkpt lat="38.04624725366696" lon="-3.7185834992889997"><ele>313.0</ele><time>2026-04-27T13:23:51Z</time></trkpt><trkpt lat="38.04629939198379" lon="-3.718235194348208"><ele>314.0</ele><time>2026-04-27T13:23:52Z</time></trkpt><trkpt lat="38.046365030460144" lon="-3.7178813146474203"><ele>314.5</ele><time>2026-04-27T13:23:53Z</time></trkpt><trkpt lat="38.04643467192581" lon="-3.7175404233504374"><ele>315.0</ele><time>2026-04-27T13:23:54Z</time></trkpt><trkpt lat="38.04651128230345" lon="-3.717193266378104"><ele>314.5</ele><time>2026-04-27T13:23:55Z</time></trkpt><trkpt lat="38.046583634612105" lon="-3.716846672235123"><ele>314.0</ele><time>2026-04-27T13:23:56Z</time></trkpt><trkpt lat="38.04665559221866" lon="-3.716501499999219"><ele>313.5</ele><time>2026-04-27T13:23:57Z</time></trkpt><trkpt lat="38.04672740452057" lon="-3.7161567312096397"><ele>313.0</ele><time>2026-04-27T13:23:58Z</time></trkpt><trkpt lat="38.04680316945884" lon="-3.715811412506012"><ele>313.0</ele><time>2026-04-27T13:23:59Z</time></trkpt><trkpt lat="38.04687795040855" lon="-3.7154711522992616"><ele>313.0</ele><time>2026-04-27T13:24:00Z</time></trkpt><trkpt lat="38.046952574283715" lon="-3.7151277878249163"><ele>314.0</ele><time>2026-04-27T13:24:01Z</time></trkpt><trkpt lat="38.04702623968713" lon="-3.7147895526200108"><ele>315.0</ele><time>2026-04-27T13:24:02Z</time></trkpt><trkpt lat="38.04709807737889" lon="-3.7144559676399713"><ele>316.0</ele><time>2026-04-27T13:24:03Z</time></trkpt><trkpt lat="38.047169561075336" lon="-3.714125482185678"><ele>317.0</ele><time>2026-04-27T13:24:04Z</time></trkpt><trkpt lat="38.04723871523445" lon="-3.713794739555583"><ele>317.0</ele><time>2026-04-27T13:24:05Z</time></trkpt><trkpt lat="38.0473070196108" lon="-3.7134699368815878"><ele>317.0</ele><time>2026-04-27T13:24:06Z</time></trkpt><trkpt lat="38.047376296661895" lon="-3.7131461646928274"><ele>317.0</ele><time>2026-04-27T13:24:07Z</time></trkpt><trkpt lat="38.04744854383847" lon="-3.7128206406730966"><ele>317.0</ele><time>2026-04-27T13:24:08Z</time></trkpt><trkpt lat="38.04751885221076" lon="-3.71250093101702"><ele>316.5</ele><time>2026-04-27T13:24:09Z</time></trkpt><trkpt lat="38.047585789063284" lon="-3.7121813189359756"><ele>316.0</ele><time>2026-04-27T13:24:10Z</time></trkpt><trkpt lat="38.04765163108965" lon="-3.7118686068712834"><ele>315.5</ele><time>2026-04-27T13:24:11Z</time></trkpt><trkpt lat="38.04772339475295" lon="-3.711557723829723"><ele>315.0</ele><time>2026-04-27T13:24:12Z</time></trkpt><trkpt lat="38.047800832973266" lon="-3.7112537264353747"><ele>315.0</ele><time>2026-04-27T13:24:13Z</time></trkpt><trkpt lat="38.047892123891536" lon="-3.71095332367956"><ele>315.0</ele><time>2026-04-27T13:24:14Z</time></trkpt><trkpt lat="38.04800569437996" lon="-3.7106596266295426"><ele>315.0</ele><time>2026-04-27T13:24:15Z</time></trkpt><trkpt lat="38.04813299140212" lon="-3.7103827402747553"><ele>315.0</ele><time>2026-04-27T13:24:16Z</time></trkpt><trkpt lat="38.04827868306538" lon="-3.7101079123157477"><ele>316.0</ele><time>2026-04-27T13:24:17Z</time></trkpt><trkpt lat="38.04844038089872" lon="-3.7098454168891015"><ele>317.0</ele><time>2026-04-27T13:24:18Z</time></trkpt><trkpt lat="38.04861516668077" lon="-3.7095928547647747"><ele>318.0</ele><time>2026-04-27T13:24:19Z</time></trkpt><trkpt lat="38.04880637909612" lon="-3.7093601479290386"><ele>319.0</ele><time>2026-04-27T13:24:20Z</time></trkpt><trkpt lat="38.04900829702354" lon="-3.7091431782925217"><ele>320.0</ele><time>2026-04-27T13:24:21Z</time></trkpt><trkpt lat="38.04921803882351" lon="-3.7089395345799026"><ele>321.0</ele><time>2026-04-27T13:24:22Z</time></trkpt><trkpt lat="38.04943562761207" lon="-3.708750546015747"><ele>324.0</ele><time>2026-04-27T13:24:23Z</time></trkpt><trkpt lat="38.049656350023625" lon="-3.7085695524886892"><ele>327.0</ele><time>2026-04-27T13:24:24Z</time></trkpt><trkpt lat="38.04987123076632" lon="-3.7083780977089225"><ele>327.5</ele><time>2026-04-27T13:24:25Z</time></trkpt><trkpt lat="38.050081732309046" lon="-3.7081819953421804"><ele>328.0</ele><time>2026-04-27T13:24:26Z</time></trkpt><trkpt lat="38.05028948867392" lon="-3.707994454294751"><ele>328.0</ele><time>2026-04-27T13:24:27Z</time></trkpt><trkpt lat="38.050486078502956" lon="-3.707813892604829"><ele>328.0</ele><time>2026-04-27T13:24:28Z</time></trkpt><trkpt lat="38.050674365911846" lon="-3.70763533909307"><ele>330.0</ele><time>2026-04-27T13:24:29Z</time></trkpt><trkpt lat="38.05085802790404" lon="-3.707438425341178"><ele>332.0</ele><time>2026-04-27T13:24:30Z</time></trkpt><trkpt lat="38.05102945825054" lon="-3.7072214034427935"><ele>332.0</ele><time>2026-04-27T13:24:31Z</time></trkpt><trkpt lat="38.05118925890828" lon="-3.706976284415096"><ele>332.0</ele><time>2026-04-27T13:24:32Z</time></trkpt><trkpt lat="38.05133808224628" lon="-3.706708280835643"><ele>332.0</ele><time>2026-04-27T13:24:33Z</time></trkpt><trkpt lat="38.05147673175835" lon="-3.706430609414512"><ele>332.0</ele><time>2026-04-27T13:24:34Z</time></trkpt><trkpt lat="38.05161083742505" lon="-3.706154155656566"><ele>333.0</ele><time>2026-04-27T13:24:35Z</time></trkpt><trkpt lat="38.05174691899708" lon="-3.7058873147459477"><ele>334.0</ele><time>2026-04-27T13:24:36Z</time></trkpt><trkpt lat="38.05188423449116" lon="-3.705622220691799"><ele>334.0</ele><time>2026-04-27T13:24:37Z</time></trkpt><trkpt lat="38.0520173215877" lon="-3.7053650245491903"><ele>334.0</ele><time>2026-04-27T13:24:38Z</time></trkpt><trkpt lat="38.052152638425355" lon="-3.7051059082054225"><ele>335.5</ele><time>2026-04-27T13:24:39Z</time></trkpt><trkpt lat="38.05228738336601" lon="-3.704848617711326"><ele>337.0</ele><time>2026-04-27T13:24:40Z</time></trkpt><trkpt lat="38.05242089157159" lon="-3.704595249690597"><ele>339.5</ele><time>2026-04-27T13:24:41Z</time></trkpt><trkpt lat="38.052553908081485" lon="-3.704344126119143"><ele>342.0</ele><time>2026-04-27T13:24:42Z</time></trkpt><trkpt lat="38.05268762769105" lon="-3.7040873001484895"><ele>342.0</ele><time>2026-04-27T13:24:43Z</time></trkpt><trkpt lat="38.05282050828359" lon="-3.703839120038463"><ele>342.0</ele><time>2026-04-27T13:24:44Z</time></trkpt><trkpt lat="38.0529532574376" lon="-3.7035881565461577"><ele>344.0</ele><time>2026-04-27T13:24:45Z</time></trkpt><trkpt lat="38.05308000955667" lon="-3.703340040630648"><ele>346.0</ele><time>2026-04-27T13:24:46Z</time></trkpt><trkpt lat="38.053207895715914" lon="-3.703090971524427"><ele>346.66666666666663</ele><time>2026-04-27T13:24:47Z</time></trkpt><trkpt lat="38.05333169102828" lon="-3.7028610601766023"><ele>347.3333333333333</ele><time>2026-04-27T13:24:48Z</time></trkpt><trkpt lat="38.05345666282316" lon="-3.70262833237639"><ele>348.0</ele><time>2026-04-27T13:24:49Z</time></trkpt><trkpt lat="38.053575701196436" lon="-3.7023992213987733"><ele>349.0</ele><time>2026-04-27T13:24:50Z</time></trkpt><trkpt lat="38.053692814595536" lon="-3.7021707226962026"><ele>350.0</ele><time>2026-04-27T13:24:51Z</time></trkpt><trkpt lat="38.053808462854555" lon="-3.701942119705167"><ele>351.0</ele><time>2026-04-27T13:24:52Z</time></trkpt><trkpt lat="38.05392212123811" lon="-3.7017066558063383"><ele>351.3333333333333</ele><time>2026-04-27T13:24:53.001Z</time></trkpt><trkpt lat="38.054033026865724" lon="-3.7014644860553645"><ele>351.66666666666663</ele><time>2026-04-27T13:24:54.001Z</time></trkpt><trkpt lat="38.05413656963237" lon="-3.701218503089631"><ele>352.0</ele><time>2026-04-27T13:24:55.001Z</time></trkpt><trkpt lat="38.05423359001031" lon="-3.700963408507326"><ele>353.0</ele><time>2026-04-27T13:24:56.001Z</time></trkpt><trkpt lat="38.05431736129108" lon="-3.700700670846222"><ele>354.0</ele><time>2026-04-27T13:24:57.001Z</time></trkpt><trkpt lat="38.05439866805753" lon="-3.7004296293315138"><ele>355.5</ele><time>2026-04-27T13:24:58.001Z</time></trkpt><trkpt lat="38.054477390050515" lon="-3.70015999600517"><ele>357.0</ele><time>2026-04-27T13:24:59.001Z</time></trkpt><trkpt lat="38.05455430424881" lon="-3.6998885556126897"><ele>357.0</ele><time>2026-04-27T13:25:00.001Z</time></trkpt><trkpt lat="38.05463526366792" lon="-3.6996151205661887"><ele>357.0</ele><time>2026-04-27T13:25:01.001Z</time></trkpt><trkpt lat="38.05472119730833" lon="-3.6993365119207104"><ele>357.5</ele><time>2026-04-27T13:25:02.001Z</time></trkpt><trkpt lat="38.054809059348706" lon="-3.6990548889300046"><ele>358.0</ele><time>2026-04-27T13:25:03.001Z</time></trkpt><trkpt lat="38.05489636598212" lon="-3.6987730047028022"><ele>352.0</ele><time>2026-04-27T13:25:04.001Z</time></trkpt><trkpt lat="38.05499099658063" lon="-3.69849216064127"><ele>346.0</ele><time>2026-04-27T13:25:05.001Z</time></trkpt><trkpt lat="38.05509895025679" lon="-3.698213843447498"><ele>346.0</ele><time>2026-04-27T13:25:06Z</time></trkpt><trkpt lat="38.05522126626548" lon="-3.697939402800474"><ele>346.0</ele><time>2026-04-27T13:25:07Z</time></trkpt><trkpt lat="38.05535405331154" lon="-3.697678408321814"><ele>344.5</ele><time>2026-04-27T13:25:08Z</time></trkpt><trkpt lat="38.05549723001341" lon="-3.697416456439211"><ele>343.0</ele><time>2026-04-27T13:25:09Z</time></trkpt><trkpt lat="38.05564929082335" lon="-3.697157527040543"><ele>340.5</ele><time>2026-04-27T13:25:10Z</time></trkpt><trkpt lat="38.055806693167476" lon="-3.696893899764006"><ele>338.0</ele><time>2026-04-27T13:25:11Z</time></trkpt><trkpt lat="38.05597084867899" lon="-3.696622992505234"><ele>338.0</ele><time>2026-04-27T13:25:12Z</time></trkpt><trkpt lat="38.05613811111764" lon="-3.6963512002207484"><ele>338.0</ele><time>2026-04-27T13:25:13Z</time></trkpt><trkpt lat="38.056308173994935" lon="-3.696079667095685"><ele>334.5</ele><time>2026-04-27T13:25:14Z</time></trkpt><trkpt lat="38.05647428824948" lon="-3.695804080218757"><ele>331.0</ele><time>2026-04-27T13:25:15Z</time></trkpt><trkpt lat="38.05664159461006" lon="-3.6955293483375664"><ele>328.5</ele><time>2026-04-27T13:25:16Z</time></trkpt><trkpt lat="38.05681223886168" lon="-3.695256865530735"><ele>326.0</ele><time>2026-04-27T13:25:17Z</time></trkpt><trkpt lat="38.05698121958544" lon="-3.6949837359345885"><ele>325.5</ele><time>2026-04-27T13:25:18Z</time></trkpt><trkpt lat="38.05714814432236" lon="-3.6947107920461946"><ele>325.0</ele><time>2026-04-27T13:25:19Z</time></trkpt><trkpt lat="38.05731586469602" lon="-3.6944363759974603"><ele>324.5</ele><time>2026-04-27T13:25:20Z</time></trkpt><trkpt lat="38.05748385524301" lon="-3.694165175836045"><ele>324.0</ele><time>2026-04-27T13:25:21Z</time></trkpt><trkpt lat="38.05765100771799" lon="-3.6938922916014425"><ele>324.0</ele><time>2026-04-27T13:25:22Z</time></trkpt><trkpt lat="38.05781490400802" lon="-3.6936244949416293"><ele>324.0</ele><time>2026-04-27T13:25:23Z</time></trkpt><trkpt lat="38.05797905676254" lon="-3.693356070018507"><ele>325.5</ele><time>2026-04-27T13:25:24Z</time></trkpt><trkpt lat="38.058139671263675" lon="-3.69309290210187"><ele>327.0</ele><time>2026-04-27T13:25:25Z</time></trkpt><trkpt lat="38.058301724455156" lon="-3.6928324162879673"><ele>329.0</ele><time>2026-04-27T13:25:26Z</time></trkpt><trkpt lat="38.058462221574246" lon="-3.6925698490933927"><ele>331.0</ele><time>2026-04-27T13:25:27Z</time></trkpt><trkpt lat="38.058620975946134" lon="-3.6923099562002477"><ele>331.0</ele><time>2026-04-27T13:25:28Z</time></trkpt><trkpt lat="38.05878032931079" lon="-3.6920497869048283"><ele>331.0</ele><time>2026-04-27T13:25:29Z</time></trkpt><trkpt lat="38.05893846694438" lon="-3.691792917759907"><ele>330.0</ele><time>2026-04-27T13:25:30Z</time></trkpt><trkpt lat="38.059097732309404" lon="-3.69153048989579"><ele>329.0</ele><time>2026-04-27T13:25:31Z</time></trkpt><trkpt lat="38.05926051249225" lon="-3.6912759699324176"><ele>331.5</ele><time>2026-04-27T13:25:32Z</time></trkpt><trkpt lat="38.059425390835464" lon="-3.6910150710884344"><ele>334.0</ele><time>2026-04-27T13:25:33Z</time></trkpt><trkpt lat="38.05959417599368" lon="-3.6907538553481465"><ele>334.0</ele><time>2026-04-27T13:25:34Z</time></trkpt><trkpt lat="38.059759528247255" lon="-3.690495856326584"><ele>334.0</ele><time>2026-04-27T13:25:35Z</time></trkpt><trkpt lat="38.059925651994604" lon="-3.6902406727344967"><ele>333.5</ele><time>2026-04-27T13:25:36Z</time></trkpt><trkpt lat="38.06009154191285" lon="-3.689990015333076"><ele>333.0</ele><time>2026-04-27T13:25:37Z</time></trkpt><trkpt lat="38.06025908954769" lon="-3.689734653670692"><ele>333.0</ele><time>2026-04-27T13:25:38Z</time></trkpt><trkpt lat="38.06042068990419" lon="-3.689483196169178"><ele>333.0</ele><time>2026-04-27T13:25:39Z</time></trkpt><trkpt lat="38.06058651528611" lon="-3.689232628049874"><ele>333.0</ele><time>2026-04-27T13:25:40Z</time></trkpt><trkpt lat="38.06075448611693" lon="-3.688983772678228"><ele>333.0</ele><time>2026-04-27T13:25:41Z</time></trkpt><trkpt lat="38.06092301880109" lon="-3.6887304467546382"><ele>335.0</ele><time>2026-04-27T13:25:42Z</time></trkpt><trkpt lat="38.06109040157541" lon="-3.6884799661833876"><ele>337.0</ele><time>2026-04-27T13:25:43Z</time></trkpt><trkpt lat="38.061254192486196" lon="-3.68822838883413"><ele>337.0</ele><time>2026-04-27T13:25:44Z</time></trkpt><trkpt lat="38.061416933229715" lon="-3.687976970210168"><ele>337.0</ele><time>2026-04-27T13:25:45Z</time></trkpt><trkpt lat="38.06157855597191" lon="-3.6877245203489113"><ele>337.0</ele><time>2026-04-27T13:25:46Z</time></trkpt><trkpt lat="38.06173468218714" lon="-3.6874831719927905"><ele>337.0</ele><time>2026-04-27T13:25:47Z</time></trkpt><trkpt lat="38.061887212607076" lon="-3.687251298793583"><ele>337.0</ele><time>2026-04-27T13:25:48Z</time></trkpt><trkpt lat="38.062035807520374" lon="-3.687027704312564"><ele>337.0</ele><time>2026-04-27T13:25:49Z</time></trkpt><trkpt lat="38.06218720600122" lon="-3.686795503921531"><ele>337.0</ele><time>2026-04-27T13:25:50Z</time></trkpt><trkpt lat="38.06232820422248" lon="-3.686563042565481"><ele>337.0</ele><time>2026-04-27T13:25:51Z</time></trkpt><trkpt lat="38.0624629973909" lon="-3.686328160258399"><ele>339.0</ele><time>2026-04-27T13:25:52Z</time></trkpt><trkpt lat="38.06259268939406" lon="-3.686081965461464"><ele>341.0</ele><time>2026-04-27T13:25:53Z</time></trkpt><trkpt lat="38.06270720949976" lon="-3.6858341892367523"><ele>341.0</ele><time>2026-04-27T13:25:54Z</time></trkpt><trkpt lat="38.06281092617236" lon="-3.6855890265383913"><ele>341.0</ele><time>2026-04-27T13:25:55Z</time></trkpt><trkpt lat="38.06290425692798" lon="-3.685364568945804"><ele>341.0</ele><time>2026-04-27T13:25:56Z</time></trkpt><trkpt lat="38.06298806301781" lon="-3.6851266970462566"><ele>342.0</ele><time>2026-04-27T13:25:57Z</time></trkpt><trkpt lat="38.06306342534691" lon="-3.6848845090898856"><ele>343.0</ele><time>2026-04-27T13:25:58Z</time></trkpt><trkpt lat="38.06313579201176" lon="-3.684636204629358"><ele>344.0</ele><time>2026-04-27T13:25:59Z</time></trkpt><trkpt lat="38.063198141215004" lon="-3.68438535836515"><ele>345.33333333333337</ele><time>2026-04-27T13:26:00Z</time></trkpt><trkpt lat="38.063248000906015" lon="-3.684126612735825"><ele>346.6666666666667</ele><time>2026-04-27T13:26:01Z</time></trkpt><trkpt lat="38.06329644758341" lon="-3.6838641175671643"><ele>348.0</ele><time>2026-04-27T13:26:02Z</time></trkpt><trkpt lat="38.063337021209975" lon="-3.6836026263080983"><ele>350.6666666666667</ele><time>2026-04-27T13:26:03Z</time></trkpt><trkpt lat="38.06336752352428" lon="-3.6833350501002626"><ele>353.33333333333337</ele><time>2026-04-27T13:26:04Z</time></trkpt><trkpt lat="38.06339198681876" lon="-3.6830654342558864"><ele>356.0</ele><time>2026-04-27T13:26:05Z</time></trkpt><trkpt lat="38.06341192681549" lon="-3.682792182274093"><ele>356.33333333333337</ele><time>2026-04-27T13:26:06Z</time></trkpt><trkpt lat="38.06342479445055" lon="-3.682512975786693"><ele>356.6666666666667</ele><time>2026-04-27T13:26:07Z</time></trkpt><trkpt lat="38.06343400408726" lon="-3.682229134311806"><ele>357.0</ele><time>2026-04-27T13:26:08Z</time></trkpt><trkpt lat="38.063445758767266" lon="-3.681947197968872"><ele>357.6666666666667</ele><time>2026-04-27T13:26:09Z</time></trkpt><trkpt lat="38.06346371422932" lon="-3.681666083988963"><ele>358.33333333333337</ele><time>2026-04-27T13:26:10Z</time></trkpt><trkpt lat="38.06349051566645" lon="-3.6813888370029826"><ele>359.0</ele><time>2026-04-27T13:26:11Z</time></trkpt><trkpt lat="38.06353491157078" lon="-3.6811119929421445"><ele>360.0</ele><time>2026-04-27T13:26:12Z</time></trkpt><trkpt lat="38.063600110291986" lon="-3.6808405228488335"><ele>361.0</ele><time>2026-04-27T13:26:13Z</time></trkpt><trkpt lat="38.06367993971343" lon="-3.6805783905658758"><ele>362.0</ele><time>2026-04-27T13:26:14Z</time></trkpt><trkpt lat="38.06377259635557" lon="-3.6803192490223346"><ele>363.33333333333337</ele><time>2026-04-27T13:26:15Z</time></trkpt><trkpt lat="38.06387539906757" lon="-3.680069388823531"><ele>364.6666666666667</ele><time>2026-04-27T13:26:16Z</time></trkpt><trkpt lat="38.06397768791576" lon="-3.6798250141062354"><ele>366.0</ele><time>2026-04-27T13:26:17Z</time></trkpt><trkpt lat="38.06407389191844" lon="-3.6795901951229237"><ele>365.3333333333333</ele><time>2026-04-27T13:26:18Z</time></trkpt><trkpt lat="38.06417451786858" lon="-3.6793490295944506"><ele>364.66666666666663</ele><time>2026-04-27T13:26:19Z</time></trkpt><trkpt lat="38.064284366264644" lon="-3.679116093535543"><ele>364.0</ele><time>2026-04-27T13:26:20Z</time></trkpt><trkpt lat="38.064408194227454" lon="-3.678888492057281"><ele>364.0</ele><time>2026-04-27T13:26:21Z</time></trkpt><trkpt lat="38.06454307727945" lon="-3.678673563969627"><ele>364.0</ele><time>2026-04-27T13:26:22Z</time></trkpt><trkpt lat="38.064689588621086" lon="-3.678472752801937"><ele>364.0</ele><time>2026-04-27T13:26:23Z</time></trkpt><trkpt lat="38.06485220664174" lon="-3.6782838816824697"><ele>362.66666666666663</ele><time>2026-04-27T13:26:24Z</time></trkpt><trkpt lat="38.06502058223782" lon="-3.678097385325734"><ele>361.3333333333333</ele><time>2026-04-27T13:26:25Z</time></trkpt><trkpt lat="38.06519232332" lon="-3.6779177825117673"><ele>360.0</ele><time>2026-04-27T13:26:26Z</time></trkpt><trkpt lat="38.06536550293814" lon="-3.6777432926254305"><ele>360.0</ele><time>2026-04-27T13:26:27Z</time></trkpt><trkpt lat="38.0655434160333" lon="-3.6775688135087163"><ele>360.0</ele><time>2026-04-27T13:26:28Z</time></trkpt><trkpt lat="38.06571957011573" lon="-3.6773917316728673"><ele>360.0</ele><time>2026-04-27T13:26:29Z</time></trkpt><trkpt lat="38.06589366866663" lon="-3.677213243361272"><ele>359.0</ele><time>2026-04-27T13:26:30Z</time></trkpt><trkpt lat="38.06606973008459" lon="-3.677037788298548"><ele>358.0</ele><time>2026-04-27T13:26:31Z</time></trkpt><trkpt lat="38.066246632291175" lon="-3.67686422440235"><ele>357.0</ele><time>2026-04-27T13:26:32Z</time></trkpt><trkpt lat="38.06642477612232" lon="-3.6766880451788007"><ele>357.0</ele><time>2026-04-27T13:26:33Z</time></trkpt><trkpt lat="38.06660420699551" lon="-3.6765091563626515"><ele>357.0</ele><time>2026-04-27T13:26:34Z</time></trkpt><trkpt lat="38.06678456138444" lon="-3.6763295720107347"><ele>356.0</ele><time>2026-04-27T13:26:35Z</time></trkpt><trkpt lat="38.06696574014969" lon="-3.676148915573808"><ele>355.0</ele><time>2026-04-27T13:26:36Z</time></trkpt><trkpt lat="38.06714640246362" lon="-3.675968064051424"><ele>355.0</ele><time>2026-04-27T13:26:37Z</time></trkpt><trkpt lat="38.06732613217191" lon="-3.6757859530366526"><ele>355.0</ele><time>2026-04-27T13:26:38Z</time></trkpt><trkpt lat="38.0675046396028" lon="-3.6756056933715944"><ele>352.0</ele><time>2026-04-27T13:26:39Z</time></trkpt><trkpt lat="38.06768237232781" lon="-3.6754287112519566"><ele>349.0</ele><time>2026-04-27T13:26:40Z</time></trkpt><trkpt lat="38.067861573866864" lon="-3.6752501507962227"><ele>349.0</ele><time>2026-04-27T13:26:41Z</time></trkpt><trkpt lat="38.06803825536928" lon="-3.675074599078359"><ele>349.0</ele><time>2026-04-27T13:26:42Z</time></trkpt><trkpt lat="38.068210913040446" lon="-3.674895949113925"><ele>349.0</ele><time>2026-04-27T13:26:43Z</time></trkpt><trkpt lat="38.068382683383966" lon="-3.6747227359647847"><ele>349.3333333333333</ele><time>2026-04-27T13:26:44Z</time></trkpt><trkpt lat="38.06855782801995" lon="-3.6745500121408226"><ele>349.6666666666667</ele><time>2026-04-27T13:26:45Z</time></trkpt><trkpt lat="38.06872940811535" lon="-3.674379318568642"><ele>350.0</ele><time>2026-04-27T13:26:46Z</time></trkpt><trkpt lat="38.06889771702752" lon="-3.6742067837491343"><ele>350.6666666666667</ele><time>2026-04-27T13:26:47Z</time></trkpt><trkpt lat="38.06906532731438" lon="-3.67403807685027"><ele>351.3333333333333</ele><time>2026-04-27T13:26:48Z</time></trkpt><trkpt lat="38.06923602534562" lon="-3.6738632373432725"><ele>352.0</ele><time>2026-04-27T13:26:49Z</time></trkpt><trkpt lat="38.06940098823239" lon="-3.673686971555754"><ele>353.66666666666663</ele><time>2026-04-27T13:26:50Z</time></trkpt><trkpt lat="38.06955857226674" lon="-3.673496096028054"><ele>355.3333333333333</ele><time>2026-04-27T13:26:51Z</time></trkpt><trkpt lat="38.06970046340479" lon="-3.673288463325678"><ele>357.0</ele><time>2026-04-27T13:26:52Z</time></trkpt><trkpt lat="38.06982293654092" lon="-3.6730567087918597"><ele>357.0</ele><time>2026-04-27T13:26:53Z</time></trkpt><trkpt lat="38.069928168858986" lon="-3.672811871479401"><ele>357.0</ele><time>2026-04-27T13:26:54Z</time></trkpt><trkpt lat="38.07002648362784" lon="-3.672562068837264"><ele>357.0</ele><time>2026-04-27T13:26:55Z</time></trkpt><trkpt lat="38.07011830130738" lon="-3.672307750314416"><ele>360.3333333333333</ele><time>2026-04-27T13:26:56Z</time></trkpt><trkpt lat="38.07021172349078" lon="-3.672054223309033"><ele>363.66666666666663</ele><time>2026-04-27T13:26:57Z</time></trkpt><trkpt lat="38.070307023294674" lon="-3.6718010503554837"><ele>367.0</ele><time>2026-04-27T13:26:58Z</time></trkpt><trkpt lat="38.07040122366162" lon="-3.6715447046920073"><ele>368.0</ele><time>2026-04-27T13:26:59Z</time></trkpt><trkpt lat="38.07049929110692" lon="-3.6712779544669716"><ele>369.0</ele><time>2026-04-27T13:27:00Z</time></trkpt><trkpt lat="38.07060197417253" lon="-3.67100673336007"><ele>371.0</ele><time>2026-04-27T13:27:01Z</time></trkpt><trkpt lat="38.07070424922016" lon="-3.670731047796732"><ele>373.0</ele><time>2026-04-27T13:27:02Z</time></trkpt><trkpt lat="38.0707944163741" lon="-3.670453426190092"><ele>374.0</ele><time>2026-04-27T13:27:03Z</time></trkpt><trkpt lat="38.070871429088584" lon="-3.670161635396189"><ele>375.0</ele><time>2026-04-27T13:27:04Z</time></trkpt><trkpt lat="38.07093390084351" lon="-3.6698563489705336"><ele>375.0</ele><time>2026-04-27T13:27:05Z</time></trkpt><trkpt lat="38.07098667903958" lon="-3.6695449782458014"><ele>375.0</ele><time>2026-04-27T13:27:06Z</time></trkpt><trkpt lat="38.07103267366848" lon="-3.6692315194165803"><ele>375.0</ele><time>2026-04-27T13:27:07Z</time></trkpt><trkpt lat="38.0710699282569" lon="-3.668911429410134"><ele>375.0</ele><time>2026-04-27T13:27:08Z</time></trkpt><trkpt lat="38.07110518907216" lon="-3.668585232915325"><ele>375.0</ele><time>2026-04-27T13:27:09Z</time></trkpt><trkpt lat="38.0711438359528" lon="-3.6682595153680513"><ele>375.0</ele><time>2026-04-27T13:27:10Z</time></trkpt><trkpt lat="38.07118640079598" lon="-3.66792979907439"><ele>374.5</ele><time>2026-04-27T13:27:11Z</time></trkpt><trkpt lat="38.071228173024124" lon="-3.6676012117750068"><ele>374.0</ele><time>2026-04-27T13:27:12Z</time></trkpt><trkpt lat="38.071266617662474" lon="-3.6672713255111824"><ele>374.0</ele><time>2026-04-27T13:27:13Z</time></trkpt><trkpt lat="38.07130510612525" lon="-3.666945000282568"><ele>374.0</ele><time>2026-04-27T13:27:14Z</time></trkpt><trkpt lat="38.07134114307647" lon="-3.666621878144346"><ele>374.5</ele><time>2026-04-27T13:27:15Z</time></trkpt><trkpt lat="38.071379744379094" lon="-3.666299420537018"><ele>375.0</ele><time>2026-04-27T13:27:16Z</time></trkpt><trkpt lat="38.071416707425634" lon="-3.6659838404985337"><ele>376.0</ele><time>2026-04-27T13:27:17Z</time></trkpt><trkpt lat="38.07145325301668" lon="-3.6656738203121395"><ele>377.0</ele><time>2026-04-27T13:27:18Z</time></trkpt><trkpt lat="38.07149183121963" lon="-3.6653615369301775"><ele>378.0</ele><time>2026-04-27T13:27:19Z</time></trkpt><trkpt lat="38.071530945895795" lon="-3.6650446985901683"><ele>379.0</ele><time>2026-04-27T13:27:20Z</time></trkpt><trkpt lat="38.07156826314608" lon="-3.6647281797371054"><ele>381.5</ele><time>2026-04-27T13:27:21Z</time></trkpt><trkpt lat="38.07160400295899" lon="-3.6644172958589767"><ele>384.0</ele><time>2026-04-27T13:27:22Z</time></trkpt><trkpt lat="38.07164025602203" lon="-3.664099607398706"><ele>384.0</ele><time>2026-04-27T13:27:23Z</time></trkpt><trkpt lat="38.07167900354398" lon="-3.6637902866901366"><ele>384.0</ele><time>2026-04-27T13:27:24Z</time></trkpt><trkpt lat="38.07171764265498" lon="-3.663481076278383"><ele>385.0</ele><time>2026-04-27T13:27:25Z</time></trkpt><trkpt lat="38.07175960817922" lon="-3.663171958261085"><ele>386.0</ele><time>2026-04-27T13:27:26Z</time></trkpt><trkpt lat="38.071804269368435" lon="-3.6628644530162915"><ele>387.0</ele><time>2026-04-27T13:27:27Z</time></trkpt><trkpt lat="38.07184969855289" lon="-3.6625791023863945"><ele>388.0</ele><time>2026-04-27T13:27:28Z</time></trkpt><trkpt lat="38.07189218787371" lon="-3.662315011063644"><ele>389.0</ele><time>2026-04-27T13:27:29Z</time></trkpt><trkpt lat="38.071938003083574" lon="-3.6620415782630413"><ele>389.3333333333333</ele><time>2026-04-27T13:27:30Z</time></trkpt><trkpt lat="38.071983510920596" lon="-3.6617677638832986"><ele>389.66666666666663</ele><time>2026-04-27T13:27:31Z</time></trkpt><trkpt lat="38.07202844150523" lon="-3.661493982913536"><ele>390.0</ele><time>2026-04-27T13:27:32Z</time></trkpt><trkpt lat="38.07207673343686" lon="-3.6612239522288563"><ele>390.5</ele><time>2026-04-27T13:27:33Z</time></trkpt><trkpt lat="38.07213246541499" lon="-3.660952079254661"><ele>391.0</ele><time>2026-04-27T13:27:34Z</time></trkpt><trkpt lat="38.072185742351024" lon="-3.6606690341481656"><ele>391.0</ele><time>2026-04-27T13:27:35Z</time></trkpt><trkpt lat="38.07223808783331" lon="-3.6603950736399167"><ele>391.0</ele><time>2026-04-27T13:27:36Z</time></trkpt><trkpt lat="38.072290854482176" lon="-3.6601191447866976"><ele>391.0</ele><time>2026-04-27T13:27:37Z</time></trkpt><trkpt lat="38.072345221429956" lon="-3.6598420912598018"><ele>392.0</ele><time>2026-04-27T13:27:38Z</time></trkpt><trkpt lat="38.07240629001704" lon="-3.659567592655453"><ele>393.0</ele><time>2026-04-27T13:27:39Z</time></trkpt><trkpt lat="38.072476856799994" lon="-3.659300678009482"><ele>394.0</ele><time>2026-04-27T13:27:40Z</time></trkpt><trkpt lat="38.072552891549925" lon="-3.659033688773507"><ele>395.5</ele><time>2026-04-27T13:27:41Z</time></trkpt><trkpt lat="38.072634223289754" lon="-3.6587633152926524"><ele>397.0</ele><time>2026-04-27T13:27:42Z</time></trkpt><trkpt lat="38.07272060504753" lon="-3.658501800142849"><ele>397.0</ele><time>2026-04-27T13:27:43Z</time></trkpt><trkpt lat="38.07280824330029" lon="-3.6582402854353684"><ele>397.0</ele><time>2026-04-27T13:27:44Z</time></trkpt><trkpt lat="38.07289775803894" lon="-3.6579795747531008"><ele>397.0</ele><time>2026-04-27T13:27:45Z</time></trkpt><trkpt lat="38.07298892539216" lon="-3.6577137256965346"><ele>397.0</ele><time>2026-04-27T13:27:46Z</time></trkpt><trkpt lat="38.073082960923124" lon="-3.6574439997694523"><ele>397.0</ele><time>2026-04-27T13:27:47Z</time></trkpt><trkpt lat="38.07318006709218" lon="-3.657177431640403"><ele>398.5</ele><time>2026-04-27T13:27:48Z</time></trkpt><trkpt lat="38.07327166510272" lon="-3.656905152346043"><ele>400.0</ele><time>2026-04-27T13:27:49Z</time></trkpt><trkpt lat="38.07336667768147" lon="-3.6566331514813033"><ele>401.0</ele><time>2026-04-27T13:27:50Z</time></trkpt><trkpt lat="38.07345973942759" lon="-3.6563613654797886"><ele>402.0</ele><time>2026-04-27T13:27:51Z</time></trkpt><trkpt lat="38.07355438555466" lon="-3.6560907688416706"><ele>403.5</ele><time>2026-04-27T13:27:52Z</time></trkpt><trkpt lat="38.07365020195545" lon="-3.655829389258245"><ele>405.0</ele><time>2026-04-27T13:27:53Z</time></trkpt><trkpt lat="38.07374687250854" lon="-3.6555568896102417"><ele>405.0</ele><time>2026-04-27T13:27:54Z</time></trkpt><trkpt lat="38.073845813455904" lon="-3.655288218518684"><ele>405.0</ele><time>2026-04-27T13:27:55Z</time></trkpt><trkpt lat="38.07394114927859" lon="-3.6550211537781534"><ele>405.5</ele><time>2026-04-27T13:27:56Z</time></trkpt><trkpt lat="38.07403756704586" lon="-3.654752327966239"><ele>406.0</ele><time>2026-04-27T13:27:57Z</time></trkpt><trkpt lat="38.074134236231856" lon="-3.6544804654029033"><ele>411.0</ele><time>2026-04-27T13:27:58Z</time></trkpt><trkpt lat="38.074235622323556" lon="-3.6542114316586822"><ele>416.0</ele><time>2026-04-27T13:27:59Z</time></trkpt><trkpt lat="38.0743375477902" lon="-3.653941475098283"><ele>416.0</ele><time>2026-04-27T13:28:00Z</time></trkpt><trkpt lat="38.07444281780612" lon="-3.6536751357361537"><ele>416.0</ele><time>2026-04-27T13:28:01Z</time></trkpt><trkpt lat="38.074549305249114" lon="-3.6534068365397214"><ele>417.5</ele><time>2026-04-27T13:28:02Z</time></trkpt><trkpt lat="38.07465426059964" lon="-3.6531351333617432"><ele>419.0</ele><time>2026-04-27T13:28:03Z</time></trkpt><trkpt lat="38.07476059234433" lon="-3.6528605568277435"><ele>419.5</ele><time>2026-04-27T13:28:04Z</time></trkpt><trkpt lat="38.07486566522121" lon="-3.6525902896122946"><ele>420.0</ele><time>2026-04-27T13:28:05Z</time></trkpt><trkpt lat="38.07496977525728" lon="-3.652325716628153"><ele>422.5</ele><time>2026-04-27T13:28:06Z</time></trkpt><trkpt lat="38.07507232236238" lon="-3.652061161383681"><ele>425.0</ele><time>2026-04-27T13:28:07Z</time></trkpt><trkpt lat="38.075173127675555" lon="-3.651799052793769"><ele>425.0</ele><time>2026-04-27T13:28:08Z</time></trkpt><trkpt lat="38.07527192149124" lon="-3.651540204973676"><ele>425.0</ele><time>2026-04-27T13:28:09Z</time></trkpt><trkpt lat="38.075373667493814" lon="-3.651279720272448"><ele>422.0</ele><time>2026-04-27T13:28:10Z</time></trkpt><trkpt lat="38.075476428066914" lon="-3.6510113053202726"><ele>419.0</ele><time>2026-04-27T13:28:11Z</time></trkpt><trkpt lat="38.07558035520581" lon="-3.6507429587397455"><ele>419.0</ele><time>2026-04-27T13:28:12Z</time></trkpt><trkpt lat="38.07568899905743" lon="-3.6504708130513968"><ele>419.0</ele><time>2026-04-27T13:28:13Z</time></trkpt><trkpt lat="38.075794435216395" lon="-3.650192364351343"><ele>418.0</ele><time>2026-04-27T13:28:14Z</time></trkpt><trkpt lat="38.07589918212396" lon="-3.649911736018958"><ele>417.0</ele><time>2026-04-27T13:28:15Z</time></trkpt><trkpt lat="38.07601005073208" lon="-3.649635976095826"><ele>416.5</ele><time>2026-04-27T13:28:16Z</time></trkpt><trkpt lat="38.076130110229435" lon="-3.6493585519014804"><ele>416.0</ele><time>2026-04-27T13:28:17Z</time></trkpt><trkpt lat="38.07625587929944" lon="-3.649086071659296"><ele>416.0</ele><time>2026-04-27T13:28:18Z</time></trkpt><trkpt lat="38.07639087644545" lon="-3.6488190955030806"><ele>416.0</ele><time>2026-04-27T13:28:19Z</time></trkpt><trkpt lat="38.076537448599375" lon="-3.6485604458934455"><ele>414.0</ele><time>2026-04-27T13:28:20Z</time></trkpt><trkpt lat="38.07667127359128" lon="-3.648300616917611"><ele>412.0</ele><time>2026-04-27T13:28:21Z</time></trkpt><trkpt lat="38.07681679114701" lon="-3.648061757619604"><ele>412.0</ele><time>2026-04-27T13:28:22Z</time></trkpt><trkpt lat="38.07696672985207" lon="-3.6478331943541273"><ele>412.0</ele><time>2026-04-27T13:28:23Z</time></trkpt><trkpt lat="38.07713938951194" lon="-3.6476165485846623"><ele>413.0</ele><time>2026-04-27T13:28:24Z</time></trkpt><trkpt lat="38.077301213186175" lon="-3.6473888559730363"><ele>414.0</ele><time>2026-04-27T13:28:25Z</time></trkpt><trkpt lat="38.077472149920034" lon="-3.647171511144405"><ele>414.5</ele><time>2026-04-27T13:28:26Z</time></trkpt><trkpt lat="38.07764992634079" lon="-3.6469662286164364"><ele>415.0</ele><time>2026-04-27T13:28:27Z</time></trkpt><trkpt lat="38.07783225962642" lon="-3.6467706181577304"><ele>415.6666666666667</ele><time>2026-04-27T13:28:28Z</time></trkpt><trkpt lat="38.078007958965" lon="-3.6465941969693687"><ele>416.33333333333337</ele><time>2026-04-27T13:28:29Z</time></trkpt><trkpt lat="38.078175761110806" lon="-3.646441318119999"><ele>417.0</ele><time>2026-04-27T13:28:30Z</time></trkpt><trkpt lat="38.078323738463354" lon="-3.646301649541307"><ele>417.66666666666663</ele><time>2026-04-27T13:28:31Z</time></trkpt><trkpt lat="38.07847435019826" lon="-3.6461706444476465"><ele>418.3333333333333</ele><time>2026-04-27T13:28:32Z</time></trkpt><trkpt lat="38.07861906203698" lon="-3.6460577578269864"><ele>419.0</ele><time>2026-04-27T13:28:33Z</time></trkpt><trkpt lat="38.07876002787021" lon="-3.645957487557269"><ele>419.0</ele><time>2026-04-27T13:28:34Z</time></trkpt><trkpt lat="38.07889577209824" lon="-3.645867249873613"><ele>419.0</ele><time>2026-04-27T13:28:35Z</time></trkpt><trkpt lat="38.07902403753799" lon="-3.6457865986923843"><ele>419.0</ele><time>2026-04-27T13:28:36Z</time></trkpt><trkpt lat="38.07915343696489" lon="-3.645730559006942"><ele>419.0</ele><time>2026-04-27T13:28:37Z</time></trkpt><trkpt lat="38.07927396780981" lon="-3.645682894795955"><ele>418.79999999999995</ele><time>2026-04-27T13:28:38Z</time></trkpt><trkpt lat="38.079387818728705" lon="-3.6456477504909617"><ele>418.59999999999997</ele><time>2026-04-27T13:28:39Z</time></trkpt><trkpt lat="38.07949465482501" lon="-3.6456160840916794"><ele>418.4</ele><time>2026-04-27T13:28:40Z</time></trkpt><trkpt lat="38.07958483034347" lon="-3.6455935682703893"><ele>418.2</ele><time>2026-04-27T13:28:41Z</time></trkpt><trkpt lat="38.07965559676388" lon="-3.6455737371920414"><ele>418.0</ele><time>2026-04-27T13:28:42Z</time></trkpt><trkpt lat="38.07975482428667" lon="-3.645524242117038"><ele>418.0</ele><time>2026-04-27T13:28:44Z</time></trkpt><trkpt lat="38.07979921354939" lon="-3.6454653065663276"><ele>418.0</ele><time>2026-04-27T13:28:47Z</time></trkpt><trkpt lat="38.07985344787899" lon="-3.6453281594758717"><ele>418.0</ele><time>2026-04-27T13:28:49.999Z</time></trkpt><trkpt lat="38.07992069067126" lon="-3.645203435417029"><ele>418.0</ele><time>2026-04-27T13:28:51.999Z</time></trkpt><trkpt lat="38.07997732910911" lon="-3.645145167116842"><ele>418.0</ele><time>2026-04-27T13:28:52.999Z</time></trkpt><trkpt lat="38.08004459589177" lon="-3.6450938849930927"><ele>416.6666666666667</ele><time>2026-04-27T13:28:53.999Z</time></trkpt><trkpt lat="38.08012060709981" lon="-3.645066895594363"><ele>415.33333333333337</ele><time>2026-04-27T13:28:54.999Z</time></trkpt><trkpt lat="38.08020103292809" lon="-3.645069370501801"><ele>414.0</ele><time>2026-04-27T13:28:55.999Z</time></trkpt><trkpt lat="38.08027988824577" lon="-3.6450921303804322"><ele>412.66666666666663</ele><time>2026-04-27T13:28:56.999Z</time></trkpt><trkpt lat="38.08035310798066" lon="-3.6451321777798125"><ele>411.3333333333333</ele><time>2026-04-27T13:28:57.999Z</time></trkpt><trkpt lat="38.08041666045444" lon="-3.64518907443754"><ele>410.0</ele><time>2026-04-27T13:28:58.999Z</time></trkpt><trkpt lat="38.08047519466078" lon="-3.6452461813978707"><ele>410.0</ele><time>2026-04-27T13:28:59.999Z</time></trkpt><trkpt lat="38.0805317186599" lon="-3.645283745433734"><ele>410.0</ele><time>2026-04-27T13:29:00.999Z</time></trkpt><trkpt lat="38.08066790052393" lon="-3.6453065040140245"><ele>410.0</ele><time>2026-04-27T13:29:02.999Z</time></trkpt><trkpt lat="38.08075769223332" lon="-3.6452927284923105"><ele>410.0</ele><time>2026-04-27T13:29:04Z</time></trkpt><trkpt lat="38.080853395926574" lon="-3.6452765500095627"><ele>410.0</ele><time>2026-04-27T13:29:05Z</time></trkpt><trkpt lat="38.08094156454799" lon="-3.6452579549543103"><ele>409.49999999999994</ele><time>2026-04-27T13:29:06Z</time></trkpt><trkpt lat="38.081024120720706" lon="-3.645216721088441"><ele>409.0</ele><time>2026-04-27T13:29:07Z</time></trkpt><trkpt lat="38.08111173474311" lon="-3.6451879028566125"><ele>408.5</ele><time>2026-04-27T13:29:08Z</time></trkpt><trkpt lat="38.08118455135173" lon="-3.6451755555312686"><ele>408.0</ele><time>2026-04-27T13:29:09Z</time></trkpt><trkpt lat="38.081257044831496" lon="-3.645144255714626"><ele>407.49999999999994</ele><time>2026-04-27T13:29:10Z</time></trkpt><trkpt lat="38.08132561163589" lon="-3.645092326952484"><ele>407.0</ele><time>2026-04-27T13:29:11Z</time></trkpt><trkpt lat="38.08139076747829" lon="-3.6450297844044703"><ele>407.0</ele><time>2026-04-27T13:29:12Z</time></trkpt><trkpt lat="38.081519438576514" lon="-3.6450197325714178"><ele>407.0</ele><time>2026-04-27T13:29:14Z</time></trkpt><trkpt lat="38.08158194358056" lon="-3.6449741469736834"><ele>407.0</ele><time>2026-04-27T13:29:15Z</time></trkpt><trkpt lat="38.08162890371421" lon="-3.6449116323224"><ele>407.0</ele><time>2026-04-27T13:29:16Z</time></trkpt><trkpt lat="38.08165771187135" lon="-3.6447690446687866"><ele>407.0</ele><time>2026-04-27T13:29:18Z</time></trkpt><trkpt lat="38.08165541984298" lon="-3.6446071847973687"><ele>406.8</ele><time>2026-04-27T13:29:20Z</time></trkpt><trkpt lat="38.08166639604792" lon="-3.6445220644047667"><ele>406.6</ele><time>2026-04-27T13:29:21Z</time></trkpt><trkpt lat="38.0816890887682" lon="-3.6444227315894033"><ele>406.40000000000003</ele><time>2026-04-27T13:29:22Z</time></trkpt><trkpt lat="38.081698703260415" lon="-3.6443272314231105"><ele>406.20000000000005</ele><time>2026-04-27T13:29:23Z</time></trkpt><trkpt lat="38.08160582432276" lon="-3.6441792502878134"><ele>406.0</ele><time>2026-04-27T13:29:25Z</time></trkpt><trkpt lat="38.0814966332928" lon="-3.6441758530456685"><ele>407.25</ele><time>2026-04-27T13:29:26Z</time></trkpt><trkpt lat="38.081396444118596" lon="-3.644093649400291"><ele>408.5</ele><time>2026-04-27T13:29:27Z</time></trkpt><trkpt lat="38.081282653863845" lon="-3.6440116453871108"><ele>409.75</ele><time>2026-04-27T13:29:28Z</time></trkpt><trkpt lat="38.081174905540585" lon="-3.643898329129353"><ele>411.0</ele><time>2026-04-27T13:29:29Z</time></trkpt><trkpt lat="38.08106221041597" lon="-3.6437670744789705"><ele>411.0</ele><time>2026-04-27T13:29:30Z</time></trkpt><trkpt lat="38.080948950560135" lon="-3.643633593511503"><ele>411.0</ele><time>2026-04-27T13:29:31Z</time></trkpt><trkpt lat="38.080818307053626" lon="-3.6434813330869438"><ele>411.0</ele><time>2026-04-27T13:29:32Z</time></trkpt><trkpt lat="38.080689586473206" lon="-3.643312245528589"><ele>411.0</ele><time>2026-04-27T13:29:33Z</time></trkpt><trkpt lat="38.08056779912983" lon="-3.6431283734061557"><ele>411.0</ele><time>2026-04-27T13:29:34Z</time></trkpt><trkpt lat="38.08043906752525" lon="-3.6429259888457515"><ele>411.0</ele><time>2026-04-27T13:29:35Z</time></trkpt><trkpt lat="38.08031893557597" lon="-3.642727661916108"><ele>411.0</ele><time>2026-04-27T13:29:36Z</time></trkpt><trkpt lat="38.080213069820324" lon="-3.642535228230104"><ele>411.0</ele><time>2026-04-27T13:29:37Z</time></trkpt><trkpt lat="38.08011313330553" lon="-3.6423339751690356"><ele>411.0</ele><time>2026-04-27T13:29:38Z</time></trkpt><trkpt lat="38.08001665255124" lon="-3.642135098975042"><ele>413.33333333333337</ele><time>2026-04-27T13:29:39Z</time></trkpt><trkpt lat="38.0799294017171" lon="-3.641923281921124"><ele>415.6666666666667</ele><time>2026-04-27T13:29:40Z</time></trkpt><trkpt lat="38.07984907415408" lon="-3.641715756834559"><ele>418.0</ele><time>2026-04-27T13:29:41Z</time></trkpt><trkpt lat="38.079768261140686" lon="-3.64149972689553"><ele>418.0</ele><time>2026-04-27T13:29:42Z</time></trkpt><trkpt lat="38.07969258910546" lon="-3.6412839701985535"><ele>418.0</ele><time>2026-04-27T13:29:43Z</time></trkpt><trkpt lat="38.07963024698872" lon="-3.641063359735748"><ele>418.0</ele><time>2026-04-27T13:29:44Z</time></trkpt><trkpt lat="38.079572401195016" lon="-3.640833559307722"><ele>418.33333333333337</ele><time>2026-04-27T13:29:45Z</time></trkpt><trkpt lat="38.07952192286463" lon="-3.640604776392291"><ele>418.66666666666663</ele><time>2026-04-27T13:29:46Z</time></trkpt><trkpt lat="38.079472168525434" lon="-3.6403650060665265"><ele>419.0</ele><time>2026-04-27T13:29:47Z</time></trkpt><trkpt lat="38.079424762602656" lon="-3.640117901647109"><ele>419.66666666666663</ele><time>2026-04-27T13:29:48Z</time></trkpt><trkpt lat="38.07938247455912" lon="-3.6398667607903272"><ele>420.33333333333337</ele><time>2026-04-27T13:29:49Z</time></trkpt><trkpt lat="38.07935245273381" lon="-3.639602628031778"><ele>421.0</ele><time>2026-04-27T13:29:50Z</time></trkpt><trkpt lat="38.07934382490968" lon="-3.6393336605383646"><ele>422.0</ele><time>2026-04-27T13:29:51Z</time></trkpt><trkpt lat="38.079351260349235" lon="-3.639059399246296"><ele>423.0</ele><time>2026-04-27T13:29:52Z</time></trkpt><trkpt lat="38.079374664183206" lon="-3.6387813445088613"><ele>424.0</ele><time>2026-04-27T13:29:53Z</time></trkpt><trkpt lat="38.079407302816854" lon="-3.638500095842264"><ele>425.0</ele><time>2026-04-27T13:29:54Z</time></trkpt><trkpt lat="38.07944530576203" lon="-3.638220996483021"><ele>426.0</ele><time>2026-04-27T13:29:55Z</time></trkpt><trkpt lat="38.079484119432585" lon="-3.6379408728639886"><ele>427.0</ele><time>2026-04-27T13:29:56Z</time></trkpt><trkpt lat="38.07953159293804" lon="-3.6376635195046445"><ele>428.0</ele><time>2026-04-27T13:29:57Z</time></trkpt><trkpt lat="38.07959018131899" lon="-3.6373831186484984"><ele>429.0</ele><time>2026-04-27T13:29:58Z</time></trkpt><trkpt lat="38.07966616252131" lon="-3.63709035737915"><ele>432.0</ele><time>2026-04-27T13:29:59Z</time></trkpt><trkpt lat="38.0797518610377" lon="-3.6367992395415114"><ele>435.0</ele><time>2026-04-27T13:30:00Z</time></trkpt><trkpt lat="38.079843004358644" lon="-3.6365300917961094"><ele>435.0</ele><time>2026-04-27T13:30:01Z</time></trkpt><trkpt lat="38.07994108475705" lon="-3.636284471276456"><ele>435.0</ele><time>2026-04-27T13:30:02Z</time></trkpt><trkpt lat="38.080046046447364" lon="-3.636048924504534"><ele>435.0</ele><time>2026-04-27T13:30:03Z</time></trkpt><trkpt lat="38.08014159222969" lon="-3.635810710379569"><ele>435.0</ele><time>2026-04-27T13:30:04Z</time></trkpt><trkpt lat="38.08024129318551" lon="-3.635568038056548"><ele>435.0</ele><time>2026-04-27T13:30:05Z</time></trkpt><trkpt lat="38.080353569822094" lon="-3.6353304703271845"><ele>435.0</ele><time>2026-04-27T13:30:06Z</time></trkpt><trkpt lat="38.08047668319734" lon="-3.635096862558414"><ele>435.66666666666663</ele><time>2026-04-27T13:30:07Z</time></trkpt><trkpt lat="38.08059781470149" lon="-3.634870562863124"><ele>436.3333333333333</ele><time>2026-04-27T13:30:08Z</time></trkpt><trkpt lat="38.080724212119144" lon="-3.634650085070343"><ele>437.0</ele><time>2026-04-27T13:30:09Z</time></trkpt><trkpt lat="38.080850175739805" lon="-3.634433354592154"><ele>438.66666666666663</ele><time>2026-04-27T13:30:10Z</time></trkpt><trkpt lat="38.080975338495726" lon="-3.6342130421376178"><ele>440.33333333333337</ele><time>2026-04-27T13:30:11Z</time></trkpt><trkpt lat="38.08109856592652" lon="-3.6339907295538567"><ele>442.0</ele><time>2026-04-27T13:30:12Z</time></trkpt><trkpt lat="38.081222912422135" lon="-3.633762921882284"><ele>442.0</ele><time>2026-04-27T13:30:13Z</time></trkpt><trkpt lat="38.08134782075413" lon="-3.6335262929695626"><ele>442.0</ele><time>2026-04-27T13:30:14Z</time></trkpt><trkpt lat="38.08147245129637" lon="-3.6332862978776186"><ele>442.0</ele><time>2026-04-27T13:30:15Z</time></trkpt><trkpt lat="38.081595053285035" lon="-3.6330398576490266"><ele>442.0</ele><time>2026-04-27T13:30:16Z</time></trkpt><trkpt lat="38.0817145809861" lon="-3.632782151513573"><ele>444.0</ele><time>2026-04-27T13:30:17Z</time></trkpt><trkpt lat="38.0818287007059" lon="-3.632516501209408"><ele>446.0</ele><time>2026-04-27T13:30:18Z</time></trkpt><trkpt lat="38.081939329415114" lon="-3.6322409493943946"><ele>448.0</ele><time>2026-04-27T13:30:19Z</time></trkpt><trkpt lat="38.08204853484132" lon="-3.6319613446600165"><ele>450.0</ele><time>2026-04-27T13:30:20Z</time></trkpt><trkpt lat="38.08215216905406" lon="-3.631685209661799"><ele>450.0</ele><time>2026-04-27T13:30:21Z</time></trkpt><trkpt lat="38.08224819711581" lon="-3.631407936686194"><ele>450.0</ele><time>2026-04-27T13:30:22Z</time></trkpt><trkpt lat="38.08233988767452" lon="-3.631125582435686"><ele>450.5</ele><time>2026-04-27T13:30:23Z</time></trkpt><trkpt lat="38.0824210851569" lon="-3.6308399089306467"><ele>451.0</ele><time>2026-04-27T13:30:24Z</time></trkpt><trkpt lat="38.082486387264574" lon="-3.630556164906076"><ele>451.5</ele><time>2026-04-27T13:30:25Z</time></trkpt><trkpt lat="38.08254583648336" lon="-3.6302643160041885"><ele>452.0</ele><time>2026-04-27T13:30:26Z</time></trkpt><trkpt lat="38.082603237077116" lon="-3.6299670277761797"><ele>452.0</ele><time>2026-04-27T13:30:27Z</time></trkpt><trkpt lat="38.08265711180836" lon="-3.6296694771485436"><ele>452.0</ele><time>2026-04-27T13:30:28Z</time></trkpt><trkpt lat="38.082704763119544" lon="-3.6293607215807455"><ele>452.5</ele><time>2026-04-27T13:30:29Z</time></trkpt><trkpt lat="38.08274825969087" lon="-3.629050329636371"><ele>453.0</ele><time>2026-04-27T13:30:30Z</time></trkpt><trkpt lat="38.08278899233893" lon="-3.6287318669499724"><ele>452.5</ele><time>2026-04-27T13:30:31Z</time></trkpt><trkpt lat="38.08281954612407" lon="-3.6284031659153864"><ele>452.0</ele><time>2026-04-27T13:30:32Z</time></trkpt><trkpt lat="38.082843739621126" lon="-3.6280742749652677"><ele>451.0</ele><time>2026-04-27T13:30:33Z</time></trkpt><trkpt lat="38.08285735055511" lon="-3.6277484693572903"><ele>450.0</ele><time>2026-04-27T13:30:33.999Z</time></trkpt><trkpt lat="38.08286446429937" lon="-3.6274328578104478"><ele>450.0</ele><time>2026-04-27T13:30:34.999Z</time></trkpt><trkpt lat="38.08286311396869" lon="-3.6271163374192654"><ele>450.0</ele><time>2026-04-27T13:30:35.999Z</time></trkpt><trkpt lat="38.08285452138252" lon="-3.6267953229096332"><ele>448.0</ele><time>2026-04-27T13:30:36.999Z</time></trkpt><trkpt lat="38.08284325384887" lon="-3.626480174967979"><ele>446.0</ele><time>2026-04-27T13:30:37.999Z</time></trkpt><trkpt lat="38.08282493624225" lon="-3.626158314394856"><ele>445.0</ele><time>2026-04-27T13:30:38.999Z</time></trkpt><trkpt lat="38.08279611653502" lon="-3.6258358652418243"><ele>444.0</ele><time>2026-04-27T13:30:39.999Z</time></trkpt><trkpt lat="38.082761527681036" lon="-3.6255120804242225"><ele>443.0</ele><time>2026-04-27T13:30:40.999Z</time></trkpt><trkpt lat="38.082719718431896" lon="-3.6251829807067555"><ele>442.0</ele><time>2026-04-27T13:30:41.999Z</time></trkpt><trkpt lat="38.08267206392721" lon="-3.624856860341432"><ele>442.0</ele><time>2026-04-27T13:30:42.999Z</time></trkpt><trkpt lat="38.08261764501938" lon="-3.624537278157015"><ele>442.0</ele><time>2026-04-27T13:30:43.999Z</time></trkpt><trkpt lat="38.0825534013984" lon="-3.6242174985608937"><ele>442.5</ele><time>2026-04-27T13:30:44.999Z</time></trkpt><trkpt lat="38.082481906331516" lon="-3.6239058910986"><ele>443.0</ele><time>2026-04-27T13:30:45.999Z</time></trkpt><trkpt lat="38.08240470341699" lon="-3.623609280794954"><ele>443.0</ele><time>2026-04-27T13:30:46.999Z</time></trkpt><trkpt lat="38.08232108556385" lon="-3.623315042512642"><ele>443.0</ele><time>2026-04-27T13:30:47.999Z</time></trkpt><trkpt lat="38.08223330212765" lon="-3.6230314767273244"><ele>446.5</ele><time>2026-04-27T13:30:48.999Z</time></trkpt><trkpt lat="38.08214004007176" lon="-3.622751988675138"><ele>450.0</ele><time>2026-04-27T13:30:49.999Z</time></trkpt><trkpt lat="38.082044017137555" lon="-3.622477427809755"><ele>450.0</ele><time>2026-04-27T13:30:50.999Z</time></trkpt><trkpt lat="38.08194504857398" lon="-3.622207076913338"><ele>450.0</ele><time>2026-04-27T13:30:51.999Z</time></trkpt><trkpt lat="38.08184104142297" lon="-3.621938073078315"><ele>450.0</ele><time>2026-04-27T13:30:52.999Z</time></trkpt><trkpt lat="38.08173458874387" lon="-3.621680812579352"><ele>450.0</ele><time>2026-04-27T13:30:53.999Z</time></trkpt><trkpt lat="38.08162125576244" lon="-3.6214278506994955"><ele>451.0</ele><time>2026-04-27T13:30:54.999Z</time></trkpt><trkpt lat="38.081500204499434" lon="-3.621180943478197"><ele>452.0</ele><time>2026-04-27T13:30:55.999Z</time></trkpt><trkpt lat="38.08137278116511" lon="-3.620942731527008"><ele>452.0</ele><time>2026-04-27T13:30:56.999Z</time></trkpt><trkpt lat="38.08124475652388" lon="-3.6207057578995814"><ele>452.0</ele><time>2026-04-27T13:30:57.999Z</time></trkpt><trkpt lat="38.08111090617734" lon="-3.620465075136042"><ele>450.5</ele><time>2026-04-27T13:30:58.999Z</time></trkpt><trkpt lat="38.0809748260178" lon="-3.6202359189253634"><ele>449.0</ele><time>2026-04-27T13:30:59.999Z</time></trkpt><trkpt lat="38.080831612009945" lon="-3.6199990861401883"><ele>447.5</ele><time>2026-04-27T13:31:00.999Z</time></trkpt><trkpt lat="38.080687242348546" lon="-3.6197626490431967"><ele>446.0</ele><time>2026-04-27T13:31:01.999Z</time></trkpt><trkpt lat="38.080535236483726" lon="-3.6195274925051417"><ele>443.0</ele><time>2026-04-27T13:31:02.999Z</time></trkpt><trkpt lat="38.08038443974185" lon="-3.6192915337586538"><ele>440.0</ele><time>2026-04-27T13:31:03.999Z</time></trkpt><trkpt lat="38.08023210563044" lon="-3.619055382566299"><ele>440.0</ele><time>2026-04-27T13:31:04.999Z</time></trkpt><trkpt lat="38.08008156223251" lon="-3.6188229331073245"><ele>440.0</ele><time>2026-04-27T13:31:05.999Z</time></trkpt><trkpt lat="38.079928603770185" lon="-3.6185925426925207"><ele>432.5</ele><time>2026-04-27T13:31:06.999Z</time></trkpt><trkpt lat="38.079777187269094" lon="-3.6183699604756616"><ele>425.0</ele><time>2026-04-27T13:31:07.999Z</time></trkpt><trkpt lat="38.079624312543835" lon="-3.6181424183404807"><ele>425.0</ele><time>2026-04-27T13:31:08.999Z</time></trkpt><trkpt lat="38.079471948691726" lon="-3.617915832183419"><ele>425.0</ele><time>2026-04-27T13:31:10Z</time></trkpt><trkpt lat="38.07931798044856" lon="-3.617686903918443"><ele>426.5</ele><time>2026-04-27T13:31:11Z</time></trkpt><trkpt lat="38.07916621276637" lon="-3.617450165093394"><ele>428.0</ele><time>2026-04-27T13:31:12Z</time></trkpt><trkpt lat="38.079019595350985" lon="-3.6172082760930873"><ele>425.5</ele><time>2026-04-27T13:31:13Z</time></trkpt><trkpt lat="38.07887405361037" lon="-3.616964949228131"><ele>423.0</ele><time>2026-04-27T13:31:14Z</time></trkpt><trkpt lat="38.07872784974208" lon="-3.61672296028264"><ele>423.0</ele><time>2026-04-27T13:31:15Z</time></trkpt><trkpt lat="38.07857875587056" lon="-3.616467177520213"><ele>423.0</ele><time>2026-04-27T13:31:16Z</time></trkpt><trkpt lat="38.07843465273108" lon="-3.616208225588024"><ele>422.5</ele><time>2026-04-27T13:31:17Z</time></trkpt><trkpt lat="38.07829634065688" lon="-3.6159404194216886"><ele>422.0</ele><time>2026-04-27T13:31:18Z</time></trkpt><trkpt lat="38.07815951168605" lon="-3.6156638234043434"><ele>416.0</ele><time>2026-04-27T13:31:19Z</time></trkpt><trkpt lat="38.078028613541164" lon="-3.6153810402573883"><ele>410.0</ele><time>2026-04-27T13:31:20Z</time></trkpt><trkpt lat="38.07790537079237" lon="-3.6150872863585417"><ele>408.5</ele><time>2026-04-27T13:31:21Z</time></trkpt><trkpt lat="38.07778596353102" lon="-3.6147935252005765"><ele>407.0</ele><time>2026-04-27T13:31:22Z</time></trkpt><trkpt lat="38.07767547073006" lon="-3.614489307821321"><ele>406.0</ele><time>2026-04-27T13:31:23Z</time></trkpt><trkpt lat="38.07757251378265" lon="-3.6141797349058415"><ele>405.0</ele><time>2026-04-27T13:31:24Z</time></trkpt><trkpt lat="38.077482051580375" lon="-3.613870445805372"><ele>399.5</ele><time>2026-04-27T13:31:25Z</time></trkpt><trkpt lat="38.07740315241445" lon="-3.613553191451689"><ele>394.0</ele><time>2026-04-27T13:31:26Z</time></trkpt><trkpt lat="38.07733891236508" lon="-3.613238253417892"><ele>394.0</ele><time>2026-04-27T13:31:27Z</time></trkpt><trkpt lat="38.07728519960734" lon="-3.6129258399903894"><ele>394.0</ele><time>2026-04-27T13:31:28Z</time></trkpt><trkpt lat="38.07724514656261" lon="-3.612611383488989"><ele>393.0</ele><time>2026-04-27T13:31:29Z</time></trkpt><trkpt lat="38.0772213240662" lon="-3.612300628770141"><ele>392.0</ele><time>2026-04-27T13:31:30Z</time></trkpt><trkpt lat="38.07720843940308" lon="-3.6119814512047435"><ele>391.0</ele><time>2026-04-27T13:31:31Z</time></trkpt><trkpt lat="38.07720912692062" lon="-3.611662994221582"><ele>390.0</ele><time>2026-04-27T13:31:32Z</time></trkpt><trkpt lat="38.077226812354375" lon="-3.6113508687582265"><ele>385.5</ele><time>2026-04-27T13:31:33Z</time></trkpt><trkpt lat="38.077252838022275" lon="-3.6110520529564285"><ele>381.0</ele><time>2026-04-27T13:31:34Z</time></trkpt><trkpt lat="38.07728345636573" lon="-3.6107719236087448"><ele>381.0</ele><time>2026-04-27T13:31:35Z</time></trkpt><trkpt lat="38.07733078984909" lon="-3.6104962384282806"><ele>381.0</ele><time>2026-04-27T13:31:36Z</time></trkpt><trkpt lat="38.07738772262666" lon="-3.6102203565227136"><ele>381.0</ele><time>2026-04-27T13:31:37Z</time></trkpt><trkpt lat="38.077456305534824" lon="-3.6099477805338607"><ele>381.5</ele><time>2026-04-27T13:31:38Z</time></trkpt><trkpt lat="38.0775391932246" lon="-3.6096785375512352"><ele>382.0</ele><time>2026-04-27T13:31:39Z</time></trkpt><trkpt lat="38.07763756719925" lon="-3.60941051413942"><ele>382.0</ele><time>2026-04-27T13:31:40Z</time></trkpt><trkpt lat="38.07775348743454" lon="-3.609149038034376"><ele>382.0</ele><time>2026-04-27T13:31:41Z</time></trkpt><trkpt lat="38.077874554919056" lon="-3.6088988505494726"><ele>380.5</ele><time>2026-04-27T13:31:42Z</time></trkpt><trkpt lat="38.07800392365606" lon="-3.608648506765572"><ele>379.0</ele><time>2026-04-27T13:31:43Z</time></trkpt><trkpt lat="38.07813357865396" lon="-3.6083945884692783"><ele>379.0</ele><time>2026-04-27T13:31:44Z</time></trkpt><trkpt lat="38.07826463944046" lon="-3.6081378974876284"><ele>379.0</ele><time>2026-04-27T13:31:45Z</time></trkpt><trkpt lat="38.07839813727675" lon="-3.6078822483815745"><ele>379.0</ele><time>2026-04-27T13:31:46Z</time></trkpt><trkpt lat="38.07852943842208" lon="-3.6076311131546586"><ele>379.0</ele><time>2026-04-27T13:31:47Z</time></trkpt><trkpt lat="38.07865639270391" lon="-3.607364801951213"><ele>379.0</ele><time>2026-04-27T13:31:48Z</time></trkpt><trkpt lat="38.078785556978765" lon="-3.607111673688931"><ele>379.0</ele><time>2026-04-27T13:31:49Z</time></trkpt><trkpt lat="38.07890817871527" lon="-3.606837601272166"><ele>377.0</ele><time>2026-04-27T13:31:50Z</time></trkpt><trkpt lat="38.079018428934944" lon="-3.6065551326192002"><ele>375.0</ele><time>2026-04-27T13:31:51Z</time></trkpt><trkpt lat="38.07912136095816" lon="-3.6062596659224235"><ele>370.5</ele><time>2026-04-27T13:31:52Z</time></trkpt><trkpt lat="38.07921718425075" lon="-3.605963300125862"><ele>366.0</ele><time>2026-04-27T13:31:53Z</time></trkpt><trkpt lat="38.079307310212364" lon="-3.605650660121933"><ele>366.0</ele><time>2026-04-27T13:31:54Z</time></trkpt><trkpt lat="38.07938858093792" lon="-3.6053328263230955"><ele>366.0</ele><time>2026-04-27T13:31:55Z</time></trkpt><trkpt lat="38.07945568589686" lon="-3.605015344606229"><ele>364.5</ele><time>2026-04-27T13:31:56Z</time></trkpt><trkpt lat="38.07951337460449" lon="-3.604694304398239"><ele>363.0</ele><time>2026-04-27T13:31:57Z</time></trkpt><trkpt lat="38.079560562264994" lon="-3.6043647350492645"><ele>361.0</ele><time>2026-04-27T13:31:58Z</time></trkpt><trkpt lat="38.07959463989275" lon="-3.604031672102177"><ele>359.0</ele><time>2026-04-27T13:31:59Z</time></trkpt><trkpt lat="38.07962089387933" lon="-3.6036973475107565"><ele>357.5</ele><time>2026-04-27T13:32:00Z</time></trkpt><trkpt lat="38.07963304244549" lon="-3.603358453805586"><ele>356.0</ele><time>2026-04-27T13:32:01Z</time></trkpt><trkpt lat="38.07963484937784" lon="-3.6030185295909845"><ele>355.0</ele><time>2026-04-27T13:32:02Z</time></trkpt><trkpt lat="38.07962353040268" lon="-3.6026764339390147"><ele>354.0</ele><time>2026-04-27T13:32:03Z</time></trkpt><trkpt lat="38.079602636900695" lon="-3.6023331635187517"><ele>350.5</ele><time>2026-04-27T13:32:04Z</time></trkpt><trkpt lat="38.079569914254186" lon="-3.6019879300219735"><ele>347.0</ele><time>2026-04-27T13:32:05Z</time></trkpt><trkpt lat="38.07952484768834" lon="-3.6016513533543226"><ele>347.0</ele><time>2026-04-27T13:32:06Z</time></trkpt><trkpt lat="38.079464708874546" lon="-3.60131448451239"><ele>347.0</ele><time>2026-04-27T13:32:07Z</time></trkpt><trkpt lat="38.0793947397285" lon="-3.60098352491597"><ele>343.5</ele><time>2026-04-27T13:32:08Z</time></trkpt><trkpt lat="38.07932102423415" lon="-3.6006649069472156"><ele>340.0</ele><time>2026-04-27T13:32:09Z</time></trkpt><trkpt lat="38.079239500845624" lon="-3.6003589774384963"><ele>338.5</ele><time>2026-04-27T13:32:10Z</time></trkpt><trkpt lat="38.0791491539571" lon="-3.6000553425471433"><ele>337.0</ele><time>2026-04-27T13:32:11Z</time></trkpt><trkpt lat="38.079048527408005" lon="-3.599757757263258"><ele>335.5</ele><time>2026-04-27T13:32:12Z</time></trkpt><trkpt lat="38.078944422610206" lon="-3.5994859383837277"><ele>334.0</ele><time>2026-04-27T13:32:13Z</time></trkpt><trkpt lat="38.07883315138721" lon="-3.599230285713075"><ele>334.0</ele><time>2026-04-27T13:32:14Z</time></trkpt><trkpt lat="38.07871697441829" lon="-3.598992048740477"><ele>334.0</ele><time>2026-04-27T13:32:15Z</time></trkpt><trkpt lat="38.07859795384137" lon="-3.598775284107038"><ele>334.0</ele><time>2026-04-27T13:32:16Z</time></trkpt><trkpt lat="38.07847969336586" lon="-3.5985655106784744"><ele>331.66666666666663</ele><time>2026-04-27T13:32:17Z</time></trkpt><trkpt lat="38.07836676220992" lon="-3.5983619064736656"><ele>329.3333333333333</ele><time>2026-04-27T13:32:18Z</time></trkpt><trkpt lat="38.07825490228784" lon="-3.5981701262219485"><ele>327.0</ele><time>2026-04-27T13:32:19Z</time></trkpt><trkpt lat="38.078145427643165" lon="-3.5979915274059575"><ele>324.6666666666667</ele><time>2026-04-27T13:32:20Z</time></trkpt><trkpt lat="38.07803412112094" lon="-3.5978280946377725"><ele>322.33333333333337</ele><time>2026-04-27T13:32:21Z</time></trkpt><trkpt lat="38.0779269144525" lon="-3.5976836559910694"><ele>320.0</ele><time>2026-04-27T13:32:22Z</time></trkpt><trkpt lat="38.07783924446329" lon="-3.597545907678719"><ele>320.0</ele><time>2026-04-27T13:32:23Z</time></trkpt><trkpt lat="38.07773274094242" lon="-3.597459359314397"><ele>320.0</ele><time>2026-04-27T13:32:24Z</time></trkpt><trkpt lat="38.07762368943388" lon="-3.5973820839706128"><ele>320.0</ele><time>2026-04-27T13:32:25Z</time></trkpt><trkpt lat="38.0775088098003" lon="-3.597357770945167"><ele>320.0</ele><time>2026-04-27T13:32:26Z</time></trkpt><trkpt lat="38.07739873551574" lon="-3.5973532878694976"><ele>319.4</ele><time>2026-04-27T13:32:27Z</time></trkpt><trkpt lat="38.07732053880533" lon="-3.597290240274293"><ele>318.8</ele><time>2026-04-27T13:32:28Z</time></trkpt><trkpt lat="38.077258274228086" lon="-3.597201815202778"><ele>318.2</ele><time>2026-04-27T13:32:29Z</time></trkpt><trkpt lat="38.07721574215099" lon="-3.5970641769232867"><ele>317.6</ele><time>2026-04-27T13:32:30Z</time></trkpt><trkpt lat="38.077175584914144" lon="-3.596898888266945"><ele>317.0</ele><time>2026-04-27T13:32:31Z</time></trkpt><trkpt lat="38.0770979584317" lon="-3.596731437358186"><ele>315.33333333333337</ele><time>2026-04-27T13:32:32Z</time></trkpt><trkpt lat="38.07697332721286" lon="-3.596587258144071"><ele>313.6666666666667</ele><time>2026-04-27T13:32:33Z</time></trkpt><trkpt lat="38.07681817048737" lon="-3.596438244802916"><ele>312.0</ele><time>2026-04-27T13:32:34Z</time></trkpt><trkpt lat="38.076649774269335" lon="-3.596275762572956"><ele>310.0</ele><time>2026-04-27T13:32:35Z</time></trkpt><trkpt lat="38.07647453928609" lon="-3.5960972295605096"><ele>308.0</ele><time>2026-04-27T13:32:35.999Z</time></trkpt><trkpt lat="38.076283794297304" lon="-3.595897263358457"><ele>308.0</ele><time>2026-04-27T13:32:36.999Z</time></trkpt><trkpt lat="38.076075666067894" lon="-3.595692306304833"><ele>308.0</ele><time>2026-04-27T13:32:37.999Z</time></trkpt><trkpt lat="38.0758678063417" lon="-3.595472480648195"><ele>308.0</ele><time>2026-04-27T13:32:38.999Z</time></trkpt><trkpt lat="38.07567608318759" lon="-3.59522613425116"><ele>308.0</ele><time>2026-04-27T13:32:39.999Z</time></trkpt><trkpt lat="38.07547897147436" lon="-3.594967296060314"><ele>308.0</ele><time>2026-04-27T13:32:40.999Z</time></trkpt><trkpt lat="38.075283222588524" lon="-3.5946923521212764"><ele>308.0</ele><time>2026-04-27T13:32:41.999Z</time></trkpt><trkpt lat="38.07510793561712" lon="-3.5944351196817306"><ele>308.5</ele><time>2026-04-27T13:32:42.999Z</time></trkpt><trkpt lat="38.07494851407399" lon="-3.59418717856902"><ele>309.0</ele><time>2026-04-27T13:32:43.999Z</time></trkpt><trkpt lat="38.0748056653557" lon="-3.59394330181123"><ele>309.0</ele><time>2026-04-27T13:32:44.999Z</time></trkpt><trkpt lat="38.07467863695474" lon="-3.593699620983344"><ele>309.0</ele><time>2026-04-27T13:32:45.999Z</time></trkpt><trkpt lat="38.074566677994156" lon="-3.593453569587334"><ele>305.6666666666667</ele><time>2026-04-27T13:32:46.999Z</time></trkpt><trkpt lat="38.07447994192723" lon="-3.593209690239605"><ele>302.33333333333337</ele><time>2026-04-27T13:32:47.999Z</time></trkpt><trkpt lat="38.074405493571156" lon="-3.592944119923359"><ele>299.0</ele><time>2026-04-27T13:32:48.999Z</time></trkpt><trkpt lat="38.074352509522605" lon="-3.5926820455899633"><ele>297.0</ele><time>2026-04-27T13:32:49.999Z</time></trkpt><trkpt lat="38.074314281803744" lon="-3.592417595705922"><ele>295.0</ele><time>2026-04-27T13:32:50.999Z</time></trkpt><trkpt lat="38.07429031796511" lon="-3.592168074607002"><ele>293.0</ele><time>2026-04-27T13:32:51.999Z</time></trkpt><trkpt lat="38.07428422294598" lon="-3.591958274542363"><ele>293.0</ele><time>2026-04-27T13:32:52.999Z</time></trkpt><trkpt lat="38.07428388594359" lon="-3.591792293391628"><ele>293.0</ele><time>2026-04-27T13:32:53.999Z</time></trkpt><trkpt lat="38.07427287981885" lon="-3.591649542150055"><ele>293.0</ele><time>2026-04-27T13:32:54.999Z</time></trkpt><trkpt lat="38.074238462534794" lon="-3.5915412657177552"><ele>293.0</ele><time>2026-04-27T13:32:55.999Z</time></trkpt><trkpt lat="38.07421918781362" lon="-3.5914283265459463"><ele>293.0</ele><time>2026-04-27T13:32:56.999Z</time></trkpt><trkpt lat="38.07411579112476" lon="-3.5913556441193575"><ele>293.0</ele><time>2026-04-27T13:32:57.999Z</time></trkpt><trkpt lat="38.07409556540949" lon="-3.5912645869648907"><ele>293.0</ele><time>2026-04-27T13:32:58.999Z</time></trkpt><trkpt lat="38.074102018436044" lon="-3.5911775987752828"><ele>293.0</ele><time>2026-04-27T13:32:59.999Z</time></trkpt><trkpt lat="38.074122811755444" lon="-3.591072004377607"><ele>293.0</ele><time>2026-04-27T13:33:00.999Z</time></trkpt><trkpt lat="38.07413186274342" lon="-3.59097329187938"><ele>293.0</ele><time>2026-04-27T13:33:01.999Z</time></trkpt><trkpt lat="38.073983285212236" lon="-3.590875822200995"><ele>292.2</ele><time>2026-04-27T13:33:02.999Z</time></trkpt><trkpt lat="38.07390082496792" lon="-3.590795484962829"><ele>291.4</ele><time>2026-04-27T13:33:03.999Z</time></trkpt><trkpt lat="38.073816179587254" lon="-3.5907071116289098"><ele>290.59999999999997</ele><time>2026-04-27T13:33:04.999Z</time></trkpt><trkpt lat="38.073741821100285" lon="-3.590610938403177"><ele>289.8</ele><time>2026-04-27T13:33:05.999Z</time></trkpt><trkpt lat="38.07367936218741" lon="-3.5905150128136185"><ele>289.0</ele><time>2026-04-27T13:33:06.999Z</time></trkpt><trkpt lat="38.07362040311481" lon="-3.5904126827022314"><ele>288.5</ele><time>2026-04-27T13:33:07.999Z</time></trkpt><trkpt lat="38.073558204431315" lon="-3.5902989879464635"><ele>288.0</ele><time>2026-04-27T13:33:08.999Z</time></trkpt><trkpt lat="38.07350198641362" lon="-3.5901749886235246"><ele>287.5</ele><time>2026-04-27T13:33:09.999Z</time></trkpt><trkpt lat="38.07345162428943" lon="-3.5900358439634967"><ele>287.0</ele><time>2026-04-27T13:33:10.999Z</time></trkpt><trkpt lat="38.07340711504297" lon="-3.5898912237650773"><ele>287.0</ele><time>2026-04-27T13:33:11.999Z</time></trkpt><trkpt lat="38.0733734552924" lon="-3.5897532206389138"><ele>287.0</ele><time>2026-04-27T13:33:12.999Z</time></trkpt><trkpt lat="38.073349369546236" lon="-3.5896189546420354"><ele>287.0</ele><time>2026-04-27T13:33:13.999Z</time></trkpt><trkpt lat="38.073324726076656" lon="-3.589484202001621"><ele>287.0</ele><time>2026-04-27T13:33:14.999Z</time></trkpt><trkpt lat="38.07329982549829" lon="-3.5893479225447265"><ele>287.0</ele><time>2026-04-27T13:33:16Z</time></trkpt><trkpt lat="38.07327904517931" lon="-3.5892072136813438"><ele>287.0</ele><time>2026-04-27T13:33:17Z</time></trkpt><trkpt lat="38.07326157298314" lon="-3.589067534734518"><ele>287.0</ele><time>2026-04-27T13:33:18Z</time></trkpt><trkpt lat="38.073247534333234" lon="-3.5889230210193297"><ele>287.0</ele><time>2026-04-27T13:33:19Z</time></trkpt><trkpt lat="38.073228912153404" lon="-3.588774333764187"><ele>287.0</ele><time>2026-04-27T13:33:20Z</time></trkpt><trkpt lat="38.073210710333775" lon="-3.5886337082441755"><ele>286.5</ele><time>2026-04-27T13:33:21Z</time></trkpt><trkpt lat="38.07318584832436" lon="-3.588477529143904"><ele>286.0</ele><time>2026-04-27T13:33:22Z</time></trkpt><trkpt lat="38.073168920838825" lon="-3.5883085382337767"><ele>285.5</ele><time>2026-04-27T13:33:23Z</time></trkpt><trkpt lat="38.07315235922977" lon="-3.5881342254003283"><ele>285.0</ele><time>2026-04-27T13:33:24Z</time></trkpt><trkpt lat="38.07313019847274" lon="-3.5879617062438265"><ele>284.0</ele><time>2026-04-27T13:33:25Z</time></trkpt><trkpt lat="38.07311068972345" lon="-3.5877926238097526"><ele>283.0</ele><time>2026-04-27T13:33:26Z</time></trkpt><trkpt lat="38.07308859375916" lon="-3.587617498247701"><ele>282.0</ele><time>2026-04-27T13:33:27Z</time></trkpt><trkpt lat="38.073064902631515" lon="-3.5874433772779133"><ele>281.0</ele><time>2026-04-27T13:33:28Z</time></trkpt><trkpt lat="38.07304566826365" lon="-3.587274486589234"><ele>281.0</ele><time>2026-04-27T13:33:29Z</time></trkpt><trkpt lat="38.073030483103004" lon="-3.5871080163916167"><ele>281.0</ele><time>2026-04-27T13:33:30Z</time></trkpt><trkpt lat="38.07301501015557" lon="-3.5869532744996597"><ele>281.0</ele><time>2026-04-27T13:33:31Z</time></trkpt><trkpt lat="38.07299637349836" lon="-3.5867967189311947"><ele>281.0</ele><time>2026-04-27T13:33:32Z</time></trkpt><trkpt lat="38.07296560299737" lon="-3.5866303781318614"><ele>280.5</ele><time>2026-04-27T13:33:33Z</time></trkpt><trkpt lat="38.07294346058038" lon="-3.5864627236780544"><ele>280.0</ele><time>2026-04-27T13:33:34Z</time></trkpt><trkpt lat="38.07292197743206" lon="-3.5863042506953944"><ele>279.5</ele><time>2026-04-27T13:33:35Z</time></trkpt><trkpt lat="38.07289887249134" lon="-3.586146602400149"><ele>279.0</ele><time>2026-04-27T13:33:36Z</time></trkpt><trkpt lat="38.072878383604504" lon="-3.5859870254819177"><ele>277.6666666666667</ele><time>2026-04-27T13:33:37Z</time></trkpt><trkpt lat="38.072859726415956" lon="-3.585810865390291"><ele>276.33333333333337</ele><time>2026-04-27T13:33:38Z</time></trkpt><trkpt lat="38.07283623704854" lon="-3.5856121032136468"><ele>275.0</ele><time>2026-04-27T13:33:39Z</time></trkpt><trkpt lat="38.072802795247135" lon="-3.585400392729228"><ele>270.6666666666667</ele><time>2026-04-27T13:33:40Z</time></trkpt><trkpt lat="38.07276837288556" lon="-3.58517797474534"><ele>266.3333333333333</ele><time>2026-04-27T13:33:41Z</time></trkpt><trkpt lat="38.072736682831" lon="-3.584969310812087"><ele>262.0</ele><time>2026-04-27T13:33:42Z</time></trkpt><trkpt lat="38.0727112346211" lon="-3.5847652141538235"><ele>262.0</ele><time>2026-04-27T13:33:43Z</time></trkpt><trkpt lat="38.072684380246244" lon="-3.584559723073869"><ele>262.0</ele><time>2026-04-27T13:33:44Z</time></trkpt><trkpt lat="38.07265717065353" lon="-3.5843551576941493"><ele>262.0</ele><time>2026-04-27T13:33:45Z</time></trkpt><trkpt lat="38.07262756331593" lon="-3.584139564606545"><ele>262.66666666666663</ele><time>2026-04-27T13:33:46Z</time></trkpt><trkpt lat="38.07259970539175" lon="-3.583919957701037"><ele>263.3333333333333</ele><time>2026-04-27T13:33:47Z</time></trkpt><trkpt lat="38.072571370853886" lon="-3.5836926699334097"><ele>264.0</ele><time>2026-04-27T13:33:48Z</time></trkpt><trkpt lat="38.07253971115056" lon="-3.5834510071449435"><ele>264.0</ele><time>2026-04-27T13:33:49Z</time></trkpt><trkpt lat="38.07250622870392" lon="-3.5832041996559303"><ele>264.0</ele><time>2026-04-27T13:33:50Z</time></trkpt><trkpt lat="38.07247281204039" lon="-3.582958661680908"><ele>264.0</ele><time>2026-04-27T13:33:51Z</time></trkpt><trkpt lat="38.07244027647726" lon="-3.5827034203798718"><ele>264.3333333333333</ele><time>2026-04-27T13:33:52Z</time></trkpt><trkpt lat="38.072411177103085" lon="-3.582449874838326"><ele>264.66666666666663</ele><time>2026-04-27T13:33:53Z</time></trkpt><trkpt lat="38.07238126895068" lon="-3.5822079118702663"><ele>265.0</ele><time>2026-04-27T13:33:54Z</time></trkpt><trkpt lat="38.07234110209244" lon="-3.5819904156843596"><ele>267.66666666666663</ele><time>2026-04-27T13:33:55Z</time></trkpt><trkpt lat="38.072304136239296" lon="-3.581780199178178"><ele>270.3333333333333</ele><time>2026-04-27T13:33:56Z</time></trkpt><trkpt lat="38.072265875156695" lon="-3.581566985425731"><ele>273.0</ele><time>2026-04-27T13:33:57Z</time></trkpt><trkpt lat="38.07221300882651" lon="-3.58135238453511"><ele>274.3333333333333</ele><time>2026-04-27T13:33:58Z</time></trkpt><trkpt lat="38.072147042178386" lon="-3.5811341376748196"><ele>275.66666666666663</ele><time>2026-04-27T13:33:59Z</time></trkpt><trkpt lat="38.07207819370565" lon="-3.580922253432246"><ele>277.0</ele><time>2026-04-27T13:34:00Z</time></trkpt><trkpt lat="38.07200704661669" lon="-3.5807262256758694"><ele>277.0</ele><time>2026-04-27T13:34:01Z</time></trkpt><trkpt lat="38.07193458665193" lon="-3.58053041193077"><ele>277.0</ele><time>2026-04-27T13:34:02Z</time></trkpt><trkpt lat="38.07185538380676" lon="-3.580328935283864"><ele>277.0</ele><time>2026-04-27T13:34:03Z</time></trkpt><trkpt lat="38.07177282255975" lon="-3.5801250856612232"><ele>277.0</ele><time>2026-04-27T13:34:04Z</time></trkpt><trkpt lat="38.071687655009214" lon="-3.57991092794341"><ele>277.0</ele><time>2026-04-27T13:34:05Z</time></trkpt><trkpt lat="38.07160391820948" lon="-3.5796976372779645"><ele>277.0</ele><time>2026-04-27T13:34:06Z</time></trkpt><trkpt lat="38.07152162179278" lon="-3.579487525349723"><ele>278.3333333333333</ele><time>2026-04-27T13:34:07Z</time></trkpt><trkpt lat="38.07143554522563" lon="-3.5792682149672417"><ele>279.6666666666667</ele><time>2026-04-27T13:34:08Z</time></trkpt><trkpt lat="38.07134944853012" lon="-3.579045276906659"><ele>281.0</ele><time>2026-04-27T13:34:09Z</time></trkpt><trkpt lat="38.07126611765266" lon="-3.5788231358944578"><ele>281.33333333333337</ele><time>2026-04-27T13:34:10Z</time></trkpt><trkpt lat="38.07117879912655" lon="-3.578600895854081"><ele>281.6666666666667</ele><time>2026-04-27T13:34:11Z</time></trkpt><trkpt lat="38.071095330192954" lon="-3.57837918688187"><ele>282.0</ele><time>2026-04-27T13:34:12Z</time></trkpt><trkpt lat="38.07100833554207" lon="-3.5781574142036865"><ele>282.0</ele><time>2026-04-27T13:34:13Z</time></trkpt><trkpt lat="38.07092409061462" lon="-3.5779345877866664"><ele>282.0</ele><time>2026-04-27T13:34:14Z</time></trkpt><trkpt lat="38.07083659822232" lon="-3.577708462214802"><ele>282.0</ele><time>2026-04-27T13:34:15Z</time></trkpt><trkpt lat="38.070748679468814" lon="-3.577488268556248"><ele>282.0</ele><time>2026-04-27T13:34:16Z</time></trkpt><trkpt lat="38.070664787544246" lon="-3.5772707434954785"><ele>282.0</ele><time>2026-04-27T13:34:17Z</time></trkpt><trkpt lat="38.07058135570514" lon="-3.5770525366941204"><ele>282.0</ele><time>2026-04-27T13:34:18Z</time></trkpt><trkpt lat="38.07049600762267" lon="-3.5768324604777804"><ele>282.0</ele><time>2026-04-27T13:34:19Z</time></trkpt><trkpt lat="38.070409149378754" lon="-3.5766100643158296"><ele>282.0</ele><time>2026-04-27T13:34:20Z</time></trkpt><trkpt lat="38.070323508195855" lon="-3.576385426644597"><ele>282.0</ele><time>2026-04-27T13:34:21Z</time></trkpt><trkpt lat="38.07023796671223" lon="-3.5761641031807976"><ele>283.3333333333333</ele><time>2026-04-27T13:34:22Z</time></trkpt><trkpt lat="38.07015037175178" lon="-3.575938073545836"><ele>284.66666666666663</ele><time>2026-04-27T13:34:23Z</time></trkpt><trkpt lat="38.07006167798607" lon="-3.575713706447431"><ele>286.0</ele><time>2026-04-27T13:34:24Z</time></trkpt><trkpt lat="38.069973414958596" lon="-3.575478985272384"><ele>285.66666666666663</ele><time>2026-04-27T13:34:25Z</time></trkpt><trkpt lat="38.06988452522882" lon="-3.5752430447265864"><ele>285.3333333333333</ele><time>2026-04-27T13:34:26Z</time></trkpt><trkpt lat="38.06979399600709" lon="-3.5750069377449782"><ele>285.0</ele><time>2026-04-27T13:34:27Z</time></trkpt><trkpt lat="38.069703587405066" lon="-3.5747732752907853"><ele>285.0</ele><time>2026-04-27T13:34:28Z</time></trkpt><trkpt lat="38.06959975744788" lon="-3.5745309137547516"><ele>285.0</ele><time>2026-04-27T13:34:29Z</time></trkpt><trkpt lat="38.06951169147396" lon="-3.5742769336597235"><ele>285.0</ele><time>2026-04-27T13:34:30Z</time></trkpt><trkpt lat="38.06941158672385" lon="-3.574015965510576"><ele>289.5</ele><time>2026-04-27T13:34:31Z</time></trkpt><trkpt lat="38.069302640504006" lon="-3.5737384138082553"><ele>294.0</ele><time>2026-04-27T13:34:32Z</time></trkpt><trkpt lat="38.06919737742027" lon="-3.5734584600084154"><ele>296.5</ele><time>2026-04-27T13:34:33Z</time></trkpt><trkpt lat="38.06909418260872" lon="-3.5731824900372997"><ele>299.0</ele><time>2026-04-27T13:34:34Z</time></trkpt><trkpt lat="38.06899039432211" lon="-3.572904818242225"><ele>300.0</ele><time>2026-04-27T13:34:35Z</time></trkpt><trkpt lat="38.068878654967776" lon="-3.572626135413962"><ele>301.0</ele><time>2026-04-27T13:34:36Z</time></trkpt><trkpt lat="38.068776374248294" lon="-3.572355270912968"><ele>301.0</ele><time>2026-04-27T13:34:37Z</time></trkpt><trkpt lat="38.06867343402741" lon="-3.572096309946004"><ele>301.0</ele><time>2026-04-27T13:34:38Z</time></trkpt><trkpt lat="38.068572155389006" lon="-3.5718577686946213"><ele>301.0</ele><time>2026-04-27T13:34:39Z</time></trkpt><trkpt lat="38.06847871481907" lon="-3.571653924612104"><ele>301.3333333333333</ele><time>2026-04-27T13:34:40Z</time></trkpt><trkpt lat="38.0683820220385" lon="-3.5714737499443765"><ele>301.6666666666667</ele><time>2026-04-27T13:34:41Z</time></trkpt><trkpt lat="38.06829121065083" lon="-3.5713158833417555"><ele>302.0</ele><time>2026-04-27T13:34:41.999Z</time></trkpt><trkpt lat="38.06821739789538" lon="-3.5711720998868643"><ele>302.8</ele><time>2026-04-27T13:34:42.999Z</time></trkpt><trkpt lat="38.068160572648004" lon="-3.5710371569043353"><ele>303.6</ele><time>2026-04-27T13:34:43.999Z</time></trkpt><trkpt lat="38.06810586453956" lon="-3.570933155396175"><ele>304.40000000000003</ele><time>2026-04-27T13:34:44.999Z</time></trkpt><trkpt lat="38.06804144653122" lon="-3.5708131143703774"><ele>305.2</ele><time>2026-04-27T13:34:45.999Z</time></trkpt><trkpt lat="38.06796174686699" lon="-3.5707309835119836"><ele>306.0</ele><time>2026-04-27T13:34:46.999Z</time></trkpt><trkpt lat="38.06789102605378" lon="-3.570642661591029"><ele>306.0</ele><time>2026-04-27T13:34:47.999Z</time></trkpt><trkpt lat="38.06785119039563" lon="-3.570517091839661"><ele>306.0</ele><time>2026-04-27T13:34:48.999Z</time></trkpt><trkpt lat="38.067852725011" lon="-3.5703928512981435"><ele>306.0</ele><time>2026-04-27T13:34:49.999Z</time></trkpt><trkpt lat="38.067890014210235" lon="-3.5702803660964393"><ele>306.0</ele><time>2026-04-27T13:34:50.999Z</time></trkpt><trkpt lat="38.06796117693834" lon="-3.570183339212217"><ele>306.0</ele><time>2026-04-27T13:34:51.999Z</time></trkpt><trkpt lat="38.06805680437405" lon="-3.5701255729717016"><ele>305.75</ele><time>2026-04-27T13:34:52.999Z</time></trkpt><trkpt lat="38.06816190229392" lon="-3.5701195528690874"><ele>305.5</ele><time>2026-04-27T13:34:53.999Z</time></trkpt><trkpt lat="38.068265157068524" lon="-3.57011995754988"><ele>305.25</ele><time>2026-04-27T13:34:54.999Z</time></trkpt><trkpt lat="38.068366347167924" lon="-3.570222222008803"><ele>305.0</ele><time>2026-04-27T13:34:55.999Z</time></trkpt><trkpt lat="38.06848733194402" lon="-3.5702447413703604"><ele>305.0</ele><time>2026-04-27T13:34:56.999Z</time></trkpt><trkpt lat="38.06860448509221" lon="-3.570234335937748"><ele>305.0</ele><time>2026-04-27T13:34:57.999Z</time></trkpt><trkpt lat="38.06874340236974" lon="-3.570114017873186"><ele>305.0</ele><time>2026-04-27T13:34:58.999Z</time></trkpt><trkpt lat="38.06893041352389" lon="-3.570027233091654"><ele>309.5</ele><time>2026-04-27T13:34:59.999Z</time></trkpt><trkpt lat="38.06913935455375" lon="-3.5699302714934205"><ele>314.0</ele><time>2026-04-27T13:35:00.999Z</time></trkpt><trkpt lat="38.06938495631057" lon="-3.569838811712717"><ele>314.0</ele><time>2026-04-27T13:35:01.999Z</time></trkpt><trkpt lat="38.06963546387443" lon="-3.56972363746403"><ele>314.0</ele><time>2026-04-27T13:35:02.999Z</time></trkpt><trkpt lat="38.069843669052986" lon="-3.569628915103361"><ele>317.0</ele><time>2026-04-27T13:35:03.999Z</time></trkpt><trkpt lat="38.0700409779805" lon="-3.569538441594586"><ele>320.0</ele><time>2026-04-27T13:35:04.999Z</time></trkpt><trkpt lat="38.070235101969864" lon="-3.5694337198019905"><ele>323.0</ele><time>2026-04-27T13:35:05.999Z</time></trkpt><trkpt lat="38.07044407316957" lon="-3.5693443505259475"><ele>323.5</ele><time>2026-04-27T13:35:06.999Z</time></trkpt><trkpt lat="38.07059428968371" lon="-3.5692835557506277"><ele>324.0</ele><time>2026-04-27T13:35:07.999Z</time></trkpt><trkpt lat="38.07073242648565" lon="-3.5692191042498487"><ele>324.5</ele><time>2026-04-27T13:35:08.999Z</time></trkpt><trkpt lat="38.0708613679065" lon="-3.5691603288287945"><ele>325.0</ele><time>2026-04-27T13:35:09.999Z</time></trkpt><trkpt lat="38.07097965533001" lon="-3.5691024755806233"><ele>326.0</ele><time>2026-04-27T13:35:10.999Z</time></trkpt><trkpt lat="38.071101323138784" lon="-3.569044963357272"><ele>327.0</ele><time>2026-04-27T13:35:11.999Z</time></trkpt><trkpt lat="38.071211593600125" lon="-3.568983916033269"><ele>328.0</ele><time>2026-04-27T13:35:12.999Z</time></trkpt><trkpt lat="38.07129858894211" lon="-3.5689319529875103"><ele>329.0</ele><time>2026-04-27T13:35:13.999Z</time></trkpt><trkpt lat="38.0713640026321" lon="-3.568857111273047"><ele>330.0</ele><time>2026-04-27T13:35:14.999Z</time></trkpt><trkpt lat="38.07141476930155" lon="-3.5687646530198323"><ele>330.4</ele><time>2026-04-27T13:35:15.999Z</time></trkpt><trkpt lat="38.07145393900498" lon="-3.56865312510024"><ele>330.8</ele><time>2026-04-27T13:35:16.999Z</time></trkpt><trkpt lat="38.07152206549696" lon="-3.5685402463533076"><ele>331.20000000000005</ele><time>2026-04-27T13:35:17.999Z</time></trkpt><trkpt lat="38.07160303953293" lon="-3.568474058603267"><ele>331.6</ele><time>2026-04-27T13:35:18.999Z</time></trkpt><trkpt lat="38.071700032781" lon="-3.5684456562610545"><ele>332.0</ele><time>2026-04-27T13:35:19.999Z</time></trkpt><trkpt lat="38.07179602589253" lon="-3.568427124212502"><ele>331.0</ele><time>2026-04-27T13:35:20.999Z</time></trkpt><trkpt lat="38.07183576792116" lon="-3.5682965211277606"><ele>330.0</ele><time>2026-04-27T13:35:22Z</time></trkpt><trkpt lat="38.07184292023526" lon="-3.5681534594640723"><ele>329.0</ele><time>2026-04-27T13:35:23Z</time></trkpt><trkpt lat="38.07185651261671" lon="-3.5679764690366484"><ele>328.0</ele><time>2026-04-27T13:35:24Z</time></trkpt><trkpt lat="38.07181013132746" lon="-3.567781444822676"><ele>327.66666666666663</ele><time>2026-04-27T13:35:25Z</time></trkpt><trkpt lat="38.07172358653614" lon="-3.5675901615012653"><ele>327.3333333333333</ele><time>2026-04-27T13:35:26Z</time></trkpt><trkpt lat="38.07160238212109" lon="-3.567421023546104"><ele>327.0</ele><time>2026-04-27T13:35:27Z</time></trkpt><trkpt lat="38.071440764576565" lon="-3.5672811274762015"><ele>328.0</ele><time>2026-04-27T13:35:28Z</time></trkpt><trkpt lat="38.07125227898796" lon="-3.5671624869519047"><ele>329.0</ele><time>2026-04-27T13:35:29Z</time></trkpt><trkpt lat="38.07105956953652" lon="-3.5670403232889236"><ele>330.0</ele><time>2026-04-27T13:35:30Z</time></trkpt><trkpt lat="38.070882456693624" lon="-3.5668788134291294"><ele>331.6666666666667</ele><time>2026-04-27T13:35:31Z</time></trkpt><trkpt lat="38.070736247511626" lon="-3.566684090687319"><ele>333.33333333333337</ele><time>2026-04-27T13:35:32Z</time></trkpt><trkpt lat="38.070620180105216" lon="-3.566454400309983"><ele>335.0</ele><time>2026-04-27T13:35:33Z</time></trkpt><trkpt lat="38.0705313243916" lon="-3.5662165197469973"><ele>335.33333333333337</ele><time>2026-04-27T13:35:34Z</time></trkpt><trkpt lat="38.07044614873341" lon="-3.565984810702666"><ele>335.6666666666667</ele><time>2026-04-27T13:35:35Z</time></trkpt><trkpt lat="38.07035138200976" lon="-3.5657597991334082"><ele>336.0</ele><time>2026-04-27T13:35:36Z</time></trkpt><trkpt lat="38.070254313255184" lon="-3.5655396117098017"><ele>337.0</ele><time>2026-04-27T13:35:37Z</time></trkpt><trkpt lat="38.070160428634274" lon="-3.56531834974879"><ele>338.0</ele><time>2026-04-27T13:35:38Z</time></trkpt><trkpt lat="38.070071000213254" lon="-3.5650987335244237"><ele>339.0</ele><time>2026-04-27T13:35:39Z</time></trkpt><trkpt lat="38.069978954986134" lon="-3.564892718412507"><ele>339.0</ele><time>2026-04-27T13:35:40Z</time></trkpt><trkpt lat="38.06989569606757" lon="-3.564694352511458"><ele>339.0</ele><time>2026-04-27T13:35:41Z</time></trkpt><trkpt lat="38.069819635489885" lon="-3.5644975054406407"><ele>339.0</ele><time>2026-04-27T13:35:42Z</time></trkpt><trkpt lat="38.06973671699518" lon="-3.5643006672172155"><ele>339.3333333333333</ele><time>2026-04-27T13:35:43Z</time></trkpt><trkpt lat="38.069643494214226" lon="-3.564099702982037"><ele>339.66666666666663</ele><time>2026-04-27T13:35:44Z</time></trkpt><trkpt lat="38.06955330217938" lon="-3.5638924161781445"><ele>340.0</ele><time>2026-04-27T13:35:45Z</time></trkpt><trkpt lat="38.06946309614092" lon="-3.563674420273875"><ele>339.3333333333333</ele><time>2026-04-27T13:35:46Z</time></trkpt><trkpt lat="38.06937237538771" lon="-3.5634528170884865"><ele>338.6666666666667</ele><time>2026-04-27T13:35:47Z</time></trkpt><trkpt lat="38.06927682284194" lon="-3.563228913605525"><ele>338.0</ele><time>2026-04-27T13:35:48Z</time></trkpt><trkpt lat="38.06917783933075" lon="-3.5629943901519923"><ele>335.33333333333337</ele><time>2026-04-27T13:35:49Z</time></trkpt><trkpt lat="38.069082485867064" lon="-3.562761937140567"><ele>332.6666666666667</ele><time>2026-04-27T13:35:50Z</time></trkpt><trkpt lat="38.068984030322916" lon="-3.562529468504165"><ele>330.0</ele><time>2026-04-27T13:35:51Z</time></trkpt><trkpt lat="38.068891083707726" lon="-3.5623102935905875"><ele>330.0</ele><time>2026-04-27T13:35:52Z</time></trkpt><trkpt lat="38.06879884260175" lon="-3.562089366660061"><ele>330.0</ele><time>2026-04-27T13:35:53Z</time></trkpt><trkpt lat="38.06870206966646" lon="-3.5618583248477127"><ele>330.0</ele><time>2026-04-27T13:35:54Z</time></trkpt><trkpt lat="38.06860577474682" lon="-3.5616245644977322"><ele>330.6666666666667</ele><time>2026-04-27T13:35:55Z</time></trkpt><trkpt lat="38.06850306665411" lon="-3.5613871785621702"><ele>331.33333333333337</ele><time>2026-04-27T13:35:56Z</time></trkpt><trkpt lat="38.06840188717863" lon="-3.5611456903052794"><ele>332.0</ele><time>2026-04-27T13:35:57Z</time></trkpt><trkpt lat="38.06829564584509" lon="-3.560888476124845"><ele>331.5</ele><time>2026-04-27T13:35:58Z</time></trkpt><trkpt lat="38.068188799186935" lon="-3.5606326681801073"><ele>331.0</ele><time>2026-04-27T13:35:59Z</time></trkpt><trkpt lat="38.0680797266113" lon="-3.560372772255844"><ele>332.5</ele><time>2026-04-27T13:36:00Z</time></trkpt><trkpt lat="38.067971820095146" lon="-3.560120294137646"><ele>334.0</ele><time>2026-04-27T13:36:01Z</time></trkpt><trkpt lat="38.0678655651836" lon="-3.559870722191089"><ele>334.0</ele><time>2026-04-27T13:36:02Z</time></trkpt><trkpt lat="38.06775500874313" lon="-3.559616871102799"><ele>334.0</ele><time>2026-04-27T13:36:03Z</time></trkpt><trkpt lat="38.06764716478101" lon="-3.5593706399757723"><ele>335.0</ele><time>2026-04-27T13:36:04Z</time></trkpt><trkpt lat="38.06753506390316" lon="-3.559121403402005"><ele>336.0</ele><time>2026-04-27T13:36:05Z</time></trkpt><trkpt lat="38.0674198458093" lon="-3.5588742485186184"><ele>336.5</ele><time>2026-04-27T13:36:06Z</time></trkpt><trkpt lat="38.06730012773925" lon="-3.55862689099083"><ele>337.0</ele><time>2026-04-27T13:36:07Z</time></trkpt><trkpt lat="38.06717665662182" lon="-3.5583742581199993"><ele>337.0</ele><time>2026-04-27T13:36:08Z</time></trkpt><trkpt lat="38.067050413813696" lon="-3.5581219777813864"><ele>337.0</ele><time>2026-04-27T13:36:09Z</time></trkpt><trkpt lat="38.06692759958051" lon="-3.557873260218884"><ele>337.66666666666663</ele><time>2026-04-27T13:36:10Z</time></trkpt><trkpt lat="38.066798355709146" lon="-3.5576436747605196"><ele>338.3333333333333</ele><time>2026-04-27T13:36:11Z</time></trkpt><trkpt lat="38.06666682986168" lon="-3.557419872069724"><ele>339.0</ele><time>2026-04-27T13:36:12Z</time></trkpt><trkpt lat="38.066534225395884" lon="-3.5571989295437887"><ele>339.3333333333333</ele><time>2026-04-27T13:36:13Z</time></trkpt><trkpt lat="38.066393455315264" lon="-3.5569765971573495"><ele>339.66666666666663</ele><time>2026-04-27T13:36:14Z</time></trkpt><trkpt lat="38.06625626425483" lon="-3.5567539287115593"><ele>340.0</ele><time>2026-04-27T13:36:15Z</time></trkpt><trkpt lat="38.066109877318404" lon="-3.5565304942942513"><ele>340.0</ele><time>2026-04-27T13:36:16Z</time></trkpt><trkpt lat="38.065964571463475" lon="-3.556313742953731"><ele>340.0</ele><time>2026-04-27T13:36:17Z</time></trkpt><trkpt lat="38.0658113980565" lon="-3.5561000866510843"><ele>341.5</ele><time>2026-04-27T13:36:18Z</time></trkpt><trkpt lat="38.065651468497485" lon="-3.5558813967027407"><ele>343.0</ele><time>2026-04-27T13:36:19Z</time></trkpt><trkpt lat="38.06549149229855" lon="-3.5556670920864732"><ele>343.0</ele><time>2026-04-27T13:36:20Z</time></trkpt><trkpt lat="38.06532610314414" lon="-3.5554534550440877"><ele>343.0</ele><time>2026-04-27T13:36:21Z</time></trkpt><trkpt lat="38.06515904036529" lon="-3.555247077504059"><ele>343.0</ele><time>2026-04-27T13:36:22Z</time></trkpt><trkpt lat="38.06498542691893" lon="-3.55504193622985"><ele>343.0</ele><time>2026-04-27T13:36:23Z</time></trkpt><trkpt lat="38.06480507888968" lon="-3.5548333453560974"><ele>344.5</ele><time>2026-04-27T13:36:24Z</time></trkpt><trkpt lat="38.06462230560163" lon="-3.55462785160876"><ele>346.0</ele><time>2026-04-27T13:36:25Z</time></trkpt><trkpt lat="38.06443264786007" lon="-3.5544245634216365"><ele>347.5</ele><time>2026-04-27T13:36:26Z</time></trkpt><trkpt lat="38.064244412061434" lon="-3.5542315676296323"><ele>349.0</ele><time>2026-04-27T13:36:27Z</time></trkpt><trkpt lat="38.06406603068572" lon="-3.5540496851538803"><ele>349.0</ele><time>2026-04-27T13:36:28Z</time></trkpt><trkpt lat="38.063879283517544" lon="-3.5538686212168784"><ele>349.0</ele><time>2026-04-27T13:36:29Z</time></trkpt><trkpt lat="38.063695075315536" lon="-3.553695024674036"><ele>351.0</ele><time>2026-04-27T13:36:30Z</time></trkpt><trkpt lat="38.063510204576296" lon="-3.5535281191439188"><ele>353.0</ele><time>2026-04-27T13:36:30.999Z</time></trkpt><trkpt lat="38.06332283437602" lon="-3.5533632151910632"><ele>353.5</ele><time>2026-04-27T13:36:31.999Z</time></trkpt><trkpt lat="38.063129866704486" lon="-3.5532018984478113"><ele>354.0</ele><time>2026-04-27T13:36:32.999Z</time></trkpt><trkpt lat="38.06293793032728" lon="-3.5530445592517963"><ele>354.0</ele><time>2026-04-27T13:36:33.999Z</time></trkpt><trkpt lat="38.06275198562173" lon="-3.5528916776593222"><ele>354.0</ele><time>2026-04-27T13:36:34.999Z</time></trkpt><trkpt lat="38.06256566833738" lon="-3.552742440668826"><ele>354.0</ele><time>2026-04-27T13:36:35.999Z</time></trkpt><trkpt lat="38.06238185178646" lon="-3.5526017788552733"><ele>357.0</ele><time>2026-04-27T13:36:36.999Z</time></trkpt><trkpt lat="38.062201633659875" lon="-3.552456407681779"><ele>360.0</ele><time>2026-04-27T13:36:37.999Z</time></trkpt><trkpt lat="38.06201866819299" lon="-3.552311152271708"><ele>363.0</ele><time>2026-04-27T13:36:38.999Z</time></trkpt><trkpt lat="38.06183936325804" lon="-3.55216306384615"><ele>364.6666666666667</ele><time>2026-04-27T13:36:39.999Z</time></trkpt><trkpt lat="38.06166095254843" lon="-3.55201270664109"><ele>366.33333333333337</ele><time>2026-04-27T13:36:40.999Z</time></trkpt><trkpt lat="38.06148074122904" lon="-3.5518627032129335"><ele>368.0</ele><time>2026-04-27T13:36:41.999Z</time></trkpt><trkpt lat="38.06129971440039" lon="-3.5517049033981007"><ele>368.0</ele><time>2026-04-27T13:36:42.999Z</time></trkpt><trkpt lat="38.061122762103224" lon="-3.551540986986144"><ele>368.0</ele><time>2026-04-27T13:36:43.999Z</time></trkpt><trkpt lat="38.060946779136934" lon="-3.5513712317730293"><ele>368.0</ele><time>2026-04-27T13:36:44.999Z</time></trkpt><trkpt lat="38.06076990229204" lon="-3.5511841660856445"><ele>370.0</ele><time>2026-04-27T13:36:45.999Z</time></trkpt><trkpt lat="38.06059386939881" lon="-3.5510014440389623"><ele>372.0</ele><time>2026-04-27T13:36:46.999Z</time></trkpt><trkpt lat="38.06041773667241" lon="-3.5508078403162746"><ele>372.0</ele><time>2026-04-27T13:36:47.999Z</time></trkpt><trkpt lat="38.060243917444076" lon="-3.550607489754412"><ele>372.0</ele><time>2026-04-27T13:36:48.999Z</time></trkpt><trkpt lat="38.06007082534789" lon="-3.550405201423569"><ele>373.0</ele><time>2026-04-27T13:36:49.999Z</time></trkpt><trkpt lat="38.059899176277355" lon="-3.550193359901603"><ele>374.0</ele><time>2026-04-27T13:36:50.999Z</time></trkpt><trkpt lat="38.0597306062677" lon="-3.549981673341646"><ele>374.0</ele><time>2026-04-27T13:36:51.999Z</time></trkpt><trkpt lat="38.059569540874534" lon="-3.549761823535584"><ele>374.0</ele><time>2026-04-27T13:36:52.999Z</time></trkpt><trkpt lat="38.05940683408028" lon="-3.5495356468505026"><ele>376.0</ele><time>2026-04-27T13:36:53.999Z</time></trkpt><trkpt lat="38.05924925832736" lon="-3.549301449278816"><ele>378.0</ele><time>2026-04-27T13:36:54.999Z</time></trkpt><trkpt lat="38.059096693729444" lon="-3.5490678523236823"><ele>378.0</ele><time>2026-04-27T13:36:55.999Z</time></trkpt><trkpt lat="38.05895142820754" lon="-3.5488228676060243"><ele>378.0</ele><time>2026-04-27T13:36:56.999Z</time></trkpt><trkpt lat="38.05880735213121" lon="-3.5485758070843256"><ele>379.5</ele><time>2026-04-27T13:36:57.999Z</time></trkpt><trkpt lat="38.05866620636705" lon="-3.548331210154128"><ele>381.0</ele><time>2026-04-27T13:36:58.999Z</time></trkpt><trkpt lat="38.058531877564" lon="-3.548085509819351"><ele>383.0</ele><time>2026-04-27T13:36:59.999Z</time></trkpt><trkpt lat="38.058388479104764" lon="-3.547840433937008"><ele>385.0</ele><time>2026-04-27T13:37:00.999Z</time></trkpt><trkpt lat="38.058279272255916" lon="-3.5475740585665823"><ele>385.0</ele><time>2026-04-27T13:37:01.999Z</time></trkpt><trkpt lat="38.05815964532046" lon="-3.5473232018228655"><ele>385.0</ele><time>2026-04-27T13:37:02.999Z</time></trkpt><trkpt lat="38.058045102791326" lon="-3.5470722861668507"><ele>386.5</ele><time>2026-04-27T13:37:03.999Z</time></trkpt><trkpt lat="38.05793647112771" lon="-3.5468186620515123"><ele>388.0</ele><time>2026-04-27T13:37:04.999Z</time></trkpt><trkpt lat="38.057831923293655" lon="-3.54655377241671"><ele>388.0</ele><time>2026-04-27T13:37:05.999Z</time></trkpt><trkpt lat="38.057732374618" lon="-3.5462940835663868"><ele>388.0</ele><time>2026-04-27T13:37:06.999Z</time></trkpt><trkpt lat="38.057635668012466" lon="-3.5460238586849937"><ele>390.0</ele><time>2026-04-27T13:37:07.999Z</time></trkpt><trkpt lat="38.057540448671126" lon="-3.545749965219608"><ele>392.0</ele><time>2026-04-27T13:37:08.999Z</time></trkpt><trkpt lat="38.05744783671603" lon="-3.5454747873659036"><ele>394.0</ele><time>2026-04-27T13:37:09.999Z</time></trkpt><trkpt lat="38.057363220365076" lon="-3.545184351691182"><ele>396.0</ele><time>2026-04-27T13:37:10.999Z</time></trkpt><trkpt lat="38.05727430935153" lon="-3.5449085731479535"><ele>396.0</ele><time>2026-04-27T13:37:11.999Z</time></trkpt><trkpt lat="38.057195633672556" lon="-3.544619370217279"><ele>396.0</ele><time>2026-04-27T13:37:12.999Z</time></trkpt><trkpt lat="38.05711761969232" lon="-3.5443230628707276"><ele>397.5</ele><time>2026-04-27T13:37:13.999Z</time></trkpt><trkpt lat="38.05704104492833" lon="-3.544021421004562"><ele>399.0</ele><time>2026-04-27T13:37:14.999Z</time></trkpt><trkpt lat="38.05696607629556" lon="-3.5437127950692386"><ele>400.0</ele><time>2026-04-27T13:37:15.999Z</time></trkpt><trkpt lat="38.05689197446099" lon="-3.543414540991631"><ele>401.0</ele><time>2026-04-27T13:37:16.999Z</time></trkpt><trkpt lat="38.05682905430815" lon="-3.5430987376068717"><ele>403.0</ele><time>2026-04-27T13:37:17.999Z</time></trkpt><trkpt lat="38.05677133905227" lon="-3.5427870841566107"><ele>405.0</ele><time>2026-04-27T13:37:18.999Z</time></trkpt><trkpt lat="38.05672271165532" lon="-3.54246880424199"><ele>405.0</ele><time>2026-04-27T13:37:19.999Z</time></trkpt><trkpt lat="38.05667684374949" lon="-3.5421461885742453"><ele>405.0</ele><time>2026-04-27T13:37:20.999Z</time></trkpt><trkpt lat="38.05662450868292" lon="-3.541833655223442"><ele>407.5</ele><time>2026-04-27T13:37:21.999Z</time></trkpt><trkpt lat="38.056578982149794" lon="-3.5415213390446225"><ele>410.0</ele><time>2026-04-27T13:37:22.999Z</time></trkpt><trkpt lat="38.05653468866097" lon="-3.5412125638290544"><ele>411.0</ele><time>2026-04-27T13:37:23.999Z</time></trkpt><trkpt lat="38.05649499994285" lon="-3.540890004936476"><ele>412.0</ele><time>2026-04-27T13:37:24.999Z</time></trkpt><trkpt lat="38.05645909912363" lon="-3.5405704348479277"><ele>412.5</ele><time>2026-04-27T13:37:25.999Z</time></trkpt><trkpt lat="38.05642537248097" lon="-3.5402530433247605"><ele>413.0</ele><time>2026-04-27T13:37:26.999Z</time></trkpt><trkpt lat="38.056392057253234" lon="-3.5399315336313366"><ele>413.0</ele><time>2026-04-27T13:37:28Z</time></trkpt><trkpt lat="38.05635638496172" lon="-3.5396134379964685"><ele>413.0</ele><time>2026-04-27T13:37:29Z</time></trkpt><trkpt lat="38.05632130453359" lon="-3.539297201036524"><ele>414.5</ele><time>2026-04-27T13:37:30Z</time></trkpt><trkpt lat="38.05628489182849" lon="-3.5389819049514655"><ele>416.0</ele><time>2026-04-27T13:37:31Z</time></trkpt><trkpt lat="38.05624731626156" lon="-3.538667805463516"><ele>416.5</ele><time>2026-04-27T13:37:32Z</time></trkpt><trkpt lat="38.05621206067073" lon="-3.5383533733715273"><ele>417.0</ele><time>2026-04-27T13:37:33Z</time></trkpt><trkpt lat="38.05617863500862" lon="-3.5380356301167306"><ele>418.5</ele><time>2026-04-27T13:37:34Z</time></trkpt><trkpt lat="38.05614782140085" lon="-3.5377215128490724"><ele>420.0</ele><time>2026-04-27T13:37:35Z</time></trkpt><trkpt lat="38.05611845984408" lon="-3.537402441871897"><ele>420.0</ele><time>2026-04-27T13:37:36Z</time></trkpt><trkpt lat="38.056085310703146" lon="-3.537089143750572"><ele>420.0</ele><time>2026-04-27T13:37:37Z</time></trkpt><trkpt lat="38.0560505910531" lon="-3.536775170517426"><ele>421.0</ele><time>2026-04-27T13:37:38Z</time></trkpt><trkpt lat="38.05601533187922" lon="-3.536460679614577"><ele>422.0</ele><time>2026-04-27T13:37:39Z</time></trkpt><trkpt lat="38.0559822195036" lon="-3.5361436777336945"><ele>423.0</ele><time>2026-04-27T13:37:40Z</time></trkpt><trkpt lat="38.055950603511526" lon="-3.535836096691622"><ele>424.0</ele><time>2026-04-27T13:37:41Z</time></trkpt><trkpt lat="38.05592179569766" lon="-3.535527119141206"><ele>423.0</ele><time>2026-04-27T13:37:42Z</time></trkpt><trkpt lat="38.05589181765007" lon="-3.5352320365841226"><ele>422.0</ele><time>2026-04-27T13:37:43Z</time></trkpt><trkpt lat="38.05586179116619" lon="-3.5349418000038026"><ele>422.0</ele><time>2026-04-27T13:37:44Z</time></trkpt><trkpt lat="38.05583124038411" lon="-3.5346538588426397"><ele>422.0</ele><time>2026-04-27T13:37:45Z</time></trkpt><trkpt lat="38.05579995348499" lon="-3.5343712400206044"><ele>424.3333333333333</ele><time>2026-04-27T13:37:46Z</time></trkpt><trkpt lat="38.055769359852434" lon="-3.534088819870354"><ele>426.66666666666663</ele><time>2026-04-27T13:37:47Z</time></trkpt><trkpt lat="38.055744007976216" lon="-3.5338057458703185"><ele>429.0</ele><time>2026-04-27T13:37:48Z</time></trkpt><trkpt lat="38.05571754631933" lon="-3.533529164517344"><ele>429.0</ele><time>2026-04-27T13:37:49Z</time></trkpt><trkpt lat="38.055690959665355" lon="-3.5332497066323003"><ele>429.0</ele><time>2026-04-27T13:37:50Z</time></trkpt><trkpt lat="38.05566568337963" lon="-3.5329722274162796"><ele>429.0</ele><time>2026-04-27T13:37:51Z</time></trkpt><trkpt lat="38.05564496763718" lon="-3.5326923177101444"><ele>430.0</ele><time>2026-04-27T13:37:52Z</time></trkpt><trkpt lat="38.055622893893336" lon="-3.5324084258642565"><ele>431.0</ele><time>2026-04-27T13:37:53Z</time></trkpt><trkpt lat="38.05560016329864" lon="-3.5321282157110176"><ele>432.0</ele><time>2026-04-27T13:37:54Z</time></trkpt><trkpt lat="38.05558079892729" lon="-3.5318526713285574"><ele>434.0</ele><time>2026-04-27T13:37:55Z</time></trkpt><trkpt lat="38.055565101317896" lon="-3.53156722460755"><ele>436.0</ele><time>2026-04-27T13:37:56Z</time></trkpt><trkpt lat="38.05555189462177" lon="-3.5312918160649622"><ele>438.0</ele><time>2026-04-27T13:37:57Z</time></trkpt><trkpt lat="38.055541304301975" lon="-3.5310092190837996"><ele>441.0</ele><time>2026-04-27T13:37:58Z</time></trkpt><trkpt lat="38.05553251973289" lon="-3.530723077160438"><ele>444.0</ele><time>2026-04-27T13:37:59Z</time></trkpt><trkpt lat="38.0555240704909" lon="-3.530434409874398"><ele>444.5</ele><time>2026-04-27T13:38:00Z</time></trkpt><trkpt lat="38.0555187968064" lon="-3.530143596597084"><ele>445.0</ele><time>2026-04-27T13:38:01Z</time></trkpt><trkpt lat="38.05551424590936" lon="-3.52984596701111"><ele>442.5</ele><time>2026-04-27T13:38:02Z</time></trkpt><trkpt lat="38.05551044068304" lon="-3.529548356697178"><ele>440.0</ele><time>2026-04-27T13:38:03Z</time></trkpt><trkpt lat="38.05550826893524" lon="-3.529242136208862"><ele>440.0</ele><time>2026-04-27T13:38:04Z</time></trkpt><trkpt lat="38.05550633228215" lon="-3.5289387660034053"><ele>440.0</ele><time>2026-04-27T13:38:05Z</time></trkpt><trkpt lat="38.0555081495226" lon="-3.528628211910314"><ele>438.0</ele><time>2026-04-27T13:38:06Z</time></trkpt><trkpt lat="38.0555091701816" lon="-3.5283164285793247"><ele>436.0</ele><time>2026-04-27T13:38:07Z</time></trkpt><trkpt lat="38.05550927270522" lon="-3.528009188334974"><ele>435.0</ele><time>2026-04-27T13:38:08Z</time></trkpt><trkpt lat="38.05551104432778" lon="-3.52769909529349"><ele>434.0</ele><time>2026-04-27T13:38:09Z</time></trkpt><trkpt lat="38.05551527403683" lon="-3.52738774701973"><ele>434.0</ele><time>2026-04-27T13:38:10Z</time></trkpt><trkpt lat="38.055516118630926" lon="-3.5270752009208675"><ele>434.0</ele><time>2026-04-27T13:38:11Z</time></trkpt><trkpt lat="38.05551492680087" lon="-3.5267593963371167"><ele>433.5</ele><time>2026-04-27T13:38:12Z</time></trkpt><trkpt lat="38.05551115756767" lon="-3.5264468223680296"><ele>433.0</ele><time>2026-04-27T13:38:13Z</time></trkpt><trkpt lat="38.055509147208596" lon="-3.526130012861274"><ele>432.5</ele><time>2026-04-27T13:38:14Z</time></trkpt><trkpt lat="38.055506150498445" lon="-3.5258149030688393"><ele>432.0</ele><time>2026-04-27T13:38:15Z</time></trkpt><trkpt lat="38.05550686346943" lon="-3.52549893028912"><ele>433.5</ele><time>2026-04-27T13:38:16Z</time></trkpt><trkpt lat="38.05550698157765" lon="-3.525182485870164"><ele>435.0</ele><time>2026-04-27T13:38:17Z</time></trkpt><trkpt lat="38.05550855956579" lon="-3.5248647989713353"><ele>437.5</ele><time>2026-04-27T13:38:18Z</time></trkpt><trkpt lat="38.0555094729595" lon="-3.5245490054640567"><ele>440.0</ele><time>2026-04-27T13:38:19Z</time></trkpt><trkpt lat="38.05551043165953" lon="-3.5242276539135564"><ele>440.0</ele><time>2026-04-27T13:38:20Z</time></trkpt><trkpt lat="38.0555066436803" lon="-3.5239116074241084"><ele>440.0</ele><time>2026-04-27T13:38:21Z</time></trkpt><trkpt lat="38.05550253872209" lon="-3.523588557136104"><ele>441.0</ele><time>2026-04-27T13:38:22Z</time></trkpt><trkpt lat="38.055499520299584" lon="-3.5232626955302604"><ele>442.0</ele><time>2026-04-27T13:38:23Z</time></trkpt><trkpt lat="38.05550091255664" lon="-3.5229371001924603"><ele>443.0</ele><time>2026-04-27T13:38:24Z</time></trkpt><trkpt lat="38.055500215339684" lon="-3.522609408778138"><ele>444.0</ele><time>2026-04-27T13:38:25Z</time></trkpt><trkpt lat="38.05550109229166" lon="-3.52227949937655"><ele>447.0</ele><time>2026-04-27T13:38:26Z</time></trkpt><trkpt lat="38.055501441063065" lon="-3.5219455431976714"><ele>450.0</ele><time>2026-04-27T13:38:27Z</time></trkpt><trkpt lat="38.055503150543764" lon="-3.5216129989487843"><ele>450.0</ele><time>2026-04-27T13:38:28Z</time></trkpt><trkpt lat="38.055506612025546" lon="-3.521277270191184"><ele>450.0</ele><time>2026-04-27T13:38:29Z</time></trkpt><trkpt lat="38.05550748923596" lon="-3.5209446654525665"><ele>451.0</ele><time>2026-04-27T13:38:30Z</time></trkpt><trkpt lat="38.055507622863225" lon="-3.5206128567399735"><ele>452.0</ele><time>2026-04-27T13:38:31Z</time></trkpt><trkpt lat="38.05550628973082" lon="-3.5202771702376587"><ele>453.0</ele><time>2026-04-27T13:38:32Z</time></trkpt><trkpt lat="38.05550547629135" lon="-3.5199437217281484"><ele>454.0</ele><time>2026-04-27T13:38:33Z</time></trkpt><trkpt lat="38.0555036506902" lon="-3.519609700985724"><ele>454.0</ele><time>2026-04-27T13:38:34Z</time></trkpt><trkpt lat="38.055504551976675" lon="-3.5192787182778162"><ele>454.0</ele><time>2026-04-27T13:38:35Z</time></trkpt><trkpt lat="38.05550501419075" lon="-3.5189444891650554"><ele>456.5</ele><time>2026-04-27T13:38:36Z</time></trkpt><trkpt lat="38.05550437958257" lon="-3.5186158702967587"><ele>459.0</ele><time>2026-04-27T13:38:37Z</time></trkpt><trkpt lat="38.055504802003874" lon="-3.5182908096012238"><ele>459.0</ele><time>2026-04-27T13:38:38Z</time></trkpt><trkpt lat="38.05550375498247" lon="-3.5179619588314237"><ele>459.0</ele><time>2026-04-27T13:38:39Z</time></trkpt><trkpt lat="38.05550234080958" lon="-3.5176453634244162"><ele>461.5</ele><time>2026-04-27T13:38:40Z</time></trkpt><trkpt lat="38.05550233624749" lon="-3.517331539148307"><ele>464.0</ele><time>2026-04-27T13:38:41Z</time></trkpt><trkpt lat="38.05550292943015" lon="-3.5170218753170492"><ele>465.5</ele><time>2026-04-27T13:38:42Z</time></trkpt><trkpt lat="38.05550476827237" lon="-3.5167106335759946"><ele>467.0</ele><time>2026-04-27T13:38:43Z</time></trkpt><trkpt lat="38.055504407687565" lon="-3.5164013096988875"><ele>467.5</ele><time>2026-04-27T13:38:44Z</time></trkpt><trkpt lat="38.055501750514324" lon="-3.5160957880486405"><ele>468.0</ele><time>2026-04-27T13:38:45Z</time></trkpt><trkpt lat="38.05549865484318" lon="-3.515793171046097"><ele>468.0</ele><time>2026-04-27T13:38:46Z</time></trkpt><trkpt lat="38.0554965562936" lon="-3.5154873168520564"><ele>468.0</ele><time>2026-04-27T13:38:47Z</time></trkpt><trkpt lat="38.05549576446694" lon="-3.515189917370321"><ele>468.5</ele><time>2026-04-27T13:38:47.999Z</time></trkpt><trkpt lat="38.055498367744526" lon="-3.5148868251033183"><ele>469.0</ele><time>2026-04-27T13:38:48.999Z</time></trkpt><trkpt lat="38.055497698806725" lon="-3.5145886414038134"><ele>470.0</ele><time>2026-04-27T13:38:49.999Z</time></trkpt><trkpt lat="38.055491191981915" lon="-3.514290257313553"><ele>471.0</ele><time>2026-04-27T13:38:50.999Z</time></trkpt><trkpt lat="38.05547928212867" lon="-3.5139846293424664"><ele>471.0</ele><time>2026-04-27T13:38:51.999Z</time></trkpt><trkpt lat="38.05546914339811" lon="-3.5136796478894907"><ele>471.0</ele><time>2026-04-27T13:38:52.999Z</time></trkpt><trkpt lat="38.05544956959956" lon="-3.513377334193565"><ele>471.0</ele><time>2026-04-27T13:38:53.999Z</time></trkpt><trkpt lat="38.055430397737275" lon="-3.513070693471075"><ele>471.0</ele><time>2026-04-27T13:38:54.999Z</time></trkpt><trkpt lat="38.05540444004623" lon="-3.512768969632138"><ele>471.0</ele><time>2026-04-27T13:38:55.999Z</time></trkpt><trkpt lat="38.05538060255333" lon="-3.5124820972686726"><ele>471.0</ele><time>2026-04-27T13:38:56.999Z</time></trkpt><trkpt lat="38.05535615708501" lon="-3.5122035047368025"><ele>471.0</ele><time>2026-04-27T13:38:57.999Z</time></trkpt><trkpt lat="38.05532691063472" lon="-3.511940516156118"><ele>471.0</ele><time>2026-04-27T13:38:58.999Z</time></trkpt><trkpt lat="38.055293886669375" lon="-3.5116750004949258"><ele>471.0</ele><time>2026-04-27T13:38:59.999Z</time></trkpt><trkpt lat="38.05525912348153" lon="-3.5114099912180534"><ele>471.0</ele><time>2026-04-27T13:39:00.999Z</time></trkpt><trkpt lat="38.05522319323534" lon="-3.511141086957559"><ele>470.33333333333337</ele><time>2026-04-27T13:39:01.999Z</time></trkpt><trkpt lat="38.05518805498057" lon="-3.5108746696464985"><ele>469.6666666666667</ele><time>2026-04-27T13:39:02.999Z</time></trkpt><trkpt lat="38.05514781838608" lon="-3.5106123887755887"><ele>469.0</ele><time>2026-04-27T13:39:03.999Z</time></trkpt><trkpt lat="38.05510418297635" lon="-3.5103501386499913"><ele>468.6666666666667</ele><time>2026-04-27T13:39:04.999Z</time></trkpt><trkpt lat="38.05505824110314" lon="-3.510097152440522"><ele>468.33333333333337</ele><time>2026-04-27T13:39:05.999Z</time></trkpt><trkpt lat="38.05501047806419" lon="-3.5098452921307324"><ele>468.0</ele><time>2026-04-27T13:39:06.999Z</time></trkpt><trkpt lat="38.054962101998186" lon="-3.5096032228593383"><ele>471.66666666666663</ele><time>2026-04-27T13:39:07.999Z</time></trkpt><trkpt lat="38.054909535713406" lon="-3.5093533113510933"><ele>475.3333333333333</ele><time>2026-04-27T13:39:08.999Z</time></trkpt><trkpt lat="38.05485391906582" lon="-3.5091057216470305"><ele>479.0</ele><time>2026-04-27T13:39:09.999Z</time></trkpt><trkpt lat="38.05480261938543" lon="-3.5088614457255436"><ele>477.66666666666663</ele><time>2026-04-27T13:39:10.999Z</time></trkpt><trkpt lat="38.05474527040673" lon="-3.5086130622216274"><ele>476.33333333333337</ele><time>2026-04-27T13:39:11.999Z</time></trkpt><trkpt lat="38.05468728674358" lon="-3.5083628166292975"><ele>475.0</ele><time>2026-04-27T13:39:12.999Z</time></trkpt><trkpt lat="38.054625216809264" lon="-3.5081118036606274"><ele>473.33333333333337</ele><time>2026-04-27T13:39:13.999Z</time></trkpt><trkpt lat="38.05456275545473" lon="-3.5078595017266556"><ele>471.66666666666663</ele><time>2026-04-27T13:39:14.999Z</time></trkpt><trkpt lat="38.054496037735234" lon="-3.5076071850713735"><ele>470.0</ele><time>2026-04-27T13:39:15.999Z</time></trkpt><trkpt lat="38.05442485671594" lon="-3.5073589235231144"><ele>470.0</ele><time>2026-04-27T13:39:16.999Z</time></trkpt><trkpt lat="38.05434999723016" lon="-3.507121894025402"><ele>470.0</ele><time>2026-04-27T13:39:17.999Z</time></trkpt><trkpt lat="38.054281589864274" lon="-3.506901745272743"><ele>470.0</ele><time>2026-04-27T13:39:18.999Z</time></trkpt><trkpt lat="38.05421716932916" lon="-3.5066948942022202"><ele>469.0</ele><time>2026-04-27T13:39:19.999Z</time></trkpt><trkpt lat="38.05415436461793" lon="-3.50649608452905"><ele>468.0</ele><time>2026-04-27T13:39:20.999Z</time></trkpt><trkpt lat="38.054095588831856" lon="-3.5063167632458323"><ele>467.0</ele><time>2026-04-27T13:39:21.999Z</time></trkpt><trkpt lat="38.05403754271662" lon="-3.506143989694862"><ele>466.75</ele><time>2026-04-27T13:39:22.999Z</time></trkpt><trkpt lat="38.05398977775157" lon="-3.5059879535452683"><ele>466.5</ele><time>2026-04-27T13:39:23.999Z</time></trkpt><trkpt lat="38.05395382075529" lon="-3.505825824576721"><ele>466.25</ele><time>2026-04-27T13:39:24.999Z</time></trkpt><trkpt lat="38.053927688025404" lon="-3.5056648226367684"><ele>466.0</ele><time>2026-04-27T13:39:25.999Z</time></trkpt><trkpt lat="38.053909425215394" lon="-3.505501169136105"><ele>465.25</ele><time>2026-04-27T13:39:26.999Z</time></trkpt><trkpt lat="38.05390984591985" lon="-3.5053358663000362"><ele>464.5</ele><time>2026-04-27T13:39:27.999Z</time></trkpt><trkpt lat="38.053910839372804" lon="-3.5051727045066574"><ele>463.75</ele><time>2026-04-27T13:39:28.999Z</time></trkpt><trkpt lat="38.05392201488599" lon="-3.5050165566323224"><ele>463.0</ele><time>2026-04-27T13:39:29.999Z</time></trkpt><trkpt lat="38.05393487587446" lon="-3.5048675631285966"><ele>463.0</ele><time>2026-04-27T13:39:30.999Z</time></trkpt><trkpt lat="38.05395261170232" lon="-3.5047273889929147"><ele>462.99999999999994</ele><time>2026-04-27T13:39:31.999Z</time></trkpt><trkpt lat="38.05396138368565" lon="-3.5045870949930067"><ele>462.99999999999994</ele><time>2026-04-27T13:39:32.999Z</time></trkpt><trkpt lat="38.05396095709766" lon="-3.5044540868949263"><ele>463.0</ele><time>2026-04-27T13:39:34Z</time></trkpt><trkpt lat="38.05394889360686" lon="-3.5043430033159906"><ele>463.0</ele><time>2026-04-27T13:39:35Z</time></trkpt><trkpt lat="38.053927456245276" lon="-3.5042433134483453"><ele>462.71428571428567</ele><time>2026-04-27T13:39:36Z</time></trkpt><trkpt lat="38.05389697834098" lon="-3.504159865677971"><ele>462.4285714285714</ele><time>2026-04-27T13:39:37Z</time></trkpt><trkpt lat="38.05385745717374" lon="-3.5040923315435637"><ele>462.1428571428571</ele><time>2026-04-27T13:39:38Z</time></trkpt><trkpt lat="38.05379757770742" lon="-3.5040614491344417"><ele>461.8571428571429</ele><time>2026-04-27T13:39:39Z</time></trkpt><trkpt lat="38.05373058042198" lon="-3.5040682034014985"><ele>461.5714285714286</ele><time>2026-04-27T13:39:40Z</time></trkpt><trkpt lat="38.05366018843479" lon="-3.5040931046856025"><ele>461.28571428571433</ele><time>2026-04-27T13:39:41Z</time></trkpt><trkpt lat="38.053585489566075" lon="-3.50410905953677"><ele>461.0</ele><time>2026-04-27T13:39:42Z</time></trkpt><trkpt lat="38.0535123131176" lon="-3.5040932217525973"><ele>460.99999999999994</ele><time>2026-04-27T13:39:43Z</time></trkpt><trkpt lat="38.05345011092692" lon="-3.5040421786240223"><ele>461.0</ele><time>2026-04-27T13:39:44Z</time></trkpt><trkpt lat="38.05339984862847" lon="-3.5039595031766497"><ele>461.0</ele><time>2026-04-27T13:39:45Z</time></trkpt><trkpt lat="38.05338303393403" lon="-3.5038611179384787"><ele>461.0</ele><time>2026-04-27T13:39:46Z</time></trkpt><trkpt lat="38.053410557922554" lon="-3.5037656341575474"><ele>460.99999999999994</ele><time>2026-04-27T13:39:47Z</time></trkpt><trkpt lat="38.05348579860816" lon="-3.5036837997354784"><ele>461.0</ele><time>2026-04-27T13:39:48Z</time></trkpt><trkpt lat="38.05355779338866" lon="-3.5036072848686293"><ele>460.20000000000005</ele><time>2026-04-27T13:39:49Z</time></trkpt><trkpt lat="38.05360900357574" lon="-3.5035054779426433"><ele>459.40000000000003</ele><time>2026-04-27T13:39:50Z</time></trkpt><trkpt lat="38.053621886473806" lon="-3.5033986748788957"><ele>458.6</ele><time>2026-04-27T13:39:51Z</time></trkpt><trkpt lat="38.05359103616011" lon="-3.5032863718468894"><ele>457.8</ele><time>2026-04-27T13:39:52Z</time></trkpt><trkpt lat="38.05352945085255" lon="-3.5031870817754966"><ele>457.0</ele><time>2026-04-27T13:39:53Z</time></trkpt><trkpt lat="38.053437352446174" lon="-3.5030895524552794"><ele>457.0</ele><time>2026-04-27T13:39:54Z</time></trkpt><trkpt lat="38.0533302161287" lon="-3.502997419164121"><ele>457.0</ele><time>2026-04-27T13:39:55Z</time></trkpt><trkpt lat="38.053210429904794" lon="-3.5029039405650515"><ele>457.0</ele><time>2026-04-27T13:39:56Z</time></trkpt><trkpt lat="38.05308332853197" lon="-3.502795389697601"><ele>457.0</ele><time>2026-04-27T13:39:57Z</time></trkpt><trkpt lat="38.0529533438479" lon="-3.5026643305114216"><ele>458.33333333333337</ele><time>2026-04-27T13:39:58Z</time></trkpt><trkpt lat="38.05283211462607" lon="-3.502510693728037"><ele>459.66666666666663</ele><time>2026-04-27T13:39:59Z</time></trkpt><trkpt lat="38.05272422571294" lon="-3.502336079066391"><ele>461.0</ele><time>2026-04-27T13:40:00Z</time></trkpt><trkpt lat="38.05262867383522" lon="-3.502143742390092"><ele>460.3333333333333</ele><time>2026-04-27T13:40:01Z</time></trkpt><trkpt lat="38.05254508262033" lon="-3.5019305303378645"><ele>459.66666666666663</ele><time>2026-04-27T13:40:02Z</time></trkpt><trkpt lat="38.052462943434215" lon="-3.501701463220623"><ele>459.0</ele><time>2026-04-27T13:40:03Z</time></trkpt><trkpt lat="38.052382192889105" lon="-3.501468533676698"><ele>461.33333333333337</ele><time>2026-04-27T13:40:04Z</time></trkpt><trkpt lat="38.05230656640285" lon="-3.5012281939799665"><ele>463.6666666666667</ele><time>2026-04-27T13:40:05Z</time></trkpt><trkpt lat="38.05223789164323" lon="-3.500981132012078"><ele>466.0</ele><time>2026-04-27T13:40:06Z</time></trkpt><trkpt lat="38.05217199614108" lon="-3.5007302024282514"><ele>466.0</ele><time>2026-04-27T13:40:07Z</time></trkpt><trkpt lat="38.05211005215966" lon="-3.5004766799714493"><ele>466.0</ele><time>2026-04-27T13:40:08Z</time></trkpt><trkpt lat="38.05205793558287" lon="-3.50022260096618"><ele>466.0</ele><time>2026-04-27T13:40:09Z</time></trkpt><trkpt lat="38.05201349411998" lon="-3.499967745532549"><ele>466.33333333333337</ele><time>2026-04-27T13:40:10Z</time></trkpt><trkpt lat="38.051972987899646" lon="-3.4997118811353705"><ele>466.66666666666663</ele><time>2026-04-27T13:40:11Z</time></trkpt><trkpt lat="38.0519342744186" lon="-3.4994521274331007"><ele>467.0</ele><time>2026-04-27T13:40:12Z</time></trkpt><trkpt lat="38.05189777763982" lon="-3.49919309939778"><ele>467.0</ele><time>2026-04-27T13:40:13Z</time></trkpt><trkpt lat="38.05186244705174" lon="-3.4989390557982922"><ele>467.0</ele><time>2026-04-27T13:40:14Z</time></trkpt><trkpt lat="38.051821088175714" lon="-3.4986773596899905"><ele>467.0</ele><time>2026-04-27T13:40:15Z</time></trkpt><trkpt lat="38.0517791316856" lon="-3.4984165494944697"><ele>465.66666666666663</ele><time>2026-04-27T13:40:16Z</time></trkpt><trkpt lat="38.051731917191965" lon="-3.498163522730321"><ele>464.33333333333337</ele><time>2026-04-27T13:40:17Z</time></trkpt><trkpt lat="38.05167685944296" lon="-3.4979329230134395"><ele>463.0</ele><time>2026-04-27T13:40:18Z</time></trkpt><trkpt lat="38.051612290612155" lon="-3.4977185578593657"><ele>464.33333333333337</ele><time>2026-04-27T13:40:19Z</time></trkpt><trkpt lat="38.05154342795977" lon="-3.4975024302958806"><ele>465.66666666666663</ele><time>2026-04-27T13:40:20Z</time></trkpt><trkpt lat="38.051473768425694" lon="-3.497285039859683"><ele>467.0</ele><time>2026-04-27T13:40:21Z</time></trkpt><trkpt lat="38.05139655482259" lon="-3.497065609027179"><ele>467.0</ele><time>2026-04-27T13:40:22Z</time></trkpt><trkpt lat="38.051315438514415" lon="-3.496852075930462"><ele>467.0</ele><time>2026-04-27T13:40:23Z</time></trkpt><trkpt lat="38.05123201118776" lon="-3.496650648558927"><ele>467.0</ele><time>2026-04-27T13:40:24Z</time></trkpt><trkpt lat="38.05114344741337" lon="-3.496445982471748"><ele>465.66666666666663</ele><time>2026-04-27T13:40:25Z</time></trkpt><trkpt lat="38.05104383489017" lon="-3.4962464408517535"><ele>464.33333333333337</ele><time>2026-04-27T13:40:26Z</time></trkpt><trkpt lat="38.05094161198491" lon="-3.4960597523241166"><ele>463.0</ele><time>2026-04-27T13:40:27Z</time></trkpt><trkpt lat="38.05083330822541" lon="-3.4958711430386598"><ele>464.6666666666667</ele><time>2026-04-27T13:40:28Z</time></trkpt><trkpt lat="38.05072872120848" lon="-3.4956905060179433"><ele>466.33333333333337</ele><time>2026-04-27T13:40:29Z</time></trkpt><trkpt lat="38.0506199492339" lon="-3.4955186402330316"><ele>468.0</ele><time>2026-04-27T13:40:30Z</time></trkpt><trkpt lat="38.050511538931914" lon="-3.4953548318297956"><ele>468.0</ele><time>2026-04-27T13:40:31Z</time></trkpt><trkpt lat="38.05040958686447" lon="-3.4952082856676228"><ele>468.0</ele><time>2026-04-27T13:40:32Z</time></trkpt><trkpt lat="38.05031215151284" lon="-3.4950738261023946"><ele>468.0</ele><time>2026-04-27T13:40:33Z</time></trkpt><trkpt lat="38.050226587744966" lon="-3.4949529607170833"><ele>468.0</ele><time>2026-04-27T13:40:34Z</time></trkpt><trkpt lat="38.050145169530296" lon="-3.494837128680958"><ele>468.0</ele><time>2026-04-27T13:40:35Z</time></trkpt><trkpt lat="38.05006616154148" lon="-3.4947295972304393"><ele>467.99999999999994</ele><time>2026-04-27T13:40:36Z</time></trkpt><trkpt lat="38.04999398127695" lon="-3.4946242228421402"><ele>467.99999999999994</ele><time>2026-04-27T13:40:37Z</time></trkpt><trkpt lat="38.04992074862419" lon="-3.4945207243726997"><ele>468.0</ele><time>2026-04-27T13:40:38Z</time></trkpt><trkpt lat="38.04985534091085" lon="-3.494424320081595"><ele>468.0</ele><time>2026-04-27T13:40:39Z</time></trkpt><trkpt lat="38.04980557066481" lon="-3.4943561106359975"><ele>469.5</ele><time>2026-04-27T13:40:40Z</time></trkpt><trkpt lat="38.049754518700354" lon="-3.494281238306403"><ele>471.0</ele><time>2026-04-27T13:40:41Z</time></trkpt><trkpt lat="38.04970942996232" lon="-3.494217975712138"><ele>472.5</ele><time>2026-04-27T13:40:42Z</time></trkpt><trkpt lat="38.049639303868105" lon="-3.4941258952074916"><ele>474.0</ele><time>2026-04-27T13:40:44Z</time></trkpt><trkpt lat="38.04958353948689" lon="-3.494052177835557"><ele>475.5</ele><time>2026-04-27T13:40:46Z</time></trkpt><trkpt lat="38.04952988740901" lon="-3.4939645876006846"><ele>477.0</ele><time>2026-04-27T13:40:49Z</time></trkpt><trkpt lat="38.04947755180601" lon="-3.493898446354859"><ele>477.0</ele><time>2026-04-27T13:40:52Z</time></trkpt><trkpt lat="38.04941832213656" lon="-3.493835026510164"><ele>477.00000000000006</ele><time>2026-04-27T13:40:55Z</time></trkpt><trkpt lat="38.04938371726236" lon="-3.4937470945309093"><ele>477.00000000000006</ele><time>2026-04-27T13:42:15Z</time></trkpt><trkpt lat="38.04950447596285" lon="-3.493896010273435"><ele>477.0</ele><time>2026-04-27T13:42:19Z</time></trkpt><trkpt lat="38.04960671438699" lon="-3.493974751189352"><ele>477.0</ele><time>2026-04-27T13:42:20Z</time></trkpt><trkpt lat="38.04968036498461" lon="-3.4940844639441475"><ele>477.0</ele><time>2026-04-27T13:42:21Z</time></trkpt><trkpt lat="38.04976566787427" lon="-3.4942144422921624"><ele>477.0</ele><time>2026-04-27T13:42:22Z</time></trkpt><trkpt lat="38.049870549791336" lon="-3.4943671370964213"><ele>477.0</ele><time>2026-04-27T13:42:23Z</time></trkpt><trkpt lat="38.04998652738849" lon="-3.4945327222545894"><ele>474.0</ele><time>2026-04-27T13:42:24Z</time></trkpt><trkpt lat="38.05011656720781" lon="-3.49471388162605"><ele>471.0</ele><time>2026-04-27T13:42:25Z</time></trkpt><trkpt lat="38.050258784553904" lon="-3.4949125797938616"><ele>468.0</ele><time>2026-04-27T13:42:26Z</time></trkpt><trkpt lat="38.05040147754042" lon="-3.495113437561607"><ele>468.0</ele><time>2026-04-27T13:42:27Z</time></trkpt><trkpt lat="38.05054766598942" lon="-3.4953282410577935"><ele>468.0</ele><time>2026-04-27T13:42:28Z</time></trkpt><trkpt lat="38.050693972564225" lon="-3.495547824501354"><ele>465.5</ele><time>2026-04-27T13:42:29Z</time></trkpt><trkpt lat="38.05083922176574" lon="-3.495781044863108"><ele>463.0</ele><time>2026-04-27T13:42:30Z</time></trkpt><trkpt lat="38.05098241230091" lon="-3.4960239268973736"><ele>465.0</ele><time>2026-04-27T13:42:31Z</time></trkpt><trkpt lat="38.05111924005639" lon="-3.496280463365456"><ele>467.0</ele><time>2026-04-27T13:42:32Z</time></trkpt><trkpt lat="38.05124465481994" lon="-3.4965437422362657"><ele>467.0</ele><time>2026-04-27T13:42:33Z</time></trkpt><trkpt lat="38.051355168164505" lon="-3.4968170370484395"><ele>467.0</ele><time>2026-04-27T13:42:34Z</time></trkpt><trkpt lat="38.051459158410744" lon="-3.4971030120519417"><ele>469.5</ele><time>2026-04-27T13:42:35Z</time></trkpt><trkpt lat="38.05155722055722" lon="-3.497393603762494"><ele>472.0</ele><time>2026-04-27T13:42:36Z</time></trkpt><trkpt lat="38.05164565098483" lon="-3.49768572690953"><ele>467.5</ele><time>2026-04-27T13:42:37Z</time></trkpt><trkpt lat="38.05172817396342" lon="-3.497990461949844"><ele>463.0</ele><time>2026-04-27T13:42:38Z</time></trkpt><trkpt lat="38.051798593921234" lon="-3.498298499640453"><ele>463.0</ele><time>2026-04-27T13:42:39Z</time></trkpt><trkpt lat="38.05185947518317" lon="-3.498610411398412"><ele>463.0</ele><time>2026-04-27T13:42:40Z</time></trkpt><trkpt lat="38.05190773948976" lon="-3.498919556018719"><ele>465.0</ele><time>2026-04-27T13:42:41Z</time></trkpt><trkpt lat="38.051950061443975" lon="-3.4992283081387416"><ele>467.0</ele><time>2026-04-27T13:42:42Z</time></trkpt><trkpt lat="38.051987814155844" lon="-3.4995242721214153"><ele>467.0</ele><time>2026-04-27T13:42:43Z</time></trkpt><trkpt lat="38.052026726548945" lon="-3.499814792852876"><ele>467.0</ele><time>2026-04-27T13:42:44Z</time></trkpt><trkpt lat="38.05206850811663" lon="-3.5000815716772724"><ele>467.0</ele><time>2026-04-27T13:42:45Z</time></trkpt><trkpt lat="38.05211287817883" lon="-3.5003255055945615"><ele>466.66666666666663</ele><time>2026-04-27T13:42:46Z</time></trkpt><trkpt lat="38.0521632792498" lon="-3.5005478811863227"><ele>466.33333333333337</ele><time>2026-04-27T13:42:47Z</time></trkpt><trkpt lat="38.05221347761341" lon="-3.500747692814545"><ele>466.0</ele><time>2026-04-27T13:42:48Z</time></trkpt><trkpt lat="38.05226338918146" lon="-3.5009327408569235"><ele>466.0</ele><time>2026-04-27T13:42:49Z</time></trkpt><trkpt lat="38.052311454089256" lon="-3.501098622711463"><ele>466.0</ele><time>2026-04-27T13:42:50Z</time></trkpt><trkpt lat="38.05235737061417" lon="-3.501252960894843"><ele>466.0</ele><time>2026-04-27T13:42:50.999Z</time></trkpt><trkpt lat="38.052402435795635" lon="-3.5013945563790227"><ele>466.0</ele><time>2026-04-27T13:42:51.999Z</time></trkpt><trkpt lat="38.05244677741316" lon="-3.501512158000648"><ele>466.6</ele><time>2026-04-27T13:42:52.999Z</time></trkpt><trkpt lat="38.05248577204847" lon="-3.501606842454891"><ele>467.20000000000005</ele><time>2026-04-27T13:42:53.999Z</time></trkpt><trkpt lat="38.052529658323024" lon="-3.501719410828228"><ele>467.79999999999995</ele><time>2026-04-27T13:42:55.999Z</time></trkpt><trkpt lat="38.052439168807446" lon="-3.5016903903668912"><ele>468.4</ele><time>2026-04-27T13:43:01.999Z</time></trkpt><trkpt lat="38.0524149056142" lon="-3.5015681646148398"><ele>469.0</ele><time>2026-04-27T13:46:59Z</time></trkpt><trkpt lat="38.052373242984146" lon="-3.501432261306883"><ele>469.00000000000006</ele><time>2026-04-27T13:47:01Z</time></trkpt><trkpt lat="38.05234367133482" lon="-3.5013403224828816"><ele>469.0</ele><time>2026-04-27T13:47:02Z</time></trkpt><trkpt lat="38.05231285603336" lon="-3.501244334543873"><ele>469.0</ele><time>2026-04-27T13:47:03Z</time></trkpt><trkpt lat="38.05228056507671" lon="-3.501135771991802"><ele>469.0</ele><time>2026-04-27T13:47:04Z</time></trkpt><trkpt lat="38.05224885985237" lon="-3.501028073145937"><ele>469.00000000000006</ele><time>2026-04-27T13:47:05Z</time></trkpt><trkpt lat="38.05221609923471" lon="-3.5009144374533605"><ele>469.0</ele><time>2026-04-27T13:47:06Z</time></trkpt><trkpt lat="38.05218750321404" lon="-3.5007977109863346"><ele>468.6</ele><time>2026-04-27T13:47:07Z</time></trkpt><trkpt lat="38.05215443214192" lon="-3.5006731641092017"><ele>468.2</ele><time>2026-04-27T13:47:08Z</time></trkpt><trkpt lat="38.05212554394105" lon="-3.50054760459491"><ele>467.80000000000007</ele><time>2026-04-27T13:47:09Z</time></trkpt><trkpt lat="38.052099206066096" lon="-3.500428522622931"><ele>467.40000000000003</ele><time>2026-04-27T13:47:10Z</time></trkpt><trkpt lat="38.052072014850744" lon="-3.5003045163080593"><ele>467.0</ele><time>2026-04-27T13:47:11Z</time></trkpt><trkpt lat="38.0520464632303" lon="-3.5001742887341973"><ele>467.0</ele><time>2026-04-27T13:47:12Z</time></trkpt><trkpt lat="38.05202236548655" lon="-3.500037207935389"><ele>467.0</ele><time>2026-04-27T13:47:13Z</time></trkpt><trkpt lat="38.051998000060266" lon="-3.499894553801251"><ele>467.0</ele><time>2026-04-27T13:47:14Z</time></trkpt><trkpt lat="38.05197459074091" lon="-3.499741099007101"><ele>467.0</ele><time>2026-04-27T13:47:15Z</time></trkpt><trkpt lat="38.05195014790401" lon="-3.4995796010123694"><ele>467.0</ele><time>2026-04-27T13:47:16Z</time></trkpt><trkpt lat="38.05192649466216" lon="-3.4994223190384406"><ele>467.0</ele><time>2026-04-27T13:47:17Z</time></trkpt><trkpt lat="38.051902923441126" lon="-3.4992626862617557"><ele>467.0</ele><time>2026-04-27T13:47:18Z</time></trkpt><trkpt lat="38.051879854011204" lon="-3.4990991692949907"><ele>467.0</ele><time>2026-04-27T13:47:19Z</time></trkpt><trkpt lat="38.051854190000746" lon="-3.4989254609083775"><ele>466.0</ele><time>2026-04-27T13:47:20Z</time></trkpt><trkpt lat="38.05182514283625" lon="-3.498746357321431"><ele>465.0</ele><time>2026-04-27T13:47:21Z</time></trkpt><trkpt lat="38.05179222170828" lon="-3.498564624130203"><ele>464.0</ele><time>2026-04-27T13:47:22Z</time></trkpt><trkpt lat="38.051764546757965" lon="-3.498376570424298"><ele>463.0</ele><time>2026-04-27T13:47:23Z</time></trkpt><trkpt lat="38.051729641075056" lon="-3.4981837801556126"><ele>463.0</ele><time>2026-04-27T13:47:24Z</time></trkpt><trkpt lat="38.05168554520948" lon="-3.4979851981313184"><ele>463.0</ele><time>2026-04-27T13:47:25Z</time></trkpt><trkpt lat="38.051631453876155" lon="-3.4977845213548115"><ele>463.0</ele><time>2026-04-27T13:47:26Z</time></trkpt><trkpt lat="38.05156646531818" lon="-3.4975811170959696"><ele>464.33333333333337</ele><time>2026-04-27T13:47:27Z</time></trkpt><trkpt lat="38.051498621169856" lon="-3.4973759605227643"><ele>465.66666666666663</ele><time>2026-04-27T13:47:28Z</time></trkpt><trkpt lat="38.05142512579116" lon="-3.4971635824066207"><ele>467.0</ele><time>2026-04-27T13:47:29Z</time></trkpt><trkpt lat="38.05134717995078" lon="-3.496953946509809"><ele>467.0</ele><time>2026-04-27T13:47:30Z</time></trkpt><trkpt lat="38.05126365107765" lon="-3.4967430642280073"><ele>467.0</ele><time>2026-04-27T13:47:31Z</time></trkpt><trkpt lat="38.05116842673344" lon="-3.4965246557745915"><ele>467.0</ele><time>2026-04-27T13:47:32Z</time></trkpt><trkpt lat="38.05106758468233" lon="-3.4963108211255958"><ele>465.66666666666663</ele><time>2026-04-27T13:47:33Z</time></trkpt><trkpt lat="38.05095748360918" lon="-3.496098152392472"><ele>464.33333333333337</ele><time>2026-04-27T13:47:34Z</time></trkpt><trkpt lat="38.05084034922715" lon="-3.4958808333835654"><ele>463.0</ele><time>2026-04-27T13:47:35Z</time></trkpt><trkpt lat="38.050715030902616" lon="-3.4956678410808215"><ele>464.6666666666667</ele><time>2026-04-27T13:47:36Z</time></trkpt><trkpt lat="38.05058074406121" lon="-3.495458305155647"><ele>466.33333333333337</ele><time>2026-04-27T13:47:37Z</time></trkpt><trkpt lat="38.050443608128994" lon="-3.495254136056355"><ele>468.0</ele><time>2026-04-27T13:47:38Z</time></trkpt><trkpt lat="38.05030264874518" lon="-3.4950507931326937"><ele>468.0</ele><time>2026-04-27T13:47:39Z</time></trkpt><trkpt lat="38.05016568337238" lon="-3.49485126115805"><ele>468.0</ele><time>2026-04-27T13:47:40Z</time></trkpt><trkpt lat="38.050028280221014" lon="-3.494649653633389"><ele>468.0</ele><time>2026-04-27T13:47:41Z</time></trkpt><trkpt lat="38.04989125023382" lon="-3.494452229056759"><ele>471.0</ele><time>2026-04-27T13:47:42Z</time></trkpt><trkpt lat="38.049752820137336" lon="-3.4942535117515168"><ele>474.0</ele><time>2026-04-27T13:47:43Z</time></trkpt><trkpt lat="38.04961456067596" lon="-3.494059528310108"><ele>477.0</ele><time>2026-04-27T13:47:44Z</time></trkpt><trkpt lat="38.049479336519106" lon="-3.4938650395893154"><ele>476.66666666666663</ele><time>2026-04-27T13:47:45Z</time></trkpt><trkpt lat="38.0493456632576" lon="-3.4936726378025775"><ele>476.3333333333333</ele><time>2026-04-27T13:47:46Z</time></trkpt><trkpt lat="38.04921131110358" lon="-3.493481627737575"><ele>476.0</ele><time>2026-04-27T13:47:47Z</time></trkpt><trkpt lat="38.049074983278764" lon="-3.493287750498038"><ele>476.0</ele><time>2026-04-27T13:47:48Z</time></trkpt><trkpt lat="38.04893877244515" lon="-3.493092544622186"><ele>476.0</ele><time>2026-04-27T13:47:48.999Z</time></trkpt><trkpt lat="38.04880475006555" lon="-3.4928985373815755"><ele>476.0</ele><time>2026-04-27T13:47:49.999Z</time></trkpt><trkpt lat="38.048665253010114" lon="-3.4927017297985814"><ele>475.3333333333333</ele><time>2026-04-27T13:47:50.999Z</time></trkpt><trkpt lat="38.04852833088997" lon="-3.4925093646605525"><ele>474.66666666666663</ele><time>2026-04-27T13:47:51.999Z</time></trkpt><trkpt lat="38.048383733543915" lon="-3.4923116500687374"><ele>474.0</ele><time>2026-04-27T13:47:52.999Z</time></trkpt><trkpt lat="38.04824575049728" lon="-3.492112440830403"><ele>475.66666666666663</ele><time>2026-04-27T13:47:53.999Z</time></trkpt><trkpt lat="38.048107069777345" lon="-3.4919105497151803"><ele>477.3333333333333</ele><time>2026-04-27T13:47:54.999Z</time></trkpt><trkpt lat="38.0479727387151" lon="-3.491709477815323"><ele>479.0</ele><time>2026-04-27T13:47:55.999Z</time></trkpt><trkpt lat="38.04784187990887" lon="-3.4915060803928033"><ele>479.0</ele><time>2026-04-27T13:47:56.999Z</time></trkpt><trkpt lat="38.04771434957849" lon="-3.491301159458959"><ele>479.0</ele><time>2026-04-27T13:47:58Z</time></trkpt><trkpt lat="38.04759439840473" lon="-3.491094932332523"><ele>479.0</ele><time>2026-04-27T13:47:59Z</time></trkpt><trkpt lat="38.04748293261749" lon="-3.490881381214444"><ele>481.3333333333333</ele><time>2026-04-27T13:48:00Z</time></trkpt><trkpt lat="38.047374497290285" lon="-3.4906717623188857"><ele>483.66666666666663</ele><time>2026-04-27T13:48:01Z</time></trkpt><trkpt lat="38.047279973909426" lon="-3.4904792512052794"><ele>486.0</ele><time>2026-04-27T13:48:02Z</time></trkpt><trkpt lat="38.04719697199012" lon="-3.4903059677268993"><ele>486.0</ele><time>2026-04-27T13:48:03Z</time></trkpt><trkpt lat="38.04711700930578" lon="-3.4901407077930036"><ele>486.0</ele><time>2026-04-27T13:48:04Z</time></trkpt><trkpt lat="38.0470461319946" lon="-3.4899898424426605"><ele>486.0</ele><time>2026-04-27T13:48:05Z</time></trkpt><trkpt lat="38.04697330856211" lon="-3.4898397153574847"><ele>486.0</ele><time>2026-04-27T13:48:06Z</time></trkpt><trkpt lat="38.04690134707797" lon="-3.4896830591475583"><ele>485.75</ele><time>2026-04-27T13:48:07Z</time></trkpt><trkpt lat="38.04683307480918" lon="-3.4895260900041936"><ele>485.5</ele><time>2026-04-27T13:48:08Z</time></trkpt><trkpt lat="38.04677126560474" lon="-3.489371003974172"><ele>485.25</ele><time>2026-04-27T13:48:09Z</time></trkpt><trkpt lat="38.046713923210405" lon="-3.4892144423830502"><ele>485.0</ele><time>2026-04-27T13:48:10Z</time></trkpt><trkpt lat="38.046659492073836" lon="-3.4890519863522527"><ele>487.66666666666663</ele><time>2026-04-27T13:48:11Z</time></trkpt><trkpt lat="38.04661960741314" lon="-3.4888760064787325"><ele>490.33333333333337</ele><time>2026-04-27T13:48:12Z</time></trkpt><trkpt lat="38.04658694923088" lon="-3.4886886078404746"><ele>493.0</ele><time>2026-04-27T13:48:13Z</time></trkpt><trkpt lat="38.04656625404876" lon="-3.4884942835624306"><ele>493.0</ele><time>2026-04-27T13:48:14Z</time></trkpt><trkpt lat="38.04655007935619" lon="-3.4882897892800844"><ele>493.0</ele><time>2026-04-27T13:48:15Z</time></trkpt><trkpt lat="38.046540164043925" lon="-3.488085187673658"><ele>493.0</ele><time>2026-04-27T13:48:16Z</time></trkpt><trkpt lat="38.04653426862247" lon="-3.487895623336356"><ele>493.0</ele><time>2026-04-27T13:48:17Z</time></trkpt><trkpt lat="38.04651987905873" lon="-3.487704348407228"><ele>493.0</ele><time>2026-04-27T13:48:18Z</time></trkpt><trkpt lat="38.04650467432799" lon="-3.487512259856702"><ele>493.0</ele><time>2026-04-27T13:48:19Z</time></trkpt><trkpt lat="38.046488725701586" lon="-3.487320756239396"><ele>493.0</ele><time>2026-04-27T13:48:20Z</time></trkpt><trkpt lat="38.04647313195834" lon="-3.487129106609065"><ele>493.0</ele><time>2026-04-27T13:48:21Z</time></trkpt><trkpt lat="38.046462374788234" lon="-3.486939636261236"><ele>493.0</ele><time>2026-04-27T13:48:22Z</time></trkpt><trkpt lat="38.04645108730712" lon="-3.4867510220662363"><ele>493.5</ele><time>2026-04-27T13:48:23Z</time></trkpt><trkpt lat="38.04643902476573" lon="-3.486560968333712"><ele>494.0</ele><time>2026-04-27T13:48:24Z</time></trkpt><trkpt lat="38.0464287499523" lon="-3.4863796497404613"><ele>494.5</ele><time>2026-04-27T13:48:25Z</time></trkpt><trkpt lat="38.04641473241913" lon="-3.4862050375853975"><ele>495.0</ele><time>2026-04-27T13:48:26Z</time></trkpt><trkpt lat="38.04640488199647" lon="-3.4860257554787304"><ele>495.0</ele><time>2026-04-27T13:48:27Z</time></trkpt><trkpt lat="38.046388999286194" lon="-3.485852941129433"><ele>495.0</ele><time>2026-04-27T13:48:28Z</time></trkpt><trkpt lat="38.04637677644349" lon="-3.485677545789245"><ele>495.0</ele><time>2026-04-27T13:48:29Z</time></trkpt><trkpt lat="38.046360801374504" lon="-3.4855094018652157"><ele>495.0</ele><time>2026-04-27T13:48:30Z</time></trkpt><trkpt lat="38.04634618094865" lon="-3.4853394369604627"><ele>495.75</ele><time>2026-04-27T13:48:31Z</time></trkpt><trkpt lat="38.04633143089167" lon="-3.4851825300321955"><ele>496.5</ele><time>2026-04-27T13:48:32Z</time></trkpt><trkpt lat="38.04631649122496" lon="-3.485037660269969"><ele>497.25</ele><time>2026-04-27T13:48:33Z</time></trkpt><trkpt lat="38.04631035454313" lon="-3.4848919840452934"><ele>498.0</ele><time>2026-04-27T13:48:34Z</time></trkpt><trkpt lat="38.04629661904068" lon="-3.484741681375302"><ele>498.0</ele><time>2026-04-27T13:48:35Z</time></trkpt><trkpt lat="38.04627755539422" lon="-3.4845854538932675"><ele>498.0</ele><time>2026-04-27T13:48:36Z</time></trkpt><trkpt lat="38.04625404124668" lon="-3.4844271362589763"><ele>498.0</ele><time>2026-04-27T13:48:37Z</time></trkpt><trkpt lat="38.0462305904218" lon="-3.4842695127250454"><ele>498.0</ele><time>2026-04-27T13:48:38Z</time></trkpt><trkpt lat="38.046207178608206" lon="-3.484119017759334"><ele>498.0</ele><time>2026-04-27T13:48:39Z</time></trkpt><trkpt lat="38.04618327598572" lon="-3.4839701588050307"><ele>498.0</ele><time>2026-04-27T13:48:40Z</time></trkpt><trkpt lat="38.04615794361379" lon="-3.4838246857038557"><ele>498.0</ele><time>2026-04-27T13:48:41Z</time></trkpt><trkpt lat="38.046133456987334" lon="-3.483687495596196"><ele>498.0</ele><time>2026-04-27T13:48:42Z</time></trkpt><trkpt lat="38.04610901533567" lon="-3.483551207148083"><ele>498.0</ele><time>2026-04-27T13:48:43Z</time></trkpt><trkpt lat="38.04608900664377" lon="-3.4834150965508375"><ele>497.99999999999994</ele><time>2026-04-27T13:48:44Z</time></trkpt><trkpt lat="38.04607154288372" lon="-3.483276408649179"><ele>497.99999999999994</ele><time>2026-04-27T13:48:45Z</time></trkpt><trkpt lat="38.04603257036883" lon="-3.4831474193473784"><ele>498.0</ele><time>2026-04-27T13:48:46Z</time></trkpt><trkpt lat="38.04600496059" lon="-3.483020157156511"><ele>498.0</ele><time>2026-04-27T13:48:47Z</time></trkpt><trkpt lat="38.04597523865933" lon="-3.4828842504931874"><ele>498.2</ele><time>2026-04-27T13:48:48Z</time></trkpt><trkpt lat="38.04594395589834" lon="-3.4827412067472485"><ele>498.4</ele><time>2026-04-27T13:48:49Z</time></trkpt><trkpt lat="38.04592061247974" lon="-3.482636284353171"><ele>498.59999999999997</ele><time>2026-04-27T13:48:50Z</time></trkpt><trkpt lat="38.04589081038845" lon="-3.4825066550852397"><ele>498.79999999999995</ele><time>2026-04-27T13:48:51Z</time></trkpt><trkpt lat="38.045862355415004" lon="-3.4823821275477895"><ele>499.0</ele><time>2026-04-27T13:48:52Z</time></trkpt><trkpt lat="38.045833486228474" lon="-3.4822535313698046"><ele>499.25</ele><time>2026-04-27T13:48:53Z</time></trkpt><trkpt lat="38.045808469586994" lon="-3.4820956297451904"><ele>499.5</ele><time>2026-04-27T13:48:54Z</time></trkpt><trkpt lat="38.04577113487212" lon="-3.4819137195626553"><ele>499.75</ele><time>2026-04-27T13:48:55Z</time></trkpt><trkpt lat="38.04574145006288" lon="-3.481720304235565"><ele>500.0</ele><time>2026-04-27T13:48:56Z</time></trkpt><trkpt lat="38.04570982572886" lon="-3.4815267790417526"><ele>501.75</ele><time>2026-04-27T13:48:57Z</time></trkpt><trkpt lat="38.045671240798235" lon="-3.481347223836512"><ele>503.5</ele><time>2026-04-27T13:48:58Z</time></trkpt><trkpt lat="38.04562501405434" lon="-3.4811639870078364"><ele>505.25</ele><time>2026-04-27T13:48:59Z</time></trkpt><trkpt lat="38.045584673104706" lon="-3.480987132933327"><ele>507.0</ele><time>2026-04-27T13:49:00Z</time></trkpt><trkpt lat="38.045542489369694" lon="-3.4808267361658003"><ele>507.5</ele><time>2026-04-27T13:49:01Z</time></trkpt><trkpt lat="38.045508123858625" lon="-3.4806774451854468"><ele>508.0</ele><time>2026-04-27T13:49:02Z</time></trkpt><trkpt lat="38.04547195167586" lon="-3.4805420190055116"><ele>508.5</ele><time>2026-04-27T13:49:03Z</time></trkpt><trkpt lat="38.045439370434416" lon="-3.4804055812402894"><ele>509.0</ele><time>2026-04-27T13:49:04Z</time></trkpt><trkpt lat="38.045415405515804" lon="-3.4802655097883073"><ele>509.49999999999994</ele><time>2026-04-27T13:49:05Z</time></trkpt><trkpt lat="38.045393673934484" lon="-3.480141535849193"><ele>510.0</ele><time>2026-04-27T13:49:06Z</time></trkpt><trkpt lat="38.04536518983682" lon="-3.4800329152781013"><ele>510.5</ele><time>2026-04-27T13:49:07Z</time></trkpt><trkpt lat="38.04534007651658" lon="-3.4799358032613212"><ele>511.0</ele><time>2026-04-27T13:49:08Z</time></trkpt><trkpt lat="38.04531613116886" lon="-3.4798455888753312"><ele>511.49999999999994</ele><time>2026-04-27T13:49:09Z</time></trkpt><trkpt lat="38.0452940874237" lon="-3.4797546742004144"><ele>512.0</ele><time>2026-04-27T13:49:10Z</time></trkpt><trkpt lat="38.04527487262775" lon="-3.4796601656204382"><ele>512.0</ele><time>2026-04-27T13:49:11Z</time></trkpt><trkpt lat="38.04525070649048" lon="-3.479556848510306"><ele>512.0</ele><time>2026-04-27T13:49:12Z</time></trkpt><trkpt lat="38.045221191847645" lon="-3.479442891198163"><ele>512.0</ele><time>2026-04-27T13:49:13Z</time></trkpt><trkpt lat="38.04519178714878" lon="-3.4793239862551446"><ele>512.0</ele><time>2026-04-27T13:49:14Z</time></trkpt><trkpt lat="38.04516361245379" lon="-3.4791964840308087"><ele>512.0</ele><time>2026-04-27T13:49:15Z</time></trkpt><trkpt lat="38.045131499700005" lon="-3.479053686072273"><ele>512.0</ele><time>2026-04-27T13:49:16Z</time></trkpt><trkpt lat="38.04509790386887" lon="-3.4788973681885946"><ele>512.0</ele><time>2026-04-27T13:49:17Z</time></trkpt><trkpt lat="38.045059828321236" lon="-3.4787291145610233"><ele>512.0</ele><time>2026-04-27T13:49:18Z</time></trkpt><trkpt lat="38.04502342300306" lon="-3.478553829667308"><ele>512.0</ele><time>2026-04-27T13:49:19Z</time></trkpt><trkpt lat="38.04499051371027" lon="-3.4783666275426963"><ele>514.6666666666666</ele><time>2026-04-27T13:49:20Z</time></trkpt><trkpt lat="38.04494879683176" lon="-3.478174295934883"><ele>517.3333333333334</ele><time>2026-04-27T13:49:21Z</time></trkpt><trkpt lat="38.04492212088192" lon="-3.4779801089084126"><ele>520.0</ele><time>2026-04-27T13:49:22Z</time></trkpt><trkpt lat="38.04490100044811" lon="-3.477765637226863"><ele>520.3333333333334</ele><time>2026-04-27T13:49:23Z</time></trkpt><trkpt lat="38.044886401693944" lon="-3.477551450572211"><ele>520.6666666666666</ele><time>2026-04-27T13:49:24Z</time></trkpt><trkpt lat="38.044876534848704" lon="-3.477345234977616"><ele>521.0</ele><time>2026-04-27T13:49:25Z</time></trkpt><trkpt lat="38.044874732003606" lon="-3.477139420862548"><ele>522.3333333333333</ele><time>2026-04-27T13:49:26Z</time></trkpt><trkpt lat="38.0448816960321" lon="-3.476935775332144"><ele>523.6666666666666</ele><time>2026-04-27T13:49:27Z</time></trkpt><trkpt lat="38.044900442568995" lon="-3.476733450398124"><ele>525.0</ele><time>2026-04-27T13:49:28Z</time></trkpt><trkpt lat="38.04492393144021" lon="-3.476531421398313"><ele>525.0</ele><time>2026-04-27T13:49:29Z</time></trkpt><trkpt lat="38.04494754841601" lon="-3.476343308110958"><ele>525.0</ele><time>2026-04-27T13:49:30Z</time></trkpt><trkpt lat="38.04497748850705" lon="-3.4761530276531603"><ele>525.0</ele><time>2026-04-27T13:49:31Z</time></trkpt><trkpt lat="38.045015154368265" lon="-3.475963176982875"><ele>525.3333333333334</ele><time>2026-04-27T13:49:32Z</time></trkpt><trkpt lat="38.045057029633234" lon="-3.4757753528699586"><ele>525.6666666666667</ele><time>2026-04-27T13:49:33Z</time></trkpt><trkpt lat="38.045107288611554" lon="-3.4755971970582786"><ele>526.0</ele><time>2026-04-27T13:49:34Z</time></trkpt><trkpt lat="38.04516373604397" lon="-3.475419103013881"><ele>526.0</ele><time>2026-04-27T13:49:35Z</time></trkpt><trkpt lat="38.04521567795193" lon="-3.4752406855958826"><ele>526.0</ele><time>2026-04-27T13:49:36Z</time></trkpt><trkpt lat="38.04526103773397" lon="-3.4750679760737877"><ele>526.0</ele><time>2026-04-27T13:49:36.999Z</time></trkpt><trkpt lat="38.045308763202954" lon="-3.474893309954616"><ele>526.0</ele><time>2026-04-27T13:49:37.999Z</time></trkpt><trkpt lat="38.04535681073848" lon="-3.4747195810866764"><ele>527.0</ele><time>2026-04-27T13:49:38.999Z</time></trkpt><trkpt lat="38.045401799159315" lon="-3.4745455929737856"><ele>528.0</ele><time>2026-04-27T13:49:39.999Z</time></trkpt><trkpt lat="38.04544900782633" lon="-3.474374426557533"><ele>529.0</ele><time>2026-04-27T13:49:40.999Z</time></trkpt><trkpt lat="38.04549673778864" lon="-3.474207727444169"><ele>530.0</ele><time>2026-04-27T13:49:41.999Z</time></trkpt><trkpt lat="38.04554422787317" lon="-3.4740429514816222"><ele>530.0</ele><time>2026-04-27T13:49:42.999Z</time></trkpt><trkpt lat="38.04558303295461" lon="-3.47390507854957"><ele>530.0</ele><time>2026-04-27T13:49:43.999Z</time></trkpt><trkpt lat="38.045615252884765" lon="-3.4737720588933425"><ele>530.0</ele><time>2026-04-27T13:49:44.999Z</time></trkpt><trkpt lat="38.04564344739459" lon="-3.473648448469719"><ele>530.0</ele><time>2026-04-27T13:49:45.999Z</time></trkpt><trkpt lat="38.04567215782818" lon="-3.4735400550754543"><ele>530.0</ele><time>2026-04-27T13:49:46.999Z</time></trkpt><trkpt lat="38.04569598481339" lon="-3.4734347979984803"><ele>530.6666666666666</ele><time>2026-04-27T13:49:47.999Z</time></trkpt><trkpt lat="38.04571173299157" lon="-3.4733400086715447"><ele>531.3333333333333</ele><time>2026-04-27T13:49:48.999Z</time></trkpt><trkpt lat="38.04572038383522" lon="-3.47323902990869"><ele>532.0</ele><time>2026-04-27T13:49:49.999Z</time></trkpt><trkpt lat="38.04572931754692" lon="-3.473143864214992"><ele>532.6666666666666</ele><time>2026-04-27T13:49:50.999Z</time></trkpt><trkpt lat="38.04574159503076" lon="-3.4730493025976195"><ele>533.3333333333334</ele><time>2026-04-27T13:49:51.999Z</time></trkpt><trkpt lat="38.04576263482887" lon="-3.472920440538261"><ele>534.0</ele><time>2026-04-27T13:49:53.999Z</time></trkpt><trkpt lat="38.045790549249865" lon="-3.472831291002273"><ele>533.5</ele><time>2026-04-27T13:49:55.999Z</time></trkpt><trkpt lat="38.04586299161508" lon="-3.4727740268991503"><ele>533.0</ele><time>2026-04-27T13:49:58.999Z</time></trkpt><trkpt lat="38.04595342662579" lon="-3.4727606005949707"><ele>532.5</ele><time>2026-04-27T13:50:00.999Z</time></trkpt><trkpt lat="38.0460248212652" lon="-3.472763155271911"><ele>532.0</ele><time>2026-04-27T13:50:01.999Z</time></trkpt><trkpt lat="38.04610475787839" lon="-3.472776209238076"><ele>531.5</ele><time>2026-04-27T13:50:02.999Z</time></trkpt><trkpt lat="38.0461782709609" lon="-3.4728148512226085"><ele>531.0</ele><time>2026-04-27T13:50:03.999Z</time></trkpt><trkpt lat="38.04622990366812" lon="-3.4728897382708572"><ele>530.5</ele><time>2026-04-27T13:50:04.999Z</time></trkpt><trkpt lat="38.046259246329434" lon="-3.472992678329701"><ele>530.0</ele><time>2026-04-27T13:50:05.999Z</time></trkpt><trkpt lat="38.04627449207268" lon="-3.4731270815787054"><ele>529.5</ele><time>2026-04-27T13:50:06.999Z</time></trkpt><trkpt lat="38.046284578445736" lon="-3.4732906396153647"><ele>529.0</ele><time>2026-04-27T13:50:07.999Z</time></trkpt><trkpt lat="38.04630220106534" lon="-3.473458990923693"><ele>529.0</ele><time>2026-04-27T13:50:08.999Z</time></trkpt><trkpt lat="38.04631821006035" lon="-3.4736325564668897"><ele>529.0</ele><time>2026-04-27T13:50:09.999Z</time></trkpt><trkpt lat="38.04633922928" lon="-3.473813904153969"><ele>529.0</ele><time>2026-04-27T13:50:10.999Z</time></trkpt><trkpt lat="38.04639510272146" lon="-3.473998350191301"><ele>529.0</ele><time>2026-04-27T13:50:11.999Z</time></trkpt><trkpt lat="38.0464160753991" lon="-3.474174221530092"><ele>527.75</ele><time>2026-04-27T13:50:12.999Z</time></trkpt><trkpt lat="38.046454390694755" lon="-3.474342164818981"><ele>526.5</ele><time>2026-04-27T13:50:13.999Z</time></trkpt><trkpt lat="38.04649199939385" lon="-3.4745001368550987"><ele>525.25</ele><time>2026-04-27T13:50:14.999Z</time></trkpt><trkpt lat="38.04653105607464" lon="-3.4746446320628306"><ele>524.0</ele><time>2026-04-27T13:50:15.999Z</time></trkpt><trkpt lat="38.04656433160308" lon="-3.4747773149785774"><ele>523.6</ele><time>2026-04-27T13:50:16.999Z</time></trkpt><trkpt lat="38.046592092070505" lon="-3.47489390734219"><ele>523.2</ele><time>2026-04-27T13:50:17.999Z</time></trkpt><trkpt lat="38.04661598285489" lon="-3.4749819809297398"><ele>522.8000000000001</ele><time>2026-04-27T13:50:18.999Z</time></trkpt><trkpt lat="38.04666915929517" lon="-3.475097224153673"><ele>522.4</ele><time>2026-04-27T13:50:20.999Z</time></trkpt><trkpt lat="38.04678954777789" lon="-3.4751588006964047"><ele>522.0</ele><time>2026-04-27T13:50:23.999Z</time></trkpt><trkpt lat="38.04685395960757" lon="-3.4752069961708743"><ele>522.0</ele><time>2026-04-27T13:50:26.999Z</time></trkpt><trkpt lat="38.04686161464193" lon="-3.4752927242012923"><ele>522.0</ele><time>2026-04-27T13:50:30.999Z</time></trkpt><trkpt lat="38.046820016268384" lon="-3.4753584399557167"><ele>522.0</ele><time>2026-04-27T13:50:35.999Z</time></trkpt><trkpt lat="38.046755449446245" lon="-3.475385038548111"><ele>522.0</ele><time>2026-04-27T13:50:38.999Z</time></trkpt><trkpt lat="38.04664827168753" lon="-3.4752694068261922"><ele>522.0</ele><time>2026-04-27T13:50:40.999Z</time></trkpt><trkpt lat="38.04661356155208" lon="-3.475094618707006"><ele>521.8000000000001</ele><time>2026-04-27T13:50:42.999Z</time></trkpt><trkpt lat="38.046586427610194" lon="-3.4749735561657134"><ele>521.6</ele><time>2026-04-27T13:50:43.999Z</time></trkpt><trkpt lat="38.04655693284752" lon="-3.474848248883934"><ele>521.4000000000001</ele><time>2026-04-27T13:50:44.999Z</time></trkpt><trkpt lat="38.04653501682404" lon="-3.474702955984872"><ele>521.2</ele><time>2026-04-27T13:50:45.999Z</time></trkpt><trkpt lat="38.04649748107997" lon="-3.4745543177427587"><ele>521.0</ele><time>2026-04-27T13:50:46.999Z</time></trkpt><trkpt lat="38.04646787838498" lon="-3.4744122369575674"><ele>521.6</ele><time>2026-04-27T13:50:47.999Z</time></trkpt><trkpt lat="38.04642311222802" lon="-3.4742842095037036"><ele>522.2</ele><time>2026-04-27T13:50:48.999Z</time></trkpt><trkpt lat="38.04640841726005" lon="-3.4741515544610975"><ele>522.8</ele><time>2026-04-27T13:50:49.999Z</time></trkpt><trkpt lat="38.04637429380925" lon="-3.4740355768791873"><ele>523.4</ele><time>2026-04-27T13:50:50.999Z</time></trkpt><trkpt lat="38.04635470127038" lon="-3.4739293830855082"><ele>524.0</ele><time>2026-04-27T13:50:51.999Z</time></trkpt><trkpt lat="38.04633905467421" lon="-3.4738268188195756"><ele>524.7142857142858</ele><time>2026-04-27T13:50:52.999Z</time></trkpt><trkpt lat="38.04632471615724" lon="-3.4737352325955553"><ele>525.4285714285714</ele><time>2026-04-27T13:50:53.999Z</time></trkpt><trkpt lat="38.04630291494291" lon="-3.4736443780120503"><ele>526.1428571428571</ele><time>2026-04-27T13:50:54.999Z</time></trkpt><trkpt lat="38.04627806114738" lon="-3.4735658366676185"><ele>526.8571428571429</ele><time>2026-04-27T13:50:55.999Z</time></trkpt><trkpt lat="38.04624279061343" lon="-3.473490845702908"><ele>527.5714285714286</ele><time>2026-04-27T13:50:56.999Z</time></trkpt><trkpt lat="38.04619224188877" lon="-3.4734323727401177"><ele>528.2857142857143</ele><time>2026-04-27T13:50:57.999Z</time></trkpt><trkpt lat="38.04613058861098" lon="-3.4733976407381135"><ele>529.0</ele><time>2026-04-27T13:50:58.999Z</time></trkpt><trkpt lat="38.0460591985966" lon="-3.4733776193039367"><ele>529.0</ele><time>2026-04-27T13:50:59.999Z</time></trkpt><trkpt lat="38.04599308277829" lon="-3.4733761372350545"><ele>529.0</ele><time>2026-04-27T13:51:00.999Z</time></trkpt><trkpt lat="38.04589374453131" lon="-3.473353516601166"><ele>529.0</ele><time>2026-04-27T13:51:02.999Z</time></trkpt><trkpt lat="38.04583798439448" lon="-3.473299712093446"><ele>529.0</ele><time>2026-04-27T13:51:04.999Z</time></trkpt><trkpt lat="38.04579378219709" lon="-3.4732377095920297"><ele>529.0</ele><time>2026-04-27T13:51:06.999Z</time></trkpt><trkpt lat="38.045767402986954" lon="-3.4731598529378056"><ele>529.0</ele><time>2026-04-27T13:51:07.999Z</time></trkpt><trkpt lat="38.04582867757913" lon="-3.473041105463058"><ele>529.5</ele><time>2026-04-27T13:51:08.999Z</time></trkpt><trkpt lat="38.04585324995958" lon="-3.4729277176694526"><ele>530.0</ele><time>2026-04-27T13:51:09.999Z</time></trkpt><trkpt lat="38.04589258057467" lon="-3.4727984951922055"><ele>530.5</ele><time>2026-04-27T13:51:10.999Z</time></trkpt><trkpt lat="38.04593124256153" lon="-3.472651289522017"><ele>531.0</ele><time>2026-04-27T13:51:11.999Z</time></trkpt><trkpt lat="38.0459721267701" lon="-3.4724871001040722"><ele>531.0</ele><time>2026-04-27T13:51:12.999Z</time></trkpt><trkpt lat="38.04601798786668" lon="-3.4723147806490346"><ele>531.0</ele><time>2026-04-27T13:51:13.999Z</time></trkpt><trkpt lat="38.04605615544056" lon="-3.4721484569318997"><ele>531.0</ele><time>2026-04-27T13:51:14.999Z</time></trkpt><trkpt lat="38.046091257888214" lon="-3.4719718282919176"><ele>531.0</ele><time>2026-04-27T13:51:15.999Z</time></trkpt><trkpt lat="38.0461155614665" lon="-3.471786493377619"><ele>532.6666666666666</ele><time>2026-04-27T13:51:16.999Z</time></trkpt><trkpt lat="38.04612848417047" lon="-3.4715903238888584"><ele>534.3333333333333</ele><time>2026-04-27T13:51:17.999Z</time></trkpt><trkpt lat="38.04613837022502" lon="-3.471393831649842"><ele>536.0</ele><time>2026-04-27T13:51:18.999Z</time></trkpt><trkpt lat="38.04614196617872" lon="-3.4711962256392717"><ele>537.3333333333333</ele><time>2026-04-27T13:51:19.999Z</time></trkpt><trkpt lat="38.04613910446872" lon="-3.4709932125813223"><ele>538.6666666666666</ele><time>2026-04-27T13:51:20.999Z</time></trkpt><trkpt lat="38.04612844951362" lon="-3.4707888317185067"><ele>540.0</ele><time>2026-04-27T13:51:21.999Z</time></trkpt><trkpt lat="38.04611618533758" lon="-3.4705742402429247"><ele>540.6666666666666</ele><time>2026-04-27T13:51:22.999Z</time></trkpt><trkpt lat="38.04610217350803" lon="-3.4703516675694828"><ele>541.3333333333333</ele><time>2026-04-27T13:51:23.999Z</time></trkpt><trkpt lat="38.046089175581905" lon="-3.4701163215607265"><ele>542.0</ele><time>2026-04-27T13:51:24.999Z</time></trkpt><trkpt lat="38.046075235077716" lon="-3.469884411889973"><ele>542.0</ele><time>2026-04-27T13:51:25.999Z</time></trkpt><trkpt lat="38.046068380235916" lon="-3.469657102684096"><ele>542.0</ele><time>2026-04-27T13:51:26.999Z</time></trkpt><trkpt lat="38.046069863260776" lon="-3.4694206686668743"><ele>542.0</ele><time>2026-04-27T13:51:27.999Z</time></trkpt><trkpt lat="38.04608177836016" lon="-3.469183826604061"><ele>543.0</ele><time>2026-04-27T13:51:28.999Z</time></trkpt><trkpt lat="38.046099643507695" lon="-3.4689533391255205"><ele>544.0</ele><time>2026-04-27T13:51:29.999Z</time></trkpt><trkpt lat="38.0461214667775" lon="-3.4687269063469905"><ele>545.0</ele><time>2026-04-27T13:51:30.999Z</time></trkpt><trkpt lat="38.04614814560477" lon="-3.4685095188617208"><ele>545.3333333333333</ele><time>2026-04-27T13:51:31.999Z</time></trkpt><trkpt lat="38.04618037482278" lon="-3.468292417171993"><ele>545.6666666666666</ele><time>2026-04-27T13:51:32.999Z</time></trkpt><trkpt lat="38.04621910210893" lon="-3.4680825061944307"><ele>546.0</ele><time>2026-04-27T13:51:33.999Z</time></trkpt><trkpt lat="38.04626189125115" lon="-3.4678711507178708"><ele>546.6666666666666</ele><time>2026-04-27T13:51:34.999Z</time></trkpt><trkpt lat="38.04630789805939" lon="-3.4676645687548002"><ele>547.3333333333333</ele><time>2026-04-27T13:51:35.999Z</time></trkpt><trkpt lat="38.04635399108682" lon="-3.4674612022029483"><ele>548.0</ele><time>2026-04-27T13:51:36.999Z</time></trkpt><trkpt lat="38.046404838200026" lon="-3.4672483669848813"><ele>548.6666666666666</ele><time>2026-04-27T13:51:37.999Z</time></trkpt><trkpt lat="38.04645472470612" lon="-3.4670488004026496"><ele>549.3333333333334</ele><time>2026-04-27T13:51:38.999Z</time></trkpt><trkpt lat="38.04650241120817" lon="-3.4668480431016104"><ele>550.0</ele><time>2026-04-27T13:51:39.999Z</time></trkpt><trkpt lat="38.046541828326966" lon="-3.46664468395049"><ele>550.0</ele><time>2026-04-27T13:51:40.999Z</time></trkpt><trkpt lat="38.046573312976115" lon="-3.4664318283635924"><ele>550.0</ele><time>2026-04-27T13:51:41.999Z</time></trkpt><trkpt lat="38.04658897617228" lon="-3.4662176953607644"><ele>550.0</ele><time>2026-04-27T13:51:42.999Z</time></trkpt><trkpt lat="38.04659915082517" lon="-3.4660145768292976"><ele>551.0</ele><time>2026-04-27T13:51:43.999Z</time></trkpt><trkpt lat="38.046596588123755" lon="-3.4658147153953034"><ele>552.0</ele><time>2026-04-27T13:51:44.999Z</time></trkpt><trkpt lat="38.046584347960525" lon="-3.4656205101933035"><ele>553.0</ele><time>2026-04-27T13:51:45.999Z</time></trkpt><trkpt lat="38.04656171478823" lon="-3.465427353063609"><ele>553.75</ele><time>2026-04-27T13:51:46.999Z</time></trkpt><trkpt lat="38.04652625846721" lon="-3.4652430814104624"><ele>554.5</ele><time>2026-04-27T13:51:47.999Z</time></trkpt><trkpt lat="38.046485773574844" lon="-3.4650902780716035"><ele>555.25</ele><time>2026-04-27T13:51:48.999Z</time></trkpt><trkpt lat="38.04644050303481" lon="-3.4649484115652114"><ele>556.0</ele><time>2026-04-27T13:51:49.999Z</time></trkpt><trkpt lat="38.04639598646372" lon="-3.4648206261440846"><ele>556.0</ele><time>2026-04-27T13:51:50.999Z</time></trkpt><trkpt lat="38.046344606576824" lon="-3.4646940744556054"><ele>556.0</ele><time>2026-04-27T13:51:51.999Z</time></trkpt><trkpt lat="38.0462840935587" lon="-3.464568081373865"><ele>556.0</ele><time>2026-04-27T13:51:52.999Z</time></trkpt><trkpt lat="38.04622261506596" lon="-3.4644421111410133"><ele>556.0</ele><time>2026-04-27T13:51:53.999Z</time></trkpt><trkpt lat="38.046163866994355" lon="-3.4643218635486606"><ele>557.25</ele><time>2026-04-27T13:51:54.999Z</time></trkpt><trkpt lat="38.046103576961436" lon="-3.4642060677726194"><ele>558.5</ele><time>2026-04-27T13:51:55.999Z</time></trkpt><trkpt lat="38.046037506450325" lon="-3.4640899709973563"><ele>559.75</ele><time>2026-04-27T13:51:56.999Z</time></trkpt><trkpt lat="38.04597167461247" lon="-3.4639705988593144"><ele>561.0</ele><time>2026-04-27T13:51:57.999Z</time></trkpt><trkpt lat="38.04590732627457" lon="-3.4638498452895354"><ele>560.75</ele><time>2026-04-27T13:51:58.999Z</time></trkpt><trkpt lat="38.04584050038099" lon="-3.4637233725183387"><ele>560.5</ele><time>2026-04-27T13:51:59.999Z</time></trkpt><trkpt lat="38.04576979045779" lon="-3.4635896402257678"><ele>560.25</ele><time>2026-04-27T13:52:00.999Z</time></trkpt><trkpt lat="38.045702593913184" lon="-3.4634476049211678"><ele>560.0</ele><time>2026-04-27T13:52:01.999Z</time></trkpt><trkpt lat="38.04562566395947" lon="-3.46329919280372"><ele>560.0</ele><time>2026-04-27T13:52:02.999Z</time></trkpt><trkpt lat="38.045551875839365" lon="-3.4631541912369825"><ele>560.0</ele><time>2026-04-27T13:52:03.999Z</time></trkpt><trkpt lat="38.045475680461465" lon="-3.463010192868815"><ele>560.0</ele><time>2026-04-27T13:52:04.999Z</time></trkpt><trkpt lat="38.04540246054236" lon="-3.462864928915181"><ele>560.0</ele><time>2026-04-27T13:52:05.999Z</time></trkpt><trkpt lat="38.04532766600876" lon="-3.4627232725582306"><ele>562.75</ele><time>2026-04-27T13:52:06.999Z</time></trkpt><trkpt lat="38.04525300722471" lon="-3.4625810392468095"><ele>565.5</ele><time>2026-04-27T13:52:07.999Z</time></trkpt><trkpt lat="38.0451829161939" lon="-3.4624454389955264"><ele>568.25</ele><time>2026-04-27T13:52:08.999Z</time></trkpt><trkpt lat="38.045125832336886" lon="-3.462324775337412"><ele>571.0</ele><time>2026-04-27T13:52:09.997Z</time></trkpt><trkpt lat="38.04507595109727" lon="-3.4622265381605732"><ele>571.0</ele><time>2026-04-27T13:52:10.997Z</time></trkpt><trkpt lat="38.04502929262012" lon="-3.462141540317313"><ele>571.0</ele><time>2026-04-27T13:52:11.997Z</time></trkpt><trkpt lat="38.04498181115242" lon="-3.462048817905905"><ele>571.0</ele><time>2026-04-27T13:52:13.997Z</time></trkpt><trkpt lat="38.04491947932544" lon="-3.461989188025445"><ele>571.0</ele><time>2026-04-27T13:52:16.997Z</time></trkpt><trkpt lat="38.044870493387876" lon="-3.4619159349000452"><ele>571.0</ele><time>2026-04-27T13:52:18.997Z</time></trkpt><trkpt lat="38.044823524250894" lon="-3.4618340878093044"><ele>571.0</ele><time>2026-04-27T13:52:36.998Z</time></trkpt><trkpt lat="38.04475531320645" lon="-3.4616869771053076"><ele>570.75</ele><time>2026-04-27T13:52:38.999Z</time></trkpt><trkpt lat="38.044705994734414" lon="-3.461590396216817"><ele>570.5</ele><time>2026-04-27T13:52:39.999Z</time></trkpt><trkpt lat="38.044647042302955" lon="-3.4614715865820185"><ele>570.25</ele><time>2026-04-27T13:52:40.999Z</time></trkpt><trkpt lat="38.044579288198875" lon="-3.46132832734733"><ele>570.0</ele><time>2026-04-27T13:52:41.999Z</time></trkpt><trkpt lat="38.044508305489266" lon="-3.4611825067265807"><ele>571.75</ele><time>2026-04-27T13:52:42.999Z</time></trkpt><trkpt lat="38.044433163023704" lon="-3.4610267729695035"><ele>573.5</ele><time>2026-04-27T13:52:43.999Z</time></trkpt><trkpt lat="38.04435421576108" lon="-3.460877320322112"><ele>575.25</ele><time>2026-04-27T13:52:44.999Z</time></trkpt><trkpt lat="38.044272810875206" lon="-3.460738434265306"><ele>577.0</ele><time>2026-04-27T13:52:45.999Z</time></trkpt><trkpt lat="38.044195085098195" lon="-3.4606072953862577"><ele>576.25</ele><time>2026-04-27T13:52:46.999Z</time></trkpt><trkpt lat="38.04411382682304" lon="-3.460482890847636"><ele>575.5</ele><time>2026-04-27T13:52:47.999Z</time></trkpt><trkpt lat="38.04402850731271" lon="-3.4603608353509325"><ele>574.75</ele><time>2026-04-27T13:52:48.999Z</time></trkpt><trkpt lat="38.04394026486254" lon="-3.4602400521331735"><ele>574.0</ele><time>2026-04-27T13:52:49.999Z</time></trkpt><trkpt lat="38.043849893604815" lon="-3.4601275032241587"><ele>576.0</ele><time>2026-04-27T13:52:50.999Z</time></trkpt><trkpt lat="38.04375961675269" lon="-3.460020036376806"><ele>578.0</ele><time>2026-04-27T13:52:51.999Z</time></trkpt><trkpt lat="38.04366703987571" lon="-3.4599191465278443"><ele>580.0</ele><time>2026-04-27T13:52:52.999Z</time></trkpt><trkpt lat="38.04356960158247" lon="-3.4598224698168547"><ele>582.0</ele><time>2026-04-27T13:52:53.999Z</time></trkpt><trkpt lat="38.043464746813285" lon="-3.4597328539301557"><ele>582.0</ele><time>2026-04-27T13:52:54.999Z</time></trkpt><trkpt lat="38.043353440431005" lon="-3.459647421220468"><ele>582.0</ele><time>2026-04-27T13:52:55.999Z</time></trkpt><trkpt lat="38.0432392095126" lon="-3.4595663529067666"><ele>582.0</ele><time>2026-04-27T13:52:56.999Z</time></trkpt><trkpt lat="38.0431180742179" lon="-3.4594905245557377"><ele>582.0</ele><time>2026-04-27T13:52:57.999Z</time></trkpt><trkpt lat="38.04299204109024" lon="-3.459413033420257"><ele>583.0</ele><time>2026-04-27T13:52:58.999Z</time></trkpt><trkpt lat="38.042864377381285" lon="-3.4593306703089755"><ele>584.0</ele><time>2026-04-27T13:52:59.999Z</time></trkpt><trkpt lat="38.042729816949276" lon="-3.459251593223961"><ele>585.0</ele><time>2026-04-27T13:53:00.999Z</time></trkpt><trkpt lat="38.04259182353659" lon="-3.4591691650941683"><ele>586.0</ele><time>2026-04-27T13:53:01.999Z</time></trkpt><trkpt lat="38.04245082591545" lon="-3.459085051143741"><ele>586.3333333333334</ele><time>2026-04-27T13:53:02.999Z</time></trkpt><trkpt lat="38.042305600482" lon="-3.4589986127080805"><ele>586.6666666666666</ele><time>2026-04-27T13:53:03.999Z</time></trkpt><trkpt lat="38.04215676540067" lon="-3.458910280944919"><ele>587.0</ele><time>2026-04-27T13:53:04.999Z</time></trkpt><trkpt lat="38.04200094471653" lon="-3.458816612835874"><ele>586.3333333333333</ele><time>2026-04-27T13:53:05.999Z</time></trkpt><trkpt lat="38.041854137888826" lon="-3.4587187749180153"><ele>585.6666666666666</ele><time>2026-04-27T13:53:06.999Z</time></trkpt><trkpt lat="38.04171475390905" lon="-3.4586185644373955"><ele>585.0</ele><time>2026-04-27T13:53:07.999Z</time></trkpt><trkpt lat="38.04158750519321" lon="-3.458516577928162"><ele>585.0</ele><time>2026-04-27T13:53:08.999Z</time></trkpt><trkpt lat="38.04147456891482" lon="-3.458418828134023"><ele>585.0</ele><time>2026-04-27T13:53:09.999Z</time></trkpt><trkpt lat="38.04136801769191" lon="-3.4583237618932436"><ele>585.0</ele><time>2026-04-27T13:53:10.999Z</time></trkpt><trkpt lat="38.0412793100357" lon="-3.458228910359896"><ele>585.0</ele><time>2026-04-27T13:53:11.999Z</time></trkpt><trkpt lat="38.041199394969546" lon="-3.4581397882558624"><ele>585.0</ele><time>2026-04-27T13:53:12.999Z</time></trkpt><trkpt lat="38.04112650637096" lon="-3.458064952671619"><ele>585.0</ele><time>2026-04-27T13:53:13.999Z</time></trkpt><trkpt lat="38.041061920118636" lon="-3.4579869436193995"><ele>585.0</ele><time>2026-04-27T13:53:14.999Z</time></trkpt><trkpt lat="38.041013399279066" lon="-3.4579068368819743"><ele>585.0</ele><time>2026-04-27T13:53:15.999Z</time></trkpt><trkpt lat="38.040962009524385" lon="-3.45782888733621"><ele>585.0</ele><time>2026-04-27T13:53:16.999Z</time></trkpt><trkpt lat="38.04091291778652" lon="-3.4577192065037066"><ele>585.0</ele><time>2026-04-27T13:53:18.999Z</time></trkpt><trkpt lat="38.0410290429973" lon="-3.457698594875712"><ele>586.6</ele><time>2026-04-27T13:53:23.999Z</time></trkpt><trkpt lat="38.041123819084646" lon="-3.457701327406212"><ele>588.2</ele><time>2026-04-27T13:53:25.999Z</time></trkpt><trkpt lat="38.04120059864392" lon="-3.4577028420683504"><ele>589.8</ele><time>2026-04-27T13:53:27.999Z</time></trkpt><trkpt lat="38.0412820946369" lon="-3.457551865294851"><ele>591.4</ele><time>2026-04-27T13:53:29.999Z</time></trkpt><trkpt lat="38.04136348581301" lon="-3.4574794185973694"><ele>593.0</ele><time>2026-04-27T13:53:31.999Z</time></trkpt><trkpt lat="38.041367839042195" lon="-3.457390814355757"><ele>592.9999999999999</ele><time>2026-04-27T13:53:34.999Z</time></trkpt><trkpt lat="38.04129922618366" lon="-3.457356248846835"><ele>593.0</ele><time>2026-04-27T13:53:37.999Z</time></trkpt><trkpt lat="38.04122544463132" lon="-3.45731375353158"><ele>593.0</ele><time>2026-04-27T13:54:28.998Z</time></trkpt><trkpt lat="38.04116427118457" lon="-3.45729161261565"><ele>593.0</ele><time>2026-04-27T13:54:31.998Z</time></trkpt><trkpt lat="38.04119032242048" lon="-3.457386713276584"><ele>593.0</ele><time>2026-04-27T13:54:33.999Z</time></trkpt><trkpt lat="38.0412393077555" lon="-3.457459224036791"><ele>592.9999999999999</ele><time>2026-04-27T13:54:35.999Z</time></trkpt><trkpt lat="38.04129304070094" lon="-3.4575037901978725"><ele>593.0</ele><time>2026-04-27T13:54:37.999Z</time></trkpt><trkpt lat="38.041357382874466" lon="-3.457571718004516"><ele>593.0</ele><time>2026-04-27T13:54:39.999Z</time></trkpt><trkpt lat="38.04137553575566" lon="-3.457706243315058"><ele>593.0</ele><time>2026-04-27T13:54:41.999Z</time></trkpt><trkpt lat="38.041345651247624" lon="-3.4577794149591896"><ele>593.0</ele><time>2026-04-27T13:54:42.999Z</time></trkpt><trkpt lat="38.041329365206074" lon="-3.4578567445549413"><ele>593.0</ele><time>2026-04-27T13:54:43.999Z</time></trkpt><trkpt lat="38.041310364938866" lon="-3.4579480443420465"><ele>593.0</ele><time>2026-04-27T13:54:44.999Z</time></trkpt><trkpt lat="38.04128734760483" lon="-3.458035478102513"><ele>593.0</ele><time>2026-04-27T13:54:45.999Z</time></trkpt><trkpt lat="38.04134355618891" lon="-3.4581509277705216"><ele>592.6</ele><time>2026-04-27T13:54:46.999Z</time></trkpt><trkpt lat="38.041394596993186" lon="-3.4582408055127654"><ele>592.1999999999999</ele><time>2026-04-27T13:54:47.999Z</time></trkpt><trkpt lat="38.041450924778175" lon="-3.4583275048299496"><ele>591.8</ele><time>2026-04-27T13:54:48.999Z</time></trkpt><trkpt lat="38.04150549367149" lon="-3.4584344901521153"><ele>591.4</ele><time>2026-04-27T13:54:49.999Z</time></trkpt><trkpt lat="38.04162139900674" lon="-3.458506145624407"><ele>591.0</ele><time>2026-04-27T13:54:50.999Z</time></trkpt><trkpt lat="38.04172652197123" lon="-3.4585914990198456"><ele>591.0</ele><time>2026-04-27T13:54:51.999Z</time></trkpt><trkpt lat="38.04183888838433" lon="-3.458668007436012"><ele>591.0</ele><time>2026-04-27T13:54:52.999Z</time></trkpt><trkpt lat="38.04196580207435" lon="-3.45874104246474"><ele>591.0</ele><time>2026-04-27T13:54:53.999Z</time></trkpt><trkpt lat="38.04210081823083" lon="-3.458821547456939"><ele>591.0</ele><time>2026-04-27T13:54:54.999Z</time></trkpt><trkpt lat="38.04223677308007" lon="-3.458903659075413"><ele>590.0</ele><time>2026-04-27T13:54:55.999Z</time></trkpt><trkpt lat="38.04237023228951" lon="-3.4589896106041147"><ele>589.0</ele><time>2026-04-27T13:54:56.999Z</time></trkpt><trkpt lat="38.04250147414141" lon="-3.459068907708716"><ele>588.0</ele><time>2026-04-27T13:54:57.999Z</time></trkpt><trkpt lat="38.042639208355595" lon="-3.4591537657278186"><ele>587.0</ele><time>2026-04-27T13:54:58.999Z</time></trkpt><trkpt lat="38.04277874379833" lon="-3.459235666217155"><ele>586.75</ele><time>2026-04-27T13:54:59.999Z</time></trkpt><trkpt lat="38.0429110441216" lon="-3.4593185904485386"><ele>586.5</ele><time>2026-04-27T13:55:00.999Z</time></trkpt><trkpt lat="38.04303542913756" lon="-3.4593979517986595"><ele>586.25</ele><time>2026-04-27T13:55:02Z</time></trkpt><trkpt lat="38.043172699501774" lon="-3.4594810369137887"><ele>586.0</ele><time>2026-04-27T13:55:03Z</time></trkpt><trkpt lat="38.04332333644628" lon="-3.4595722112666003"><ele>584.6666666666667</ele><time>2026-04-27T13:55:04Z</time></trkpt><trkpt lat="38.0434776156393" lon="-3.4596772239310725"><ele>583.3333333333334</ele><time>2026-04-27T13:55:05Z</time></trkpt><trkpt lat="38.04362183575021" lon="-3.4597884597332804"><ele>582.0</ele><time>2026-04-27T13:55:06Z</time></trkpt><trkpt lat="38.043771164454235" lon="-3.4599153475142983"><ele>582.0</ele><time>2026-04-27T13:55:07Z</time></trkpt><trkpt lat="38.043914282362266" lon="-3.460062422317229"><ele>582.0</ele><time>2026-04-27T13:55:08Z</time></trkpt><trkpt lat="38.044033896497155" lon="-3.460231716222086"><ele>582.0</ele><time>2026-04-27T13:55:09Z</time></trkpt><trkpt lat="38.044142920447044" lon="-3.4603995234997917"><ele>580.3333333333334</ele><time>2026-04-27T13:55:10Z</time></trkpt><trkpt lat="38.044239940523674" lon="-3.460570361601193"><ele>578.6666666666667</ele><time>2026-04-27T13:55:11Z</time></trkpt><trkpt lat="38.04432227397778" lon="-3.46072639047253"><ele>577.0</ele><time>2026-04-27T13:55:12Z</time></trkpt><trkpt lat="38.04440565996983" lon="-3.4608804423861597"><ele>577.0</ele><time>2026-04-27T13:55:13Z</time></trkpt><trkpt lat="38.04448469448757" lon="-3.4610280360728787"><ele>577.0</ele><time>2026-04-27T13:55:14Z</time></trkpt><trkpt lat="38.04456023202046" lon="-3.461170927656201"><ele>577.0</ele><time>2026-04-27T13:55:15Z</time></trkpt><trkpt lat="38.04463370602061" lon="-3.4613079734502916"><ele>577.0</ele><time>2026-04-27T13:55:16Z</time></trkpt><trkpt lat="38.04470246655238" lon="-3.461442066364554"><ele>577.2</ele><time>2026-04-27T13:55:17Z</time></trkpt><trkpt lat="38.0447659729435" lon="-3.461569630827796"><ele>577.4000000000001</ele><time>2026-04-27T13:55:18Z</time></trkpt><trkpt lat="38.04482606403847" lon="-3.461689561563038"><ele>577.5999999999999</ele><time>2026-04-27T13:55:19Z</time></trkpt><trkpt lat="38.044885069637125" lon="-3.4617961847272167"><ele>577.8</ele><time>2026-04-27T13:55:20Z</time></trkpt><trkpt lat="38.0449388021104" lon="-3.46189454813153"><ele>578.0</ele><time>2026-04-27T13:55:21Z</time></trkpt><trkpt lat="38.04498576168205" lon="-3.46197711289346"><ele>578.0</ele><time>2026-04-27T13:55:22Z</time></trkpt><trkpt lat="38.04502864559306" lon="-3.462052706640321"><ele>578.0</ele><time>2026-04-27T13:55:23Z</time></trkpt><trkpt lat="38.04506193527458" lon="-3.4621225275820575"><ele>578.0</ele><time>2026-04-27T13:55:24Z</time></trkpt><trkpt lat="38.04508012901619" lon="-3.462227099477657"><ele>578.0</ele><time>2026-04-27T13:55:26Z</time></trkpt><trkpt lat="38.04501914412543" lon="-3.462316127276836"><ele>578.0</ele><time>2026-04-27T13:55:29Z</time></trkpt><trkpt lat="38.044949483652374" lon="-3.4622457494397154"><ele>578.0</ele><time>2026-04-27T13:55:31Z</time></trkpt><trkpt lat="38.044900376109254" lon="-3.4621452796616685"><ele>566.0</ele><time>2026-04-27T13:55:33Z</time></trkpt><trkpt lat="38.04485146336287" lon="-3.462069331833243"><ele>570.0</ele><time>2026-04-27T13:55:36Z</time></trkpt></trkseg></trk></gpx>